<?xml version="1.0" encoding="UTF-8" standalone="no" ?>
<gpx xmlns="http://www.topografix.com/GPX/1/1" xmlns:xsi="http://www.w3.org/2001/XMLSchema-instance" xsi:schemaLocation="http://www.topografix.com/GPX/1/1 http://www.topografix.com/GPX/1/1/gpx.xsd" version="1.1" creator="VisuGPX - https://www.visugpx.com">
  <metadata>
    <name>Vaudois d'octobre</name>
    <desc><![CDATA[Vaudois d'octobre____________________________]]></desc>
  </metadata>
  <wpt lat="47.49121" lon="6.76313">
    <ele>355.5</ele>
    <name><![CDATA[Point de cheminement 1]]></name>
    <desc><![CDATA[]]></desc>
  </wpt>
  <wpt lat="47.5204" lon="6.7643">
    <ele>428</ele>
    <name><![CDATA[Point de cheminement 2]]></name>
    <desc><![CDATA[]]></desc>
  </wpt>
  <wpt lat="47.54649" lon="6.78399">
    <ele>372.7</ele>
    <name><![CDATA[Point de cheminement 3]]></name>
    <desc><![CDATA[]]></desc>
  </wpt>
  <wpt lat="47.57544" lon="6.80449">
    <ele>445.5</ele>
    <name><![CDATA[Point de cheminement 4]]></name>
    <desc><![CDATA[]]></desc>
  </wpt>
  <wpt lat="47.59787" lon="6.77938">
    <ele>425.8</ele>
    <name><![CDATA[Point de cheminement 5]]></name>
    <desc><![CDATA[]]></desc>
  </wpt>
  <wpt lat="47.58347" lon="6.74197">
    <ele>391.9</ele>
    <name><![CDATA[Point de cheminement 6]]></name>
    <desc><![CDATA[]]></desc>
  </wpt>
  <wpt lat="47.55087" lon="6.737">
    <ele>451.5</ele>
    <name><![CDATA[Point de cheminement 7]]></name>
    <desc><![CDATA[]]></desc>
  </wpt>
  <wpt lat="47.52477" lon="6.77394">
    <ele>420.4</ele>
    <name><![CDATA[Point de cheminement 8]]></name>
    <desc><![CDATA[]]></desc>
  </wpt>
  <trk>
    <name><![CDATA[20]]></name>
    <desc><![CDATA[]]></desc>
    <trkseg>
      <trkpt lat="47.51799" lon="6.77498">
        <ele>435.1</ele>
        <time>2017-10-15T06:14:06.657Z</time>
      </trkpt>
      <trkpt lat="47.51799" lon="6.77497">
        <ele>454.2</ele>
        <time>2017-10-15T06:14:32.999Z</time>
      </trkpt>
      <trkpt lat="47.51801" lon="6.77485">
        <ele>455.2</ele>
        <time>2017-10-15T06:14:33.999Z</time>
      </trkpt>
      <trkpt lat="47.51801" lon="6.77485">
        <ele>457</ele>
        <time>2017-10-15T06:14:52.999Z</time>
      </trkpt>
      <trkpt lat="47.51807" lon="6.77492">
        <ele>456.7</ele>
        <time>2017-10-15T06:14:53.999Z</time>
      </trkpt>
      <trkpt lat="47.51804" lon="6.77492">
        <ele>455.8</ele>
        <time>2017-10-15T06:14:56.999Z</time>
      </trkpt>
      <trkpt lat="47.51802" lon="6.77492">
        <ele>455.5</ele>
        <time>2017-10-15T06:14:57.999Z</time>
      </trkpt>
      <trkpt lat="47.518" lon="6.77491">
        <ele>455.1</ele>
        <time>2017-10-15T06:14:58.999Z</time>
      </trkpt>
      <trkpt lat="47.51797" lon="6.77491">
        <ele>454.8</ele>
        <time>2017-10-15T06:14:59.999Z</time>
      </trkpt>
      <trkpt lat="47.51793" lon="6.7749">
        <ele>454.6</ele>
        <time>2017-10-15T06:15:00.999Z</time>
      </trkpt>
      <trkpt lat="47.51791" lon="6.7749">
        <ele>454.3</ele>
        <time>2017-10-15T06:15:01.999Z</time>
      </trkpt>
      <trkpt lat="47.51788" lon="6.7749">
        <ele>454.1</ele>
        <time>2017-10-15T06:15:02.999Z</time>
      </trkpt>
      <trkpt lat="47.51785" lon="6.77489">
        <ele>453.9</ele>
        <time>2017-10-15T06:15:03.999Z</time>
      </trkpt>
      <trkpt lat="47.51782" lon="6.77489">
        <ele>453.8</ele>
        <time>2017-10-15T06:15:04.999Z</time>
      </trkpt>
      <trkpt lat="47.51778" lon="6.77488">
        <ele>453.6</ele>
        <time>2017-10-15T06:15:05.999Z</time>
      </trkpt>
      <trkpt lat="47.51775" lon="6.77487">
        <ele>453.4</ele>
        <time>2017-10-15T06:15:06.999Z</time>
      </trkpt>
      <trkpt lat="47.51772" lon="6.77487">
        <ele>453.3</ele>
        <time>2017-10-15T06:15:07.999Z</time>
      </trkpt>
      <trkpt lat="47.51768" lon="6.77486">
        <ele>452.9</ele>
        <time>2017-10-15T06:15:09.999Z</time>
      </trkpt>
      <trkpt lat="47.51766" lon="6.77486">
        <ele>452.5</ele>
        <time>2017-10-15T06:15:10.999Z</time>
      </trkpt>
      <trkpt lat="47.51763" lon="6.77486">
        <ele>451.9</ele>
        <time>2017-10-15T06:15:12.999Z</time>
      </trkpt>
      <trkpt lat="47.5176" lon="6.77486">
        <ele>451.7</ele>
        <time>2017-10-15T06:15:13.999Z</time>
      </trkpt>
      <trkpt lat="47.51756" lon="6.77485">
        <ele>451.5</ele>
        <time>2017-10-15T06:15:14.999Z</time>
      </trkpt>
      <trkpt lat="47.51753" lon="6.77484">
        <ele>451.3</ele>
        <time>2017-10-15T06:15:15.999Z</time>
      </trkpt>
      <trkpt lat="47.51748" lon="6.77482">
        <ele>448.5</ele>
        <time>2017-10-15T06:15:16.999Z</time>
      </trkpt>
      <trkpt lat="47.51744" lon="6.77482">
        <ele>446.6</ele>
        <time>2017-10-15T06:15:17.999Z</time>
      </trkpt>
      <trkpt lat="47.5174" lon="6.77481">
        <ele>445.7</ele>
        <time>2017-10-15T06:15:18.999Z</time>
      </trkpt>
      <trkpt lat="47.51738" lon="6.77481">
        <ele>445.6</ele>
        <time>2017-10-15T06:15:19.999Z</time>
      </trkpt>
      <trkpt lat="47.51735" lon="6.77482">
        <ele>445.6</ele>
        <time>2017-10-15T06:15:20.999Z</time>
      </trkpt>
      <trkpt lat="47.51732" lon="6.77485">
        <ele>445.4</ele>
        <time>2017-10-15T06:15:21.999Z</time>
      </trkpt>
      <trkpt lat="47.5173" lon="6.77489">
        <ele>445</ele>
        <time>2017-10-15T06:15:22.999Z</time>
      </trkpt>
      <trkpt lat="47.51729" lon="6.77495">
        <ele>444.1</ele>
        <time>2017-10-15T06:15:23.999Z</time>
      </trkpt>
      <trkpt lat="47.51728" lon="6.77501">
        <ele>443.5</ele>
        <time>2017-10-15T06:15:24.999Z</time>
      </trkpt>
      <trkpt lat="47.51725" lon="6.77506">
        <ele>443.4</ele>
        <time>2017-10-15T06:15:25.999Z</time>
      </trkpt>
      <trkpt lat="47.51724" lon="6.77511">
        <ele>442</ele>
        <time>2017-10-15T06:15:26.999Z</time>
      </trkpt>
      <trkpt lat="47.51722" lon="6.77517">
        <ele>441.6</ele>
        <time>2017-10-15T06:15:27.999Z</time>
      </trkpt>
      <trkpt lat="47.5172" lon="6.77522">
        <ele>441.2</ele>
        <time>2017-10-15T06:15:28.999Z</time>
      </trkpt>
      <trkpt lat="47.51719" lon="6.77527">
        <ele>441.1</ele>
        <time>2017-10-15T06:15:29.999Z</time>
      </trkpt>
      <trkpt lat="47.51719" lon="6.77533">
        <ele>441.4</ele>
        <time>2017-10-15T06:15:30.999Z</time>
      </trkpt>
      <trkpt lat="47.51717" lon="6.77538">
        <ele>441.3</ele>
        <time>2017-10-15T06:15:31.999Z</time>
      </trkpt>
      <trkpt lat="47.51714" lon="6.77541">
        <ele>441.2</ele>
        <time>2017-10-15T06:15:32.999Z</time>
      </trkpt>
      <trkpt lat="47.51712" lon="6.77545">
        <ele>441.2</ele>
        <time>2017-10-15T06:15:33.999Z</time>
      </trkpt>
      <trkpt lat="47.51708" lon="6.77543">
        <ele>441.7</ele>
        <time>2017-10-15T06:15:34.999Z</time>
      </trkpt>
      <trkpt lat="47.51704" lon="6.77541">
        <ele>441.5</ele>
        <time>2017-10-15T06:15:35.999Z</time>
      </trkpt>
      <trkpt lat="47.517" lon="6.77538">
        <ele>441.2</ele>
        <time>2017-10-15T06:15:36.999Z</time>
      </trkpt>
      <trkpt lat="47.51695" lon="6.77533">
        <ele>441.2</ele>
        <time>2017-10-15T06:15:37.999Z</time>
      </trkpt>
      <trkpt lat="47.51691" lon="6.7753">
        <ele>441.6</ele>
        <time>2017-10-15T06:15:38.999Z</time>
      </trkpt>
      <trkpt lat="47.51686" lon="6.77526">
        <ele>441.9</ele>
        <time>2017-10-15T06:15:39.999Z</time>
      </trkpt>
      <trkpt lat="47.51681" lon="6.77522">
        <ele>440.9</ele>
        <time>2017-10-15T06:15:40.999Z</time>
      </trkpt>
      <trkpt lat="47.51676" lon="6.77517">
        <ele>440</ele>
        <time>2017-10-15T06:15:41.999Z</time>
      </trkpt>
      <trkpt lat="47.51671" lon="6.77512">
        <ele>438.6</ele>
        <time>2017-10-15T06:15:42.999Z</time>
      </trkpt>
      <trkpt lat="47.51666" lon="6.77507">
        <ele>438.3</ele>
        <time>2017-10-15T06:15:43.999Z</time>
      </trkpt>
      <trkpt lat="47.51662" lon="6.77502">
        <ele>438</ele>
        <time>2017-10-15T06:15:44.999Z</time>
      </trkpt>
      <trkpt lat="47.51657" lon="6.77497">
        <ele>437.8</ele>
        <time>2017-10-15T06:15:45.999Z</time>
      </trkpt>
      <trkpt lat="47.51652" lon="6.77491">
        <ele>437.2</ele>
        <time>2017-10-15T06:15:46.999Z</time>
      </trkpt>
      <trkpt lat="47.51648" lon="6.77486">
        <ele>436.6</ele>
        <time>2017-10-15T06:15:47.999Z</time>
      </trkpt>
      <trkpt lat="47.51644" lon="6.77481">
        <ele>436.6</ele>
        <time>2017-10-15T06:15:48.999Z</time>
      </trkpt>
      <trkpt lat="47.51639" lon="6.77475">
        <ele>436.1</ele>
        <time>2017-10-15T06:15:49.999Z</time>
      </trkpt>
      <trkpt lat="47.51634" lon="6.77469">
        <ele>436.3</ele>
        <time>2017-10-15T06:15:50.999Z</time>
      </trkpt>
      <trkpt lat="47.51629" lon="6.77463">
        <ele>436.9</ele>
        <time>2017-10-15T06:15:51.999Z</time>
      </trkpt>
      <trkpt lat="47.51624" lon="6.77458">
        <ele>436.9</ele>
        <time>2017-10-15T06:15:52.999Z</time>
      </trkpt>
      <trkpt lat="47.51619" lon="6.77452">
        <ele>437.5</ele>
        <time>2017-10-15T06:15:53.999Z</time>
      </trkpt>
      <trkpt lat="47.51614" lon="6.77446">
        <ele>437.8</ele>
        <time>2017-10-15T06:15:54.999Z</time>
      </trkpt>
      <trkpt lat="47.51608" lon="6.7744">
        <ele>438.4</ele>
        <time>2017-10-15T06:15:55.999Z</time>
      </trkpt>
      <trkpt lat="47.51603" lon="6.77433">
        <ele>438.7</ele>
        <time>2017-10-15T06:15:56.999Z</time>
      </trkpt>
      <trkpt lat="47.51597" lon="6.77427">
        <ele>439.3</ele>
        <time>2017-10-15T06:15:57.999Z</time>
      </trkpt>
      <trkpt lat="47.51592" lon="6.77421">
        <ele>439.5</ele>
        <time>2017-10-15T06:15:58.999Z</time>
      </trkpt>
      <trkpt lat="47.51587" lon="6.77415">
        <ele>439.8</ele>
        <time>2017-10-15T06:15:59.999Z</time>
      </trkpt>
      <trkpt lat="47.51582" lon="6.77408">
        <ele>440</ele>
        <time>2017-10-15T06:16:00.999Z</time>
      </trkpt>
      <trkpt lat="47.51577" lon="6.77402">
        <ele>440</ele>
        <time>2017-10-15T06:16:01.999Z</time>
      </trkpt>
      <trkpt lat="47.51572" lon="6.77396">
        <ele>439.8</ele>
        <time>2017-10-15T06:16:02.999Z</time>
      </trkpt>
      <trkpt lat="47.51567" lon="6.77389">
        <ele>439.6</ele>
        <time>2017-10-15T06:16:03.999Z</time>
      </trkpt>
      <trkpt lat="47.51562" lon="6.77383">
        <ele>439.6</ele>
        <time>2017-10-15T06:16:04.999Z</time>
      </trkpt>
      <trkpt lat="47.51556" lon="6.77376">
        <ele>439.5</ele>
        <time>2017-10-15T06:16:05.999Z</time>
      </trkpt>
      <trkpt lat="47.5155" lon="6.77369">
        <ele>439.1</ele>
        <time>2017-10-15T06:16:06.999Z</time>
      </trkpt>
      <trkpt lat="47.51543" lon="6.77361">
        <ele>438.3</ele>
        <time>2017-10-15T06:16:07.999Z</time>
      </trkpt>
      <trkpt lat="47.51536" lon="6.77353">
        <ele>437.5</ele>
        <time>2017-10-15T06:16:08.999Z</time>
      </trkpt>
      <trkpt lat="47.5153" lon="6.77346">
        <ele>436.5</ele>
        <time>2017-10-15T06:16:09.999Z</time>
      </trkpt>
      <trkpt lat="47.51523" lon="6.77338">
        <ele>435.9</ele>
        <time>2017-10-15T06:16:10.999Z</time>
      </trkpt>
      <trkpt lat="47.51516" lon="6.7733">
        <ele>435.2</ele>
        <time>2017-10-15T06:16:11.999Z</time>
      </trkpt>
      <trkpt lat="47.51509" lon="6.77322">
        <ele>434.4</ele>
        <time>2017-10-15T06:16:12.999Z</time>
      </trkpt>
      <trkpt lat="47.51502" lon="6.77313">
        <ele>433.5</ele>
        <time>2017-10-15T06:16:13.999Z</time>
      </trkpt>
      <trkpt lat="47.51495" lon="6.77304">
        <ele>432.5</ele>
        <time>2017-10-15T06:16:14.999Z</time>
      </trkpt>
      <trkpt lat="47.51491" lon="6.77293">
        <ele>431.5</ele>
        <time>2017-10-15T06:16:15.999Z</time>
      </trkpt>
      <trkpt lat="47.51488" lon="6.77281">
        <ele>430.2</ele>
        <time>2017-10-15T06:16:16.999Z</time>
      </trkpt>
      <trkpt lat="47.51487" lon="6.77269">
        <ele>429.1</ele>
        <time>2017-10-15T06:16:17.999Z</time>
      </trkpt>
      <trkpt lat="47.51485" lon="6.77259">
        <ele>428.5</ele>
        <time>2017-10-15T06:16:18.999Z</time>
      </trkpt>
      <trkpt lat="47.51485" lon="6.77248">
        <ele>428</ele>
        <time>2017-10-15T06:16:19.999Z</time>
      </trkpt>
      <trkpt lat="47.51485" lon="6.77237">
        <ele>427.1</ele>
        <time>2017-10-15T06:16:20.999Z</time>
      </trkpt>
      <trkpt lat="47.51484" lon="6.77227">
        <ele>426.2</ele>
        <time>2017-10-15T06:16:21.999Z</time>
      </trkpt>
      <trkpt lat="47.51485" lon="6.7722">
        <ele>426.1</ele>
        <time>2017-10-15T06:16:22.999Z</time>
      </trkpt>
      <trkpt lat="47.51483" lon="6.77214">
        <ele>426.3</ele>
        <time>2017-10-15T06:16:23.999Z</time>
      </trkpt>
      <trkpt lat="47.51478" lon="6.77209">
        <ele>426.1</ele>
        <time>2017-10-15T06:16:24.999Z</time>
      </trkpt>
      <trkpt lat="47.51473" lon="6.77208">
        <ele>425.6</ele>
        <time>2017-10-15T06:16:25.999Z</time>
      </trkpt>
      <trkpt lat="47.51466" lon="6.77208">
        <ele>425.1</ele>
        <time>2017-10-15T06:16:26.999Z</time>
      </trkpt>
      <trkpt lat="47.51459" lon="6.77209">
        <ele>424.5</ele>
        <time>2017-10-15T06:16:27.999Z</time>
      </trkpt>
      <trkpt lat="47.51451" lon="6.77211">
        <ele>423.6</ele>
        <time>2017-10-15T06:16:28.999Z</time>
      </trkpt>
      <trkpt lat="47.51445" lon="6.77213">
        <ele>422.8</ele>
        <time>2017-10-15T06:16:29.999Z</time>
      </trkpt>
      <trkpt lat="47.51438" lon="6.77215">
        <ele>422.8</ele>
        <time>2017-10-15T06:16:30.999Z</time>
      </trkpt>
      <trkpt lat="47.51431" lon="6.77217">
        <ele>423.2</ele>
        <time>2017-10-15T06:16:31.999Z</time>
      </trkpt>
      <trkpt lat="47.51425" lon="6.7722">
        <ele>423.2</ele>
        <time>2017-10-15T06:16:32.999Z</time>
      </trkpt>
      <trkpt lat="47.51419" lon="6.77224">
        <ele>423.1</ele>
        <time>2017-10-15T06:16:33.999Z</time>
      </trkpt>
      <trkpt lat="47.51413" lon="6.77227">
        <ele>423.3</ele>
        <time>2017-10-15T06:16:34.999Z</time>
      </trkpt>
      <trkpt lat="47.51407" lon="6.7723">
        <ele>424.1</ele>
        <time>2017-10-15T06:16:35.999Z</time>
      </trkpt>
      <trkpt lat="47.51402" lon="6.77233">
        <ele>425.2</ele>
        <time>2017-10-15T06:16:36.999Z</time>
      </trkpt>
      <trkpt lat="47.51396" lon="6.77235">
        <ele>426.1</ele>
        <time>2017-10-15T06:16:37.999Z</time>
      </trkpt>
      <trkpt lat="47.51391" lon="6.77237">
        <ele>426.5</ele>
        <time>2017-10-15T06:16:38.999Z</time>
      </trkpt>
      <trkpt lat="47.51386" lon="6.77239">
        <ele>426.5</ele>
        <time>2017-10-15T06:16:39.999Z</time>
      </trkpt>
      <trkpt lat="47.51382" lon="6.77241">
        <ele>426.9</ele>
        <time>2017-10-15T06:16:40.999Z</time>
      </trkpt>
      <trkpt lat="47.51378" lon="6.77243">
        <ele>426.5</ele>
        <time>2017-10-15T06:16:41.999Z</time>
      </trkpt>
      <trkpt lat="47.51375" lon="6.77246">
        <ele>426.5</ele>
        <time>2017-10-15T06:16:42.999Z</time>
      </trkpt>
      <trkpt lat="47.51373" lon="6.77249">
        <ele>426.4</ele>
        <time>2017-10-15T06:16:43.999Z</time>
      </trkpt>
      <trkpt lat="47.51369" lon="6.77252">
        <ele>426.4</ele>
        <time>2017-10-15T06:16:44.999Z</time>
      </trkpt>
      <trkpt lat="47.51367" lon="6.77253">
        <ele>426.4</ele>
        <time>2017-10-15T06:16:45.999Z</time>
      </trkpt>
      <trkpt lat="47.51363" lon="6.77255">
        <ele>426.4</ele>
        <time>2017-10-15T06:16:47.999Z</time>
      </trkpt>
      <trkpt lat="47.51361" lon="6.77256">
        <ele>426.4</ele>
        <time>2017-10-15T06:16:48.999Z</time>
      </trkpt>
      <trkpt lat="47.51358" lon="6.77259">
        <ele>426.6</ele>
        <time>2017-10-15T06:16:50.999Z</time>
      </trkpt>
      <trkpt lat="47.51356" lon="6.7726">
        <ele>426.7</ele>
        <time>2017-10-15T06:16:51.999Z</time>
      </trkpt>
      <trkpt lat="47.51353" lon="6.77262">
        <ele>426.7</ele>
        <time>2017-10-15T06:16:52.999Z</time>
      </trkpt>
      <trkpt lat="47.51351" lon="6.77264">
        <ele>426.8</ele>
        <time>2017-10-15T06:16:53.999Z</time>
      </trkpt>
      <trkpt lat="47.51348" lon="6.77267">
        <ele>426.8</ele>
        <time>2017-10-15T06:16:54.999Z</time>
      </trkpt>
      <trkpt lat="47.51345" lon="6.77269">
        <ele>426.8</ele>
        <time>2017-10-15T06:16:55.999Z</time>
      </trkpt>
      <trkpt lat="47.51343" lon="6.77271">
        <ele>426.8</ele>
        <time>2017-10-15T06:16:56.999Z</time>
      </trkpt>
      <trkpt lat="47.5134" lon="6.77273">
        <ele>426.9</ele>
        <time>2017-10-15T06:16:57.999Z</time>
      </trkpt>
      <trkpt lat="47.51337" lon="6.77275">
        <ele>426.9</ele>
        <time>2017-10-15T06:16:58.999Z</time>
      </trkpt>
      <trkpt lat="47.51334" lon="6.77277">
        <ele>426.9</ele>
        <time>2017-10-15T06:16:59.999Z</time>
      </trkpt>
      <trkpt lat="47.51331" lon="6.77279">
        <ele>427</ele>
        <time>2017-10-15T06:17:00.999Z</time>
      </trkpt>
      <trkpt lat="47.51327" lon="6.77279">
        <ele>427.1</ele>
        <time>2017-10-15T06:17:01.999Z</time>
      </trkpt>
      <trkpt lat="47.51324" lon="6.7728">
        <ele>427.2</ele>
        <time>2017-10-15T06:17:02.999Z</time>
      </trkpt>
      <trkpt lat="47.51321" lon="6.7728">
        <ele>427.3</ele>
        <time>2017-10-15T06:17:03.999Z</time>
      </trkpt>
      <trkpt lat="47.51318" lon="6.7728">
        <ele>427.5</ele>
        <time>2017-10-15T06:17:04.999Z</time>
      </trkpt>
      <trkpt lat="47.51315" lon="6.7728">
        <ele>427.6</ele>
        <time>2017-10-15T06:17:05.999Z</time>
      </trkpt>
      <trkpt lat="47.51311" lon="6.7728">
        <ele>427.7</ele>
        <time>2017-10-15T06:17:06.999Z</time>
      </trkpt>
      <trkpt lat="47.51309" lon="6.77278">
        <ele>427.8</ele>
        <time>2017-10-15T06:17:07.999Z</time>
      </trkpt>
      <trkpt lat="47.51306" lon="6.77276">
        <ele>427.9</ele>
        <time>2017-10-15T06:17:08.999Z</time>
      </trkpt>
      <trkpt lat="47.51303" lon="6.77275">
        <ele>427.9</ele>
        <time>2017-10-15T06:17:09.999Z</time>
      </trkpt>
      <trkpt lat="47.51299" lon="6.77275">
        <ele>428</ele>
        <time>2017-10-15T06:17:10.999Z</time>
      </trkpt>
      <trkpt lat="47.51296" lon="6.77274">
        <ele>428</ele>
        <time>2017-10-15T06:17:11.999Z</time>
      </trkpt>
      <trkpt lat="47.51293" lon="6.77272">
        <ele>428.1</ele>
        <time>2017-10-15T06:17:12.999Z</time>
      </trkpt>
      <trkpt lat="47.5129" lon="6.7727">
        <ele>428.2</ele>
        <time>2017-10-15T06:17:13.999Z</time>
      </trkpt>
      <trkpt lat="47.51287" lon="6.77268">
        <ele>428.4</ele>
        <time>2017-10-15T06:17:14.999Z</time>
      </trkpt>
      <trkpt lat="47.51284" lon="6.77266">
        <ele>428.4</ele>
        <time>2017-10-15T06:17:15.999Z</time>
      </trkpt>
      <trkpt lat="47.51282" lon="6.77264">
        <ele>428.5</ele>
        <time>2017-10-15T06:17:16.999Z</time>
      </trkpt>
      <trkpt lat="47.51279" lon="6.77262">
        <ele>428.6</ele>
        <time>2017-10-15T06:17:17.999Z</time>
      </trkpt>
      <trkpt lat="47.51276" lon="6.77261">
        <ele>428.7</ele>
        <time>2017-10-15T06:17:18.999Z</time>
      </trkpt>
      <trkpt lat="47.51272" lon="6.77259">
        <ele>428.8</ele>
        <time>2017-10-15T06:17:19.999Z</time>
      </trkpt>
      <trkpt lat="47.51269" lon="6.77257">
        <ele>428.9</ele>
        <time>2017-10-15T06:17:20.999Z</time>
      </trkpt>
      <trkpt lat="47.51266" lon="6.77253">
        <ele>429</ele>
        <time>2017-10-15T06:17:21.999Z</time>
      </trkpt>
      <trkpt lat="47.51263" lon="6.77249">
        <ele>429.2</ele>
        <time>2017-10-15T06:17:22.999Z</time>
      </trkpt>
      <trkpt lat="47.5126" lon="6.77245">
        <ele>430.3</ele>
        <time>2017-10-15T06:17:23.999Z</time>
      </trkpt>
      <trkpt lat="47.51257" lon="6.7724">
        <ele>431.2</ele>
        <time>2017-10-15T06:17:24.999Z</time>
      </trkpt>
      <trkpt lat="47.51254" lon="6.77236">
        <ele>432.6</ele>
        <time>2017-10-15T06:17:25.999Z</time>
      </trkpt>
      <trkpt lat="47.51251" lon="6.7723">
        <ele>433.3</ele>
        <time>2017-10-15T06:17:26.999Z</time>
      </trkpt>
      <trkpt lat="47.51247" lon="6.77223">
        <ele>433.8</ele>
        <time>2017-10-15T06:17:27.999Z</time>
      </trkpt>
      <trkpt lat="47.51244" lon="6.77218">
        <ele>434.5</ele>
        <time>2017-10-15T06:17:28.999Z</time>
      </trkpt>
      <trkpt lat="47.51241" lon="6.77211">
        <ele>435</ele>
        <time>2017-10-15T06:17:29.999Z</time>
      </trkpt>
      <trkpt lat="47.51238" lon="6.77205">
        <ele>435.7</ele>
        <time>2017-10-15T06:17:30.999Z</time>
      </trkpt>
      <trkpt lat="47.51235" lon="6.77199">
        <ele>435.9</ele>
        <time>2017-10-15T06:17:31.999Z</time>
      </trkpt>
      <trkpt lat="47.51232" lon="6.77194">
        <ele>436.6</ele>
        <time>2017-10-15T06:17:32.999Z</time>
      </trkpt>
      <trkpt lat="47.51229" lon="6.77189">
        <ele>437</ele>
        <time>2017-10-15T06:17:33.999Z</time>
      </trkpt>
      <trkpt lat="47.51226" lon="6.77182">
        <ele>436.7</ele>
        <time>2017-10-15T06:17:34.999Z</time>
      </trkpt>
      <trkpt lat="47.51223" lon="6.77176">
        <ele>435.9</ele>
        <time>2017-10-15T06:17:35.999Z</time>
      </trkpt>
      <trkpt lat="47.5122" lon="6.7717">
        <ele>435.1</ele>
        <time>2017-10-15T06:17:36.999Z</time>
      </trkpt>
      <trkpt lat="47.51217" lon="6.77163">
        <ele>434.1</ele>
        <time>2017-10-15T06:17:37.999Z</time>
      </trkpt>
      <trkpt lat="47.51213" lon="6.77156">
        <ele>433.9</ele>
        <time>2017-10-15T06:17:38.999Z</time>
      </trkpt>
      <trkpt lat="47.5121" lon="6.77149">
        <ele>434.5</ele>
        <time>2017-10-15T06:17:39.999Z</time>
      </trkpt>
      <trkpt lat="47.51206" lon="6.77143">
        <ele>434.4</ele>
        <time>2017-10-15T06:17:40.999Z</time>
      </trkpt>
      <trkpt lat="47.51202" lon="6.77136">
        <ele>434.5</ele>
        <time>2017-10-15T06:17:41.999Z</time>
      </trkpt>
      <trkpt lat="47.51198" lon="6.77129">
        <ele>434.3</ele>
        <time>2017-10-15T06:17:42.999Z</time>
      </trkpt>
      <trkpt lat="47.51194" lon="6.77121">
        <ele>434</ele>
        <time>2017-10-15T06:17:43.999Z</time>
      </trkpt>
      <trkpt lat="47.51189" lon="6.77113">
        <ele>433.4</ele>
        <time>2017-10-15T06:17:44.999Z</time>
      </trkpt>
      <trkpt lat="47.51185" lon="6.77105">
        <ele>433</ele>
        <time>2017-10-15T06:17:45.999Z</time>
      </trkpt>
      <trkpt lat="47.51181" lon="6.77096">
        <ele>432.8</ele>
        <time>2017-10-15T06:17:46.999Z</time>
      </trkpt>
      <trkpt lat="47.51177" lon="6.77087">
        <ele>432.8</ele>
        <time>2017-10-15T06:17:47.999Z</time>
      </trkpt>
      <trkpt lat="47.51173" lon="6.77079">
        <ele>433.6</ele>
        <time>2017-10-15T06:17:48.999Z</time>
      </trkpt>
      <trkpt lat="47.51169" lon="6.77072">
        <ele>433.9</ele>
        <time>2017-10-15T06:17:49.999Z</time>
      </trkpt>
      <trkpt lat="47.51164" lon="6.77066">
        <ele>434.3</ele>
        <time>2017-10-15T06:17:50.999Z</time>
      </trkpt>
      <trkpt lat="47.51159" lon="6.77059">
        <ele>434.8</ele>
        <time>2017-10-15T06:17:51.999Z</time>
      </trkpt>
      <trkpt lat="47.51153" lon="6.77052">
        <ele>434.1</ele>
        <time>2017-10-15T06:17:52.999Z</time>
      </trkpt>
      <trkpt lat="47.51148" lon="6.77047">
        <ele>433.4</ele>
        <time>2017-10-15T06:17:53.999Z</time>
      </trkpt>
      <trkpt lat="47.51142" lon="6.77042">
        <ele>432.4</ele>
        <time>2017-10-15T06:17:54.999Z</time>
      </trkpt>
      <trkpt lat="47.51136" lon="6.77036">
        <ele>431.7</ele>
        <time>2017-10-15T06:17:55.999Z</time>
      </trkpt>
      <trkpt lat="47.51129" lon="6.77031">
        <ele>431.3</ele>
        <time>2017-10-15T06:17:56.999Z</time>
      </trkpt>
      <trkpt lat="47.51124" lon="6.77026">
        <ele>431</ele>
        <time>2017-10-15T06:17:57.999Z</time>
      </trkpt>
      <trkpt lat="47.51118" lon="6.77021">
        <ele>430.3</ele>
        <time>2017-10-15T06:17:58.999Z</time>
      </trkpt>
      <trkpt lat="47.51112" lon="6.77016">
        <ele>430</ele>
        <time>2017-10-15T06:17:59.999Z</time>
      </trkpt>
      <trkpt lat="47.51106" lon="6.77011">
        <ele>429.6</ele>
        <time>2017-10-15T06:18:00.999Z</time>
      </trkpt>
      <trkpt lat="47.511" lon="6.77007">
        <ele>428.9</ele>
        <time>2017-10-15T06:18:01.999Z</time>
      </trkpt>
      <trkpt lat="47.51095" lon="6.77002">
        <ele>428</ele>
        <time>2017-10-15T06:18:02.999Z</time>
      </trkpt>
      <trkpt lat="47.51089" lon="6.76997">
        <ele>427.1</ele>
        <time>2017-10-15T06:18:03.999Z</time>
      </trkpt>
      <trkpt lat="47.51084" lon="6.76993">
        <ele>426.5</ele>
        <time>2017-10-15T06:18:04.999Z</time>
      </trkpt>
      <trkpt lat="47.51078" lon="6.76989">
        <ele>426.7</ele>
        <time>2017-10-15T06:18:05.999Z</time>
      </trkpt>
      <trkpt lat="47.51072" lon="6.76984">
        <ele>426.4</ele>
        <time>2017-10-15T06:18:06.999Z</time>
      </trkpt>
      <trkpt lat="47.51066" lon="6.76979">
        <ele>426.2</ele>
        <time>2017-10-15T06:18:07.999Z</time>
      </trkpt>
      <trkpt lat="47.51061" lon="6.76974">
        <ele>425.9</ele>
        <time>2017-10-15T06:18:08.999Z</time>
      </trkpt>
      <trkpt lat="47.51055" lon="6.76969">
        <ele>425.9</ele>
        <time>2017-10-15T06:18:09.999Z</time>
      </trkpt>
      <trkpt lat="47.5105" lon="6.76964">
        <ele>426.2</ele>
        <time>2017-10-15T06:18:10.999Z</time>
      </trkpt>
      <trkpt lat="47.51045" lon="6.76959">
        <ele>426.7</ele>
        <time>2017-10-15T06:18:11.999Z</time>
      </trkpt>
      <trkpt lat="47.5104" lon="6.76955">
        <ele>426.9</ele>
        <time>2017-10-15T06:18:12.999Z</time>
      </trkpt>
      <trkpt lat="47.51035" lon="6.76951">
        <ele>426.4</ele>
        <time>2017-10-15T06:18:13.999Z</time>
      </trkpt>
      <trkpt lat="47.51031" lon="6.76945">
        <ele>425.8</ele>
        <time>2017-10-15T06:18:14.999Z</time>
      </trkpt>
      <trkpt lat="47.51028" lon="6.76939">
        <ele>425.8</ele>
        <time>2017-10-15T06:18:15.999Z</time>
      </trkpt>
      <trkpt lat="47.51025" lon="6.76934">
        <ele>425.7</ele>
        <time>2017-10-15T06:18:16.999Z</time>
      </trkpt>
      <trkpt lat="47.51021" lon="6.76932">
        <ele>426.3</ele>
        <time>2017-10-15T06:18:17.999Z</time>
      </trkpt>
      <trkpt lat="47.51016" lon="6.7693">
        <ele>426.3</ele>
        <time>2017-10-15T06:18:18.999Z</time>
      </trkpt>
      <trkpt lat="47.51011" lon="6.76928">
        <ele>426.8</ele>
        <time>2017-10-15T06:18:19.999Z</time>
      </trkpt>
      <trkpt lat="47.51006" lon="6.76925">
        <ele>426.9</ele>
        <time>2017-10-15T06:18:20.999Z</time>
      </trkpt>
      <trkpt lat="47.51001" lon="6.76923">
        <ele>427.1</ele>
        <time>2017-10-15T06:18:21.999Z</time>
      </trkpt>
      <trkpt lat="47.50998" lon="6.76917">
        <ele>427.4</ele>
        <time>2017-10-15T06:18:22.999Z</time>
      </trkpt>
      <trkpt lat="47.50997" lon="6.7691">
        <ele>427.8</ele>
        <time>2017-10-15T06:18:23.999Z</time>
      </trkpt>
      <trkpt lat="47.50994" lon="6.76905">
        <ele>428.4</ele>
        <time>2017-10-15T06:18:24.999Z</time>
      </trkpt>
      <trkpt lat="47.5099" lon="6.76902">
        <ele>428.1</ele>
        <time>2017-10-15T06:18:25.999Z</time>
      </trkpt>
      <trkpt lat="47.50984" lon="6.76901">
        <ele>427.9</ele>
        <time>2017-10-15T06:18:26.999Z</time>
      </trkpt>
      <trkpt lat="47.5098" lon="6.769">
        <ele>426.8</ele>
        <time>2017-10-15T06:18:27.999Z</time>
      </trkpt>
      <trkpt lat="47.50976" lon="6.76899">
        <ele>425.2</ele>
        <time>2017-10-15T06:18:28.999Z</time>
      </trkpt>
      <trkpt lat="47.50971" lon="6.76897">
        <ele>425</ele>
        <time>2017-10-15T06:18:29.999Z</time>
      </trkpt>
      <trkpt lat="47.50967" lon="6.76896">
        <ele>424.7</ele>
        <time>2017-10-15T06:18:30.999Z</time>
      </trkpt>
      <trkpt lat="47.50963" lon="6.76895">
        <ele>423.4</ele>
        <time>2017-10-15T06:18:31.999Z</time>
      </trkpt>
      <trkpt lat="47.5096" lon="6.76893">
        <ele>422.9</ele>
        <time>2017-10-15T06:18:32.999Z</time>
      </trkpt>
      <trkpt lat="47.50956" lon="6.7689">
        <ele>422.6</ele>
        <time>2017-10-15T06:18:33.999Z</time>
      </trkpt>
      <trkpt lat="47.50953" lon="6.76886">
        <ele>422</ele>
        <time>2017-10-15T06:18:34.999Z</time>
      </trkpt>
      <trkpt lat="47.50949" lon="6.76882">
        <ele>421.6</ele>
        <time>2017-10-15T06:18:35.999Z</time>
      </trkpt>
      <trkpt lat="47.50945" lon="6.76879">
        <ele>421.7</ele>
        <time>2017-10-15T06:18:36.999Z</time>
      </trkpt>
      <trkpt lat="47.50942" lon="6.76875">
        <ele>421.9</ele>
        <time>2017-10-15T06:18:37.999Z</time>
      </trkpt>
      <trkpt lat="47.50938" lon="6.76871">
        <ele>422.6</ele>
        <time>2017-10-15T06:18:38.999Z</time>
      </trkpt>
      <trkpt lat="47.50934" lon="6.76867">
        <ele>423</ele>
        <time>2017-10-15T06:18:39.999Z</time>
      </trkpt>
      <trkpt lat="47.50932" lon="6.76861">
        <ele>423.3</ele>
        <time>2017-10-15T06:18:40.999Z</time>
      </trkpt>
      <trkpt lat="47.50929" lon="6.76855">
        <ele>423.4</ele>
        <time>2017-10-15T06:18:41.999Z</time>
      </trkpt>
      <trkpt lat="47.50927" lon="6.7685">
        <ele>423.4</ele>
        <time>2017-10-15T06:18:42.999Z</time>
      </trkpt>
      <trkpt lat="47.50925" lon="6.76845">
        <ele>423.4</ele>
        <time>2017-10-15T06:18:43.999Z</time>
      </trkpt>
      <trkpt lat="47.50922" lon="6.7684">
        <ele>423.3</ele>
        <time>2017-10-15T06:18:44.999Z</time>
      </trkpt>
      <trkpt lat="47.50919" lon="6.76834">
        <ele>423.9</ele>
        <time>2017-10-15T06:18:45.999Z</time>
      </trkpt>
      <trkpt lat="47.50917" lon="6.76828">
        <ele>424</ele>
        <time>2017-10-15T06:18:46.999Z</time>
      </trkpt>
      <trkpt lat="47.50915" lon="6.76822">
        <ele>423.7</ele>
        <time>2017-10-15T06:18:47.999Z</time>
      </trkpt>
      <trkpt lat="47.50912" lon="6.76816">
        <ele>423.4</ele>
        <time>2017-10-15T06:18:48.999Z</time>
      </trkpt>
      <trkpt lat="47.50911" lon="6.76812">
        <ele>423.4</ele>
        <time>2017-10-15T06:18:49.999Z</time>
      </trkpt>
      <trkpt lat="47.50909" lon="6.76808">
        <ele>423.5</ele>
        <time>2017-10-15T06:18:50.999Z</time>
      </trkpt>
      <trkpt lat="47.50906" lon="6.76804">
        <ele>423.4</ele>
        <time>2017-10-15T06:18:51.999Z</time>
      </trkpt>
      <trkpt lat="47.50904" lon="6.76799">
        <ele>423.9</ele>
        <time>2017-10-15T06:18:52.999Z</time>
      </trkpt>
      <trkpt lat="47.50902" lon="6.76793">
        <ele>424.7</ele>
        <time>2017-10-15T06:18:53.999Z</time>
      </trkpt>
      <trkpt lat="47.509" lon="6.76789">
        <ele>426</ele>
        <time>2017-10-15T06:18:54.999Z</time>
      </trkpt>
      <trkpt lat="47.50898" lon="6.76784">
        <ele>427.3</ele>
        <time>2017-10-15T06:18:55.999Z</time>
      </trkpt>
      <trkpt lat="47.50896" lon="6.76779">
        <ele>427.8</ele>
        <time>2017-10-15T06:18:56.999Z</time>
      </trkpt>
      <trkpt lat="47.50894" lon="6.76774">
        <ele>428.3</ele>
        <time>2017-10-15T06:18:57.999Z</time>
      </trkpt>
      <trkpt lat="47.50892" lon="6.76768">
        <ele>428.8</ele>
        <time>2017-10-15T06:18:58.999Z</time>
      </trkpt>
      <trkpt lat="47.5089" lon="6.76763">
        <ele>429.1</ele>
        <time>2017-10-15T06:18:59.999Z</time>
      </trkpt>
      <trkpt lat="47.50888" lon="6.76758">
        <ele>428.6</ele>
        <time>2017-10-15T06:19:00.999Z</time>
      </trkpt>
      <trkpt lat="47.50887" lon="6.76753">
        <ele>428.6</ele>
        <time>2017-10-15T06:19:01.999Z</time>
      </trkpt>
      <trkpt lat="47.50886" lon="6.76747">
        <ele>428.2</ele>
        <time>2017-10-15T06:19:02.999Z</time>
      </trkpt>
      <trkpt lat="47.50884" lon="6.76742">
        <ele>428.1</ele>
        <time>2017-10-15T06:19:03.999Z</time>
      </trkpt>
      <trkpt lat="47.50882" lon="6.76737">
        <ele>428</ele>
        <time>2017-10-15T06:19:04.999Z</time>
      </trkpt>
      <trkpt lat="47.50881" lon="6.76733">
        <ele>427.9</ele>
        <time>2017-10-15T06:19:05.999Z</time>
      </trkpt>
      <trkpt lat="47.5088" lon="6.76728">
        <ele>427.9</ele>
        <time>2017-10-15T06:19:06.999Z</time>
      </trkpt>
      <trkpt lat="47.50878" lon="6.76723">
        <ele>427.8</ele>
        <time>2017-10-15T06:19:07.999Z</time>
      </trkpt>
      <trkpt lat="47.50876" lon="6.76718">
        <ele>426.7</ele>
        <time>2017-10-15T06:19:08.999Z</time>
      </trkpt>
      <trkpt lat="47.50875" lon="6.76714">
        <ele>426.6</ele>
        <time>2017-10-15T06:19:09.999Z</time>
      </trkpt>
      <trkpt lat="47.50873" lon="6.76709">
        <ele>426.4</ele>
        <time>2017-10-15T06:19:10.999Z</time>
      </trkpt>
      <trkpt lat="47.50871" lon="6.76704">
        <ele>425.5</ele>
        <time>2017-10-15T06:19:11.999Z</time>
      </trkpt>
      <trkpt lat="47.50869" lon="6.76699">
        <ele>425.5</ele>
        <time>2017-10-15T06:19:12.999Z</time>
      </trkpt>
      <trkpt lat="47.50868" lon="6.76694">
        <ele>425.4</ele>
        <time>2017-10-15T06:19:13.999Z</time>
      </trkpt>
      <trkpt lat="47.50866" lon="6.7669">
        <ele>425.5</ele>
        <time>2017-10-15T06:19:14.999Z</time>
      </trkpt>
      <trkpt lat="47.50864" lon="6.76685">
        <ele>425.6</ele>
        <time>2017-10-15T06:19:15.999Z</time>
      </trkpt>
      <trkpt lat="47.50862" lon="6.76681">
        <ele>425.7</ele>
        <time>2017-10-15T06:19:16.999Z</time>
      </trkpt>
      <trkpt lat="47.50859" lon="6.76676">
        <ele>425.7</ele>
        <time>2017-10-15T06:19:17.999Z</time>
      </trkpt>
      <trkpt lat="47.50858" lon="6.76672">
        <ele>425.8</ele>
        <time>2017-10-15T06:19:18.999Z</time>
      </trkpt>
      <trkpt lat="47.50856" lon="6.76667">
        <ele>425.9</ele>
        <time>2017-10-15T06:19:19.999Z</time>
      </trkpt>
      <trkpt lat="47.50854" lon="6.76664">
        <ele>425.9</ele>
        <time>2017-10-15T06:19:20.999Z</time>
      </trkpt>
      <trkpt lat="47.50852" lon="6.7666">
        <ele>426</ele>
        <time>2017-10-15T06:19:21.999Z</time>
      </trkpt>
      <trkpt lat="47.5085" lon="6.76655">
        <ele>426</ele>
        <time>2017-10-15T06:19:22.999Z</time>
      </trkpt>
      <trkpt lat="47.50847" lon="6.76649">
        <ele>426.2</ele>
        <time>2017-10-15T06:19:23.999Z</time>
      </trkpt>
      <trkpt lat="47.50845" lon="6.76645">
        <ele>426.3</ele>
        <time>2017-10-15T06:19:24.999Z</time>
      </trkpt>
      <trkpt lat="47.50843" lon="6.76641">
        <ele>426.5</ele>
        <time>2017-10-15T06:19:25.999Z</time>
      </trkpt>
      <trkpt lat="47.50841" lon="6.76638">
        <ele>426.6</ele>
        <time>2017-10-15T06:19:26.999Z</time>
      </trkpt>
      <trkpt lat="47.50839" lon="6.76634">
        <ele>426.7</ele>
        <time>2017-10-15T06:19:27.999Z</time>
      </trkpt>
      <trkpt lat="47.50838" lon="6.7663">
        <ele>426.9</ele>
        <time>2017-10-15T06:19:28.999Z</time>
      </trkpt>
      <trkpt lat="47.50836" lon="6.76626">
        <ele>427.1</ele>
        <time>2017-10-15T06:19:29.999Z</time>
      </trkpt>
      <trkpt lat="47.50834" lon="6.76622">
        <ele>427.2</ele>
        <time>2017-10-15T06:19:30.999Z</time>
      </trkpt>
      <trkpt lat="47.50833" lon="6.76618">
        <ele>427.4</ele>
        <time>2017-10-15T06:19:31.999Z</time>
      </trkpt>
      <trkpt lat="47.50831" lon="6.76613">
        <ele>427.5</ele>
        <time>2017-10-15T06:19:32.999Z</time>
      </trkpt>
      <trkpt lat="47.50828" lon="6.76608">
        <ele>427.6</ele>
        <time>2017-10-15T06:19:33.999Z</time>
      </trkpt>
      <trkpt lat="47.50827" lon="6.76604">
        <ele>427.7</ele>
        <time>2017-10-15T06:19:34.999Z</time>
      </trkpt>
      <trkpt lat="47.50825" lon="6.76601">
        <ele>427.8</ele>
        <time>2017-10-15T06:19:35.999Z</time>
      </trkpt>
      <trkpt lat="47.50824" lon="6.76596">
        <ele>427.9</ele>
        <time>2017-10-15T06:19:36.999Z</time>
      </trkpt>
      <trkpt lat="47.50822" lon="6.76591">
        <ele>428</ele>
        <time>2017-10-15T06:19:37.999Z</time>
      </trkpt>
      <trkpt lat="47.50819" lon="6.76591">
        <ele>428.1</ele>
        <time>2017-10-15T06:19:38.999Z</time>
      </trkpt>
      <trkpt lat="47.50816" lon="6.76595">
        <ele>428.5</ele>
        <time>2017-10-15T06:19:40.999Z</time>
      </trkpt>
      <trkpt lat="47.50813" lon="6.76594">
        <ele>428.6</ele>
        <time>2017-10-15T06:19:41.999Z</time>
      </trkpt>
      <trkpt lat="47.50812" lon="6.76589">
        <ele>429</ele>
        <time>2017-10-15T06:19:43.999Z</time>
      </trkpt>
      <trkpt lat="47.5081" lon="6.76586">
        <ele>429.1</ele>
        <time>2017-10-15T06:19:44.999Z</time>
      </trkpt>
      <trkpt lat="47.50808" lon="6.76587">
        <ele>429.2</ele>
        <time>2017-10-15T06:19:45.999Z</time>
      </trkpt>
      <trkpt lat="47.50806" lon="6.76587">
        <ele>429.4</ele>
        <time>2017-10-15T06:19:46.999Z</time>
      </trkpt>
      <trkpt lat="47.50803" lon="6.76588">
        <ele>429.6</ele>
        <time>2017-10-15T06:19:47.999Z</time>
      </trkpt>
      <trkpt lat="47.508" lon="6.76589">
        <ele>429.7</ele>
        <time>2017-10-15T06:19:48.999Z</time>
      </trkpt>
      <trkpt lat="47.50797" lon="6.7659">
        <ele>429.8</ele>
        <time>2017-10-15T06:19:49.999Z</time>
      </trkpt>
      <trkpt lat="47.50794" lon="6.76591">
        <ele>430</ele>
        <time>2017-10-15T06:19:50.999Z</time>
      </trkpt>
      <trkpt lat="47.5079" lon="6.76592">
        <ele>431.2</ele>
        <time>2017-10-15T06:19:56.999Z</time>
      </trkpt>
      <trkpt lat="47.50789" lon="6.76592">
        <ele>431.4</ele>
        <time>2017-10-15T06:19:57.999Z</time>
      </trkpt>
      <trkpt lat="47.50785" lon="6.76593">
        <ele>433.1</ele>
        <time>2017-10-15T06:20:03.999Z</time>
      </trkpt>
      <trkpt lat="47.50785" lon="6.76593">
        <ele>433.3</ele>
        <time>2017-10-15T06:20:04.999Z</time>
      </trkpt>
      <trkpt lat="47.5078" lon="6.76592">
        <ele>434.7</ele>
        <time>2017-10-15T06:20:16.999Z</time>
      </trkpt>
      <trkpt lat="47.5078" lon="6.76592">
        <ele>434.8</ele>
        <time>2017-10-15T06:20:17.999Z</time>
      </trkpt>
      <trkpt lat="47.50777" lon="6.76593">
        <ele>434.9</ele>
        <time>2017-10-15T06:20:19.999Z</time>
      </trkpt>
      <trkpt lat="47.50774" lon="6.76594">
        <ele>434.9</ele>
        <time>2017-10-15T06:20:20.999Z</time>
      </trkpt>
      <trkpt lat="47.50772" lon="6.76594">
        <ele>434.9</ele>
        <time>2017-10-15T06:20:21.999Z</time>
      </trkpt>
      <trkpt lat="47.5077" lon="6.76594">
        <ele>434.9</ele>
        <time>2017-10-15T06:20:22.999Z</time>
      </trkpt>
      <trkpt lat="47.50767" lon="6.76595">
        <ele>435</ele>
        <time>2017-10-15T06:20:23.999Z</time>
      </trkpt>
      <trkpt lat="47.50764" lon="6.76596">
        <ele>435</ele>
        <time>2017-10-15T06:20:24.999Z</time>
      </trkpt>
      <trkpt lat="47.50761" lon="6.76597">
        <ele>435</ele>
        <time>2017-10-15T06:20:25.999Z</time>
      </trkpt>
      <trkpt lat="47.50757" lon="6.76597">
        <ele>435</ele>
        <time>2017-10-15T06:20:26.999Z</time>
      </trkpt>
      <trkpt lat="47.50754" lon="6.76597">
        <ele>435</ele>
        <time>2017-10-15T06:20:27.999Z</time>
      </trkpt>
      <trkpt lat="47.50751" lon="6.76598">
        <ele>435.1</ele>
        <time>2017-10-15T06:20:28.999Z</time>
      </trkpt>
      <trkpt lat="47.50748" lon="6.76597">
        <ele>435.1</ele>
        <time>2017-10-15T06:20:29.999Z</time>
      </trkpt>
      <trkpt lat="47.50745" lon="6.76597">
        <ele>435.1</ele>
        <time>2017-10-15T06:20:30.999Z</time>
      </trkpt>
      <trkpt lat="47.50742" lon="6.76597">
        <ele>435.1</ele>
        <time>2017-10-15T06:20:31.999Z</time>
      </trkpt>
      <trkpt lat="47.50739" lon="6.76596">
        <ele>435</ele>
        <time>2017-10-15T06:20:32.999Z</time>
      </trkpt>
      <trkpt lat="47.50735" lon="6.76595">
        <ele>434.8</ele>
        <time>2017-10-15T06:20:33.999Z</time>
      </trkpt>
      <trkpt lat="47.50732" lon="6.76594">
        <ele>434.8</ele>
        <time>2017-10-15T06:20:34.999Z</time>
      </trkpt>
      <trkpt lat="47.50729" lon="6.76594">
        <ele>434.8</ele>
        <time>2017-10-15T06:20:35.999Z</time>
      </trkpt>
      <trkpt lat="47.50726" lon="6.76594">
        <ele>434.8</ele>
        <time>2017-10-15T06:20:36.999Z</time>
      </trkpt>
      <trkpt lat="47.50722" lon="6.76594">
        <ele>434.9</ele>
        <time>2017-10-15T06:20:37.999Z</time>
      </trkpt>
      <trkpt lat="47.50719" lon="6.76594">
        <ele>435</ele>
        <time>2017-10-15T06:20:38.999Z</time>
      </trkpt>
      <trkpt lat="47.50715" lon="6.76593">
        <ele>435</ele>
        <time>2017-10-15T06:20:39.999Z</time>
      </trkpt>
      <trkpt lat="47.50711" lon="6.76593">
        <ele>435.1</ele>
        <time>2017-10-15T06:20:40.999Z</time>
      </trkpt>
      <trkpt lat="47.50708" lon="6.76592">
        <ele>435.1</ele>
        <time>2017-10-15T06:20:41.999Z</time>
      </trkpt>
      <trkpt lat="47.50705" lon="6.76592">
        <ele>435.1</ele>
        <time>2017-10-15T06:20:42.999Z</time>
      </trkpt>
      <trkpt lat="47.50702" lon="6.76592">
        <ele>435.1</ele>
        <time>2017-10-15T06:20:43.999Z</time>
      </trkpt>
      <trkpt lat="47.50698" lon="6.76592">
        <ele>435.1</ele>
        <time>2017-10-15T06:20:44.999Z</time>
      </trkpt>
      <trkpt lat="47.50695" lon="6.76592">
        <ele>435.1</ele>
        <time>2017-10-15T06:20:45.999Z</time>
      </trkpt>
      <trkpt lat="47.50691" lon="6.76593">
        <ele>435.2</ele>
        <time>2017-10-15T06:20:46.999Z</time>
      </trkpt>
      <trkpt lat="47.50687" lon="6.76594">
        <ele>435.2</ele>
        <time>2017-10-15T06:20:47.999Z</time>
      </trkpt>
      <trkpt lat="47.50684" lon="6.76594">
        <ele>435.3</ele>
        <time>2017-10-15T06:20:48.999Z</time>
      </trkpt>
      <trkpt lat="47.50681" lon="6.76595">
        <ele>435.4</ele>
        <time>2017-10-15T06:20:49.999Z</time>
      </trkpt>
      <trkpt lat="47.50677" lon="6.76595">
        <ele>435.6</ele>
        <time>2017-10-15T06:20:50.999Z</time>
      </trkpt>
      <trkpt lat="47.50673" lon="6.76596">
        <ele>435.6</ele>
        <time>2017-10-15T06:20:51.999Z</time>
      </trkpt>
      <trkpt lat="47.50669" lon="6.76597">
        <ele>435.6</ele>
        <time>2017-10-15T06:20:52.999Z</time>
      </trkpt>
      <trkpt lat="47.50665" lon="6.76597">
        <ele>435.7</ele>
        <time>2017-10-15T06:20:53.999Z</time>
      </trkpt>
      <trkpt lat="47.50662" lon="6.76598">
        <ele>435.9</ele>
        <time>2017-10-15T06:20:54.999Z</time>
      </trkpt>
      <trkpt lat="47.50658" lon="6.76599">
        <ele>436</ele>
        <time>2017-10-15T06:20:55.999Z</time>
      </trkpt>
      <trkpt lat="47.50655" lon="6.76601">
        <ele>436.1</ele>
        <time>2017-10-15T06:20:56.999Z</time>
      </trkpt>
      <trkpt lat="47.50652" lon="6.76603">
        <ele>436.2</ele>
        <time>2017-10-15T06:20:57.999Z</time>
      </trkpt>
      <trkpt lat="47.50648" lon="6.76604">
        <ele>436.3</ele>
        <time>2017-10-15T06:20:58.999Z</time>
      </trkpt>
      <trkpt lat="47.50645" lon="6.76605">
        <ele>436.3</ele>
        <time>2017-10-15T06:20:59.999Z</time>
      </trkpt>
      <trkpt lat="47.50641" lon="6.76606">
        <ele>436.4</ele>
        <time>2017-10-15T06:21:00.999Z</time>
      </trkpt>
      <trkpt lat="47.50637" lon="6.76608">
        <ele>436.4</ele>
        <time>2017-10-15T06:21:01.999Z</time>
      </trkpt>
      <trkpt lat="47.50634" lon="6.7661">
        <ele>436.5</ele>
        <time>2017-10-15T06:21:02.999Z</time>
      </trkpt>
      <trkpt lat="47.5063" lon="6.76612">
        <ele>436.6</ele>
        <time>2017-10-15T06:21:03.999Z</time>
      </trkpt>
      <trkpt lat="47.50627" lon="6.76613">
        <ele>436.7</ele>
        <time>2017-10-15T06:21:04.999Z</time>
      </trkpt>
      <trkpt lat="47.50624" lon="6.76617">
        <ele>436.9</ele>
        <time>2017-10-15T06:21:05.999Z</time>
      </trkpt>
      <trkpt lat="47.5062" lon="6.76619">
        <ele>437.1</ele>
        <time>2017-10-15T06:21:06.999Z</time>
      </trkpt>
      <trkpt lat="47.50617" lon="6.76621">
        <ele>437.2</ele>
        <time>2017-10-15T06:21:07.999Z</time>
      </trkpt>
      <trkpt lat="47.50614" lon="6.76622">
        <ele>437.4</ele>
        <time>2017-10-15T06:21:08.999Z</time>
      </trkpt>
      <trkpt lat="47.50611" lon="6.76624">
        <ele>437.6</ele>
        <time>2017-10-15T06:21:09.999Z</time>
      </trkpt>
      <trkpt lat="47.50608" lon="6.76625">
        <ele>437.8</ele>
        <time>2017-10-15T06:21:10.999Z</time>
      </trkpt>
      <trkpt lat="47.50605" lon="6.76626">
        <ele>438</ele>
        <time>2017-10-15T06:21:11.999Z</time>
      </trkpt>
      <trkpt lat="47.50601" lon="6.76627">
        <ele>438.2</ele>
        <time>2017-10-15T06:21:12.999Z</time>
      </trkpt>
      <trkpt lat="47.50598" lon="6.76627">
        <ele>438.4</ele>
        <time>2017-10-15T06:21:13.999Z</time>
      </trkpt>
      <trkpt lat="47.50595" lon="6.76628">
        <ele>438.5</ele>
        <time>2017-10-15T06:21:14.999Z</time>
      </trkpt>
      <trkpt lat="47.50592" lon="6.76629">
        <ele>438.6</ele>
        <time>2017-10-15T06:21:15.999Z</time>
      </trkpt>
      <trkpt lat="47.50589" lon="6.76631">
        <ele>438.7</ele>
        <time>2017-10-15T06:21:16.999Z</time>
      </trkpt>
      <trkpt lat="47.50586" lon="6.76632">
        <ele>438.8</ele>
        <time>2017-10-15T06:21:17.999Z</time>
      </trkpt>
      <trkpt lat="47.50582" lon="6.76633">
        <ele>438.8</ele>
        <time>2017-10-15T06:21:18.999Z</time>
      </trkpt>
      <trkpt lat="47.50579" lon="6.76633">
        <ele>438.8</ele>
        <time>2017-10-15T06:21:19.999Z</time>
      </trkpt>
      <trkpt lat="47.50576" lon="6.76634">
        <ele>438.9</ele>
        <time>2017-10-15T06:21:20.999Z</time>
      </trkpt>
      <trkpt lat="47.50573" lon="6.76635">
        <ele>439.1</ele>
        <time>2017-10-15T06:21:21.999Z</time>
      </trkpt>
      <trkpt lat="47.50569" lon="6.76636">
        <ele>439.2</ele>
        <time>2017-10-15T06:21:22.999Z</time>
      </trkpt>
      <trkpt lat="47.50566" lon="6.76637">
        <ele>439.3</ele>
        <time>2017-10-15T06:21:23.999Z</time>
      </trkpt>
      <trkpt lat="47.50562" lon="6.76638">
        <ele>439.2</ele>
        <time>2017-10-15T06:21:24.999Z</time>
      </trkpt>
      <trkpt lat="47.50558" lon="6.76639">
        <ele>439.3</ele>
        <time>2017-10-15T06:21:25.999Z</time>
      </trkpt>
      <trkpt lat="47.50555" lon="6.7664">
        <ele>439.4</ele>
        <time>2017-10-15T06:21:26.999Z</time>
      </trkpt>
      <trkpt lat="47.50551" lon="6.76641">
        <ele>439.5</ele>
        <time>2017-10-15T06:21:27.999Z</time>
      </trkpt>
      <trkpt lat="47.50548" lon="6.76642">
        <ele>439.7</ele>
        <time>2017-10-15T06:21:28.999Z</time>
      </trkpt>
      <trkpt lat="47.50544" lon="6.76643">
        <ele>439.7</ele>
        <time>2017-10-15T06:21:29.999Z</time>
      </trkpt>
      <trkpt lat="47.5054" lon="6.76644">
        <ele>439.9</ele>
        <time>2017-10-15T06:21:30.999Z</time>
      </trkpt>
      <trkpt lat="47.50537" lon="6.76644">
        <ele>441</ele>
        <time>2017-10-15T06:21:31.999Z</time>
      </trkpt>
      <trkpt lat="47.50533" lon="6.76645">
        <ele>441.7</ele>
        <time>2017-10-15T06:21:32.999Z</time>
      </trkpt>
      <trkpt lat="47.50529" lon="6.76645">
        <ele>441.9</ele>
        <time>2017-10-15T06:21:33.999Z</time>
      </trkpt>
      <trkpt lat="47.50524" lon="6.76646">
        <ele>442.8</ele>
        <time>2017-10-15T06:21:34.999Z</time>
      </trkpt>
      <trkpt lat="47.50519" lon="6.76647">
        <ele>443.1</ele>
        <time>2017-10-15T06:21:35.999Z</time>
      </trkpt>
      <trkpt lat="47.50515" lon="6.76649">
        <ele>443.6</ele>
        <time>2017-10-15T06:21:36.999Z</time>
      </trkpt>
      <trkpt lat="47.50511" lon="6.7665">
        <ele>444.2</ele>
        <time>2017-10-15T06:21:37.999Z</time>
      </trkpt>
      <trkpt lat="47.50505" lon="6.76652">
        <ele>444.6</ele>
        <time>2017-10-15T06:21:38.999Z</time>
      </trkpt>
      <trkpt lat="47.50501" lon="6.76653">
        <ele>444.7</ele>
        <time>2017-10-15T06:21:39.999Z</time>
      </trkpt>
      <trkpt lat="47.50496" lon="6.76654">
        <ele>444.7</ele>
        <time>2017-10-15T06:21:40.999Z</time>
      </trkpt>
      <trkpt lat="47.5049" lon="6.76656">
        <ele>444.9</ele>
        <time>2017-10-15T06:21:41.999Z</time>
      </trkpt>
      <trkpt lat="47.50485" lon="6.76658">
        <ele>444.9</ele>
        <time>2017-10-15T06:21:42.999Z</time>
      </trkpt>
      <trkpt lat="47.5048" lon="6.7666">
        <ele>444.7</ele>
        <time>2017-10-15T06:21:43.999Z</time>
      </trkpt>
      <trkpt lat="47.50474" lon="6.76663">
        <ele>444.3</ele>
        <time>2017-10-15T06:21:44.999Z</time>
      </trkpt>
      <trkpt lat="47.5047" lon="6.76666">
        <ele>443.2</ele>
        <time>2017-10-15T06:21:45.999Z</time>
      </trkpt>
      <trkpt lat="47.50465" lon="6.76668">
        <ele>443</ele>
        <time>2017-10-15T06:21:46.999Z</time>
      </trkpt>
      <trkpt lat="47.5046" lon="6.7667">
        <ele>442.7</ele>
        <time>2017-10-15T06:21:47.999Z</time>
      </trkpt>
      <trkpt lat="47.50455" lon="6.76672">
        <ele>443</ele>
        <time>2017-10-15T06:21:48.999Z</time>
      </trkpt>
      <trkpt lat="47.5045" lon="6.76675">
        <ele>443.4</ele>
        <time>2017-10-15T06:21:49.999Z</time>
      </trkpt>
      <trkpt lat="47.50446" lon="6.76677">
        <ele>444.1</ele>
        <time>2017-10-15T06:21:50.999Z</time>
      </trkpt>
      <trkpt lat="47.50442" lon="6.76679">
        <ele>444.5</ele>
        <time>2017-10-15T06:21:51.999Z</time>
      </trkpt>
      <trkpt lat="47.50437" lon="6.76682">
        <ele>445.4</ele>
        <time>2017-10-15T06:21:52.999Z</time>
      </trkpt>
      <trkpt lat="47.50432" lon="6.76684">
        <ele>446.1</ele>
        <time>2017-10-15T06:21:53.999Z</time>
      </trkpt>
      <trkpt lat="47.50429" lon="6.76685">
        <ele>446</ele>
        <time>2017-10-15T06:21:54.999Z</time>
      </trkpt>
      <trkpt lat="47.50425" lon="6.76686">
        <ele>445.7</ele>
        <time>2017-10-15T06:21:55.999Z</time>
      </trkpt>
      <trkpt lat="47.50421" lon="6.76687">
        <ele>445.4</ele>
        <time>2017-10-15T06:21:56.999Z</time>
      </trkpt>
      <trkpt lat="47.50417" lon="6.76688">
        <ele>445.8</ele>
        <time>2017-10-15T06:21:57.999Z</time>
      </trkpt>
      <trkpt lat="47.50412" lon="6.76689">
        <ele>446.3</ele>
        <time>2017-10-15T06:21:58.999Z</time>
      </trkpt>
      <trkpt lat="47.50408" lon="6.7669">
        <ele>446.5</ele>
        <time>2017-10-15T06:21:59.999Z</time>
      </trkpt>
      <trkpt lat="47.50404" lon="6.76692">
        <ele>445.7</ele>
        <time>2017-10-15T06:22:00.999Z</time>
      </trkpt>
      <trkpt lat="47.50399" lon="6.76694">
        <ele>445.6</ele>
        <time>2017-10-15T06:22:01.999Z</time>
      </trkpt>
      <trkpt lat="47.50393" lon="6.76697">
        <ele>445.2</ele>
        <time>2017-10-15T06:22:02.999Z</time>
      </trkpt>
      <trkpt lat="47.50389" lon="6.76699">
        <ele>445.4</ele>
        <time>2017-10-15T06:22:03.999Z</time>
      </trkpt>
      <trkpt lat="47.50385" lon="6.76701">
        <ele>445.3</ele>
        <time>2017-10-15T06:22:04.999Z</time>
      </trkpt>
      <trkpt lat="47.5038" lon="6.76703">
        <ele>445</ele>
        <time>2017-10-15T06:22:05.999Z</time>
      </trkpt>
      <trkpt lat="47.50376" lon="6.76706">
        <ele>444.8</ele>
        <time>2017-10-15T06:22:06.999Z</time>
      </trkpt>
      <trkpt lat="47.50372" lon="6.76707">
        <ele>444.9</ele>
        <time>2017-10-15T06:22:07.999Z</time>
      </trkpt>
      <trkpt lat="47.50368" lon="6.7671">
        <ele>444.4</ele>
        <time>2017-10-15T06:22:08.999Z</time>
      </trkpt>
      <trkpt lat="47.50363" lon="6.76712">
        <ele>444.3</ele>
        <time>2017-10-15T06:22:09.999Z</time>
      </trkpt>
      <trkpt lat="47.50359" lon="6.76713">
        <ele>444.8</ele>
        <time>2017-10-15T06:22:10.999Z</time>
      </trkpt>
      <trkpt lat="47.50355" lon="6.76715">
        <ele>444.9</ele>
        <time>2017-10-15T06:22:11.999Z</time>
      </trkpt>
      <trkpt lat="47.50351" lon="6.76716">
        <ele>445.2</ele>
        <time>2017-10-15T06:22:12.999Z</time>
      </trkpt>
      <trkpt lat="47.50347" lon="6.76718">
        <ele>444.8</ele>
        <time>2017-10-15T06:22:13.999Z</time>
      </trkpt>
      <trkpt lat="47.50343" lon="6.7672">
        <ele>444.7</ele>
        <time>2017-10-15T06:22:14.999Z</time>
      </trkpt>
      <trkpt lat="47.50338" lon="6.76722">
        <ele>445.3</ele>
        <time>2017-10-15T06:22:15.999Z</time>
      </trkpt>
      <trkpt lat="47.50334" lon="6.76724">
        <ele>446</ele>
        <time>2017-10-15T06:22:16.999Z</time>
      </trkpt>
      <trkpt lat="47.5033" lon="6.76726">
        <ele>445.9</ele>
        <time>2017-10-15T06:22:17.999Z</time>
      </trkpt>
      <trkpt lat="47.50327" lon="6.76727">
        <ele>446.2</ele>
        <time>2017-10-15T06:22:18.999Z</time>
      </trkpt>
      <trkpt lat="47.50322" lon="6.76729">
        <ele>446.4</ele>
        <time>2017-10-15T06:22:19.999Z</time>
      </trkpt>
      <trkpt lat="47.50319" lon="6.76731">
        <ele>446.4</ele>
        <time>2017-10-15T06:22:20.999Z</time>
      </trkpt>
      <trkpt lat="47.50315" lon="6.76733">
        <ele>446.9</ele>
        <time>2017-10-15T06:22:21.999Z</time>
      </trkpt>
      <trkpt lat="47.50312" lon="6.76734">
        <ele>446.8</ele>
        <time>2017-10-15T06:22:22.999Z</time>
      </trkpt>
      <trkpt lat="47.50308" lon="6.76735">
        <ele>446.3</ele>
        <time>2017-10-15T06:22:23.999Z</time>
      </trkpt>
      <trkpt lat="47.50303" lon="6.76735">
        <ele>446.2</ele>
        <time>2017-10-15T06:22:24.999Z</time>
      </trkpt>
      <trkpt lat="47.50299" lon="6.76736">
        <ele>446.6</ele>
        <time>2017-10-15T06:22:25.999Z</time>
      </trkpt>
      <trkpt lat="47.50294" lon="6.76737">
        <ele>446.8</ele>
        <time>2017-10-15T06:22:26.999Z</time>
      </trkpt>
      <trkpt lat="47.50289" lon="6.76738">
        <ele>446.8</ele>
        <time>2017-10-15T06:22:27.999Z</time>
      </trkpt>
      <trkpt lat="47.50285" lon="6.76739">
        <ele>447.4</ele>
        <time>2017-10-15T06:22:28.999Z</time>
      </trkpt>
      <trkpt lat="47.50281" lon="6.7674">
        <ele>447.4</ele>
        <time>2017-10-15T06:22:29.999Z</time>
      </trkpt>
      <trkpt lat="47.50277" lon="6.76741">
        <ele>447.6</ele>
        <time>2017-10-15T06:22:30.999Z</time>
      </trkpt>
      <trkpt lat="47.50273" lon="6.76743">
        <ele>448.2</ele>
        <time>2017-10-15T06:22:31.999Z</time>
      </trkpt>
      <trkpt lat="47.50269" lon="6.76744">
        <ele>448.5</ele>
        <time>2017-10-15T06:22:32.999Z</time>
      </trkpt>
      <trkpt lat="47.50265" lon="6.76746">
        <ele>448.7</ele>
        <time>2017-10-15T06:22:33.999Z</time>
      </trkpt>
      <trkpt lat="47.50261" lon="6.76747">
        <ele>448.7</ele>
        <time>2017-10-15T06:22:34.999Z</time>
      </trkpt>
      <trkpt lat="47.50257" lon="6.76747">
        <ele>448.7</ele>
        <time>2017-10-15T06:22:35.999Z</time>
      </trkpt>
      <trkpt lat="47.50254" lon="6.76748">
        <ele>448.7</ele>
        <time>2017-10-15T06:22:36.999Z</time>
      </trkpt>
      <trkpt lat="47.50251" lon="6.76746">
        <ele>448.6</ele>
        <time>2017-10-15T06:22:37.999Z</time>
      </trkpt>
      <trkpt lat="47.50249" lon="6.76742">
        <ele>448.5</ele>
        <time>2017-10-15T06:22:38.999Z</time>
      </trkpt>
      <trkpt lat="47.50246" lon="6.76739">
        <ele>448.4</ele>
        <time>2017-10-15T06:22:39.999Z</time>
      </trkpt>
      <trkpt lat="47.50244" lon="6.76735">
        <ele>448.3</ele>
        <time>2017-10-15T06:22:40.999Z</time>
      </trkpt>
      <trkpt lat="47.50241" lon="6.76731">
        <ele>448.1</ele>
        <time>2017-10-15T06:22:41.999Z</time>
      </trkpt>
      <trkpt lat="47.50239" lon="6.76727">
        <ele>446.7</ele>
        <time>2017-10-15T06:22:42.999Z</time>
      </trkpt>
      <trkpt lat="47.50237" lon="6.76722">
        <ele>446.7</ele>
        <time>2017-10-15T06:22:43.999Z</time>
      </trkpt>
      <trkpt lat="47.50236" lon="6.76718">
        <ele>446.5</ele>
        <time>2017-10-15T06:22:44.999Z</time>
      </trkpt>
      <trkpt lat="47.50233" lon="6.76712">
        <ele>445.5</ele>
        <time>2017-10-15T06:22:45.999Z</time>
      </trkpt>
      <trkpt lat="47.50232" lon="6.76708">
        <ele>445.5</ele>
        <time>2017-10-15T06:22:46.999Z</time>
      </trkpt>
      <trkpt lat="47.5023" lon="6.76703">
        <ele>444.9</ele>
        <time>2017-10-15T06:22:47.999Z</time>
      </trkpt>
      <trkpt lat="47.50228" lon="6.76698">
        <ele>443.8</ele>
        <time>2017-10-15T06:22:48.999Z</time>
      </trkpt>
      <trkpt lat="47.50226" lon="6.76693">
        <ele>443.5</ele>
        <time>2017-10-15T06:22:49.999Z</time>
      </trkpt>
      <trkpt lat="47.50224" lon="6.76687">
        <ele>443.1</ele>
        <time>2017-10-15T06:22:50.999Z</time>
      </trkpt>
      <trkpt lat="47.50222" lon="6.76681">
        <ele>442.8</ele>
        <time>2017-10-15T06:22:51.999Z</time>
      </trkpt>
      <trkpt lat="47.5022" lon="6.76676">
        <ele>442.4</ele>
        <time>2017-10-15T06:22:52.999Z</time>
      </trkpt>
      <trkpt lat="47.50218" lon="6.7667">
        <ele>442.3</ele>
        <time>2017-10-15T06:22:53.999Z</time>
      </trkpt>
      <trkpt lat="47.50216" lon="6.76663">
        <ele>441.6</ele>
        <time>2017-10-15T06:22:54.999Z</time>
      </trkpt>
      <trkpt lat="47.50214" lon="6.76658">
        <ele>441.3</ele>
        <time>2017-10-15T06:22:55.999Z</time>
      </trkpt>
      <trkpt lat="47.50212" lon="6.76651">
        <ele>441.6</ele>
        <time>2017-10-15T06:22:56.999Z</time>
      </trkpt>
      <trkpt lat="47.5021" lon="6.76645">
        <ele>441.9</ele>
        <time>2017-10-15T06:22:57.999Z</time>
      </trkpt>
      <trkpt lat="47.50208" lon="6.76639">
        <ele>441.6</ele>
        <time>2017-10-15T06:22:58.999Z</time>
      </trkpt>
      <trkpt lat="47.50206" lon="6.76633">
        <ele>441.8</ele>
        <time>2017-10-15T06:22:59.999Z</time>
      </trkpt>
      <trkpt lat="47.50203" lon="6.76627">
        <ele>441.7</ele>
        <time>2017-10-15T06:23:00.999Z</time>
      </trkpt>
      <trkpt lat="47.50201" lon="6.7662">
        <ele>441.9</ele>
        <time>2017-10-15T06:23:01.999Z</time>
      </trkpt>
      <trkpt lat="47.50199" lon="6.76614">
        <ele>442.4</ele>
        <time>2017-10-15T06:23:02.999Z</time>
      </trkpt>
      <trkpt lat="47.50196" lon="6.76608">
        <ele>443</ele>
        <time>2017-10-15T06:23:03.999Z</time>
      </trkpt>
      <trkpt lat="47.50195" lon="6.76603">
        <ele>443.1</ele>
        <time>2017-10-15T06:23:04.999Z</time>
      </trkpt>
      <trkpt lat="47.50194" lon="6.766">
        <ele>443.1</ele>
        <time>2017-10-15T06:23:05.999Z</time>
      </trkpt>
      <trkpt lat="47.50194" lon="6.76596">
        <ele>443.2</ele>
        <time>2017-10-15T06:23:06.999Z</time>
      </trkpt>
      <trkpt lat="47.50194" lon="6.76592">
        <ele>443.3</ele>
        <time>2017-10-15T06:23:07.999Z</time>
      </trkpt>
      <trkpt lat="47.50192" lon="6.76586">
        <ele>443.4</ele>
        <time>2017-10-15T06:23:08.999Z</time>
      </trkpt>
      <trkpt lat="47.50191" lon="6.76581">
        <ele>443.5</ele>
        <time>2017-10-15T06:23:09.999Z</time>
      </trkpt>
      <trkpt lat="47.5019" lon="6.76576">
        <ele>443.6</ele>
        <time>2017-10-15T06:23:10.999Z</time>
      </trkpt>
      <trkpt lat="47.50191" lon="6.76571">
        <ele>443.7</ele>
        <time>2017-10-15T06:23:11.999Z</time>
      </trkpt>
      <trkpt lat="47.50195" lon="6.76568">
        <ele>444.9</ele>
        <time>2017-10-15T06:23:12.999Z</time>
      </trkpt>
      <trkpt lat="47.50199" lon="6.76566">
        <ele>446</ele>
        <time>2017-10-15T06:23:13.999Z</time>
      </trkpt>
      <trkpt lat="47.50204" lon="6.76564">
        <ele>445.4</ele>
        <time>2017-10-15T06:23:14.999Z</time>
      </trkpt>
      <trkpt lat="47.50208" lon="6.76563">
        <ele>444.8</ele>
        <time>2017-10-15T06:23:15.999Z</time>
      </trkpt>
      <trkpt lat="47.50212" lon="6.7656">
        <ele>444</ele>
        <time>2017-10-15T06:23:16.999Z</time>
      </trkpt>
      <trkpt lat="47.50213" lon="6.76554">
        <ele>443.7</ele>
        <time>2017-10-15T06:23:17.999Z</time>
      </trkpt>
      <trkpt lat="47.5021" lon="6.76548">
        <ele>443.3</ele>
        <time>2017-10-15T06:23:18.999Z</time>
      </trkpt>
      <trkpt lat="47.50207" lon="6.76539">
        <ele>442.9</ele>
        <time>2017-10-15T06:23:19.999Z</time>
      </trkpt>
      <trkpt lat="47.50204" lon="6.76531">
        <ele>442.7</ele>
        <time>2017-10-15T06:23:20.999Z</time>
      </trkpt>
      <trkpt lat="47.50202" lon="6.76523">
        <ele>442.4</ele>
        <time>2017-10-15T06:23:21.999Z</time>
      </trkpt>
      <trkpt lat="47.50201" lon="6.76514">
        <ele>443</ele>
        <time>2017-10-15T06:23:22.999Z</time>
      </trkpt>
      <trkpt lat="47.50199" lon="6.76505">
        <ele>443.4</ele>
        <time>2017-10-15T06:23:23.999Z</time>
      </trkpt>
      <trkpt lat="47.50196" lon="6.76497">
        <ele>443.3</ele>
        <time>2017-10-15T06:23:24.999Z</time>
      </trkpt>
      <trkpt lat="47.50192" lon="6.76489">
        <ele>442.1</ele>
        <time>2017-10-15T06:23:25.999Z</time>
      </trkpt>
      <trkpt lat="47.50189" lon="6.7648">
        <ele>441.3</ele>
        <time>2017-10-15T06:23:26.999Z</time>
      </trkpt>
      <trkpt lat="47.50187" lon="6.7647">
        <ele>441</ele>
        <time>2017-10-15T06:23:27.999Z</time>
      </trkpt>
      <trkpt lat="47.50184" lon="6.76458">
        <ele>440.8</ele>
        <time>2017-10-15T06:23:28.999Z</time>
      </trkpt>
      <trkpt lat="47.50181" lon="6.76446">
        <ele>441.3</ele>
        <time>2017-10-15T06:23:29.999Z</time>
      </trkpt>
      <trkpt lat="47.50177" lon="6.76435">
        <ele>441.5</ele>
        <time>2017-10-15T06:23:30.999Z</time>
      </trkpt>
      <trkpt lat="47.50174" lon="6.76426">
        <ele>441.3</ele>
        <time>2017-10-15T06:23:31.999Z</time>
      </trkpt>
      <trkpt lat="47.50171" lon="6.76416">
        <ele>440.8</ele>
        <time>2017-10-15T06:23:32.999Z</time>
      </trkpt>
      <trkpt lat="47.50167" lon="6.76406">
        <ele>440.3</ele>
        <time>2017-10-15T06:23:33.999Z</time>
      </trkpt>
      <trkpt lat="47.50163" lon="6.76395">
        <ele>439.5</ele>
        <time>2017-10-15T06:23:34.999Z</time>
      </trkpt>
      <trkpt lat="47.5016" lon="6.76384">
        <ele>439.1</ele>
        <time>2017-10-15T06:23:35.999Z</time>
      </trkpt>
      <trkpt lat="47.50158" lon="6.76373">
        <ele>438.1</ele>
        <time>2017-10-15T06:23:36.999Z</time>
      </trkpt>
      <trkpt lat="47.50156" lon="6.76362">
        <ele>436.1</ele>
        <time>2017-10-15T06:23:37.999Z</time>
      </trkpt>
      <trkpt lat="47.50154" lon="6.76351">
        <ele>434.4</ele>
        <time>2017-10-15T06:23:38.999Z</time>
      </trkpt>
      <trkpt lat="47.50151" lon="6.7634">
        <ele>433.3</ele>
        <time>2017-10-15T06:23:39.999Z</time>
      </trkpt>
      <trkpt lat="47.50147" lon="6.7633">
        <ele>431.7</ele>
        <time>2017-10-15T06:23:40.999Z</time>
      </trkpt>
      <trkpt lat="47.50144" lon="6.76319">
        <ele>431.1</ele>
        <time>2017-10-15T06:23:41.999Z</time>
      </trkpt>
      <trkpt lat="47.50142" lon="6.7631">
        <ele>430.6</ele>
        <time>2017-10-15T06:23:42.999Z</time>
      </trkpt>
      <trkpt lat="47.50138" lon="6.76299">
        <ele>431</ele>
        <time>2017-10-15T06:23:43.999Z</time>
      </trkpt>
      <trkpt lat="47.50135" lon="6.76287">
        <ele>430.9</ele>
        <time>2017-10-15T06:23:44.999Z</time>
      </trkpt>
      <trkpt lat="47.50135" lon="6.76275">
        <ele>431</ele>
        <time>2017-10-15T06:23:45.999Z</time>
      </trkpt>
      <trkpt lat="47.50134" lon="6.76265">
        <ele>431.4</ele>
        <time>2017-10-15T06:23:46.999Z</time>
      </trkpt>
      <trkpt lat="47.50133" lon="6.76255">
        <ele>432.3</ele>
        <time>2017-10-15T06:23:47.999Z</time>
      </trkpt>
      <trkpt lat="47.50129" lon="6.76247">
        <ele>432.9</ele>
        <time>2017-10-15T06:23:48.999Z</time>
      </trkpt>
      <trkpt lat="47.50126" lon="6.76239">
        <ele>432.7</ele>
        <time>2017-10-15T06:23:49.999Z</time>
      </trkpt>
      <trkpt lat="47.50125" lon="6.7623">
        <ele>432</ele>
        <time>2017-10-15T06:23:50.999Z</time>
      </trkpt>
      <trkpt lat="47.50123" lon="6.7622">
        <ele>432.2</ele>
        <time>2017-10-15T06:23:51.999Z</time>
      </trkpt>
      <trkpt lat="47.5012" lon="6.7621">
        <ele>431.4</ele>
        <time>2017-10-15T06:23:52.999Z</time>
      </trkpt>
      <trkpt lat="47.5012" lon="6.76199">
        <ele>429.8</ele>
        <time>2017-10-15T06:23:53.999Z</time>
      </trkpt>
      <trkpt lat="47.5012" lon="6.76187">
        <ele>428.3</ele>
        <time>2017-10-15T06:23:54.999Z</time>
      </trkpt>
      <trkpt lat="47.50119" lon="6.76176">
        <ele>427.1</ele>
        <time>2017-10-15T06:23:55.999Z</time>
      </trkpt>
      <trkpt lat="47.50118" lon="6.76164">
        <ele>425.3</ele>
        <time>2017-10-15T06:23:56.999Z</time>
      </trkpt>
      <trkpt lat="47.50116" lon="6.7615">
        <ele>423.2</ele>
        <time>2017-10-15T06:23:57.999Z</time>
      </trkpt>
      <trkpt lat="47.50113" lon="6.76134">
        <ele>421.3</ele>
        <time>2017-10-15T06:23:58.999Z</time>
      </trkpt>
      <trkpt lat="47.5011" lon="6.7612">
        <ele>419.9</ele>
        <time>2017-10-15T06:23:59.999Z</time>
      </trkpt>
      <trkpt lat="47.50107" lon="6.76104">
        <ele>419.2</ele>
        <time>2017-10-15T06:24:00.999Z</time>
      </trkpt>
      <trkpt lat="47.50103" lon="6.76088">
        <ele>418.8</ele>
        <time>2017-10-15T06:24:01.999Z</time>
      </trkpt>
      <trkpt lat="47.501" lon="6.76074">
        <ele>420.4</ele>
        <time>2017-10-15T06:24:02.999Z</time>
      </trkpt>
      <trkpt lat="47.50095" lon="6.76063">
        <ele>421.8</ele>
        <time>2017-10-15T06:24:03.999Z</time>
      </trkpt>
      <trkpt lat="47.50092" lon="6.7605">
        <ele>423.2</ele>
        <time>2017-10-15T06:24:04.999Z</time>
      </trkpt>
      <trkpt lat="47.5009" lon="6.76038">
        <ele>423.4</ele>
        <time>2017-10-15T06:24:05.999Z</time>
      </trkpt>
      <trkpt lat="47.50089" lon="6.76026">
        <ele>423.7</ele>
        <time>2017-10-15T06:24:06.999Z</time>
      </trkpt>
      <trkpt lat="47.50086" lon="6.76014">
        <ele>423</ele>
        <time>2017-10-15T06:24:07.999Z</time>
      </trkpt>
      <trkpt lat="47.50082" lon="6.76005">
        <ele>422.5</ele>
        <time>2017-10-15T06:24:08.999Z</time>
      </trkpt>
      <trkpt lat="47.50077" lon="6.75996">
        <ele>421.4</ele>
        <time>2017-10-15T06:24:09.999Z</time>
      </trkpt>
      <trkpt lat="47.50073" lon="6.75988">
        <ele>421.1</ele>
        <time>2017-10-15T06:24:10.999Z</time>
      </trkpt>
      <trkpt lat="47.50069" lon="6.75977">
        <ele>419</ele>
        <time>2017-10-15T06:24:11.999Z</time>
      </trkpt>
      <trkpt lat="47.50065" lon="6.75965">
        <ele>417.5</ele>
        <time>2017-10-15T06:24:12.999Z</time>
      </trkpt>
      <trkpt lat="47.5006" lon="6.75955">
        <ele>416.8</ele>
        <time>2017-10-15T06:24:13.999Z</time>
      </trkpt>
      <trkpt lat="47.50056" lon="6.75945">
        <ele>416.8</ele>
        <time>2017-10-15T06:24:14.999Z</time>
      </trkpt>
      <trkpt lat="47.50051" lon="6.75936">
        <ele>417.1</ele>
        <time>2017-10-15T06:24:15.999Z</time>
      </trkpt>
      <trkpt lat="47.50046" lon="6.75926">
        <ele>416.8</ele>
        <time>2017-10-15T06:24:16.999Z</time>
      </trkpt>
      <trkpt lat="47.50041" lon="6.75918">
        <ele>416.6</ele>
        <time>2017-10-15T06:24:17.999Z</time>
      </trkpt>
      <trkpt lat="47.50036" lon="6.75908">
        <ele>416.5</ele>
        <time>2017-10-15T06:24:18.999Z</time>
      </trkpt>
      <trkpt lat="47.50031" lon="6.75898">
        <ele>416.4</ele>
        <time>2017-10-15T06:24:19.999Z</time>
      </trkpt>
      <trkpt lat="47.50027" lon="6.75889">
        <ele>416.2</ele>
        <time>2017-10-15T06:24:20.999Z</time>
      </trkpt>
      <trkpt lat="47.50021" lon="6.7588">
        <ele>416.2</ele>
        <time>2017-10-15T06:24:21.999Z</time>
      </trkpt>
      <trkpt lat="47.50014" lon="6.75871">
        <ele>416.5</ele>
        <time>2017-10-15T06:24:22.999Z</time>
      </trkpt>
      <trkpt lat="47.50008" lon="6.75862">
        <ele>416.1</ele>
        <time>2017-10-15T06:24:23.999Z</time>
      </trkpt>
      <trkpt lat="47.50003" lon="6.75852">
        <ele>416</ele>
        <time>2017-10-15T06:24:24.999Z</time>
      </trkpt>
      <trkpt lat="47.49998" lon="6.75841">
        <ele>414.4</ele>
        <time>2017-10-15T06:24:25.999Z</time>
      </trkpt>
      <trkpt lat="47.49991" lon="6.75832">
        <ele>413.5</ele>
        <time>2017-10-15T06:24:26.999Z</time>
      </trkpt>
      <trkpt lat="47.49984" lon="6.75824">
        <ele>413.1</ele>
        <time>2017-10-15T06:24:27.999Z</time>
      </trkpt>
      <trkpt lat="47.49979" lon="6.75815">
        <ele>412.5</ele>
        <time>2017-10-15T06:24:28.999Z</time>
      </trkpt>
      <trkpt lat="47.49974" lon="6.75806">
        <ele>412.1</ele>
        <time>2017-10-15T06:24:29.999Z</time>
      </trkpt>
      <trkpt lat="47.49968" lon="6.75796">
        <ele>411.5</ele>
        <time>2017-10-15T06:24:30.999Z</time>
      </trkpt>
      <trkpt lat="47.49961" lon="6.75786">
        <ele>410.8</ele>
        <time>2017-10-15T06:24:31.999Z</time>
      </trkpt>
      <trkpt lat="47.49954" lon="6.75777">
        <ele>411.1</ele>
        <time>2017-10-15T06:24:32.999Z</time>
      </trkpt>
      <trkpt lat="47.49947" lon="6.75768">
        <ele>410.6</ele>
        <time>2017-10-15T06:24:33.999Z</time>
      </trkpt>
      <trkpt lat="47.49941" lon="6.75758">
        <ele>410.8</ele>
        <time>2017-10-15T06:24:34.999Z</time>
      </trkpt>
      <trkpt lat="47.49935" lon="6.75749">
        <ele>409.8</ele>
        <time>2017-10-15T06:24:35.999Z</time>
      </trkpt>
      <trkpt lat="47.49929" lon="6.75737">
        <ele>409.6</ele>
        <time>2017-10-15T06:24:36.999Z</time>
      </trkpt>
      <trkpt lat="47.49922" lon="6.75726">
        <ele>409.6</ele>
        <time>2017-10-15T06:24:37.999Z</time>
      </trkpt>
      <trkpt lat="47.49914" lon="6.75716">
        <ele>409.3</ele>
        <time>2017-10-15T06:24:38.999Z</time>
      </trkpt>
      <trkpt lat="47.49906" lon="6.7571">
        <ele>409</ele>
        <time>2017-10-15T06:24:39.999Z</time>
      </trkpt>
      <trkpt lat="47.49896" lon="6.75709">
        <ele>408.9</ele>
        <time>2017-10-15T06:24:40.999Z</time>
      </trkpt>
      <trkpt lat="47.49884" lon="6.75712">
        <ele>409</ele>
        <time>2017-10-15T06:24:41.999Z</time>
      </trkpt>
      <trkpt lat="47.49872" lon="6.75714">
        <ele>409.4</ele>
        <time>2017-10-15T06:24:42.999Z</time>
      </trkpt>
      <trkpt lat="47.4986" lon="6.75715">
        <ele>409.3</ele>
        <time>2017-10-15T06:24:43.999Z</time>
      </trkpt>
      <trkpt lat="47.4985" lon="6.75717">
        <ele>409</ele>
        <time>2017-10-15T06:24:44.999Z</time>
      </trkpt>
      <trkpt lat="47.49839" lon="6.75717">
        <ele>409.4</ele>
        <time>2017-10-15T06:24:45.999Z</time>
      </trkpt>
      <trkpt lat="47.49828" lon="6.7572">
        <ele>408.4</ele>
        <time>2017-10-15T06:24:46.999Z</time>
      </trkpt>
      <trkpt lat="47.49817" lon="6.75722">
        <ele>407.8</ele>
        <time>2017-10-15T06:24:47.999Z</time>
      </trkpt>
      <trkpt lat="47.49805" lon="6.75725">
        <ele>407.7</ele>
        <time>2017-10-15T06:24:48.999Z</time>
      </trkpt>
      <trkpt lat="47.49795" lon="6.75728">
        <ele>407.5</ele>
        <time>2017-10-15T06:24:49.999Z</time>
      </trkpt>
      <trkpt lat="47.49785" lon="6.7573">
        <ele>406.4</ele>
        <time>2017-10-15T06:24:50.999Z</time>
      </trkpt>
      <trkpt lat="47.49775" lon="6.75734">
        <ele>405</ele>
        <time>2017-10-15T06:24:51.999Z</time>
      </trkpt>
      <trkpt lat="47.49765" lon="6.75739">
        <ele>402.8</ele>
        <time>2017-10-15T06:24:52.999Z</time>
      </trkpt>
      <trkpt lat="47.49754" lon="6.75745">
        <ele>400.8</ele>
        <time>2017-10-15T06:24:53.999Z</time>
      </trkpt>
      <trkpt lat="47.49745" lon="6.7575">
        <ele>399.1</ele>
        <time>2017-10-15T06:24:54.999Z</time>
      </trkpt>
      <trkpt lat="47.49736" lon="6.75755">
        <ele>398</ele>
        <time>2017-10-15T06:24:55.999Z</time>
      </trkpt>
      <trkpt lat="47.49727" lon="6.75759">
        <ele>396.5</ele>
        <time>2017-10-15T06:24:56.999Z</time>
      </trkpt>
      <trkpt lat="47.49717" lon="6.75763">
        <ele>395.1</ele>
        <time>2017-10-15T06:24:57.999Z</time>
      </trkpt>
      <trkpt lat="47.49708" lon="6.75766">
        <ele>394.3</ele>
        <time>2017-10-15T06:24:58.999Z</time>
      </trkpt>
      <trkpt lat="47.497" lon="6.75769">
        <ele>393.7</ele>
        <time>2017-10-15T06:24:59.999Z</time>
      </trkpt>
      <trkpt lat="47.49691" lon="6.75772">
        <ele>392.3</ele>
        <time>2017-10-15T06:25:00.999Z</time>
      </trkpt>
      <trkpt lat="47.49684" lon="6.75775">
        <ele>390.8</ele>
        <time>2017-10-15T06:25:01.999Z</time>
      </trkpt>
      <trkpt lat="47.49676" lon="6.75778">
        <ele>389.3</ele>
        <time>2017-10-15T06:25:02.999Z</time>
      </trkpt>
      <trkpt lat="47.49669" lon="6.7578">
        <ele>387.7</ele>
        <time>2017-10-15T06:25:03.999Z</time>
      </trkpt>
      <trkpt lat="47.49662" lon="6.75782">
        <ele>386.3</ele>
        <time>2017-10-15T06:25:04.999Z</time>
      </trkpt>
      <trkpt lat="47.49655" lon="6.75782">
        <ele>385.3</ele>
        <time>2017-10-15T06:25:05.999Z</time>
      </trkpt>
      <trkpt lat="47.49647" lon="6.75783">
        <ele>385</ele>
        <time>2017-10-15T06:25:06.999Z</time>
      </trkpt>
      <trkpt lat="47.49638" lon="6.7578">
        <ele>384.3</ele>
        <time>2017-10-15T06:25:07.999Z</time>
      </trkpt>
      <trkpt lat="47.49629" lon="6.75777">
        <ele>383.9</ele>
        <time>2017-10-15T06:25:08.999Z</time>
      </trkpt>
      <trkpt lat="47.49621" lon="6.75778">
        <ele>383.3</ele>
        <time>2017-10-15T06:25:09.999Z</time>
      </trkpt>
      <trkpt lat="47.49613" lon="6.7578">
        <ele>382.8</ele>
        <time>2017-10-15T06:25:10.999Z</time>
      </trkpt>
      <trkpt lat="47.49608" lon="6.75781">
        <ele>382.2</ele>
        <time>2017-10-15T06:25:11.999Z</time>
      </trkpt>
      <trkpt lat="47.49605" lon="6.75781">
        <ele>382.2</ele>
        <time>2017-10-15T06:25:18.999Z</time>
      </trkpt>
      <trkpt lat="47.49593" lon="6.7578">
        <ele>382.3</ele>
        <time>2017-10-15T06:25:19.999Z</time>
      </trkpt>
      <trkpt lat="47.49586" lon="6.75779">
        <ele>383.8</ele>
        <time>2017-10-15T06:25:20.999Z</time>
      </trkpt>
      <trkpt lat="47.4958" lon="6.75778">
        <ele>383.9</ele>
        <time>2017-10-15T06:25:21.999Z</time>
      </trkpt>
      <trkpt lat="47.49573" lon="6.75776">
        <ele>383.1</ele>
        <time>2017-10-15T06:25:22.999Z</time>
      </trkpt>
      <trkpt lat="47.49566" lon="6.75774">
        <ele>382.3</ele>
        <time>2017-10-15T06:25:23.999Z</time>
      </trkpt>
      <trkpt lat="47.4956" lon="6.75771">
        <ele>381.7</ele>
        <time>2017-10-15T06:25:24.999Z</time>
      </trkpt>
      <trkpt lat="47.4956" lon="6.75771">
        <ele>381.7</ele>
        <time>2017-10-15T06:25:25.999Z</time>
      </trkpt>
      <trkpt lat="47.49555" lon="6.75764">
        <ele>381.6</ele>
        <time>2017-10-15T06:25:26.999Z</time>
      </trkpt>
      <trkpt lat="47.49552" lon="6.75759">
        <ele>381.5</ele>
        <time>2017-10-15T06:25:27.999Z</time>
      </trkpt>
      <trkpt lat="47.49552" lon="6.75753">
        <ele>381.4</ele>
        <time>2017-10-15T06:25:28.999Z</time>
      </trkpt>
      <trkpt lat="47.49552" lon="6.75745">
        <ele>380.8</ele>
        <time>2017-10-15T06:25:29.999Z</time>
      </trkpt>
      <trkpt lat="47.49555" lon="6.75737">
        <ele>380.5</ele>
        <time>2017-10-15T06:25:30.999Z</time>
      </trkpt>
      <trkpt lat="47.4956" lon="6.75732">
        <ele>379.6</ele>
        <time>2017-10-15T06:25:31.999Z</time>
      </trkpt>
      <trkpt lat="47.49565" lon="6.75728">
        <ele>378.8</ele>
        <time>2017-10-15T06:25:32.999Z</time>
      </trkpt>
      <trkpt lat="47.4957" lon="6.75723">
        <ele>378.8</ele>
        <time>2017-10-15T06:25:33.999Z</time>
      </trkpt>
      <trkpt lat="47.49574" lon="6.75719">
        <ele>379</ele>
        <time>2017-10-15T06:25:34.999Z</time>
      </trkpt>
      <trkpt lat="47.49579" lon="6.75715">
        <ele>378.6</ele>
        <time>2017-10-15T06:25:35.999Z</time>
      </trkpt>
      <trkpt lat="47.49584" lon="6.75712">
        <ele>378.3</ele>
        <time>2017-10-15T06:25:36.999Z</time>
      </trkpt>
      <trkpt lat="47.49587" lon="6.75707">
        <ele>378.2</ele>
        <time>2017-10-15T06:25:37.999Z</time>
      </trkpt>
      <trkpt lat="47.49591" lon="6.75701">
        <ele>378.1</ele>
        <time>2017-10-15T06:25:38.999Z</time>
      </trkpt>
      <trkpt lat="47.49595" lon="6.75693">
        <ele>378.3</ele>
        <time>2017-10-15T06:25:39.999Z</time>
      </trkpt>
      <trkpt lat="47.49598" lon="6.75685">
        <ele>378.7</ele>
        <time>2017-10-15T06:25:40.999Z</time>
      </trkpt>
      <trkpt lat="47.49597" lon="6.75677">
        <ele>378.1</ele>
        <time>2017-10-15T06:25:41.999Z</time>
      </trkpt>
      <trkpt lat="47.4959" lon="6.75671">
        <ele>378.3</ele>
        <time>2017-10-15T06:25:42.999Z</time>
      </trkpt>
      <trkpt lat="47.49585" lon="6.75666">
        <ele>378.2</ele>
        <time>2017-10-15T06:25:43.999Z</time>
      </trkpt>
      <trkpt lat="47.49579" lon="6.75662">
        <ele>377.8</ele>
        <time>2017-10-15T06:25:44.999Z</time>
      </trkpt>
      <trkpt lat="47.49573" lon="6.7566">
        <ele>376.8</ele>
        <time>2017-10-15T06:25:45.999Z</time>
      </trkpt>
      <trkpt lat="47.49567" lon="6.75662">
        <ele>377</ele>
        <time>2017-10-15T06:25:46.999Z</time>
      </trkpt>
      <trkpt lat="47.49561" lon="6.75668">
        <ele>376.6</ele>
        <time>2017-10-15T06:25:47.999Z</time>
      </trkpt>
      <trkpt lat="47.49555" lon="6.75675">
        <ele>376</ele>
        <time>2017-10-15T06:25:48.999Z</time>
      </trkpt>
      <trkpt lat="47.4955" lon="6.75681">
        <ele>374.6</ele>
        <time>2017-10-15T06:25:49.999Z</time>
      </trkpt>
      <trkpt lat="47.49545" lon="6.75688">
        <ele>373.9</ele>
        <time>2017-10-15T06:25:50.999Z</time>
      </trkpt>
      <trkpt lat="47.49541" lon="6.75695">
        <ele>373.3</ele>
        <time>2017-10-15T06:25:51.999Z</time>
      </trkpt>
      <trkpt lat="47.49536" lon="6.75702">
        <ele>373</ele>
        <time>2017-10-15T06:25:52.999Z</time>
      </trkpt>
      <trkpt lat="47.49531" lon="6.75708">
        <ele>372.8</ele>
        <time>2017-10-15T06:25:53.999Z</time>
      </trkpt>
      <trkpt lat="47.49527" lon="6.75713">
        <ele>372.6</ele>
        <time>2017-10-15T06:25:54.999Z</time>
      </trkpt>
      <trkpt lat="47.49523" lon="6.75719">
        <ele>372.4</ele>
        <time>2017-10-15T06:25:55.999Z</time>
      </trkpt>
      <trkpt lat="47.49518" lon="6.75724">
        <ele>372.3</ele>
        <time>2017-10-15T06:25:56.999Z</time>
      </trkpt>
      <trkpt lat="47.49514" lon="6.75728">
        <ele>371.5</ele>
        <time>2017-10-15T06:25:57.999Z</time>
      </trkpt>
      <trkpt lat="47.4951" lon="6.75732">
        <ele>370.4</ele>
        <time>2017-10-15T06:25:58.999Z</time>
      </trkpt>
      <trkpt lat="47.49505" lon="6.75735">
        <ele>370.1</ele>
        <time>2017-10-15T06:25:59.999Z</time>
      </trkpt>
      <trkpt lat="47.495" lon="6.75738">
        <ele>369.9</ele>
        <time>2017-10-15T06:26:00.999Z</time>
      </trkpt>
      <trkpt lat="47.49496" lon="6.7574">
        <ele>369.7</ele>
        <time>2017-10-15T06:26:01.999Z</time>
      </trkpt>
      <trkpt lat="47.49493" lon="6.75741">
        <ele>369.3</ele>
        <time>2017-10-15T06:26:02.999Z</time>
      </trkpt>
      <trkpt lat="47.49489" lon="6.7574">
        <ele>369.7</ele>
        <time>2017-10-15T06:26:03.999Z</time>
      </trkpt>
      <trkpt lat="47.49484" lon="6.75736">
        <ele>370.1</ele>
        <time>2017-10-15T06:26:04.999Z</time>
      </trkpt>
      <trkpt lat="47.49481" lon="6.75731">
        <ele>369.9</ele>
        <time>2017-10-15T06:26:05.999Z</time>
      </trkpt>
      <trkpt lat="47.49478" lon="6.75724">
        <ele>369.6</ele>
        <time>2017-10-15T06:26:06.999Z</time>
      </trkpt>
      <trkpt lat="47.49477" lon="6.75718">
        <ele>369.2</ele>
        <time>2017-10-15T06:26:07.999Z</time>
      </trkpt>
      <trkpt lat="47.49475" lon="6.75713">
        <ele>368.5</ele>
        <time>2017-10-15T06:26:08.999Z</time>
      </trkpt>
      <trkpt lat="47.49473" lon="6.75707">
        <ele>368.3</ele>
        <time>2017-10-15T06:26:09.999Z</time>
      </trkpt>
      <trkpt lat="47.49471" lon="6.757">
        <ele>367.7</ele>
        <time>2017-10-15T06:26:10.999Z</time>
      </trkpt>
      <trkpt lat="47.49469" lon="6.75694">
        <ele>367.6</ele>
        <time>2017-10-15T06:26:11.999Z</time>
      </trkpt>
      <trkpt lat="47.49465" lon="6.75692">
        <ele>367.6</ele>
        <time>2017-10-15T06:26:12.999Z</time>
      </trkpt>
      <trkpt lat="47.49461" lon="6.75692">
        <ele>367.6</ele>
        <time>2017-10-15T06:26:13.999Z</time>
      </trkpt>
      <trkpt lat="47.49458" lon="6.75693">
        <ele>367.6</ele>
        <time>2017-10-15T06:26:14.999Z</time>
      </trkpt>
      <trkpt lat="47.49456" lon="6.75694">
        <ele>367.5</ele>
        <time>2017-10-15T06:26:15.999Z</time>
      </trkpt>
      <trkpt lat="47.49454" lon="6.75696">
        <ele>367.5</ele>
        <time>2017-10-15T06:26:16.999Z</time>
      </trkpt>
      <trkpt lat="47.49451" lon="6.75698">
        <ele>367.4</ele>
        <time>2017-10-15T06:26:17.999Z</time>
      </trkpt>
      <trkpt lat="47.49449" lon="6.75699">
        <ele>367.4</ele>
        <time>2017-10-15T06:26:18.999Z</time>
      </trkpt>
      <trkpt lat="47.49446" lon="6.757">
        <ele>367.3</ele>
        <time>2017-10-15T06:26:19.999Z</time>
      </trkpt>
      <trkpt lat="47.49443" lon="6.75698">
        <ele>367.4</ele>
        <time>2017-10-15T06:26:20.999Z</time>
      </trkpt>
      <trkpt lat="47.49442" lon="6.75695">
        <ele>367.3</ele>
        <time>2017-10-15T06:26:21.999Z</time>
      </trkpt>
      <trkpt lat="47.4944" lon="6.7569">
        <ele>367.2</ele>
        <time>2017-10-15T06:26:23.999Z</time>
      </trkpt>
      <trkpt lat="47.49439" lon="6.75686">
        <ele>367.2</ele>
        <time>2017-10-15T06:26:24.999Z</time>
      </trkpt>
      <trkpt lat="47.49438" lon="6.75682">
        <ele>367.1</ele>
        <time>2017-10-15T06:26:25.999Z</time>
      </trkpt>
      <trkpt lat="47.49437" lon="6.75679">
        <ele>367.1</ele>
        <time>2017-10-15T06:26:26.999Z</time>
      </trkpt>
      <trkpt lat="47.49436" lon="6.75675">
        <ele>367</ele>
        <time>2017-10-15T06:26:27.999Z</time>
      </trkpt>
      <trkpt lat="47.49434" lon="6.7567">
        <ele>367</ele>
        <time>2017-10-15T06:26:28.999Z</time>
      </trkpt>
      <trkpt lat="47.49433" lon="6.75666">
        <ele>366.9</ele>
        <time>2017-10-15T06:26:29.999Z</time>
      </trkpt>
      <trkpt lat="47.49431" lon="6.75664">
        <ele>366.8</ele>
        <time>2017-10-15T06:26:30.999Z</time>
      </trkpt>
      <trkpt lat="47.49429" lon="6.75662">
        <ele>366.7</ele>
        <time>2017-10-15T06:26:31.999Z</time>
      </trkpt>
      <trkpt lat="47.49425" lon="6.75662">
        <ele>366.6</ele>
        <time>2017-10-15T06:26:32.999Z</time>
      </trkpt>
      <trkpt lat="47.49421" lon="6.75664">
        <ele>365.2</ele>
        <time>2017-10-15T06:26:33.999Z</time>
      </trkpt>
      <trkpt lat="47.49416" lon="6.75667">
        <ele>363.7</ele>
        <time>2017-10-15T06:26:34.999Z</time>
      </trkpt>
      <trkpt lat="47.49412" lon="6.75672">
        <ele>363.4</ele>
        <time>2017-10-15T06:26:35.999Z</time>
      </trkpt>
      <trkpt lat="47.49408" lon="6.75676">
        <ele>362.6</ele>
        <time>2017-10-15T06:26:36.999Z</time>
      </trkpt>
      <trkpt lat="47.49403" lon="6.75682">
        <ele>362</ele>
        <time>2017-10-15T06:26:37.999Z</time>
      </trkpt>
      <trkpt lat="47.49398" lon="6.75687">
        <ele>361.6</ele>
        <time>2017-10-15T06:26:38.999Z</time>
      </trkpt>
      <trkpt lat="47.49394" lon="6.75692">
        <ele>362</ele>
        <time>2017-10-15T06:26:39.999Z</time>
      </trkpt>
      <trkpt lat="47.4939" lon="6.75695">
        <ele>362.6</ele>
        <time>2017-10-15T06:26:40.999Z</time>
      </trkpt>
      <trkpt lat="47.49386" lon="6.75699">
        <ele>363.3</ele>
        <time>2017-10-15T06:26:41.999Z</time>
      </trkpt>
      <trkpt lat="47.49381" lon="6.75703">
        <ele>364</ele>
        <time>2017-10-15T06:26:42.999Z</time>
      </trkpt>
      <trkpt lat="47.49377" lon="6.75706">
        <ele>364.6</ele>
        <time>2017-10-15T06:26:43.999Z</time>
      </trkpt>
      <trkpt lat="47.49371" lon="6.7571">
        <ele>364.6</ele>
        <time>2017-10-15T06:26:44.999Z</time>
      </trkpt>
      <trkpt lat="47.49367" lon="6.75713">
        <ele>364.6</ele>
        <time>2017-10-15T06:26:45.999Z</time>
      </trkpt>
      <trkpt lat="47.49364" lon="6.75715">
        <ele>364.4</ele>
        <time>2017-10-15T06:26:47.999Z</time>
      </trkpt>
      <trkpt lat="47.49363" lon="6.75717">
        <ele>364.4</ele>
        <time>2017-10-15T06:26:48.999Z</time>
      </trkpt>
      <trkpt lat="47.4936" lon="6.75721">
        <ele>364.4</ele>
        <time>2017-10-15T06:26:50.999Z</time>
      </trkpt>
      <trkpt lat="47.49358" lon="6.75722">
        <ele>364.5</ele>
        <time>2017-10-15T06:26:51.999Z</time>
      </trkpt>
      <trkpt lat="47.49356" lon="6.75722">
        <ele>364.6</ele>
        <time>2017-10-15T06:26:52.999Z</time>
      </trkpt>
      <trkpt lat="47.49352" lon="6.75722">
        <ele>365.4</ele>
        <time>2017-10-15T06:26:53.999Z</time>
      </trkpt>
      <trkpt lat="47.49347" lon="6.75724">
        <ele>365.5</ele>
        <time>2017-10-15T06:26:54.999Z</time>
      </trkpt>
      <trkpt lat="47.49342" lon="6.75728">
        <ele>365.4</ele>
        <time>2017-10-15T06:26:55.999Z</time>
      </trkpt>
      <trkpt lat="47.49335" lon="6.75732">
        <ele>365.3</ele>
        <time>2017-10-15T06:26:56.999Z</time>
      </trkpt>
      <trkpt lat="47.49328" lon="6.75737">
        <ele>365.6</ele>
        <time>2017-10-15T06:26:57.999Z</time>
      </trkpt>
      <trkpt lat="47.49322" lon="6.75741">
        <ele>365.7</ele>
        <time>2017-10-15T06:26:58.999Z</time>
      </trkpt>
      <trkpt lat="47.49315" lon="6.75746">
        <ele>365.2</ele>
        <time>2017-10-15T06:26:59.999Z</time>
      </trkpt>
      <trkpt lat="47.49309" lon="6.75751">
        <ele>364.9</ele>
        <time>2017-10-15T06:27:00.999Z</time>
      </trkpt>
      <trkpt lat="47.49304" lon="6.75755">
        <ele>364.2</ele>
        <time>2017-10-15T06:27:01.999Z</time>
      </trkpt>
      <trkpt lat="47.493" lon="6.75759">
        <ele>363.6</ele>
        <time>2017-10-15T06:27:02.999Z</time>
      </trkpt>
      <trkpt lat="47.49295" lon="6.75764">
        <ele>362.7</ele>
        <time>2017-10-15T06:27:03.999Z</time>
      </trkpt>
      <trkpt lat="47.49291" lon="6.75769">
        <ele>361.8</ele>
        <time>2017-10-15T06:27:04.999Z</time>
      </trkpt>
      <trkpt lat="47.49287" lon="6.75775">
        <ele>361.6</ele>
        <time>2017-10-15T06:27:05.999Z</time>
      </trkpt>
      <trkpt lat="47.49283" lon="6.75782">
        <ele>361.9</ele>
        <time>2017-10-15T06:27:06.999Z</time>
      </trkpt>
      <trkpt lat="47.49278" lon="6.75789">
        <ele>362.7</ele>
        <time>2017-10-15T06:27:07.999Z</time>
      </trkpt>
      <trkpt lat="47.49274" lon="6.75795">
        <ele>363.5</ele>
        <time>2017-10-15T06:27:08.999Z</time>
      </trkpt>
      <trkpt lat="47.49269" lon="6.75802">
        <ele>364.2</ele>
        <time>2017-10-15T06:27:09.999Z</time>
      </trkpt>
      <trkpt lat="47.49265" lon="6.75808">
        <ele>365</ele>
        <time>2017-10-15T06:27:10.999Z</time>
      </trkpt>
      <trkpt lat="47.4926" lon="6.75815">
        <ele>365.4</ele>
        <time>2017-10-15T06:27:11.999Z</time>
      </trkpt>
      <trkpt lat="47.49257" lon="6.75821">
        <ele>365.6</ele>
        <time>2017-10-15T06:27:12.999Z</time>
      </trkpt>
      <trkpt lat="47.49253" lon="6.75828">
        <ele>365.7</ele>
        <time>2017-10-15T06:27:13.999Z</time>
      </trkpt>
      <trkpt lat="47.49249" lon="6.75835">
        <ele>365.8</ele>
        <time>2017-10-15T06:27:14.999Z</time>
      </trkpt>
      <trkpt lat="47.49246" lon="6.75843">
        <ele>365.7</ele>
        <time>2017-10-15T06:27:15.999Z</time>
      </trkpt>
      <trkpt lat="47.49242" lon="6.75851">
        <ele>365.6</ele>
        <time>2017-10-15T06:27:16.999Z</time>
      </trkpt>
      <trkpt lat="47.49239" lon="6.75859">
        <ele>365.6</ele>
        <time>2017-10-15T06:27:17.999Z</time>
      </trkpt>
      <trkpt lat="47.49235" lon="6.75866">
        <ele>365.3</ele>
        <time>2017-10-15T06:27:18.999Z</time>
      </trkpt>
      <trkpt lat="47.49231" lon="6.75873">
        <ele>364.7</ele>
        <time>2017-10-15T06:27:19.999Z</time>
      </trkpt>
      <trkpt lat="47.49228" lon="6.75881">
        <ele>364.1</ele>
        <time>2017-10-15T06:27:20.999Z</time>
      </trkpt>
      <trkpt lat="47.49225" lon="6.75887">
        <ele>363.7</ele>
        <time>2017-10-15T06:27:21.999Z</time>
      </trkpt>
      <trkpt lat="47.49222" lon="6.75894">
        <ele>363.3</ele>
        <time>2017-10-15T06:27:22.999Z</time>
      </trkpt>
      <trkpt lat="47.49218" lon="6.75902">
        <ele>363.6</ele>
        <time>2017-10-15T06:27:23.999Z</time>
      </trkpt>
      <trkpt lat="47.49215" lon="6.75908">
        <ele>363.2</ele>
        <time>2017-10-15T06:27:24.999Z</time>
      </trkpt>
      <trkpt lat="47.49212" lon="6.75915">
        <ele>362.6</ele>
        <time>2017-10-15T06:27:25.999Z</time>
      </trkpt>
      <trkpt lat="47.49207" lon="6.7592">
        <ele>362</ele>
        <time>2017-10-15T06:27:26.999Z</time>
      </trkpt>
      <trkpt lat="47.49203" lon="6.75927">
        <ele>361.1</ele>
        <time>2017-10-15T06:27:27.999Z</time>
      </trkpt>
      <trkpt lat="47.49199" lon="6.75935">
        <ele>360.1</ele>
        <time>2017-10-15T06:27:28.999Z</time>
      </trkpt>
      <trkpt lat="47.49196" lon="6.75941">
        <ele>359.1</ele>
        <time>2017-10-15T06:27:29.999Z</time>
      </trkpt>
      <trkpt lat="47.49192" lon="6.75948">
        <ele>357.5</ele>
        <time>2017-10-15T06:27:30.999Z</time>
      </trkpt>
      <trkpt lat="47.49188" lon="6.75954">
        <ele>356.4</ele>
        <time>2017-10-15T06:27:31.999Z</time>
      </trkpt>
      <trkpt lat="47.49187" lon="6.75962">
        <ele>355.4</ele>
        <time>2017-10-15T06:27:32.999Z</time>
      </trkpt>
      <trkpt lat="47.49183" lon="6.75971">
        <ele>355.3</ele>
        <time>2017-10-15T06:27:33.999Z</time>
      </trkpt>
      <trkpt lat="47.4918" lon="6.75979">
        <ele>355.9</ele>
        <time>2017-10-15T06:27:34.999Z</time>
      </trkpt>
      <trkpt lat="47.49177" lon="6.75987">
        <ele>356.3</ele>
        <time>2017-10-15T06:27:35.999Z</time>
      </trkpt>
      <trkpt lat="47.49173" lon="6.75995">
        <ele>356.2</ele>
        <time>2017-10-15T06:27:36.999Z</time>
      </trkpt>
      <trkpt lat="47.49169" lon="6.76003">
        <ele>356.3</ele>
        <time>2017-10-15T06:27:37.999Z</time>
      </trkpt>
      <trkpt lat="47.49165" lon="6.76011">
        <ele>356.1</ele>
        <time>2017-10-15T06:27:38.999Z</time>
      </trkpt>
      <trkpt lat="47.49162" lon="6.76019">
        <ele>356.4</ele>
        <time>2017-10-15T06:27:39.999Z</time>
      </trkpt>
      <trkpt lat="47.49158" lon="6.76028">
        <ele>356.6</ele>
        <time>2017-10-15T06:27:40.999Z</time>
      </trkpt>
      <trkpt lat="47.49155" lon="6.76036">
        <ele>357.6</ele>
        <time>2017-10-15T06:27:41.999Z</time>
      </trkpt>
      <trkpt lat="47.49151" lon="6.76044">
        <ele>358.2</ele>
        <time>2017-10-15T06:27:42.999Z</time>
      </trkpt>
      <trkpt lat="47.49148" lon="6.76052">
        <ele>358.1</ele>
        <time>2017-10-15T06:27:43.999Z</time>
      </trkpt>
      <trkpt lat="47.49145" lon="6.76059">
        <ele>357.4</ele>
        <time>2017-10-15T06:27:44.999Z</time>
      </trkpt>
      <trkpt lat="47.49143" lon="6.76067">
        <ele>356.5</ele>
        <time>2017-10-15T06:27:45.999Z</time>
      </trkpt>
      <trkpt lat="47.4914" lon="6.76075">
        <ele>356.3</ele>
        <time>2017-10-15T06:27:46.999Z</time>
      </trkpt>
      <trkpt lat="47.49138" lon="6.76083">
        <ele>356.1</ele>
        <time>2017-10-15T06:27:47.999Z</time>
      </trkpt>
      <trkpt lat="47.49135" lon="6.76092">
        <ele>355.8</ele>
        <time>2017-10-15T06:27:48.999Z</time>
      </trkpt>
      <trkpt lat="47.49133" lon="6.761">
        <ele>355.7</ele>
        <time>2017-10-15T06:27:49.999Z</time>
      </trkpt>
      <trkpt lat="47.49132" lon="6.76109">
        <ele>355.8</ele>
        <time>2017-10-15T06:27:50.999Z</time>
      </trkpt>
      <trkpt lat="47.49131" lon="6.76118">
        <ele>356.4</ele>
        <time>2017-10-15T06:27:51.999Z</time>
      </trkpt>
      <trkpt lat="47.49129" lon="6.76128">
        <ele>356.9</ele>
        <time>2017-10-15T06:27:52.999Z</time>
      </trkpt>
      <trkpt lat="47.49127" lon="6.76136">
        <ele>357</ele>
        <time>2017-10-15T06:27:53.999Z</time>
      </trkpt>
      <trkpt lat="47.49126" lon="6.76146">
        <ele>357.3</ele>
        <time>2017-10-15T06:27:54.999Z</time>
      </trkpt>
      <trkpt lat="47.49125" lon="6.76155">
        <ele>357</ele>
        <time>2017-10-15T06:27:55.999Z</time>
      </trkpt>
      <trkpt lat="47.49124" lon="6.76164">
        <ele>357</ele>
        <time>2017-10-15T06:27:56.999Z</time>
      </trkpt>
      <trkpt lat="47.49123" lon="6.76173">
        <ele>357.3</ele>
        <time>2017-10-15T06:27:57.999Z</time>
      </trkpt>
      <trkpt lat="47.49122" lon="6.76182">
        <ele>357.5</ele>
        <time>2017-10-15T06:27:58.999Z</time>
      </trkpt>
      <trkpt lat="47.49122" lon="6.7619">
        <ele>357.6</ele>
        <time>2017-10-15T06:27:59.999Z</time>
      </trkpt>
      <trkpt lat="47.49121" lon="6.762">
        <ele>357.2</ele>
        <time>2017-10-15T06:28:00.999Z</time>
      </trkpt>
      <trkpt lat="47.49121" lon="6.76207">
        <ele>356.8</ele>
        <time>2017-10-15T06:28:01.999Z</time>
      </trkpt>
      <trkpt lat="47.4912" lon="6.76214">
        <ele>356.4</ele>
        <time>2017-10-15T06:28:02.999Z</time>
      </trkpt>
      <trkpt lat="47.4912" lon="6.76219">
        <ele>355.3</ele>
        <time>2017-10-15T06:28:04.000Z</time>
      </trkpt>
      <trkpt lat="47.49121" lon="6.76226">
        <ele>354.4</ele>
        <time>2017-10-15T06:28:04.999Z</time>
      </trkpt>
      <trkpt lat="47.49122" lon="6.76234">
        <ele>354.4</ele>
        <time>2017-10-15T06:28:05.999Z</time>
      </trkpt>
      <trkpt lat="47.49122" lon="6.76242">
        <ele>354.4</ele>
        <time>2017-10-15T06:28:07.000Z</time>
      </trkpt>
      <trkpt lat="47.49122" lon="6.76251">
        <ele>354.2</ele>
        <time>2017-10-15T06:28:08.000Z</time>
      </trkpt>
      <trkpt lat="47.49122" lon="6.76258">
        <ele>354.2</ele>
        <time>2017-10-15T06:28:09.000Z</time>
      </trkpt>
      <trkpt lat="47.49123" lon="6.76265">
        <ele>353.6</ele>
        <time>2017-10-15T06:28:10.000Z</time>
      </trkpt>
      <trkpt lat="47.49123" lon="6.76271">
        <ele>352.8</ele>
        <time>2017-10-15T06:28:11.000Z</time>
      </trkpt>
      <trkpt lat="47.49124" lon="6.76278">
        <ele>351.1</ele>
        <time>2017-10-15T06:28:12.000Z</time>
      </trkpt>
      <trkpt lat="47.49124" lon="6.76286">
        <ele>350.4</ele>
        <time>2017-10-15T06:28:13.000Z</time>
      </trkpt>
      <trkpt lat="47.49124" lon="6.76293">
        <ele>350.7</ele>
        <time>2017-10-15T06:28:14.000Z</time>
      </trkpt>
      <trkpt lat="47.49124" lon="6.76299">
        <ele>349.9</ele>
        <time>2017-10-15T06:28:15.000Z</time>
      </trkpt>
      <trkpt lat="47.49124" lon="6.76305">
        <ele>349.1</ele>
        <time>2017-10-15T06:28:16.000Z</time>
      </trkpt>
      <trkpt lat="47.49125" lon="6.76313">
        <ele>348.9</ele>
        <time>2017-10-15T06:28:17.000Z</time>
      </trkpt>
      <trkpt lat="47.49125" lon="6.76319">
        <ele>347.9</ele>
        <time>2017-10-15T06:28:18.000Z</time>
      </trkpt>
      <trkpt lat="47.49126" lon="6.76327">
        <ele>347.4</ele>
        <time>2017-10-15T06:28:19.000Z</time>
      </trkpt>
      <trkpt lat="47.49126" lon="6.76334">
        <ele>347</ele>
        <time>2017-10-15T06:28:20.000Z</time>
      </trkpt>
      <trkpt lat="47.49126" lon="6.76343">
        <ele>346.6</ele>
        <time>2017-10-15T06:28:21.000Z</time>
      </trkpt>
      <trkpt lat="47.49126" lon="6.76353">
        <ele>345.6</ele>
        <time>2017-10-15T06:28:22.000Z</time>
      </trkpt>
      <trkpt lat="47.49125" lon="6.76363">
        <ele>344.4</ele>
        <time>2017-10-15T06:28:23.000Z</time>
      </trkpt>
      <trkpt lat="47.49124" lon="6.76373">
        <ele>344</ele>
        <time>2017-10-15T06:28:24.000Z</time>
      </trkpt>
      <trkpt lat="47.49125" lon="6.76384">
        <ele>344</ele>
        <time>2017-10-15T06:28:25.000Z</time>
      </trkpt>
      <trkpt lat="47.49125" lon="6.76393">
        <ele>345</ele>
        <time>2017-10-15T06:28:26.000Z</time>
      </trkpt>
      <trkpt lat="47.49126" lon="6.76403">
        <ele>345.3</ele>
        <time>2017-10-15T06:28:27.000Z</time>
      </trkpt>
      <trkpt lat="47.49127" lon="6.76412">
        <ele>346.2</ele>
        <time>2017-10-15T06:28:28.000Z</time>
      </trkpt>
      <trkpt lat="47.49127" lon="6.7642">
        <ele>347.2</ele>
        <time>2017-10-15T06:28:29.000Z</time>
      </trkpt>
      <trkpt lat="47.49126" lon="6.76431">
        <ele>347.7</ele>
        <time>2017-10-15T06:28:30.000Z</time>
      </trkpt>
      <trkpt lat="47.49126" lon="6.76442">
        <ele>348.1</ele>
        <time>2017-10-15T06:28:31.000Z</time>
      </trkpt>
      <trkpt lat="47.49126" lon="6.76451">
        <ele>348.7</ele>
        <time>2017-10-15T06:28:32.000Z</time>
      </trkpt>
      <trkpt lat="47.49126" lon="6.7646">
        <ele>349.3</ele>
        <time>2017-10-15T06:28:33.000Z</time>
      </trkpt>
      <trkpt lat="47.49126" lon="6.76471">
        <ele>349.6</ele>
        <time>2017-10-15T06:28:34.000Z</time>
      </trkpt>
      <trkpt lat="47.49126" lon="6.76481">
        <ele>349.5</ele>
        <time>2017-10-15T06:28:35.000Z</time>
      </trkpt>
      <trkpt lat="47.49126" lon="6.76491">
        <ele>349.8</ele>
        <time>2017-10-15T06:28:36.000Z</time>
      </trkpt>
      <trkpt lat="47.49126" lon="6.765">
        <ele>352.2</ele>
        <time>2017-10-15T06:28:37.000Z</time>
      </trkpt>
      <trkpt lat="47.49128" lon="6.76509">
        <ele>353.6</ele>
        <time>2017-10-15T06:28:38.000Z</time>
      </trkpt>
      <trkpt lat="47.49132" lon="6.76516">
        <ele>354.9</ele>
        <time>2017-10-15T06:28:39.000Z</time>
      </trkpt>
      <trkpt lat="47.49137" lon="6.76518">
        <ele>354.5</ele>
        <time>2017-10-15T06:28:40.000Z</time>
      </trkpt>
      <trkpt lat="47.49141" lon="6.76519">
        <ele>355.1</ele>
        <time>2017-10-15T06:28:41.000Z</time>
      </trkpt>
      <trkpt lat="47.49145" lon="6.76518">
        <ele>355.2</ele>
        <time>2017-10-15T06:28:42.000Z</time>
      </trkpt>
      <trkpt lat="47.4915" lon="6.76517">
        <ele>355.8</ele>
        <time>2017-10-15T06:28:43.000Z</time>
      </trkpt>
      <trkpt lat="47.49154" lon="6.76514">
        <ele>355.4</ele>
        <time>2017-10-15T06:28:44.000Z</time>
      </trkpt>
      <trkpt lat="47.49157" lon="6.76511">
        <ele>355.5</ele>
        <time>2017-10-15T06:28:45.000Z</time>
      </trkpt>
      <trkpt lat="47.4916" lon="6.76508">
        <ele>355.6</ele>
        <time>2017-10-15T06:28:46.000Z</time>
      </trkpt>
      <trkpt lat="47.49162" lon="6.76506">
        <ele>355.8</ele>
        <time>2017-10-15T06:28:47.000Z</time>
      </trkpt>
      <trkpt lat="47.49165" lon="6.76504">
        <ele>355.8</ele>
        <time>2017-10-15T06:28:48.000Z</time>
      </trkpt>
      <trkpt lat="47.49168" lon="6.76501">
        <ele>355.8</ele>
        <time>2017-10-15T06:28:49.000Z</time>
      </trkpt>
      <trkpt lat="47.49172" lon="6.76497">
        <ele>356.5</ele>
        <time>2017-10-15T06:28:50.000Z</time>
      </trkpt>
      <trkpt lat="47.49175" lon="6.76496">
        <ele>356.6</ele>
        <time>2017-10-15T06:28:51.000Z</time>
      </trkpt>
      <trkpt lat="47.49179" lon="6.76494">
        <ele>356.5</ele>
        <time>2017-10-15T06:28:52.000Z</time>
      </trkpt>
      <trkpt lat="47.49183" lon="6.76493">
        <ele>356.5</ele>
        <time>2017-10-15T06:28:53.000Z</time>
      </trkpt>
      <trkpt lat="47.49186" lon="6.76493">
        <ele>356.4</ele>
        <time>2017-10-15T06:28:54.000Z</time>
      </trkpt>
      <trkpt lat="47.4919" lon="6.76492">
        <ele>356.4</ele>
        <time>2017-10-15T06:28:56.000Z</time>
      </trkpt>
      <trkpt lat="47.49193" lon="6.7649">
        <ele>356.6</ele>
        <time>2017-10-15T06:28:57.000Z</time>
      </trkpt>
      <trkpt lat="47.49197" lon="6.76488">
        <ele>362.1</ele>
        <time>2017-10-15T06:32:49.000Z</time>
      </trkpt>
      <trkpt lat="47.49205" lon="6.76496">
        <ele>362.2</ele>
        <time>2017-10-15T06:32:50.000Z</time>
      </trkpt>
      <trkpt lat="47.49208" lon="6.76496">
        <ele>362.4</ele>
        <time>2017-10-15T06:32:51.000Z</time>
      </trkpt>
      <trkpt lat="47.4921" lon="6.76496">
        <ele>362.6</ele>
        <time>2017-10-15T06:32:52.000Z</time>
      </trkpt>
      <trkpt lat="47.49207" lon="6.765">
        <ele>363.5</ele>
        <time>2017-10-15T06:32:58.000Z</time>
      </trkpt>
      <trkpt lat="47.49203" lon="6.76499">
        <ele>363.7</ele>
        <time>2017-10-15T06:32:59.000Z</time>
      </trkpt>
      <trkpt lat="47.49198" lon="6.76499">
        <ele>363.9</ele>
        <time>2017-10-15T06:33:00.000Z</time>
      </trkpt>
      <trkpt lat="47.49195" lon="6.76499">
        <ele>364.1</ele>
        <time>2017-10-15T06:33:01.000Z</time>
      </trkpt>
      <trkpt lat="47.49191" lon="6.76499">
        <ele>364.2</ele>
        <time>2017-10-15T06:33:02.000Z</time>
      </trkpt>
      <trkpt lat="47.49186" lon="6.76498">
        <ele>364.3</ele>
        <time>2017-10-15T06:33:03.000Z</time>
      </trkpt>
      <trkpt lat="47.49182" lon="6.76498">
        <ele>365.2</ele>
        <time>2017-10-15T06:33:04.000Z</time>
      </trkpt>
      <trkpt lat="47.49177" lon="6.76498">
        <ele>365.5</ele>
        <time>2017-10-15T06:33:05.000Z</time>
      </trkpt>
      <trkpt lat="47.49173" lon="6.76498">
        <ele>366.1</ele>
        <time>2017-10-15T06:33:06.000Z</time>
      </trkpt>
      <trkpt lat="47.4917" lon="6.76501">
        <ele>366.2</ele>
        <time>2017-10-15T06:33:07.000Z</time>
      </trkpt>
      <trkpt lat="47.49167" lon="6.76503">
        <ele>366.3</ele>
        <time>2017-10-15T06:33:08.000Z</time>
      </trkpt>
      <trkpt lat="47.49163" lon="6.76505">
        <ele>366.4</ele>
        <time>2017-10-15T06:33:09.000Z</time>
      </trkpt>
      <trkpt lat="47.49159" lon="6.76509">
        <ele>368.1</ele>
        <time>2017-10-15T06:33:10.000Z</time>
      </trkpt>
      <trkpt lat="47.49153" lon="6.76513">
        <ele>368.5</ele>
        <time>2017-10-15T06:33:11.000Z</time>
      </trkpt>
      <trkpt lat="47.49148" lon="6.76518">
        <ele>369.7</ele>
        <time>2017-10-15T06:33:12.000Z</time>
      </trkpt>
      <trkpt lat="47.49142" lon="6.76522">
        <ele>370</ele>
        <time>2017-10-15T06:33:13.000Z</time>
      </trkpt>
      <trkpt lat="47.49136" lon="6.76526">
        <ele>370.3</ele>
        <time>2017-10-15T06:33:14.000Z</time>
      </trkpt>
      <trkpt lat="47.4913" lon="6.76527">
        <ele>371.5</ele>
        <time>2017-10-15T06:33:15.000Z</time>
      </trkpt>
      <trkpt lat="47.49125" lon="6.76525">
        <ele>372.7</ele>
        <time>2017-10-15T06:33:16.000Z</time>
      </trkpt>
      <trkpt lat="47.49121" lon="6.76522">
        <ele>373.1</ele>
        <time>2017-10-15T06:33:17.000Z</time>
      </trkpt>
      <trkpt lat="47.49117" lon="6.76519">
        <ele>374.2</ele>
        <time>2017-10-15T06:33:18.000Z</time>
      </trkpt>
      <trkpt lat="47.49113" lon="6.76511">
        <ele>374.3</ele>
        <time>2017-10-15T06:33:19.000Z</time>
      </trkpt>
      <trkpt lat="47.4911" lon="6.76503">
        <ele>374.9</ele>
        <time>2017-10-15T06:33:20.000Z</time>
      </trkpt>
      <trkpt lat="47.49109" lon="6.76496">
        <ele>375</ele>
        <time>2017-10-15T06:33:21.000Z</time>
      </trkpt>
      <trkpt lat="47.49107" lon="6.7649">
        <ele>374.6</ele>
        <time>2017-10-15T06:33:22.000Z</time>
      </trkpt>
      <trkpt lat="47.49107" lon="6.76483">
        <ele>373.1</ele>
        <time>2017-10-15T06:33:23.000Z</time>
      </trkpt>
      <trkpt lat="47.49107" lon="6.76477">
        <ele>373</ele>
        <time>2017-10-15T06:33:24.000Z</time>
      </trkpt>
      <trkpt lat="47.49109" lon="6.7647">
        <ele>371.4</ele>
        <time>2017-10-15T06:33:25.000Z</time>
      </trkpt>
      <trkpt lat="47.49111" lon="6.76462">
        <ele>369.8</ele>
        <time>2017-10-15T06:33:26.000Z</time>
      </trkpt>
      <trkpt lat="47.49112" lon="6.76455">
        <ele>368.6</ele>
        <time>2017-10-15T06:33:27.000Z</time>
      </trkpt>
      <trkpt lat="47.49113" lon="6.76446">
        <ele>367.6</ele>
        <time>2017-10-15T06:33:28.000Z</time>
      </trkpt>
      <trkpt lat="47.49114" lon="6.76437">
        <ele>365.9</ele>
        <time>2017-10-15T06:33:29.000Z</time>
      </trkpt>
      <trkpt lat="47.49113" lon="6.76428">
        <ele>365.1</ele>
        <time>2017-10-15T06:33:30.000Z</time>
      </trkpt>
      <trkpt lat="47.49112" lon="6.7642">
        <ele>363</ele>
        <time>2017-10-15T06:33:31.000Z</time>
      </trkpt>
      <trkpt lat="47.49112" lon="6.76413">
        <ele>362</ele>
        <time>2017-10-15T06:33:32.000Z</time>
      </trkpt>
      <trkpt lat="47.49114" lon="6.76406">
        <ele>362</ele>
        <time>2017-10-15T06:33:33.000Z</time>
      </trkpt>
      <trkpt lat="47.49116" lon="6.764">
        <ele>361.9</ele>
        <time>2017-10-15T06:33:34.000Z</time>
      </trkpt>
      <trkpt lat="47.49118" lon="6.76393">
        <ele>362.1</ele>
        <time>2017-10-15T06:33:35.000Z</time>
      </trkpt>
      <trkpt lat="47.49118" lon="6.76393">
        <ele>362.1</ele>
        <time>2017-10-15T06:33:37.000Z</time>
      </trkpt>
      <trkpt lat="47.49121" lon="6.76379">
        <ele>358.9</ele>
        <time>2017-10-15T06:33:38.000Z</time>
      </trkpt>
      <trkpt lat="47.49121" lon="6.76379">
        <ele>358.9</ele>
        <time>2017-10-15T06:33:40.000Z</time>
      </trkpt>
      <trkpt lat="47.49124" lon="6.7636">
        <ele>357.1</ele>
        <time>2017-10-15T06:33:41.000Z</time>
      </trkpt>
      <trkpt lat="47.49124" lon="6.7636">
        <ele>357.1</ele>
        <time>2017-10-15T06:33:42.000Z</time>
      </trkpt>
      <trkpt lat="47.49123" lon="6.76346">
        <ele>357.6</ele>
        <time>2017-10-15T06:33:43.000Z</time>
      </trkpt>
      <trkpt lat="47.49122" lon="6.76338">
        <ele>357.4</ele>
        <time>2017-10-15T06:33:44.000Z</time>
      </trkpt>
      <trkpt lat="47.49122" lon="6.7633">
        <ele>355.7</ele>
        <time>2017-10-15T06:33:45.000Z</time>
      </trkpt>
      <trkpt lat="47.49122" lon="6.7633">
        <ele>355.7</ele>
        <time>2017-10-15T06:33:46.000Z</time>
      </trkpt>
      <trkpt lat="47.49121" lon="6.7632">
        <ele>355.6</ele>
        <time>2017-10-15T06:33:47.000Z</time>
      </trkpt>
      <trkpt lat="47.49121" lon="6.76313">
        <ele>355.5</ele>
        <time>2017-10-15T06:33:48.000Z</time>
      </trkpt>
      <trkpt lat="47.49121" lon="6.76307">
        <ele>355.4</ele>
        <time>2017-10-15T06:33:49.000Z</time>
      </trkpt>
      <trkpt lat="47.4912" lon="6.763">
        <ele>355.6</ele>
        <time>2017-10-15T06:33:50.000Z</time>
      </trkpt>
      <trkpt lat="47.4912" lon="6.763">
        <ele>355.7</ele>
        <time>2017-10-15T06:33:52.000Z</time>
      </trkpt>
      <trkpt lat="47.49119" lon="6.76292">
        <ele>355.8</ele>
        <time>2017-10-15T06:33:53.000Z</time>
      </trkpt>
      <trkpt lat="47.49118" lon="6.76287">
        <ele>355.9</ele>
        <time>2017-10-15T06:33:54.000Z</time>
      </trkpt>
      <trkpt lat="47.49118" lon="6.76281">
        <ele>356</ele>
        <time>2017-10-15T06:33:55.000Z</time>
      </trkpt>
      <trkpt lat="47.49118" lon="6.76275">
        <ele>355.1</ele>
        <time>2017-10-15T06:33:56.000Z</time>
      </trkpt>
      <trkpt lat="47.49118" lon="6.76269">
        <ele>354.9</ele>
        <time>2017-10-15T06:33:57.000Z</time>
      </trkpt>
      <trkpt lat="47.49117" lon="6.76263">
        <ele>354.7</ele>
        <time>2017-10-15T06:33:58.000Z</time>
      </trkpt>
      <trkpt lat="47.49118" lon="6.76258">
        <ele>354.6</ele>
        <time>2017-10-15T06:33:59.000Z</time>
      </trkpt>
      <trkpt lat="47.49117" lon="6.76251">
        <ele>352.7</ele>
        <time>2017-10-15T06:34:00.000Z</time>
      </trkpt>
      <trkpt lat="47.49117" lon="6.76245">
        <ele>351.3</ele>
        <time>2017-10-15T06:34:01.000Z</time>
      </trkpt>
      <trkpt lat="47.49117" lon="6.76238">
        <ele>349.7</ele>
        <time>2017-10-15T06:34:02.000Z</time>
      </trkpt>
      <trkpt lat="47.49116" lon="6.76232">
        <ele>349.5</ele>
        <time>2017-10-15T06:34:03.000Z</time>
      </trkpt>
      <trkpt lat="47.49116" lon="6.76225">
        <ele>349.3</ele>
        <time>2017-10-15T06:34:04.000Z</time>
      </trkpt>
      <trkpt lat="47.49115" lon="6.76219">
        <ele>349.1</ele>
        <time>2017-10-15T06:34:05.000Z</time>
      </trkpt>
      <trkpt lat="47.49114" lon="6.76211">
        <ele>349</ele>
        <time>2017-10-15T06:34:06.000Z</time>
      </trkpt>
      <trkpt lat="47.49115" lon="6.76204">
        <ele>348.9</ele>
        <time>2017-10-15T06:34:07.000Z</time>
      </trkpt>
      <trkpt lat="47.49117" lon="6.76199">
        <ele>349</ele>
        <time>2017-10-15T06:34:08.000Z</time>
      </trkpt>
      <trkpt lat="47.49118" lon="6.76192">
        <ele>349</ele>
        <time>2017-10-15T06:34:09.000Z</time>
      </trkpt>
      <trkpt lat="47.4912" lon="6.76184">
        <ele>349.1</ele>
        <time>2017-10-15T06:34:10.000Z</time>
      </trkpt>
      <trkpt lat="47.49121" lon="6.76177">
        <ele>349.1</ele>
        <time>2017-10-15T06:34:11.000Z</time>
      </trkpt>
      <trkpt lat="47.49122" lon="6.76169">
        <ele>350.2</ele>
        <time>2017-10-15T06:34:12.000Z</time>
      </trkpt>
      <trkpt lat="47.49123" lon="6.76162">
        <ele>351.5</ele>
        <time>2017-10-15T06:34:13.000Z</time>
      </trkpt>
      <trkpt lat="47.49125" lon="6.76153">
        <ele>352.3</ele>
        <time>2017-10-15T06:34:14.000Z</time>
      </trkpt>
      <trkpt lat="47.49126" lon="6.76142">
        <ele>353.2</ele>
        <time>2017-10-15T06:34:15.000Z</time>
      </trkpt>
      <trkpt lat="47.49128" lon="6.76133">
        <ele>352.8</ele>
        <time>2017-10-15T06:34:16.000Z</time>
      </trkpt>
      <trkpt lat="47.4913" lon="6.76124">
        <ele>352.7</ele>
        <time>2017-10-15T06:34:17.000Z</time>
      </trkpt>
      <trkpt lat="47.49132" lon="6.76116">
        <ele>352.7</ele>
        <time>2017-10-15T06:34:18.000Z</time>
      </trkpt>
      <trkpt lat="47.49134" lon="6.76107">
        <ele>352.7</ele>
        <time>2017-10-15T06:34:19.000Z</time>
      </trkpt>
      <trkpt lat="47.49136" lon="6.76098">
        <ele>352.8</ele>
        <time>2017-10-15T06:34:20.000Z</time>
      </trkpt>
      <trkpt lat="47.49137" lon="6.76089">
        <ele>354.6</ele>
        <time>2017-10-15T06:34:21.000Z</time>
      </trkpt>
      <trkpt lat="47.49139" lon="6.76081">
        <ele>355.8</ele>
        <time>2017-10-15T06:34:22.000Z</time>
      </trkpt>
      <trkpt lat="47.49141" lon="6.76074">
        <ele>356.8</ele>
        <time>2017-10-15T06:34:23.000Z</time>
      </trkpt>
      <trkpt lat="47.49143" lon="6.76066">
        <ele>357.3</ele>
        <time>2017-10-15T06:34:24.000Z</time>
      </trkpt>
      <trkpt lat="47.49145" lon="6.7606">
        <ele>357.7</ele>
        <time>2017-10-15T06:34:25.000Z</time>
      </trkpt>
      <trkpt lat="47.49148" lon="6.76053">
        <ele>357.8</ele>
        <time>2017-10-15T06:34:26.000Z</time>
      </trkpt>
      <trkpt lat="47.49151" lon="6.76045">
        <ele>358.1</ele>
        <time>2017-10-15T06:34:27.000Z</time>
      </trkpt>
      <trkpt lat="47.49152" lon="6.76038">
        <ele>358.4</ele>
        <time>2017-10-15T06:34:28.000Z</time>
      </trkpt>
      <trkpt lat="47.49154" lon="6.76031">
        <ele>359</ele>
        <time>2017-10-15T06:34:29.000Z</time>
      </trkpt>
      <trkpt lat="47.49156" lon="6.76024">
        <ele>358.1</ele>
        <time>2017-10-15T06:34:30.000Z</time>
      </trkpt>
      <trkpt lat="47.49159" lon="6.76017">
        <ele>357.3</ele>
        <time>2017-10-15T06:34:31.000Z</time>
      </trkpt>
      <trkpt lat="47.49161" lon="6.76012">
        <ele>356.8</ele>
        <time>2017-10-15T06:34:32.000Z</time>
      </trkpt>
      <trkpt lat="47.49163" lon="6.76007">
        <ele>356.4</ele>
        <time>2017-10-15T06:34:33.000Z</time>
      </trkpt>
      <trkpt lat="47.49166" lon="6.76002">
        <ele>356.4</ele>
        <time>2017-10-15T06:34:34.000Z</time>
      </trkpt>
      <trkpt lat="47.49168" lon="6.75997">
        <ele>355.9</ele>
        <time>2017-10-15T06:34:35.000Z</time>
      </trkpt>
      <trkpt lat="47.49171" lon="6.75992">
        <ele>354.5</ele>
        <time>2017-10-15T06:34:36.000Z</time>
      </trkpt>
      <trkpt lat="47.49173" lon="6.75987">
        <ele>353.7</ele>
        <time>2017-10-15T06:34:37.000Z</time>
      </trkpt>
      <trkpt lat="47.49177" lon="6.7598">
        <ele>353.5</ele>
        <time>2017-10-15T06:34:38.000Z</time>
      </trkpt>
      <trkpt lat="47.4918" lon="6.75974">
        <ele>353.2</ele>
        <time>2017-10-15T06:34:39.000Z</time>
      </trkpt>
      <trkpt lat="47.49183" lon="6.75967">
        <ele>354</ele>
        <time>2017-10-15T06:34:40.000Z</time>
      </trkpt>
      <trkpt lat="47.49185" lon="6.75959">
        <ele>353.6</ele>
        <time>2017-10-15T06:34:41.000Z</time>
      </trkpt>
      <trkpt lat="47.49187" lon="6.75952">
        <ele>353.7</ele>
        <time>2017-10-15T06:34:42.000Z</time>
      </trkpt>
      <trkpt lat="47.4919" lon="6.75946">
        <ele>353</ele>
        <time>2017-10-15T06:34:43.000Z</time>
      </trkpt>
      <trkpt lat="47.49194" lon="6.75941">
        <ele>352.7</ele>
        <time>2017-10-15T06:34:44.000Z</time>
      </trkpt>
      <trkpt lat="47.49199" lon="6.75937">
        <ele>354</ele>
        <time>2017-10-15T06:34:45.000Z</time>
      </trkpt>
      <trkpt lat="47.49203" lon="6.75931">
        <ele>354.4</ele>
        <time>2017-10-15T06:34:46.000Z</time>
      </trkpt>
      <trkpt lat="47.49203" lon="6.75931">
        <ele>354.4</ele>
        <time>2017-10-15T06:34:47.000Z</time>
      </trkpt>
      <trkpt lat="47.49208" lon="6.75925">
        <ele>355.1</ele>
        <time>2017-10-15T06:34:48.000Z</time>
      </trkpt>
      <trkpt lat="47.49211" lon="6.7592">
        <ele>356.2</ele>
        <time>2017-10-15T06:34:49.000Z</time>
      </trkpt>
      <trkpt lat="47.49215" lon="6.75914">
        <ele>357.3</ele>
        <time>2017-10-15T06:34:50.000Z</time>
      </trkpt>
      <trkpt lat="47.49217" lon="6.75909">
        <ele>358.4</ele>
        <time>2017-10-15T06:34:51.000Z</time>
      </trkpt>
      <trkpt lat="47.4922" lon="6.75903">
        <ele>359.2</ele>
        <time>2017-10-15T06:34:52.000Z</time>
      </trkpt>
      <trkpt lat="47.49223" lon="6.75898">
        <ele>359.3</ele>
        <time>2017-10-15T06:34:53.000Z</time>
      </trkpt>
      <trkpt lat="47.49226" lon="6.75893">
        <ele>359.4</ele>
        <time>2017-10-15T06:34:54.000Z</time>
      </trkpt>
      <trkpt lat="47.49228" lon="6.75887">
        <ele>359.6</ele>
        <time>2017-10-15T06:34:55.000Z</time>
      </trkpt>
      <trkpt lat="47.4923" lon="6.7588">
        <ele>359.7</ele>
        <time>2017-10-15T06:34:56.000Z</time>
      </trkpt>
      <trkpt lat="47.49234" lon="6.75872">
        <ele>361.5</ele>
        <time>2017-10-15T06:34:57.000Z</time>
      </trkpt>
      <trkpt lat="47.49238" lon="6.75866">
        <ele>363</ele>
        <time>2017-10-15T06:34:58.000Z</time>
      </trkpt>
      <trkpt lat="47.4924" lon="6.75861">
        <ele>363.1</ele>
        <time>2017-10-15T06:34:59.000Z</time>
      </trkpt>
      <trkpt lat="47.49243" lon="6.75855">
        <ele>364.2</ele>
        <time>2017-10-15T06:35:00.000Z</time>
      </trkpt>
      <trkpt lat="47.49246" lon="6.75848">
        <ele>364.5</ele>
        <time>2017-10-15T06:35:01.000Z</time>
      </trkpt>
      <trkpt lat="47.49248" lon="6.75842">
        <ele>364.6</ele>
        <time>2017-10-15T06:35:02.000Z</time>
      </trkpt>
      <trkpt lat="47.4925" lon="6.75836">
        <ele>364.9</ele>
        <time>2017-10-15T06:35:03.000Z</time>
      </trkpt>
      <trkpt lat="47.49253" lon="6.7583">
        <ele>365.9</ele>
        <time>2017-10-15T06:35:04.000Z</time>
      </trkpt>
      <trkpt lat="47.49256" lon="6.75825">
        <ele>366.1</ele>
        <time>2017-10-15T06:35:05.000Z</time>
      </trkpt>
      <trkpt lat="47.49258" lon="6.75821">
        <ele>366.2</ele>
        <time>2017-10-15T06:35:06.000Z</time>
      </trkpt>
      <trkpt lat="47.49261" lon="6.75816">
        <ele>366.9</ele>
        <time>2017-10-15T06:35:07.000Z</time>
      </trkpt>
      <trkpt lat="47.49264" lon="6.75811">
        <ele>366.9</ele>
        <time>2017-10-15T06:35:08.000Z</time>
      </trkpt>
      <trkpt lat="47.49267" lon="6.75806">
        <ele>366</ele>
        <time>2017-10-15T06:35:09.000Z</time>
      </trkpt>
      <trkpt lat="47.4927" lon="6.75801">
        <ele>364.3</ele>
        <time>2017-10-15T06:35:10.000Z</time>
      </trkpt>
      <trkpt lat="47.49273" lon="6.75796">
        <ele>363.2</ele>
        <time>2017-10-15T06:35:11.000Z</time>
      </trkpt>
      <trkpt lat="47.49276" lon="6.7579">
        <ele>362.6</ele>
        <time>2017-10-15T06:35:12.000Z</time>
      </trkpt>
      <trkpt lat="47.4928" lon="6.75785">
        <ele>362.8</ele>
        <time>2017-10-15T06:35:13.000Z</time>
      </trkpt>
      <trkpt lat="47.49283" lon="6.7578">
        <ele>362.2</ele>
        <time>2017-10-15T06:35:14.000Z</time>
      </trkpt>
      <trkpt lat="47.49285" lon="6.75777">
        <ele>362.3</ele>
        <time>2017-10-15T06:35:15.000Z</time>
      </trkpt>
      <trkpt lat="47.49288" lon="6.75773">
        <ele>362.1</ele>
        <time>2017-10-15T06:35:16.000Z</time>
      </trkpt>
      <trkpt lat="47.49291" lon="6.75769">
        <ele>362.4</ele>
        <time>2017-10-15T06:35:17.000Z</time>
      </trkpt>
      <trkpt lat="47.49295" lon="6.75765">
        <ele>363.5</ele>
        <time>2017-10-15T06:35:18.000Z</time>
      </trkpt>
      <trkpt lat="47.49299" lon="6.7576">
        <ele>364.1</ele>
        <time>2017-10-15T06:35:19.000Z</time>
      </trkpt>
      <trkpt lat="47.49302" lon="6.75756">
        <ele>364.1</ele>
        <time>2017-10-15T06:35:20.000Z</time>
      </trkpt>
      <trkpt lat="47.49305" lon="6.75752">
        <ele>364.1</ele>
        <time>2017-10-15T06:35:21.000Z</time>
      </trkpt>
      <trkpt lat="47.49309" lon="6.75748">
        <ele>364.5</ele>
        <time>2017-10-15T06:35:22.000Z</time>
      </trkpt>
      <trkpt lat="47.49313" lon="6.75745">
        <ele>364.4</ele>
        <time>2017-10-15T06:35:23.000Z</time>
      </trkpt>
      <trkpt lat="47.49317" lon="6.75741">
        <ele>364.4</ele>
        <time>2017-10-15T06:35:24.000Z</time>
      </trkpt>
      <trkpt lat="47.49322" lon="6.75736">
        <ele>364.6</ele>
        <time>2017-10-15T06:35:25.000Z</time>
      </trkpt>
      <trkpt lat="47.49326" lon="6.75733">
        <ele>364.4</ele>
        <time>2017-10-15T06:35:26.000Z</time>
      </trkpt>
      <trkpt lat="47.4933" lon="6.7573">
        <ele>364.4</ele>
        <time>2017-10-15T06:35:29.000Z</time>
      </trkpt>
      <trkpt lat="47.49336" lon="6.75726">
        <ele>364.5</ele>
        <time>2017-10-15T06:35:30.000Z</time>
      </trkpt>
      <trkpt lat="47.49338" lon="6.75726">
        <ele>364.5</ele>
        <time>2017-10-15T06:35:31.000Z</time>
      </trkpt>
      <trkpt lat="47.49341" lon="6.75726">
        <ele>364.6</ele>
        <time>2017-10-15T06:35:32.000Z</time>
      </trkpt>
      <trkpt lat="47.49342" lon="6.75726">
        <ele>364.7</ele>
        <time>2017-10-15T06:35:33.000Z</time>
      </trkpt>
      <trkpt lat="47.49345" lon="6.75722">
        <ele>364.7</ele>
        <time>2017-10-15T06:35:34.000Z</time>
      </trkpt>
      <trkpt lat="47.4935" lon="6.75717">
        <ele>364.7</ele>
        <time>2017-10-15T06:35:35.000Z</time>
      </trkpt>
      <trkpt lat="47.49355" lon="6.75712">
        <ele>365.4</ele>
        <time>2017-10-15T06:35:36.000Z</time>
      </trkpt>
      <trkpt lat="47.4936" lon="6.75708">
        <ele>365.1</ele>
        <time>2017-10-15T06:35:37.000Z</time>
      </trkpt>
      <trkpt lat="47.49364" lon="6.75704">
        <ele>364.3</ele>
        <time>2017-10-15T06:35:38.000Z</time>
      </trkpt>
      <trkpt lat="47.49367" lon="6.757">
        <ele>364</ele>
        <time>2017-10-15T06:35:39.000Z</time>
      </trkpt>
      <trkpt lat="47.49371" lon="6.75697">
        <ele>363.5</ele>
        <time>2017-10-15T06:35:40.000Z</time>
      </trkpt>
      <trkpt lat="47.49375" lon="6.75693">
        <ele>363.1</ele>
        <time>2017-10-15T06:35:41.000Z</time>
      </trkpt>
      <trkpt lat="47.49381" lon="6.75689">
        <ele>362.2</ele>
        <time>2017-10-15T06:35:42.000Z</time>
      </trkpt>
      <trkpt lat="47.49385" lon="6.75687">
        <ele>361.5</ele>
        <time>2017-10-15T06:35:43.000Z</time>
      </trkpt>
      <trkpt lat="47.49389" lon="6.75686">
        <ele>361.5</ele>
        <time>2017-10-15T06:35:44.000Z</time>
      </trkpt>
      <trkpt lat="47.49394" lon="6.75685">
        <ele>361.4</ele>
        <time>2017-10-15T06:35:45.000Z</time>
      </trkpt>
      <trkpt lat="47.49399" lon="6.75683">
        <ele>360.8</ele>
        <time>2017-10-15T06:35:46.000Z</time>
      </trkpt>
      <trkpt lat="47.49404" lon="6.75681">
        <ele>359.8</ele>
        <time>2017-10-15T06:35:47.000Z</time>
      </trkpt>
      <trkpt lat="47.4941" lon="6.75676">
        <ele>359.9</ele>
        <time>2017-10-15T06:35:48.000Z</time>
      </trkpt>
      <trkpt lat="47.49415" lon="6.7567">
        <ele>359.8</ele>
        <time>2017-10-15T06:35:49.000Z</time>
      </trkpt>
      <trkpt lat="47.49419" lon="6.75667">
        <ele>359.9</ele>
        <time>2017-10-15T06:35:50.000Z</time>
      </trkpt>
      <trkpt lat="47.49423" lon="6.75665">
        <ele>359.9</ele>
        <time>2017-10-15T06:35:51.000Z</time>
      </trkpt>
      <trkpt lat="47.49428" lon="6.75665">
        <ele>359.3</ele>
        <time>2017-10-15T06:35:52.000Z</time>
      </trkpt>
      <trkpt lat="47.4943" lon="6.75668">
        <ele>359.1</ele>
        <time>2017-10-15T06:35:53.000Z</time>
      </trkpt>
      <trkpt lat="47.49432" lon="6.7567">
        <ele>359.1</ele>
        <time>2017-10-15T06:35:54.000Z</time>
      </trkpt>
      <trkpt lat="47.49434" lon="6.75674">
        <ele>359</ele>
        <time>2017-10-15T06:35:55.000Z</time>
      </trkpt>
      <trkpt lat="47.49436" lon="6.75679">
        <ele>358.9</ele>
        <time>2017-10-15T06:35:56.000Z</time>
      </trkpt>
      <trkpt lat="47.49439" lon="6.75684">
        <ele>358.9</ele>
        <time>2017-10-15T06:35:57.000Z</time>
      </trkpt>
      <trkpt lat="47.49443" lon="6.75688">
        <ele>358.9</ele>
        <time>2017-10-15T06:35:58.000Z</time>
      </trkpt>
      <trkpt lat="47.49447" lon="6.75691">
        <ele>358.2</ele>
        <time>2017-10-15T06:35:59.000Z</time>
      </trkpt>
      <trkpt lat="47.49449" lon="6.7569">
        <ele>358.1</ele>
        <time>2017-10-15T06:36:00.000Z</time>
      </trkpt>
      <trkpt lat="47.49452" lon="6.75689">
        <ele>357.9</ele>
        <time>2017-10-15T06:36:01.000Z</time>
      </trkpt>
      <trkpt lat="47.49456" lon="6.75691">
        <ele>357.8</ele>
        <time>2017-10-15T06:36:02.000Z</time>
      </trkpt>
      <trkpt lat="47.49459" lon="6.75695">
        <ele>357.7</ele>
        <time>2017-10-15T06:36:03.000Z</time>
      </trkpt>
      <trkpt lat="47.49462" lon="6.757">
        <ele>356.4</ele>
        <time>2017-10-15T06:36:04.000Z</time>
      </trkpt>
      <trkpt lat="47.49465" lon="6.75706">
        <ele>356.3</ele>
        <time>2017-10-15T06:36:05.000Z</time>
      </trkpt>
      <trkpt lat="47.49466" lon="6.7571">
        <ele>356.1</ele>
        <time>2017-10-15T06:36:06.000Z</time>
      </trkpt>
      <trkpt lat="47.49468" lon="6.75716">
        <ele>356.1</ele>
        <time>2017-10-15T06:36:07.000Z</time>
      </trkpt>
      <trkpt lat="47.4947" lon="6.75722">
        <ele>356.1</ele>
        <time>2017-10-15T06:36:08.000Z</time>
      </trkpt>
      <trkpt lat="47.49474" lon="6.75726">
        <ele>355.7</ele>
        <time>2017-10-15T06:36:09.000Z</time>
      </trkpt>
      <trkpt lat="47.49479" lon="6.75728">
        <ele>354.6</ele>
        <time>2017-10-15T06:36:10.000Z</time>
      </trkpt>
      <trkpt lat="47.49483" lon="6.75729">
        <ele>352.9</ele>
        <time>2017-10-15T06:36:11.000Z</time>
      </trkpt>
      <trkpt lat="47.49488" lon="6.75729">
        <ele>351.9</ele>
        <time>2017-10-15T06:36:12.000Z</time>
      </trkpt>
      <trkpt lat="47.49493" lon="6.75728">
        <ele>351.8</ele>
        <time>2017-10-15T06:36:13.000Z</time>
      </trkpt>
      <trkpt lat="47.49497" lon="6.75728">
        <ele>351.8</ele>
        <time>2017-10-15T06:36:14.000Z</time>
      </trkpt>
      <trkpt lat="47.49502" lon="6.75725">
        <ele>352.2</ele>
        <time>2017-10-15T06:36:15.000Z</time>
      </trkpt>
      <trkpt lat="47.49507" lon="6.75722">
        <ele>352.3</ele>
        <time>2017-10-15T06:36:16.000Z</time>
      </trkpt>
      <trkpt lat="47.49511" lon="6.7572">
        <ele>352.8</ele>
        <time>2017-10-15T06:36:17.000Z</time>
      </trkpt>
      <trkpt lat="47.49515" lon="6.75717">
        <ele>352.8</ele>
        <time>2017-10-15T06:36:18.000Z</time>
      </trkpt>
      <trkpt lat="47.49519" lon="6.75714">
        <ele>352.9</ele>
        <time>2017-10-15T06:36:19.000Z</time>
      </trkpt>
      <trkpt lat="47.49523" lon="6.75712">
        <ele>353.5</ele>
        <time>2017-10-15T06:36:20.000Z</time>
      </trkpt>
      <trkpt lat="47.49529" lon="6.75708">
        <ele>354.3</ele>
        <time>2017-10-15T06:36:21.000Z</time>
      </trkpt>
      <trkpt lat="47.49533" lon="6.75705">
        <ele>355.4</ele>
        <time>2017-10-15T06:36:22.000Z</time>
      </trkpt>
      <trkpt lat="47.49538" lon="6.75702">
        <ele>355.2</ele>
        <time>2017-10-15T06:36:23.000Z</time>
      </trkpt>
      <trkpt lat="47.49542" lon="6.75699">
        <ele>355.8</ele>
        <time>2017-10-15T06:36:24.000Z</time>
      </trkpt>
      <trkpt lat="47.49545" lon="6.75696">
        <ele>356.6</ele>
        <time>2017-10-15T06:36:25.000Z</time>
      </trkpt>
      <trkpt lat="47.49549" lon="6.75692">
        <ele>358.2</ele>
        <time>2017-10-15T06:36:26.000Z</time>
      </trkpt>
      <trkpt lat="47.49552" lon="6.75688">
        <ele>359.9</ele>
        <time>2017-10-15T06:36:27.000Z</time>
      </trkpt>
      <trkpt lat="47.49554" lon="6.75685">
        <ele>360</ele>
        <time>2017-10-15T06:36:28.000Z</time>
      </trkpt>
      <trkpt lat="47.49555" lon="6.75681">
        <ele>360.2</ele>
        <time>2017-10-15T06:36:29.000Z</time>
      </trkpt>
      <trkpt lat="47.49557" lon="6.75677">
        <ele>360.3</ele>
        <time>2017-10-15T06:36:30.000Z</time>
      </trkpt>
      <trkpt lat="47.49559" lon="6.75673">
        <ele>360.4</ele>
        <time>2017-10-15T06:36:31.000Z</time>
      </trkpt>
      <trkpt lat="47.49561" lon="6.75669">
        <ele>360.5</ele>
        <time>2017-10-15T06:36:32.000Z</time>
      </trkpt>
      <trkpt lat="47.49563" lon="6.75665">
        <ele>360.7</ele>
        <time>2017-10-15T06:36:33.000Z</time>
      </trkpt>
      <trkpt lat="47.49565" lon="6.75663">
        <ele>360.7</ele>
        <time>2017-10-15T06:36:34.000Z</time>
      </trkpt>
      <trkpt lat="47.49568" lon="6.75663">
        <ele>360.7</ele>
        <time>2017-10-15T06:36:35.000Z</time>
      </trkpt>
      <trkpt lat="47.49572" lon="6.75664">
        <ele>360.6</ele>
        <time>2017-10-15T06:36:36.000Z</time>
      </trkpt>
      <trkpt lat="47.49575" lon="6.7567">
        <ele>359.6</ele>
        <time>2017-10-15T06:36:37.000Z</time>
      </trkpt>
      <trkpt lat="47.49581" lon="6.75677">
        <ele>358.4</ele>
        <time>2017-10-15T06:36:38.000Z</time>
      </trkpt>
      <trkpt lat="47.49585" lon="6.75681">
        <ele>358.3</ele>
        <time>2017-10-15T06:36:39.000Z</time>
      </trkpt>
      <trkpt lat="47.49588" lon="6.75686">
        <ele>358.2</ele>
        <time>2017-10-15T06:36:40.000Z</time>
      </trkpt>
      <trkpt lat="47.49589" lon="6.7569">
        <ele>358.3</ele>
        <time>2017-10-15T06:36:41.000Z</time>
      </trkpt>
      <trkpt lat="47.4959" lon="6.75695">
        <ele>358.3</ele>
        <time>2017-10-15T06:36:42.000Z</time>
      </trkpt>
      <trkpt lat="47.4959" lon="6.75701">
        <ele>358.2</ele>
        <time>2017-10-15T06:36:43.000Z</time>
      </trkpt>
      <trkpt lat="47.49589" lon="6.75706">
        <ele>358.3</ele>
        <time>2017-10-15T06:36:44.000Z</time>
      </trkpt>
      <trkpt lat="47.49588" lon="6.75711">
        <ele>358.4</ele>
        <time>2017-10-15T06:36:45.000Z</time>
      </trkpt>
      <trkpt lat="47.49586" lon="6.75716">
        <ele>358.4</ele>
        <time>2017-10-15T06:36:46.000Z</time>
      </trkpt>
      <trkpt lat="47.49584" lon="6.75719">
        <ele>358.5</ele>
        <time>2017-10-15T06:36:47.000Z</time>
      </trkpt>
      <trkpt lat="47.49581" lon="6.75725">
        <ele>358.5</ele>
        <time>2017-10-15T06:36:48.000Z</time>
      </trkpt>
      <trkpt lat="47.49579" lon="6.75729">
        <ele>358.5</ele>
        <time>2017-10-15T06:36:49.000Z</time>
      </trkpt>
      <trkpt lat="47.49576" lon="6.75733">
        <ele>358.6</ele>
        <time>2017-10-15T06:36:50.000Z</time>
      </trkpt>
      <trkpt lat="47.49574" lon="6.75736">
        <ele>358.7</ele>
        <time>2017-10-15T06:36:51.000Z</time>
      </trkpt>
      <trkpt lat="47.49572" lon="6.75739">
        <ele>358.8</ele>
        <time>2017-10-15T06:36:52.000Z</time>
      </trkpt>
      <trkpt lat="47.4957" lon="6.75743">
        <ele>358.9</ele>
        <time>2017-10-15T06:36:53.000Z</time>
      </trkpt>
      <trkpt lat="47.49568" lon="6.75746">
        <ele>358.9</ele>
        <time>2017-10-15T06:36:54.000Z</time>
      </trkpt>
      <trkpt lat="47.49566" lon="6.7575">
        <ele>359</ele>
        <time>2017-10-15T06:36:55.000Z</time>
      </trkpt>
      <trkpt lat="47.49564" lon="6.75753">
        <ele>359.1</ele>
        <time>2017-10-15T06:36:56.000Z</time>
      </trkpt>
      <trkpt lat="47.49562" lon="6.75755">
        <ele>359.1</ele>
        <time>2017-10-15T06:36:57.000Z</time>
      </trkpt>
      <trkpt lat="47.49559" lon="6.75758">
        <ele>359.1</ele>
        <time>2017-10-15T06:36:58.000Z</time>
      </trkpt>
      <trkpt lat="47.49559" lon="6.75761">
        <ele>363.8</ele>
        <time>2017-10-15T06:37:14.000Z</time>
      </trkpt>
      <trkpt lat="47.49562" lon="6.75785">
        <ele>364.4</ele>
        <time>2017-10-15T06:37:15.000Z</time>
      </trkpt>
      <trkpt lat="47.49562" lon="6.75785">
        <ele>364.8</ele>
        <time>2017-10-15T06:37:24.000Z</time>
      </trkpt>
      <trkpt lat="47.49572" lon="6.75793">
        <ele>364.9</ele>
        <time>2017-10-15T06:37:25.000Z</time>
      </trkpt>
      <trkpt lat="47.49572" lon="6.75793">
        <ele>365.4</ele>
        <time>2017-10-15T06:37:41.000Z</time>
      </trkpt>
      <trkpt lat="47.49587" lon="6.75794">
        <ele>365.4</ele>
        <time>2017-10-15T06:37:42.000Z</time>
      </trkpt>
      <trkpt lat="47.49587" lon="6.75794">
        <ele>365.3</ele>
        <time>2017-10-15T06:38:01.000Z</time>
      </trkpt>
      <trkpt lat="47.496" lon="6.75795">
        <ele>365.3</ele>
        <time>2017-10-15T06:38:02.000Z</time>
      </trkpt>
      <trkpt lat="47.496" lon="6.75795">
        <ele>375.2</ele>
        <time>2017-10-15T06:41:21.000Z</time>
      </trkpt>
      <trkpt lat="47.49611" lon="6.75782">
        <ele>375.2</ele>
        <time>2017-10-15T06:41:24.000Z</time>
      </trkpt>
      <trkpt lat="47.49609" lon="6.75784">
        <ele>375.3</ele>
        <time>2017-10-15T06:41:26.000Z</time>
      </trkpt>
      <trkpt lat="47.49605" lon="6.75787">
        <ele>375.4</ele>
        <time>2017-10-15T06:41:27.000Z</time>
      </trkpt>
      <trkpt lat="47.49602" lon="6.75788">
        <ele>375.6</ele>
        <time>2017-10-15T06:41:29.000Z</time>
      </trkpt>
      <trkpt lat="47.49598" lon="6.75785">
        <ele>375.6</ele>
        <time>2017-10-15T06:41:30.000Z</time>
      </trkpt>
      <trkpt lat="47.49597" lon="6.7578">
        <ele>375.7</ele>
        <time>2017-10-15T06:41:32.000Z</time>
      </trkpt>
      <trkpt lat="47.49596" lon="6.75778">
        <ele>375.8</ele>
        <time>2017-10-15T06:41:33.000Z</time>
      </trkpt>
      <trkpt lat="47.49597" lon="6.75777">
        <ele>376.1</ele>
        <time>2017-10-15T06:42:14.000Z</time>
      </trkpt>
      <trkpt lat="47.49609" lon="6.75741">
        <ele>380.9</ele>
        <time>2017-10-15T06:43:12.000Z</time>
      </trkpt>
      <trkpt lat="47.49609" lon="6.75746">
        <ele>380.9</ele>
        <time>2017-10-15T06:43:20.000Z</time>
      </trkpt>
      <trkpt lat="47.49608" lon="6.75751">
        <ele>380.9</ele>
        <time>2017-10-15T06:43:21.000Z</time>
      </trkpt>
      <trkpt lat="47.49607" lon="6.75757">
        <ele>381</ele>
        <time>2017-10-15T06:43:22.000Z</time>
      </trkpt>
      <trkpt lat="47.49607" lon="6.75761">
        <ele>381</ele>
        <time>2017-10-15T06:43:23.000Z</time>
      </trkpt>
      <trkpt lat="47.49607" lon="6.75778">
        <ele>381.1</ele>
        <time>2017-10-15T06:43:41.000Z</time>
      </trkpt>
      <trkpt lat="47.49608" lon="6.75773">
        <ele>381.6</ele>
        <time>2017-10-15T06:44:47.000Z</time>
      </trkpt>
      <trkpt lat="47.49609" lon="6.75772">
        <ele>381.8</ele>
        <time>2017-10-15T06:44:48.000Z</time>
      </trkpt>
      <trkpt lat="47.49612" lon="6.75775">
        <ele>382.9</ele>
        <time>2017-10-15T06:45:20.000Z</time>
      </trkpt>
      <trkpt lat="47.49613" lon="6.75777">
        <ele>383</ele>
        <time>2017-10-15T06:45:21.000Z</time>
      </trkpt>
      <trkpt lat="47.49616" lon="6.75781">
        <ele>383.1</ele>
        <time>2017-10-15T06:45:22.000Z</time>
      </trkpt>
      <trkpt lat="47.49619" lon="6.75784">
        <ele>383.1</ele>
        <time>2017-10-15T06:45:23.000Z</time>
      </trkpt>
      <trkpt lat="47.49621" lon="6.75787">
        <ele>383.1</ele>
        <time>2017-10-15T06:45:24.000Z</time>
      </trkpt>
      <trkpt lat="47.49623" lon="6.7579">
        <ele>383.2</ele>
        <time>2017-10-15T06:45:25.000Z</time>
      </trkpt>
      <trkpt lat="47.49626" lon="6.75792">
        <ele>383.2</ele>
        <time>2017-10-15T06:45:26.000Z</time>
      </trkpt>
      <trkpt lat="47.49628" lon="6.75794">
        <ele>383.2</ele>
        <time>2017-10-15T06:45:27.000Z</time>
      </trkpt>
      <trkpt lat="47.49632" lon="6.75794">
        <ele>383.3</ele>
        <time>2017-10-15T06:45:28.000Z</time>
      </trkpt>
      <trkpt lat="47.49636" lon="6.75793">
        <ele>383.4</ele>
        <time>2017-10-15T06:45:29.000Z</time>
      </trkpt>
      <trkpt lat="47.4964" lon="6.75791">
        <ele>383.6</ele>
        <time>2017-10-15T06:45:30.000Z</time>
      </trkpt>
      <trkpt lat="47.49644" lon="6.75788">
        <ele>383.7</ele>
        <time>2017-10-15T06:45:31.000Z</time>
      </trkpt>
      <trkpt lat="47.49648" lon="6.75785">
        <ele>383.9</ele>
        <time>2017-10-15T06:45:32.000Z</time>
      </trkpt>
      <trkpt lat="47.49652" lon="6.75782">
        <ele>384</ele>
        <time>2017-10-15T06:45:33.000Z</time>
      </trkpt>
      <trkpt lat="47.49653" lon="6.75781">
        <ele>384.2</ele>
        <time>2017-10-15T06:45:34.000Z</time>
      </trkpt>
      <trkpt lat="47.49655" lon="6.75781">
        <ele>384.3</ele>
        <time>2017-10-15T06:45:35.000Z</time>
      </trkpt>
      <trkpt lat="47.49658" lon="6.7578">
        <ele>384.4</ele>
        <time>2017-10-15T06:45:36.000Z</time>
      </trkpt>
      <trkpt lat="47.4966" lon="6.7578">
        <ele>384.4</ele>
        <time>2017-10-15T06:45:37.000Z</time>
      </trkpt>
      <trkpt lat="47.49664" lon="6.7578">
        <ele>384.5</ele>
        <time>2017-10-15T06:45:38.000Z</time>
      </trkpt>
      <trkpt lat="47.49668" lon="6.75778">
        <ele>384.7</ele>
        <time>2017-10-15T06:45:40.000Z</time>
      </trkpt>
      <trkpt lat="47.49673" lon="6.75777">
        <ele>384.8</ele>
        <time>2017-10-15T06:45:41.000Z</time>
      </trkpt>
      <trkpt lat="47.49679" lon="6.75775">
        <ele>384.8</ele>
        <time>2017-10-15T06:45:42.000Z</time>
      </trkpt>
      <trkpt lat="47.49681" lon="6.75775">
        <ele>384.8</ele>
        <time>2017-10-15T06:45:43.000Z</time>
      </trkpt>
      <trkpt lat="47.49684" lon="6.75775">
        <ele>384.7</ele>
        <time>2017-10-15T06:45:44.000Z</time>
      </trkpt>
      <trkpt lat="47.49687" lon="6.75775">
        <ele>384.7</ele>
        <time>2017-10-15T06:45:46.000Z</time>
      </trkpt>
      <trkpt lat="47.49689" lon="6.75775">
        <ele>384.8</ele>
        <time>2017-10-15T06:45:47.000Z</time>
      </trkpt>
      <trkpt lat="47.49693" lon="6.75774">
        <ele>384.8</ele>
        <time>2017-10-15T06:45:48.000Z</time>
      </trkpt>
      <trkpt lat="47.49695" lon="6.75774">
        <ele>384.9</ele>
        <time>2017-10-15T06:45:49.000Z</time>
      </trkpt>
      <trkpt lat="47.49697" lon="6.75773">
        <ele>385</ele>
        <time>2017-10-15T06:45:50.000Z</time>
      </trkpt>
      <trkpt lat="47.49699" lon="6.75772">
        <ele>385.1</ele>
        <time>2017-10-15T06:45:51.000Z</time>
      </trkpt>
      <trkpt lat="47.49702" lon="6.75771">
        <ele>385.2</ele>
        <time>2017-10-15T06:45:52.000Z</time>
      </trkpt>
      <trkpt lat="47.49704" lon="6.7577">
        <ele>385.3</ele>
        <time>2017-10-15T06:45:53.000Z</time>
      </trkpt>
      <trkpt lat="47.49707" lon="6.75769">
        <ele>385.5</ele>
        <time>2017-10-15T06:45:54.000Z</time>
      </trkpt>
      <trkpt lat="47.49711" lon="6.75767">
        <ele>385.7</ele>
        <time>2017-10-15T06:45:55.000Z</time>
      </trkpt>
      <trkpt lat="47.49716" lon="6.75765">
        <ele>385.9</ele>
        <time>2017-10-15T06:45:56.000Z</time>
      </trkpt>
      <trkpt lat="47.49718" lon="6.75764">
        <ele>386</ele>
        <time>2017-10-15T06:45:57.000Z</time>
      </trkpt>
      <trkpt lat="47.49721" lon="6.75762">
        <ele>386.2</ele>
        <time>2017-10-15T06:45:58.000Z</time>
      </trkpt>
      <trkpt lat="47.49723" lon="6.75761">
        <ele>386.3</ele>
        <time>2017-10-15T06:45:59.000Z</time>
      </trkpt>
      <trkpt lat="47.49726" lon="6.7576">
        <ele>386.3</ele>
        <time>2017-10-15T06:46:00.000Z</time>
      </trkpt>
      <trkpt lat="47.49728" lon="6.75759">
        <ele>386.2</ele>
        <time>2017-10-15T06:46:01.000Z</time>
      </trkpt>
      <trkpt lat="47.4973" lon="6.75758">
        <ele>386.2</ele>
        <time>2017-10-15T06:46:02.000Z</time>
      </trkpt>
      <trkpt lat="47.49734" lon="6.75756">
        <ele>386.1</ele>
        <time>2017-10-15T06:46:03.000Z</time>
      </trkpt>
      <trkpt lat="47.49737" lon="6.75755">
        <ele>386.2</ele>
        <time>2017-10-15T06:46:04.000Z</time>
      </trkpt>
      <trkpt lat="47.49741" lon="6.75753">
        <ele>386.2</ele>
        <time>2017-10-15T06:46:05.000Z</time>
      </trkpt>
      <trkpt lat="47.49744" lon="6.75753">
        <ele>386</ele>
        <time>2017-10-15T06:46:06.000Z</time>
      </trkpt>
      <trkpt lat="47.49747" lon="6.75752">
        <ele>385.8</ele>
        <time>2017-10-15T06:46:07.000Z</time>
      </trkpt>
      <trkpt lat="47.4975" lon="6.75752">
        <ele>385.6</ele>
        <time>2017-10-15T06:46:08.000Z</time>
      </trkpt>
      <trkpt lat="47.49752" lon="6.75751">
        <ele>385.4</ele>
        <time>2017-10-15T06:46:09.000Z</time>
      </trkpt>
      <trkpt lat="47.49754" lon="6.75749">
        <ele>385.3</ele>
        <time>2017-10-15T06:46:10.000Z</time>
      </trkpt>
      <trkpt lat="47.49759" lon="6.75747">
        <ele>385.2</ele>
        <time>2017-10-15T06:46:11.000Z</time>
      </trkpt>
      <trkpt lat="47.49763" lon="6.75745">
        <ele>385.3</ele>
        <time>2017-10-15T06:46:13.000Z</time>
      </trkpt>
      <trkpt lat="47.49765" lon="6.75743">
        <ele>385.2</ele>
        <time>2017-10-15T06:46:14.000Z</time>
      </trkpt>
      <trkpt lat="47.49768" lon="6.75743">
        <ele>385.1</ele>
        <time>2017-10-15T06:46:15.000Z</time>
      </trkpt>
      <trkpt lat="47.49772" lon="6.75743">
        <ele>385.1</ele>
        <time>2017-10-15T06:46:16.000Z</time>
      </trkpt>
      <trkpt lat="47.49775" lon="6.75742">
        <ele>385.1</ele>
        <time>2017-10-15T06:46:17.000Z</time>
      </trkpt>
      <trkpt lat="47.49778" lon="6.75742">
        <ele>384.9</ele>
        <time>2017-10-15T06:46:18.000Z</time>
      </trkpt>
      <trkpt lat="47.4978" lon="6.75741">
        <ele>384.8</ele>
        <time>2017-10-15T06:46:19.000Z</time>
      </trkpt>
      <trkpt lat="47.49782" lon="6.75739">
        <ele>384.8</ele>
        <time>2017-10-15T06:46:20.000Z</time>
      </trkpt>
      <trkpt lat="47.49785" lon="6.75736">
        <ele>384.7</ele>
        <time>2017-10-15T06:46:22.000Z</time>
      </trkpt>
      <trkpt lat="47.49787" lon="6.75735">
        <ele>384.8</ele>
        <time>2017-10-15T06:46:23.000Z</time>
      </trkpt>
      <trkpt lat="47.4979" lon="6.75733">
        <ele>384.7</ele>
        <time>2017-10-15T06:46:25.000Z</time>
      </trkpt>
      <trkpt lat="47.49798" lon="6.75729">
        <ele>385.1</ele>
        <time>2017-10-15T06:46:29.000Z</time>
      </trkpt>
      <trkpt lat="47.49801" lon="6.75729">
        <ele>385.5</ele>
        <time>2017-10-15T06:46:31.000Z</time>
      </trkpt>
      <trkpt lat="47.49803" lon="6.75729">
        <ele>385.8</ele>
        <time>2017-10-15T06:46:32.000Z</time>
      </trkpt>
      <trkpt lat="47.49806" lon="6.75729">
        <ele>386.3</ele>
        <time>2017-10-15T06:46:34.000Z</time>
      </trkpt>
      <trkpt lat="47.49807" lon="6.75729">
        <ele>386.5</ele>
        <time>2017-10-15T06:46:35.000Z</time>
      </trkpt>
      <trkpt lat="47.49811" lon="6.75729">
        <ele>387.1</ele>
        <time>2017-10-15T06:46:37.000Z</time>
      </trkpt>
      <trkpt lat="47.49813" lon="6.75729">
        <ele>387.4</ele>
        <time>2017-10-15T06:46:38.000Z</time>
      </trkpt>
      <trkpt lat="47.49817" lon="6.75727">
        <ele>387.6</ele>
        <time>2017-10-15T06:46:39.000Z</time>
      </trkpt>
      <trkpt lat="47.49819" lon="6.75727">
        <ele>387.9</ele>
        <time>2017-10-15T06:46:40.000Z</time>
      </trkpt>
      <trkpt lat="47.49823" lon="6.75726">
        <ele>388</ele>
        <time>2017-10-15T06:46:41.000Z</time>
      </trkpt>
      <trkpt lat="47.49825" lon="6.75726">
        <ele>388</ele>
        <time>2017-10-15T06:46:42.000Z</time>
      </trkpt>
      <trkpt lat="47.4983" lon="6.75725">
        <ele>388</ele>
        <time>2017-10-15T06:46:43.000Z</time>
      </trkpt>
      <trkpt lat="47.49833" lon="6.75725">
        <ele>388.1</ele>
        <time>2017-10-15T06:46:45.000Z</time>
      </trkpt>
      <trkpt lat="47.49834" lon="6.75724">
        <ele>388.1</ele>
        <time>2017-10-15T06:46:46.000Z</time>
      </trkpt>
      <trkpt lat="47.49837" lon="6.75722">
        <ele>388.3</ele>
        <time>2017-10-15T06:46:48.000Z</time>
      </trkpt>
      <trkpt lat="47.49839" lon="6.7572">
        <ele>388.3</ele>
        <time>2017-10-15T06:46:49.000Z</time>
      </trkpt>
      <trkpt lat="47.49842" lon="6.75718">
        <ele>388.6</ele>
        <time>2017-10-15T06:46:51.000Z</time>
      </trkpt>
      <trkpt lat="47.49848" lon="6.75714">
        <ele>388.8</ele>
        <time>2017-10-15T06:46:53.000Z</time>
      </trkpt>
      <trkpt lat="47.49851" lon="6.75713">
        <ele>389</ele>
        <time>2017-10-15T06:46:55.000Z</time>
      </trkpt>
      <trkpt lat="47.49853" lon="6.75713">
        <ele>389</ele>
        <time>2017-10-15T06:46:56.000Z</time>
      </trkpt>
      <trkpt lat="47.49857" lon="6.75712">
        <ele>389</ele>
        <time>2017-10-15T06:46:57.000Z</time>
      </trkpt>
      <trkpt lat="47.49863" lon="6.75712">
        <ele>388.7</ele>
        <time>2017-10-15T06:47:00.000Z</time>
      </trkpt>
      <trkpt lat="47.49865" lon="6.75712">
        <ele>388.6</ele>
        <time>2017-10-15T06:47:01.000Z</time>
      </trkpt>
      <trkpt lat="47.49869" lon="6.75713">
        <ele>388.3</ele>
        <time>2017-10-15T06:47:03.000Z</time>
      </trkpt>
      <trkpt lat="47.49878" lon="6.75711">
        <ele>388.2</ele>
        <time>2017-10-15T06:47:05.000Z</time>
      </trkpt>
      <trkpt lat="47.49882" lon="6.75712">
        <ele>388</ele>
        <time>2017-10-15T06:47:07.000Z</time>
      </trkpt>
      <trkpt lat="47.49884" lon="6.75713">
        <ele>387.9</ele>
        <time>2017-10-15T06:47:08.000Z</time>
      </trkpt>
      <trkpt lat="47.49886" lon="6.75714">
        <ele>387.8</ele>
        <time>2017-10-15T06:47:09.000Z</time>
      </trkpt>
      <trkpt lat="47.4989" lon="6.75716">
        <ele>387.7</ele>
        <time>2017-10-15T06:47:10.000Z</time>
      </trkpt>
      <trkpt lat="47.49892" lon="6.75716">
        <ele>387.6</ele>
        <time>2017-10-15T06:47:11.000Z</time>
      </trkpt>
      <trkpt lat="47.49894" lon="6.75717">
        <ele>387.6</ele>
        <time>2017-10-15T06:47:12.000Z</time>
      </trkpt>
      <trkpt lat="47.49898" lon="6.75717">
        <ele>387.6</ele>
        <time>2017-10-15T06:47:13.000Z</time>
      </trkpt>
      <trkpt lat="47.499" lon="6.75718">
        <ele>387.7</ele>
        <time>2017-10-15T06:47:14.000Z</time>
      </trkpt>
      <trkpt lat="47.49904" lon="6.7572">
        <ele>387.7</ele>
        <time>2017-10-15T06:47:16.000Z</time>
      </trkpt>
      <trkpt lat="47.49905" lon="6.75722">
        <ele>387.6</ele>
        <time>2017-10-15T06:47:17.000Z</time>
      </trkpt>
      <trkpt lat="47.49908" lon="6.75724">
        <ele>387.9</ele>
        <time>2017-10-15T06:47:19.000Z</time>
      </trkpt>
      <trkpt lat="47.49909" lon="6.75726">
        <ele>388.2</ele>
        <time>2017-10-15T06:47:20.000Z</time>
      </trkpt>
      <trkpt lat="47.49913" lon="6.75728">
        <ele>388.6</ele>
        <time>2017-10-15T06:47:21.000Z</time>
      </trkpt>
      <trkpt lat="47.49916" lon="6.7573">
        <ele>389.5</ele>
        <time>2017-10-15T06:47:23.000Z</time>
      </trkpt>
      <trkpt lat="47.4992" lon="6.75732">
        <ele>389.9</ele>
        <time>2017-10-15T06:47:24.000Z</time>
      </trkpt>
      <trkpt lat="47.49922" lon="6.75733">
        <ele>390.4</ele>
        <time>2017-10-15T06:47:25.000Z</time>
      </trkpt>
      <trkpt lat="47.49925" lon="6.75735">
        <ele>391.2</ele>
        <time>2017-10-15T06:47:27.000Z</time>
      </trkpt>
      <trkpt lat="47.49927" lon="6.75736">
        <ele>391.6</ele>
        <time>2017-10-15T06:47:28.000Z</time>
      </trkpt>
      <trkpt lat="47.4993" lon="6.75738">
        <ele>392.2</ele>
        <time>2017-10-15T06:47:30.000Z</time>
      </trkpt>
      <trkpt lat="47.49931" lon="6.75739">
        <ele>392.5</ele>
        <time>2017-10-15T06:47:31.000Z</time>
      </trkpt>
      <trkpt lat="47.49935" lon="6.7574">
        <ele>393.6</ele>
        <time>2017-10-15T06:47:34.000Z</time>
      </trkpt>
      <trkpt lat="47.49939" lon="6.75741">
        <ele>394</ele>
        <time>2017-10-15T06:47:35.000Z</time>
      </trkpt>
      <trkpt lat="47.49942" lon="6.75743">
        <ele>394.8</ele>
        <time>2017-10-15T06:47:37.000Z</time>
      </trkpt>
      <trkpt lat="47.49944" lon="6.75744">
        <ele>395.1</ele>
        <time>2017-10-15T06:47:38.000Z</time>
      </trkpt>
      <trkpt lat="47.49946" lon="6.75747">
        <ele>395.9</ele>
        <time>2017-10-15T06:47:40.000Z</time>
      </trkpt>
      <trkpt lat="47.4995" lon="6.75751">
        <ele>396.2</ele>
        <time>2017-10-15T06:47:41.000Z</time>
      </trkpt>
      <trkpt lat="47.49952" lon="6.75754">
        <ele>396.7</ele>
        <time>2017-10-15T06:47:43.000Z</time>
      </trkpt>
      <trkpt lat="47.49954" lon="6.75756">
        <ele>396.8</ele>
        <time>2017-10-15T06:47:44.000Z</time>
      </trkpt>
      <trkpt lat="47.49957" lon="6.7576">
        <ele>396.8</ele>
        <time>2017-10-15T06:47:47.000Z</time>
      </trkpt>
      <trkpt lat="47.49958" lon="6.75761">
        <ele>397</ele>
        <time>2017-10-15T06:47:48.000Z</time>
      </trkpt>
      <trkpt lat="47.4996" lon="6.75765">
        <ele>397.2</ele>
        <time>2017-10-15T06:47:50.000Z</time>
      </trkpt>
      <trkpt lat="47.4996" lon="6.75767">
        <ele>397.3</ele>
        <time>2017-10-15T06:47:51.000Z</time>
      </trkpt>
      <trkpt lat="47.4996" lon="6.75771">
        <ele>397.3</ele>
        <time>2017-10-15T06:47:52.000Z</time>
      </trkpt>
      <trkpt lat="47.4996" lon="6.75775">
        <ele>397.3</ele>
        <time>2017-10-15T06:47:53.000Z</time>
      </trkpt>
      <trkpt lat="47.49959" lon="6.75778">
        <ele>397.4</ele>
        <time>2017-10-15T06:47:54.000Z</time>
      </trkpt>
      <trkpt lat="47.49959" lon="6.75781">
        <ele>397.4</ele>
        <time>2017-10-15T06:47:55.000Z</time>
      </trkpt>
      <trkpt lat="47.49959" lon="6.75785">
        <ele>397.3</ele>
        <time>2017-10-15T06:47:56.000Z</time>
      </trkpt>
      <trkpt lat="47.49959" lon="6.75788">
        <ele>397.4</ele>
        <time>2017-10-15T06:47:57.000Z</time>
      </trkpt>
      <trkpt lat="47.49961" lon="6.75792">
        <ele>397.6</ele>
        <time>2017-10-15T06:47:58.000Z</time>
      </trkpt>
      <trkpt lat="47.49963" lon="6.75795">
        <ele>397.8</ele>
        <time>2017-10-15T06:47:59.000Z</time>
      </trkpt>
      <trkpt lat="47.49966" lon="6.75797">
        <ele>398.2</ele>
        <time>2017-10-15T06:48:01.000Z</time>
      </trkpt>
      <trkpt lat="47.49967" lon="6.75799">
        <ele>398.4</ele>
        <time>2017-10-15T06:48:02.000Z</time>
      </trkpt>
      <trkpt lat="47.4997" lon="6.75801">
        <ele>398.7</ele>
        <time>2017-10-15T06:48:04.000Z</time>
      </trkpt>
      <trkpt lat="47.49972" lon="6.75803">
        <ele>398.8</ele>
        <time>2017-10-15T06:48:05.000Z</time>
      </trkpt>
      <trkpt lat="47.49974" lon="6.75806">
        <ele>399.1</ele>
        <time>2017-10-15T06:48:07.000Z</time>
      </trkpt>
      <trkpt lat="47.49975" lon="6.75808">
        <ele>399.2</ele>
        <time>2017-10-15T06:48:08.000Z</time>
      </trkpt>
      <trkpt lat="47.49977" lon="6.75811">
        <ele>399.2</ele>
        <time>2017-10-15T06:48:10.000Z</time>
      </trkpt>
      <trkpt lat="47.49979" lon="6.75814">
        <ele>399.3</ele>
        <time>2017-10-15T06:48:11.000Z</time>
      </trkpt>
      <trkpt lat="47.49982" lon="6.75818">
        <ele>399.6</ele>
        <time>2017-10-15T06:48:13.000Z</time>
      </trkpt>
      <trkpt lat="47.49983" lon="6.7582">
        <ele>399.7</ele>
        <time>2017-10-15T06:48:14.000Z</time>
      </trkpt>
      <trkpt lat="47.49986" lon="6.75824">
        <ele>400.3</ele>
        <time>2017-10-15T06:48:17.000Z</time>
      </trkpt>
      <trkpt lat="47.49987" lon="6.75826">
        <ele>400.7</ele>
        <time>2017-10-15T06:48:18.000Z</time>
      </trkpt>
      <trkpt lat="47.4999" lon="6.7583">
        <ele>401</ele>
        <time>2017-10-15T06:48:20.000Z</time>
      </trkpt>
      <trkpt lat="47.49994" lon="6.75834">
        <ele>401</ele>
        <time>2017-10-15T06:48:21.000Z</time>
      </trkpt>
      <trkpt lat="47.49996" lon="6.75838">
        <ele>400.9</ele>
        <time>2017-10-15T06:48:23.000Z</time>
      </trkpt>
      <trkpt lat="47.49997" lon="6.7584">
        <ele>401</ele>
        <time>2017-10-15T06:48:24.000Z</time>
      </trkpt>
      <trkpt lat="47.49999" lon="6.75843">
        <ele>400.8</ele>
        <time>2017-10-15T06:48:26.000Z</time>
      </trkpt>
      <trkpt lat="47.50002" lon="6.75847">
        <ele>400.8</ele>
        <time>2017-10-15T06:48:27.000Z</time>
      </trkpt>
      <trkpt lat="47.50005" lon="6.7585">
        <ele>400.7</ele>
        <time>2017-10-15T06:48:28.000Z</time>
      </trkpt>
      <trkpt lat="47.50006" lon="6.75852">
        <ele>400.7</ele>
        <time>2017-10-15T06:48:29.000Z</time>
      </trkpt>
      <trkpt lat="47.50008" lon="6.75857">
        <ele>400.8</ele>
        <time>2017-10-15T06:48:31.000Z</time>
      </trkpt>
      <trkpt lat="47.50009" lon="6.75859">
        <ele>400.8</ele>
        <time>2017-10-15T06:48:32.000Z</time>
      </trkpt>
      <trkpt lat="47.5001" lon="6.75863">
        <ele>401</ele>
        <time>2017-10-15T06:48:34.000Z</time>
      </trkpt>
      <trkpt lat="47.50011" lon="6.75865">
        <ele>401.1</ele>
        <time>2017-10-15T06:48:35.000Z</time>
      </trkpt>
      <trkpt lat="47.50014" lon="6.7587">
        <ele>401.4</ele>
        <time>2017-10-15T06:48:37.000Z</time>
      </trkpt>
      <trkpt lat="47.50015" lon="6.75872">
        <ele>401.5</ele>
        <time>2017-10-15T06:48:38.000Z</time>
      </trkpt>
      <trkpt lat="47.50018" lon="6.75877">
        <ele>401.8</ele>
        <time>2017-10-15T06:48:40.000Z</time>
      </trkpt>
      <trkpt lat="47.50018" lon="6.7588">
        <ele>401.9</ele>
        <time>2017-10-15T06:48:41.000Z</time>
      </trkpt>
      <trkpt lat="47.5002" lon="6.75885">
        <ele>402.3</ele>
        <time>2017-10-15T06:48:43.000Z</time>
      </trkpt>
      <trkpt lat="47.5002" lon="6.75887">
        <ele>402.5</ele>
        <time>2017-10-15T06:48:44.000Z</time>
      </trkpt>
      <trkpt lat="47.5002" lon="6.75887">
        <ele>402.5</ele>
        <time>2017-10-15T06:48:45.000Z</time>
      </trkpt>
      <trkpt lat="47.50024" lon="6.75892">
        <ele>402.7</ele>
        <time>2017-10-15T06:48:46.000Z</time>
      </trkpt>
      <trkpt lat="47.50026" lon="6.75893">
        <ele>402.8</ele>
        <time>2017-10-15T06:48:47.000Z</time>
      </trkpt>
      <trkpt lat="47.50028" lon="6.75894">
        <ele>402.9</ele>
        <time>2017-10-15T06:48:48.000Z</time>
      </trkpt>
      <trkpt lat="47.5003" lon="6.75898">
        <ele>403.1</ele>
        <time>2017-10-15T06:48:50.000Z</time>
      </trkpt>
      <trkpt lat="47.50031" lon="6.759">
        <ele>403.2</ele>
        <time>2017-10-15T06:48:51.000Z</time>
      </trkpt>
      <trkpt lat="47.50034" lon="6.75904">
        <ele>403.4</ele>
        <time>2017-10-15T06:48:53.000Z</time>
      </trkpt>
      <trkpt lat="47.50035" lon="6.75906">
        <ele>403.4</ele>
        <time>2017-10-15T06:48:54.000Z</time>
      </trkpt>
      <trkpt lat="47.50037" lon="6.75908">
        <ele>403.4</ele>
        <time>2017-10-15T06:48:55.000Z</time>
      </trkpt>
      <trkpt lat="47.50038" lon="6.75911">
        <ele>403.4</ele>
        <time>2017-10-15T06:48:56.000Z</time>
      </trkpt>
      <trkpt lat="47.5004" lon="6.75917">
        <ele>403.4</ele>
        <time>2017-10-15T06:48:58.000Z</time>
      </trkpt>
      <trkpt lat="47.50041" lon="6.7592">
        <ele>403.5</ele>
        <time>2017-10-15T06:48:59.000Z</time>
      </trkpt>
      <trkpt lat="47.50043" lon="6.75923">
        <ele>403.5</ele>
        <time>2017-10-15T06:49:00.000Z</time>
      </trkpt>
      <trkpt lat="47.50047" lon="6.75927">
        <ele>403.6</ele>
        <time>2017-10-15T06:49:01.000Z</time>
      </trkpt>
      <trkpt lat="47.50048" lon="6.75929">
        <ele>403.8</ele>
        <time>2017-10-15T06:49:02.000Z</time>
      </trkpt>
      <trkpt lat="47.5005" lon="6.75932">
        <ele>404</ele>
        <time>2017-10-15T06:49:03.000Z</time>
      </trkpt>
      <trkpt lat="47.50052" lon="6.75935">
        <ele>404.2</ele>
        <time>2017-10-15T06:49:04.000Z</time>
      </trkpt>
      <trkpt lat="47.50053" lon="6.75937">
        <ele>404.6</ele>
        <time>2017-10-15T06:49:05.000Z</time>
      </trkpt>
      <trkpt lat="47.50055" lon="6.7594">
        <ele>404.8</ele>
        <time>2017-10-15T06:49:06.000Z</time>
      </trkpt>
      <trkpt lat="47.50058" lon="6.75944">
        <ele>405.1</ele>
        <time>2017-10-15T06:49:07.000Z</time>
      </trkpt>
      <trkpt lat="47.50059" lon="6.75947">
        <ele>405.4</ele>
        <time>2017-10-15T06:49:08.000Z</time>
      </trkpt>
      <trkpt lat="47.50061" lon="6.7595">
        <ele>405.7</ele>
        <time>2017-10-15T06:49:09.000Z</time>
      </trkpt>
      <trkpt lat="47.50062" lon="6.75953">
        <ele>405.9</ele>
        <time>2017-10-15T06:49:10.000Z</time>
      </trkpt>
      <trkpt lat="47.50063" lon="6.75955">
        <ele>406.2</ele>
        <time>2017-10-15T06:49:11.000Z</time>
      </trkpt>
      <trkpt lat="47.50065" lon="6.7596">
        <ele>406.6</ele>
        <time>2017-10-15T06:49:13.000Z</time>
      </trkpt>
      <trkpt lat="47.50067" lon="6.75962">
        <ele>406.9</ele>
        <time>2017-10-15T06:49:14.000Z</time>
      </trkpt>
      <trkpt lat="47.5007" lon="6.75964">
        <ele>407.2</ele>
        <time>2017-10-15T06:49:15.000Z</time>
      </trkpt>
      <trkpt lat="47.50073" lon="6.75966">
        <ele>407.6</ele>
        <time>2017-10-15T06:49:16.000Z</time>
      </trkpt>
      <trkpt lat="47.50075" lon="6.75968">
        <ele>407.8</ele>
        <time>2017-10-15T06:49:17.000Z</time>
      </trkpt>
      <trkpt lat="47.50077" lon="6.75971">
        <ele>407.9</ele>
        <time>2017-10-15T06:49:18.000Z</time>
      </trkpt>
      <trkpt lat="47.50079" lon="6.75973">
        <ele>408</ele>
        <time>2017-10-15T06:49:19.000Z</time>
      </trkpt>
      <trkpt lat="47.50083" lon="6.75977">
        <ele>408.1</ele>
        <time>2017-10-15T06:49:20.000Z</time>
      </trkpt>
      <trkpt lat="47.50085" lon="6.75979">
        <ele>408.3</ele>
        <time>2017-10-15T06:49:22.000Z</time>
      </trkpt>
      <trkpt lat="47.50087" lon="6.7598">
        <ele>408.4</ele>
        <time>2017-10-15T06:49:23.000Z</time>
      </trkpt>
      <trkpt lat="47.50087" lon="6.75983">
        <ele>408.3</ele>
        <time>2017-10-15T06:49:24.000Z</time>
      </trkpt>
      <trkpt lat="47.50088" lon="6.75988">
        <ele>408.3</ele>
        <time>2017-10-15T06:49:25.000Z</time>
      </trkpt>
      <trkpt lat="47.50088" lon="6.75995">
        <ele>408.4</ele>
        <time>2017-10-15T06:49:26.000Z</time>
      </trkpt>
      <trkpt lat="47.50087" lon="6.75998">
        <ele>408.5</ele>
        <time>2017-10-15T06:49:27.000Z</time>
      </trkpt>
      <trkpt lat="47.50087" lon="6.76001">
        <ele>408.7</ele>
        <time>2017-10-15T06:49:28.000Z</time>
      </trkpt>
      <trkpt lat="47.50088" lon="6.76005">
        <ele>408.8</ele>
        <time>2017-10-15T06:49:29.000Z</time>
      </trkpt>
      <trkpt lat="47.50088" lon="6.76009">
        <ele>409</ele>
        <time>2017-10-15T06:49:30.000Z</time>
      </trkpt>
      <trkpt lat="47.50087" lon="6.76016">
        <ele>409.1</ele>
        <time>2017-10-15T06:49:31.000Z</time>
      </trkpt>
      <trkpt lat="47.50087" lon="6.7602">
        <ele>409.1</ele>
        <time>2017-10-15T06:49:32.000Z</time>
      </trkpt>
      <trkpt lat="47.50088" lon="6.76023">
        <ele>409.1</ele>
        <time>2017-10-15T06:49:33.000Z</time>
      </trkpt>
      <trkpt lat="47.50088" lon="6.76027">
        <ele>409.1</ele>
        <time>2017-10-15T06:49:34.000Z</time>
      </trkpt>
      <trkpt lat="47.50088" lon="6.76031">
        <ele>409.1</ele>
        <time>2017-10-15T06:49:35.000Z</time>
      </trkpt>
      <trkpt lat="47.50089" lon="6.76036">
        <ele>409.2</ele>
        <time>2017-10-15T06:49:36.000Z</time>
      </trkpt>
      <trkpt lat="47.5009" lon="6.7604">
        <ele>409.3</ele>
        <time>2017-10-15T06:49:37.000Z</time>
      </trkpt>
      <trkpt lat="47.5009" lon="6.76043">
        <ele>409.5</ele>
        <time>2017-10-15T06:49:38.000Z</time>
      </trkpt>
      <trkpt lat="47.50091" lon="6.76046">
        <ele>409.7</ele>
        <time>2017-10-15T06:49:39.000Z</time>
      </trkpt>
      <trkpt lat="47.50091" lon="6.7605">
        <ele>409.7</ele>
        <time>2017-10-15T06:49:40.000Z</time>
      </trkpt>
      <trkpt lat="47.50092" lon="6.76055">
        <ele>409.8</ele>
        <time>2017-10-15T06:49:41.000Z</time>
      </trkpt>
      <trkpt lat="47.50095" lon="6.7606">
        <ele>409.9</ele>
        <time>2017-10-15T06:49:42.000Z</time>
      </trkpt>
      <trkpt lat="47.50097" lon="6.76064">
        <ele>409.9</ele>
        <time>2017-10-15T06:49:44.000Z</time>
      </trkpt>
      <trkpt lat="47.501" lon="6.76068">
        <ele>410</ele>
        <time>2017-10-15T06:49:45.000Z</time>
      </trkpt>
      <trkpt lat="47.50102" lon="6.76073">
        <ele>410</ele>
        <time>2017-10-15T06:49:48.000Z</time>
      </trkpt>
      <trkpt lat="47.50102" lon="6.76076">
        <ele>410</ele>
        <time>2017-10-15T06:49:49.000Z</time>
      </trkpt>
      <trkpt lat="47.50102" lon="6.76079">
        <ele>410</ele>
        <time>2017-10-15T06:49:50.000Z</time>
      </trkpt>
      <trkpt lat="47.50102" lon="6.76083">
        <ele>410</ele>
        <time>2017-10-15T06:49:51.000Z</time>
      </trkpt>
      <trkpt lat="47.50103" lon="6.76087">
        <ele>410</ele>
        <time>2017-10-15T06:49:52.000Z</time>
      </trkpt>
      <trkpt lat="47.50103" lon="6.76092">
        <ele>409.9</ele>
        <time>2017-10-15T06:49:53.000Z</time>
      </trkpt>
      <trkpt lat="47.50105" lon="6.76098">
        <ele>410</ele>
        <time>2017-10-15T06:49:54.000Z</time>
      </trkpt>
      <trkpt lat="47.50106" lon="6.76101">
        <ele>410</ele>
        <time>2017-10-15T06:49:55.000Z</time>
      </trkpt>
      <trkpt lat="47.50107" lon="6.76105">
        <ele>410.1</ele>
        <time>2017-10-15T06:49:56.000Z</time>
      </trkpt>
      <trkpt lat="47.50107" lon="6.76111">
        <ele>410.4</ele>
        <time>2017-10-15T06:49:58.000Z</time>
      </trkpt>
      <trkpt lat="47.50108" lon="6.76114">
        <ele>410.5</ele>
        <time>2017-10-15T06:49:59.000Z</time>
      </trkpt>
      <trkpt lat="47.50108" lon="6.7612">
        <ele>410.9</ele>
        <time>2017-10-15T06:50:01.000Z</time>
      </trkpt>
      <trkpt lat="47.5011" lon="6.76123">
        <ele>411.1</ele>
        <time>2017-10-15T06:50:02.000Z</time>
      </trkpt>
      <trkpt lat="47.50112" lon="6.76126">
        <ele>411.3</ele>
        <time>2017-10-15T06:50:03.000Z</time>
      </trkpt>
      <trkpt lat="47.50113" lon="6.76129">
        <ele>411.3</ele>
        <time>2017-10-15T06:50:04.000Z</time>
      </trkpt>
      <trkpt lat="47.50116" lon="6.76134">
        <ele>411.4</ele>
        <time>2017-10-15T06:50:05.000Z</time>
      </trkpt>
      <trkpt lat="47.50118" lon="6.76136">
        <ele>411.6</ele>
        <time>2017-10-15T06:50:06.000Z</time>
      </trkpt>
      <trkpt lat="47.50119" lon="6.76141">
        <ele>411.6</ele>
        <time>2017-10-15T06:50:07.000Z</time>
      </trkpt>
      <trkpt lat="47.5012" lon="6.76145">
        <ele>411.7</ele>
        <time>2017-10-15T06:50:08.000Z</time>
      </trkpt>
      <trkpt lat="47.50121" lon="6.76149">
        <ele>411.8</ele>
        <time>2017-10-15T06:50:09.000Z</time>
      </trkpt>
      <trkpt lat="47.50122" lon="6.76153">
        <ele>411.9</ele>
        <time>2017-10-15T06:50:10.000Z</time>
      </trkpt>
      <trkpt lat="47.50123" lon="6.76156">
        <ele>412.1</ele>
        <time>2017-10-15T06:50:11.000Z</time>
      </trkpt>
      <trkpt lat="47.50124" lon="6.7616">
        <ele>412.3</ele>
        <time>2017-10-15T06:50:12.000Z</time>
      </trkpt>
      <trkpt lat="47.50124" lon="6.76164">
        <ele>412.5</ele>
        <time>2017-10-15T06:50:13.000Z</time>
      </trkpt>
      <trkpt lat="47.50126" lon="6.7617">
        <ele>413</ele>
        <time>2017-10-15T06:50:15.000Z</time>
      </trkpt>
      <trkpt lat="47.50126" lon="6.76172">
        <ele>413.3</ele>
        <time>2017-10-15T06:50:16.000Z</time>
      </trkpt>
      <trkpt lat="47.50128" lon="6.76177">
        <ele>413.5</ele>
        <time>2017-10-15T06:50:18.000Z</time>
      </trkpt>
      <trkpt lat="47.50129" lon="6.76178">
        <ele>413.5</ele>
        <time>2017-10-15T06:50:19.000Z</time>
      </trkpt>
      <trkpt lat="47.50129" lon="6.76184">
        <ele>413.5</ele>
        <time>2017-10-15T06:50:21.000Z</time>
      </trkpt>
      <trkpt lat="47.5013" lon="6.76191">
        <ele>413.5</ele>
        <time>2017-10-15T06:50:22.000Z</time>
      </trkpt>
      <trkpt lat="47.50132" lon="6.76197">
        <ele>413.7</ele>
        <time>2017-10-15T06:50:24.000Z</time>
      </trkpt>
      <trkpt lat="47.50133" lon="6.762">
        <ele>413.9</ele>
        <time>2017-10-15T06:50:25.000Z</time>
      </trkpt>
      <trkpt lat="47.50134" lon="6.76206">
        <ele>414</ele>
        <time>2017-10-15T06:50:26.000Z</time>
      </trkpt>
      <trkpt lat="47.50134" lon="6.76209">
        <ele>414.1</ele>
        <time>2017-10-15T06:50:27.000Z</time>
      </trkpt>
      <trkpt lat="47.50135" lon="6.76212">
        <ele>414.1</ele>
        <time>2017-10-15T06:50:28.000Z</time>
      </trkpt>
      <trkpt lat="47.50137" lon="6.76219">
        <ele>414.1</ele>
        <time>2017-10-15T06:50:29.000Z</time>
      </trkpt>
      <trkpt lat="47.50138" lon="6.76222">
        <ele>414.2</ele>
        <time>2017-10-15T06:50:30.000Z</time>
      </trkpt>
      <trkpt lat="47.50137" lon="6.76229">
        <ele>414.2</ele>
        <time>2017-10-15T06:50:31.000Z</time>
      </trkpt>
      <trkpt lat="47.50137" lon="6.76232">
        <ele>414.2</ele>
        <time>2017-10-15T06:50:32.000Z</time>
      </trkpt>
      <trkpt lat="47.50138" lon="6.76236">
        <ele>414.2</ele>
        <time>2017-10-15T06:50:33.000Z</time>
      </trkpt>
      <trkpt lat="47.50139" lon="6.7624">
        <ele>414.3</ele>
        <time>2017-10-15T06:50:34.000Z</time>
      </trkpt>
      <trkpt lat="47.50139" lon="6.76244">
        <ele>414.3</ele>
        <time>2017-10-15T06:50:35.000Z</time>
      </trkpt>
      <trkpt lat="47.5014" lon="6.76248">
        <ele>414.3</ele>
        <time>2017-10-15T06:50:36.000Z</time>
      </trkpt>
      <trkpt lat="47.50141" lon="6.76251">
        <ele>414.3</ele>
        <time>2017-10-15T06:50:37.000Z</time>
      </trkpt>
      <trkpt lat="47.50141" lon="6.76255">
        <ele>414.4</ele>
        <time>2017-10-15T06:50:38.000Z</time>
      </trkpt>
      <trkpt lat="47.50142" lon="6.76259">
        <ele>414.4</ele>
        <time>2017-10-15T06:50:39.000Z</time>
      </trkpt>
      <trkpt lat="47.50143" lon="6.76262">
        <ele>414.5</ele>
        <time>2017-10-15T06:50:40.000Z</time>
      </trkpt>
      <trkpt lat="47.50144" lon="6.76266">
        <ele>414.5</ele>
        <time>2017-10-15T06:50:41.000Z</time>
      </trkpt>
      <trkpt lat="47.50145" lon="6.7627">
        <ele>414.4</ele>
        <time>2017-10-15T06:50:42.000Z</time>
      </trkpt>
      <trkpt lat="47.50146" lon="6.76273">
        <ele>414.5</ele>
        <time>2017-10-15T06:50:43.000Z</time>
      </trkpt>
      <trkpt lat="47.50148" lon="6.76277">
        <ele>414.5</ele>
        <time>2017-10-15T06:50:44.000Z</time>
      </trkpt>
      <trkpt lat="47.50149" lon="6.7628">
        <ele>414.5</ele>
        <time>2017-10-15T06:50:45.000Z</time>
      </trkpt>
      <trkpt lat="47.50151" lon="6.76283">
        <ele>414.7</ele>
        <time>2017-10-15T06:50:46.000Z</time>
      </trkpt>
      <trkpt lat="47.50152" lon="6.76286">
        <ele>414.8</ele>
        <time>2017-10-15T06:50:47.000Z</time>
      </trkpt>
      <trkpt lat="47.50153" lon="6.76292">
        <ele>414.9</ele>
        <time>2017-10-15T06:50:49.000Z</time>
      </trkpt>
      <trkpt lat="47.50154" lon="6.76296">
        <ele>414.9</ele>
        <time>2017-10-15T06:50:50.000Z</time>
      </trkpt>
      <trkpt lat="47.50154" lon="6.76299">
        <ele>414.9</ele>
        <time>2017-10-15T06:50:51.000Z</time>
      </trkpt>
      <trkpt lat="47.50155" lon="6.76303">
        <ele>415</ele>
        <time>2017-10-15T06:50:52.000Z</time>
      </trkpt>
      <trkpt lat="47.50155" lon="6.76306">
        <ele>415.1</ele>
        <time>2017-10-15T06:50:53.000Z</time>
      </trkpt>
      <trkpt lat="47.50156" lon="6.76309">
        <ele>415.1</ele>
        <time>2017-10-15T06:50:54.000Z</time>
      </trkpt>
      <trkpt lat="47.50157" lon="6.76313">
        <ele>415.3</ele>
        <time>2017-10-15T06:50:55.000Z</time>
      </trkpt>
      <trkpt lat="47.50159" lon="6.76319">
        <ele>415.4</ele>
        <time>2017-10-15T06:50:56.000Z</time>
      </trkpt>
      <trkpt lat="47.50159" lon="6.76322">
        <ele>415.5</ele>
        <time>2017-10-15T06:50:57.000Z</time>
      </trkpt>
      <trkpt lat="47.5016" lon="6.76326">
        <ele>415.6</ele>
        <time>2017-10-15T06:50:58.000Z</time>
      </trkpt>
      <trkpt lat="47.50161" lon="6.76334">
        <ele>415.7</ele>
        <time>2017-10-15T06:50:59.000Z</time>
      </trkpt>
      <trkpt lat="47.50161" lon="6.76337">
        <ele>415.8</ele>
        <time>2017-10-15T06:51:00.000Z</time>
      </trkpt>
      <trkpt lat="47.50162" lon="6.76341">
        <ele>415.9</ele>
        <time>2017-10-15T06:51:01.000Z</time>
      </trkpt>
      <trkpt lat="47.50164" lon="6.76344">
        <ele>416</ele>
        <time>2017-10-15T06:51:02.000Z</time>
      </trkpt>
      <trkpt lat="47.50166" lon="6.76348">
        <ele>416</ele>
        <time>2017-10-15T06:51:03.000Z</time>
      </trkpt>
      <trkpt lat="47.50167" lon="6.76352">
        <ele>416.1</ele>
        <time>2017-10-15T06:51:04.000Z</time>
      </trkpt>
      <trkpt lat="47.50167" lon="6.76357">
        <ele>416.2</ele>
        <time>2017-10-15T06:51:05.000Z</time>
      </trkpt>
      <trkpt lat="47.50168" lon="6.76363">
        <ele>416.4</ele>
        <time>2017-10-15T06:51:06.000Z</time>
      </trkpt>
      <trkpt lat="47.50169" lon="6.76367">
        <ele>416.5</ele>
        <time>2017-10-15T06:51:07.000Z</time>
      </trkpt>
      <trkpt lat="47.50171" lon="6.76372">
        <ele>416.5</ele>
        <time>2017-10-15T06:51:08.000Z</time>
      </trkpt>
      <trkpt lat="47.50173" lon="6.76376">
        <ele>416.4</ele>
        <time>2017-10-15T06:51:09.000Z</time>
      </trkpt>
      <trkpt lat="47.50175" lon="6.7638">
        <ele>416.5</ele>
        <time>2017-10-15T06:51:10.000Z</time>
      </trkpt>
      <trkpt lat="47.50176" lon="6.76383">
        <ele>416.6</ele>
        <time>2017-10-15T06:51:11.000Z</time>
      </trkpt>
      <trkpt lat="47.50178" lon="6.76386">
        <ele>416.6</ele>
        <time>2017-10-15T06:51:12.000Z</time>
      </trkpt>
      <trkpt lat="47.50178" lon="6.76393">
        <ele>416.8</ele>
        <time>2017-10-15T06:51:13.000Z</time>
      </trkpt>
      <trkpt lat="47.50178" lon="6.76401">
        <ele>417</ele>
        <time>2017-10-15T06:51:14.000Z</time>
      </trkpt>
      <trkpt lat="47.5018" lon="6.76405">
        <ele>417.1</ele>
        <time>2017-10-15T06:51:16.000Z</time>
      </trkpt>
      <trkpt lat="47.50181" lon="6.76408">
        <ele>417.1</ele>
        <time>2017-10-15T06:51:17.000Z</time>
      </trkpt>
      <trkpt lat="47.50182" lon="6.7641">
        <ele>417.1</ele>
        <time>2017-10-15T06:51:18.000Z</time>
      </trkpt>
      <trkpt lat="47.50183" lon="6.76416">
        <ele>417.2</ele>
        <time>2017-10-15T06:51:19.000Z</time>
      </trkpt>
      <trkpt lat="47.50184" lon="6.76419">
        <ele>417.3</ele>
        <time>2017-10-15T06:51:20.000Z</time>
      </trkpt>
      <trkpt lat="47.50186" lon="6.76425">
        <ele>417.4</ele>
        <time>2017-10-15T06:51:21.000Z</time>
      </trkpt>
      <trkpt lat="47.5019" lon="6.76429">
        <ele>417.4</ele>
        <time>2017-10-15T06:51:23.000Z</time>
      </trkpt>
      <trkpt lat="47.50191" lon="6.76431">
        <ele>417.4</ele>
        <time>2017-10-15T06:51:24.000Z</time>
      </trkpt>
      <trkpt lat="47.50191" lon="6.76436">
        <ele>417.3</ele>
        <time>2017-10-15T06:51:25.000Z</time>
      </trkpt>
      <trkpt lat="47.50192" lon="6.76441">
        <ele>417.4</ele>
        <time>2017-10-15T06:51:26.000Z</time>
      </trkpt>
      <trkpt lat="47.50193" lon="6.76447">
        <ele>417.5</ele>
        <time>2017-10-15T06:51:27.000Z</time>
      </trkpt>
      <trkpt lat="47.50195" lon="6.76454">
        <ele>417.7</ele>
        <time>2017-10-15T06:51:28.000Z</time>
      </trkpt>
      <trkpt lat="47.50195" lon="6.76458">
        <ele>417.9</ele>
        <time>2017-10-15T06:51:29.000Z</time>
      </trkpt>
      <trkpt lat="47.50195" lon="6.76462">
        <ele>418</ele>
        <time>2017-10-15T06:51:30.000Z</time>
      </trkpt>
      <trkpt lat="47.50195" lon="6.76466">
        <ele>418.1</ele>
        <time>2017-10-15T06:51:31.000Z</time>
      </trkpt>
      <trkpt lat="47.50196" lon="6.76469">
        <ele>418.2</ele>
        <time>2017-10-15T06:51:32.000Z</time>
      </trkpt>
      <trkpt lat="47.50196" lon="6.76473">
        <ele>418.4</ele>
        <time>2017-10-15T06:51:33.000Z</time>
      </trkpt>
      <trkpt lat="47.50197" lon="6.76477">
        <ele>418.4</ele>
        <time>2017-10-15T06:51:34.000Z</time>
      </trkpt>
      <trkpt lat="47.50198" lon="6.76481">
        <ele>418.5</ele>
        <time>2017-10-15T06:51:35.000Z</time>
      </trkpt>
      <trkpt lat="47.50199" lon="6.76484">
        <ele>418.6</ele>
        <time>2017-10-15T06:51:36.000Z</time>
      </trkpt>
      <trkpt lat="47.50201" lon="6.76488">
        <ele>418.6</ele>
        <time>2017-10-15T06:51:38.000Z</time>
      </trkpt>
      <trkpt lat="47.50202" lon="6.76489">
        <ele>418.6</ele>
        <time>2017-10-15T06:51:39.000Z</time>
      </trkpt>
      <trkpt lat="47.50204" lon="6.76494">
        <ele>418.6</ele>
        <time>2017-10-15T06:51:41.000Z</time>
      </trkpt>
      <trkpt lat="47.50205" lon="6.76497">
        <ele>418.5</ele>
        <time>2017-10-15T06:51:42.000Z</time>
      </trkpt>
      <trkpt lat="47.50206" lon="6.76499">
        <ele>418.4</ele>
        <time>2017-10-15T06:51:43.000Z</time>
      </trkpt>
      <trkpt lat="47.50208" lon="6.76502">
        <ele>418.3</ele>
        <time>2017-10-15T06:51:44.000Z</time>
      </trkpt>
      <trkpt lat="47.50208" lon="6.76507">
        <ele>418.2</ele>
        <time>2017-10-15T06:51:45.000Z</time>
      </trkpt>
      <trkpt lat="47.5021" lon="6.76513">
        <ele>418.2</ele>
        <time>2017-10-15T06:51:46.000Z</time>
      </trkpt>
      <trkpt lat="47.50211" lon="6.76517">
        <ele>418.2</ele>
        <time>2017-10-15T06:51:47.000Z</time>
      </trkpt>
      <trkpt lat="47.50212" lon="6.7652">
        <ele>418.2</ele>
        <time>2017-10-15T06:51:48.000Z</time>
      </trkpt>
      <trkpt lat="47.50213" lon="6.76523">
        <ele>418.1</ele>
        <time>2017-10-15T06:51:49.000Z</time>
      </trkpt>
      <trkpt lat="47.50215" lon="6.76529">
        <ele>418.1</ele>
        <time>2017-10-15T06:51:50.000Z</time>
      </trkpt>
      <trkpt lat="47.50216" lon="6.76535">
        <ele>417.8</ele>
        <time>2017-10-15T06:51:53.000Z</time>
      </trkpt>
      <trkpt lat="47.50217" lon="6.76535">
        <ele>417.6</ele>
        <time>2017-10-15T06:51:54.000Z</time>
      </trkpt>
      <trkpt lat="47.50219" lon="6.76537">
        <ele>425.5</ele>
        <time>2017-10-15T06:53:02.000Z</time>
      </trkpt>
      <trkpt lat="47.50223" lon="6.76539">
        <ele>426.1</ele>
        <time>2017-10-15T06:53:03.000Z</time>
      </trkpt>
      <trkpt lat="47.50226" lon="6.7654">
        <ele>426.3</ele>
        <time>2017-10-15T06:53:06.000Z</time>
      </trkpt>
      <trkpt lat="47.50229" lon="6.7654">
        <ele>426.4</ele>
        <time>2017-10-15T06:53:07.000Z</time>
      </trkpt>
      <trkpt lat="47.50231" lon="6.76541">
        <ele>426.7</ele>
        <time>2017-10-15T06:53:12.000Z</time>
      </trkpt>
      <trkpt lat="47.50236" lon="6.7654">
        <ele>428.1</ele>
        <time>2017-10-15T06:53:15.000Z</time>
      </trkpt>
      <trkpt lat="47.50237" lon="6.76539">
        <ele>428.6</ele>
        <time>2017-10-15T06:53:16.000Z</time>
      </trkpt>
      <trkpt lat="47.50242" lon="6.76537">
        <ele>429.7</ele>
        <time>2017-10-15T06:53:18.000Z</time>
      </trkpt>
      <trkpt lat="47.50248" lon="6.76534">
        <ele>430</ele>
        <time>2017-10-15T06:53:19.000Z</time>
      </trkpt>
      <trkpt lat="47.50255" lon="6.76533">
        <ele>434.4</ele>
        <time>2017-10-15T06:53:20.000Z</time>
      </trkpt>
      <trkpt lat="47.50263" lon="6.76532">
        <ele>437.4</ele>
        <time>2017-10-15T06:53:21.000Z</time>
      </trkpt>
      <trkpt lat="47.5027" lon="6.76531">
        <ele>437.6</ele>
        <time>2017-10-15T06:53:22.000Z</time>
      </trkpt>
      <trkpt lat="47.50277" lon="6.76531">
        <ele>438</ele>
        <time>2017-10-15T06:53:23.000Z</time>
      </trkpt>
      <trkpt lat="47.50285" lon="6.76529">
        <ele>437</ele>
        <time>2017-10-15T06:53:24.000Z</time>
      </trkpt>
      <trkpt lat="47.50293" lon="6.76527">
        <ele>435.7</ele>
        <time>2017-10-15T06:53:25.000Z</time>
      </trkpt>
      <trkpt lat="47.50296" lon="6.76524">
        <ele>435.2</ele>
        <time>2017-10-15T06:53:26.000Z</time>
      </trkpt>
      <trkpt lat="47.50298" lon="6.76516">
        <ele>435.1</ele>
        <time>2017-10-15T06:53:27.000Z</time>
      </trkpt>
      <trkpt lat="47.50301" lon="6.76507">
        <ele>435</ele>
        <time>2017-10-15T06:53:28.000Z</time>
      </trkpt>
      <trkpt lat="47.50305" lon="6.765">
        <ele>434.8</ele>
        <time>2017-10-15T06:53:29.000Z</time>
      </trkpt>
      <trkpt lat="47.50307" lon="6.76493">
        <ele>433.1</ele>
        <time>2017-10-15T06:53:30.000Z</time>
      </trkpt>
      <trkpt lat="47.50308" lon="6.76485">
        <ele>431.6</ele>
        <time>2017-10-15T06:53:31.000Z</time>
      </trkpt>
      <trkpt lat="47.5031" lon="6.76478">
        <ele>430.4</ele>
        <time>2017-10-15T06:53:32.000Z</time>
      </trkpt>
      <trkpt lat="47.50313" lon="6.76472">
        <ele>430.3</ele>
        <time>2017-10-15T06:53:33.000Z</time>
      </trkpt>
      <trkpt lat="47.50318" lon="6.76462">
        <ele>431.3</ele>
        <time>2017-10-15T06:53:34.000Z</time>
      </trkpt>
      <trkpt lat="47.50323" lon="6.76456">
        <ele>431.8</ele>
        <time>2017-10-15T06:53:35.000Z</time>
      </trkpt>
      <trkpt lat="47.50328" lon="6.76446">
        <ele>432.4</ele>
        <time>2017-10-15T06:53:36.000Z</time>
      </trkpt>
      <trkpt lat="47.50333" lon="6.76437">
        <ele>432.1</ele>
        <time>2017-10-15T06:53:37.000Z</time>
      </trkpt>
      <trkpt lat="47.50338" lon="6.76428">
        <ele>431.7</ele>
        <time>2017-10-15T06:53:38.000Z</time>
      </trkpt>
      <trkpt lat="47.50343" lon="6.76419">
        <ele>430.7</ele>
        <time>2017-10-15T06:53:39.000Z</time>
      </trkpt>
      <trkpt lat="47.50346" lon="6.76416">
        <ele>430.6</ele>
        <time>2017-10-15T06:53:40.000Z</time>
      </trkpt>
      <trkpt lat="47.5035" lon="6.76412">
        <ele>430.6</ele>
        <time>2017-10-15T06:53:41.000Z</time>
      </trkpt>
      <trkpt lat="47.50353" lon="6.7641">
        <ele>430.5</ele>
        <time>2017-10-15T06:53:42.000Z</time>
      </trkpt>
      <trkpt lat="47.50355" lon="6.76403">
        <ele>430.4</ele>
        <time>2017-10-15T06:53:43.000Z</time>
      </trkpt>
      <trkpt lat="47.50357" lon="6.76396">
        <ele>430.3</ele>
        <time>2017-10-15T06:53:44.000Z</time>
      </trkpt>
      <trkpt lat="47.5036" lon="6.76387">
        <ele>430.2</ele>
        <time>2017-10-15T06:53:45.000Z</time>
      </trkpt>
      <trkpt lat="47.50364" lon="6.76378">
        <ele>430.2</ele>
        <time>2017-10-15T06:53:46.000Z</time>
      </trkpt>
      <trkpt lat="47.50366" lon="6.76374">
        <ele>430.1</ele>
        <time>2017-10-15T06:53:47.000Z</time>
      </trkpt>
      <trkpt lat="47.50368" lon="6.76371">
        <ele>430.1</ele>
        <time>2017-10-15T06:53:48.000Z</time>
      </trkpt>
      <trkpt lat="47.50371" lon="6.76369">
        <ele>430.1</ele>
        <time>2017-10-15T06:53:49.000Z</time>
      </trkpt>
      <trkpt lat="47.50375" lon="6.76363">
        <ele>430.2</ele>
        <time>2017-10-15T06:53:50.000Z</time>
      </trkpt>
      <trkpt lat="47.50377" lon="6.76356">
        <ele>430.2</ele>
        <time>2017-10-15T06:53:51.000Z</time>
      </trkpt>
      <trkpt lat="47.5038" lon="6.7635">
        <ele>430.3</ele>
        <time>2017-10-15T06:53:53.000Z</time>
      </trkpt>
      <trkpt lat="47.50382" lon="6.76347">
        <ele>430.3</ele>
        <time>2017-10-15T06:53:54.000Z</time>
      </trkpt>
      <trkpt lat="47.50385" lon="6.76343">
        <ele>430.4</ele>
        <time>2017-10-15T06:53:55.000Z</time>
      </trkpt>
      <trkpt lat="47.5039" lon="6.76336">
        <ele>430.5</ele>
        <time>2017-10-15T06:53:56.000Z</time>
      </trkpt>
      <trkpt lat="47.50393" lon="6.76331">
        <ele>430.6</ele>
        <time>2017-10-15T06:53:57.000Z</time>
      </trkpt>
      <trkpt lat="47.50395" lon="6.7633">
        <ele>430.7</ele>
        <time>2017-10-15T06:53:58.000Z</time>
      </trkpt>
      <trkpt lat="47.50397" lon="6.76326">
        <ele>430.8</ele>
        <time>2017-10-15T06:54:00.000Z</time>
      </trkpt>
      <trkpt lat="47.504" lon="6.76321">
        <ele>431</ele>
        <time>2017-10-15T06:54:02.000Z</time>
      </trkpt>
      <trkpt lat="47.50402" lon="6.76317">
        <ele>430.9</ele>
        <time>2017-10-15T06:54:03.000Z</time>
      </trkpt>
      <trkpt lat="47.50404" lon="6.76314">
        <ele>431</ele>
        <time>2017-10-15T06:54:04.000Z</time>
      </trkpt>
      <trkpt lat="47.50404" lon="6.7631">
        <ele>431</ele>
        <time>2017-10-15T06:54:05.000Z</time>
      </trkpt>
      <trkpt lat="47.50406" lon="6.76303">
        <ele>431.1</ele>
        <time>2017-10-15T06:54:06.000Z</time>
      </trkpt>
      <trkpt lat="47.50407" lon="6.76299">
        <ele>431.1</ele>
        <time>2017-10-15T06:54:07.000Z</time>
      </trkpt>
      <trkpt lat="47.50409" lon="6.76296">
        <ele>431.2</ele>
        <time>2017-10-15T06:54:08.000Z</time>
      </trkpt>
      <trkpt lat="47.50411" lon="6.76293">
        <ele>431.2</ele>
        <time>2017-10-15T06:54:09.000Z</time>
      </trkpt>
      <trkpt lat="47.50415" lon="6.76289">
        <ele>431.4</ele>
        <time>2017-10-15T06:54:11.000Z</time>
      </trkpt>
      <trkpt lat="47.50419" lon="6.76284">
        <ele>431.4</ele>
        <time>2017-10-15T06:54:13.000Z</time>
      </trkpt>
      <trkpt lat="47.50422" lon="6.76277">
        <ele>431.6</ele>
        <time>2017-10-15T06:54:14.000Z</time>
      </trkpt>
      <trkpt lat="47.50423" lon="6.76273">
        <ele>431.7</ele>
        <time>2017-10-15T06:54:15.000Z</time>
      </trkpt>
      <trkpt lat="47.50424" lon="6.7627">
        <ele>431.7</ele>
        <time>2017-10-15T06:54:16.000Z</time>
      </trkpt>
      <trkpt lat="47.50426" lon="6.76266">
        <ele>431.8</ele>
        <time>2017-10-15T06:54:17.000Z</time>
      </trkpt>
      <trkpt lat="47.50427" lon="6.76264">
        <ele>431.8</ele>
        <time>2017-10-15T06:54:18.000Z</time>
      </trkpt>
      <trkpt lat="47.5043" lon="6.76259">
        <ele>431.9</ele>
        <time>2017-10-15T06:54:20.000Z</time>
      </trkpt>
      <trkpt lat="47.50431" lon="6.76254">
        <ele>431.9</ele>
        <time>2017-10-15T06:54:21.000Z</time>
      </trkpt>
      <trkpt lat="47.50432" lon="6.76249">
        <ele>431.7</ele>
        <time>2017-10-15T06:54:22.000Z</time>
      </trkpt>
      <trkpt lat="47.50432" lon="6.76243">
        <ele>431.6</ele>
        <time>2017-10-15T06:54:23.000Z</time>
      </trkpt>
      <trkpt lat="47.50434" lon="6.76237">
        <ele>431.4</ele>
        <time>2017-10-15T06:54:24.000Z</time>
      </trkpt>
      <trkpt lat="47.50437" lon="6.76231">
        <ele>431.3</ele>
        <time>2017-10-15T06:54:25.000Z</time>
      </trkpt>
      <trkpt lat="47.50441" lon="6.76228">
        <ele>431.1</ele>
        <time>2017-10-15T06:54:26.000Z</time>
      </trkpt>
      <trkpt lat="47.50444" lon="6.76225">
        <ele>431</ele>
        <time>2017-10-15T06:54:27.000Z</time>
      </trkpt>
      <trkpt lat="47.50448" lon="6.76222">
        <ele>430.6</ele>
        <time>2017-10-15T06:54:30.000Z</time>
      </trkpt>
      <trkpt lat="47.50448" lon="6.76221">
        <ele>430.5</ele>
        <time>2017-10-15T06:54:31.000Z</time>
      </trkpt>
      <trkpt lat="47.50451" lon="6.76217">
        <ele>430.4</ele>
        <time>2017-10-15T06:54:33.000Z</time>
      </trkpt>
      <trkpt lat="47.50454" lon="6.76214">
        <ele>430.4</ele>
        <time>2017-10-15T06:54:34.000Z</time>
      </trkpt>
      <trkpt lat="47.50459" lon="6.76214">
        <ele>430.4</ele>
        <time>2017-10-15T06:54:35.000Z</time>
      </trkpt>
      <trkpt lat="47.50462" lon="6.76213">
        <ele>430.6</ele>
        <time>2017-10-15T06:54:37.000Z</time>
      </trkpt>
      <trkpt lat="47.50464" lon="6.76212">
        <ele>430.7</ele>
        <time>2017-10-15T06:54:38.000Z</time>
      </trkpt>
      <trkpt lat="47.50465" lon="6.76211">
        <ele>430.7</ele>
        <time>2017-10-15T06:54:39.000Z</time>
      </trkpt>
      <trkpt lat="47.50469" lon="6.76209">
        <ele>430.7</ele>
        <time>2017-10-15T06:54:40.000Z</time>
      </trkpt>
      <trkpt lat="47.50472" lon="6.76209">
        <ele>430.9</ele>
        <time>2017-10-15T06:54:42.000Z</time>
      </trkpt>
      <trkpt lat="47.50473" lon="6.76208">
        <ele>431</ele>
        <time>2017-10-15T06:54:43.000Z</time>
      </trkpt>
      <trkpt lat="47.50475" lon="6.76208">
        <ele>430.9</ele>
        <time>2017-10-15T06:54:44.000Z</time>
      </trkpt>
      <trkpt lat="47.5048" lon="6.76205">
        <ele>431</ele>
        <time>2017-10-15T06:54:45.000Z</time>
      </trkpt>
      <trkpt lat="47.50484" lon="6.76202">
        <ele>431.1</ele>
        <time>2017-10-15T06:54:46.000Z</time>
      </trkpt>
      <trkpt lat="47.50486" lon="6.762">
        <ele>431.1</ele>
        <time>2017-10-15T06:54:47.000Z</time>
      </trkpt>
      <trkpt lat="47.50488" lon="6.76197">
        <ele>431</ele>
        <time>2017-10-15T06:54:48.000Z</time>
      </trkpt>
      <trkpt lat="47.5049" lon="6.76195">
        <ele>431</ele>
        <time>2017-10-15T06:54:49.000Z</time>
      </trkpt>
      <trkpt lat="47.50492" lon="6.76193">
        <ele>431</ele>
        <time>2017-10-15T06:54:50.000Z</time>
      </trkpt>
      <trkpt lat="47.50496" lon="6.76191">
        <ele>430.8</ele>
        <time>2017-10-15T06:54:52.000Z</time>
      </trkpt>
      <trkpt lat="47.50498" lon="6.76189">
        <ele>430.8</ele>
        <time>2017-10-15T06:54:53.000Z</time>
      </trkpt>
      <trkpt lat="47.505" lon="6.76188">
        <ele>430.7</ele>
        <time>2017-10-15T06:54:54.000Z</time>
      </trkpt>
      <trkpt lat="47.50504" lon="6.76186">
        <ele>430.6</ele>
        <time>2017-10-15T06:54:56.000Z</time>
      </trkpt>
      <trkpt lat="47.50506" lon="6.76185">
        <ele>430.6</ele>
        <time>2017-10-15T06:54:57.000Z</time>
      </trkpt>
      <trkpt lat="47.50512" lon="6.76181">
        <ele>430.5</ele>
        <time>2017-10-15T06:55:00.000Z</time>
      </trkpt>
      <trkpt lat="47.50516" lon="6.7618">
        <ele>430.5</ele>
        <time>2017-10-15T06:55:02.000Z</time>
      </trkpt>
      <trkpt lat="47.50518" lon="6.7618">
        <ele>430.4</ele>
        <time>2017-10-15T06:55:03.000Z</time>
      </trkpt>
      <trkpt lat="47.50519" lon="6.76179">
        <ele>430.4</ele>
        <time>2017-10-15T06:55:04.000Z</time>
      </trkpt>
      <trkpt lat="47.50522" lon="6.76173">
        <ele>430.2</ele>
        <time>2017-10-15T06:55:05.000Z</time>
      </trkpt>
      <trkpt lat="47.50525" lon="6.7617">
        <ele>430</ele>
        <time>2017-10-15T06:55:06.000Z</time>
      </trkpt>
      <trkpt lat="47.50526" lon="6.76168">
        <ele>429.8</ele>
        <time>2017-10-15T06:55:07.000Z</time>
      </trkpt>
      <trkpt lat="47.50531" lon="6.76165">
        <ele>429.6</ele>
        <time>2017-10-15T06:55:08.000Z</time>
      </trkpt>
      <trkpt lat="47.50534" lon="6.76162">
        <ele>429.4</ele>
        <time>2017-10-15T06:55:09.000Z</time>
      </trkpt>
      <trkpt lat="47.50535" lon="6.7616">
        <ele>429.2</ele>
        <time>2017-10-15T06:55:10.000Z</time>
      </trkpt>
      <trkpt lat="47.50536" lon="6.76157">
        <ele>429</ele>
        <time>2017-10-15T06:55:11.000Z</time>
      </trkpt>
      <trkpt lat="47.50538" lon="6.76155">
        <ele>428.9</ele>
        <time>2017-10-15T06:55:12.000Z</time>
      </trkpt>
      <trkpt lat="47.50541" lon="6.7615">
        <ele>428.9</ele>
        <time>2017-10-15T06:55:13.000Z</time>
      </trkpt>
      <trkpt lat="47.50545" lon="6.76147">
        <ele>428.9</ele>
        <time>2017-10-15T06:55:14.000Z</time>
      </trkpt>
      <trkpt lat="47.50549" lon="6.76144">
        <ele>428.9</ele>
        <time>2017-10-15T06:55:15.000Z</time>
      </trkpt>
      <trkpt lat="47.50551" lon="6.76144">
        <ele>428.7</ele>
        <time>2017-10-15T06:55:16.000Z</time>
      </trkpt>
      <trkpt lat="47.50555" lon="6.76142">
        <ele>428.6</ele>
        <time>2017-10-15T06:55:17.000Z</time>
      </trkpt>
      <trkpt lat="47.5056" lon="6.76141">
        <ele>428.4</ele>
        <time>2017-10-15T06:55:18.000Z</time>
      </trkpt>
      <trkpt lat="47.50563" lon="6.76141">
        <ele>428.3</ele>
        <time>2017-10-15T06:55:19.000Z</time>
      </trkpt>
      <trkpt lat="47.50601" lon="6.76128">
        <ele>426.9</ele>
        <time>2017-10-15T06:55:30.001Z</time>
      </trkpt>
      <trkpt lat="47.50608" lon="6.76128">
        <ele>426.5</ele>
        <time>2017-10-15T06:55:31.001Z</time>
      </trkpt>
      <trkpt lat="47.50617" lon="6.7613">
        <ele>422.5</ele>
        <time>2017-10-15T06:55:32.000Z</time>
      </trkpt>
      <trkpt lat="47.50627" lon="6.76134">
        <ele>418.1</ele>
        <time>2017-10-15T06:55:33.000Z</time>
      </trkpt>
      <trkpt lat="47.50637" lon="6.76141">
        <ele>413.6</ele>
        <time>2017-10-15T06:55:34.000Z</time>
      </trkpt>
      <trkpt lat="47.50647" lon="6.76148">
        <ele>408.8</ele>
        <time>2017-10-15T06:55:35.000Z</time>
      </trkpt>
      <trkpt lat="47.50656" lon="6.76153">
        <ele>408.3</ele>
        <time>2017-10-15T06:55:36.000Z</time>
      </trkpt>
      <trkpt lat="47.50662" lon="6.76162">
        <ele>407.8</ele>
        <time>2017-10-15T06:55:37.000Z</time>
      </trkpt>
      <trkpt lat="47.50667" lon="6.76171">
        <ele>407.3</ele>
        <time>2017-10-15T06:55:38.000Z</time>
      </trkpt>
      <trkpt lat="47.50673" lon="6.7618">
        <ele>406.8</ele>
        <time>2017-10-15T06:55:39.000Z</time>
      </trkpt>
      <trkpt lat="47.50681" lon="6.76187">
        <ele>406.4</ele>
        <time>2017-10-15T06:55:40.000Z</time>
      </trkpt>
      <trkpt lat="47.50689" lon="6.76195">
        <ele>406</ele>
        <time>2017-10-15T06:55:41.000Z</time>
      </trkpt>
      <trkpt lat="47.50698" lon="6.76202">
        <ele>405.7</ele>
        <time>2017-10-15T06:55:42.000Z</time>
      </trkpt>
      <trkpt lat="47.50705" lon="6.76208">
        <ele>405.3</ele>
        <time>2017-10-15T06:55:43.000Z</time>
      </trkpt>
      <trkpt lat="47.50709" lon="6.76217">
        <ele>405</ele>
        <time>2017-10-15T06:55:44.000Z</time>
      </trkpt>
      <trkpt lat="47.50715" lon="6.76225">
        <ele>404.8</ele>
        <time>2017-10-15T06:55:45.000Z</time>
      </trkpt>
      <trkpt lat="47.50719" lon="6.76233">
        <ele>404.6</ele>
        <time>2017-10-15T06:55:46.000Z</time>
      </trkpt>
      <trkpt lat="47.50721" lon="6.76238">
        <ele>404.5</ele>
        <time>2017-10-15T06:55:47.000Z</time>
      </trkpt>
      <trkpt lat="47.50725" lon="6.76245">
        <ele>404.3</ele>
        <time>2017-10-15T06:55:48.000Z</time>
      </trkpt>
      <trkpt lat="47.50729" lon="6.7625">
        <ele>404.2</ele>
        <time>2017-10-15T06:55:49.000Z</time>
      </trkpt>
      <trkpt lat="47.5073" lon="6.76254">
        <ele>404.2</ele>
        <time>2017-10-15T06:55:50.000Z</time>
      </trkpt>
      <trkpt lat="47.50733" lon="6.76257">
        <ele>404.1</ele>
        <time>2017-10-15T06:55:51.000Z</time>
      </trkpt>
      <trkpt lat="47.50735" lon="6.76264">
        <ele>404.2</ele>
        <time>2017-10-15T06:55:52.000Z</time>
      </trkpt>
      <trkpt lat="47.50735" lon="6.7627">
        <ele>405.2</ele>
        <time>2017-10-15T06:55:53.000Z</time>
      </trkpt>
      <trkpt lat="47.50735" lon="6.76275">
        <ele>406.2</ele>
        <time>2017-10-15T06:55:54.000Z</time>
      </trkpt>
      <trkpt lat="47.50736" lon="6.76279">
        <ele>406.1</ele>
        <time>2017-10-15T06:55:55.000Z</time>
      </trkpt>
      <trkpt lat="47.50737" lon="6.76282">
        <ele>406.1</ele>
        <time>2017-10-15T06:55:56.000Z</time>
      </trkpt>
      <trkpt lat="47.50739" lon="6.76285">
        <ele>406.1</ele>
        <time>2017-10-15T06:55:57.000Z</time>
      </trkpt>
      <trkpt lat="47.50741" lon="6.76288">
        <ele>406.2</ele>
        <time>2017-10-15T06:55:58.000Z</time>
      </trkpt>
      <trkpt lat="47.50743" lon="6.76291">
        <ele>406.2</ele>
        <time>2017-10-15T06:55:59.000Z</time>
      </trkpt>
      <trkpt lat="47.50744" lon="6.76294">
        <ele>406.3</ele>
        <time>2017-10-15T06:56:00.000Z</time>
      </trkpt>
      <trkpt lat="47.50746" lon="6.76297">
        <ele>406.4</ele>
        <time>2017-10-15T06:56:01.000Z</time>
      </trkpt>
      <trkpt lat="47.50748" lon="6.763">
        <ele>406.4</ele>
        <time>2017-10-15T06:56:02.000Z</time>
      </trkpt>
      <trkpt lat="47.5075" lon="6.76303">
        <ele>406.6</ele>
        <time>2017-10-15T06:56:03.000Z</time>
      </trkpt>
      <trkpt lat="47.50751" lon="6.76306">
        <ele>406.7</ele>
        <time>2017-10-15T06:56:04.000Z</time>
      </trkpt>
      <trkpt lat="47.50752" lon="6.76311">
        <ele>406.9</ele>
        <time>2017-10-15T06:56:05.000Z</time>
      </trkpt>
      <trkpt lat="47.50753" lon="6.76313">
        <ele>407.2</ele>
        <time>2017-10-15T06:56:06.000Z</time>
      </trkpt>
      <trkpt lat="47.50755" lon="6.76316">
        <ele>407.5</ele>
        <time>2017-10-15T06:56:07.000Z</time>
      </trkpt>
      <trkpt lat="47.50757" lon="6.76319">
        <ele>407.8</ele>
        <time>2017-10-15T06:56:08.000Z</time>
      </trkpt>
      <trkpt lat="47.50758" lon="6.76321">
        <ele>408.3</ele>
        <time>2017-10-15T06:56:09.000Z</time>
      </trkpt>
      <trkpt lat="47.5076" lon="6.76325">
        <ele>408.7</ele>
        <time>2017-10-15T06:56:10.000Z</time>
      </trkpt>
      <trkpt lat="47.50762" lon="6.7633">
        <ele>409.6</ele>
        <time>2017-10-15T06:56:12.000Z</time>
      </trkpt>
      <trkpt lat="47.50763" lon="6.76333">
        <ele>410</ele>
        <time>2017-10-15T06:56:13.000Z</time>
      </trkpt>
      <trkpt lat="47.50763" lon="6.76337">
        <ele>410.5</ele>
        <time>2017-10-15T06:56:14.000Z</time>
      </trkpt>
      <trkpt lat="47.50764" lon="6.76341">
        <ele>410.8</ele>
        <time>2017-10-15T06:56:15.000Z</time>
      </trkpt>
      <trkpt lat="47.50766" lon="6.76345">
        <ele>411.5</ele>
        <time>2017-10-15T06:56:17.000Z</time>
      </trkpt>
      <trkpt lat="47.50768" lon="6.76347">
        <ele>411.8</ele>
        <time>2017-10-15T06:56:18.000Z</time>
      </trkpt>
      <trkpt lat="47.50771" lon="6.7635">
        <ele>412.8</ele>
        <time>2017-10-15T06:56:21.000Z</time>
      </trkpt>
      <trkpt lat="47.50772" lon="6.76353">
        <ele>413.1</ele>
        <time>2017-10-15T06:56:22.000Z</time>
      </trkpt>
      <trkpt lat="47.50775" lon="6.76356">
        <ele>413.7</ele>
        <time>2017-10-15T06:56:24.000Z</time>
      </trkpt>
      <trkpt lat="47.50776" lon="6.76357">
        <ele>413.9</ele>
        <time>2017-10-15T06:56:25.000Z</time>
      </trkpt>
      <trkpt lat="47.50779" lon="6.76358">
        <ele>414.3</ele>
        <time>2017-10-15T06:56:27.000Z</time>
      </trkpt>
      <trkpt lat="47.50781" lon="6.7636">
        <ele>414.5</ele>
        <time>2017-10-15T06:56:28.000Z</time>
      </trkpt>
      <trkpt lat="47.50783" lon="6.76362">
        <ele>414.6</ele>
        <time>2017-10-15T06:56:29.000Z</time>
      </trkpt>
      <trkpt lat="47.50785" lon="6.76364">
        <ele>414.8</ele>
        <time>2017-10-15T06:56:30.000Z</time>
      </trkpt>
      <trkpt lat="47.50788" lon="6.76362">
        <ele>414.8</ele>
        <time>2017-10-15T06:56:34.000Z</time>
      </trkpt>
      <trkpt lat="47.50789" lon="6.76363">
        <ele>414.7</ele>
        <time>2017-10-15T06:56:35.000Z</time>
      </trkpt>
      <trkpt lat="47.50792" lon="6.76358">
        <ele>415</ele>
        <time>2017-10-15T06:56:41.000Z</time>
      </trkpt>
      <trkpt lat="47.50794" lon="6.76359">
        <ele>415.1</ele>
        <time>2017-10-15T06:56:42.000Z</time>
      </trkpt>
      <trkpt lat="47.50797" lon="6.76361">
        <ele>415.6</ele>
        <time>2017-10-15T06:56:44.000Z</time>
      </trkpt>
      <trkpt lat="47.508" lon="6.76364">
        <ele>415.9</ele>
        <time>2017-10-15T06:56:45.000Z</time>
      </trkpt>
      <trkpt lat="47.50801" lon="6.76366">
        <ele>416.2</ele>
        <time>2017-10-15T06:56:46.000Z</time>
      </trkpt>
      <trkpt lat="47.50805" lon="6.76369">
        <ele>416.4</ele>
        <time>2017-10-15T06:56:47.000Z</time>
      </trkpt>
      <trkpt lat="47.50808" lon="6.7637">
        <ele>416.8</ele>
        <time>2017-10-15T06:56:48.000Z</time>
      </trkpt>
      <trkpt lat="47.5081" lon="6.76372">
        <ele>417.1</ele>
        <time>2017-10-15T06:56:49.000Z</time>
      </trkpt>
      <trkpt lat="47.50813" lon="6.76376">
        <ele>417.8</ele>
        <time>2017-10-15T06:56:51.000Z</time>
      </trkpt>
      <trkpt lat="47.50814" lon="6.76378">
        <ele>418.1</ele>
        <time>2017-10-15T06:56:52.000Z</time>
      </trkpt>
      <trkpt lat="47.50817" lon="6.76381">
        <ele>418.7</ele>
        <time>2017-10-15T06:56:54.000Z</time>
      </trkpt>
      <trkpt lat="47.50818" lon="6.76384">
        <ele>418.9</ele>
        <time>2017-10-15T06:56:55.000Z</time>
      </trkpt>
      <trkpt lat="47.50821" lon="6.76388">
        <ele>419.4</ele>
        <time>2017-10-15T06:56:57.000Z</time>
      </trkpt>
      <trkpt lat="47.50823" lon="6.76389">
        <ele>419.6</ele>
        <time>2017-10-15T06:56:58.000Z</time>
      </trkpt>
      <trkpt lat="47.50827" lon="6.7639">
        <ele>419.9</ele>
        <time>2017-10-15T06:57:00.000Z</time>
      </trkpt>
      <trkpt lat="47.50829" lon="6.76392">
        <ele>420</ele>
        <time>2017-10-15T06:57:01.000Z</time>
      </trkpt>
      <trkpt lat="47.50832" lon="6.76396">
        <ele>420.4</ele>
        <time>2017-10-15T06:57:03.000Z</time>
      </trkpt>
      <trkpt lat="47.50833" lon="6.76398">
        <ele>420.6</ele>
        <time>2017-10-15T06:57:04.000Z</time>
      </trkpt>
      <trkpt lat="47.50836" lon="6.76398">
        <ele>420.6</ele>
        <time>2017-10-15T06:57:05.000Z</time>
      </trkpt>
      <trkpt lat="47.50838" lon="6.76399">
        <ele>420.7</ele>
        <time>2017-10-15T06:57:06.000Z</time>
      </trkpt>
      <trkpt lat="47.50841" lon="6.76401">
        <ele>420.6</ele>
        <time>2017-10-15T06:57:07.000Z</time>
      </trkpt>
      <trkpt lat="47.50844" lon="6.76401">
        <ele>420.6</ele>
        <time>2017-10-15T06:57:08.000Z</time>
      </trkpt>
      <trkpt lat="47.50847" lon="6.76401">
        <ele>420.4</ele>
        <time>2017-10-15T06:57:09.000Z</time>
      </trkpt>
      <trkpt lat="47.5085" lon="6.76401">
        <ele>420.2</ele>
        <time>2017-10-15T06:57:10.000Z</time>
      </trkpt>
      <trkpt lat="47.50853" lon="6.76401">
        <ele>420.1</ele>
        <time>2017-10-15T06:57:11.000Z</time>
      </trkpt>
      <trkpt lat="47.50857" lon="6.764">
        <ele>420.1</ele>
        <time>2017-10-15T06:57:12.000Z</time>
      </trkpt>
      <trkpt lat="47.50858" lon="6.76397">
        <ele>419.9</ele>
        <time>2017-10-15T06:57:13.000Z</time>
      </trkpt>
      <trkpt lat="47.50861" lon="6.76396">
        <ele>419.8</ele>
        <time>2017-10-15T06:57:14.000Z</time>
      </trkpt>
      <trkpt lat="47.50865" lon="6.76395">
        <ele>419.3</ele>
        <time>2017-10-15T06:57:15.000Z</time>
      </trkpt>
      <trkpt lat="47.50869" lon="6.76394">
        <ele>419.8</ele>
        <time>2017-10-15T06:57:16.000Z</time>
      </trkpt>
      <trkpt lat="47.50871" lon="6.76394">
        <ele>419.7</ele>
        <time>2017-10-15T06:57:18.000Z</time>
      </trkpt>
      <trkpt lat="47.50877" lon="6.76396">
        <ele>419.6</ele>
        <time>2017-10-15T06:57:19.000Z</time>
      </trkpt>
      <trkpt lat="47.50882" lon="6.76398">
        <ele>419.4</ele>
        <time>2017-10-15T06:57:20.000Z</time>
      </trkpt>
      <trkpt lat="47.50884" lon="6.764">
        <ele>419.3</ele>
        <time>2017-10-15T06:57:21.000Z</time>
      </trkpt>
      <trkpt lat="47.50889" lon="6.76403">
        <ele>419.2</ele>
        <time>2017-10-15T06:57:22.000Z</time>
      </trkpt>
      <trkpt lat="47.50892" lon="6.76405">
        <ele>419.1</ele>
        <time>2017-10-15T06:57:23.000Z</time>
      </trkpt>
      <trkpt lat="47.50894" lon="6.76407">
        <ele>418.9</ele>
        <time>2017-10-15T06:57:24.000Z</time>
      </trkpt>
      <trkpt lat="47.50896" lon="6.76408">
        <ele>418.6</ele>
        <time>2017-10-15T06:57:25.000Z</time>
      </trkpt>
      <trkpt lat="47.50898" lon="6.76409">
        <ele>418.4</ele>
        <time>2017-10-15T06:57:26.000Z</time>
      </trkpt>
      <trkpt lat="47.50901" lon="6.76409">
        <ele>418.2</ele>
        <time>2017-10-15T06:57:27.000Z</time>
      </trkpt>
      <trkpt lat="47.50904" lon="6.76408">
        <ele>418.1</ele>
        <time>2017-10-15T06:57:28.000Z</time>
      </trkpt>
      <trkpt lat="47.50908" lon="6.76405">
        <ele>416.8</ele>
        <time>2017-10-15T06:57:29.000Z</time>
      </trkpt>
      <trkpt lat="47.50909" lon="6.76403">
        <ele>416.8</ele>
        <time>2017-10-15T06:57:30.000Z</time>
      </trkpt>
      <trkpt lat="47.50912" lon="6.76398">
        <ele>416.8</ele>
        <time>2017-10-15T06:57:32.000Z</time>
      </trkpt>
      <trkpt lat="47.50914" lon="6.76393">
        <ele>416.8</ele>
        <time>2017-10-15T06:57:33.000Z</time>
      </trkpt>
      <trkpt lat="47.50916" lon="6.76391">
        <ele>416.5</ele>
        <time>2017-10-15T06:57:34.000Z</time>
      </trkpt>
      <trkpt lat="47.50918" lon="6.76388">
        <ele>416.4</ele>
        <time>2017-10-15T06:57:35.000Z</time>
      </trkpt>
      <trkpt lat="47.50921" lon="6.76385">
        <ele>416.3</ele>
        <time>2017-10-15T06:57:36.000Z</time>
      </trkpt>
      <trkpt lat="47.50924" lon="6.76384">
        <ele>416.3</ele>
        <time>2017-10-15T06:57:37.000Z</time>
      </trkpt>
      <trkpt lat="47.50926" lon="6.76383">
        <ele>416.3</ele>
        <time>2017-10-15T06:57:38.000Z</time>
      </trkpt>
      <trkpt lat="47.50931" lon="6.76383">
        <ele>416.4</ele>
        <time>2017-10-15T06:57:39.000Z</time>
      </trkpt>
      <trkpt lat="47.50935" lon="6.76383">
        <ele>416.9</ele>
        <time>2017-10-15T06:57:42.000Z</time>
      </trkpt>
      <trkpt lat="47.50938" lon="6.76383">
        <ele>417.2</ele>
        <time>2017-10-15T06:57:43.000Z</time>
      </trkpt>
      <trkpt lat="47.50943" lon="6.76382">
        <ele>417.4</ele>
        <time>2017-10-15T06:57:44.000Z</time>
      </trkpt>
      <trkpt lat="47.50947" lon="6.76381">
        <ele>418</ele>
        <time>2017-10-15T06:57:47.000Z</time>
      </trkpt>
      <trkpt lat="47.50948" lon="6.7638">
        <ele>418.3</ele>
        <time>2017-10-15T06:57:48.000Z</time>
      </trkpt>
      <trkpt lat="47.50952" lon="6.76378">
        <ele>418.7</ele>
        <time>2017-10-15T06:57:49.000Z</time>
      </trkpt>
      <trkpt lat="47.50954" lon="6.76377">
        <ele>419.1</ele>
        <time>2017-10-15T06:57:50.000Z</time>
      </trkpt>
      <trkpt lat="47.50958" lon="6.76375">
        <ele>419.5</ele>
        <time>2017-10-15T06:57:51.000Z</time>
      </trkpt>
      <trkpt lat="47.50962" lon="6.76373">
        <ele>420.9</ele>
        <time>2017-10-15T06:57:54.000Z</time>
      </trkpt>
      <trkpt lat="47.50966" lon="6.76372">
        <ele>422.1</ele>
        <time>2017-10-15T06:57:57.000Z</time>
      </trkpt>
      <trkpt lat="47.50967" lon="6.76372">
        <ele>422.7</ele>
        <time>2017-10-15T06:57:58.000Z</time>
      </trkpt>
      <trkpt lat="47.50971" lon="6.76373">
        <ele>424</ele>
        <time>2017-10-15T06:58:01.000Z</time>
      </trkpt>
      <trkpt lat="47.50975" lon="6.76374">
        <ele>424.3</ele>
        <time>2017-10-15T06:58:02.000Z</time>
      </trkpt>
      <trkpt lat="47.50977" lon="6.76374">
        <ele>424.6</ele>
        <time>2017-10-15T06:58:03.000Z</time>
      </trkpt>
      <trkpt lat="47.50981" lon="6.76375">
        <ele>424.9</ele>
        <time>2017-10-15T06:58:04.000Z</time>
      </trkpt>
      <trkpt lat="47.50984" lon="6.76376">
        <ele>425.4</ele>
        <time>2017-10-15T06:58:05.999Z</time>
      </trkpt>
      <trkpt lat="47.50986" lon="6.76377">
        <ele>425.5</ele>
        <time>2017-10-15T06:58:06.999Z</time>
      </trkpt>
      <trkpt lat="47.50989" lon="6.76379">
        <ele>425.7</ele>
        <time>2017-10-15T06:58:08.999Z</time>
      </trkpt>
      <trkpt lat="47.50993" lon="6.76381">
        <ele>425.9</ele>
        <time>2017-10-15T06:58:09.999Z</time>
      </trkpt>
      <trkpt lat="47.50999" lon="6.76385">
        <ele>426.2</ele>
        <time>2017-10-15T06:58:10.999Z</time>
      </trkpt>
      <trkpt lat="47.51004" lon="6.76388">
        <ele>426.4</ele>
        <time>2017-10-15T06:58:11.999Z</time>
      </trkpt>
      <trkpt lat="47.51009" lon="6.7639">
        <ele>428.9</ele>
        <time>2017-10-15T06:58:12.999Z</time>
      </trkpt>
      <trkpt lat="47.51014" lon="6.76392">
        <ele>429.1</ele>
        <time>2017-10-15T06:58:13.999Z</time>
      </trkpt>
      <trkpt lat="47.51018" lon="6.76393">
        <ele>429.2</ele>
        <time>2017-10-15T06:58:14.999Z</time>
      </trkpt>
      <trkpt lat="47.51025" lon="6.76397">
        <ele>430.6</ele>
        <time>2017-10-15T06:58:15.999Z</time>
      </trkpt>
      <trkpt lat="47.51029" lon="6.76401">
        <ele>432.8</ele>
        <time>2017-10-15T06:58:16.999Z</time>
      </trkpt>
      <trkpt lat="47.51032" lon="6.76403">
        <ele>433.1</ele>
        <time>2017-10-15T06:58:17.999Z</time>
      </trkpt>
      <trkpt lat="47.51036" lon="6.76406">
        <ele>433.2</ele>
        <time>2017-10-15T06:58:18.999Z</time>
      </trkpt>
      <trkpt lat="47.5104" lon="6.76411">
        <ele>435.4</ele>
        <time>2017-10-15T06:58:19.999Z</time>
      </trkpt>
      <trkpt lat="47.51046" lon="6.76418">
        <ele>436.4</ele>
        <time>2017-10-15T06:58:20.999Z</time>
      </trkpt>
      <trkpt lat="47.51048" lon="6.76422">
        <ele>436.5</ele>
        <time>2017-10-15T06:58:21.999Z</time>
      </trkpt>
      <trkpt lat="47.51049" lon="6.7643">
        <ele>436.6</ele>
        <time>2017-10-15T06:58:22.999Z</time>
      </trkpt>
      <trkpt lat="47.51051" lon="6.76439">
        <ele>436.5</ele>
        <time>2017-10-15T06:58:23.999Z</time>
      </trkpt>
      <trkpt lat="47.51052" lon="6.76445">
        <ele>436.4</ele>
        <time>2017-10-15T06:58:24.999Z</time>
      </trkpt>
      <trkpt lat="47.51055" lon="6.76449">
        <ele>435.9</ele>
        <time>2017-10-15T06:58:25.999Z</time>
      </trkpt>
      <trkpt lat="47.5106" lon="6.76453">
        <ele>435.7</ele>
        <time>2017-10-15T06:58:26.999Z</time>
      </trkpt>
      <trkpt lat="47.51064" lon="6.76458">
        <ele>435.4</ele>
        <time>2017-10-15T06:58:27.999Z</time>
      </trkpt>
      <trkpt lat="47.51066" lon="6.76468">
        <ele>434.9</ele>
        <time>2017-10-15T06:58:28.999Z</time>
      </trkpt>
      <trkpt lat="47.5107" lon="6.76475">
        <ele>434.7</ele>
        <time>2017-10-15T06:58:29.999Z</time>
      </trkpt>
      <trkpt lat="47.51074" lon="6.7648">
        <ele>435.2</ele>
        <time>2017-10-15T06:58:30.999Z</time>
      </trkpt>
      <trkpt lat="47.51078" lon="6.76482">
        <ele>435.2</ele>
        <time>2017-10-15T06:58:31.999Z</time>
      </trkpt>
      <trkpt lat="47.51082" lon="6.76486">
        <ele>435.9</ele>
        <time>2017-10-15T06:58:32.999Z</time>
      </trkpt>
      <trkpt lat="47.51086" lon="6.76488">
        <ele>435.6</ele>
        <time>2017-10-15T06:58:33.999Z</time>
      </trkpt>
      <trkpt lat="47.5109" lon="6.76491">
        <ele>434.7</ele>
        <time>2017-10-15T06:58:34.999Z</time>
      </trkpt>
      <trkpt lat="47.51094" lon="6.76495">
        <ele>433.3</ele>
        <time>2017-10-15T06:58:35.999Z</time>
      </trkpt>
      <trkpt lat="47.51126" lon="6.76523">
        <ele>430.3</ele>
        <time>2017-10-15T06:58:42.999Z</time>
      </trkpt>
      <trkpt lat="47.51133" lon="6.76521">
        <ele>429.4</ele>
        <time>2017-10-15T06:58:43.999Z</time>
      </trkpt>
      <trkpt lat="47.51143" lon="6.76517">
        <ele>429.3</ele>
        <time>2017-10-15T06:58:44.999Z</time>
      </trkpt>
      <trkpt lat="47.51159" lon="6.76513">
        <ele>428.2</ele>
        <time>2017-10-15T06:58:46.999Z</time>
      </trkpt>
      <trkpt lat="47.51166" lon="6.7651">
        <ele>427.6</ele>
        <time>2017-10-15T06:58:47.999Z</time>
      </trkpt>
      <trkpt lat="47.51172" lon="6.76508">
        <ele>426.9</ele>
        <time>2017-10-15T06:58:48.999Z</time>
      </trkpt>
      <trkpt lat="47.51179" lon="6.76506">
        <ele>426</ele>
        <time>2017-10-15T06:58:49.999Z</time>
      </trkpt>
      <trkpt lat="47.51185" lon="6.76505">
        <ele>424.2</ele>
        <time>2017-10-15T06:58:50.999Z</time>
      </trkpt>
      <trkpt lat="47.51189" lon="6.76507">
        <ele>423.9</ele>
        <time>2017-10-15T06:58:52.999Z</time>
      </trkpt>
      <trkpt lat="47.51191" lon="6.76507">
        <ele>423.6</ele>
        <time>2017-10-15T06:58:53.999Z</time>
      </trkpt>
      <trkpt lat="47.51194" lon="6.76508">
        <ele>423.4</ele>
        <time>2017-10-15T06:58:54.999Z</time>
      </trkpt>
      <trkpt lat="47.51199" lon="6.7651">
        <ele>423.2</ele>
        <time>2017-10-15T06:58:55.999Z</time>
      </trkpt>
      <trkpt lat="47.51205" lon="6.7651">
        <ele>422</ele>
        <time>2017-10-15T06:58:56.999Z</time>
      </trkpt>
      <trkpt lat="47.51211" lon="6.76509">
        <ele>421.6</ele>
        <time>2017-10-15T06:58:57.999Z</time>
      </trkpt>
      <trkpt lat="47.51218" lon="6.76509">
        <ele>421.2</ele>
        <time>2017-10-15T06:58:58.999Z</time>
      </trkpt>
      <trkpt lat="47.51225" lon="6.76508">
        <ele>420.7</ele>
        <time>2017-10-15T06:58:59.999Z</time>
      </trkpt>
      <trkpt lat="47.51231" lon="6.76508">
        <ele>420</ele>
        <time>2017-10-15T06:59:00.999Z</time>
      </trkpt>
      <trkpt lat="47.51238" lon="6.76509">
        <ele>420.5</ele>
        <time>2017-10-15T06:59:01.999Z</time>
      </trkpt>
      <trkpt lat="47.51244" lon="6.7651">
        <ele>421.4</ele>
        <time>2017-10-15T06:59:02.999Z</time>
      </trkpt>
      <trkpt lat="47.51251" lon="6.76512">
        <ele>421.5</ele>
        <time>2017-10-15T06:59:03.999Z</time>
      </trkpt>
      <trkpt lat="47.51259" lon="6.76513">
        <ele>420.8</ele>
        <time>2017-10-15T06:59:04.999Z</time>
      </trkpt>
      <trkpt lat="47.51267" lon="6.76515">
        <ele>420.6</ele>
        <time>2017-10-15T06:59:05.999Z</time>
      </trkpt>
      <trkpt lat="47.51275" lon="6.76518">
        <ele>419.7</ele>
        <time>2017-10-15T06:59:06.999Z</time>
      </trkpt>
      <trkpt lat="47.51282" lon="6.76521">
        <ele>418.1</ele>
        <time>2017-10-15T06:59:07.999Z</time>
      </trkpt>
      <trkpt lat="47.5129" lon="6.76525">
        <ele>416.9</ele>
        <time>2017-10-15T06:59:08.999Z</time>
      </trkpt>
      <trkpt lat="47.51297" lon="6.76529">
        <ele>415.2</ele>
        <time>2017-10-15T06:59:09.999Z</time>
      </trkpt>
      <trkpt lat="47.51304" lon="6.76532">
        <ele>414.2</ele>
        <time>2017-10-15T06:59:10.999Z</time>
      </trkpt>
      <trkpt lat="47.5131" lon="6.76534">
        <ele>413.3</ele>
        <time>2017-10-15T06:59:11.999Z</time>
      </trkpt>
      <trkpt lat="47.51317" lon="6.76536">
        <ele>411.1</ele>
        <time>2017-10-15T06:59:12.999Z</time>
      </trkpt>
      <trkpt lat="47.51324" lon="6.76539">
        <ele>408.5</ele>
        <time>2017-10-15T06:59:13.999Z</time>
      </trkpt>
      <trkpt lat="47.5133" lon="6.76542">
        <ele>406.4</ele>
        <time>2017-10-15T06:59:14.999Z</time>
      </trkpt>
      <trkpt lat="47.51336" lon="6.76546">
        <ele>404.8</ele>
        <time>2017-10-15T06:59:15.999Z</time>
      </trkpt>
      <trkpt lat="47.51342" lon="6.76547">
        <ele>403.7</ele>
        <time>2017-10-15T06:59:16.999Z</time>
      </trkpt>
      <trkpt lat="47.51348" lon="6.76549">
        <ele>402.2</ele>
        <time>2017-10-15T06:59:17.999Z</time>
      </trkpt>
      <trkpt lat="47.51354" lon="6.7655">
        <ele>400.7</ele>
        <time>2017-10-15T06:59:18.999Z</time>
      </trkpt>
      <trkpt lat="47.51359" lon="6.76551">
        <ele>399.5</ele>
        <time>2017-10-15T06:59:19.999Z</time>
      </trkpt>
      <trkpt lat="47.51365" lon="6.76552">
        <ele>398.7</ele>
        <time>2017-10-15T06:59:20.999Z</time>
      </trkpt>
      <trkpt lat="47.51369" lon="6.76552">
        <ele>397.2</ele>
        <time>2017-10-15T06:59:21.999Z</time>
      </trkpt>
      <trkpt lat="47.51372" lon="6.76549">
        <ele>397.3</ele>
        <time>2017-10-15T06:59:31.999Z</time>
      </trkpt>
      <trkpt lat="47.51382" lon="6.76556">
        <ele>397.3</ele>
        <time>2017-10-15T06:59:32.999Z</time>
      </trkpt>
      <trkpt lat="47.51385" lon="6.76561">
        <ele>397.6</ele>
        <time>2017-10-15T06:59:34.999Z</time>
      </trkpt>
      <trkpt lat="47.51386" lon="6.76564">
        <ele>397.8</ele>
        <time>2017-10-15T06:59:35.999Z</time>
      </trkpt>
      <trkpt lat="47.51387" lon="6.7657">
        <ele>398</ele>
        <time>2017-10-15T06:59:37.999Z</time>
      </trkpt>
      <trkpt lat="47.51388" lon="6.76572">
        <ele>398.1</ele>
        <time>2017-10-15T06:59:38.999Z</time>
      </trkpt>
      <trkpt lat="47.51387" lon="6.76577">
        <ele>398.2</ele>
        <time>2017-10-15T06:59:39.999Z</time>
      </trkpt>
      <trkpt lat="47.51387" lon="6.76581">
        <ele>398.3</ele>
        <time>2017-10-15T06:59:40.999Z</time>
      </trkpt>
      <trkpt lat="47.51388" lon="6.76585">
        <ele>398.3</ele>
        <time>2017-10-15T06:59:41.999Z</time>
      </trkpt>
      <trkpt lat="47.51388" lon="6.7659">
        <ele>398.4</ele>
        <time>2017-10-15T06:59:42.999Z</time>
      </trkpt>
      <trkpt lat="47.51388" lon="6.76594">
        <ele>398.4</ele>
        <time>2017-10-15T06:59:43.999Z</time>
      </trkpt>
      <trkpt lat="47.51388" lon="6.76599">
        <ele>398.4</ele>
        <time>2017-10-15T06:59:44.999Z</time>
      </trkpt>
      <trkpt lat="47.51388" lon="6.76604">
        <ele>398.5</ele>
        <time>2017-10-15T06:59:45.999Z</time>
      </trkpt>
      <trkpt lat="47.51389" lon="6.76608">
        <ele>398.5</ele>
        <time>2017-10-15T06:59:46.999Z</time>
      </trkpt>
      <trkpt lat="47.51389" lon="6.76614">
        <ele>398.7</ele>
        <time>2017-10-15T06:59:47.999Z</time>
      </trkpt>
      <trkpt lat="47.5139" lon="6.76619">
        <ele>398.9</ele>
        <time>2017-10-15T06:59:48.999Z</time>
      </trkpt>
      <trkpt lat="47.5139" lon="6.76625">
        <ele>399</ele>
        <time>2017-10-15T06:59:49.999Z</time>
      </trkpt>
      <trkpt lat="47.51392" lon="6.7663">
        <ele>399.1</ele>
        <time>2017-10-15T06:59:50.999Z</time>
      </trkpt>
      <trkpt lat="47.51392" lon="6.76634">
        <ele>399.9</ele>
        <time>2017-10-15T06:59:59.999Z</time>
      </trkpt>
      <trkpt lat="47.51386" lon="6.76644">
        <ele>400</ele>
        <time>2017-10-15T07:00:00.999Z</time>
      </trkpt>
      <trkpt lat="47.51384" lon="6.76647">
        <ele>400</ele>
        <time>2017-10-15T07:00:01.999Z</time>
      </trkpt>
      <trkpt lat="47.51382" lon="6.76648">
        <ele>400</ele>
        <time>2017-10-15T07:00:02.999Z</time>
      </trkpt>
      <trkpt lat="47.5138" lon="6.7665">
        <ele>400.2</ele>
        <time>2017-10-15T07:00:06.999Z</time>
      </trkpt>
      <trkpt lat="47.51374" lon="6.76661">
        <ele>400.4</ele>
        <time>2017-10-15T07:00:07.999Z</time>
      </trkpt>
      <trkpt lat="47.51371" lon="6.76668">
        <ele>400.5</ele>
        <time>2017-10-15T07:00:08.999Z</time>
      </trkpt>
      <trkpt lat="47.51369" lon="6.76673">
        <ele>400.5</ele>
        <time>2017-10-15T07:00:09.999Z</time>
      </trkpt>
      <trkpt lat="47.51368" lon="6.76678">
        <ele>400.6</ele>
        <time>2017-10-15T07:00:10.999Z</time>
      </trkpt>
      <trkpt lat="47.51366" lon="6.76682">
        <ele>400.7</ele>
        <time>2017-10-15T07:00:11.999Z</time>
      </trkpt>
      <trkpt lat="47.51364" lon="6.76685">
        <ele>400.8</ele>
        <time>2017-10-15T07:00:12.999Z</time>
      </trkpt>
      <trkpt lat="47.51363" lon="6.7669">
        <ele>400.8</ele>
        <time>2017-10-15T07:00:13.999Z</time>
      </trkpt>
      <trkpt lat="47.51361" lon="6.76693">
        <ele>401</ele>
        <time>2017-10-15T07:00:14.999Z</time>
      </trkpt>
      <trkpt lat="47.5136" lon="6.76696">
        <ele>401</ele>
        <time>2017-10-15T07:00:15.999Z</time>
      </trkpt>
      <trkpt lat="47.51358" lon="6.76699">
        <ele>401</ele>
        <time>2017-10-15T07:00:16.999Z</time>
      </trkpt>
      <trkpt lat="47.51356" lon="6.76702">
        <ele>401</ele>
        <time>2017-10-15T07:00:17.999Z</time>
      </trkpt>
      <trkpt lat="47.51354" lon="6.76706">
        <ele>401</ele>
        <time>2017-10-15T07:00:18.999Z</time>
      </trkpt>
      <trkpt lat="47.51353" lon="6.76711">
        <ele>401</ele>
        <time>2017-10-15T07:00:19.999Z</time>
      </trkpt>
      <trkpt lat="47.51351" lon="6.76717">
        <ele>401.1</ele>
        <time>2017-10-15T07:00:20.999Z</time>
      </trkpt>
      <trkpt lat="47.51351" lon="6.76721">
        <ele>401.1</ele>
        <time>2017-10-15T07:00:21.999Z</time>
      </trkpt>
      <trkpt lat="47.5135" lon="6.76724">
        <ele>401</ele>
        <time>2017-10-15T07:00:22.999Z</time>
      </trkpt>
      <trkpt lat="47.51349" lon="6.76728">
        <ele>401.1</ele>
        <time>2017-10-15T07:00:24.999Z</time>
      </trkpt>
      <trkpt lat="47.51349" lon="6.76731">
        <ele>401.1</ele>
        <time>2017-10-15T07:00:25.999Z</time>
      </trkpt>
      <trkpt lat="47.51348" lon="6.76734">
        <ele>401.2</ele>
        <time>2017-10-15T07:00:26.999Z</time>
      </trkpt>
      <trkpt lat="47.51347" lon="6.76737">
        <ele>401.2</ele>
        <time>2017-10-15T07:00:27.999Z</time>
      </trkpt>
      <trkpt lat="47.51346" lon="6.76741">
        <ele>401.3</ele>
        <time>2017-10-15T07:00:28.999Z</time>
      </trkpt>
      <trkpt lat="47.51345" lon="6.76744">
        <ele>401.4</ele>
        <time>2017-10-15T07:00:29.999Z</time>
      </trkpt>
      <trkpt lat="47.51344" lon="6.76747">
        <ele>401.4</ele>
        <time>2017-10-15T07:00:30.999Z</time>
      </trkpt>
      <trkpt lat="47.51344" lon="6.7675">
        <ele>401.4</ele>
        <time>2017-10-15T07:00:31.999Z</time>
      </trkpt>
      <trkpt lat="47.51343" lon="6.76756">
        <ele>401.7</ele>
        <time>2017-10-15T07:00:33.999Z</time>
      </trkpt>
      <trkpt lat="47.51344" lon="6.76758">
        <ele>401.7</ele>
        <time>2017-10-15T07:00:34.999Z</time>
      </trkpt>
      <trkpt lat="47.51344" lon="6.76764">
        <ele>401.6</ele>
        <time>2017-10-15T07:00:36.999Z</time>
      </trkpt>
      <trkpt lat="47.51345" lon="6.76767">
        <ele>401.6</ele>
        <time>2017-10-15T07:00:37.999Z</time>
      </trkpt>
      <trkpt lat="47.51346" lon="6.76769">
        <ele>401.6</ele>
        <time>2017-10-15T07:00:38.999Z</time>
      </trkpt>
      <trkpt lat="47.51349" lon="6.76771">
        <ele>401.7</ele>
        <time>2017-10-15T07:00:39.999Z</time>
      </trkpt>
      <trkpt lat="47.51351" lon="6.76773">
        <ele>401.7</ele>
        <time>2017-10-15T07:00:40.999Z</time>
      </trkpt>
      <trkpt lat="47.51352" lon="6.76775">
        <ele>401.7</ele>
        <time>2017-10-15T07:00:41.999Z</time>
      </trkpt>
      <trkpt lat="47.51356" lon="6.76778">
        <ele>401.6</ele>
        <time>2017-10-15T07:00:44.999Z</time>
      </trkpt>
      <trkpt lat="47.51358" lon="6.76779">
        <ele>401.6</ele>
        <time>2017-10-15T07:00:45.999Z</time>
      </trkpt>
      <trkpt lat="47.5136" lon="6.76782">
        <ele>401.6</ele>
        <time>2017-10-15T07:00:46.999Z</time>
      </trkpt>
      <trkpt lat="47.51361" lon="6.76784">
        <ele>401.6</ele>
        <time>2017-10-15T07:00:47.999Z</time>
      </trkpt>
      <trkpt lat="47.51364" lon="6.76786">
        <ele>401.7</ele>
        <time>2017-10-15T07:00:49.999Z</time>
      </trkpt>
      <trkpt lat="47.51366" lon="6.76787">
        <ele>401.8</ele>
        <time>2017-10-15T07:00:50.999Z</time>
      </trkpt>
      <trkpt lat="47.5137" lon="6.76788">
        <ele>401.9</ele>
        <time>2017-10-15T07:00:52.999Z</time>
      </trkpt>
      <trkpt lat="47.51372" lon="6.76789">
        <ele>402</ele>
        <time>2017-10-15T07:00:53.999Z</time>
      </trkpt>
      <trkpt lat="47.51375" lon="6.7679">
        <ele>402.3</ele>
        <time>2017-10-15T07:00:55.999Z</time>
      </trkpt>
      <trkpt lat="47.51377" lon="6.7679">
        <ele>402.4</ele>
        <time>2017-10-15T07:00:56.999Z</time>
      </trkpt>
      <trkpt lat="47.51381" lon="6.76791">
        <ele>402.9</ele>
        <time>2017-10-15T07:00:59.999Z</time>
      </trkpt>
      <trkpt lat="47.51383" lon="6.76791">
        <ele>403</ele>
        <time>2017-10-15T07:01:00.999Z</time>
      </trkpt>
      <trkpt lat="47.51387" lon="6.76791">
        <ele>403.6</ele>
        <time>2017-10-15T07:01:03.999Z</time>
      </trkpt>
      <trkpt lat="47.51389" lon="6.76791">
        <ele>403.7</ele>
        <time>2017-10-15T07:01:04.999Z</time>
      </trkpt>
      <trkpt lat="47.51392" lon="6.76791">
        <ele>404</ele>
        <time>2017-10-15T07:01:06.999Z</time>
      </trkpt>
      <trkpt lat="47.51393" lon="6.76791">
        <ele>404.2</ele>
        <time>2017-10-15T07:01:07.999Z</time>
      </trkpt>
      <trkpt lat="47.51397" lon="6.76791">
        <ele>404.6</ele>
        <time>2017-10-15T07:01:09.999Z</time>
      </trkpt>
      <trkpt lat="47.51399" lon="6.76791">
        <ele>404.7</ele>
        <time>2017-10-15T07:01:10.999Z</time>
      </trkpt>
      <trkpt lat="47.51404" lon="6.76793">
        <ele>405.3</ele>
        <time>2017-10-15T07:01:13.999Z</time>
      </trkpt>
      <trkpt lat="47.51405" lon="6.76793">
        <ele>405.4</ele>
        <time>2017-10-15T07:01:14.999Z</time>
      </trkpt>
      <trkpt lat="47.51409" lon="6.76794">
        <ele>405.9</ele>
        <time>2017-10-15T07:01:16.999Z</time>
      </trkpt>
      <trkpt lat="47.51411" lon="6.76796">
        <ele>406.2</ele>
        <time>2017-10-15T07:01:17.999Z</time>
      </trkpt>
      <trkpt lat="47.51413" lon="6.768">
        <ele>406.7</ele>
        <time>2017-10-15T07:01:19.999Z</time>
      </trkpt>
      <trkpt lat="47.51415" lon="6.76802">
        <ele>406.8</ele>
        <time>2017-10-15T07:01:20.999Z</time>
      </trkpt>
      <trkpt lat="47.51418" lon="6.76804">
        <ele>407.2</ele>
        <time>2017-10-15T07:01:22.999Z</time>
      </trkpt>
      <trkpt lat="47.5142" lon="6.76805">
        <ele>407.3</ele>
        <time>2017-10-15T07:01:23.999Z</time>
      </trkpt>
      <trkpt lat="47.51424" lon="6.76806">
        <ele>407.5</ele>
        <time>2017-10-15T07:01:25.999Z</time>
      </trkpt>
      <trkpt lat="47.51425" lon="6.76807">
        <ele>407.7</ele>
        <time>2017-10-15T07:01:26.999Z</time>
      </trkpt>
      <trkpt lat="47.51428" lon="6.76809">
        <ele>407.9</ele>
        <time>2017-10-15T07:01:28.999Z</time>
      </trkpt>
      <trkpt lat="47.5143" lon="6.76809">
        <ele>408.1</ele>
        <time>2017-10-15T07:01:29.999Z</time>
      </trkpt>
      <trkpt lat="47.51434" lon="6.7681">
        <ele>408.2</ele>
        <time>2017-10-15T07:01:31.999Z</time>
      </trkpt>
      <trkpt lat="47.51437" lon="6.76811">
        <ele>408.3</ele>
        <time>2017-10-15T07:01:32.999Z</time>
      </trkpt>
      <trkpt lat="47.51441" lon="6.76812">
        <ele>408.6</ele>
        <time>2017-10-15T07:01:34.999Z</time>
      </trkpt>
      <trkpt lat="47.51443" lon="6.76813">
        <ele>408.7</ele>
        <time>2017-10-15T07:01:35.999Z</time>
      </trkpt>
      <trkpt lat="47.51445" lon="6.76813">
        <ele>408.8</ele>
        <time>2017-10-15T07:01:36.999Z</time>
      </trkpt>
      <trkpt lat="47.51448" lon="6.76814">
        <ele>409</ele>
        <time>2017-10-15T07:01:37.999Z</time>
      </trkpt>
      <trkpt lat="47.5145" lon="6.76814">
        <ele>409.1</ele>
        <time>2017-10-15T07:01:38.999Z</time>
      </trkpt>
      <trkpt lat="47.51453" lon="6.76813">
        <ele>409.2</ele>
        <time>2017-10-15T07:01:39.999Z</time>
      </trkpt>
      <trkpt lat="47.51456" lon="6.76813">
        <ele>409.3</ele>
        <time>2017-10-15T07:01:40.999Z</time>
      </trkpt>
      <trkpt lat="47.51458" lon="6.76814">
        <ele>409.5</ele>
        <time>2017-10-15T07:01:41.999Z</time>
      </trkpt>
      <trkpt lat="47.5146" lon="6.76814">
        <ele>409.7</ele>
        <time>2017-10-15T07:01:42.999Z</time>
      </trkpt>
      <trkpt lat="47.51463" lon="6.76814">
        <ele>409.9</ele>
        <time>2017-10-15T07:01:43.999Z</time>
      </trkpt>
      <trkpt lat="47.51465" lon="6.76815">
        <ele>410.1</ele>
        <time>2017-10-15T07:01:44.999Z</time>
      </trkpt>
      <trkpt lat="47.51467" lon="6.76816">
        <ele>410.2</ele>
        <time>2017-10-15T07:01:45.999Z</time>
      </trkpt>
      <trkpt lat="47.51469" lon="6.76818">
        <ele>410.4</ele>
        <time>2017-10-15T07:01:46.999Z</time>
      </trkpt>
      <trkpt lat="47.51472" lon="6.76819">
        <ele>410.5</ele>
        <time>2017-10-15T07:01:47.999Z</time>
      </trkpt>
      <trkpt lat="47.51474" lon="6.7682">
        <ele>410.7</ele>
        <time>2017-10-15T07:01:48.999Z</time>
      </trkpt>
      <trkpt lat="47.51476" lon="6.76821">
        <ele>410.8</ele>
        <time>2017-10-15T07:01:49.999Z</time>
      </trkpt>
      <trkpt lat="47.51478" lon="6.76822">
        <ele>410.9</ele>
        <time>2017-10-15T07:01:50.999Z</time>
      </trkpt>
      <trkpt lat="47.51482" lon="6.76823">
        <ele>411.1</ele>
        <time>2017-10-15T07:01:51.999Z</time>
      </trkpt>
      <trkpt lat="47.51484" lon="6.76823">
        <ele>411.2</ele>
        <time>2017-10-15T07:01:52.999Z</time>
      </trkpt>
      <trkpt lat="47.51487" lon="6.76824">
        <ele>411.4</ele>
        <time>2017-10-15T07:01:53.999Z</time>
      </trkpt>
      <trkpt lat="47.5149" lon="6.76824">
        <ele>411.5</ele>
        <time>2017-10-15T07:01:54.999Z</time>
      </trkpt>
      <trkpt lat="47.51492" lon="6.76824">
        <ele>411.7</ele>
        <time>2017-10-15T07:01:55.999Z</time>
      </trkpt>
      <trkpt lat="47.51495" lon="6.76822">
        <ele>411.8</ele>
        <time>2017-10-15T07:01:56.999Z</time>
      </trkpt>
      <trkpt lat="47.51498" lon="6.76822">
        <ele>411.9</ele>
        <time>2017-10-15T07:01:57.999Z</time>
      </trkpt>
      <trkpt lat="47.515" lon="6.76822">
        <ele>412.1</ele>
        <time>2017-10-15T07:01:58.999Z</time>
      </trkpt>
      <trkpt lat="47.51503" lon="6.76822">
        <ele>412.2</ele>
        <time>2017-10-15T07:01:59.999Z</time>
      </trkpt>
      <trkpt lat="47.51505" lon="6.76822">
        <ele>412.2</ele>
        <time>2017-10-15T07:02:00.999Z</time>
      </trkpt>
      <trkpt lat="47.51508" lon="6.76822">
        <ele>412.3</ele>
        <time>2017-10-15T07:02:01.999Z</time>
      </trkpt>
      <trkpt lat="47.51511" lon="6.76822">
        <ele>412.4</ele>
        <time>2017-10-15T07:02:02.999Z</time>
      </trkpt>
      <trkpt lat="47.51513" lon="6.76823">
        <ele>412.6</ele>
        <time>2017-10-15T07:02:03.999Z</time>
      </trkpt>
      <trkpt lat="47.51516" lon="6.76822">
        <ele>412.9</ele>
        <time>2017-10-15T07:02:06.999Z</time>
      </trkpt>
      <trkpt lat="47.51518" lon="6.76823">
        <ele>413</ele>
        <time>2017-10-15T07:02:07.999Z</time>
      </trkpt>
      <trkpt lat="47.51522" lon="6.76824">
        <ele>413.3</ele>
        <time>2017-10-15T07:02:09.999Z</time>
      </trkpt>
      <trkpt lat="47.51523" lon="6.76824">
        <ele>413.3</ele>
        <time>2017-10-15T07:02:10.999Z</time>
      </trkpt>
      <trkpt lat="47.51526" lon="6.7682">
        <ele>413.4</ele>
        <time>2017-10-15T07:02:12.999Z</time>
      </trkpt>
      <trkpt lat="47.51528" lon="6.76819">
        <ele>413.5</ele>
        <time>2017-10-15T07:02:13.999Z</time>
      </trkpt>
      <trkpt lat="47.51532" lon="6.76819">
        <ele>413.8</ele>
        <time>2017-10-15T07:02:15.999Z</time>
      </trkpt>
      <trkpt lat="47.51533" lon="6.7682">
        <ele>414</ele>
        <time>2017-10-15T07:02:16.999Z</time>
      </trkpt>
      <trkpt lat="47.51536" lon="6.76822">
        <ele>414.4</ele>
        <time>2017-10-15T07:02:19.999Z</time>
      </trkpt>
      <trkpt lat="47.51538" lon="6.76822">
        <ele>414.5</ele>
        <time>2017-10-15T07:02:20.999Z</time>
      </trkpt>
      <trkpt lat="47.51542" lon="6.76823">
        <ele>414.8</ele>
        <time>2017-10-15T07:02:22.999Z</time>
      </trkpt>
      <trkpt lat="47.51544" lon="6.76824">
        <ele>414.9</ele>
        <time>2017-10-15T07:02:23.999Z</time>
      </trkpt>
      <trkpt lat="47.51547" lon="6.76824">
        <ele>415.1</ele>
        <time>2017-10-15T07:02:25.999Z</time>
      </trkpt>
      <trkpt lat="47.51548" lon="6.76823">
        <ele>415.2</ele>
        <time>2017-10-15T07:02:26.999Z</time>
      </trkpt>
      <trkpt lat="47.51551" lon="6.76823">
        <ele>415.4</ele>
        <time>2017-10-15T07:02:28.999Z</time>
      </trkpt>
      <trkpt lat="47.51553" lon="6.76822">
        <ele>415.5</ele>
        <time>2017-10-15T07:02:29.999Z</time>
      </trkpt>
      <trkpt lat="47.51557" lon="6.76822">
        <ele>415.7</ele>
        <time>2017-10-15T07:02:31.999Z</time>
      </trkpt>
      <trkpt lat="47.51559" lon="6.76822">
        <ele>415.8</ele>
        <time>2017-10-15T07:02:32.999Z</time>
      </trkpt>
      <trkpt lat="47.51562" lon="6.76821">
        <ele>415.9</ele>
        <time>2017-10-15T07:02:33.999Z</time>
      </trkpt>
      <trkpt lat="47.51564" lon="6.76821">
        <ele>415.9</ele>
        <time>2017-10-15T07:02:34.999Z</time>
      </trkpt>
      <trkpt lat="47.51566" lon="6.76821">
        <ele>416</ele>
        <time>2017-10-15T07:02:35.999Z</time>
      </trkpt>
      <trkpt lat="47.51569" lon="6.7682">
        <ele>416.1</ele>
        <time>2017-10-15T07:02:36.999Z</time>
      </trkpt>
      <trkpt lat="47.51571" lon="6.76819">
        <ele>416.3</ele>
        <time>2017-10-15T07:02:37.999Z</time>
      </trkpt>
      <trkpt lat="47.51573" lon="6.76818">
        <ele>416.4</ele>
        <time>2017-10-15T07:02:38.999Z</time>
      </trkpt>
      <trkpt lat="47.51577" lon="6.76817">
        <ele>416.7</ele>
        <time>2017-10-15T07:02:40.999Z</time>
      </trkpt>
      <trkpt lat="47.51579" lon="6.76815">
        <ele>416.8</ele>
        <time>2017-10-15T07:02:41.999Z</time>
      </trkpt>
      <trkpt lat="47.51581" lon="6.76811">
        <ele>417</ele>
        <time>2017-10-15T07:02:43.999Z</time>
      </trkpt>
      <trkpt lat="47.51582" lon="6.76808">
        <ele>417</ele>
        <time>2017-10-15T07:02:44.999Z</time>
      </trkpt>
      <trkpt lat="47.51583" lon="6.76803">
        <ele>416.9</ele>
        <time>2017-10-15T07:02:45.999Z</time>
      </trkpt>
      <trkpt lat="47.51584" lon="6.768">
        <ele>416.9</ele>
        <time>2017-10-15T07:02:46.999Z</time>
      </trkpt>
      <trkpt lat="47.51585" lon="6.76796">
        <ele>416.9</ele>
        <time>2017-10-15T07:02:47.999Z</time>
      </trkpt>
      <trkpt lat="47.51586" lon="6.76794">
        <ele>416.9</ele>
        <time>2017-10-15T07:02:48.999Z</time>
      </trkpt>
      <trkpt lat="47.51588" lon="6.76788">
        <ele>416.8</ele>
        <time>2017-10-15T07:02:50.999Z</time>
      </trkpt>
      <trkpt lat="47.51589" lon="6.76783">
        <ele>416.8</ele>
        <time>2017-10-15T07:02:51.999Z</time>
      </trkpt>
      <trkpt lat="47.51591" lon="6.7678">
        <ele>416.8</ele>
        <time>2017-10-15T07:02:52.999Z</time>
      </trkpt>
      <trkpt lat="47.51592" lon="6.76776">
        <ele>416.8</ele>
        <time>2017-10-15T07:02:53.999Z</time>
      </trkpt>
      <trkpt lat="47.51593" lon="6.76771">
        <ele>416.8</ele>
        <time>2017-10-15T07:02:54.999Z</time>
      </trkpt>
      <trkpt lat="47.51594" lon="6.76768">
        <ele>416.7</ele>
        <time>2017-10-15T07:02:55.999Z</time>
      </trkpt>
      <trkpt lat="47.51596" lon="6.76765">
        <ele>416.8</ele>
        <time>2017-10-15T07:02:56.999Z</time>
      </trkpt>
      <trkpt lat="47.51597" lon="6.7676">
        <ele>416.8</ele>
        <time>2017-10-15T07:02:57.999Z</time>
      </trkpt>
      <trkpt lat="47.51598" lon="6.76756">
        <ele>416.8</ele>
        <time>2017-10-15T07:02:58.999Z</time>
      </trkpt>
      <trkpt lat="47.51598" lon="6.76752">
        <ele>416.8</ele>
        <time>2017-10-15T07:02:59.999Z</time>
      </trkpt>
      <trkpt lat="47.516" lon="6.76746">
        <ele>416.7</ele>
        <time>2017-10-15T07:03:00.999Z</time>
      </trkpt>
      <trkpt lat="47.51601" lon="6.76742">
        <ele>416.7</ele>
        <time>2017-10-15T07:03:01.999Z</time>
      </trkpt>
      <trkpt lat="47.51603" lon="6.76738">
        <ele>416.7</ele>
        <time>2017-10-15T07:03:02.999Z</time>
      </trkpt>
      <trkpt lat="47.51605" lon="6.76734">
        <ele>416.7</ele>
        <time>2017-10-15T07:03:03.999Z</time>
      </trkpt>
      <trkpt lat="47.51606" lon="6.7673">
        <ele>416.7</ele>
        <time>2017-10-15T07:03:04.999Z</time>
      </trkpt>
      <trkpt lat="47.51607" lon="6.76727">
        <ele>416.8</ele>
        <time>2017-10-15T07:03:05.999Z</time>
      </trkpt>
      <trkpt lat="47.51608" lon="6.76724">
        <ele>416.7</ele>
        <time>2017-10-15T07:03:06.999Z</time>
      </trkpt>
      <trkpt lat="47.51611" lon="6.76721">
        <ele>416.7</ele>
        <time>2017-10-15T07:03:07.999Z</time>
      </trkpt>
      <trkpt lat="47.51612" lon="6.76716">
        <ele>416.6</ele>
        <time>2017-10-15T07:03:09.999Z</time>
      </trkpt>
      <trkpt lat="47.51614" lon="6.76712">
        <ele>416.7</ele>
        <time>2017-10-15T07:03:10.999Z</time>
      </trkpt>
      <trkpt lat="47.51615" lon="6.76708">
        <ele>416.7</ele>
        <time>2017-10-15T07:03:11.999Z</time>
      </trkpt>
      <trkpt lat="47.51616" lon="6.76704">
        <ele>416.8</ele>
        <time>2017-10-15T07:03:12.999Z</time>
      </trkpt>
      <trkpt lat="47.51618" lon="6.767">
        <ele>416.7</ele>
        <time>2017-10-15T07:03:13.999Z</time>
      </trkpt>
      <trkpt lat="47.51619" lon="6.76695">
        <ele>416.7</ele>
        <time>2017-10-15T07:03:14.999Z</time>
      </trkpt>
      <trkpt lat="47.5162" lon="6.76692">
        <ele>416.8</ele>
        <time>2017-10-15T07:03:15.999Z</time>
      </trkpt>
      <trkpt lat="47.51622" lon="6.76689">
        <ele>416.8</ele>
        <time>2017-10-15T07:03:16.999Z</time>
      </trkpt>
      <trkpt lat="47.51623" lon="6.76684">
        <ele>416.8</ele>
        <time>2017-10-15T07:03:17.999Z</time>
      </trkpt>
      <trkpt lat="47.51626" lon="6.76681">
        <ele>416.8</ele>
        <time>2017-10-15T07:03:18.999Z</time>
      </trkpt>
      <trkpt lat="47.51628" lon="6.76676">
        <ele>416.7</ele>
        <time>2017-10-15T07:03:19.999Z</time>
      </trkpt>
      <trkpt lat="47.5163" lon="6.76674">
        <ele>416.7</ele>
        <time>2017-10-15T07:03:20.999Z</time>
      </trkpt>
      <trkpt lat="47.51634" lon="6.76673">
        <ele>416.7</ele>
        <time>2017-10-15T07:03:21.999Z</time>
      </trkpt>
      <trkpt lat="47.51638" lon="6.76673">
        <ele>416.7</ele>
        <time>2017-10-15T07:03:22.999Z</time>
      </trkpt>
      <trkpt lat="47.51641" lon="6.76674">
        <ele>416.7</ele>
        <time>2017-10-15T07:03:23.999Z</time>
      </trkpt>
      <trkpt lat="47.51643" lon="6.76674">
        <ele>416.6</ele>
        <time>2017-10-15T07:03:24.999Z</time>
      </trkpt>
      <trkpt lat="47.51646" lon="6.76675">
        <ele>416.6</ele>
        <time>2017-10-15T07:03:25.999Z</time>
      </trkpt>
      <trkpt lat="47.51649" lon="6.76676">
        <ele>416.6</ele>
        <time>2017-10-15T07:03:26.999Z</time>
      </trkpt>
      <trkpt lat="47.51652" lon="6.76677">
        <ele>416.7</ele>
        <time>2017-10-15T07:03:27.999Z</time>
      </trkpt>
      <trkpt lat="47.51655" lon="6.76677">
        <ele>416.8</ele>
        <time>2017-10-15T07:03:28.999Z</time>
      </trkpt>
      <trkpt lat="47.51658" lon="6.76675">
        <ele>416.8</ele>
        <time>2017-10-15T07:03:29.999Z</time>
      </trkpt>
      <trkpt lat="47.5166" lon="6.76674">
        <ele>417.3</ele>
        <time>2017-10-15T07:03:30.999Z</time>
      </trkpt>
      <trkpt lat="47.51664" lon="6.76671">
        <ele>417.8</ele>
        <time>2017-10-15T07:03:31.999Z</time>
      </trkpt>
      <trkpt lat="47.51667" lon="6.76666">
        <ele>417.8</ele>
        <time>2017-10-15T07:03:32.999Z</time>
      </trkpt>
      <trkpt lat="47.51669" lon="6.76661">
        <ele>418</ele>
        <time>2017-10-15T07:03:33.999Z</time>
      </trkpt>
      <trkpt lat="47.51672" lon="6.76656">
        <ele>418.8</ele>
        <time>2017-10-15T07:03:34.999Z</time>
      </trkpt>
      <trkpt lat="47.51675" lon="6.76651">
        <ele>419.3</ele>
        <time>2017-10-15T07:03:35.999Z</time>
      </trkpt>
      <trkpt lat="47.51677" lon="6.76647">
        <ele>420</ele>
        <time>2017-10-15T07:03:36.999Z</time>
      </trkpt>
      <trkpt lat="47.51678" lon="6.76641">
        <ele>419.9</ele>
        <time>2017-10-15T07:03:37.999Z</time>
      </trkpt>
      <trkpt lat="47.51679" lon="6.76636">
        <ele>419.4</ele>
        <time>2017-10-15T07:03:38.999Z</time>
      </trkpt>
      <trkpt lat="47.5168" lon="6.76631">
        <ele>418.9</ele>
        <time>2017-10-15T07:03:39.999Z</time>
      </trkpt>
      <trkpt lat="47.51682" lon="6.76625">
        <ele>418.3</ele>
        <time>2017-10-15T07:03:40.999Z</time>
      </trkpt>
      <trkpt lat="47.51683" lon="6.7662">
        <ele>418.3</ele>
        <time>2017-10-15T07:03:41.999Z</time>
      </trkpt>
      <trkpt lat="47.51686" lon="6.76615">
        <ele>418.5</ele>
        <time>2017-10-15T07:03:42.999Z</time>
      </trkpt>
      <trkpt lat="47.51687" lon="6.76611">
        <ele>418.6</ele>
        <time>2017-10-15T07:03:43.999Z</time>
      </trkpt>
      <trkpt lat="47.5169" lon="6.76605">
        <ele>418.6</ele>
        <time>2017-10-15T07:03:44.999Z</time>
      </trkpt>
      <trkpt lat="47.51692" lon="6.766">
        <ele>418.3</ele>
        <time>2017-10-15T07:03:45.999Z</time>
      </trkpt>
      <trkpt lat="47.51694" lon="6.76593">
        <ele>417.6</ele>
        <time>2017-10-15T07:03:46.999Z</time>
      </trkpt>
      <trkpt lat="47.51696" lon="6.76588">
        <ele>417</ele>
        <time>2017-10-15T07:03:47.999Z</time>
      </trkpt>
      <trkpt lat="47.51698" lon="6.76583">
        <ele>416.8</ele>
        <time>2017-10-15T07:03:48.999Z</time>
      </trkpt>
      <trkpt lat="47.517" lon="6.76578">
        <ele>416.8</ele>
        <time>2017-10-15T07:03:49.999Z</time>
      </trkpt>
      <trkpt lat="47.51702" lon="6.76571">
        <ele>416.7</ele>
        <time>2017-10-15T07:03:50.999Z</time>
      </trkpt>
      <trkpt lat="47.51704" lon="6.76566">
        <ele>416.7</ele>
        <time>2017-10-15T07:03:51.999Z</time>
      </trkpt>
      <trkpt lat="47.51706" lon="6.7656">
        <ele>416.7</ele>
        <time>2017-10-15T07:03:52.999Z</time>
      </trkpt>
      <trkpt lat="47.51708" lon="6.76556">
        <ele>416.7</ele>
        <time>2017-10-15T07:03:53.999Z</time>
      </trkpt>
      <trkpt lat="47.5171" lon="6.7655">
        <ele>416.7</ele>
        <time>2017-10-15T07:03:54.999Z</time>
      </trkpt>
      <trkpt lat="47.51711" lon="6.76547">
        <ele>416.8</ele>
        <time>2017-10-15T07:03:55.999Z</time>
      </trkpt>
      <trkpt lat="47.51712" lon="6.76543">
        <ele>416.9</ele>
        <time>2017-10-15T07:03:56.999Z</time>
      </trkpt>
      <trkpt lat="47.51713" lon="6.76538">
        <ele>418.1</ele>
        <time>2017-10-15T07:03:57.999Z</time>
      </trkpt>
      <trkpt lat="47.51715" lon="6.76535">
        <ele>418.2</ele>
        <time>2017-10-15T07:03:58.999Z</time>
      </trkpt>
      <trkpt lat="47.51716" lon="6.7653">
        <ele>418.3</ele>
        <time>2017-10-15T07:03:59.999Z</time>
      </trkpt>
      <trkpt lat="47.51717" lon="6.76527">
        <ele>418.4</ele>
        <time>2017-10-15T07:04:00.999Z</time>
      </trkpt>
      <trkpt lat="47.51718" lon="6.76523">
        <ele>418.4</ele>
        <time>2017-10-15T07:04:01.999Z</time>
      </trkpt>
      <trkpt lat="47.51719" lon="6.76519">
        <ele>418.6</ele>
        <time>2017-10-15T07:04:02.999Z</time>
      </trkpt>
      <trkpt lat="47.5172" lon="6.76514">
        <ele>418.6</ele>
        <time>2017-10-15T07:04:03.999Z</time>
      </trkpt>
      <trkpt lat="47.51722" lon="6.76509">
        <ele>418.7</ele>
        <time>2017-10-15T07:04:04.999Z</time>
      </trkpt>
      <trkpt lat="47.51723" lon="6.76503">
        <ele>418.7</ele>
        <time>2017-10-15T07:04:05.999Z</time>
      </trkpt>
      <trkpt lat="47.51725" lon="6.76498">
        <ele>418.8</ele>
        <time>2017-10-15T07:04:06.999Z</time>
      </trkpt>
      <trkpt lat="47.51726" lon="6.76493">
        <ele>418.9</ele>
        <time>2017-10-15T07:04:07.999Z</time>
      </trkpt>
      <trkpt lat="47.51728" lon="6.76489">
        <ele>418.9</ele>
        <time>2017-10-15T07:04:08.999Z</time>
      </trkpt>
      <trkpt lat="47.5173" lon="6.76484">
        <ele>418.9</ele>
        <time>2017-10-15T07:04:09.999Z</time>
      </trkpt>
      <trkpt lat="47.51732" lon="6.7648">
        <ele>419</ele>
        <time>2017-10-15T07:04:10.999Z</time>
      </trkpt>
      <trkpt lat="47.51732" lon="6.76476">
        <ele>418.9</ele>
        <time>2017-10-15T07:04:11.999Z</time>
      </trkpt>
      <trkpt lat="47.51733" lon="6.76472">
        <ele>418.9</ele>
        <time>2017-10-15T07:04:12.999Z</time>
      </trkpt>
      <trkpt lat="47.51735" lon="6.76468">
        <ele>418.9</ele>
        <time>2017-10-15T07:04:13.999Z</time>
      </trkpt>
      <trkpt lat="47.51737" lon="6.76464">
        <ele>418.8</ele>
        <time>2017-10-15T07:04:14.999Z</time>
      </trkpt>
      <trkpt lat="47.51736" lon="6.76458">
        <ele>418.7</ele>
        <time>2017-10-15T07:04:15.999Z</time>
      </trkpt>
      <trkpt lat="47.51739" lon="6.76454">
        <ele>418.6</ele>
        <time>2017-10-15T07:04:16.999Z</time>
      </trkpt>
      <trkpt lat="47.5174" lon="6.76451">
        <ele>418.6</ele>
        <time>2017-10-15T07:04:17.999Z</time>
      </trkpt>
      <trkpt lat="47.51741" lon="6.76447">
        <ele>418.5</ele>
        <time>2017-10-15T07:04:18.999Z</time>
      </trkpt>
      <trkpt lat="47.51743" lon="6.76442">
        <ele>418.4</ele>
        <time>2017-10-15T07:04:19.999Z</time>
      </trkpt>
      <trkpt lat="47.51745" lon="6.76437">
        <ele>418.3</ele>
        <time>2017-10-15T07:04:20.999Z</time>
      </trkpt>
      <trkpt lat="47.51747" lon="6.76432">
        <ele>418.2</ele>
        <time>2017-10-15T07:04:21.999Z</time>
      </trkpt>
      <trkpt lat="47.51748" lon="6.76426">
        <ele>418.1</ele>
        <time>2017-10-15T07:04:22.999Z</time>
      </trkpt>
      <trkpt lat="47.51749" lon="6.76421">
        <ele>418.1</ele>
        <time>2017-10-15T07:04:23.999Z</time>
      </trkpt>
      <trkpt lat="47.51752" lon="6.76415">
        <ele>418.1</ele>
        <time>2017-10-15T07:04:24.999Z</time>
      </trkpt>
      <trkpt lat="47.51754" lon="6.76411">
        <ele>418.1</ele>
        <time>2017-10-15T07:04:25.999Z</time>
      </trkpt>
      <trkpt lat="47.51756" lon="6.76407">
        <ele>418</ele>
        <time>2017-10-15T07:04:26.999Z</time>
      </trkpt>
      <trkpt lat="47.51758" lon="6.76402">
        <ele>418</ele>
        <time>2017-10-15T07:04:27.999Z</time>
      </trkpt>
      <trkpt lat="47.51761" lon="6.76396">
        <ele>417.2</ele>
        <time>2017-10-15T07:04:28.999Z</time>
      </trkpt>
      <trkpt lat="47.51763" lon="6.76391">
        <ele>417.1</ele>
        <time>2017-10-15T07:04:29.999Z</time>
      </trkpt>
      <trkpt lat="47.51765" lon="6.76385">
        <ele>416.8</ele>
        <time>2017-10-15T07:04:30.999Z</time>
      </trkpt>
      <trkpt lat="47.51767" lon="6.76381">
        <ele>416.8</ele>
        <time>2017-10-15T07:04:31.999Z</time>
      </trkpt>
      <trkpt lat="47.51767" lon="6.76376">
        <ele>416.8</ele>
        <time>2017-10-15T07:04:32.999Z</time>
      </trkpt>
      <trkpt lat="47.51769" lon="6.7637">
        <ele>416.8</ele>
        <time>2017-10-15T07:04:33.999Z</time>
      </trkpt>
      <trkpt lat="47.51769" lon="6.76364">
        <ele>416.8</ele>
        <time>2017-10-15T07:04:34.999Z</time>
      </trkpt>
      <trkpt lat="47.51771" lon="6.76359">
        <ele>416.8</ele>
        <time>2017-10-15T07:04:35.999Z</time>
      </trkpt>
      <trkpt lat="47.51774" lon="6.76354">
        <ele>416.9</ele>
        <time>2017-10-15T07:04:36.999Z</time>
      </trkpt>
      <trkpt lat="47.51775" lon="6.76348">
        <ele>416.8</ele>
        <time>2017-10-15T07:04:37.999Z</time>
      </trkpt>
      <trkpt lat="47.51777" lon="6.76343">
        <ele>416.8</ele>
        <time>2017-10-15T07:04:38.999Z</time>
      </trkpt>
      <trkpt lat="47.51778" lon="6.7634">
        <ele>417.1</ele>
        <time>2017-10-15T07:04:46.999Z</time>
      </trkpt>
      <trkpt lat="47.51782" lon="6.76343">
        <ele>417.2</ele>
        <time>2017-10-15T07:04:47.999Z</time>
      </trkpt>
      <trkpt lat="47.51784" lon="6.76346">
        <ele>417.3</ele>
        <time>2017-10-15T07:04:48.999Z</time>
      </trkpt>
      <trkpt lat="47.51785" lon="6.76347">
        <ele>417.3</ele>
        <time>2017-10-15T07:04:49.999Z</time>
      </trkpt>
      <trkpt lat="47.51788" lon="6.7635">
        <ele>417.1</ele>
        <time>2017-10-15T07:04:51.999Z</time>
      </trkpt>
      <trkpt lat="47.51791" lon="6.76352">
        <ele>417</ele>
        <time>2017-10-15T07:04:52.999Z</time>
      </trkpt>
      <trkpt lat="47.51796" lon="6.76353">
        <ele>416.9</ele>
        <time>2017-10-15T07:04:53.999Z</time>
      </trkpt>
      <trkpt lat="47.51802" lon="6.76353">
        <ele>416.8</ele>
        <time>2017-10-15T07:04:54.999Z</time>
      </trkpt>
      <trkpt lat="47.51805" lon="6.76354">
        <ele>416.7</ele>
        <time>2017-10-15T07:04:55.999Z</time>
      </trkpt>
      <trkpt lat="47.51808" lon="6.76355">
        <ele>416.6</ele>
        <time>2017-10-15T07:04:56.999Z</time>
      </trkpt>
      <trkpt lat="47.51811" lon="6.76356">
        <ele>416.6</ele>
        <time>2017-10-15T07:04:57.999Z</time>
      </trkpt>
      <trkpt lat="47.51816" lon="6.76356">
        <ele>416.7</ele>
        <time>2017-10-15T07:04:58.999Z</time>
      </trkpt>
      <trkpt lat="47.51819" lon="6.76361">
        <ele>416.6</ele>
        <time>2017-10-15T07:04:59.999Z</time>
      </trkpt>
      <trkpt lat="47.5182" lon="6.76362">
        <ele>416.5</ele>
        <time>2017-10-15T07:05:00.999Z</time>
      </trkpt>
      <trkpt lat="47.51823" lon="6.76367">
        <ele>416.5</ele>
        <time>2017-10-15T07:05:02.999Z</time>
      </trkpt>
      <trkpt lat="47.51826" lon="6.76368">
        <ele>416.5</ele>
        <time>2017-10-15T07:05:03.999Z</time>
      </trkpt>
      <trkpt lat="47.51829" lon="6.76366">
        <ele>416.8</ele>
        <time>2017-10-15T07:05:06.999Z</time>
      </trkpt>
      <trkpt lat="47.5183" lon="6.76366">
        <ele>417.1</ele>
        <time>2017-10-15T07:05:07.999Z</time>
      </trkpt>
      <trkpt lat="47.51832" lon="6.76368">
        <ele>417.2</ele>
        <time>2017-10-15T07:05:08.999Z</time>
      </trkpt>
      <trkpt lat="47.51836" lon="6.76373">
        <ele>417.4</ele>
        <time>2017-10-15T07:05:09.999Z</time>
      </trkpt>
      <trkpt lat="47.51838" lon="6.76375">
        <ele>417.6</ele>
        <time>2017-10-15T07:05:10.999Z</time>
      </trkpt>
      <trkpt lat="47.51841" lon="6.76378">
        <ele>417.8</ele>
        <time>2017-10-15T07:05:11.999Z</time>
      </trkpt>
      <trkpt lat="47.51843" lon="6.76379">
        <ele>418</ele>
        <time>2017-10-15T07:05:12.999Z</time>
      </trkpt>
      <trkpt lat="47.51846" lon="6.76379">
        <ele>418.2</ele>
        <time>2017-10-15T07:05:13.999Z</time>
      </trkpt>
      <trkpt lat="47.51852" lon="6.76378">
        <ele>418.3</ele>
        <time>2017-10-15T07:05:14.999Z</time>
      </trkpt>
      <trkpt lat="47.51854" lon="6.76379">
        <ele>418.5</ele>
        <time>2017-10-15T07:05:15.999Z</time>
      </trkpt>
      <trkpt lat="47.51857" lon="6.76379">
        <ele>418.8</ele>
        <time>2017-10-15T07:05:16.999Z</time>
      </trkpt>
      <trkpt lat="47.51859" lon="6.76379">
        <ele>418.9</ele>
        <time>2017-10-15T07:05:17.999Z</time>
      </trkpt>
      <trkpt lat="47.51862" lon="6.7638">
        <ele>419.1</ele>
        <time>2017-10-15T07:05:18.999Z</time>
      </trkpt>
      <trkpt lat="47.51866" lon="6.76378">
        <ele>419.2</ele>
        <time>2017-10-15T07:05:20.999Z</time>
      </trkpt>
      <trkpt lat="47.51868" lon="6.76378">
        <ele>419.3</ele>
        <time>2017-10-15T07:05:21.999Z</time>
      </trkpt>
      <trkpt lat="47.51872" lon="6.76378">
        <ele>419.5</ele>
        <time>2017-10-15T07:05:23.999Z</time>
      </trkpt>
      <trkpt lat="47.51874" lon="6.76377">
        <ele>419.6</ele>
        <time>2017-10-15T07:05:24.999Z</time>
      </trkpt>
      <trkpt lat="47.51877" lon="6.76377">
        <ele>419.8</ele>
        <time>2017-10-15T07:05:25.999Z</time>
      </trkpt>
      <trkpt lat="47.5188" lon="6.76376">
        <ele>419.9</ele>
        <time>2017-10-15T07:05:26.999Z</time>
      </trkpt>
      <trkpt lat="47.51883" lon="6.76375">
        <ele>419.9</ele>
        <time>2017-10-15T07:05:27.999Z</time>
      </trkpt>
      <trkpt lat="47.51886" lon="6.76374">
        <ele>420</ele>
        <time>2017-10-15T07:05:28.999Z</time>
      </trkpt>
      <trkpt lat="47.5189" lon="6.76373">
        <ele>420.3</ele>
        <time>2017-10-15T07:05:30.999Z</time>
      </trkpt>
      <trkpt lat="47.51893" lon="6.76373">
        <ele>420.4</ele>
        <time>2017-10-15T07:05:31.999Z</time>
      </trkpt>
      <trkpt lat="47.51895" lon="6.76372">
        <ele>420.6</ele>
        <time>2017-10-15T07:05:32.999Z</time>
      </trkpt>
      <trkpt lat="47.51897" lon="6.76372">
        <ele>420.8</ele>
        <time>2017-10-15T07:05:33.999Z</time>
      </trkpt>
      <trkpt lat="47.519" lon="6.76372">
        <ele>420.9</ele>
        <time>2017-10-15T07:05:34.999Z</time>
      </trkpt>
      <trkpt lat="47.51902" lon="6.76372">
        <ele>421.1</ele>
        <time>2017-10-15T07:05:35.999Z</time>
      </trkpt>
      <trkpt lat="47.51905" lon="6.76373">
        <ele>421.2</ele>
        <time>2017-10-15T07:05:36.999Z</time>
      </trkpt>
      <trkpt lat="47.51908" lon="6.76373">
        <ele>421.4</ele>
        <time>2017-10-15T07:05:37.999Z</time>
      </trkpt>
      <trkpt lat="47.51911" lon="6.76374">
        <ele>421.6</ele>
        <time>2017-10-15T07:05:38.999Z</time>
      </trkpt>
      <trkpt lat="47.51914" lon="6.76374">
        <ele>421.9</ele>
        <time>2017-10-15T07:05:39.999Z</time>
      </trkpt>
      <trkpt lat="47.51916" lon="6.76376">
        <ele>422.1</ele>
        <time>2017-10-15T07:05:40.999Z</time>
      </trkpt>
      <trkpt lat="47.51919" lon="6.76377">
        <ele>422.4</ele>
        <time>2017-10-15T07:05:41.999Z</time>
      </trkpt>
      <trkpt lat="47.51922" lon="6.76377">
        <ele>422.7</ele>
        <time>2017-10-15T07:05:42.999Z</time>
      </trkpt>
      <trkpt lat="47.51925" lon="6.76377">
        <ele>423</ele>
        <time>2017-10-15T07:05:43.999Z</time>
      </trkpt>
      <trkpt lat="47.51928" lon="6.76378">
        <ele>423.3</ele>
        <time>2017-10-15T07:05:44.999Z</time>
      </trkpt>
      <trkpt lat="47.51931" lon="6.76379">
        <ele>423.5</ele>
        <time>2017-10-15T07:05:45.999Z</time>
      </trkpt>
      <trkpt lat="47.51933" lon="6.76382">
        <ele>423.7</ele>
        <time>2017-10-15T07:05:46.999Z</time>
      </trkpt>
      <trkpt lat="47.51937" lon="6.76382">
        <ele>423.9</ele>
        <time>2017-10-15T07:05:47.999Z</time>
      </trkpt>
      <trkpt lat="47.5194" lon="6.76383">
        <ele>424</ele>
        <time>2017-10-15T07:05:48.999Z</time>
      </trkpt>
      <trkpt lat="47.51944" lon="6.76383">
        <ele>424.3</ele>
        <time>2017-10-15T07:05:49.999Z</time>
      </trkpt>
      <trkpt lat="47.51946" lon="6.76382">
        <ele>424.4</ele>
        <time>2017-10-15T07:05:50.999Z</time>
      </trkpt>
      <trkpt lat="47.51948" lon="6.76383">
        <ele>424.6</ele>
        <time>2017-10-15T07:05:51.999Z</time>
      </trkpt>
      <trkpt lat="47.51951" lon="6.76383">
        <ele>424.7</ele>
        <time>2017-10-15T07:05:52.999Z</time>
      </trkpt>
      <trkpt lat="47.51953" lon="6.76382">
        <ele>425</ele>
        <time>2017-10-15T07:05:53.999Z</time>
      </trkpt>
      <trkpt lat="47.51956" lon="6.76382">
        <ele>425.1</ele>
        <time>2017-10-15T07:05:54.999Z</time>
      </trkpt>
      <trkpt lat="47.51959" lon="6.76383">
        <ele>425.3</ele>
        <time>2017-10-15T07:05:55.999Z</time>
      </trkpt>
      <trkpt lat="47.51962" lon="6.76383">
        <ele>425.4</ele>
        <time>2017-10-15T07:05:56.999Z</time>
      </trkpt>
      <trkpt lat="47.51965" lon="6.76384">
        <ele>425.5</ele>
        <time>2017-10-15T07:05:57.999Z</time>
      </trkpt>
      <trkpt lat="47.51968" lon="6.76386">
        <ele>425.5</ele>
        <time>2017-10-15T07:05:58.999Z</time>
      </trkpt>
      <trkpt lat="47.5197" lon="6.76387">
        <ele>425.5</ele>
        <time>2017-10-15T07:05:59.999Z</time>
      </trkpt>
      <trkpt lat="47.51973" lon="6.76388">
        <ele>425.5</ele>
        <time>2017-10-15T07:06:00.999Z</time>
      </trkpt>
      <trkpt lat="47.51975" lon="6.7639">
        <ele>425.5</ele>
        <time>2017-10-15T07:06:01.999Z</time>
      </trkpt>
      <trkpt lat="47.51978" lon="6.76391">
        <ele>425.6</ele>
        <time>2017-10-15T07:06:02.999Z</time>
      </trkpt>
      <trkpt lat="47.5198" lon="6.76393">
        <ele>425.7</ele>
        <time>2017-10-15T07:06:03.999Z</time>
      </trkpt>
      <trkpt lat="47.51982" lon="6.76395">
        <ele>425.8</ele>
        <time>2017-10-15T07:06:04.999Z</time>
      </trkpt>
      <trkpt lat="47.51985" lon="6.76396">
        <ele>425.9</ele>
        <time>2017-10-15T07:06:05.999Z</time>
      </trkpt>
      <trkpt lat="47.51987" lon="6.76397">
        <ele>426</ele>
        <time>2017-10-15T07:06:06.999Z</time>
      </trkpt>
      <trkpt lat="47.51991" lon="6.76399">
        <ele>426.1</ele>
        <time>2017-10-15T07:06:07.999Z</time>
      </trkpt>
      <trkpt lat="47.51994" lon="6.764">
        <ele>426.1</ele>
        <time>2017-10-15T07:06:08.999Z</time>
      </trkpt>
      <trkpt lat="47.51997" lon="6.76402">
        <ele>426.2</ele>
        <time>2017-10-15T07:06:09.999Z</time>
      </trkpt>
      <trkpt lat="47.51999" lon="6.76403">
        <ele>426.2</ele>
        <time>2017-10-15T07:06:10.999Z</time>
      </trkpt>
      <trkpt lat="47.52002" lon="6.76406">
        <ele>426.3</ele>
        <time>2017-10-15T07:06:11.999Z</time>
      </trkpt>
      <trkpt lat="47.52004" lon="6.76407">
        <ele>426.3</ele>
        <time>2017-10-15T07:06:12.999Z</time>
      </trkpt>
      <trkpt lat="47.52007" lon="6.7641">
        <ele>426.4</ele>
        <time>2017-10-15T07:06:13.999Z</time>
      </trkpt>
      <trkpt lat="47.5201" lon="6.76412">
        <ele>426.6</ele>
        <time>2017-10-15T07:06:14.999Z</time>
      </trkpt>
      <trkpt lat="47.52014" lon="6.76415">
        <ele>426.8</ele>
        <time>2017-10-15T07:06:15.999Z</time>
      </trkpt>
      <trkpt lat="47.52018" lon="6.76416">
        <ele>427</ele>
        <time>2017-10-15T07:06:16.999Z</time>
      </trkpt>
      <trkpt lat="47.52022" lon="6.76418">
        <ele>427.1</ele>
        <time>2017-10-15T07:06:17.999Z</time>
      </trkpt>
      <trkpt lat="47.52025" lon="6.7642">
        <ele>427.3</ele>
        <time>2017-10-15T07:06:18.999Z</time>
      </trkpt>
      <trkpt lat="47.52028" lon="6.76422">
        <ele>427.5</ele>
        <time>2017-10-15T07:06:19.999Z</time>
      </trkpt>
      <trkpt lat="47.52031" lon="6.76424">
        <ele>427.7</ele>
        <time>2017-10-15T07:06:20.999Z</time>
      </trkpt>
      <trkpt lat="47.52034" lon="6.76426">
        <ele>427.8</ele>
        <time>2017-10-15T07:06:21.999Z</time>
      </trkpt>
      <trkpt lat="47.52037" lon="6.76428">
        <ele>428</ele>
        <time>2017-10-15T07:06:22.999Z</time>
      </trkpt>
      <trkpt lat="47.5204" lon="6.7643">
        <ele>428</ele>
        <time>2017-10-15T07:06:23.999Z</time>
      </trkpt>
      <trkpt lat="47.52043" lon="6.76431">
        <ele>428.2</ele>
        <time>2017-10-15T07:06:24.999Z</time>
      </trkpt>
      <trkpt lat="47.52046" lon="6.76433">
        <ele>428.2</ele>
        <time>2017-10-15T07:06:25.999Z</time>
      </trkpt>
      <trkpt lat="47.52049" lon="6.76435">
        <ele>428.4</ele>
        <time>2017-10-15T07:06:26.999Z</time>
      </trkpt>
      <trkpt lat="47.52053" lon="6.76437">
        <ele>429.2</ele>
        <time>2017-10-15T07:06:27.999Z</time>
      </trkpt>
      <trkpt lat="47.52056" lon="6.76439">
        <ele>429.8</ele>
        <time>2017-10-15T07:06:28.999Z</time>
      </trkpt>
      <trkpt lat="47.52059" lon="6.76441">
        <ele>430.1</ele>
        <time>2017-10-15T07:06:29.999Z</time>
      </trkpt>
      <trkpt lat="47.52063" lon="6.76442">
        <ele>430.6</ele>
        <time>2017-10-15T07:06:30.999Z</time>
      </trkpt>
      <trkpt lat="47.52067" lon="6.76444">
        <ele>431.4</ele>
        <time>2017-10-15T07:06:31.999Z</time>
      </trkpt>
      <trkpt lat="47.5207" lon="6.76446">
        <ele>431.4</ele>
        <time>2017-10-15T07:06:32.999Z</time>
      </trkpt>
      <trkpt lat="47.52073" lon="6.76448">
        <ele>431.5</ele>
        <time>2017-10-15T07:06:33.999Z</time>
      </trkpt>
      <trkpt lat="47.52077" lon="6.76449">
        <ele>431.6</ele>
        <time>2017-10-15T07:06:34.999Z</time>
      </trkpt>
      <trkpt lat="47.52081" lon="6.76452">
        <ele>432</ele>
        <time>2017-10-15T07:06:35.999Z</time>
      </trkpt>
      <trkpt lat="47.52085" lon="6.76454">
        <ele>431.8</ele>
        <time>2017-10-15T07:06:36.999Z</time>
      </trkpt>
      <trkpt lat="47.52089" lon="6.76457">
        <ele>431.9</ele>
        <time>2017-10-15T07:06:37.999Z</time>
      </trkpt>
      <trkpt lat="47.52092" lon="6.76458">
        <ele>431.9</ele>
        <time>2017-10-15T07:06:38.999Z</time>
      </trkpt>
      <trkpt lat="47.52096" lon="6.7646">
        <ele>431.8</ele>
        <time>2017-10-15T07:06:39.999Z</time>
      </trkpt>
      <trkpt lat="47.52099" lon="6.76461">
        <ele>431.8</ele>
        <time>2017-10-15T07:06:40.999Z</time>
      </trkpt>
      <trkpt lat="47.52102" lon="6.76463">
        <ele>431.8</ele>
        <time>2017-10-15T07:06:41.999Z</time>
      </trkpt>
      <trkpt lat="47.52105" lon="6.76465">
        <ele>431.8</ele>
        <time>2017-10-15T07:06:42.999Z</time>
      </trkpt>
      <trkpt lat="47.52108" lon="6.76466">
        <ele>431.7</ele>
        <time>2017-10-15T07:06:43.999Z</time>
      </trkpt>
      <trkpt lat="47.52111" lon="6.76467">
        <ele>431.8</ele>
        <time>2017-10-15T07:06:44.999Z</time>
      </trkpt>
      <trkpt lat="47.52114" lon="6.76468">
        <ele>431.8</ele>
        <time>2017-10-15T07:06:45.999Z</time>
      </trkpt>
      <trkpt lat="47.52117" lon="6.76469">
        <ele>431.9</ele>
        <time>2017-10-15T07:06:46.999Z</time>
      </trkpt>
      <trkpt lat="47.5212" lon="6.76471">
        <ele>431.9</ele>
        <time>2017-10-15T07:06:47.999Z</time>
      </trkpt>
      <trkpt lat="47.52123" lon="6.76472">
        <ele>431.9</ele>
        <time>2017-10-15T07:06:48.999Z</time>
      </trkpt>
      <trkpt lat="47.52125" lon="6.76473">
        <ele>431.9</ele>
        <time>2017-10-15T07:06:49.999Z</time>
      </trkpt>
      <trkpt lat="47.52128" lon="6.76474">
        <ele>431.9</ele>
        <time>2017-10-15T07:06:50.999Z</time>
      </trkpt>
      <trkpt lat="47.52131" lon="6.76475">
        <ele>431.9</ele>
        <time>2017-10-15T07:06:51.999Z</time>
      </trkpt>
      <trkpt lat="47.52133" lon="6.76477">
        <ele>431.9</ele>
        <time>2017-10-15T07:06:52.999Z</time>
      </trkpt>
      <trkpt lat="47.52136" lon="6.76479">
        <ele>431.9</ele>
        <time>2017-10-15T07:06:53.999Z</time>
      </trkpt>
      <trkpt lat="47.5214" lon="6.76481">
        <ele>432</ele>
        <time>2017-10-15T07:06:54.999Z</time>
      </trkpt>
      <trkpt lat="47.52143" lon="6.76483">
        <ele>432.3</ele>
        <time>2017-10-15T07:06:55.999Z</time>
      </trkpt>
      <trkpt lat="47.52145" lon="6.76485">
        <ele>432.4</ele>
        <time>2017-10-15T07:06:56.999Z</time>
      </trkpt>
      <trkpt lat="47.52148" lon="6.76486">
        <ele>432.5</ele>
        <time>2017-10-15T07:06:57.999Z</time>
      </trkpt>
      <trkpt lat="47.52151" lon="6.76487">
        <ele>432.6</ele>
        <time>2017-10-15T07:06:58.999Z</time>
      </trkpt>
      <trkpt lat="47.52153" lon="6.76489">
        <ele>432.7</ele>
        <time>2017-10-15T07:06:59.999Z</time>
      </trkpt>
      <trkpt lat="47.52156" lon="6.7649">
        <ele>432.8</ele>
        <time>2017-10-15T07:07:00.999Z</time>
      </trkpt>
      <trkpt lat="47.52158" lon="6.76491">
        <ele>432.9</ele>
        <time>2017-10-15T07:07:01.999Z</time>
      </trkpt>
      <trkpt lat="47.52161" lon="6.76493">
        <ele>433</ele>
        <time>2017-10-15T07:07:02.999Z</time>
      </trkpt>
      <trkpt lat="47.52163" lon="6.76494">
        <ele>433.1</ele>
        <time>2017-10-15T07:07:03.999Z</time>
      </trkpt>
      <trkpt lat="47.52166" lon="6.76496">
        <ele>433.2</ele>
        <time>2017-10-15T07:07:04.999Z</time>
      </trkpt>
      <trkpt lat="47.52168" lon="6.76497">
        <ele>433.3</ele>
        <time>2017-10-15T07:07:05.999Z</time>
      </trkpt>
      <trkpt lat="47.5217" lon="6.76499">
        <ele>433.5</ele>
        <time>2017-10-15T07:07:06.999Z</time>
      </trkpt>
      <trkpt lat="47.52173" lon="6.765">
        <ele>433.6</ele>
        <time>2017-10-15T07:07:07.999Z</time>
      </trkpt>
      <trkpt lat="47.52175" lon="6.76501">
        <ele>433.7</ele>
        <time>2017-10-15T07:07:08.999Z</time>
      </trkpt>
      <trkpt lat="47.52177" lon="6.76502">
        <ele>433.9</ele>
        <time>2017-10-15T07:07:09.999Z</time>
      </trkpt>
      <trkpt lat="47.52179" lon="6.76503">
        <ele>434</ele>
        <time>2017-10-15T07:07:10.999Z</time>
      </trkpt>
      <trkpt lat="47.52181" lon="6.76504">
        <ele>434.2</ele>
        <time>2017-10-15T07:07:11.999Z</time>
      </trkpt>
      <trkpt lat="47.52183" lon="6.76505">
        <ele>434.3</ele>
        <time>2017-10-15T07:07:12.999Z</time>
      </trkpt>
      <trkpt lat="47.52185" lon="6.76506">
        <ele>434.5</ele>
        <time>2017-10-15T07:07:13.999Z</time>
      </trkpt>
      <trkpt lat="47.52188" lon="6.76507">
        <ele>434.6</ele>
        <time>2017-10-15T07:07:14.999Z</time>
      </trkpt>
      <trkpt lat="47.5219" lon="6.76508">
        <ele>434.7</ele>
        <time>2017-10-15T07:07:15.999Z</time>
      </trkpt>
      <trkpt lat="47.52193" lon="6.76509">
        <ele>434.9</ele>
        <time>2017-10-15T07:07:16.999Z</time>
      </trkpt>
      <trkpt lat="47.52195" lon="6.7651">
        <ele>435</ele>
        <time>2017-10-15T07:07:17.999Z</time>
      </trkpt>
      <trkpt lat="47.52198" lon="6.76511">
        <ele>435.1</ele>
        <time>2017-10-15T07:07:18.999Z</time>
      </trkpt>
      <trkpt lat="47.522" lon="6.76512">
        <ele>435.2</ele>
        <time>2017-10-15T07:07:19.999Z</time>
      </trkpt>
      <trkpt lat="47.52202" lon="6.76513">
        <ele>435.3</ele>
        <time>2017-10-15T07:07:20.999Z</time>
      </trkpt>
      <trkpt lat="47.52204" lon="6.76515">
        <ele>435.4</ele>
        <time>2017-10-15T07:07:21.999Z</time>
      </trkpt>
      <trkpt lat="47.52206" lon="6.76515">
        <ele>435.5</ele>
        <time>2017-10-15T07:07:22.999Z</time>
      </trkpt>
      <trkpt lat="47.52209" lon="6.76516">
        <ele>435.6</ele>
        <time>2017-10-15T07:07:23.999Z</time>
      </trkpt>
      <trkpt lat="47.52211" lon="6.76517">
        <ele>435.6</ele>
        <time>2017-10-15T07:07:24.999Z</time>
      </trkpt>
      <trkpt lat="47.52213" lon="6.76518">
        <ele>435.6</ele>
        <time>2017-10-15T07:07:25.999Z</time>
      </trkpt>
      <trkpt lat="47.52216" lon="6.7652">
        <ele>435.7</ele>
        <time>2017-10-15T07:07:26.999Z</time>
      </trkpt>
      <trkpt lat="47.52218" lon="6.76521">
        <ele>435.8</ele>
        <time>2017-10-15T07:07:27.999Z</time>
      </trkpt>
      <trkpt lat="47.52222" lon="6.76522">
        <ele>436</ele>
        <time>2017-10-15T07:07:29.999Z</time>
      </trkpt>
      <trkpt lat="47.52224" lon="6.76523">
        <ele>436.2</ele>
        <time>2017-10-15T07:07:30.999Z</time>
      </trkpt>
      <trkpt lat="47.52227" lon="6.76525">
        <ele>436.6</ele>
        <time>2017-10-15T07:07:32.999Z</time>
      </trkpt>
      <trkpt lat="47.52229" lon="6.76526">
        <ele>436.9</ele>
        <time>2017-10-15T07:07:33.999Z</time>
      </trkpt>
      <trkpt lat="47.52231" lon="6.76527">
        <ele>437.1</ele>
        <time>2017-10-15T07:07:34.999Z</time>
      </trkpt>
      <trkpt lat="47.52234" lon="6.76528">
        <ele>437.3</ele>
        <time>2017-10-15T07:07:35.999Z</time>
      </trkpt>
      <trkpt lat="47.52238" lon="6.7653">
        <ele>437.7</ele>
        <time>2017-10-15T07:07:37.999Z</time>
      </trkpt>
      <trkpt lat="47.5224" lon="6.7653">
        <ele>437.9</ele>
        <time>2017-10-15T07:07:38.999Z</time>
      </trkpt>
      <trkpt lat="47.52243" lon="6.76532">
        <ele>438.1</ele>
        <time>2017-10-15T07:07:40.999Z</time>
      </trkpt>
      <trkpt lat="47.52244" lon="6.76533">
        <ele>438.2</ele>
        <time>2017-10-15T07:07:41.999Z</time>
      </trkpt>
      <trkpt lat="47.52248" lon="6.76534">
        <ele>438.6</ele>
        <time>2017-10-15T07:07:43.999Z</time>
      </trkpt>
      <trkpt lat="47.52251" lon="6.76534">
        <ele>438.8</ele>
        <time>2017-10-15T07:07:44.999Z</time>
      </trkpt>
      <trkpt lat="47.52255" lon="6.76536">
        <ele>439.1</ele>
        <time>2017-10-15T07:07:46.999Z</time>
      </trkpt>
      <trkpt lat="47.52257" lon="6.76538">
        <ele>439.2</ele>
        <time>2017-10-15T07:07:47.999Z</time>
      </trkpt>
      <trkpt lat="47.52259" lon="6.76539">
        <ele>439.4</ele>
        <time>2017-10-15T07:07:48.999Z</time>
      </trkpt>
      <trkpt lat="47.52262" lon="6.7654">
        <ele>439.6</ele>
        <time>2017-10-15T07:07:49.999Z</time>
      </trkpt>
      <trkpt lat="47.52265" lon="6.76541">
        <ele>439.7</ele>
        <time>2017-10-15T07:07:50.999Z</time>
      </trkpt>
      <trkpt lat="47.52267" lon="6.76541">
        <ele>439.9</ele>
        <time>2017-10-15T07:07:51.999Z</time>
      </trkpt>
      <trkpt lat="47.5227" lon="6.76542">
        <ele>440</ele>
        <time>2017-10-15T07:07:52.999Z</time>
      </trkpt>
      <trkpt lat="47.52272" lon="6.76543">
        <ele>440.1</ele>
        <time>2017-10-15T07:07:53.999Z</time>
      </trkpt>
      <trkpt lat="47.52274" lon="6.76544">
        <ele>440.2</ele>
        <time>2017-10-15T07:07:54.999Z</time>
      </trkpt>
      <trkpt lat="47.52277" lon="6.76545">
        <ele>440.3</ele>
        <time>2017-10-15T07:07:55.999Z</time>
      </trkpt>
      <trkpt lat="47.52279" lon="6.76546">
        <ele>440.4</ele>
        <time>2017-10-15T07:07:56.999Z</time>
      </trkpt>
      <trkpt lat="47.52281" lon="6.76546">
        <ele>440.5</ele>
        <time>2017-10-15T07:07:57.999Z</time>
      </trkpt>
      <trkpt lat="47.52284" lon="6.76548">
        <ele>440.7</ele>
        <time>2017-10-15T07:07:59.999Z</time>
      </trkpt>
      <trkpt lat="47.52286" lon="6.76549">
        <ele>440.7</ele>
        <time>2017-10-15T07:08:00.999Z</time>
      </trkpt>
      <trkpt lat="47.52289" lon="6.7655">
        <ele>440.8</ele>
        <time>2017-10-15T07:08:01.999Z</time>
      </trkpt>
      <trkpt lat="47.52291" lon="6.76551">
        <ele>441</ele>
        <time>2017-10-15T07:08:02.999Z</time>
      </trkpt>
      <trkpt lat="47.52294" lon="6.76552">
        <ele>441.1</ele>
        <time>2017-10-15T07:08:03.999Z</time>
      </trkpt>
      <trkpt lat="47.52296" lon="6.76554">
        <ele>441.3</ele>
        <time>2017-10-15T07:08:04.999Z</time>
      </trkpt>
      <trkpt lat="47.52298" lon="6.76556">
        <ele>441.5</ele>
        <time>2017-10-15T07:08:06.999Z</time>
      </trkpt>
      <trkpt lat="47.523" lon="6.76557">
        <ele>441.6</ele>
        <time>2017-10-15T07:08:07.999Z</time>
      </trkpt>
      <trkpt lat="47.52302" lon="6.76559">
        <ele>441.7</ele>
        <time>2017-10-15T07:08:08.999Z</time>
      </trkpt>
      <trkpt lat="47.52304" lon="6.76561">
        <ele>441.9</ele>
        <time>2017-10-15T07:08:09.999Z</time>
      </trkpt>
      <trkpt lat="47.52307" lon="6.76564">
        <ele>442</ele>
        <time>2017-10-15T07:08:10.999Z</time>
      </trkpt>
      <trkpt lat="47.52309" lon="6.76565">
        <ele>442.2</ele>
        <time>2017-10-15T07:08:11.999Z</time>
      </trkpt>
      <trkpt lat="47.52311" lon="6.76567">
        <ele>442.4</ele>
        <time>2017-10-15T07:08:12.999Z</time>
      </trkpt>
      <trkpt lat="47.52313" lon="6.76568">
        <ele>442.6</ele>
        <time>2017-10-15T07:08:13.999Z</time>
      </trkpt>
      <trkpt lat="47.52316" lon="6.76569">
        <ele>442.7</ele>
        <time>2017-10-15T07:08:14.999Z</time>
      </trkpt>
      <trkpt lat="47.52318" lon="6.76571">
        <ele>442.9</ele>
        <time>2017-10-15T07:08:15.999Z</time>
      </trkpt>
      <trkpt lat="47.5232" lon="6.76572">
        <ele>443.1</ele>
        <time>2017-10-15T07:08:16.999Z</time>
      </trkpt>
      <trkpt lat="47.52322" lon="6.76573">
        <ele>443.3</ele>
        <time>2017-10-15T07:08:17.999Z</time>
      </trkpt>
      <trkpt lat="47.52326" lon="6.76575">
        <ele>443.8</ele>
        <time>2017-10-15T07:08:19.999Z</time>
      </trkpt>
      <trkpt lat="47.52328" lon="6.76577">
        <ele>444.1</ele>
        <time>2017-10-15T07:08:20.999Z</time>
      </trkpt>
      <trkpt lat="47.52332" lon="6.76578">
        <ele>444.6</ele>
        <time>2017-10-15T07:08:22.999Z</time>
      </trkpt>
      <trkpt lat="47.52334" lon="6.76579">
        <ele>444.9</ele>
        <time>2017-10-15T07:08:23.999Z</time>
      </trkpt>
      <trkpt lat="47.52338" lon="6.7658">
        <ele>445.4</ele>
        <time>2017-10-15T07:08:25.999Z</time>
      </trkpt>
      <trkpt lat="47.5234" lon="6.76581">
        <ele>445.6</ele>
        <time>2017-10-15T07:08:26.999Z</time>
      </trkpt>
      <trkpt lat="47.52344" lon="6.76581">
        <ele>446</ele>
        <time>2017-10-15T07:08:28.999Z</time>
      </trkpt>
      <trkpt lat="47.52346" lon="6.76582">
        <ele>446.2</ele>
        <time>2017-10-15T07:08:29.999Z</time>
      </trkpt>
      <trkpt lat="47.52348" lon="6.76583">
        <ele>446.3</ele>
        <time>2017-10-15T07:08:30.999Z</time>
      </trkpt>
      <trkpt lat="47.5235" lon="6.76584">
        <ele>446.3</ele>
        <time>2017-10-15T07:08:31.999Z</time>
      </trkpt>
      <trkpt lat="47.52352" lon="6.76585">
        <ele>446.3</ele>
        <time>2017-10-15T07:08:32.999Z</time>
      </trkpt>
      <trkpt lat="47.52354" lon="6.76586">
        <ele>446.4</ele>
        <time>2017-10-15T07:08:33.999Z</time>
      </trkpt>
      <trkpt lat="47.52356" lon="6.76586">
        <ele>446.4</ele>
        <time>2017-10-15T07:08:34.999Z</time>
      </trkpt>
      <trkpt lat="47.52359" lon="6.76588">
        <ele>446.4</ele>
        <time>2017-10-15T07:08:35.999Z</time>
      </trkpt>
      <trkpt lat="47.52362" lon="6.76589">
        <ele>446.5</ele>
        <time>2017-10-15T07:08:36.999Z</time>
      </trkpt>
      <trkpt lat="47.52364" lon="6.7659">
        <ele>446.5</ele>
        <time>2017-10-15T07:08:37.999Z</time>
      </trkpt>
      <trkpt lat="47.52366" lon="6.76591">
        <ele>446.6</ele>
        <time>2017-10-15T07:08:38.999Z</time>
      </trkpt>
      <trkpt lat="47.52369" lon="6.76593">
        <ele>446.6</ele>
        <time>2017-10-15T07:08:39.999Z</time>
      </trkpt>
      <trkpt lat="47.52371" lon="6.76594">
        <ele>446.7</ele>
        <time>2017-10-15T07:08:40.999Z</time>
      </trkpt>
      <trkpt lat="47.52373" lon="6.76595">
        <ele>446.7</ele>
        <time>2017-10-15T07:08:41.999Z</time>
      </trkpt>
      <trkpt lat="47.52376" lon="6.76596">
        <ele>446.7</ele>
        <time>2017-10-15T07:08:42.999Z</time>
      </trkpt>
      <trkpt lat="47.52379" lon="6.76597">
        <ele>446.7</ele>
        <time>2017-10-15T07:08:43.999Z</time>
      </trkpt>
      <trkpt lat="47.52381" lon="6.76598">
        <ele>446.7</ele>
        <time>2017-10-15T07:08:44.999Z</time>
      </trkpt>
      <trkpt lat="47.52384" lon="6.76599">
        <ele>446.7</ele>
        <time>2017-10-15T07:08:45.999Z</time>
      </trkpt>
      <trkpt lat="47.52386" lon="6.766">
        <ele>446.8</ele>
        <time>2017-10-15T07:08:46.999Z</time>
      </trkpt>
      <trkpt lat="47.52388" lon="6.76602">
        <ele>446.8</ele>
        <time>2017-10-15T07:08:47.999Z</time>
      </trkpt>
      <trkpt lat="47.52391" lon="6.76603">
        <ele>446.8</ele>
        <time>2017-10-15T07:08:48.999Z</time>
      </trkpt>
      <trkpt lat="47.52393" lon="6.76604">
        <ele>446.9</ele>
        <time>2017-10-15T07:08:49.999Z</time>
      </trkpt>
      <trkpt lat="47.52396" lon="6.76605">
        <ele>446.9</ele>
        <time>2017-10-15T07:08:50.999Z</time>
      </trkpt>
      <trkpt lat="47.52399" lon="6.76607">
        <ele>446.9</ele>
        <time>2017-10-15T07:08:51.999Z</time>
      </trkpt>
      <trkpt lat="47.52402" lon="6.76609">
        <ele>446.9</ele>
        <time>2017-10-15T07:08:52.999Z</time>
      </trkpt>
      <trkpt lat="47.52407" lon="6.76611">
        <ele>447</ele>
        <time>2017-10-15T07:08:53.999Z</time>
      </trkpt>
      <trkpt lat="47.5241" lon="6.76613">
        <ele>447</ele>
        <time>2017-10-15T07:08:54.999Z</time>
      </trkpt>
      <trkpt lat="47.52413" lon="6.76614">
        <ele>447</ele>
        <time>2017-10-15T07:08:55.999Z</time>
      </trkpt>
      <trkpt lat="47.52416" lon="6.76616">
        <ele>447.1</ele>
        <time>2017-10-15T07:08:56.999Z</time>
      </trkpt>
      <trkpt lat="47.52419" lon="6.76618">
        <ele>447.2</ele>
        <time>2017-10-15T07:08:57.999Z</time>
      </trkpt>
      <trkpt lat="47.52422" lon="6.7662">
        <ele>447.3</ele>
        <time>2017-10-15T07:08:58.999Z</time>
      </trkpt>
      <trkpt lat="47.52425" lon="6.76623">
        <ele>447.4</ele>
        <time>2017-10-15T07:08:59.999Z</time>
      </trkpt>
      <trkpt lat="47.52429" lon="6.76625">
        <ele>447.4</ele>
        <time>2017-10-15T07:09:00.999Z</time>
      </trkpt>
      <trkpt lat="47.52432" lon="6.76627">
        <ele>447.5</ele>
        <time>2017-10-15T07:09:01.999Z</time>
      </trkpt>
      <trkpt lat="47.52435" lon="6.7663">
        <ele>447.6</ele>
        <time>2017-10-15T07:09:02.999Z</time>
      </trkpt>
      <trkpt lat="47.52438" lon="6.76634">
        <ele>447.7</ele>
        <time>2017-10-15T07:09:03.999Z</time>
      </trkpt>
      <trkpt lat="47.52441" lon="6.76637">
        <ele>447.8</ele>
        <time>2017-10-15T07:09:04.999Z</time>
      </trkpt>
      <trkpt lat="47.52444" lon="6.7664">
        <ele>448</ele>
        <time>2017-10-15T07:09:05.999Z</time>
      </trkpt>
      <trkpt lat="47.52447" lon="6.76643">
        <ele>448</ele>
        <time>2017-10-15T07:09:06.999Z</time>
      </trkpt>
      <trkpt lat="47.52449" lon="6.76645">
        <ele>448.1</ele>
        <time>2017-10-15T07:09:07.999Z</time>
      </trkpt>
      <trkpt lat="47.52452" lon="6.76648">
        <ele>448.2</ele>
        <time>2017-10-15T07:09:08.999Z</time>
      </trkpt>
      <trkpt lat="47.52455" lon="6.76651">
        <ele>448.3</ele>
        <time>2017-10-15T07:09:09.999Z</time>
      </trkpt>
      <trkpt lat="47.52458" lon="6.76654">
        <ele>448.3</ele>
        <time>2017-10-15T07:09:10.999Z</time>
      </trkpt>
      <trkpt lat="47.5246" lon="6.76657">
        <ele>448.3</ele>
        <time>2017-10-15T07:09:11.999Z</time>
      </trkpt>
      <trkpt lat="47.52462" lon="6.7666">
        <ele>448.4</ele>
        <time>2017-10-15T07:09:12.999Z</time>
      </trkpt>
      <trkpt lat="47.52465" lon="6.76662">
        <ele>448.4</ele>
        <time>2017-10-15T07:09:13.999Z</time>
      </trkpt>
      <trkpt lat="47.52468" lon="6.76665">
        <ele>449.6</ele>
        <time>2017-10-15T07:09:14.999Z</time>
      </trkpt>
      <trkpt lat="47.52471" lon="6.76669">
        <ele>449.6</ele>
        <time>2017-10-15T07:09:15.999Z</time>
      </trkpt>
      <trkpt lat="47.52475" lon="6.76673">
        <ele>450.1</ele>
        <time>2017-10-15T07:09:16.999Z</time>
      </trkpt>
      <trkpt lat="47.52478" lon="6.76677">
        <ele>450.5</ele>
        <time>2017-10-15T07:09:17.999Z</time>
      </trkpt>
      <trkpt lat="47.52482" lon="6.76682">
        <ele>450.3</ele>
        <time>2017-10-15T07:09:18.999Z</time>
      </trkpt>
      <trkpt lat="47.52486" lon="6.76686">
        <ele>450.4</ele>
        <time>2017-10-15T07:09:19.999Z</time>
      </trkpt>
      <trkpt lat="47.52489" lon="6.76689">
        <ele>450.3</ele>
        <time>2017-10-15T07:09:20.999Z</time>
      </trkpt>
      <trkpt lat="47.52493" lon="6.76693">
        <ele>450.7</ele>
        <time>2017-10-15T07:09:21.999Z</time>
      </trkpt>
      <trkpt lat="47.52497" lon="6.76698">
        <ele>450.5</ele>
        <time>2017-10-15T07:09:22.999Z</time>
      </trkpt>
      <trkpt lat="47.525" lon="6.76702">
        <ele>450</ele>
        <time>2017-10-15T07:09:23.999Z</time>
      </trkpt>
      <trkpt lat="47.52504" lon="6.76707">
        <ele>449.6</ele>
        <time>2017-10-15T07:09:24.999Z</time>
      </trkpt>
      <trkpt lat="47.52508" lon="6.76712">
        <ele>449.6</ele>
        <time>2017-10-15T07:09:25.999Z</time>
      </trkpt>
      <trkpt lat="47.52511" lon="6.76716">
        <ele>449.4</ele>
        <time>2017-10-15T07:09:26.999Z</time>
      </trkpt>
      <trkpt lat="47.52515" lon="6.7672">
        <ele>448.8</ele>
        <time>2017-10-15T07:09:27.999Z</time>
      </trkpt>
      <trkpt lat="47.52519" lon="6.76718">
        <ele>448.4</ele>
        <time>2017-10-15T07:09:28.999Z</time>
      </trkpt>
      <trkpt lat="47.52522" lon="6.76715">
        <ele>447.6</ele>
        <time>2017-10-15T07:09:29.999Z</time>
      </trkpt>
      <trkpt lat="47.52525" lon="6.76712">
        <ele>446.7</ele>
        <time>2017-10-15T07:09:30.999Z</time>
      </trkpt>
      <trkpt lat="47.52529" lon="6.76709">
        <ele>446.2</ele>
        <time>2017-10-15T07:09:31.999Z</time>
      </trkpt>
      <trkpt lat="47.52534" lon="6.76705">
        <ele>445.9</ele>
        <time>2017-10-15T07:09:32.999Z</time>
      </trkpt>
      <trkpt lat="47.52539" lon="6.76699">
        <ele>446.4</ele>
        <time>2017-10-15T07:09:33.999Z</time>
      </trkpt>
      <trkpt lat="47.52544" lon="6.76694">
        <ele>447.6</ele>
        <time>2017-10-15T07:09:34.999Z</time>
      </trkpt>
      <trkpt lat="47.5255" lon="6.76687">
        <ele>447.8</ele>
        <time>2017-10-15T07:09:35.999Z</time>
      </trkpt>
      <trkpt lat="47.52555" lon="6.76682">
        <ele>448</ele>
        <time>2017-10-15T07:09:36.999Z</time>
      </trkpt>
      <trkpt lat="47.52561" lon="6.76676">
        <ele>447.9</ele>
        <time>2017-10-15T07:09:37.999Z</time>
      </trkpt>
      <trkpt lat="47.52567" lon="6.7667">
        <ele>447.7</ele>
        <time>2017-10-15T07:09:38.999Z</time>
      </trkpt>
      <trkpt lat="47.52573" lon="6.76665">
        <ele>447.4</ele>
        <time>2017-10-15T07:09:39.999Z</time>
      </trkpt>
      <trkpt lat="47.5258" lon="6.76659">
        <ele>446.5</ele>
        <time>2017-10-15T07:09:40.999Z</time>
      </trkpt>
      <trkpt lat="47.52584" lon="6.76651">
        <ele>446.3</ele>
        <time>2017-10-15T07:09:41.999Z</time>
      </trkpt>
      <trkpt lat="47.52589" lon="6.76643">
        <ele>446.3</ele>
        <time>2017-10-15T07:09:42.999Z</time>
      </trkpt>
      <trkpt lat="47.52594" lon="6.76635">
        <ele>446.2</ele>
        <time>2017-10-15T07:09:43.999Z</time>
      </trkpt>
      <trkpt lat="47.52596" lon="6.76626">
        <ele>445.7</ele>
        <time>2017-10-15T07:09:44.999Z</time>
      </trkpt>
      <trkpt lat="47.52598" lon="6.76618">
        <ele>444.7</ele>
        <time>2017-10-15T07:09:45.999Z</time>
      </trkpt>
      <trkpt lat="47.52602" lon="6.76612">
        <ele>443.3</ele>
        <time>2017-10-15T07:09:46.999Z</time>
      </trkpt>
      <trkpt lat="47.52606" lon="6.76605">
        <ele>442.4</ele>
        <time>2017-10-15T07:09:47.999Z</time>
      </trkpt>
      <trkpt lat="47.5261" lon="6.76598">
        <ele>441.4</ele>
        <time>2017-10-15T07:09:48.999Z</time>
      </trkpt>
      <trkpt lat="47.52614" lon="6.76591">
        <ele>441</ele>
        <time>2017-10-15T07:09:49.999Z</time>
      </trkpt>
      <trkpt lat="47.52618" lon="6.76584">
        <ele>440.4</ele>
        <time>2017-10-15T07:09:50.999Z</time>
      </trkpt>
      <trkpt lat="47.52621" lon="6.76577">
        <ele>439.8</ele>
        <time>2017-10-15T07:09:51.999Z</time>
      </trkpt>
      <trkpt lat="47.52624" lon="6.76569">
        <ele>438.9</ele>
        <time>2017-10-15T07:09:52.999Z</time>
      </trkpt>
      <trkpt lat="47.52626" lon="6.76561">
        <ele>438</ele>
        <time>2017-10-15T07:09:53.999Z</time>
      </trkpt>
      <trkpt lat="47.52628" lon="6.76553">
        <ele>437</ele>
        <time>2017-10-15T07:09:54.999Z</time>
      </trkpt>
      <trkpt lat="47.52632" lon="6.76547">
        <ele>435.8</ele>
        <time>2017-10-15T07:09:55.999Z</time>
      </trkpt>
      <trkpt lat="47.52635" lon="6.7655">
        <ele>435.5</ele>
        <time>2017-10-15T07:09:58.999Z</time>
      </trkpt>
      <trkpt lat="47.52637" lon="6.76552">
        <ele>435.5</ele>
        <time>2017-10-15T07:09:59.999Z</time>
      </trkpt>
      <trkpt lat="47.52638" lon="6.76555">
        <ele>435.4</ele>
        <time>2017-10-15T07:10:00.999Z</time>
      </trkpt>
      <trkpt lat="47.52641" lon="6.76559">
        <ele>435.3</ele>
        <time>2017-10-15T07:10:01.999Z</time>
      </trkpt>
      <trkpt lat="47.52642" lon="6.76562">
        <ele>435.3</ele>
        <time>2017-10-15T07:10:02.999Z</time>
      </trkpt>
      <trkpt lat="47.52643" lon="6.76566">
        <ele>435.2</ele>
        <time>2017-10-15T07:10:03.999Z</time>
      </trkpt>
      <trkpt lat="47.52644" lon="6.76569">
        <ele>435.2</ele>
        <time>2017-10-15T07:10:04.999Z</time>
      </trkpt>
      <trkpt lat="47.52645" lon="6.76572">
        <ele>435.2</ele>
        <time>2017-10-15T07:10:05.999Z</time>
      </trkpt>
      <trkpt lat="47.52646" lon="6.76578">
        <ele>435.1</ele>
        <time>2017-10-15T07:10:06.999Z</time>
      </trkpt>
      <trkpt lat="47.52647" lon="6.76583">
        <ele>435</ele>
        <time>2017-10-15T07:10:07.999Z</time>
      </trkpt>
      <trkpt lat="47.52648" lon="6.76587">
        <ele>435</ele>
        <time>2017-10-15T07:10:08.999Z</time>
      </trkpt>
      <trkpt lat="47.52649" lon="6.76591">
        <ele>434.6</ele>
        <time>2017-10-15T07:10:09.999Z</time>
      </trkpt>
      <trkpt lat="47.5265" lon="6.76597">
        <ele>434.3</ele>
        <time>2017-10-15T07:10:10.999Z</time>
      </trkpt>
      <trkpt lat="47.52652" lon="6.76602">
        <ele>433.6</ele>
        <time>2017-10-15T07:10:11.999Z</time>
      </trkpt>
      <trkpt lat="47.52654" lon="6.76607">
        <ele>432.4</ele>
        <time>2017-10-15T07:10:12.999Z</time>
      </trkpt>
      <trkpt lat="47.52656" lon="6.76613">
        <ele>432.3</ele>
        <time>2017-10-15T07:10:13.999Z</time>
      </trkpt>
      <trkpt lat="47.52658" lon="6.76619">
        <ele>431.2</ele>
        <time>2017-10-15T07:10:14.999Z</time>
      </trkpt>
      <trkpt lat="47.5266" lon="6.76624">
        <ele>430.5</ele>
        <time>2017-10-15T07:10:15.999Z</time>
      </trkpt>
      <trkpt lat="47.52662" lon="6.76629">
        <ele>430.8</ele>
        <time>2017-10-15T07:10:16.999Z</time>
      </trkpt>
      <trkpt lat="47.52664" lon="6.76636">
        <ele>430.7</ele>
        <time>2017-10-15T07:10:17.999Z</time>
      </trkpt>
      <trkpt lat="47.52666" lon="6.76642">
        <ele>430.7</ele>
        <time>2017-10-15T07:10:18.999Z</time>
      </trkpt>
      <trkpt lat="47.52667" lon="6.76647">
        <ele>430.7</ele>
        <time>2017-10-15T07:10:19.999Z</time>
      </trkpt>
      <trkpt lat="47.52669" lon="6.76653">
        <ele>430.6</ele>
        <time>2017-10-15T07:10:20.999Z</time>
      </trkpt>
      <trkpt lat="47.5267" lon="6.76657">
        <ele>430.8</ele>
        <time>2017-10-15T07:10:21.999Z</time>
      </trkpt>
      <trkpt lat="47.52671" lon="6.76661">
        <ele>430.5</ele>
        <time>2017-10-15T07:10:22.999Z</time>
      </trkpt>
      <trkpt lat="47.52673" lon="6.76665">
        <ele>430.2</ele>
        <time>2017-10-15T07:10:23.999Z</time>
      </trkpt>
      <trkpt lat="47.52674" lon="6.7667">
        <ele>430.2</ele>
        <time>2017-10-15T07:10:24.999Z</time>
      </trkpt>
      <trkpt lat="47.52676" lon="6.76675">
        <ele>430.1</ele>
        <time>2017-10-15T07:10:25.999Z</time>
      </trkpt>
      <trkpt lat="47.52678" lon="6.7668">
        <ele>430</ele>
        <time>2017-10-15T07:10:26.999Z</time>
      </trkpt>
      <trkpt lat="47.52681" lon="6.76685">
        <ele>430</ele>
        <time>2017-10-15T07:10:27.999Z</time>
      </trkpt>
      <trkpt lat="47.52683" lon="6.7669">
        <ele>429.9</ele>
        <time>2017-10-15T07:10:28.999Z</time>
      </trkpt>
      <trkpt lat="47.52685" lon="6.76696">
        <ele>428.7</ele>
        <time>2017-10-15T07:10:29.999Z</time>
      </trkpt>
      <trkpt lat="47.52687" lon="6.76702">
        <ele>427.7</ele>
        <time>2017-10-15T07:10:30.999Z</time>
      </trkpt>
      <trkpt lat="47.52689" lon="6.76707">
        <ele>427.5</ele>
        <time>2017-10-15T07:10:31.999Z</time>
      </trkpt>
      <trkpt lat="47.52691" lon="6.76712">
        <ele>427.4</ele>
        <time>2017-10-15T07:10:32.999Z</time>
      </trkpt>
      <trkpt lat="47.52693" lon="6.76717">
        <ele>426.6</ele>
        <time>2017-10-15T07:10:33.999Z</time>
      </trkpt>
      <trkpt lat="47.52695" lon="6.76722">
        <ele>425.4</ele>
        <time>2017-10-15T07:10:34.999Z</time>
      </trkpt>
      <trkpt lat="47.52696" lon="6.76727">
        <ele>424.6</ele>
        <time>2017-10-15T07:10:35.999Z</time>
      </trkpt>
      <trkpt lat="47.52698" lon="6.76731">
        <ele>423.9</ele>
        <time>2017-10-15T07:10:36.999Z</time>
      </trkpt>
      <trkpt lat="47.527" lon="6.76736">
        <ele>423.3</ele>
        <time>2017-10-15T07:10:37.999Z</time>
      </trkpt>
      <trkpt lat="47.52702" lon="6.76742">
        <ele>423.1</ele>
        <time>2017-10-15T07:10:38.999Z</time>
      </trkpt>
      <trkpt lat="47.52703" lon="6.76747">
        <ele>423.1</ele>
        <time>2017-10-15T07:10:39.999Z</time>
      </trkpt>
      <trkpt lat="47.52705" lon="6.76752">
        <ele>423.1</ele>
        <time>2017-10-15T07:10:40.999Z</time>
      </trkpt>
      <trkpt lat="47.52707" lon="6.76757">
        <ele>423</ele>
        <time>2017-10-15T07:10:41.999Z</time>
      </trkpt>
      <trkpt lat="47.52709" lon="6.76762">
        <ele>423.6</ele>
        <time>2017-10-15T07:10:42.999Z</time>
      </trkpt>
      <trkpt lat="47.52711" lon="6.76767">
        <ele>423.4</ele>
        <time>2017-10-15T07:10:43.999Z</time>
      </trkpt>
      <trkpt lat="47.52713" lon="6.76772">
        <ele>423.4</ele>
        <time>2017-10-15T07:10:44.999Z</time>
      </trkpt>
      <trkpt lat="47.52714" lon="6.76777">
        <ele>423.4</ele>
        <time>2017-10-15T07:10:45.999Z</time>
      </trkpt>
      <trkpt lat="47.52716" lon="6.76782">
        <ele>423</ele>
        <time>2017-10-15T07:10:46.999Z</time>
      </trkpt>
      <trkpt lat="47.52718" lon="6.76786">
        <ele>423</ele>
        <time>2017-10-15T07:10:47.999Z</time>
      </trkpt>
      <trkpt lat="47.52719" lon="6.76791">
        <ele>423</ele>
        <time>2017-10-15T07:10:48.999Z</time>
      </trkpt>
      <trkpt lat="47.5272" lon="6.76795">
        <ele>422.9</ele>
        <time>2017-10-15T07:10:49.999Z</time>
      </trkpt>
      <trkpt lat="47.52722" lon="6.768">
        <ele>422.9</ele>
        <time>2017-10-15T07:10:50.999Z</time>
      </trkpt>
      <trkpt lat="47.52724" lon="6.76805">
        <ele>422.9</ele>
        <time>2017-10-15T07:10:51.999Z</time>
      </trkpt>
      <trkpt lat="47.52725" lon="6.7681">
        <ele>423</ele>
        <time>2017-10-15T07:10:52.999Z</time>
      </trkpt>
      <trkpt lat="47.52727" lon="6.76815">
        <ele>423</ele>
        <time>2017-10-15T07:10:53.999Z</time>
      </trkpt>
      <trkpt lat="47.52729" lon="6.76821">
        <ele>423</ele>
        <time>2017-10-15T07:10:54.999Z</time>
      </trkpt>
      <trkpt lat="47.52731" lon="6.76825">
        <ele>423</ele>
        <time>2017-10-15T07:10:55.999Z</time>
      </trkpt>
      <trkpt lat="47.52732" lon="6.76828">
        <ele>423</ele>
        <time>2017-10-15T07:10:56.999Z</time>
      </trkpt>
      <trkpt lat="47.52734" lon="6.76832">
        <ele>423</ele>
        <time>2017-10-15T07:10:57.999Z</time>
      </trkpt>
      <trkpt lat="47.52736" lon="6.76836">
        <ele>423</ele>
        <time>2017-10-15T07:10:58.999Z</time>
      </trkpt>
      <trkpt lat="47.52737" lon="6.76839">
        <ele>422.9</ele>
        <time>2017-10-15T07:10:59.999Z</time>
      </trkpt>
      <trkpt lat="47.52739" lon="6.76842">
        <ele>422.9</ele>
        <time>2017-10-15T07:11:00.999Z</time>
      </trkpt>
      <trkpt lat="47.52741" lon="6.76845">
        <ele>422.9</ele>
        <time>2017-10-15T07:11:01.999Z</time>
      </trkpt>
      <trkpt lat="47.52743" lon="6.76848">
        <ele>422.9</ele>
        <time>2017-10-15T07:11:02.999Z</time>
      </trkpt>
      <trkpt lat="47.52745" lon="6.7685">
        <ele>423</ele>
        <time>2017-10-15T07:11:03.999Z</time>
      </trkpt>
      <trkpt lat="47.52747" lon="6.76851">
        <ele>423.2</ele>
        <time>2017-10-15T07:11:04.999Z</time>
      </trkpt>
      <trkpt lat="47.5275" lon="6.76851">
        <ele>423</ele>
        <time>2017-10-15T07:11:05.999Z</time>
      </trkpt>
      <trkpt lat="47.52754" lon="6.7685">
        <ele>422.1</ele>
        <time>2017-10-15T07:11:06.999Z</time>
      </trkpt>
      <trkpt lat="47.52758" lon="6.7685">
        <ele>421.7</ele>
        <time>2017-10-15T07:11:07.999Z</time>
      </trkpt>
      <trkpt lat="47.52763" lon="6.76849">
        <ele>421.5</ele>
        <time>2017-10-15T07:11:08.999Z</time>
      </trkpt>
      <trkpt lat="47.52769" lon="6.76848">
        <ele>421.6</ele>
        <time>2017-10-15T07:11:09.999Z</time>
      </trkpt>
      <trkpt lat="47.52774" lon="6.76847">
        <ele>422</ele>
        <time>2017-10-15T07:11:10.999Z</time>
      </trkpt>
      <trkpt lat="47.5278" lon="6.76847">
        <ele>421.1</ele>
        <time>2017-10-15T07:11:11.999Z</time>
      </trkpt>
      <trkpt lat="47.52785" lon="6.76846">
        <ele>421</ele>
        <time>2017-10-15T07:11:12.999Z</time>
      </trkpt>
      <trkpt lat="47.52791" lon="6.76845">
        <ele>421.3</ele>
        <time>2017-10-15T07:11:13.999Z</time>
      </trkpt>
      <trkpt lat="47.52798" lon="6.76844">
        <ele>421.1</ele>
        <time>2017-10-15T07:11:14.999Z</time>
      </trkpt>
      <trkpt lat="47.52804" lon="6.76842">
        <ele>420.1</ele>
        <time>2017-10-15T07:11:15.999Z</time>
      </trkpt>
      <trkpt lat="47.5281" lon="6.76839">
        <ele>420.1</ele>
        <time>2017-10-15T07:11:16.999Z</time>
      </trkpt>
      <trkpt lat="47.52817" lon="6.76837">
        <ele>419.4</ele>
        <time>2017-10-15T07:11:17.999Z</time>
      </trkpt>
      <trkpt lat="47.52824" lon="6.76834">
        <ele>419.1</ele>
        <time>2017-10-15T07:11:18.999Z</time>
      </trkpt>
      <trkpt lat="47.52831" lon="6.76832">
        <ele>418.7</ele>
        <time>2017-10-15T07:11:19.999Z</time>
      </trkpt>
      <trkpt lat="47.52837" lon="6.7683">
        <ele>418.1</ele>
        <time>2017-10-15T07:11:20.999Z</time>
      </trkpt>
      <trkpt lat="47.52844" lon="6.76828">
        <ele>417.5</ele>
        <time>2017-10-15T07:11:21.999Z</time>
      </trkpt>
      <trkpt lat="47.52851" lon="6.76824">
        <ele>417.1</ele>
        <time>2017-10-15T07:11:22.999Z</time>
      </trkpt>
      <trkpt lat="47.52858" lon="6.76822">
        <ele>416.7</ele>
        <time>2017-10-15T07:11:23.999Z</time>
      </trkpt>
      <trkpt lat="47.52862" lon="6.7682">
        <ele>416.3</ele>
        <time>2017-10-15T07:11:25.999Z</time>
      </trkpt>
      <trkpt lat="47.52864" lon="6.76822">
        <ele>416.2</ele>
        <time>2017-10-15T07:11:26.999Z</time>
      </trkpt>
      <trkpt lat="47.52868" lon="6.76822">
        <ele>416.1</ele>
        <time>2017-10-15T07:11:27.999Z</time>
      </trkpt>
      <trkpt lat="47.52871" lon="6.76823">
        <ele>416</ele>
        <time>2017-10-15T07:11:28.999Z</time>
      </trkpt>
      <trkpt lat="47.52873" lon="6.76822">
        <ele>415.9</ele>
        <time>2017-10-15T07:11:29.999Z</time>
      </trkpt>
      <trkpt lat="47.52876" lon="6.76821">
        <ele>415.7</ele>
        <time>2017-10-15T07:11:30.999Z</time>
      </trkpt>
      <trkpt lat="47.5288" lon="6.7682">
        <ele>415.5</ele>
        <time>2017-10-15T07:11:31.999Z</time>
      </trkpt>
      <trkpt lat="47.52883" lon="6.76819">
        <ele>415.2</ele>
        <time>2017-10-15T07:11:32.999Z</time>
      </trkpt>
      <trkpt lat="47.52888" lon="6.76817">
        <ele>412.9</ele>
        <time>2017-10-15T07:11:33.999Z</time>
      </trkpt>
      <trkpt lat="47.52895" lon="6.76815">
        <ele>411.9</ele>
        <time>2017-10-15T07:11:34.999Z</time>
      </trkpt>
      <trkpt lat="47.52901" lon="6.76818">
        <ele>410.9</ele>
        <time>2017-10-15T07:11:35.999Z</time>
      </trkpt>
      <trkpt lat="47.52906" lon="6.76819">
        <ele>410.8</ele>
        <time>2017-10-15T07:11:36.999Z</time>
      </trkpt>
      <trkpt lat="47.52911" lon="6.76821">
        <ele>410.7</ele>
        <time>2017-10-15T07:11:37.999Z</time>
      </trkpt>
      <trkpt lat="47.52915" lon="6.76822">
        <ele>410.5</ele>
        <time>2017-10-15T07:11:38.999Z</time>
      </trkpt>
      <trkpt lat="47.52918" lon="6.76823">
        <ele>410.3</ele>
        <time>2017-10-15T07:11:39.999Z</time>
      </trkpt>
      <trkpt lat="47.52922" lon="6.76825">
        <ele>410.1</ele>
        <time>2017-10-15T07:11:40.999Z</time>
      </trkpt>
      <trkpt lat="47.52926" lon="6.76825">
        <ele>409.8</ele>
        <time>2017-10-15T07:11:41.999Z</time>
      </trkpt>
      <trkpt lat="47.52929" lon="6.76825">
        <ele>409.6</ele>
        <time>2017-10-15T07:11:42.999Z</time>
      </trkpt>
      <trkpt lat="47.52933" lon="6.76825">
        <ele>409.2</ele>
        <time>2017-10-15T07:11:44.999Z</time>
      </trkpt>
      <trkpt lat="47.52934" lon="6.76824">
        <ele>408.9</ele>
        <time>2017-10-15T07:11:45.999Z</time>
      </trkpt>
      <trkpt lat="47.52934" lon="6.76824">
        <ele>407.9</ele>
        <time>2017-10-15T07:11:49.999Z</time>
      </trkpt>
      <trkpt lat="47.52945" lon="6.76812">
        <ele>407.6</ele>
        <time>2017-10-15T07:11:50.999Z</time>
      </trkpt>
      <trkpt lat="47.52947" lon="6.76808">
        <ele>407.4</ele>
        <time>2017-10-15T07:11:51.999Z</time>
      </trkpt>
      <trkpt lat="47.52949" lon="6.76805">
        <ele>407.2</ele>
        <time>2017-10-15T07:11:52.999Z</time>
      </trkpt>
      <trkpt lat="47.5295" lon="6.768">
        <ele>407.1</ele>
        <time>2017-10-15T07:11:53.999Z</time>
      </trkpt>
      <trkpt lat="47.52951" lon="6.76796">
        <ele>407.1</ele>
        <time>2017-10-15T07:11:54.999Z</time>
      </trkpt>
      <trkpt lat="47.52952" lon="6.76792">
        <ele>407.1</ele>
        <time>2017-10-15T07:11:55.999Z</time>
      </trkpt>
      <trkpt lat="47.52953" lon="6.76787">
        <ele>407</ele>
        <time>2017-10-15T07:11:56.999Z</time>
      </trkpt>
      <trkpt lat="47.52955" lon="6.76781">
        <ele>407</ele>
        <time>2017-10-15T07:11:57.999Z</time>
      </trkpt>
      <trkpt lat="47.52957" lon="6.76778">
        <ele>406.9</ele>
        <time>2017-10-15T07:11:58.999Z</time>
      </trkpt>
      <trkpt lat="47.52961" lon="6.76774">
        <ele>406.9</ele>
        <time>2017-10-15T07:11:59.999Z</time>
      </trkpt>
      <trkpt lat="47.52966" lon="6.7677">
        <ele>406.1</ele>
        <time>2017-10-15T07:12:00.999Z</time>
      </trkpt>
      <trkpt lat="47.5297" lon="6.76766">
        <ele>405.4</ele>
        <time>2017-10-15T07:12:01.999Z</time>
      </trkpt>
      <trkpt lat="47.52973" lon="6.76765">
        <ele>405.3</ele>
        <time>2017-10-15T07:12:02.999Z</time>
      </trkpt>
      <trkpt lat="47.52975" lon="6.76763">
        <ele>405.1</ele>
        <time>2017-10-15T07:12:03.999Z</time>
      </trkpt>
      <trkpt lat="47.52978" lon="6.7676">
        <ele>405</ele>
        <time>2017-10-15T07:12:04.999Z</time>
      </trkpt>
      <trkpt lat="47.52982" lon="6.76757">
        <ele>404.9</ele>
        <time>2017-10-15T07:12:05.999Z</time>
      </trkpt>
      <trkpt lat="47.52985" lon="6.76755">
        <ele>404.8</ele>
        <time>2017-10-15T07:12:06.999Z</time>
      </trkpt>
      <trkpt lat="47.52988" lon="6.76753">
        <ele>404.6</ele>
        <time>2017-10-15T07:12:07.999Z</time>
      </trkpt>
      <trkpt lat="47.52991" lon="6.7675">
        <ele>404.4</ele>
        <time>2017-10-15T07:12:08.999Z</time>
      </trkpt>
      <trkpt lat="47.52994" lon="6.76746">
        <ele>404.1</ele>
        <time>2017-10-15T07:12:09.999Z</time>
      </trkpt>
      <trkpt lat="47.52997" lon="6.76742">
        <ele>403.9</ele>
        <time>2017-10-15T07:12:10.999Z</time>
      </trkpt>
      <trkpt lat="47.53001" lon="6.76738">
        <ele>403.7</ele>
        <time>2017-10-15T07:12:11.999Z</time>
      </trkpt>
      <trkpt lat="47.53004" lon="6.76734">
        <ele>403.5</ele>
        <time>2017-10-15T07:12:12.999Z</time>
      </trkpt>
      <trkpt lat="47.53008" lon="6.76731">
        <ele>403.4</ele>
        <time>2017-10-15T07:12:13.999Z</time>
      </trkpt>
      <trkpt lat="47.53013" lon="6.76725">
        <ele>403.3</ele>
        <time>2017-10-15T07:12:14.999Z</time>
      </trkpt>
      <trkpt lat="47.53017" lon="6.7672">
        <ele>403.1</ele>
        <time>2017-10-15T07:12:15.999Z</time>
      </trkpt>
      <trkpt lat="47.5302" lon="6.76715">
        <ele>403</ele>
        <time>2017-10-15T07:12:16.999Z</time>
      </trkpt>
      <trkpt lat="47.53024" lon="6.7671">
        <ele>403</ele>
        <time>2017-10-15T07:12:17.999Z</time>
      </trkpt>
      <trkpt lat="47.53028" lon="6.76704">
        <ele>402.9</ele>
        <time>2017-10-15T07:12:18.999Z</time>
      </trkpt>
      <trkpt lat="47.5303" lon="6.76699">
        <ele>402.8</ele>
        <time>2017-10-15T07:12:19.999Z</time>
      </trkpt>
      <trkpt lat="47.53032" lon="6.76695">
        <ele>402.7</ele>
        <time>2017-10-15T07:12:20.999Z</time>
      </trkpt>
      <trkpt lat="47.53033" lon="6.76691">
        <ele>402.7</ele>
        <time>2017-10-15T07:12:21.999Z</time>
      </trkpt>
      <trkpt lat="47.53034" lon="6.76687">
        <ele>402.7</ele>
        <time>2017-10-15T07:12:22.999Z</time>
      </trkpt>
      <trkpt lat="47.53034" lon="6.76687">
        <ele>402.7</ele>
        <time>2017-10-15T07:12:24.999Z</time>
      </trkpt>
      <trkpt lat="47.5304" lon="6.76676">
        <ele>402.7</ele>
        <time>2017-10-15T07:12:25.999Z</time>
      </trkpt>
      <trkpt lat="47.53041" lon="6.76672">
        <ele>402.8</ele>
        <time>2017-10-15T07:12:28.999Z</time>
      </trkpt>
      <trkpt lat="47.53051" lon="6.76659">
        <ele>402.9</ele>
        <time>2017-10-15T07:12:29.999Z</time>
      </trkpt>
      <trkpt lat="47.53055" lon="6.76654">
        <ele>402.9</ele>
        <time>2017-10-15T07:12:30.999Z</time>
      </trkpt>
      <trkpt lat="47.53059" lon="6.7665">
        <ele>402.9</ele>
        <time>2017-10-15T07:12:31.999Z</time>
      </trkpt>
      <trkpt lat="47.53064" lon="6.76645">
        <ele>403</ele>
        <time>2017-10-15T07:12:32.999Z</time>
      </trkpt>
      <trkpt lat="47.53064" lon="6.76645">
        <ele>403</ele>
        <time>2017-10-15T07:12:34.999Z</time>
      </trkpt>
      <trkpt lat="47.53084" lon="6.76643">
        <ele>403.9</ele>
        <time>2017-10-15T07:12:35.999Z</time>
      </trkpt>
      <trkpt lat="47.53093" lon="6.76646">
        <ele>404</ele>
        <time>2017-10-15T07:12:36.999Z</time>
      </trkpt>
      <trkpt lat="47.53101" lon="6.7665">
        <ele>404</ele>
        <time>2017-10-15T07:12:37.999Z</time>
      </trkpt>
      <trkpt lat="47.5311" lon="6.76653">
        <ele>403.3</ele>
        <time>2017-10-15T07:12:38.999Z</time>
      </trkpt>
      <trkpt lat="47.53123" lon="6.76656">
        <ele>402.8</ele>
        <time>2017-10-15T07:12:39.999Z</time>
      </trkpt>
      <trkpt lat="47.53133" lon="6.76659">
        <ele>401.3</ele>
        <time>2017-10-15T07:12:40.999Z</time>
      </trkpt>
      <trkpt lat="47.53141" lon="6.76663">
        <ele>400.4</ele>
        <time>2017-10-15T07:12:41.999Z</time>
      </trkpt>
      <trkpt lat="47.53146" lon="6.76669">
        <ele>400.8</ele>
        <time>2017-10-15T07:12:42.999Z</time>
      </trkpt>
      <trkpt lat="47.53152" lon="6.76674">
        <ele>402.4</ele>
        <time>2017-10-15T07:12:43.999Z</time>
      </trkpt>
      <trkpt lat="47.53158" lon="6.76679">
        <ele>402.1</ele>
        <time>2017-10-15T07:12:44.999Z</time>
      </trkpt>
      <trkpt lat="47.53164" lon="6.76684">
        <ele>400.6</ele>
        <time>2017-10-15T07:12:45.999Z</time>
      </trkpt>
      <trkpt lat="47.5317" lon="6.76688">
        <ele>400.4</ele>
        <time>2017-10-15T07:12:46.999Z</time>
      </trkpt>
      <trkpt lat="47.53177" lon="6.76693">
        <ele>400.3</ele>
        <time>2017-10-15T07:12:47.999Z</time>
      </trkpt>
      <trkpt lat="47.53182" lon="6.76698">
        <ele>400.3</ele>
        <time>2017-10-15T07:12:48.999Z</time>
      </trkpt>
      <trkpt lat="47.53187" lon="6.76703">
        <ele>400.4</ele>
        <time>2017-10-15T07:12:49.999Z</time>
      </trkpt>
      <trkpt lat="47.53191" lon="6.76707">
        <ele>400.5</ele>
        <time>2017-10-15T07:12:50.999Z</time>
      </trkpt>
      <trkpt lat="47.53197" lon="6.7671">
        <ele>400.4</ele>
        <time>2017-10-15T07:12:51.999Z</time>
      </trkpt>
      <trkpt lat="47.53202" lon="6.76712">
        <ele>399.5</ele>
        <time>2017-10-15T07:12:52.999Z</time>
      </trkpt>
      <trkpt lat="47.53208" lon="6.76712">
        <ele>399.9</ele>
        <time>2017-10-15T07:12:53.999Z</time>
      </trkpt>
      <trkpt lat="47.53213" lon="6.76713">
        <ele>400.7</ele>
        <time>2017-10-15T07:12:54.999Z</time>
      </trkpt>
      <trkpt lat="47.53217" lon="6.76715">
        <ele>400.7</ele>
        <time>2017-10-15T07:12:55.999Z</time>
      </trkpt>
      <trkpt lat="47.53221" lon="6.76718">
        <ele>400.6</ele>
        <time>2017-10-15T07:12:56.999Z</time>
      </trkpt>
      <trkpt lat="47.53225" lon="6.76721">
        <ele>400.5</ele>
        <time>2017-10-15T07:12:57.999Z</time>
      </trkpt>
      <trkpt lat="47.5323" lon="6.76724">
        <ele>400.4</ele>
        <time>2017-10-15T07:12:58.999Z</time>
      </trkpt>
      <trkpt lat="47.53235" lon="6.76726">
        <ele>398.6</ele>
        <time>2017-10-15T07:12:59.999Z</time>
      </trkpt>
      <trkpt lat="47.53239" lon="6.76728">
        <ele>398.4</ele>
        <time>2017-10-15T07:13:00.999Z</time>
      </trkpt>
      <trkpt lat="47.53242" lon="6.76732">
        <ele>398.2</ele>
        <time>2017-10-15T07:13:01.999Z</time>
      </trkpt>
      <trkpt lat="47.53242" lon="6.76732">
        <ele>398.2</ele>
        <time>2017-10-15T07:13:03.999Z</time>
      </trkpt>
      <trkpt lat="47.53255" lon="6.76742">
        <ele>398.1</ele>
        <time>2017-10-15T07:13:04.999Z</time>
      </trkpt>
      <trkpt lat="47.53259" lon="6.76745">
        <ele>398</ele>
        <time>2017-10-15T07:13:05.999Z</time>
      </trkpt>
      <trkpt lat="47.53265" lon="6.7675">
        <ele>397.8</ele>
        <time>2017-10-15T07:13:06.999Z</time>
      </trkpt>
      <trkpt lat="47.5327" lon="6.76753">
        <ele>397.6</ele>
        <time>2017-10-15T07:13:07.999Z</time>
      </trkpt>
      <trkpt lat="47.53277" lon="6.76758">
        <ele>397.3</ele>
        <time>2017-10-15T07:13:08.999Z</time>
      </trkpt>
      <trkpt lat="47.53281" lon="6.7676">
        <ele>397.2</ele>
        <time>2017-10-15T07:13:09.999Z</time>
      </trkpt>
      <trkpt lat="47.53284" lon="6.76765">
        <ele>397.1</ele>
        <time>2017-10-15T07:13:10.999Z</time>
      </trkpt>
      <trkpt lat="47.53288" lon="6.76768">
        <ele>397.1</ele>
        <time>2017-10-15T07:13:11.999Z</time>
      </trkpt>
      <trkpt lat="47.53294" lon="6.76772">
        <ele>397.2</ele>
        <time>2017-10-15T07:13:12.999Z</time>
      </trkpt>
      <trkpt lat="47.53299" lon="6.76774">
        <ele>397.3</ele>
        <time>2017-10-15T07:13:13.999Z</time>
      </trkpt>
      <trkpt lat="47.53304" lon="6.76776">
        <ele>397.3</ele>
        <time>2017-10-15T07:13:14.999Z</time>
      </trkpt>
      <trkpt lat="47.53309" lon="6.76779">
        <ele>397.4</ele>
        <time>2017-10-15T07:13:15.999Z</time>
      </trkpt>
      <trkpt lat="47.53313" lon="6.76782">
        <ele>397.6</ele>
        <time>2017-10-15T07:13:16.999Z</time>
      </trkpt>
      <trkpt lat="47.53318" lon="6.76786">
        <ele>397.8</ele>
        <time>2017-10-15T07:13:17.999Z</time>
      </trkpt>
      <trkpt lat="47.53322" lon="6.7679">
        <ele>398.2</ele>
        <time>2017-10-15T07:13:18.999Z</time>
      </trkpt>
      <trkpt lat="47.53326" lon="6.76795">
        <ele>398.5</ele>
        <time>2017-10-15T07:13:19.999Z</time>
      </trkpt>
      <trkpt lat="47.53329" lon="6.76799">
        <ele>398.8</ele>
        <time>2017-10-15T07:13:20.999Z</time>
      </trkpt>
      <trkpt lat="47.53333" lon="6.76802">
        <ele>399</ele>
        <time>2017-10-15T07:13:21.999Z</time>
      </trkpt>
      <trkpt lat="47.53338" lon="6.76806">
        <ele>399.3</ele>
        <time>2017-10-15T07:13:22.999Z</time>
      </trkpt>
      <trkpt lat="47.53342" lon="6.7681">
        <ele>399.6</ele>
        <time>2017-10-15T07:13:23.999Z</time>
      </trkpt>
      <trkpt lat="47.53345" lon="6.76813">
        <ele>399.8</ele>
        <time>2017-10-15T07:13:24.999Z</time>
      </trkpt>
      <trkpt lat="47.53347" lon="6.76815">
        <ele>399.9</ele>
        <time>2017-10-15T07:13:25.999Z</time>
      </trkpt>
      <trkpt lat="47.5335" lon="6.76818">
        <ele>400</ele>
        <time>2017-10-15T07:13:26.999Z</time>
      </trkpt>
      <trkpt lat="47.53353" lon="6.76821">
        <ele>400.1</ele>
        <time>2017-10-15T07:13:27.999Z</time>
      </trkpt>
      <trkpt lat="47.53358" lon="6.76825">
        <ele>400.3</ele>
        <time>2017-10-15T07:13:28.999Z</time>
      </trkpt>
      <trkpt lat="47.53362" lon="6.7683">
        <ele>400.5</ele>
        <time>2017-10-15T07:13:29.999Z</time>
      </trkpt>
      <trkpt lat="47.53365" lon="6.76834">
        <ele>400.7</ele>
        <time>2017-10-15T07:13:30.999Z</time>
      </trkpt>
      <trkpt lat="47.53369" lon="6.76839">
        <ele>400.9</ele>
        <time>2017-10-15T07:13:31.999Z</time>
      </trkpt>
      <trkpt lat="47.53372" lon="6.76843">
        <ele>401.1</ele>
        <time>2017-10-15T07:13:32.999Z</time>
      </trkpt>
      <trkpt lat="47.53375" lon="6.76847">
        <ele>401.1</ele>
        <time>2017-10-15T07:13:33.999Z</time>
      </trkpt>
      <trkpt lat="47.53379" lon="6.7685">
        <ele>401.1</ele>
        <time>2017-10-15T07:13:34.999Z</time>
      </trkpt>
      <trkpt lat="47.53383" lon="6.76852">
        <ele>401.2</ele>
        <time>2017-10-15T07:13:35.999Z</time>
      </trkpt>
      <trkpt lat="47.53385" lon="6.76855">
        <ele>401.3</ele>
        <time>2017-10-15T07:13:36.999Z</time>
      </trkpt>
      <trkpt lat="47.53388" lon="6.76859">
        <ele>401.5</ele>
        <time>2017-10-15T07:13:37.999Z</time>
      </trkpt>
      <trkpt lat="47.53391" lon="6.76864">
        <ele>401.7</ele>
        <time>2017-10-15T07:13:38.999Z</time>
      </trkpt>
      <trkpt lat="47.53392" lon="6.76869">
        <ele>401.8</ele>
        <time>2017-10-15T07:13:39.999Z</time>
      </trkpt>
      <trkpt lat="47.53394" lon="6.76876">
        <ele>402</ele>
        <time>2017-10-15T07:13:40.999Z</time>
      </trkpt>
      <trkpt lat="47.53394" lon="6.76876">
        <ele>402</ele>
        <time>2017-10-15T07:13:42.999Z</time>
      </trkpt>
      <trkpt lat="47.53392" lon="6.769">
        <ele>403.5</ele>
        <time>2017-10-15T07:13:43.999Z</time>
      </trkpt>
      <trkpt lat="47.53392" lon="6.7691">
        <ele>404.8</ele>
        <time>2017-10-15T07:13:44.999Z</time>
      </trkpt>
      <trkpt lat="47.53392" lon="6.7692">
        <ele>404.9</ele>
        <time>2017-10-15T07:13:45.999Z</time>
      </trkpt>
      <trkpt lat="47.53393" lon="6.76934">
        <ele>404.7</ele>
        <time>2017-10-15T07:13:46.999Z</time>
      </trkpt>
      <trkpt lat="47.53394" lon="6.76947">
        <ele>404.5</ele>
        <time>2017-10-15T07:13:47.999Z</time>
      </trkpt>
      <trkpt lat="47.53394" lon="6.7696">
        <ele>404.2</ele>
        <time>2017-10-15T07:13:48.999Z</time>
      </trkpt>
      <trkpt lat="47.53394" lon="6.76971">
        <ele>404.2</ele>
        <time>2017-10-15T07:13:49.999Z</time>
      </trkpt>
      <trkpt lat="47.53395" lon="6.76981">
        <ele>404.2</ele>
        <time>2017-10-15T07:13:50.999Z</time>
      </trkpt>
      <trkpt lat="47.53393" lon="6.76991">
        <ele>404.5</ele>
        <time>2017-10-15T07:13:51.999Z</time>
      </trkpt>
      <trkpt lat="47.53391" lon="6.77002">
        <ele>404</ele>
        <time>2017-10-15T07:13:52.999Z</time>
      </trkpt>
      <trkpt lat="47.53388" lon="6.77016">
        <ele>404.4</ele>
        <time>2017-10-15T07:13:53.999Z</time>
      </trkpt>
      <trkpt lat="47.53387" lon="6.77027">
        <ele>405.4</ele>
        <time>2017-10-15T07:13:54.999Z</time>
      </trkpt>
      <trkpt lat="47.53387" lon="6.77038">
        <ele>406.4</ele>
        <time>2017-10-15T07:13:55.999Z</time>
      </trkpt>
      <trkpt lat="47.53388" lon="6.77049">
        <ele>407.3</ele>
        <time>2017-10-15T07:13:56.999Z</time>
      </trkpt>
      <trkpt lat="47.53388" lon="6.77058">
        <ele>407.5</ele>
        <time>2017-10-15T07:13:57.999Z</time>
      </trkpt>
      <trkpt lat="47.53388" lon="6.77068">
        <ele>406.6</ele>
        <time>2017-10-15T07:13:58.999Z</time>
      </trkpt>
      <trkpt lat="47.53389" lon="6.77077">
        <ele>406</ele>
        <time>2017-10-15T07:13:59.999Z</time>
      </trkpt>
      <trkpt lat="47.5339" lon="6.77086">
        <ele>406.7</ele>
        <time>2017-10-15T07:14:00.999Z</time>
      </trkpt>
      <trkpt lat="47.5339" lon="6.77096">
        <ele>407.1</ele>
        <time>2017-10-15T07:14:01.999Z</time>
      </trkpt>
      <trkpt lat="47.53391" lon="6.77106">
        <ele>407.1</ele>
        <time>2017-10-15T07:14:02.999Z</time>
      </trkpt>
      <trkpt lat="47.53392" lon="6.77117">
        <ele>408.3</ele>
        <time>2017-10-15T07:14:03.999Z</time>
      </trkpt>
      <trkpt lat="47.53394" lon="6.77135">
        <ele>409.8</ele>
        <time>2017-10-15T07:14:04.999Z</time>
      </trkpt>
      <trkpt lat="47.53392" lon="6.77146">
        <ele>410</ele>
        <time>2017-10-15T07:14:05.999Z</time>
      </trkpt>
      <trkpt lat="47.5339" lon="6.77155">
        <ele>411.1</ele>
        <time>2017-10-15T07:14:06.999Z</time>
      </trkpt>
      <trkpt lat="47.53389" lon="6.77164">
        <ele>412.4</ele>
        <time>2017-10-15T07:14:07.999Z</time>
      </trkpt>
      <trkpt lat="47.53388" lon="6.77171">
        <ele>412.5</ele>
        <time>2017-10-15T07:14:08.999Z</time>
      </trkpt>
      <trkpt lat="47.53388" lon="6.77178">
        <ele>412.5</ele>
        <time>2017-10-15T07:14:09.999Z</time>
      </trkpt>
      <trkpt lat="47.53387" lon="6.77186">
        <ele>412.6</ele>
        <time>2017-10-15T07:14:10.999Z</time>
      </trkpt>
      <trkpt lat="47.53387" lon="6.77194">
        <ele>412.7</ele>
        <time>2017-10-15T07:14:11.999Z</time>
      </trkpt>
      <trkpt lat="47.53387" lon="6.77202">
        <ele>412.9</ele>
        <time>2017-10-15T07:14:12.999Z</time>
      </trkpt>
      <trkpt lat="47.53387" lon="6.77209">
        <ele>413.1</ele>
        <time>2017-10-15T07:14:13.999Z</time>
      </trkpt>
      <trkpt lat="47.53387" lon="6.77216">
        <ele>413.3</ele>
        <time>2017-10-15T07:14:14.999Z</time>
      </trkpt>
      <trkpt lat="47.53389" lon="6.77223">
        <ele>413.4</ele>
        <time>2017-10-15T07:14:15.999Z</time>
      </trkpt>
      <trkpt lat="47.53392" lon="6.77226">
        <ele>413.5</ele>
        <time>2017-10-15T07:14:17.999Z</time>
      </trkpt>
      <trkpt lat="47.53393" lon="6.77227">
        <ele>413.4</ele>
        <time>2017-10-15T07:14:18.999Z</time>
      </trkpt>
      <trkpt lat="47.53397" lon="6.77228">
        <ele>413.5</ele>
        <time>2017-10-15T07:14:19.999Z</time>
      </trkpt>
      <trkpt lat="47.534" lon="6.77228">
        <ele>413.4</ele>
        <time>2017-10-15T07:14:20.999Z</time>
      </trkpt>
      <trkpt lat="47.53403" lon="6.77229">
        <ele>413.3</ele>
        <time>2017-10-15T07:14:21.999Z</time>
      </trkpt>
      <trkpt lat="47.53406" lon="6.7723">
        <ele>413.2</ele>
        <time>2017-10-15T07:14:22.999Z</time>
      </trkpt>
      <trkpt lat="47.53409" lon="6.77231">
        <ele>413.1</ele>
        <time>2017-10-15T07:14:23.999Z</time>
      </trkpt>
      <trkpt lat="47.53411" lon="6.77231">
        <ele>413</ele>
        <time>2017-10-15T07:14:24.999Z</time>
      </trkpt>
      <trkpt lat="47.53415" lon="6.77234">
        <ele>412.8</ele>
        <time>2017-10-15T07:14:26.999Z</time>
      </trkpt>
      <trkpt lat="47.53418" lon="6.77235">
        <ele>412.8</ele>
        <time>2017-10-15T07:14:27.999Z</time>
      </trkpt>
      <trkpt lat="47.5342" lon="6.77235">
        <ele>412.6</ele>
        <time>2017-10-15T07:14:29.999Z</time>
      </trkpt>
      <trkpt lat="47.53424" lon="6.77236">
        <ele>412.6</ele>
        <time>2017-10-15T07:14:30.999Z</time>
      </trkpt>
      <trkpt lat="47.53427" lon="6.77237">
        <ele>412.5</ele>
        <time>2017-10-15T07:14:33.999Z</time>
      </trkpt>
      <trkpt lat="47.53428" lon="6.77237">
        <ele>412.4</ele>
        <time>2017-10-15T07:14:34.999Z</time>
      </trkpt>
      <trkpt lat="47.53431" lon="6.77239">
        <ele>412.2</ele>
        <time>2017-10-15T07:14:36.999Z</time>
      </trkpt>
      <trkpt lat="47.53433" lon="6.77239">
        <ele>412.1</ele>
        <time>2017-10-15T07:14:37.999Z</time>
      </trkpt>
      <trkpt lat="47.53436" lon="6.7724">
        <ele>412.1</ele>
        <time>2017-10-15T07:14:39.999Z</time>
      </trkpt>
      <trkpt lat="47.53438" lon="6.7724">
        <ele>412</ele>
        <time>2017-10-15T07:14:40.999Z</time>
      </trkpt>
      <trkpt lat="47.53442" lon="6.77242">
        <ele>412</ele>
        <time>2017-10-15T07:14:42.999Z</time>
      </trkpt>
      <trkpt lat="47.53446" lon="6.77244">
        <ele>412.1</ele>
        <time>2017-10-15T07:14:43.999Z</time>
      </trkpt>
      <trkpt lat="47.5345" lon="6.77246">
        <ele>412.4</ele>
        <time>2017-10-15T07:14:45.999Z</time>
      </trkpt>
      <trkpt lat="47.53452" lon="6.77247">
        <ele>412.5</ele>
        <time>2017-10-15T07:14:46.999Z</time>
      </trkpt>
      <trkpt lat="47.53455" lon="6.77249">
        <ele>412.8</ele>
        <time>2017-10-15T07:14:48.999Z</time>
      </trkpt>
      <trkpt lat="47.53456" lon="6.7725">
        <ele>412.9</ele>
        <time>2017-10-15T07:14:49.999Z</time>
      </trkpt>
      <trkpt lat="47.53456" lon="6.7725">
        <ele>413.4</ele>
        <time>2017-10-15T07:14:53.999Z</time>
      </trkpt>
      <trkpt lat="47.53463" lon="6.77253">
        <ele>413.5</ele>
        <time>2017-10-15T07:14:54.999Z</time>
      </trkpt>
      <trkpt lat="47.53466" lon="6.77256">
        <ele>413.6</ele>
        <time>2017-10-15T07:14:56.999Z</time>
      </trkpt>
      <trkpt lat="47.53468" lon="6.77257">
        <ele>413.7</ele>
        <time>2017-10-15T07:14:57.999Z</time>
      </trkpt>
      <trkpt lat="47.53471" lon="6.77257">
        <ele>413.9</ele>
        <time>2017-10-15T07:14:59.999Z</time>
      </trkpt>
      <trkpt lat="47.53472" lon="6.77257">
        <ele>414</ele>
        <time>2017-10-15T07:15:00.999Z</time>
      </trkpt>
      <trkpt lat="47.53472" lon="6.77257">
        <ele>414.5</ele>
        <time>2017-10-15T07:15:06.999Z</time>
      </trkpt>
      <trkpt lat="47.53483" lon="6.77263">
        <ele>414.6</ele>
        <time>2017-10-15T07:15:07.999Z</time>
      </trkpt>
      <trkpt lat="47.53483" lon="6.77263">
        <ele>414.7</ele>
        <time>2017-10-15T07:15:10.999Z</time>
      </trkpt>
      <trkpt lat="47.53489" lon="6.77265">
        <ele>414.8</ele>
        <time>2017-10-15T07:15:11.999Z</time>
      </trkpt>
      <trkpt lat="47.53492" lon="6.77267">
        <ele>414.7</ele>
        <time>2017-10-15T07:15:14.999Z</time>
      </trkpt>
      <trkpt lat="47.53494" lon="6.77269">
        <ele>414.8</ele>
        <time>2017-10-15T07:15:15.999Z</time>
      </trkpt>
      <trkpt lat="47.53496" lon="6.77271">
        <ele>414.8</ele>
        <time>2017-10-15T07:15:17.999Z</time>
      </trkpt>
      <trkpt lat="47.53498" lon="6.77273">
        <ele>414.8</ele>
        <time>2017-10-15T07:15:18.999Z</time>
      </trkpt>
      <trkpt lat="47.535" lon="6.77277">
        <ele>414.8</ele>
        <time>2017-10-15T07:15:20.999Z</time>
      </trkpt>
      <trkpt lat="47.53502" lon="6.7728">
        <ele>414.9</ele>
        <time>2017-10-15T07:15:21.999Z</time>
      </trkpt>
      <trkpt lat="47.53505" lon="6.77283">
        <ele>415.1</ele>
        <time>2017-10-15T07:15:23.999Z</time>
      </trkpt>
      <trkpt lat="47.53506" lon="6.77285">
        <ele>415.1</ele>
        <time>2017-10-15T07:15:24.999Z</time>
      </trkpt>
      <trkpt lat="47.53508" lon="6.77288">
        <ele>415.1</ele>
        <time>2017-10-15T07:15:26.999Z</time>
      </trkpt>
      <trkpt lat="47.5351" lon="6.7729">
        <ele>415.3</ele>
        <time>2017-10-15T07:15:27.999Z</time>
      </trkpt>
      <trkpt lat="47.53513" lon="6.77294">
        <ele>415.4</ele>
        <time>2017-10-15T07:15:29.999Z</time>
      </trkpt>
      <trkpt lat="47.53515" lon="6.77295">
        <ele>415.5</ele>
        <time>2017-10-15T07:15:30.999Z</time>
      </trkpt>
      <trkpt lat="47.53517" lon="6.77298">
        <ele>415.5</ele>
        <time>2017-10-15T07:15:31.999Z</time>
      </trkpt>
      <trkpt lat="47.53519" lon="6.77301">
        <ele>415.5</ele>
        <time>2017-10-15T07:15:32.999Z</time>
      </trkpt>
      <trkpt lat="47.53523" lon="6.77305">
        <ele>415.4</ele>
        <time>2017-10-15T07:15:34.999Z</time>
      </trkpt>
      <trkpt lat="47.53524" lon="6.77307">
        <ele>415.3</ele>
        <time>2017-10-15T07:15:35.999Z</time>
      </trkpt>
      <trkpt lat="47.53526" lon="6.77309">
        <ele>415.2</ele>
        <time>2017-10-15T07:15:36.999Z</time>
      </trkpt>
      <trkpt lat="47.53528" lon="6.77312">
        <ele>415.1</ele>
        <time>2017-10-15T07:15:37.999Z</time>
      </trkpt>
      <trkpt lat="47.5353" lon="6.77314">
        <ele>415.1</ele>
        <time>2017-10-15T07:15:38.999Z</time>
      </trkpt>
      <trkpt lat="47.53532" lon="6.77316">
        <ele>415</ele>
        <time>2017-10-15T07:15:39.999Z</time>
      </trkpt>
      <trkpt lat="47.53534" lon="6.77319">
        <ele>415</ele>
        <time>2017-10-15T07:15:40.999Z</time>
      </trkpt>
      <trkpt lat="47.53535" lon="6.77322">
        <ele>415</ele>
        <time>2017-10-15T07:15:41.999Z</time>
      </trkpt>
      <trkpt lat="47.53537" lon="6.77326">
        <ele>414.9</ele>
        <time>2017-10-15T07:15:42.999Z</time>
      </trkpt>
      <trkpt lat="47.53538" lon="6.77329">
        <ele>414.8</ele>
        <time>2017-10-15T07:15:43.999Z</time>
      </trkpt>
      <trkpt lat="47.5354" lon="6.77331">
        <ele>414.7</ele>
        <time>2017-10-15T07:15:44.999Z</time>
      </trkpt>
      <trkpt lat="47.53542" lon="6.77333">
        <ele>414.5</ele>
        <time>2017-10-15T07:15:45.999Z</time>
      </trkpt>
      <trkpt lat="47.53544" lon="6.77336">
        <ele>414.3</ele>
        <time>2017-10-15T07:15:46.999Z</time>
      </trkpt>
      <trkpt lat="47.53546" lon="6.77339">
        <ele>414.1</ele>
        <time>2017-10-15T07:15:47.999Z</time>
      </trkpt>
      <trkpt lat="47.53548" lon="6.77342">
        <ele>414</ele>
        <time>2017-10-15T07:15:48.999Z</time>
      </trkpt>
      <trkpt lat="47.53551" lon="6.77344">
        <ele>414</ele>
        <time>2017-10-15T07:15:49.999Z</time>
      </trkpt>
      <trkpt lat="47.53553" lon="6.77346">
        <ele>414</ele>
        <time>2017-10-15T07:15:50.999Z</time>
      </trkpt>
      <trkpt lat="47.53556" lon="6.77346">
        <ele>414</ele>
        <time>2017-10-15T07:15:51.999Z</time>
      </trkpt>
      <trkpt lat="47.53558" lon="6.77347">
        <ele>413.9</ele>
        <time>2017-10-15T07:15:52.999Z</time>
      </trkpt>
      <trkpt lat="47.5356" lon="6.77349">
        <ele>413.7</ele>
        <time>2017-10-15T07:15:53.999Z</time>
      </trkpt>
      <trkpt lat="47.53563" lon="6.77352">
        <ele>413.5</ele>
        <time>2017-10-15T07:15:54.999Z</time>
      </trkpt>
      <trkpt lat="47.53565" lon="6.77354">
        <ele>413.4</ele>
        <time>2017-10-15T07:15:55.999Z</time>
      </trkpt>
      <trkpt lat="47.53567" lon="6.77356">
        <ele>413.3</ele>
        <time>2017-10-15T07:15:56.999Z</time>
      </trkpt>
      <trkpt lat="47.5357" lon="6.77359">
        <ele>413.1</ele>
        <time>2017-10-15T07:15:57.999Z</time>
      </trkpt>
      <trkpt lat="47.53573" lon="6.77362">
        <ele>412.7</ele>
        <time>2017-10-15T07:15:58.999Z</time>
      </trkpt>
      <trkpt lat="47.53575" lon="6.77365">
        <ele>412.3</ele>
        <time>2017-10-15T07:15:59.999Z</time>
      </trkpt>
      <trkpt lat="47.53578" lon="6.77368">
        <ele>411.9</ele>
        <time>2017-10-15T07:16:00.999Z</time>
      </trkpt>
      <trkpt lat="47.53581" lon="6.77372">
        <ele>411.5</ele>
        <time>2017-10-15T07:16:01.999Z</time>
      </trkpt>
      <trkpt lat="47.53583" lon="6.77376">
        <ele>411.2</ele>
        <time>2017-10-15T07:16:02.999Z</time>
      </trkpt>
      <trkpt lat="47.53586" lon="6.7738">
        <ele>410.7</ele>
        <time>2017-10-15T07:16:03.999Z</time>
      </trkpt>
      <trkpt lat="47.53591" lon="6.77385">
        <ele>410.3</ele>
        <time>2017-10-15T07:16:04.999Z</time>
      </trkpt>
      <trkpt lat="47.53594" lon="6.77388">
        <ele>409.9</ele>
        <time>2017-10-15T07:16:05.999Z</time>
      </trkpt>
      <trkpt lat="47.53598" lon="6.77392">
        <ele>409.7</ele>
        <time>2017-10-15T07:16:06.999Z</time>
      </trkpt>
      <trkpt lat="47.536" lon="6.77395">
        <ele>409.4</ele>
        <time>2017-10-15T07:16:07.999Z</time>
      </trkpt>
      <trkpt lat="47.53605" lon="6.774">
        <ele>409.2</ele>
        <time>2017-10-15T07:16:08.999Z</time>
      </trkpt>
      <trkpt lat="47.53609" lon="6.77404">
        <ele>409</ele>
        <time>2017-10-15T07:16:09.999Z</time>
      </trkpt>
      <trkpt lat="47.53613" lon="6.7741">
        <ele>408.8</ele>
        <time>2017-10-15T07:16:10.999Z</time>
      </trkpt>
      <trkpt lat="47.53617" lon="6.77417">
        <ele>408</ele>
        <time>2017-10-15T07:16:11.999Z</time>
      </trkpt>
      <trkpt lat="47.53622" lon="6.77427">
        <ele>407.4</ele>
        <time>2017-10-15T07:16:12.999Z</time>
      </trkpt>
      <trkpt lat="47.53625" lon="6.77434">
        <ele>406.3</ele>
        <time>2017-10-15T07:16:13.999Z</time>
      </trkpt>
      <trkpt lat="47.53629" lon="6.77443">
        <ele>405.3</ele>
        <time>2017-10-15T07:16:14.999Z</time>
      </trkpt>
      <trkpt lat="47.53632" lon="6.77449">
        <ele>405.2</ele>
        <time>2017-10-15T07:16:15.999Z</time>
      </trkpt>
      <trkpt lat="47.53635" lon="6.77453">
        <ele>405</ele>
        <time>2017-10-15T07:16:16.999Z</time>
      </trkpt>
      <trkpt lat="47.53638" lon="6.77459">
        <ele>403.6</ele>
        <time>2017-10-15T07:16:17.999Z</time>
      </trkpt>
      <trkpt lat="47.53642" lon="6.77466">
        <ele>402.4</ele>
        <time>2017-10-15T07:16:18.999Z</time>
      </trkpt>
      <trkpt lat="47.53646" lon="6.77472">
        <ele>402.6</ele>
        <time>2017-10-15T07:16:19.999Z</time>
      </trkpt>
      <trkpt lat="47.5365" lon="6.7748">
        <ele>402.7</ele>
        <time>2017-10-15T07:16:20.999Z</time>
      </trkpt>
      <trkpt lat="47.53654" lon="6.77486">
        <ele>403.4</ele>
        <time>2017-10-15T07:16:21.999Z</time>
      </trkpt>
      <trkpt lat="47.53659" lon="6.77494">
        <ele>403.2</ele>
        <time>2017-10-15T07:16:22.999Z</time>
      </trkpt>
      <trkpt lat="47.53663" lon="6.775">
        <ele>403.5</ele>
        <time>2017-10-15T07:16:23.999Z</time>
      </trkpt>
      <trkpt lat="47.53667" lon="6.77509">
        <ele>404.5</ele>
        <time>2017-10-15T07:16:24.999Z</time>
      </trkpt>
      <trkpt lat="47.53671" lon="6.77521">
        <ele>405.1</ele>
        <time>2017-10-15T07:16:25.999Z</time>
      </trkpt>
      <trkpt lat="47.53675" lon="6.7753">
        <ele>406.5</ele>
        <time>2017-10-15T07:16:26.999Z</time>
      </trkpt>
      <trkpt lat="47.53679" lon="6.77537">
        <ele>407</ele>
        <time>2017-10-15T07:16:27.999Z</time>
      </trkpt>
      <trkpt lat="47.53684" lon="6.77545">
        <ele>407.6</ele>
        <time>2017-10-15T07:16:28.999Z</time>
      </trkpt>
      <trkpt lat="47.5369" lon="6.77556">
        <ele>408</ele>
        <time>2017-10-15T07:16:29.999Z</time>
      </trkpt>
      <trkpt lat="47.53697" lon="6.77564">
        <ele>407.9</ele>
        <time>2017-10-15T07:16:30.999Z</time>
      </trkpt>
      <trkpt lat="47.53704" lon="6.77573">
        <ele>407.8</ele>
        <time>2017-10-15T07:16:31.999Z</time>
      </trkpt>
      <trkpt lat="47.5371" lon="6.77583">
        <ele>408.4</ele>
        <time>2017-10-15T07:16:32.999Z</time>
      </trkpt>
      <trkpt lat="47.53714" lon="6.77596">
        <ele>408.7</ele>
        <time>2017-10-15T07:16:33.999Z</time>
      </trkpt>
      <trkpt lat="47.53719" lon="6.77608">
        <ele>409.8</ele>
        <time>2017-10-15T07:16:34.999Z</time>
      </trkpt>
      <trkpt lat="47.53723" lon="6.77621">
        <ele>411.2</ele>
        <time>2017-10-15T07:16:35.999Z</time>
      </trkpt>
      <trkpt lat="47.53727" lon="6.77635">
        <ele>412.2</ele>
        <time>2017-10-15T07:16:36.999Z</time>
      </trkpt>
      <trkpt lat="47.53731" lon="6.77648">
        <ele>412.1</ele>
        <time>2017-10-15T07:16:37.999Z</time>
      </trkpt>
      <trkpt lat="47.53736" lon="6.77661">
        <ele>412.8</ele>
        <time>2017-10-15T07:16:38.999Z</time>
      </trkpt>
      <trkpt lat="47.53742" lon="6.77675">
        <ele>412.4</ele>
        <time>2017-10-15T07:16:39.999Z</time>
      </trkpt>
      <trkpt lat="47.53746" lon="6.77691">
        <ele>412.6</ele>
        <time>2017-10-15T07:16:40.999Z</time>
      </trkpt>
      <trkpt lat="47.53749" lon="6.77705">
        <ele>411.7</ele>
        <time>2017-10-15T07:16:41.999Z</time>
      </trkpt>
      <trkpt lat="47.53755" lon="6.77715">
        <ele>410.3</ele>
        <time>2017-10-15T07:16:42.999Z</time>
      </trkpt>
      <trkpt lat="47.53761" lon="6.77724">
        <ele>409.3</ele>
        <time>2017-10-15T07:16:43.999Z</time>
      </trkpt>
      <trkpt lat="47.53767" lon="6.77731">
        <ele>408.1</ele>
        <time>2017-10-15T07:16:44.999Z</time>
      </trkpt>
      <trkpt lat="47.53774" lon="6.77729">
        <ele>407.6</ele>
        <time>2017-10-15T07:16:45.999Z</time>
      </trkpt>
      <trkpt lat="47.53779" lon="6.77724">
        <ele>407.2</ele>
        <time>2017-10-15T07:16:46.999Z</time>
      </trkpt>
      <trkpt lat="47.53783" lon="6.7772">
        <ele>406.2</ele>
        <time>2017-10-15T07:16:47.999Z</time>
      </trkpt>
      <trkpt lat="47.53789" lon="6.77713">
        <ele>404.7</ele>
        <time>2017-10-15T07:16:48.999Z</time>
      </trkpt>
      <trkpt lat="47.53795" lon="6.77709">
        <ele>403</ele>
        <time>2017-10-15T07:16:49.999Z</time>
      </trkpt>
      <trkpt lat="47.53799" lon="6.77706">
        <ele>401.6</ele>
        <time>2017-10-15T07:16:50.999Z</time>
      </trkpt>
      <trkpt lat="47.53803" lon="6.77702">
        <ele>399.2</ele>
        <time>2017-10-15T07:16:51.999Z</time>
      </trkpt>
      <trkpt lat="47.53808" lon="6.77697">
        <ele>397.7</ele>
        <time>2017-10-15T07:16:52.999Z</time>
      </trkpt>
      <trkpt lat="47.53813" lon="6.77693">
        <ele>397.7</ele>
        <time>2017-10-15T07:16:53.999Z</time>
      </trkpt>
      <trkpt lat="47.53818" lon="6.77689">
        <ele>397.7</ele>
        <time>2017-10-15T07:16:54.999Z</time>
      </trkpt>
      <trkpt lat="47.53824" lon="6.77687">
        <ele>396.9</ele>
        <time>2017-10-15T07:16:55.999Z</time>
      </trkpt>
      <trkpt lat="47.53829" lon="6.77684">
        <ele>396.9</ele>
        <time>2017-10-15T07:16:56.999Z</time>
      </trkpt>
      <trkpt lat="47.53832" lon="6.77681">
        <ele>396.9</ele>
        <time>2017-10-15T07:16:57.999Z</time>
      </trkpt>
      <trkpt lat="47.53835" lon="6.77678">
        <ele>396.8</ele>
        <time>2017-10-15T07:16:58.999Z</time>
      </trkpt>
      <trkpt lat="47.53838" lon="6.77675">
        <ele>396.8</ele>
        <time>2017-10-15T07:16:59.999Z</time>
      </trkpt>
      <trkpt lat="47.53841" lon="6.77673">
        <ele>396.8</ele>
        <time>2017-10-15T07:17:00.999Z</time>
      </trkpt>
      <trkpt lat="47.53845" lon="6.77669">
        <ele>396.8</ele>
        <time>2017-10-15T07:17:01.999Z</time>
      </trkpt>
      <trkpt lat="47.53849" lon="6.77666">
        <ele>396.7</ele>
        <time>2017-10-15T07:17:02.999Z</time>
      </trkpt>
      <trkpt lat="47.53852" lon="6.77664">
        <ele>396.6</ele>
        <time>2017-10-15T07:17:03.999Z</time>
      </trkpt>
      <trkpt lat="47.53856" lon="6.77661">
        <ele>396.5</ele>
        <time>2017-10-15T07:17:04.999Z</time>
      </trkpt>
      <trkpt lat="47.53858" lon="6.77659">
        <ele>396.5</ele>
        <time>2017-10-15T07:17:05.999Z</time>
      </trkpt>
      <trkpt lat="47.53861" lon="6.77656">
        <ele>396.4</ele>
        <time>2017-10-15T07:17:06.999Z</time>
      </trkpt>
      <trkpt lat="47.53864" lon="6.77653">
        <ele>396.3</ele>
        <time>2017-10-15T07:17:07.999Z</time>
      </trkpt>
      <trkpt lat="47.53866" lon="6.77651">
        <ele>396.1</ele>
        <time>2017-10-15T07:17:08.999Z</time>
      </trkpt>
      <trkpt lat="47.53868" lon="6.77649">
        <ele>396.1</ele>
        <time>2017-10-15T07:17:09.999Z</time>
      </trkpt>
      <trkpt lat="47.5387" lon="6.77647">
        <ele>396</ele>
        <time>2017-10-15T07:17:10.999Z</time>
      </trkpt>
      <trkpt lat="47.53872" lon="6.77645">
        <ele>396</ele>
        <time>2017-10-15T07:17:11.999Z</time>
      </trkpt>
      <trkpt lat="47.53876" lon="6.77642">
        <ele>396</ele>
        <time>2017-10-15T07:17:22.999Z</time>
      </trkpt>
      <trkpt lat="47.53867" lon="6.77652">
        <ele>396</ele>
        <time>2017-10-15T07:17:23.999Z</time>
      </trkpt>
      <trkpt lat="47.53863" lon="6.77655">
        <ele>395.9</ele>
        <time>2017-10-15T07:17:24.999Z</time>
      </trkpt>
      <trkpt lat="47.53859" lon="6.7766">
        <ele>395.6</ele>
        <time>2017-10-15T07:17:25.999Z</time>
      </trkpt>
      <trkpt lat="47.53855" lon="6.77665">
        <ele>395.7</ele>
        <time>2017-10-15T07:17:26.999Z</time>
      </trkpt>
      <trkpt lat="47.53852" lon="6.77669">
        <ele>395.1</ele>
        <time>2017-10-15T07:17:27.999Z</time>
      </trkpt>
      <trkpt lat="47.53849" lon="6.77671">
        <ele>395</ele>
        <time>2017-10-15T07:17:28.999Z</time>
      </trkpt>
      <trkpt lat="47.53846" lon="6.77674">
        <ele>394.9</ele>
        <time>2017-10-15T07:17:29.999Z</time>
      </trkpt>
      <trkpt lat="47.53844" lon="6.77677">
        <ele>394.8</ele>
        <time>2017-10-15T07:17:30.999Z</time>
      </trkpt>
      <trkpt lat="47.53841" lon="6.7768">
        <ele>394.5</ele>
        <time>2017-10-15T07:17:31.999Z</time>
      </trkpt>
      <trkpt lat="47.53839" lon="6.77682">
        <ele>394.1</ele>
        <time>2017-10-15T07:17:32.999Z</time>
      </trkpt>
      <trkpt lat="47.53837" lon="6.77684">
        <ele>393.9</ele>
        <time>2017-10-15T07:17:33.999Z</time>
      </trkpt>
      <trkpt lat="47.53834" lon="6.77686">
        <ele>393.5</ele>
        <time>2017-10-15T07:17:34.999Z</time>
      </trkpt>
      <trkpt lat="47.53831" lon="6.77689">
        <ele>393.2</ele>
        <time>2017-10-15T07:17:35.999Z</time>
      </trkpt>
      <trkpt lat="47.53827" lon="6.77692">
        <ele>392.9</ele>
        <time>2017-10-15T07:17:36.999Z</time>
      </trkpt>
      <trkpt lat="47.53822" lon="6.77696">
        <ele>392.6</ele>
        <time>2017-10-15T07:17:37.999Z</time>
      </trkpt>
      <trkpt lat="47.53817" lon="6.777">
        <ele>392.4</ele>
        <time>2017-10-15T07:17:38.999Z</time>
      </trkpt>
      <trkpt lat="47.53814" lon="6.77705">
        <ele>392.4</ele>
        <time>2017-10-15T07:17:39.999Z</time>
      </trkpt>
      <trkpt lat="47.53812" lon="6.7771">
        <ele>392.4</ele>
        <time>2017-10-15T07:17:40.999Z</time>
      </trkpt>
      <trkpt lat="47.53811" lon="6.77716">
        <ele>392.4</ele>
        <time>2017-10-15T07:17:41.999Z</time>
      </trkpt>
      <trkpt lat="47.53812" lon="6.77723">
        <ele>392.6</ele>
        <time>2017-10-15T07:17:42.999Z</time>
      </trkpt>
      <trkpt lat="47.53812" lon="6.7773">
        <ele>393.7</ele>
        <time>2017-10-15T07:17:43.999Z</time>
      </trkpt>
      <trkpt lat="47.53813" lon="6.77739">
        <ele>394.7</ele>
        <time>2017-10-15T07:17:44.999Z</time>
      </trkpt>
      <trkpt lat="47.53815" lon="6.77748">
        <ele>395.2</ele>
        <time>2017-10-15T07:17:45.999Z</time>
      </trkpt>
      <trkpt lat="47.53819" lon="6.77757">
        <ele>395.3</ele>
        <time>2017-10-15T07:17:46.999Z</time>
      </trkpt>
      <trkpt lat="47.53823" lon="6.77766">
        <ele>395.1</ele>
        <time>2017-10-15T07:17:47.999Z</time>
      </trkpt>
      <trkpt lat="47.53828" lon="6.77776">
        <ele>395.3</ele>
        <time>2017-10-15T07:17:48.999Z</time>
      </trkpt>
      <trkpt lat="47.53832" lon="6.77788">
        <ele>395.6</ele>
        <time>2017-10-15T07:17:49.999Z</time>
      </trkpt>
      <trkpt lat="47.53837" lon="6.77799">
        <ele>395.6</ele>
        <time>2017-10-15T07:17:50.999Z</time>
      </trkpt>
      <trkpt lat="47.53841" lon="6.7781">
        <ele>395.7</ele>
        <time>2017-10-15T07:17:51.999Z</time>
      </trkpt>
      <trkpt lat="47.53845" lon="6.7782">
        <ele>395.8</ele>
        <time>2017-10-15T07:17:52.999Z</time>
      </trkpt>
      <trkpt lat="47.53848" lon="6.7783">
        <ele>395.8</ele>
        <time>2017-10-15T07:17:53.999Z</time>
      </trkpt>
      <trkpt lat="47.53852" lon="6.77838">
        <ele>395.6</ele>
        <time>2017-10-15T07:17:54.999Z</time>
      </trkpt>
      <trkpt lat="47.53854" lon="6.77846">
        <ele>395.4</ele>
        <time>2017-10-15T07:17:55.999Z</time>
      </trkpt>
      <trkpt lat="47.53857" lon="6.77854">
        <ele>395.2</ele>
        <time>2017-10-15T07:17:56.999Z</time>
      </trkpt>
      <trkpt lat="47.53859" lon="6.77861">
        <ele>394.8</ele>
        <time>2017-10-15T07:17:57.999Z</time>
      </trkpt>
      <trkpt lat="47.53861" lon="6.77869">
        <ele>394.4</ele>
        <time>2017-10-15T07:17:58.999Z</time>
      </trkpt>
      <trkpt lat="47.53863" lon="6.77877">
        <ele>393.8</ele>
        <time>2017-10-15T07:17:59.999Z</time>
      </trkpt>
      <trkpt lat="47.53865" lon="6.77885">
        <ele>393.4</ele>
        <time>2017-10-15T07:18:00.999Z</time>
      </trkpt>
      <trkpt lat="47.53866" lon="6.77892">
        <ele>392.8</ele>
        <time>2017-10-15T07:18:01.999Z</time>
      </trkpt>
      <trkpt lat="47.53866" lon="6.77898">
        <ele>391.8</ele>
        <time>2017-10-15T07:18:02.999Z</time>
      </trkpt>
      <trkpt lat="47.53865" lon="6.77905">
        <ele>390.4</ele>
        <time>2017-10-15T07:18:03.999Z</time>
      </trkpt>
      <trkpt lat="47.53865" lon="6.77912">
        <ele>389.2</ele>
        <time>2017-10-15T07:18:04.999Z</time>
      </trkpt>
      <trkpt lat="47.53866" lon="6.77919">
        <ele>388.6</ele>
        <time>2017-10-15T07:18:05.999Z</time>
      </trkpt>
      <trkpt lat="47.53868" lon="6.77924">
        <ele>388.4</ele>
        <time>2017-10-15T07:18:06.999Z</time>
      </trkpt>
      <trkpt lat="47.53871" lon="6.77928">
        <ele>388.4</ele>
        <time>2017-10-15T07:18:07.999Z</time>
      </trkpt>
      <trkpt lat="47.53875" lon="6.77933">
        <ele>387.7</ele>
        <time>2017-10-15T07:18:08.999Z</time>
      </trkpt>
      <trkpt lat="47.53878" lon="6.77937">
        <ele>387.4</ele>
        <time>2017-10-15T07:18:09.999Z</time>
      </trkpt>
      <trkpt lat="47.53882" lon="6.77941">
        <ele>386.3</ele>
        <time>2017-10-15T07:18:10.999Z</time>
      </trkpt>
      <trkpt lat="47.53887" lon="6.77946">
        <ele>384.1</ele>
        <time>2017-10-15T07:18:11.999Z</time>
      </trkpt>
      <trkpt lat="47.53892" lon="6.77951">
        <ele>381.3</ele>
        <time>2017-10-15T07:18:12.999Z</time>
      </trkpt>
      <trkpt lat="47.53898" lon="6.77955">
        <ele>379.1</ele>
        <time>2017-10-15T07:18:13.999Z</time>
      </trkpt>
      <trkpt lat="47.53904" lon="6.77957">
        <ele>377.6</ele>
        <time>2017-10-15T07:18:14.999Z</time>
      </trkpt>
      <trkpt lat="47.5391" lon="6.77958">
        <ele>376.4</ele>
        <time>2017-10-15T07:18:15.999Z</time>
      </trkpt>
      <trkpt lat="47.53915" lon="6.77959">
        <ele>374.6</ele>
        <time>2017-10-15T07:18:16.999Z</time>
      </trkpt>
      <trkpt lat="47.53922" lon="6.7796">
        <ele>373.8</ele>
        <time>2017-10-15T07:18:17.999Z</time>
      </trkpt>
      <trkpt lat="47.53929" lon="6.77961">
        <ele>372.9</ele>
        <time>2017-10-15T07:18:18.999Z</time>
      </trkpt>
      <trkpt lat="47.53936" lon="6.77961">
        <ele>372.8</ele>
        <time>2017-10-15T07:18:19.999Z</time>
      </trkpt>
      <trkpt lat="47.53942" lon="6.77962">
        <ele>372.4</ele>
        <time>2017-10-15T07:18:20.999Z</time>
      </trkpt>
      <trkpt lat="47.53949" lon="6.77962">
        <ele>372.8</ele>
        <time>2017-10-15T07:18:21.999Z</time>
      </trkpt>
      <trkpt lat="47.53955" lon="6.77962">
        <ele>373.2</ele>
        <time>2017-10-15T07:18:22.999Z</time>
      </trkpt>
      <trkpt lat="47.53961" lon="6.77961">
        <ele>373.5</ele>
        <time>2017-10-15T07:18:23.999Z</time>
      </trkpt>
      <trkpt lat="47.53967" lon="6.7796">
        <ele>373.6</ele>
        <time>2017-10-15T07:18:24.999Z</time>
      </trkpt>
      <trkpt lat="47.53973" lon="6.7796">
        <ele>374.3</ele>
        <time>2017-10-15T07:18:25.999Z</time>
      </trkpt>
      <trkpt lat="47.53979" lon="6.7796">
        <ele>375.5</ele>
        <time>2017-10-15T07:18:26.999Z</time>
      </trkpt>
      <trkpt lat="47.53985" lon="6.7796">
        <ele>376.6</ele>
        <time>2017-10-15T07:18:27.999Z</time>
      </trkpt>
      <trkpt lat="47.53992" lon="6.7796">
        <ele>377.3</ele>
        <time>2017-10-15T07:18:28.999Z</time>
      </trkpt>
      <trkpt lat="47.53998" lon="6.7796">
        <ele>377.9</ele>
        <time>2017-10-15T07:18:29.999Z</time>
      </trkpt>
      <trkpt lat="47.54004" lon="6.7796">
        <ele>378.4</ele>
        <time>2017-10-15T07:18:30.999Z</time>
      </trkpt>
      <trkpt lat="47.54011" lon="6.77959">
        <ele>378.2</ele>
        <time>2017-10-15T07:18:31.999Z</time>
      </trkpt>
      <trkpt lat="47.54018" lon="6.77958">
        <ele>377.7</ele>
        <time>2017-10-15T07:18:32.999Z</time>
      </trkpt>
      <trkpt lat="47.54024" lon="6.77957">
        <ele>376.9</ele>
        <time>2017-10-15T07:18:33.999Z</time>
      </trkpt>
      <trkpt lat="47.5403" lon="6.77956">
        <ele>376.1</ele>
        <time>2017-10-15T07:18:34.999Z</time>
      </trkpt>
      <trkpt lat="47.54035" lon="6.77955">
        <ele>374.7</ele>
        <time>2017-10-15T07:18:35.999Z</time>
      </trkpt>
      <trkpt lat="47.5404" lon="6.77955">
        <ele>373.8</ele>
        <time>2017-10-15T07:18:36.999Z</time>
      </trkpt>
      <trkpt lat="47.54046" lon="6.77954">
        <ele>373.2</ele>
        <time>2017-10-15T07:18:37.999Z</time>
      </trkpt>
      <trkpt lat="47.54052" lon="6.77955">
        <ele>373.1</ele>
        <time>2017-10-15T07:18:38.999Z</time>
      </trkpt>
      <trkpt lat="47.54058" lon="6.77955">
        <ele>373.8</ele>
        <time>2017-10-15T07:18:39.999Z</time>
      </trkpt>
      <trkpt lat="47.54063" lon="6.77955">
        <ele>373.9</ele>
        <time>2017-10-15T07:18:40.999Z</time>
      </trkpt>
      <trkpt lat="47.54069" lon="6.77956">
        <ele>374.1</ele>
        <time>2017-10-15T07:18:41.999Z</time>
      </trkpt>
      <trkpt lat="47.54074" lon="6.77956">
        <ele>374.3</ele>
        <time>2017-10-15T07:18:42.999Z</time>
      </trkpt>
      <trkpt lat="47.5408" lon="6.77957">
        <ele>374.2</ele>
        <time>2017-10-15T07:18:43.999Z</time>
      </trkpt>
      <trkpt lat="47.54086" lon="6.77958">
        <ele>374.5</ele>
        <time>2017-10-15T07:18:44.999Z</time>
      </trkpt>
      <trkpt lat="47.54092" lon="6.77959">
        <ele>375.2</ele>
        <time>2017-10-15T07:18:45.999Z</time>
      </trkpt>
      <trkpt lat="47.54098" lon="6.7796">
        <ele>375.6</ele>
        <time>2017-10-15T07:18:46.999Z</time>
      </trkpt>
      <trkpt lat="47.54105" lon="6.77961">
        <ele>376.2</ele>
        <time>2017-10-15T07:18:47.999Z</time>
      </trkpt>
      <trkpt lat="47.5411" lon="6.77962">
        <ele>377</ele>
        <time>2017-10-15T07:18:48.999Z</time>
      </trkpt>
      <trkpt lat="47.54116" lon="6.77963">
        <ele>377.5</ele>
        <time>2017-10-15T07:18:49.999Z</time>
      </trkpt>
      <trkpt lat="47.54121" lon="6.77963">
        <ele>377.8</ele>
        <time>2017-10-15T07:18:50.999Z</time>
      </trkpt>
      <trkpt lat="47.54127" lon="6.77964">
        <ele>377.6</ele>
        <time>2017-10-15T07:18:51.999Z</time>
      </trkpt>
      <trkpt lat="47.54133" lon="6.77964">
        <ele>377</ele>
        <time>2017-10-15T07:18:52.999Z</time>
      </trkpt>
      <trkpt lat="47.54138" lon="6.77964">
        <ele>376.5</ele>
        <time>2017-10-15T07:18:53.999Z</time>
      </trkpt>
      <trkpt lat="47.54143" lon="6.77965">
        <ele>375.6</ele>
        <time>2017-10-15T07:18:54.999Z</time>
      </trkpt>
      <trkpt lat="47.54148" lon="6.77965">
        <ele>374.6</ele>
        <time>2017-10-15T07:18:55.999Z</time>
      </trkpt>
      <trkpt lat="47.54154" lon="6.77965">
        <ele>373.4</ele>
        <time>2017-10-15T07:18:56.999Z</time>
      </trkpt>
      <trkpt lat="47.54159" lon="6.77966">
        <ele>373.1</ele>
        <time>2017-10-15T07:18:57.999Z</time>
      </trkpt>
      <trkpt lat="47.54166" lon="6.77966">
        <ele>372.7</ele>
        <time>2017-10-15T07:18:58.999Z</time>
      </trkpt>
      <trkpt lat="47.54171" lon="6.77967">
        <ele>372.6</ele>
        <time>2017-10-15T07:18:59.999Z</time>
      </trkpt>
      <trkpt lat="47.54177" lon="6.77967">
        <ele>372.7</ele>
        <time>2017-10-15T07:19:00.999Z</time>
      </trkpt>
      <trkpt lat="47.54183" lon="6.77968">
        <ele>372.7</ele>
        <time>2017-10-15T07:19:01.999Z</time>
      </trkpt>
      <trkpt lat="47.54189" lon="6.77969">
        <ele>373.1</ele>
        <time>2017-10-15T07:19:02.999Z</time>
      </trkpt>
      <trkpt lat="47.54194" lon="6.7797">
        <ele>373.4</ele>
        <time>2017-10-15T07:19:03.999Z</time>
      </trkpt>
      <trkpt lat="47.542" lon="6.7797">
        <ele>373.8</ele>
        <time>2017-10-15T07:19:04.999Z</time>
      </trkpt>
      <trkpt lat="47.54205" lon="6.77971">
        <ele>374</ele>
        <time>2017-10-15T07:19:05.999Z</time>
      </trkpt>
      <trkpt lat="47.5421" lon="6.77971">
        <ele>374.2</ele>
        <time>2017-10-15T07:19:06.999Z</time>
      </trkpt>
      <trkpt lat="47.54215" lon="6.77972">
        <ele>373.7</ele>
        <time>2017-10-15T07:19:07.999Z</time>
      </trkpt>
      <trkpt lat="47.54221" lon="6.77973">
        <ele>373.8</ele>
        <time>2017-10-15T07:19:08.999Z</time>
      </trkpt>
      <trkpt lat="47.54225" lon="6.77973">
        <ele>373.9</ele>
        <time>2017-10-15T07:19:09.999Z</time>
      </trkpt>
      <trkpt lat="47.5423" lon="6.77974">
        <ele>373.8</ele>
        <time>2017-10-15T07:19:10.999Z</time>
      </trkpt>
      <trkpt lat="47.54236" lon="6.77974">
        <ele>373.1</ele>
        <time>2017-10-15T07:19:11.999Z</time>
      </trkpt>
      <trkpt lat="47.54241" lon="6.77975">
        <ele>372.7</ele>
        <time>2017-10-15T07:19:12.999Z</time>
      </trkpt>
      <trkpt lat="47.54246" lon="6.77976">
        <ele>372.7</ele>
        <time>2017-10-15T07:19:13.999Z</time>
      </trkpt>
      <trkpt lat="47.54251" lon="6.77976">
        <ele>372.3</ele>
        <time>2017-10-15T07:19:14.999Z</time>
      </trkpt>
      <trkpt lat="47.54255" lon="6.77976">
        <ele>372.5</ele>
        <time>2017-10-15T07:19:15.999Z</time>
      </trkpt>
      <trkpt lat="47.5426" lon="6.77977">
        <ele>372.6</ele>
        <time>2017-10-15T07:19:16.999Z</time>
      </trkpt>
      <trkpt lat="47.54264" lon="6.77978">
        <ele>372.5</ele>
        <time>2017-10-15T07:19:17.999Z</time>
      </trkpt>
      <trkpt lat="47.54268" lon="6.77978">
        <ele>373</ele>
        <time>2017-10-15T07:19:18.999Z</time>
      </trkpt>
      <trkpt lat="47.54273" lon="6.77978">
        <ele>373.5</ele>
        <time>2017-10-15T07:19:19.999Z</time>
      </trkpt>
      <trkpt lat="47.54278" lon="6.77979">
        <ele>373.8</ele>
        <time>2017-10-15T07:19:20.999Z</time>
      </trkpt>
      <trkpt lat="47.54282" lon="6.77979">
        <ele>374</ele>
        <time>2017-10-15T07:19:21.999Z</time>
      </trkpt>
      <trkpt lat="47.54288" lon="6.7798">
        <ele>373.9</ele>
        <time>2017-10-15T07:19:22.999Z</time>
      </trkpt>
      <trkpt lat="47.54292" lon="6.77981">
        <ele>374.1</ele>
        <time>2017-10-15T07:19:23.999Z</time>
      </trkpt>
      <trkpt lat="47.54296" lon="6.77982">
        <ele>374.2</ele>
        <time>2017-10-15T07:19:24.999Z</time>
      </trkpt>
      <trkpt lat="47.54301" lon="6.77984">
        <ele>373.9</ele>
        <time>2017-10-15T07:19:25.999Z</time>
      </trkpt>
      <trkpt lat="47.54306" lon="6.77986">
        <ele>373.7</ele>
        <time>2017-10-15T07:19:26.999Z</time>
      </trkpt>
      <trkpt lat="47.54311" lon="6.77986">
        <ele>373</ele>
        <time>2017-10-15T07:19:27.999Z</time>
      </trkpt>
      <trkpt lat="47.54316" lon="6.77985">
        <ele>373.1</ele>
        <time>2017-10-15T07:19:28.999Z</time>
      </trkpt>
      <trkpt lat="47.54321" lon="6.77984">
        <ele>373.6</ele>
        <time>2017-10-15T07:19:29.999Z</time>
      </trkpt>
      <trkpt lat="47.54327" lon="6.77984">
        <ele>373.9</ele>
        <time>2017-10-15T07:19:30.999Z</time>
      </trkpt>
      <trkpt lat="47.54333" lon="6.77984">
        <ele>374.6</ele>
        <time>2017-10-15T07:19:31.999Z</time>
      </trkpt>
      <trkpt lat="47.54339" lon="6.77985">
        <ele>375.4</ele>
        <time>2017-10-15T07:19:32.999Z</time>
      </trkpt>
      <trkpt lat="47.54344" lon="6.77986">
        <ele>375.5</ele>
        <time>2017-10-15T07:19:33.999Z</time>
      </trkpt>
      <trkpt lat="47.5435" lon="6.77987">
        <ele>375.5</ele>
        <time>2017-10-15T07:19:34.999Z</time>
      </trkpt>
      <trkpt lat="47.54356" lon="6.77988">
        <ele>375.7</ele>
        <time>2017-10-15T07:19:35.999Z</time>
      </trkpt>
      <trkpt lat="47.54361" lon="6.77989">
        <ele>376</ele>
        <time>2017-10-15T07:19:36.999Z</time>
      </trkpt>
      <trkpt lat="47.54368" lon="6.7799">
        <ele>376.3</ele>
        <time>2017-10-15T07:19:37.999Z</time>
      </trkpt>
      <trkpt lat="47.54374" lon="6.77991">
        <ele>376.5</ele>
        <time>2017-10-15T07:19:38.999Z</time>
      </trkpt>
      <trkpt lat="47.5438" lon="6.77992">
        <ele>376.8</ele>
        <time>2017-10-15T07:19:39.999Z</time>
      </trkpt>
      <trkpt lat="47.54385" lon="6.77993">
        <ele>376.7</ele>
        <time>2017-10-15T07:19:40.999Z</time>
      </trkpt>
      <trkpt lat="47.54391" lon="6.77993">
        <ele>376.7</ele>
        <time>2017-10-15T07:19:41.999Z</time>
      </trkpt>
      <trkpt lat="47.54397" lon="6.77994">
        <ele>376.5</ele>
        <time>2017-10-15T07:19:42.999Z</time>
      </trkpt>
      <trkpt lat="47.54404" lon="6.77994">
        <ele>376.3</ele>
        <time>2017-10-15T07:19:43.999Z</time>
      </trkpt>
      <trkpt lat="47.54409" lon="6.77994">
        <ele>376</ele>
        <time>2017-10-15T07:19:44.999Z</time>
      </trkpt>
      <trkpt lat="47.54415" lon="6.77995">
        <ele>375.8</ele>
        <time>2017-10-15T07:19:45.999Z</time>
      </trkpt>
      <trkpt lat="47.54421" lon="6.77995">
        <ele>375.9</ele>
        <time>2017-10-15T07:19:46.999Z</time>
      </trkpt>
      <trkpt lat="47.54426" lon="6.77996">
        <ele>375.8</ele>
        <time>2017-10-15T07:19:47.999Z</time>
      </trkpt>
      <trkpt lat="47.54431" lon="6.77996">
        <ele>375.4</ele>
        <time>2017-10-15T07:19:48.999Z</time>
      </trkpt>
      <trkpt lat="47.54437" lon="6.77996">
        <ele>375.6</ele>
        <time>2017-10-15T07:19:49.999Z</time>
      </trkpt>
      <trkpt lat="47.54442" lon="6.77997">
        <ele>375.4</ele>
        <time>2017-10-15T07:19:50.999Z</time>
      </trkpt>
      <trkpt lat="47.54447" lon="6.77998">
        <ele>375.2</ele>
        <time>2017-10-15T07:19:51.999Z</time>
      </trkpt>
      <trkpt lat="47.54452" lon="6.77999">
        <ele>375</ele>
        <time>2017-10-15T07:19:52.999Z</time>
      </trkpt>
      <trkpt lat="47.54458" lon="6.78">
        <ele>374.9</ele>
        <time>2017-10-15T07:19:53.999Z</time>
      </trkpt>
      <trkpt lat="47.54463" lon="6.78001">
        <ele>374.3</ele>
        <time>2017-10-15T07:19:54.999Z</time>
      </trkpt>
      <trkpt lat="47.54468" lon="6.78001">
        <ele>374.1</ele>
        <time>2017-10-15T07:19:55.999Z</time>
      </trkpt>
      <trkpt lat="47.54473" lon="6.78002">
        <ele>373.8</ele>
        <time>2017-10-15T07:19:56.999Z</time>
      </trkpt>
      <trkpt lat="47.54479" lon="6.78002">
        <ele>373.4</ele>
        <time>2017-10-15T07:19:57.999Z</time>
      </trkpt>
      <trkpt lat="47.54484" lon="6.78002">
        <ele>373.3</ele>
        <time>2017-10-15T07:19:58.999Z</time>
      </trkpt>
      <trkpt lat="47.5449" lon="6.78002">
        <ele>372.9</ele>
        <time>2017-10-15T07:19:59.999Z</time>
      </trkpt>
      <trkpt lat="47.54495" lon="6.78002">
        <ele>372.6</ele>
        <time>2017-10-15T07:20:00.999Z</time>
      </trkpt>
      <trkpt lat="47.54502" lon="6.78003">
        <ele>372.7</ele>
        <time>2017-10-15T07:20:01.999Z</time>
      </trkpt>
      <trkpt lat="47.54507" lon="6.78003">
        <ele>372.5</ele>
        <time>2017-10-15T07:20:02.999Z</time>
      </trkpt>
      <trkpt lat="47.54512" lon="6.78004">
        <ele>372.5</ele>
        <time>2017-10-15T07:20:03.999Z</time>
      </trkpt>
      <trkpt lat="47.54517" lon="6.78004">
        <ele>372.2</ele>
        <time>2017-10-15T07:20:04.999Z</time>
      </trkpt>
      <trkpt lat="47.54521" lon="6.78005">
        <ele>372.1</ele>
        <time>2017-10-15T07:20:05.999Z</time>
      </trkpt>
      <trkpt lat="47.54526" lon="6.78005">
        <ele>372.5</ele>
        <time>2017-10-15T07:20:06.999Z</time>
      </trkpt>
      <trkpt lat="47.5453" lon="6.78005">
        <ele>372</ele>
        <time>2017-10-15T07:20:07.999Z</time>
      </trkpt>
      <trkpt lat="47.54534" lon="6.78005">
        <ele>371.6</ele>
        <time>2017-10-15T07:20:08.999Z</time>
      </trkpt>
      <trkpt lat="47.54539" lon="6.78006">
        <ele>371.8</ele>
        <time>2017-10-15T07:20:09.999Z</time>
      </trkpt>
      <trkpt lat="47.54544" lon="6.78006">
        <ele>371.7</ele>
        <time>2017-10-15T07:20:10.999Z</time>
      </trkpt>
      <trkpt lat="47.54549" lon="6.78007">
        <ele>371.6</ele>
        <time>2017-10-15T07:20:11.999Z</time>
      </trkpt>
      <trkpt lat="47.54554" lon="6.78007">
        <ele>371.2</ele>
        <time>2017-10-15T07:20:12.999Z</time>
      </trkpt>
      <trkpt lat="47.54558" lon="6.78008">
        <ele>370.7</ele>
        <time>2017-10-15T07:20:13.999Z</time>
      </trkpt>
      <trkpt lat="47.54562" lon="6.78009">
        <ele>371</ele>
        <time>2017-10-15T07:20:14.999Z</time>
      </trkpt>
      <trkpt lat="47.54567" lon="6.78009">
        <ele>371.7</ele>
        <time>2017-10-15T07:20:15.999Z</time>
      </trkpt>
      <trkpt lat="47.54571" lon="6.7801">
        <ele>372.3</ele>
        <time>2017-10-15T07:20:16.999Z</time>
      </trkpt>
      <trkpt lat="47.54576" lon="6.78011">
        <ele>372.9</ele>
        <time>2017-10-15T07:20:17.999Z</time>
      </trkpt>
      <trkpt lat="47.54579" lon="6.78011">
        <ele>373.5</ele>
        <time>2017-10-15T07:20:18.999Z</time>
      </trkpt>
      <trkpt lat="47.54584" lon="6.78012">
        <ele>373.7</ele>
        <time>2017-10-15T07:20:19.999Z</time>
      </trkpt>
      <trkpt lat="47.54589" lon="6.78014">
        <ele>373.7</ele>
        <time>2017-10-15T07:20:20.999Z</time>
      </trkpt>
      <trkpt lat="47.54595" lon="6.78015">
        <ele>373.8</ele>
        <time>2017-10-15T07:20:21.999Z</time>
      </trkpt>
      <trkpt lat="47.54599" lon="6.78016">
        <ele>373.9</ele>
        <time>2017-10-15T07:20:22.999Z</time>
      </trkpt>
      <trkpt lat="47.54604" lon="6.78018">
        <ele>374.3</ele>
        <time>2017-10-15T07:20:23.999Z</time>
      </trkpt>
      <trkpt lat="47.54609" lon="6.78019">
        <ele>373.8</ele>
        <time>2017-10-15T07:20:24.999Z</time>
      </trkpt>
      <trkpt lat="47.54615" lon="6.7802">
        <ele>373.7</ele>
        <time>2017-10-15T07:20:25.999Z</time>
      </trkpt>
      <trkpt lat="47.5462" lon="6.78021">
        <ele>374.1</ele>
        <time>2017-10-15T07:20:26.999Z</time>
      </trkpt>
      <trkpt lat="47.54626" lon="6.78023">
        <ele>374.3</ele>
        <time>2017-10-15T07:20:27.999Z</time>
      </trkpt>
      <trkpt lat="47.54631" lon="6.78025">
        <ele>374.1</ele>
        <time>2017-10-15T07:20:28.999Z</time>
      </trkpt>
      <trkpt lat="47.54636" lon="6.78028">
        <ele>373.6</ele>
        <time>2017-10-15T07:20:29.999Z</time>
      </trkpt>
      <trkpt lat="47.54642" lon="6.78031">
        <ele>373.7</ele>
        <time>2017-10-15T07:20:30.999Z</time>
      </trkpt>
      <trkpt lat="47.54647" lon="6.78034">
        <ele>373.7</ele>
        <time>2017-10-15T07:20:31.999Z</time>
      </trkpt>
      <trkpt lat="47.54652" lon="6.78037">
        <ele>374.2</ele>
        <time>2017-10-15T07:20:32.999Z</time>
      </trkpt>
      <trkpt lat="47.54657" lon="6.7804">
        <ele>374.1</ele>
        <time>2017-10-15T07:20:33.999Z</time>
      </trkpt>
      <trkpt lat="47.54663" lon="6.78043">
        <ele>374</ele>
        <time>2017-10-15T07:20:34.999Z</time>
      </trkpt>
      <trkpt lat="47.54668" lon="6.78045">
        <ele>374.1</ele>
        <time>2017-10-15T07:20:35.999Z</time>
      </trkpt>
      <trkpt lat="47.54673" lon="6.78047">
        <ele>374.3</ele>
        <time>2017-10-15T07:20:36.999Z</time>
      </trkpt>
      <trkpt lat="47.5468" lon="6.78046">
        <ele>374</ele>
        <time>2017-10-15T07:20:37.999Z</time>
      </trkpt>
      <trkpt lat="47.54687" lon="6.78045">
        <ele>374.3</ele>
        <time>2017-10-15T07:20:38.999Z</time>
      </trkpt>
      <trkpt lat="47.54694" lon="6.78045">
        <ele>374.4</ele>
        <time>2017-10-15T07:20:39.999Z</time>
      </trkpt>
      <trkpt lat="47.54701" lon="6.78043">
        <ele>374.5</ele>
        <time>2017-10-15T07:20:40.999Z</time>
      </trkpt>
      <trkpt lat="47.54708" lon="6.78041">
        <ele>374</ele>
        <time>2017-10-15T07:20:41.999Z</time>
      </trkpt>
      <trkpt lat="47.54714" lon="6.78037">
        <ele>373.6</ele>
        <time>2017-10-15T07:20:42.999Z</time>
      </trkpt>
      <trkpt lat="47.54719" lon="6.78033">
        <ele>373.2</ele>
        <time>2017-10-15T07:20:43.999Z</time>
      </trkpt>
      <trkpt lat="47.54725" lon="6.78029">
        <ele>373.6</ele>
        <time>2017-10-15T07:20:44.999Z</time>
      </trkpt>
      <trkpt lat="47.54732" lon="6.78027">
        <ele>373.4</ele>
        <time>2017-10-15T07:20:45.999Z</time>
      </trkpt>
      <trkpt lat="47.54739" lon="6.78025">
        <ele>373.5</ele>
        <time>2017-10-15T07:20:46.999Z</time>
      </trkpt>
      <trkpt lat="47.54745" lon="6.78023">
        <ele>372.8</ele>
        <time>2017-10-15T07:20:47.999Z</time>
      </trkpt>
      <trkpt lat="47.54751" lon="6.78021">
        <ele>372.4</ele>
        <time>2017-10-15T07:20:48.999Z</time>
      </trkpt>
      <trkpt lat="47.54758" lon="6.78018">
        <ele>371.6</ele>
        <time>2017-10-15T07:20:49.999Z</time>
      </trkpt>
      <trkpt lat="47.54764" lon="6.78015">
        <ele>371.4</ele>
        <time>2017-10-15T07:20:50.999Z</time>
      </trkpt>
      <trkpt lat="47.54769" lon="6.78013">
        <ele>372.1</ele>
        <time>2017-10-15T07:20:51.999Z</time>
      </trkpt>
      <trkpt lat="47.54776" lon="6.78009">
        <ele>373</ele>
        <time>2017-10-15T07:20:52.999Z</time>
      </trkpt>
      <trkpt lat="47.54781" lon="6.78009">
        <ele>373</ele>
        <time>2017-10-15T07:20:53.999Z</time>
      </trkpt>
      <trkpt lat="47.54785" lon="6.78013">
        <ele>372.9</ele>
        <time>2017-10-15T07:20:54.999Z</time>
      </trkpt>
      <trkpt lat="47.54787" lon="6.78018">
        <ele>372.6</ele>
        <time>2017-10-15T07:20:55.999Z</time>
      </trkpt>
      <trkpt lat="47.54786" lon="6.78024">
        <ele>372.1</ele>
        <time>2017-10-15T07:20:56.999Z</time>
      </trkpt>
      <trkpt lat="47.54786" lon="6.78031">
        <ele>372.4</ele>
        <time>2017-10-15T07:20:57.999Z</time>
      </trkpt>
      <trkpt lat="47.54787" lon="6.78038">
        <ele>372.8</ele>
        <time>2017-10-15T07:20:58.999Z</time>
      </trkpt>
      <trkpt lat="47.54788" lon="6.78045">
        <ele>373.3</ele>
        <time>2017-10-15T07:20:59.999Z</time>
      </trkpt>
      <trkpt lat="47.54788" lon="6.78053">
        <ele>373.7</ele>
        <time>2017-10-15T07:21:00.999Z</time>
      </trkpt>
      <trkpt lat="47.54788" lon="6.7806">
        <ele>374.3</ele>
        <time>2017-10-15T07:21:01.999Z</time>
      </trkpt>
      <trkpt lat="47.54787" lon="6.78067">
        <ele>374.7</ele>
        <time>2017-10-15T07:21:02.999Z</time>
      </trkpt>
      <trkpt lat="47.54786" lon="6.78076">
        <ele>375.2</ele>
        <time>2017-10-15T07:21:03.999Z</time>
      </trkpt>
      <trkpt lat="47.54786" lon="6.78082">
        <ele>375.6</ele>
        <time>2017-10-15T07:21:04.999Z</time>
      </trkpt>
      <trkpt lat="47.54783" lon="6.78089">
        <ele>376.3</ele>
        <time>2017-10-15T07:21:05.999Z</time>
      </trkpt>
      <trkpt lat="47.54781" lon="6.78096">
        <ele>376.8</ele>
        <time>2017-10-15T07:21:06.999Z</time>
      </trkpt>
      <trkpt lat="47.54779" lon="6.78103">
        <ele>376.4</ele>
        <time>2017-10-15T07:21:07.999Z</time>
      </trkpt>
      <trkpt lat="47.54776" lon="6.78111">
        <ele>376.2</ele>
        <time>2017-10-15T07:21:08.999Z</time>
      </trkpt>
      <trkpt lat="47.54773" lon="6.7812">
        <ele>376</ele>
        <time>2017-10-15T07:21:09.999Z</time>
      </trkpt>
      <trkpt lat="47.5477" lon="6.78127">
        <ele>375.9</ele>
        <time>2017-10-15T07:21:10.999Z</time>
      </trkpt>
      <trkpt lat="47.54767" lon="6.78135">
        <ele>375.5</ele>
        <time>2017-10-15T07:21:11.999Z</time>
      </trkpt>
      <trkpt lat="47.54764" lon="6.78142">
        <ele>374.9</ele>
        <time>2017-10-15T07:21:12.999Z</time>
      </trkpt>
      <trkpt lat="47.54761" lon="6.78149">
        <ele>374</ele>
        <time>2017-10-15T07:21:13.999Z</time>
      </trkpt>
      <trkpt lat="47.54759" lon="6.78155">
        <ele>374</ele>
        <time>2017-10-15T07:21:14.999Z</time>
      </trkpt>
      <trkpt lat="47.54756" lon="6.78161">
        <ele>373.8</ele>
        <time>2017-10-15T07:21:15.999Z</time>
      </trkpt>
      <trkpt lat="47.54753" lon="6.78168">
        <ele>373.4</ele>
        <time>2017-10-15T07:21:16.999Z</time>
      </trkpt>
      <trkpt lat="47.54751" lon="6.78174">
        <ele>372.9</ele>
        <time>2017-10-15T07:21:17.999Z</time>
      </trkpt>
      <trkpt lat="47.54748" lon="6.7818">
        <ele>372.8</ele>
        <time>2017-10-15T07:21:18.999Z</time>
      </trkpt>
      <trkpt lat="47.54746" lon="6.78187">
        <ele>373.2</ele>
        <time>2017-10-15T07:21:19.999Z</time>
      </trkpt>
      <trkpt lat="47.54744" lon="6.78193">
        <ele>372.8</ele>
        <time>2017-10-15T07:21:20.999Z</time>
      </trkpt>
      <trkpt lat="47.54742" lon="6.782">
        <ele>372.7</ele>
        <time>2017-10-15T07:21:21.999Z</time>
      </trkpt>
      <trkpt lat="47.5474" lon="6.78206">
        <ele>372.6</ele>
        <time>2017-10-15T07:21:22.999Z</time>
      </trkpt>
      <trkpt lat="47.54738" lon="6.78212">
        <ele>372.8</ele>
        <time>2017-10-15T07:21:23.999Z</time>
      </trkpt>
      <trkpt lat="47.54736" lon="6.78217">
        <ele>372.5</ele>
        <time>2017-10-15T07:21:24.999Z</time>
      </trkpt>
      <trkpt lat="47.54733" lon="6.78224">
        <ele>372.7</ele>
        <time>2017-10-15T07:21:25.999Z</time>
      </trkpt>
      <trkpt lat="47.54732" lon="6.78229">
        <ele>373.6</ele>
        <time>2017-10-15T07:21:26.999Z</time>
      </trkpt>
      <trkpt lat="47.5473" lon="6.78235">
        <ele>374.1</ele>
        <time>2017-10-15T07:21:27.999Z</time>
      </trkpt>
      <trkpt lat="47.54729" lon="6.78242">
        <ele>374</ele>
        <time>2017-10-15T07:21:28.999Z</time>
      </trkpt>
      <trkpt lat="47.54727" lon="6.78247">
        <ele>373.6</ele>
        <time>2017-10-15T07:21:29.999Z</time>
      </trkpt>
      <trkpt lat="47.54725" lon="6.78252">
        <ele>373.4</ele>
        <time>2017-10-15T07:21:30.999Z</time>
      </trkpt>
      <trkpt lat="47.54724" lon="6.78257">
        <ele>373.3</ele>
        <time>2017-10-15T07:21:31.999Z</time>
      </trkpt>
      <trkpt lat="47.54722" lon="6.78263">
        <ele>373.1</ele>
        <time>2017-10-15T07:21:32.999Z</time>
      </trkpt>
      <trkpt lat="47.5472" lon="6.78269">
        <ele>373.2</ele>
        <time>2017-10-15T07:21:33.999Z</time>
      </trkpt>
      <trkpt lat="47.54718" lon="6.78275">
        <ele>373</ele>
        <time>2017-10-15T07:21:34.999Z</time>
      </trkpt>
      <trkpt lat="47.54717" lon="6.78281">
        <ele>372.8</ele>
        <time>2017-10-15T07:21:35.999Z</time>
      </trkpt>
      <trkpt lat="47.54714" lon="6.78287">
        <ele>371.9</ele>
        <time>2017-10-15T07:21:36.999Z</time>
      </trkpt>
      <trkpt lat="47.54712" lon="6.78294">
        <ele>370.8</ele>
        <time>2017-10-15T07:21:37.999Z</time>
      </trkpt>
      <trkpt lat="47.5471" lon="6.78299">
        <ele>369.7</ele>
        <time>2017-10-15T07:21:38.999Z</time>
      </trkpt>
      <trkpt lat="47.54708" lon="6.78304">
        <ele>369</ele>
        <time>2017-10-15T07:21:39.999Z</time>
      </trkpt>
      <trkpt lat="47.54706" lon="6.78308">
        <ele>368.6</ele>
        <time>2017-10-15T07:21:40.999Z</time>
      </trkpt>
      <trkpt lat="47.54704" lon="6.78313">
        <ele>368.4</ele>
        <time>2017-10-15T07:21:41.999Z</time>
      </trkpt>
      <trkpt lat="47.54702" lon="6.78319">
        <ele>368.2</ele>
        <time>2017-10-15T07:21:42.999Z</time>
      </trkpt>
      <trkpt lat="47.547" lon="6.78325">
        <ele>367.9</ele>
        <time>2017-10-15T07:21:43.999Z</time>
      </trkpt>
      <trkpt lat="47.54698" lon="6.78331">
        <ele>367.4</ele>
        <time>2017-10-15T07:21:44.999Z</time>
      </trkpt>
      <trkpt lat="47.54696" lon="6.78336">
        <ele>367</ele>
        <time>2017-10-15T07:21:45.999Z</time>
      </trkpt>
      <trkpt lat="47.54694" lon="6.78341">
        <ele>366.9</ele>
        <time>2017-10-15T07:21:46.999Z</time>
      </trkpt>
      <trkpt lat="47.54692" lon="6.78346">
        <ele>366.9</ele>
        <time>2017-10-15T07:21:47.999Z</time>
      </trkpt>
      <trkpt lat="47.5469" lon="6.78349">
        <ele>367.1</ele>
        <time>2017-10-15T07:21:48.999Z</time>
      </trkpt>
      <trkpt lat="47.54688" lon="6.78354">
        <ele>367.4</ele>
        <time>2017-10-15T07:21:49.999Z</time>
      </trkpt>
      <trkpt lat="47.54685" lon="6.78359">
        <ele>367.4</ele>
        <time>2017-10-15T07:21:50.999Z</time>
      </trkpt>
      <trkpt lat="47.54683" lon="6.78363">
        <ele>367.5</ele>
        <time>2017-10-15T07:21:51.999Z</time>
      </trkpt>
      <trkpt lat="47.54681" lon="6.78366">
        <ele>367.5</ele>
        <time>2017-10-15T07:21:52.999Z</time>
      </trkpt>
      <trkpt lat="47.54678" lon="6.78371">
        <ele>367.5</ele>
        <time>2017-10-15T07:21:53.999Z</time>
      </trkpt>
      <trkpt lat="47.54676" lon="6.78374">
        <ele>367.5</ele>
        <time>2017-10-15T07:21:54.999Z</time>
      </trkpt>
      <trkpt lat="47.54673" lon="6.78377">
        <ele>367.6</ele>
        <time>2017-10-15T07:21:55.999Z</time>
      </trkpt>
      <trkpt lat="47.5467" lon="6.78379">
        <ele>367.6</ele>
        <time>2017-10-15T07:21:56.999Z</time>
      </trkpt>
      <trkpt lat="47.54666" lon="6.78382">
        <ele>367.6</ele>
        <time>2017-10-15T07:21:57.999Z</time>
      </trkpt>
      <trkpt lat="47.54663" lon="6.78385">
        <ele>367.7</ele>
        <time>2017-10-15T07:21:58.999Z</time>
      </trkpt>
      <trkpt lat="47.54659" lon="6.78388">
        <ele>367.8</ele>
        <time>2017-10-15T07:21:59.999Z</time>
      </trkpt>
      <trkpt lat="47.54656" lon="6.7839">
        <ele>367.8</ele>
        <time>2017-10-15T07:22:00.999Z</time>
      </trkpt>
      <trkpt lat="47.54654" lon="6.78392">
        <ele>367.9</ele>
        <time>2017-10-15T07:22:01.999Z</time>
      </trkpt>
      <trkpt lat="47.54651" lon="6.78395">
        <ele>367.9</ele>
        <time>2017-10-15T07:22:02.999Z</time>
      </trkpt>
      <trkpt lat="47.54649" lon="6.78399">
        <ele>368</ele>
        <time>2017-10-15T07:22:03.999Z</time>
      </trkpt>
      <trkpt lat="47.54647" lon="6.78402">
        <ele>368.1</ele>
        <time>2017-10-15T07:22:04.999Z</time>
      </trkpt>
      <trkpt lat="47.54646" lon="6.78405">
        <ele>368.2</ele>
        <time>2017-10-15T07:22:05.999Z</time>
      </trkpt>
      <trkpt lat="47.54644" lon="6.78409">
        <ele>368.4</ele>
        <time>2017-10-15T07:22:06.999Z</time>
      </trkpt>
      <trkpt lat="47.54644" lon="6.78412">
        <ele>368.5</ele>
        <time>2017-10-15T07:22:07.999Z</time>
      </trkpt>
      <trkpt lat="47.54643" lon="6.78416">
        <ele>368.6</ele>
        <time>2017-10-15T07:22:08.999Z</time>
      </trkpt>
      <trkpt lat="47.54642" lon="6.78422">
        <ele>368.7</ele>
        <time>2017-10-15T07:22:10.999Z</time>
      </trkpt>
      <trkpt lat="47.54641" lon="6.78426">
        <ele>368.8</ele>
        <time>2017-10-15T07:22:11.999Z</time>
      </trkpt>
      <trkpt lat="47.5464" lon="6.78429">
        <ele>368.9</ele>
        <time>2017-10-15T07:22:12.999Z</time>
      </trkpt>
      <trkpt lat="47.54639" lon="6.78434">
        <ele>368.9</ele>
        <time>2017-10-15T07:22:13.999Z</time>
      </trkpt>
      <trkpt lat="47.54638" lon="6.78439">
        <ele>369</ele>
        <time>2017-10-15T07:22:14.999Z</time>
      </trkpt>
      <trkpt lat="47.54638" lon="6.78442">
        <ele>369.1</ele>
        <time>2017-10-15T07:22:15.999Z</time>
      </trkpt>
      <trkpt lat="47.54637" lon="6.78446">
        <ele>369.2</ele>
        <time>2017-10-15T07:22:16.999Z</time>
      </trkpt>
      <trkpt lat="47.54637" lon="6.78451">
        <ele>369.3</ele>
        <time>2017-10-15T07:22:17.999Z</time>
      </trkpt>
      <trkpt lat="47.54636" lon="6.78454">
        <ele>369.5</ele>
        <time>2017-10-15T07:22:18.999Z</time>
      </trkpt>
      <trkpt lat="47.54636" lon="6.78458">
        <ele>369.6</ele>
        <time>2017-10-15T07:22:19.999Z</time>
      </trkpt>
      <trkpt lat="47.54635" lon="6.78462">
        <ele>369.8</ele>
        <time>2017-10-15T07:22:20.999Z</time>
      </trkpt>
      <trkpt lat="47.54635" lon="6.78466">
        <ele>369.9</ele>
        <time>2017-10-15T07:22:21.999Z</time>
      </trkpt>
      <trkpt lat="47.54634" lon="6.78469">
        <ele>370.1</ele>
        <time>2017-10-15T07:22:22.999Z</time>
      </trkpt>
      <trkpt lat="47.54633" lon="6.78472">
        <ele>370.2</ele>
        <time>2017-10-15T07:22:23.999Z</time>
      </trkpt>
      <trkpt lat="47.54633" lon="6.78476">
        <ele>370.4</ele>
        <time>2017-10-15T07:22:24.999Z</time>
      </trkpt>
      <trkpt lat="47.54632" lon="6.7848">
        <ele>370.6</ele>
        <time>2017-10-15T07:22:25.999Z</time>
      </trkpt>
      <trkpt lat="47.54631" lon="6.78485">
        <ele>371</ele>
        <time>2017-10-15T07:22:27.999Z</time>
      </trkpt>
      <trkpt lat="47.54631" lon="6.78488">
        <ele>371.3</ele>
        <time>2017-10-15T07:22:28.999Z</time>
      </trkpt>
      <trkpt lat="47.54631" lon="6.78492">
        <ele>371.4</ele>
        <time>2017-10-15T07:22:29.999Z</time>
      </trkpt>
      <trkpt lat="47.5463" lon="6.78496">
        <ele>371.6</ele>
        <time>2017-10-15T07:22:30.999Z</time>
      </trkpt>
      <trkpt lat="47.5463" lon="6.785">
        <ele>371.8</ele>
        <time>2017-10-15T07:22:31.999Z</time>
      </trkpt>
      <trkpt lat="47.5463" lon="6.78504">
        <ele>371.9</ele>
        <time>2017-10-15T07:22:32.999Z</time>
      </trkpt>
      <trkpt lat="47.5463" lon="6.78508">
        <ele>372</ele>
        <time>2017-10-15T07:22:33.999Z</time>
      </trkpt>
      <trkpt lat="47.54631" lon="6.78513">
        <ele>372.1</ele>
        <time>2017-10-15T07:22:34.999Z</time>
      </trkpt>
      <trkpt lat="47.54632" lon="6.78517">
        <ele>372.2</ele>
        <time>2017-10-15T07:22:35.999Z</time>
      </trkpt>
      <trkpt lat="47.54633" lon="6.78519">
        <ele>372.3</ele>
        <time>2017-10-15T07:22:36.999Z</time>
      </trkpt>
      <trkpt lat="47.54636" lon="6.78522">
        <ele>372.4</ele>
        <time>2017-10-15T07:22:37.999Z</time>
      </trkpt>
      <trkpt lat="47.5464" lon="6.78527">
        <ele>372.5</ele>
        <time>2017-10-15T07:22:38.999Z</time>
      </trkpt>
      <trkpt lat="47.54643" lon="6.7853">
        <ele>372.6</ele>
        <time>2017-10-15T07:22:39.999Z</time>
      </trkpt>
      <trkpt lat="47.54646" lon="6.78532">
        <ele>372.6</ele>
        <time>2017-10-15T07:22:40.999Z</time>
      </trkpt>
      <trkpt lat="47.54649" lon="6.78535">
        <ele>372.7</ele>
        <time>2017-10-15T07:22:41.999Z</time>
      </trkpt>
      <trkpt lat="47.54651" lon="6.78537">
        <ele>372.8</ele>
        <time>2017-10-15T07:22:42.999Z</time>
      </trkpt>
      <trkpt lat="47.54654" lon="6.78541">
        <ele>372.8</ele>
        <time>2017-10-15T07:22:44.999Z</time>
      </trkpt>
      <trkpt lat="47.54656" lon="6.78542">
        <ele>372.9</ele>
        <time>2017-10-15T07:22:45.999Z</time>
      </trkpt>
      <trkpt lat="47.54655" lon="6.78542">
        <ele>376.5</ele>
        <time>2017-10-15T07:25:57.999Z</time>
      </trkpt>
      <trkpt lat="47.54649" lon="6.78536">
        <ele>376.4</ele>
        <time>2017-10-15T07:25:58.999Z</time>
      </trkpt>
      <trkpt lat="47.54645" lon="6.78533">
        <ele>376.3</ele>
        <time>2017-10-15T07:26:00.999Z</time>
      </trkpt>
      <trkpt lat="47.54643" lon="6.78531">
        <ele>376.2</ele>
        <time>2017-10-15T07:26:01.999Z</time>
      </trkpt>
      <trkpt lat="47.5464" lon="6.78529">
        <ele>376.1</ele>
        <time>2017-10-15T07:26:02.999Z</time>
      </trkpt>
      <trkpt lat="47.54638" lon="6.78527">
        <ele>376.1</ele>
        <time>2017-10-15T07:26:03.999Z</time>
      </trkpt>
      <trkpt lat="47.54635" lon="6.78524">
        <ele>376</ele>
        <time>2017-10-15T07:26:04.999Z</time>
      </trkpt>
      <trkpt lat="47.54633" lon="6.78522">
        <ele>376</ele>
        <time>2017-10-15T07:26:05.999Z</time>
      </trkpt>
      <trkpt lat="47.54631" lon="6.78519">
        <ele>376</ele>
        <time>2017-10-15T07:26:07.999Z</time>
      </trkpt>
      <trkpt lat="47.54629" lon="6.78518">
        <ele>376</ele>
        <time>2017-10-15T07:26:08.999Z</time>
      </trkpt>
      <trkpt lat="47.54628" lon="6.78512">
        <ele>375.9</ele>
        <time>2017-10-15T07:26:14.999Z</time>
      </trkpt>
      <trkpt lat="47.54628" lon="6.78509">
        <ele>375.9</ele>
        <time>2017-10-15T07:26:15.999Z</time>
      </trkpt>
      <trkpt lat="47.54628" lon="6.78503">
        <ele>375.8</ele>
        <time>2017-10-15T07:26:17.999Z</time>
      </trkpt>
      <trkpt lat="47.54628" lon="6.78501">
        <ele>375.8</ele>
        <time>2017-10-15T07:26:18.999Z</time>
      </trkpt>
      <trkpt lat="47.54628" lon="6.78494">
        <ele>375.5</ele>
        <time>2017-10-15T07:26:21.999Z</time>
      </trkpt>
      <trkpt lat="47.54628" lon="6.7849">
        <ele>375.5</ele>
        <time>2017-10-15T07:26:22.999Z</time>
      </trkpt>
      <trkpt lat="47.54628" lon="6.78486">
        <ele>375.4</ele>
        <time>2017-10-15T07:26:23.999Z</time>
      </trkpt>
      <trkpt lat="47.54628" lon="6.78482">
        <ele>375.3</ele>
        <time>2017-10-15T07:26:24.999Z</time>
      </trkpt>
      <trkpt lat="47.54628" lon="6.78478">
        <ele>375.2</ele>
        <time>2017-10-15T07:26:25.999Z</time>
      </trkpt>
      <trkpt lat="47.54629" lon="6.78473">
        <ele>375.1</ele>
        <time>2017-10-15T07:26:26.999Z</time>
      </trkpt>
      <trkpt lat="47.5463" lon="6.78468">
        <ele>375.1</ele>
        <time>2017-10-15T07:26:27.999Z</time>
      </trkpt>
      <trkpt lat="47.5463" lon="6.78462">
        <ele>375</ele>
        <time>2017-10-15T07:26:28.999Z</time>
      </trkpt>
      <trkpt lat="47.54631" lon="6.78459">
        <ele>375</ele>
        <time>2017-10-15T07:26:29.999Z</time>
      </trkpt>
      <trkpt lat="47.54632" lon="6.78455">
        <ele>375</ele>
        <time>2017-10-15T07:26:30.999Z</time>
      </trkpt>
      <trkpt lat="47.54632" lon="6.78451">
        <ele>375</ele>
        <time>2017-10-15T07:26:31.999Z</time>
      </trkpt>
      <trkpt lat="47.54633" lon="6.78447">
        <ele>375</ele>
        <time>2017-10-15T07:26:32.999Z</time>
      </trkpt>
      <trkpt lat="47.54633" lon="6.78443">
        <ele>375</ele>
        <time>2017-10-15T07:26:33.999Z</time>
      </trkpt>
      <trkpt lat="47.54633" lon="6.78439">
        <ele>375</ele>
        <time>2017-10-15T07:26:34.999Z</time>
      </trkpt>
      <trkpt lat="47.54635" lon="6.78434">
        <ele>374.9</ele>
        <time>2017-10-15T07:26:36.999Z</time>
      </trkpt>
      <trkpt lat="47.54636" lon="6.7843">
        <ele>374.8</ele>
        <time>2017-10-15T07:26:37.999Z</time>
      </trkpt>
      <trkpt lat="47.54638" lon="6.78426">
        <ele>374.7</ele>
        <time>2017-10-15T07:26:38.999Z</time>
      </trkpt>
      <trkpt lat="47.54639" lon="6.78422">
        <ele>374.5</ele>
        <time>2017-10-15T07:26:39.999Z</time>
      </trkpt>
      <trkpt lat="47.54641" lon="6.7842">
        <ele>374.4</ele>
        <time>2017-10-15T07:26:40.999Z</time>
      </trkpt>
      <trkpt lat="47.54642" lon="6.78416">
        <ele>374.3</ele>
        <time>2017-10-15T07:26:41.999Z</time>
      </trkpt>
      <trkpt lat="47.54643" lon="6.78413">
        <ele>374.1</ele>
        <time>2017-10-15T07:26:42.999Z</time>
      </trkpt>
      <trkpt lat="47.54645" lon="6.78411">
        <ele>373.9</ele>
        <time>2017-10-15T07:26:43.999Z</time>
      </trkpt>
      <trkpt lat="47.54648" lon="6.78408">
        <ele>373.8</ele>
        <time>2017-10-15T07:26:44.999Z</time>
      </trkpt>
      <trkpt lat="47.5465" lon="6.78406">
        <ele>373.6</ele>
        <time>2017-10-15T07:26:45.999Z</time>
      </trkpt>
      <trkpt lat="47.54652" lon="6.78403">
        <ele>373.4</ele>
        <time>2017-10-15T07:26:46.999Z</time>
      </trkpt>
      <trkpt lat="47.54655" lon="6.784">
        <ele>373.2</ele>
        <time>2017-10-15T07:26:47.999Z</time>
      </trkpt>
      <trkpt lat="47.54657" lon="6.78398">
        <ele>373</ele>
        <time>2017-10-15T07:26:48.999Z</time>
      </trkpt>
      <trkpt lat="47.5466" lon="6.78397">
        <ele>372.8</ele>
        <time>2017-10-15T07:26:49.999Z</time>
      </trkpt>
      <trkpt lat="47.54662" lon="6.78395">
        <ele>372.6</ele>
        <time>2017-10-15T07:26:50.999Z</time>
      </trkpt>
      <trkpt lat="47.54664" lon="6.78393">
        <ele>372.4</ele>
        <time>2017-10-15T07:26:51.999Z</time>
      </trkpt>
      <trkpt lat="47.54667" lon="6.78389">
        <ele>372</ele>
        <time>2017-10-15T07:26:53.999Z</time>
      </trkpt>
      <trkpt lat="47.54669" lon="6.78388">
        <ele>371.9</ele>
        <time>2017-10-15T07:26:54.999Z</time>
      </trkpt>
      <trkpt lat="47.54672" lon="6.78387">
        <ele>371.8</ele>
        <time>2017-10-15T07:26:56.999Z</time>
      </trkpt>
      <trkpt lat="47.54674" lon="6.78386">
        <ele>371.8</ele>
        <time>2017-10-15T07:26:57.999Z</time>
      </trkpt>
      <trkpt lat="47.54677" lon="6.78384">
        <ele>371.8</ele>
        <time>2017-10-15T07:26:58.999Z</time>
      </trkpt>
      <trkpt lat="47.54678" lon="6.78383">
        <ele>371.7</ele>
        <time>2017-10-15T07:26:59.999Z</time>
      </trkpt>
      <trkpt lat="47.54681" lon="6.78379">
        <ele>371.6</ele>
        <time>2017-10-15T07:27:01.999Z</time>
      </trkpt>
      <trkpt lat="47.54682" lon="6.78377">
        <ele>371.6</ele>
        <time>2017-10-15T07:27:02.999Z</time>
      </trkpt>
      <trkpt lat="47.54684" lon="6.78372">
        <ele>371.8</ele>
        <time>2017-10-15T07:27:09.999Z</time>
      </trkpt>
      <trkpt lat="47.54685" lon="6.78371">
        <ele>371.9</ele>
        <time>2017-10-15T07:27:10.999Z</time>
      </trkpt>
      <trkpt lat="47.54687" lon="6.78367">
        <ele>372</ele>
        <time>2017-10-15T07:27:15.999Z</time>
      </trkpt>
      <trkpt lat="47.54688" lon="6.78366">
        <ele>372</ele>
        <time>2017-10-15T07:27:16.999Z</time>
      </trkpt>
      <trkpt lat="47.5469" lon="6.78361">
        <ele>371.8</ele>
        <time>2017-10-15T07:27:19.999Z</time>
      </trkpt>
      <trkpt lat="47.54691" lon="6.7836">
        <ele>371.7</ele>
        <time>2017-10-15T07:27:20.999Z</time>
      </trkpt>
      <trkpt lat="47.54693" lon="6.78355">
        <ele>371.3</ele>
        <time>2017-10-15T07:27:24.999Z</time>
      </trkpt>
      <trkpt lat="47.54693" lon="6.78354">
        <ele>371.2</ele>
        <time>2017-10-15T07:27:25.999Z</time>
      </trkpt>
      <trkpt lat="47.54695" lon="6.78349">
        <ele>370.4</ele>
        <time>2017-10-15T07:27:30.999Z</time>
      </trkpt>
      <trkpt lat="47.54695" lon="6.78348">
        <ele>370.2</ele>
        <time>2017-10-15T07:27:31.999Z</time>
      </trkpt>
      <trkpt lat="47.54698" lon="6.78342">
        <ele>369.4</ele>
        <time>2017-10-15T07:27:36.999Z</time>
      </trkpt>
      <trkpt lat="47.54699" lon="6.78341">
        <ele>369.2</ele>
        <time>2017-10-15T07:27:37.999Z</time>
      </trkpt>
      <trkpt lat="47.54701" lon="6.78336">
        <ele>368.6</ele>
        <time>2017-10-15T07:27:41.999Z</time>
      </trkpt>
      <trkpt lat="47.54701" lon="6.78335">
        <ele>368.5</ele>
        <time>2017-10-15T07:27:42.999Z</time>
      </trkpt>
      <trkpt lat="47.54702" lon="6.78331">
        <ele>368.1</ele>
        <time>2017-10-15T07:27:45.999Z</time>
      </trkpt>
      <trkpt lat="47.54702" lon="6.78329">
        <ele>367.9</ele>
        <time>2017-10-15T07:27:46.999Z</time>
      </trkpt>
      <trkpt lat="47.54704" lon="6.78323">
        <ele>367.7</ele>
        <time>2017-10-15T07:27:57.999Z</time>
      </trkpt>
      <trkpt lat="47.54705" lon="6.7832">
        <ele>367.8</ele>
        <time>2017-10-15T07:27:58.999Z</time>
      </trkpt>
      <trkpt lat="47.54706" lon="6.78315">
        <ele>367.9</ele>
        <time>2017-10-15T07:28:01.999Z</time>
      </trkpt>
      <trkpt lat="47.54706" lon="6.78313">
        <ele>367.9</ele>
        <time>2017-10-15T07:28:02.999Z</time>
      </trkpt>
      <trkpt lat="47.54708" lon="6.7831">
        <ele>367.8</ele>
        <time>2017-10-15T07:28:05.999Z</time>
      </trkpt>
      <trkpt lat="47.54709" lon="6.78309">
        <ele>367.8</ele>
        <time>2017-10-15T07:28:06.999Z</time>
      </trkpt>
      <trkpt lat="47.54707" lon="6.78313">
        <ele>368.8</ele>
        <time>2017-10-15T07:28:18.999Z</time>
      </trkpt>
      <trkpt lat="47.54706" lon="6.78316">
        <ele>368.9</ele>
        <time>2017-10-15T07:28:19.999Z</time>
      </trkpt>
      <trkpt lat="47.54704" lon="6.78321">
        <ele>369</ele>
        <time>2017-10-15T07:28:21.999Z</time>
      </trkpt>
      <trkpt lat="47.54702" lon="6.78324">
        <ele>369.1</ele>
        <time>2017-10-15T07:28:22.999Z</time>
      </trkpt>
      <trkpt lat="47.54701" lon="6.78326">
        <ele>369.1</ele>
        <time>2017-10-15T07:28:23.999Z</time>
      </trkpt>
      <trkpt lat="47.547" lon="6.7833">
        <ele>369.1</ele>
        <time>2017-10-15T07:28:24.999Z</time>
      </trkpt>
      <trkpt lat="47.54697" lon="6.78335">
        <ele>369.2</ele>
        <time>2017-10-15T07:28:26.999Z</time>
      </trkpt>
      <trkpt lat="47.54696" lon="6.78337">
        <ele>369.2</ele>
        <time>2017-10-15T07:28:27.999Z</time>
      </trkpt>
      <trkpt lat="47.54693" lon="6.78341">
        <ele>369.3</ele>
        <time>2017-10-15T07:28:30.999Z</time>
      </trkpt>
      <trkpt lat="47.54692" lon="6.78342">
        <ele>369.3</ele>
        <time>2017-10-15T07:28:31.999Z</time>
      </trkpt>
      <trkpt lat="47.54689" lon="6.78347">
        <ele>369.3</ele>
        <time>2017-10-15T07:28:34.999Z</time>
      </trkpt>
      <trkpt lat="47.54688" lon="6.78349">
        <ele>369.2</ele>
        <time>2017-10-15T07:28:35.999Z</time>
      </trkpt>
      <trkpt lat="47.54685" lon="6.78352">
        <ele>369.3</ele>
        <time>2017-10-15T07:28:37.999Z</time>
      </trkpt>
      <trkpt lat="47.54684" lon="6.78354">
        <ele>369.4</ele>
        <time>2017-10-15T07:28:38.999Z</time>
      </trkpt>
      <trkpt lat="47.54681" lon="6.78358">
        <ele>369.7</ele>
        <time>2017-10-15T07:28:40.999Z</time>
      </trkpt>
      <trkpt lat="47.5468" lon="6.7836">
        <ele>369.7</ele>
        <time>2017-10-15T07:28:41.999Z</time>
      </trkpt>
      <trkpt lat="47.54677" lon="6.78363">
        <ele>369.8</ele>
        <time>2017-10-15T07:28:43.999Z</time>
      </trkpt>
      <trkpt lat="47.54676" lon="6.78365">
        <ele>369.8</ele>
        <time>2017-10-15T07:28:44.999Z</time>
      </trkpt>
      <trkpt lat="47.54673" lon="6.78369">
        <ele>369.9</ele>
        <time>2017-10-15T07:28:47.999Z</time>
      </trkpt>
      <trkpt lat="47.54672" lon="6.78371">
        <ele>370</ele>
        <time>2017-10-15T07:28:48.999Z</time>
      </trkpt>
      <trkpt lat="47.54669" lon="6.78374">
        <ele>370.4</ele>
        <time>2017-10-15T07:28:51.999Z</time>
      </trkpt>
      <trkpt lat="47.54668" lon="6.78377">
        <ele>370.4</ele>
        <time>2017-10-15T07:28:52.999Z</time>
      </trkpt>
      <trkpt lat="47.54666" lon="6.78381">
        <ele>370.6</ele>
        <time>2017-10-15T07:28:54.999Z</time>
      </trkpt>
      <trkpt lat="47.54665" lon="6.78382">
        <ele>370.7</ele>
        <time>2017-10-15T07:28:55.999Z</time>
      </trkpt>
      <trkpt lat="47.54662" lon="6.78386">
        <ele>370.9</ele>
        <time>2017-10-15T07:28:57.999Z</time>
      </trkpt>
      <trkpt lat="47.54661" lon="6.78387">
        <ele>371</ele>
        <time>2017-10-15T07:28:58.999Z</time>
      </trkpt>
      <trkpt lat="47.54657" lon="6.7839">
        <ele>371.2</ele>
        <time>2017-10-15T07:29:01.999Z</time>
      </trkpt>
      <trkpt lat="47.54656" lon="6.78391">
        <ele>371.3</ele>
        <time>2017-10-15T07:29:02.999Z</time>
      </trkpt>
      <trkpt lat="47.54654" lon="6.78393">
        <ele>371.3</ele>
        <time>2017-10-15T07:29:04.000Z</time>
      </trkpt>
      <trkpt lat="47.54652" lon="6.78395">
        <ele>371.2</ele>
        <time>2017-10-15T07:29:05.000Z</time>
      </trkpt>
      <trkpt lat="47.54648" lon="6.78398">
        <ele>371.1</ele>
        <time>2017-10-15T07:29:08.000Z</time>
      </trkpt>
      <trkpt lat="47.54647" lon="6.78398">
        <ele>371.1</ele>
        <time>2017-10-15T07:29:09.000Z</time>
      </trkpt>
      <trkpt lat="47.54644" lon="6.78402">
        <ele>371.2</ele>
        <time>2017-10-15T07:29:14.000Z</time>
      </trkpt>
      <trkpt lat="47.54643" lon="6.78403">
        <ele>371.3</ele>
        <time>2017-10-15T07:29:15.000Z</time>
      </trkpt>
      <trkpt lat="47.54641" lon="6.78408">
        <ele>371.8</ele>
        <time>2017-10-15T07:29:18.000Z</time>
      </trkpt>
      <trkpt lat="47.54641" lon="6.78409">
        <ele>372</ele>
        <time>2017-10-15T07:29:19.000Z</time>
      </trkpt>
      <trkpt lat="47.54638" lon="6.78415">
        <ele>372.4</ele>
        <time>2017-10-15T07:29:22.000Z</time>
      </trkpt>
      <trkpt lat="47.54638" lon="6.78416">
        <ele>372.5</ele>
        <time>2017-10-15T07:29:23.000Z</time>
      </trkpt>
      <trkpt lat="47.54637" lon="6.78422">
        <ele>372.9</ele>
        <time>2017-10-15T07:29:28.000Z</time>
      </trkpt>
      <trkpt lat="47.54637" lon="6.78423">
        <ele>372.9</ele>
        <time>2017-10-15T07:29:29.000Z</time>
      </trkpt>
      <trkpt lat="47.54639" lon="6.78419">
        <ele>373.2</ele>
        <time>2017-10-15T07:29:32.000Z</time>
      </trkpt>
      <trkpt lat="47.5464" lon="6.78415">
        <ele>373.2</ele>
        <time>2017-10-15T07:29:33.000Z</time>
      </trkpt>
      <trkpt lat="47.54642" lon="6.7841">
        <ele>373.2</ele>
        <time>2017-10-15T07:29:35.000Z</time>
      </trkpt>
      <trkpt lat="47.54643" lon="6.78407">
        <ele>373.1</ele>
        <time>2017-10-15T07:29:36.000Z</time>
      </trkpt>
      <trkpt lat="47.54645" lon="6.78404">
        <ele>372.9</ele>
        <time>2017-10-15T07:29:37.000Z</time>
      </trkpt>
      <trkpt lat="47.54647" lon="6.78401">
        <ele>372.8</ele>
        <time>2017-10-15T07:29:38.000Z</time>
      </trkpt>
      <trkpt lat="47.54649" lon="6.78399">
        <ele>372.7</ele>
        <time>2017-10-15T07:29:39.000Z</time>
      </trkpt>
      <trkpt lat="47.54653" lon="6.78396">
        <ele>372.5</ele>
        <time>2017-10-15T07:29:40.000Z</time>
      </trkpt>
      <trkpt lat="47.54655" lon="6.78393">
        <ele>372.3</ele>
        <time>2017-10-15T07:29:41.000Z</time>
      </trkpt>
      <trkpt lat="47.54658" lon="6.78392">
        <ele>372.2</ele>
        <time>2017-10-15T07:29:42.000Z</time>
      </trkpt>
      <trkpt lat="47.54661" lon="6.7839">
        <ele>372</ele>
        <time>2017-10-15T07:29:43.000Z</time>
      </trkpt>
      <trkpt lat="47.54664" lon="6.78388">
        <ele>371.8</ele>
        <time>2017-10-15T07:29:44.000Z</time>
      </trkpt>
      <trkpt lat="47.54667" lon="6.78386">
        <ele>371.7</ele>
        <time>2017-10-15T07:29:45.000Z</time>
      </trkpt>
      <trkpt lat="47.54668" lon="6.78383">
        <ele>371.6</ele>
        <time>2017-10-15T07:29:46.000Z</time>
      </trkpt>
      <trkpt lat="47.54665" lon="6.78381">
        <ele>371.3</ele>
        <time>2017-10-15T07:29:50.000Z</time>
      </trkpt>
      <trkpt lat="47.54663" lon="6.78383">
        <ele>371.3</ele>
        <time>2017-10-15T07:29:51.000Z</time>
      </trkpt>
      <trkpt lat="47.54661" lon="6.78387">
        <ele>371.4</ele>
        <time>2017-10-15T07:29:55.000Z</time>
      </trkpt>
      <trkpt lat="47.5466" lon="6.78388">
        <ele>371.3</ele>
        <time>2017-10-15T07:29:56.000Z</time>
      </trkpt>
      <trkpt lat="47.54656" lon="6.78391">
        <ele>371.4</ele>
        <time>2017-10-15T07:30:01.000Z</time>
      </trkpt>
      <trkpt lat="47.54653" lon="6.78391">
        <ele>371.5</ele>
        <time>2017-10-15T07:30:02.000Z</time>
      </trkpt>
      <trkpt lat="47.5465" lon="6.78393">
        <ele>371.6</ele>
        <time>2017-10-15T07:30:04.000Z</time>
      </trkpt>
      <trkpt lat="47.54649" lon="6.78395">
        <ele>371.7</ele>
        <time>2017-10-15T07:30:05.000Z</time>
      </trkpt>
      <trkpt lat="47.54646" lon="6.78399">
        <ele>372.1</ele>
        <time>2017-10-15T07:30:09.000Z</time>
      </trkpt>
      <trkpt lat="47.54645" lon="6.78401">
        <ele>372.2</ele>
        <time>2017-10-15T07:30:10.000Z</time>
      </trkpt>
      <trkpt lat="47.54643" lon="6.78406">
        <ele>372.7</ele>
        <time>2017-10-15T07:30:15.000Z</time>
      </trkpt>
      <trkpt lat="47.54643" lon="6.78407">
        <ele>372.8</ele>
        <time>2017-10-15T07:30:16.000Z</time>
      </trkpt>
      <trkpt lat="47.5464" lon="6.78412">
        <ele>373.2</ele>
        <time>2017-10-15T07:30:19.000Z</time>
      </trkpt>
      <trkpt lat="47.54639" lon="6.78414">
        <ele>373.3</ele>
        <time>2017-10-15T07:30:20.000Z</time>
      </trkpt>
      <trkpt lat="47.54638" lon="6.78419">
        <ele>373.6</ele>
        <time>2017-10-15T07:30:22.000Z</time>
      </trkpt>
      <trkpt lat="47.54637" lon="6.78423">
        <ele>373.7</ele>
        <time>2017-10-15T07:30:23.000Z</time>
      </trkpt>
      <trkpt lat="47.54636" lon="6.78427">
        <ele>373.9</ele>
        <time>2017-10-15T07:30:24.000Z</time>
      </trkpt>
      <trkpt lat="47.54636" lon="6.7843">
        <ele>374.1</ele>
        <time>2017-10-15T07:30:25.000Z</time>
      </trkpt>
      <trkpt lat="47.54636" lon="6.78434">
        <ele>374.3</ele>
        <time>2017-10-15T07:30:26.000Z</time>
      </trkpt>
      <trkpt lat="47.54635" lon="6.78437">
        <ele>374.4</ele>
        <time>2017-10-15T07:30:27.000Z</time>
      </trkpt>
      <trkpt lat="47.54635" lon="6.78444">
        <ele>374.8</ele>
        <time>2017-10-15T07:30:29.000Z</time>
      </trkpt>
      <trkpt lat="47.54634" lon="6.78447">
        <ele>375</ele>
        <time>2017-10-15T07:30:30.000Z</time>
      </trkpt>
      <trkpt lat="47.54634" lon="6.7845">
        <ele>375.1</ele>
        <time>2017-10-15T07:30:31.000Z</time>
      </trkpt>
      <trkpt lat="47.54633" lon="6.78454">
        <ele>375.3</ele>
        <time>2017-10-15T07:30:32.000Z</time>
      </trkpt>
      <trkpt lat="47.54633" lon="6.78458">
        <ele>375.3</ele>
        <time>2017-10-15T07:30:33.000Z</time>
      </trkpt>
      <trkpt lat="47.54633" lon="6.78461">
        <ele>375.4</ele>
        <time>2017-10-15T07:30:34.000Z</time>
      </trkpt>
      <trkpt lat="47.54632" lon="6.78464">
        <ele>375.5</ele>
        <time>2017-10-15T07:30:35.000Z</time>
      </trkpt>
      <trkpt lat="47.54632" lon="6.78468">
        <ele>375.7</ele>
        <time>2017-10-15T07:30:36.000Z</time>
      </trkpt>
      <trkpt lat="47.54631" lon="6.78472">
        <ele>375.9</ele>
        <time>2017-10-15T07:30:37.000Z</time>
      </trkpt>
      <trkpt lat="47.5463" lon="6.78477">
        <ele>376</ele>
        <time>2017-10-15T07:30:38.000Z</time>
      </trkpt>
      <trkpt lat="47.54629" lon="6.78481">
        <ele>376.1</ele>
        <time>2017-10-15T07:30:39.000Z</time>
      </trkpt>
      <trkpt lat="47.54629" lon="6.78487">
        <ele>376.2</ele>
        <time>2017-10-15T07:30:40.000Z</time>
      </trkpt>
      <trkpt lat="47.54628" lon="6.78492">
        <ele>376.4</ele>
        <time>2017-10-15T07:30:41.000Z</time>
      </trkpt>
      <trkpt lat="47.54628" lon="6.78498">
        <ele>376.4</ele>
        <time>2017-10-15T07:30:42.000Z</time>
      </trkpt>
      <trkpt lat="47.54628" lon="6.78503">
        <ele>376.5</ele>
        <time>2017-10-15T07:30:43.000Z</time>
      </trkpt>
      <trkpt lat="47.54628" lon="6.78508">
        <ele>376.6</ele>
        <time>2017-10-15T07:30:44.000Z</time>
      </trkpt>
      <trkpt lat="47.54629" lon="6.78514">
        <ele>377.4</ele>
        <time>2017-10-15T07:30:45.000Z</time>
      </trkpt>
      <trkpt lat="47.54631" lon="6.78519">
        <ele>377.9</ele>
        <time>2017-10-15T07:30:46.000Z</time>
      </trkpt>
      <trkpt lat="47.54634" lon="6.78524">
        <ele>378.2</ele>
        <time>2017-10-15T07:30:47.000Z</time>
      </trkpt>
      <trkpt lat="47.54638" lon="6.78527">
        <ele>378.1</ele>
        <time>2017-10-15T07:30:48.000Z</time>
      </trkpt>
      <trkpt lat="47.54642" lon="6.7853">
        <ele>377.9</ele>
        <time>2017-10-15T07:30:49.000Z</time>
      </trkpt>
      <trkpt lat="47.54645" lon="6.78533">
        <ele>377.4</ele>
        <time>2017-10-15T07:30:50.000Z</time>
      </trkpt>
      <trkpt lat="47.54649" lon="6.78537">
        <ele>376.7</ele>
        <time>2017-10-15T07:30:51.000Z</time>
      </trkpt>
      <trkpt lat="47.54653" lon="6.78541">
        <ele>375.9</ele>
        <time>2017-10-15T07:30:52.000Z</time>
      </trkpt>
      <trkpt lat="47.54655" lon="6.78545">
        <ele>375.6</ele>
        <time>2017-10-15T07:30:53.000Z</time>
      </trkpt>
      <trkpt lat="47.54659" lon="6.78549">
        <ele>375.2</ele>
        <time>2017-10-15T07:30:54.000Z</time>
      </trkpt>
      <trkpt lat="47.54661" lon="6.78553">
        <ele>375.1</ele>
        <time>2017-10-15T07:30:55.000Z</time>
      </trkpt>
      <trkpt lat="47.54664" lon="6.78558">
        <ele>375.3</ele>
        <time>2017-10-15T07:30:56.000Z</time>
      </trkpt>
      <trkpt lat="47.54665" lon="6.78562">
        <ele>375.1</ele>
        <time>2017-10-15T07:30:57.000Z</time>
      </trkpt>
      <trkpt lat="47.54668" lon="6.78567">
        <ele>375.1</ele>
        <time>2017-10-15T07:30:58.000Z</time>
      </trkpt>
      <trkpt lat="47.54669" lon="6.78572">
        <ele>374.9</ele>
        <time>2017-10-15T07:30:59.000Z</time>
      </trkpt>
      <trkpt lat="47.54671" lon="6.78576">
        <ele>374.6</ele>
        <time>2017-10-15T07:31:00.000Z</time>
      </trkpt>
      <trkpt lat="47.54674" lon="6.78581">
        <ele>374.5</ele>
        <time>2017-10-15T07:31:01.000Z</time>
      </trkpt>
      <trkpt lat="47.54676" lon="6.78586">
        <ele>374.6</ele>
        <time>2017-10-15T07:31:02.000Z</time>
      </trkpt>
      <trkpt lat="47.54677" lon="6.78591">
        <ele>374.5</ele>
        <time>2017-10-15T07:31:03.000Z</time>
      </trkpt>
      <trkpt lat="47.54678" lon="6.78595">
        <ele>374.6</ele>
        <time>2017-10-15T07:31:04.000Z</time>
      </trkpt>
      <trkpt lat="47.54679" lon="6.786">
        <ele>374.6</ele>
        <time>2017-10-15T07:31:05.000Z</time>
      </trkpt>
      <trkpt lat="47.5468" lon="6.78605">
        <ele>374.7</ele>
        <time>2017-10-15T07:31:06.000Z</time>
      </trkpt>
      <trkpt lat="47.54682" lon="6.7861">
        <ele>374.8</ele>
        <time>2017-10-15T07:31:07.000Z</time>
      </trkpt>
      <trkpt lat="47.54683" lon="6.78614">
        <ele>374.8</ele>
        <time>2017-10-15T07:31:08.000Z</time>
      </trkpt>
      <trkpt lat="47.54684" lon="6.78619">
        <ele>374.9</ele>
        <time>2017-10-15T07:31:09.000Z</time>
      </trkpt>
      <trkpt lat="47.54685" lon="6.78624">
        <ele>375</ele>
        <time>2017-10-15T07:31:10.000Z</time>
      </trkpt>
      <trkpt lat="47.54686" lon="6.78628">
        <ele>375.1</ele>
        <time>2017-10-15T07:31:11.000Z</time>
      </trkpt>
      <trkpt lat="47.54687" lon="6.78632">
        <ele>375.3</ele>
        <time>2017-10-15T07:31:12.000Z</time>
      </trkpt>
      <trkpt lat="47.54688" lon="6.78636">
        <ele>375.4</ele>
        <time>2017-10-15T07:31:13.000Z</time>
      </trkpt>
      <trkpt lat="47.54689" lon="6.7864">
        <ele>375.5</ele>
        <time>2017-10-15T07:31:14.000Z</time>
      </trkpt>
      <trkpt lat="47.5469" lon="6.78645">
        <ele>375.6</ele>
        <time>2017-10-15T07:31:15.000Z</time>
      </trkpt>
      <trkpt lat="47.54691" lon="6.78649">
        <ele>375.8</ele>
        <time>2017-10-15T07:31:16.000Z</time>
      </trkpt>
      <trkpt lat="47.54692" lon="6.78654">
        <ele>376</ele>
        <time>2017-10-15T07:31:17.000Z</time>
      </trkpt>
      <trkpt lat="47.54693" lon="6.78658">
        <ele>376.1</ele>
        <time>2017-10-15T07:31:18.000Z</time>
      </trkpt>
      <trkpt lat="47.54695" lon="6.78663">
        <ele>376.3</ele>
        <time>2017-10-15T07:31:19.000Z</time>
      </trkpt>
      <trkpt lat="47.54696" lon="6.78667">
        <ele>376.5</ele>
        <time>2017-10-15T07:31:20.000Z</time>
      </trkpt>
      <trkpt lat="47.54697" lon="6.78671">
        <ele>376.7</ele>
        <time>2017-10-15T07:31:21.000Z</time>
      </trkpt>
      <trkpt lat="47.54699" lon="6.78675">
        <ele>376.9</ele>
        <time>2017-10-15T07:31:22.000Z</time>
      </trkpt>
      <trkpt lat="47.547" lon="6.78679">
        <ele>377</ele>
        <time>2017-10-15T07:31:23.000Z</time>
      </trkpt>
      <trkpt lat="47.54702" lon="6.78684">
        <ele>377.2</ele>
        <time>2017-10-15T07:31:24.000Z</time>
      </trkpt>
      <trkpt lat="47.54703" lon="6.78688">
        <ele>377.3</ele>
        <time>2017-10-15T07:31:25.000Z</time>
      </trkpt>
      <trkpt lat="47.54705" lon="6.78692">
        <ele>377.4</ele>
        <time>2017-10-15T07:31:26.000Z</time>
      </trkpt>
      <trkpt lat="47.54707" lon="6.78696">
        <ele>377.5</ele>
        <time>2017-10-15T07:31:27.000Z</time>
      </trkpt>
      <trkpt lat="47.54708" lon="6.78699">
        <ele>377.6</ele>
        <time>2017-10-15T07:31:28.000Z</time>
      </trkpt>
      <trkpt lat="47.5471" lon="6.78703">
        <ele>377.7</ele>
        <time>2017-10-15T07:31:29.000Z</time>
      </trkpt>
      <trkpt lat="47.54711" lon="6.78707">
        <ele>377.7</ele>
        <time>2017-10-15T07:31:30.000Z</time>
      </trkpt>
      <trkpt lat="47.54712" lon="6.78711">
        <ele>377.8</ele>
        <time>2017-10-15T07:31:31.000Z</time>
      </trkpt>
      <trkpt lat="47.54714" lon="6.78714">
        <ele>377.8</ele>
        <time>2017-10-15T07:31:32.000Z</time>
      </trkpt>
      <trkpt lat="47.54715" lon="6.78719">
        <ele>377.9</ele>
        <time>2017-10-15T07:31:33.000Z</time>
      </trkpt>
      <trkpt lat="47.54717" lon="6.78724">
        <ele>377.9</ele>
        <time>2017-10-15T07:31:34.000Z</time>
      </trkpt>
      <trkpt lat="47.54719" lon="6.78728">
        <ele>377.9</ele>
        <time>2017-10-15T07:31:35.000Z</time>
      </trkpt>
      <trkpt lat="47.5472" lon="6.78733">
        <ele>378</ele>
        <time>2017-10-15T07:31:36.000Z</time>
      </trkpt>
      <trkpt lat="47.54722" lon="6.78738">
        <ele>378</ele>
        <time>2017-10-15T07:31:37.000Z</time>
      </trkpt>
      <trkpt lat="47.54722" lon="6.78742">
        <ele>378.1</ele>
        <time>2017-10-15T07:31:38.000Z</time>
      </trkpt>
      <trkpt lat="47.54724" lon="6.78747">
        <ele>378.2</ele>
        <time>2017-10-15T07:31:39.000Z</time>
      </trkpt>
      <trkpt lat="47.54725" lon="6.7875">
        <ele>378.3</ele>
        <time>2017-10-15T07:31:40.000Z</time>
      </trkpt>
      <trkpt lat="47.54726" lon="6.78755">
        <ele>378.4</ele>
        <time>2017-10-15T07:31:41.000Z</time>
      </trkpt>
      <trkpt lat="47.54728" lon="6.78759">
        <ele>378.5</ele>
        <time>2017-10-15T07:31:42.000Z</time>
      </trkpt>
      <trkpt lat="47.54729" lon="6.78763">
        <ele>378.5</ele>
        <time>2017-10-15T07:31:43.000Z</time>
      </trkpt>
      <trkpt lat="47.5473" lon="6.78767">
        <ele>378.6</ele>
        <time>2017-10-15T07:31:44.000Z</time>
      </trkpt>
      <trkpt lat="47.54732" lon="6.78772">
        <ele>378.9</ele>
        <time>2017-10-15T07:31:46.000Z</time>
      </trkpt>
      <trkpt lat="47.54733" lon="6.78775">
        <ele>379</ele>
        <time>2017-10-15T07:31:47.000Z</time>
      </trkpt>
      <trkpt lat="47.54735" lon="6.78779">
        <ele>379.1</ele>
        <time>2017-10-15T07:31:48.000Z</time>
      </trkpt>
      <trkpt lat="47.54736" lon="6.78783">
        <ele>379.2</ele>
        <time>2017-10-15T07:31:49.000Z</time>
      </trkpt>
      <trkpt lat="47.54737" lon="6.78786">
        <ele>379.4</ele>
        <time>2017-10-15T07:31:50.000Z</time>
      </trkpt>
      <trkpt lat="47.54738" lon="6.7879">
        <ele>379.5</ele>
        <time>2017-10-15T07:31:51.000Z</time>
      </trkpt>
      <trkpt lat="47.54739" lon="6.78793">
        <ele>379.6</ele>
        <time>2017-10-15T07:31:52.000Z</time>
      </trkpt>
      <trkpt lat="47.5474" lon="6.78796">
        <ele>379.8</ele>
        <time>2017-10-15T07:31:53.000Z</time>
      </trkpt>
      <trkpt lat="47.54741" lon="6.78799">
        <ele>379.9</ele>
        <time>2017-10-15T07:31:54.000Z</time>
      </trkpt>
      <trkpt lat="47.54742" lon="6.78803">
        <ele>380.1</ele>
        <time>2017-10-15T07:31:55.000Z</time>
      </trkpt>
      <trkpt lat="47.54744" lon="6.78808">
        <ele>380.4</ele>
        <time>2017-10-15T07:31:57.000Z</time>
      </trkpt>
      <trkpt lat="47.54744" lon="6.78812">
        <ele>380.7</ele>
        <time>2017-10-15T07:31:58.000Z</time>
      </trkpt>
      <trkpt lat="47.54745" lon="6.78815">
        <ele>380.9</ele>
        <time>2017-10-15T07:31:59.000Z</time>
      </trkpt>
      <trkpt lat="47.54746" lon="6.78819">
        <ele>381.1</ele>
        <time>2017-10-15T07:32:00.000Z</time>
      </trkpt>
      <trkpt lat="47.54747" lon="6.78824">
        <ele>381.6</ele>
        <time>2017-10-15T07:32:02.000Z</time>
      </trkpt>
      <trkpt lat="47.54748" lon="6.78826">
        <ele>381.9</ele>
        <time>2017-10-15T07:32:03.000Z</time>
      </trkpt>
      <trkpt lat="47.54749" lon="6.78832">
        <ele>382.4</ele>
        <time>2017-10-15T07:32:05.000Z</time>
      </trkpt>
      <trkpt lat="47.54749" lon="6.78836">
        <ele>382.6</ele>
        <time>2017-10-15T07:32:06.000Z</time>
      </trkpt>
      <trkpt lat="47.5475" lon="6.78842">
        <ele>383.1</ele>
        <time>2017-10-15T07:32:08.000Z</time>
      </trkpt>
      <trkpt lat="47.54751" lon="6.78845">
        <ele>383.3</ele>
        <time>2017-10-15T07:32:09.000Z</time>
      </trkpt>
      <trkpt lat="47.54751" lon="6.78851">
        <ele>383.6</ele>
        <time>2017-10-15T07:32:11.000Z</time>
      </trkpt>
      <trkpt lat="47.54751" lon="6.78854">
        <ele>383.8</ele>
        <time>2017-10-15T07:32:12.000Z</time>
      </trkpt>
      <trkpt lat="47.54752" lon="6.78859">
        <ele>384.2</ele>
        <time>2017-10-15T07:32:14.000Z</time>
      </trkpt>
      <trkpt lat="47.54752" lon="6.78862">
        <ele>384.4</ele>
        <time>2017-10-15T07:32:15.000Z</time>
      </trkpt>
      <trkpt lat="47.54753" lon="6.78868">
        <ele>384.7</ele>
        <time>2017-10-15T07:32:17.000Z</time>
      </trkpt>
      <trkpt lat="47.54754" lon="6.78871">
        <ele>384.9</ele>
        <time>2017-10-15T07:32:18.000Z</time>
      </trkpt>
      <trkpt lat="47.54754" lon="6.78874">
        <ele>385.1</ele>
        <time>2017-10-15T07:32:19.000Z</time>
      </trkpt>
      <trkpt lat="47.54755" lon="6.78878">
        <ele>385.3</ele>
        <time>2017-10-15T07:32:20.000Z</time>
      </trkpt>
      <trkpt lat="47.54756" lon="6.78883">
        <ele>385.7</ele>
        <time>2017-10-15T07:32:22.000Z</time>
      </trkpt>
      <trkpt lat="47.54756" lon="6.78886">
        <ele>385.8</ele>
        <time>2017-10-15T07:32:23.000Z</time>
      </trkpt>
      <trkpt lat="47.54757" lon="6.78892">
        <ele>386.1</ele>
        <time>2017-10-15T07:32:25.000Z</time>
      </trkpt>
      <trkpt lat="47.54758" lon="6.78895">
        <ele>386.2</ele>
        <time>2017-10-15T07:32:26.000Z</time>
      </trkpt>
      <trkpt lat="47.54758" lon="6.78901">
        <ele>386.5</ele>
        <time>2017-10-15T07:32:28.000Z</time>
      </trkpt>
      <trkpt lat="47.54759" lon="6.78904">
        <ele>386.7</ele>
        <time>2017-10-15T07:32:29.000Z</time>
      </trkpt>
      <trkpt lat="47.5476" lon="6.78908">
        <ele>387.1</ele>
        <time>2017-10-15T07:32:31.000Z</time>
      </trkpt>
      <trkpt lat="47.54761" lon="6.78911">
        <ele>387.2</ele>
        <time>2017-10-15T07:32:32.000Z</time>
      </trkpt>
      <trkpt lat="47.54762" lon="6.78917">
        <ele>387.5</ele>
        <time>2017-10-15T07:32:34.000Z</time>
      </trkpt>
      <trkpt lat="47.54763" lon="6.7892">
        <ele>387.6</ele>
        <time>2017-10-15T07:32:35.000Z</time>
      </trkpt>
      <trkpt lat="47.54764" lon="6.78926">
        <ele>387.9</ele>
        <time>2017-10-15T07:32:37.000Z</time>
      </trkpt>
      <trkpt lat="47.54765" lon="6.78929">
        <ele>388</ele>
        <time>2017-10-15T07:32:38.000Z</time>
      </trkpt>
      <trkpt lat="47.54767" lon="6.78934">
        <ele>388.4</ele>
        <time>2017-10-15T07:32:40.000Z</time>
      </trkpt>
      <trkpt lat="47.54767" lon="6.78936">
        <ele>388.5</ele>
        <time>2017-10-15T07:32:41.000Z</time>
      </trkpt>
      <trkpt lat="47.54769" lon="6.78941">
        <ele>388.7</ele>
        <time>2017-10-15T07:32:43.000Z</time>
      </trkpt>
      <trkpt lat="47.54771" lon="6.78943">
        <ele>389</ele>
        <time>2017-10-15T07:32:44.000Z</time>
      </trkpt>
      <trkpt lat="47.54773" lon="6.78948">
        <ele>389.3</ele>
        <time>2017-10-15T07:32:46.000Z</time>
      </trkpt>
      <trkpt lat="47.54774" lon="6.7895">
        <ele>389.5</ele>
        <time>2017-10-15T07:32:47.000Z</time>
      </trkpt>
      <trkpt lat="47.54776" lon="6.78953">
        <ele>389.8</ele>
        <time>2017-10-15T07:32:48.000Z</time>
      </trkpt>
      <trkpt lat="47.54777" lon="6.78956">
        <ele>390</ele>
        <time>2017-10-15T07:32:49.000Z</time>
      </trkpt>
      <trkpt lat="47.5478" lon="6.7896">
        <ele>390.5</ele>
        <time>2017-10-15T07:32:51.000Z</time>
      </trkpt>
      <trkpt lat="47.54782" lon="6.78963">
        <ele>390.7</ele>
        <time>2017-10-15T07:32:52.000Z</time>
      </trkpt>
      <trkpt lat="47.54784" lon="6.78968">
        <ele>391</ele>
        <time>2017-10-15T07:32:54.000Z</time>
      </trkpt>
      <trkpt lat="47.54785" lon="6.7897">
        <ele>391.2</ele>
        <time>2017-10-15T07:32:55.000Z</time>
      </trkpt>
      <trkpt lat="47.54787" lon="6.78974">
        <ele>391.4</ele>
        <time>2017-10-15T07:32:56.000Z</time>
      </trkpt>
      <trkpt lat="47.54787" lon="6.78977">
        <ele>391.6</ele>
        <time>2017-10-15T07:32:57.000Z</time>
      </trkpt>
      <trkpt lat="47.54789" lon="6.78982">
        <ele>391.9</ele>
        <time>2017-10-15T07:32:59.000Z</time>
      </trkpt>
      <trkpt lat="47.5479" lon="6.78985">
        <ele>392.1</ele>
        <time>2017-10-15T07:33:00.000Z</time>
      </trkpt>
      <trkpt lat="47.54792" lon="6.78991">
        <ele>392.4</ele>
        <time>2017-10-15T07:33:02.000Z</time>
      </trkpt>
      <trkpt lat="47.54793" lon="6.78993">
        <ele>392.6</ele>
        <time>2017-10-15T07:33:03.000Z</time>
      </trkpt>
      <trkpt lat="47.54794" lon="6.78999">
        <ele>392.9</ele>
        <time>2017-10-15T07:33:05.000Z</time>
      </trkpt>
      <trkpt lat="47.54795" lon="6.79001">
        <ele>393.1</ele>
        <time>2017-10-15T07:33:06.000Z</time>
      </trkpt>
      <trkpt lat="47.54797" lon="6.79006">
        <ele>393.4</ele>
        <time>2017-10-15T07:33:08.000Z</time>
      </trkpt>
      <trkpt lat="47.54798" lon="6.79009">
        <ele>393.6</ele>
        <time>2017-10-15T07:33:09.000Z</time>
      </trkpt>
      <trkpt lat="47.548" lon="6.79015">
        <ele>394.1</ele>
        <time>2017-10-15T07:33:11.000Z</time>
      </trkpt>
      <trkpt lat="47.54801" lon="6.79017">
        <ele>394.2</ele>
        <time>2017-10-15T07:33:12.000Z</time>
      </trkpt>
      <trkpt lat="47.54802" lon="6.79021">
        <ele>394.4</ele>
        <time>2017-10-15T07:33:13.000Z</time>
      </trkpt>
      <trkpt lat="47.54803" lon="6.79023">
        <ele>394.6</ele>
        <time>2017-10-15T07:33:14.000Z</time>
      </trkpt>
      <trkpt lat="47.54804" lon="6.79027">
        <ele>394.8</ele>
        <time>2017-10-15T07:33:15.000Z</time>
      </trkpt>
      <trkpt lat="47.54805" lon="6.7903">
        <ele>395</ele>
        <time>2017-10-15T07:33:16.000Z</time>
      </trkpt>
      <trkpt lat="47.54806" lon="6.79033">
        <ele>395.1</ele>
        <time>2017-10-15T07:33:17.000Z</time>
      </trkpt>
      <trkpt lat="47.54807" lon="6.79036">
        <ele>395.3</ele>
        <time>2017-10-15T07:33:18.000Z</time>
      </trkpt>
      <trkpt lat="47.54808" lon="6.79039">
        <ele>395.5</ele>
        <time>2017-10-15T07:33:19.000Z</time>
      </trkpt>
      <trkpt lat="47.54809" lon="6.79042">
        <ele>395.6</ele>
        <time>2017-10-15T07:33:20.000Z</time>
      </trkpt>
      <trkpt lat="47.5481" lon="6.79048">
        <ele>396</ele>
        <time>2017-10-15T07:33:22.000Z</time>
      </trkpt>
      <trkpt lat="47.54811" lon="6.79051">
        <ele>396.2</ele>
        <time>2017-10-15T07:33:23.000Z</time>
      </trkpt>
      <trkpt lat="47.54812" lon="6.79054">
        <ele>396.4</ele>
        <time>2017-10-15T07:33:24.000Z</time>
      </trkpt>
      <trkpt lat="47.54813" lon="6.79057">
        <ele>396.5</ele>
        <time>2017-10-15T07:33:25.000Z</time>
      </trkpt>
      <trkpt lat="47.54814" lon="6.7906">
        <ele>396.7</ele>
        <time>2017-10-15T07:33:26.000Z</time>
      </trkpt>
      <trkpt lat="47.54814" lon="6.79063">
        <ele>396.9</ele>
        <time>2017-10-15T07:33:27.000Z</time>
      </trkpt>
      <trkpt lat="47.54816" lon="6.7907">
        <ele>397.2</ele>
        <time>2017-10-15T07:33:29.000Z</time>
      </trkpt>
      <trkpt lat="47.54817" lon="6.79073">
        <ele>397.4</ele>
        <time>2017-10-15T07:33:30.000Z</time>
      </trkpt>
      <trkpt lat="47.54818" lon="6.79076">
        <ele>397.6</ele>
        <time>2017-10-15T07:33:31.000Z</time>
      </trkpt>
      <trkpt lat="47.54819" lon="6.79079">
        <ele>397.8</ele>
        <time>2017-10-15T07:33:32.000Z</time>
      </trkpt>
      <trkpt lat="47.5482" lon="6.79083">
        <ele>398</ele>
        <time>2017-10-15T07:33:33.000Z</time>
      </trkpt>
      <trkpt lat="47.54822" lon="6.79085">
        <ele>398.2</ele>
        <time>2017-10-15T07:33:34.000Z</time>
      </trkpt>
      <trkpt lat="47.54824" lon="6.79089">
        <ele>398.4</ele>
        <time>2017-10-15T07:33:35.000Z</time>
      </trkpt>
      <trkpt lat="47.54825" lon="6.79091">
        <ele>398.6</ele>
        <time>2017-10-15T07:33:36.000Z</time>
      </trkpt>
      <trkpt lat="47.54827" lon="6.79094">
        <ele>398.9</ele>
        <time>2017-10-15T07:33:37.000Z</time>
      </trkpt>
      <trkpt lat="47.54829" lon="6.79096">
        <ele>399.1</ele>
        <time>2017-10-15T07:33:38.000Z</time>
      </trkpt>
      <trkpt lat="47.5483" lon="6.79099">
        <ele>399.4</ele>
        <time>2017-10-15T07:33:39.000Z</time>
      </trkpt>
      <trkpt lat="47.54832" lon="6.79103">
        <ele>399.7</ele>
        <time>2017-10-15T07:33:40.000Z</time>
      </trkpt>
      <trkpt lat="47.54833" lon="6.79106">
        <ele>399.9</ele>
        <time>2017-10-15T07:33:41.000Z</time>
      </trkpt>
      <trkpt lat="47.54835" lon="6.79109">
        <ele>400.2</ele>
        <time>2017-10-15T07:33:42.000Z</time>
      </trkpt>
      <trkpt lat="47.54836" lon="6.79113">
        <ele>400.4</ele>
        <time>2017-10-15T07:33:43.000Z</time>
      </trkpt>
      <trkpt lat="47.54838" lon="6.79117">
        <ele>400.6</ele>
        <time>2017-10-15T07:33:44.000Z</time>
      </trkpt>
      <trkpt lat="47.5484" lon="6.7912">
        <ele>400.7</ele>
        <time>2017-10-15T07:33:45.000Z</time>
      </trkpt>
      <trkpt lat="47.54841" lon="6.79124">
        <ele>400.9</ele>
        <time>2017-10-15T07:33:46.000Z</time>
      </trkpt>
      <trkpt lat="47.54843" lon="6.79127">
        <ele>401.1</ele>
        <time>2017-10-15T07:33:47.000Z</time>
      </trkpt>
      <trkpt lat="47.54844" lon="6.79131">
        <ele>401.3</ele>
        <time>2017-10-15T07:33:48.000Z</time>
      </trkpt>
      <trkpt lat="47.54845" lon="6.79134">
        <ele>401.4</ele>
        <time>2017-10-15T07:33:49.000Z</time>
      </trkpt>
      <trkpt lat="47.54847" lon="6.79139">
        <ele>401.6</ele>
        <time>2017-10-15T07:33:50.000Z</time>
      </trkpt>
      <trkpt lat="47.54848" lon="6.79144">
        <ele>401.8</ele>
        <time>2017-10-15T07:33:51.000Z</time>
      </trkpt>
      <trkpt lat="47.54849" lon="6.79149">
        <ele>402</ele>
        <time>2017-10-15T07:33:52.000Z</time>
      </trkpt>
      <trkpt lat="47.5485" lon="6.79153">
        <ele>402.2</ele>
        <time>2017-10-15T07:33:53.000Z</time>
      </trkpt>
      <trkpt lat="47.54851" lon="6.79157">
        <ele>402.3</ele>
        <time>2017-10-15T07:33:54.000Z</time>
      </trkpt>
      <trkpt lat="47.54853" lon="6.79162">
        <ele>402.5</ele>
        <time>2017-10-15T07:33:55.000Z</time>
      </trkpt>
      <trkpt lat="47.54853" lon="6.79165">
        <ele>402.6</ele>
        <time>2017-10-15T07:33:56.000Z</time>
      </trkpt>
      <trkpt lat="47.54854" lon="6.79168">
        <ele>402.8</ele>
        <time>2017-10-15T07:33:57.000Z</time>
      </trkpt>
      <trkpt lat="47.54855" lon="6.79172">
        <ele>402.9</ele>
        <time>2017-10-15T07:33:58.000Z</time>
      </trkpt>
      <trkpt lat="47.54856" lon="6.79176">
        <ele>403.1</ele>
        <time>2017-10-15T07:33:59.000Z</time>
      </trkpt>
      <trkpt lat="47.54857" lon="6.7918">
        <ele>403.2</ele>
        <time>2017-10-15T07:34:00.000Z</time>
      </trkpt>
      <trkpt lat="47.54857" lon="6.79183">
        <ele>403.3</ele>
        <time>2017-10-15T07:34:01.000Z</time>
      </trkpt>
      <trkpt lat="47.54858" lon="6.79188">
        <ele>403.4</ele>
        <time>2017-10-15T07:34:02.000Z</time>
      </trkpt>
      <trkpt lat="47.54859" lon="6.79192">
        <ele>403.5</ele>
        <time>2017-10-15T07:34:03.000Z</time>
      </trkpt>
      <trkpt lat="47.5486" lon="6.79196">
        <ele>403.7</ele>
        <time>2017-10-15T07:34:04.000Z</time>
      </trkpt>
      <trkpt lat="47.54861" lon="6.79201">
        <ele>403.8</ele>
        <time>2017-10-15T07:34:05.000Z</time>
      </trkpt>
      <trkpt lat="47.54862" lon="6.79207">
        <ele>403.9</ele>
        <time>2017-10-15T07:34:06.000Z</time>
      </trkpt>
      <trkpt lat="47.54863" lon="6.79211">
        <ele>404</ele>
        <time>2017-10-15T07:34:07.000Z</time>
      </trkpt>
      <trkpt lat="47.54864" lon="6.79216">
        <ele>404.1</ele>
        <time>2017-10-15T07:34:08.000Z</time>
      </trkpt>
      <trkpt lat="47.54866" lon="6.79221">
        <ele>404.1</ele>
        <time>2017-10-15T07:34:09.000Z</time>
      </trkpt>
      <trkpt lat="47.54867" lon="6.79226">
        <ele>404.2</ele>
        <time>2017-10-15T07:34:10.000Z</time>
      </trkpt>
      <trkpt lat="47.54868" lon="6.79231">
        <ele>404.3</ele>
        <time>2017-10-15T07:34:11.000Z</time>
      </trkpt>
      <trkpt lat="47.54869" lon="6.79236">
        <ele>404.3</ele>
        <time>2017-10-15T07:34:12.000Z</time>
      </trkpt>
      <trkpt lat="47.5487" lon="6.79241">
        <ele>404.9</ele>
        <time>2017-10-15T07:34:13.000Z</time>
      </trkpt>
      <trkpt lat="47.54871" lon="6.79245">
        <ele>405</ele>
        <time>2017-10-15T07:34:14.000Z</time>
      </trkpt>
      <trkpt lat="47.54872" lon="6.7925">
        <ele>405</ele>
        <time>2017-10-15T07:34:15.000Z</time>
      </trkpt>
      <trkpt lat="47.54873" lon="6.79255">
        <ele>405</ele>
        <time>2017-10-15T07:34:16.000Z</time>
      </trkpt>
      <trkpt lat="47.54874" lon="6.79259">
        <ele>405</ele>
        <time>2017-10-15T07:34:17.000Z</time>
      </trkpt>
      <trkpt lat="47.54875" lon="6.79263">
        <ele>405</ele>
        <time>2017-10-15T07:34:18.000Z</time>
      </trkpt>
      <trkpt lat="47.54876" lon="6.79268">
        <ele>405.1</ele>
        <time>2017-10-15T07:34:19.000Z</time>
      </trkpt>
      <trkpt lat="47.54876" lon="6.79275">
        <ele>405</ele>
        <time>2017-10-15T07:34:20.000Z</time>
      </trkpt>
      <trkpt lat="47.54878" lon="6.79281">
        <ele>405.4</ele>
        <time>2017-10-15T07:34:21.000Z</time>
      </trkpt>
      <trkpt lat="47.54879" lon="6.79287">
        <ele>405.1</ele>
        <time>2017-10-15T07:34:22.000Z</time>
      </trkpt>
      <trkpt lat="47.54881" lon="6.79292">
        <ele>404.8</ele>
        <time>2017-10-15T07:34:23.000Z</time>
      </trkpt>
      <trkpt lat="47.54882" lon="6.79297">
        <ele>404.8</ele>
        <time>2017-10-15T07:34:24.000Z</time>
      </trkpt>
      <trkpt lat="47.54884" lon="6.79304">
        <ele>404.6</ele>
        <time>2017-10-15T07:34:25.000Z</time>
      </trkpt>
      <trkpt lat="47.54885" lon="6.79309">
        <ele>404.6</ele>
        <time>2017-10-15T07:34:26.000Z</time>
      </trkpt>
      <trkpt lat="47.54886" lon="6.79315">
        <ele>404.5</ele>
        <time>2017-10-15T07:34:27.000Z</time>
      </trkpt>
      <trkpt lat="47.54888" lon="6.79322">
        <ele>404.5</ele>
        <time>2017-10-15T07:34:28.000Z</time>
      </trkpt>
      <trkpt lat="47.54889" lon="6.79328">
        <ele>404.5</ele>
        <time>2017-10-15T07:34:29.000Z</time>
      </trkpt>
      <trkpt lat="47.5489" lon="6.79334">
        <ele>404.4</ele>
        <time>2017-10-15T07:34:30.000Z</time>
      </trkpt>
      <trkpt lat="47.54892" lon="6.7934">
        <ele>404.4</ele>
        <time>2017-10-15T07:34:31.000Z</time>
      </trkpt>
      <trkpt lat="47.54893" lon="6.79345">
        <ele>404.4</ele>
        <time>2017-10-15T07:34:32.000Z</time>
      </trkpt>
      <trkpt lat="47.54894" lon="6.79349">
        <ele>404.4</ele>
        <time>2017-10-15T07:34:33.000Z</time>
      </trkpt>
      <trkpt lat="47.54895" lon="6.79354">
        <ele>404.4</ele>
        <time>2017-10-15T07:34:34.000Z</time>
      </trkpt>
      <trkpt lat="47.54896" lon="6.79359">
        <ele>404.5</ele>
        <time>2017-10-15T07:34:36.000Z</time>
      </trkpt>
      <trkpt lat="47.54895" lon="6.79361">
        <ele>404.5</ele>
        <time>2017-10-15T07:34:37.000Z</time>
      </trkpt>
      <trkpt lat="47.54894" lon="6.79365">
        <ele>404.5</ele>
        <time>2017-10-15T07:34:38.000Z</time>
      </trkpt>
      <trkpt lat="47.54892" lon="6.79367">
        <ele>404.5</ele>
        <time>2017-10-15T07:34:39.000Z</time>
      </trkpt>
      <trkpt lat="47.5489" lon="6.79369">
        <ele>404.4</ele>
        <time>2017-10-15T07:34:40.000Z</time>
      </trkpt>
      <trkpt lat="47.54887" lon="6.79372">
        <ele>404.3</ele>
        <time>2017-10-15T07:34:41.000Z</time>
      </trkpt>
      <trkpt lat="47.54885" lon="6.79374">
        <ele>404.2</ele>
        <time>2017-10-15T07:34:42.000Z</time>
      </trkpt>
      <trkpt lat="47.54882" lon="6.79376">
        <ele>404.1</ele>
        <time>2017-10-15T07:34:43.000Z</time>
      </trkpt>
      <trkpt lat="47.54879" lon="6.79378">
        <ele>404.1</ele>
        <time>2017-10-15T07:34:44.000Z</time>
      </trkpt>
      <trkpt lat="47.54876" lon="6.7938">
        <ele>404.1</ele>
        <time>2017-10-15T07:34:45.000Z</time>
      </trkpt>
      <trkpt lat="47.54873" lon="6.79382">
        <ele>404.1</ele>
        <time>2017-10-15T07:34:46.000Z</time>
      </trkpt>
      <trkpt lat="47.5487" lon="6.79383">
        <ele>404.1</ele>
        <time>2017-10-15T07:34:47.000Z</time>
      </trkpt>
      <trkpt lat="47.54867" lon="6.79385">
        <ele>404</ele>
        <time>2017-10-15T07:34:48.000Z</time>
      </trkpt>
      <trkpt lat="47.54864" lon="6.79387">
        <ele>404</ele>
        <time>2017-10-15T07:34:49.000Z</time>
      </trkpt>
      <trkpt lat="47.54861" lon="6.7939">
        <ele>404</ele>
        <time>2017-10-15T07:34:50.000Z</time>
      </trkpt>
      <trkpt lat="47.54857" lon="6.79392">
        <ele>404</ele>
        <time>2017-10-15T07:34:51.000Z</time>
      </trkpt>
      <trkpt lat="47.54854" lon="6.79395">
        <ele>403.9</ele>
        <time>2017-10-15T07:34:52.000Z</time>
      </trkpt>
      <trkpt lat="47.54851" lon="6.79397">
        <ele>403.8</ele>
        <time>2017-10-15T07:34:53.000Z</time>
      </trkpt>
      <trkpt lat="47.54848" lon="6.794">
        <ele>403.7</ele>
        <time>2017-10-15T07:34:54.000Z</time>
      </trkpt>
      <trkpt lat="47.54844" lon="6.79402">
        <ele>403.7</ele>
        <time>2017-10-15T07:34:55.000Z</time>
      </trkpt>
      <trkpt lat="47.5484" lon="6.79405">
        <ele>403.6</ele>
        <time>2017-10-15T07:34:56.000Z</time>
      </trkpt>
      <trkpt lat="47.54837" lon="6.79408">
        <ele>403.6</ele>
        <time>2017-10-15T07:34:57.000Z</time>
      </trkpt>
      <trkpt lat="47.54834" lon="6.79412">
        <ele>403.5</ele>
        <time>2017-10-15T07:34:58.000Z</time>
      </trkpt>
      <trkpt lat="47.54831" lon="6.79415">
        <ele>403.6</ele>
        <time>2017-10-15T07:34:59.000Z</time>
      </trkpt>
      <trkpt lat="47.54828" lon="6.79418">
        <ele>403.5</ele>
        <time>2017-10-15T07:35:00.000Z</time>
      </trkpt>
      <trkpt lat="47.54826" lon="6.79421">
        <ele>403.5</ele>
        <time>2017-10-15T07:35:01.000Z</time>
      </trkpt>
      <trkpt lat="47.54823" lon="6.79424">
        <ele>403.5</ele>
        <time>2017-10-15T07:35:02.000Z</time>
      </trkpt>
      <trkpt lat="47.54821" lon="6.79427">
        <ele>403.5</ele>
        <time>2017-10-15T07:35:03.000Z</time>
      </trkpt>
      <trkpt lat="47.54818" lon="6.7943">
        <ele>403.5</ele>
        <time>2017-10-15T07:35:04.000Z</time>
      </trkpt>
      <trkpt lat="47.54816" lon="6.79432">
        <ele>403.4</ele>
        <time>2017-10-15T07:35:05.000Z</time>
      </trkpt>
      <trkpt lat="47.54813" lon="6.79434">
        <ele>403.3</ele>
        <time>2017-10-15T07:35:06.000Z</time>
      </trkpt>
      <trkpt lat="47.54811" lon="6.79435">
        <ele>403.3</ele>
        <time>2017-10-15T07:35:07.000Z</time>
      </trkpt>
      <trkpt lat="47.54808" lon="6.79437">
        <ele>403.2</ele>
        <time>2017-10-15T07:35:08.000Z</time>
      </trkpt>
      <trkpt lat="47.54806" lon="6.79439">
        <ele>403.1</ele>
        <time>2017-10-15T07:35:09.000Z</time>
      </trkpt>
      <trkpt lat="47.54804" lon="6.79441">
        <ele>403</ele>
        <time>2017-10-15T07:35:10.000Z</time>
      </trkpt>
      <trkpt lat="47.54801" lon="6.79443">
        <ele>402.9</ele>
        <time>2017-10-15T07:35:11.000Z</time>
      </trkpt>
      <trkpt lat="47.54799" lon="6.79446">
        <ele>402.8</ele>
        <time>2017-10-15T07:35:13.000Z</time>
      </trkpt>
      <trkpt lat="47.54797" lon="6.79448">
        <ele>402.7</ele>
        <time>2017-10-15T07:35:14.000Z</time>
      </trkpt>
      <trkpt lat="47.54795" lon="6.7945">
        <ele>402.5</ele>
        <time>2017-10-15T07:35:15.000Z</time>
      </trkpt>
      <trkpt lat="47.54794" lon="6.79455">
        <ele>402.4</ele>
        <time>2017-10-15T07:35:16.000Z</time>
      </trkpt>
      <trkpt lat="47.54794" lon="6.7946">
        <ele>402.2</ele>
        <time>2017-10-15T07:35:17.000Z</time>
      </trkpt>
      <trkpt lat="47.54795" lon="6.79465">
        <ele>402.1</ele>
        <time>2017-10-15T07:35:18.000Z</time>
      </trkpt>
      <trkpt lat="47.54796" lon="6.79469">
        <ele>402</ele>
        <time>2017-10-15T07:35:19.000Z</time>
      </trkpt>
      <trkpt lat="47.54796" lon="6.79473">
        <ele>401.8</ele>
        <time>2017-10-15T07:35:20.000Z</time>
      </trkpt>
      <trkpt lat="47.54797" lon="6.79478">
        <ele>401.6</ele>
        <time>2017-10-15T07:35:21.000Z</time>
      </trkpt>
      <trkpt lat="47.54798" lon="6.79483">
        <ele>401.5</ele>
        <time>2017-10-15T07:35:22.000Z</time>
      </trkpt>
      <trkpt lat="47.54799" lon="6.79488">
        <ele>400.9</ele>
        <time>2017-10-15T07:35:23.000Z</time>
      </trkpt>
      <trkpt lat="47.54801" lon="6.79494">
        <ele>400.8</ele>
        <time>2017-10-15T07:35:24.000Z</time>
      </trkpt>
      <trkpt lat="47.54804" lon="6.79498">
        <ele>400.8</ele>
        <time>2017-10-15T07:35:25.000Z</time>
      </trkpt>
      <trkpt lat="47.54806" lon="6.79501">
        <ele>400.7</ele>
        <time>2017-10-15T07:35:26.000Z</time>
      </trkpt>
      <trkpt lat="47.54809" lon="6.79504">
        <ele>400.7</ele>
        <time>2017-10-15T07:35:27.000Z</time>
      </trkpt>
      <trkpt lat="47.54813" lon="6.79508">
        <ele>400.4</ele>
        <time>2017-10-15T07:35:28.000Z</time>
      </trkpt>
      <trkpt lat="47.54816" lon="6.79512">
        <ele>400</ele>
        <time>2017-10-15T07:35:29.000Z</time>
      </trkpt>
      <trkpt lat="47.5482" lon="6.79516">
        <ele>399.9</ele>
        <time>2017-10-15T07:35:30.000Z</time>
      </trkpt>
      <trkpt lat="47.54824" lon="6.79519">
        <ele>399.9</ele>
        <time>2017-10-15T07:35:31.000Z</time>
      </trkpt>
      <trkpt lat="47.54828" lon="6.79522">
        <ele>399.6</ele>
        <time>2017-10-15T07:35:32.000Z</time>
      </trkpt>
      <trkpt lat="47.54831" lon="6.79526">
        <ele>399.5</ele>
        <time>2017-10-15T07:35:33.000Z</time>
      </trkpt>
      <trkpt lat="47.54834" lon="6.79532">
        <ele>399.5</ele>
        <time>2017-10-15T07:35:34.000Z</time>
      </trkpt>
      <trkpt lat="47.54836" lon="6.79537">
        <ele>399.4</ele>
        <time>2017-10-15T07:35:35.000Z</time>
      </trkpt>
      <trkpt lat="47.5484" lon="6.79542">
        <ele>399.3</ele>
        <time>2017-10-15T07:35:36.000Z</time>
      </trkpt>
      <trkpt lat="47.54843" lon="6.79549">
        <ele>399.2</ele>
        <time>2017-10-15T07:35:37.000Z</time>
      </trkpt>
      <trkpt lat="47.54846" lon="6.79554">
        <ele>399.1</ele>
        <time>2017-10-15T07:35:38.000Z</time>
      </trkpt>
      <trkpt lat="47.54848" lon="6.79559">
        <ele>399.1</ele>
        <time>2017-10-15T07:35:39.000Z</time>
      </trkpt>
      <trkpt lat="47.5485" lon="6.79564">
        <ele>399</ele>
        <time>2017-10-15T07:35:40.000Z</time>
      </trkpt>
      <trkpt lat="47.54853" lon="6.7957">
        <ele>398.9</ele>
        <time>2017-10-15T07:35:41.000Z</time>
      </trkpt>
      <trkpt lat="47.54855" lon="6.79575">
        <ele>398.8</ele>
        <time>2017-10-15T07:35:42.000Z</time>
      </trkpt>
      <trkpt lat="47.54857" lon="6.79581">
        <ele>398.6</ele>
        <time>2017-10-15T07:35:43.000Z</time>
      </trkpt>
      <trkpt lat="47.54858" lon="6.79582">
        <ele>398.5</ele>
        <time>2017-10-15T07:35:44.000Z</time>
      </trkpt>
      <trkpt lat="47.54861" lon="6.79585">
        <ele>397.3</ele>
        <time>2017-10-15T07:35:52.000Z</time>
      </trkpt>
      <trkpt lat="47.54862" lon="6.79586">
        <ele>397.3</ele>
        <time>2017-10-15T07:35:53.000Z</time>
      </trkpt>
      <trkpt lat="47.54864" lon="6.79589">
        <ele>397.3</ele>
        <time>2017-10-15T07:35:54.000Z</time>
      </trkpt>
      <trkpt lat="47.54865" lon="6.79592">
        <ele>397.2</ele>
        <time>2017-10-15T07:35:55.000Z</time>
      </trkpt>
      <trkpt lat="47.54867" lon="6.79596">
        <ele>397.1</ele>
        <time>2017-10-15T07:35:56.000Z</time>
      </trkpt>
      <trkpt lat="47.54868" lon="6.796">
        <ele>397.1</ele>
        <time>2017-10-15T07:35:57.000Z</time>
      </trkpt>
      <trkpt lat="47.5487" lon="6.79604">
        <ele>397</ele>
        <time>2017-10-15T07:35:58.000Z</time>
      </trkpt>
      <trkpt lat="47.54871" lon="6.79608">
        <ele>397</ele>
        <time>2017-10-15T07:35:59.000Z</time>
      </trkpt>
      <trkpt lat="47.54872" lon="6.79612">
        <ele>396.9</ele>
        <time>2017-10-15T07:36:00.000Z</time>
      </trkpt>
      <trkpt lat="47.54873" lon="6.79617">
        <ele>396.9</ele>
        <time>2017-10-15T07:36:01.000Z</time>
      </trkpt>
      <trkpt lat="47.54875" lon="6.79621">
        <ele>396.9</ele>
        <time>2017-10-15T07:36:02.000Z</time>
      </trkpt>
      <trkpt lat="47.54876" lon="6.79626">
        <ele>396.9</ele>
        <time>2017-10-15T07:36:03.000Z</time>
      </trkpt>
      <trkpt lat="47.54879" lon="6.7963">
        <ele>396.9</ele>
        <time>2017-10-15T07:36:04.000Z</time>
      </trkpt>
      <trkpt lat="47.54881" lon="6.79634">
        <ele>396.8</ele>
        <time>2017-10-15T07:36:05.000Z</time>
      </trkpt>
      <trkpt lat="47.54884" lon="6.79638">
        <ele>396.7</ele>
        <time>2017-10-15T07:36:06.000Z</time>
      </trkpt>
      <trkpt lat="47.54887" lon="6.79642">
        <ele>396.7</ele>
        <time>2017-10-15T07:36:07.000Z</time>
      </trkpt>
      <trkpt lat="47.5489" lon="6.79646">
        <ele>396.6</ele>
        <time>2017-10-15T07:36:08.000Z</time>
      </trkpt>
      <trkpt lat="47.54893" lon="6.79651">
        <ele>396.6</ele>
        <time>2017-10-15T07:36:09.000Z</time>
      </trkpt>
      <trkpt lat="47.54895" lon="6.79657">
        <ele>396.6</ele>
        <time>2017-10-15T07:36:10.000Z</time>
      </trkpt>
      <trkpt lat="47.54896" lon="6.79663">
        <ele>396.6</ele>
        <time>2017-10-15T07:36:11.000Z</time>
      </trkpt>
      <trkpt lat="47.54898" lon="6.79668">
        <ele>396.5</ele>
        <time>2017-10-15T07:36:12.000Z</time>
      </trkpt>
      <trkpt lat="47.549" lon="6.79674">
        <ele>396.5</ele>
        <time>2017-10-15T07:36:13.000Z</time>
      </trkpt>
      <trkpt lat="47.54903" lon="6.7968">
        <ele>396.5</ele>
        <time>2017-10-15T07:36:14.000Z</time>
      </trkpt>
      <trkpt lat="47.54904" lon="6.79687">
        <ele>396.3</ele>
        <time>2017-10-15T07:36:15.000Z</time>
      </trkpt>
      <trkpt lat="47.54905" lon="6.79693">
        <ele>396.4</ele>
        <time>2017-10-15T07:36:16.000Z</time>
      </trkpt>
      <trkpt lat="47.54908" lon="6.79698">
        <ele>396.4</ele>
        <time>2017-10-15T07:36:17.000Z</time>
      </trkpt>
      <trkpt lat="47.5491" lon="6.79702">
        <ele>396.5</ele>
        <time>2017-10-15T07:36:18.000Z</time>
      </trkpt>
      <trkpt lat="47.54913" lon="6.79707">
        <ele>396.6</ele>
        <time>2017-10-15T07:36:19.000Z</time>
      </trkpt>
      <trkpt lat="47.54916" lon="6.79709">
        <ele>396.6</ele>
        <time>2017-10-15T07:36:20.000Z</time>
      </trkpt>
      <trkpt lat="47.54918" lon="6.79712">
        <ele>396.7</ele>
        <time>2017-10-15T07:36:21.000Z</time>
      </trkpt>
      <trkpt lat="47.54922" lon="6.79717">
        <ele>396.7</ele>
        <time>2017-10-15T07:36:22.000Z</time>
      </trkpt>
      <trkpt lat="47.54925" lon="6.7972">
        <ele>396.6</ele>
        <time>2017-10-15T07:36:23.000Z</time>
      </trkpt>
      <trkpt lat="47.5493" lon="6.79724">
        <ele>396.5</ele>
        <time>2017-10-15T07:36:24.000Z</time>
      </trkpt>
      <trkpt lat="47.54935" lon="6.79728">
        <ele>396.4</ele>
        <time>2017-10-15T07:36:25.000Z</time>
      </trkpt>
      <trkpt lat="47.54938" lon="6.7973">
        <ele>396.3</ele>
        <time>2017-10-15T07:36:26.000Z</time>
      </trkpt>
      <trkpt lat="47.5494" lon="6.79731">
        <ele>396.1</ele>
        <time>2017-10-15T07:36:27.000Z</time>
      </trkpt>
      <trkpt lat="47.54942" lon="6.79733">
        <ele>396</ele>
        <time>2017-10-15T07:36:28.000Z</time>
      </trkpt>
      <trkpt lat="47.54945" lon="6.79732">
        <ele>395.9</ele>
        <time>2017-10-15T07:36:29.000Z</time>
      </trkpt>
      <trkpt lat="47.54948" lon="6.7973">
        <ele>395.9</ele>
        <time>2017-10-15T07:36:30.000Z</time>
      </trkpt>
      <trkpt lat="47.5495" lon="6.79729">
        <ele>395.9</ele>
        <time>2017-10-15T07:36:31.000Z</time>
      </trkpt>
      <trkpt lat="47.54953" lon="6.79726">
        <ele>395.9</ele>
        <time>2017-10-15T07:36:33.000Z</time>
      </trkpt>
      <trkpt lat="47.54955" lon="6.79724">
        <ele>395.8</ele>
        <time>2017-10-15T07:36:34.000Z</time>
      </trkpt>
      <trkpt lat="47.54957" lon="6.79722">
        <ele>395.7</ele>
        <time>2017-10-15T07:36:35.000Z</time>
      </trkpt>
      <trkpt lat="47.54961" lon="6.79717">
        <ele>395.6</ele>
        <time>2017-10-15T07:36:36.000Z</time>
      </trkpt>
      <trkpt lat="47.54965" lon="6.79715">
        <ele>395.4</ele>
        <time>2017-10-15T07:36:38.000Z</time>
      </trkpt>
      <trkpt lat="47.54966" lon="6.79714">
        <ele>395.3</ele>
        <time>2017-10-15T07:36:39.000Z</time>
      </trkpt>
      <trkpt lat="47.54968" lon="6.79712">
        <ele>395.1</ele>
        <time>2017-10-15T07:36:40.000Z</time>
      </trkpt>
      <trkpt lat="47.54972" lon="6.79712">
        <ele>394.9</ele>
        <time>2017-10-15T07:36:41.000Z</time>
      </trkpt>
      <trkpt lat="47.54974" lon="6.79712">
        <ele>394.8</ele>
        <time>2017-10-15T07:36:42.000Z</time>
      </trkpt>
      <trkpt lat="47.54977" lon="6.79712">
        <ele>394.6</ele>
        <time>2017-10-15T07:36:43.000Z</time>
      </trkpt>
      <trkpt lat="47.5498" lon="6.79712">
        <ele>394.4</ele>
        <time>2017-10-15T07:36:44.000Z</time>
      </trkpt>
      <trkpt lat="47.54983" lon="6.79711">
        <ele>394.3</ele>
        <time>2017-10-15T07:36:45.000Z</time>
      </trkpt>
      <trkpt lat="47.54986" lon="6.79712">
        <ele>394</ele>
        <time>2017-10-15T07:36:47.000Z</time>
      </trkpt>
      <trkpt lat="47.54987" lon="6.79714">
        <ele>393.9</ele>
        <time>2017-10-15T07:36:48.000Z</time>
      </trkpt>
      <trkpt lat="47.54991" lon="6.79716">
        <ele>393.6</ele>
        <time>2017-10-15T07:36:50.000Z</time>
      </trkpt>
      <trkpt lat="47.54993" lon="6.79716">
        <ele>393.5</ele>
        <time>2017-10-15T07:36:51.000Z</time>
      </trkpt>
      <trkpt lat="47.54995" lon="6.79717">
        <ele>393.4</ele>
        <time>2017-10-15T07:36:52.000Z</time>
      </trkpt>
      <trkpt lat="47.54998" lon="6.79718">
        <ele>393.4</ele>
        <time>2017-10-15T07:36:53.000Z</time>
      </trkpt>
      <trkpt lat="47.55002" lon="6.79719">
        <ele>393.4</ele>
        <time>2017-10-15T07:36:55.000Z</time>
      </trkpt>
      <trkpt lat="47.55004" lon="6.79719">
        <ele>393.3</ele>
        <time>2017-10-15T07:36:56.000Z</time>
      </trkpt>
      <trkpt lat="47.55007" lon="6.7972">
        <ele>393.3</ele>
        <time>2017-10-15T07:36:57.000Z</time>
      </trkpt>
      <trkpt lat="47.5501" lon="6.7972">
        <ele>393.1</ele>
        <time>2017-10-15T07:36:58.000Z</time>
      </trkpt>
      <trkpt lat="47.55014" lon="6.79721">
        <ele>393</ele>
        <time>2017-10-15T07:36:59.000Z</time>
      </trkpt>
      <trkpt lat="47.55017" lon="6.79723">
        <ele>392.9</ele>
        <time>2017-10-15T07:37:00.000Z</time>
      </trkpt>
      <trkpt lat="47.55019" lon="6.79726">
        <ele>392.8</ele>
        <time>2017-10-15T07:37:01.000Z</time>
      </trkpt>
      <trkpt lat="47.55022" lon="6.79728">
        <ele>392.8</ele>
        <time>2017-10-15T07:37:02.000Z</time>
      </trkpt>
      <trkpt lat="47.55025" lon="6.79731">
        <ele>392.8</ele>
        <time>2017-10-15T07:37:03.000Z</time>
      </trkpt>
      <trkpt lat="47.55027" lon="6.79733">
        <ele>392.8</ele>
        <time>2017-10-15T07:37:04.000Z</time>
      </trkpt>
      <trkpt lat="47.55028" lon="6.79735">
        <ele>392.9</ele>
        <time>2017-10-15T07:37:05.000Z</time>
      </trkpt>
      <trkpt lat="47.55031" lon="6.79738">
        <ele>392.8</ele>
        <time>2017-10-15T07:37:06.000Z</time>
      </trkpt>
      <trkpt lat="47.55034" lon="6.7974">
        <ele>392.7</ele>
        <time>2017-10-15T07:37:07.000Z</time>
      </trkpt>
      <trkpt lat="47.55036" lon="6.79742">
        <ele>392.6</ele>
        <time>2017-10-15T07:37:08.000Z</time>
      </trkpt>
      <trkpt lat="47.55039" lon="6.79743">
        <ele>392.5</ele>
        <time>2017-10-15T07:37:09.000Z</time>
      </trkpt>
      <trkpt lat="47.55041" lon="6.79745">
        <ele>392.4</ele>
        <time>2017-10-15T07:37:10.000Z</time>
      </trkpt>
      <trkpt lat="47.55044" lon="6.79747">
        <ele>392.3</ele>
        <time>2017-10-15T07:37:11.000Z</time>
      </trkpt>
      <trkpt lat="47.55046" lon="6.7975">
        <ele>392.1</ele>
        <time>2017-10-15T07:37:12.000Z</time>
      </trkpt>
      <trkpt lat="47.55049" lon="6.79752">
        <ele>392</ele>
        <time>2017-10-15T07:37:13.000Z</time>
      </trkpt>
      <trkpt lat="47.55052" lon="6.79754">
        <ele>392</ele>
        <time>2017-10-15T07:37:14.000Z</time>
      </trkpt>
      <trkpt lat="47.55055" lon="6.79756">
        <ele>392</ele>
        <time>2017-10-15T07:37:15.000Z</time>
      </trkpt>
      <trkpt lat="47.55057" lon="6.79758">
        <ele>391.9</ele>
        <time>2017-10-15T07:37:16.000Z</time>
      </trkpt>
      <trkpt lat="47.55062" lon="6.79761">
        <ele>391.9</ele>
        <time>2017-10-15T07:37:17.000Z</time>
      </trkpt>
      <trkpt lat="47.55064" lon="6.79761">
        <ele>392</ele>
        <time>2017-10-15T07:37:18.000Z</time>
      </trkpt>
      <trkpt lat="47.55067" lon="6.79762">
        <ele>392.1</ele>
        <time>2017-10-15T07:37:19.000Z</time>
      </trkpt>
      <trkpt lat="47.5507" lon="6.79764">
        <ele>392.2</ele>
        <time>2017-10-15T07:37:20.000Z</time>
      </trkpt>
      <trkpt lat="47.55073" lon="6.79766">
        <ele>392.3</ele>
        <time>2017-10-15T07:37:21.000Z</time>
      </trkpt>
      <trkpt lat="47.55076" lon="6.79768">
        <ele>392.3</ele>
        <time>2017-10-15T07:37:22.000Z</time>
      </trkpt>
      <trkpt lat="47.55078" lon="6.79769">
        <ele>392.4</ele>
        <time>2017-10-15T07:37:23.000Z</time>
      </trkpt>
      <trkpt lat="47.55081" lon="6.79771">
        <ele>392.4</ele>
        <time>2017-10-15T07:37:24.000Z</time>
      </trkpt>
      <trkpt lat="47.55083" lon="6.79774">
        <ele>392.4</ele>
        <time>2017-10-15T07:37:25.000Z</time>
      </trkpt>
      <trkpt lat="47.55086" lon="6.79777">
        <ele>392.4</ele>
        <time>2017-10-15T07:37:26.000Z</time>
      </trkpt>
      <trkpt lat="47.55089" lon="6.79779">
        <ele>392.4</ele>
        <time>2017-10-15T07:37:27.000Z</time>
      </trkpt>
      <trkpt lat="47.55093" lon="6.79785">
        <ele>392.4</ele>
        <time>2017-10-15T07:37:28.000Z</time>
      </trkpt>
      <trkpt lat="47.55095" lon="6.79788">
        <ele>392.5</ele>
        <time>2017-10-15T07:37:29.000Z</time>
      </trkpt>
      <trkpt lat="47.55097" lon="6.79792">
        <ele>392.5</ele>
        <time>2017-10-15T07:37:30.000Z</time>
      </trkpt>
      <trkpt lat="47.55098" lon="6.79797">
        <ele>392.6</ele>
        <time>2017-10-15T07:37:31.000Z</time>
      </trkpt>
      <trkpt lat="47.55101" lon="6.79803">
        <ele>392.7</ele>
        <time>2017-10-15T07:37:32.000Z</time>
      </trkpt>
      <trkpt lat="47.55104" lon="6.79809">
        <ele>392.7</ele>
        <time>2017-10-15T07:37:33.000Z</time>
      </trkpt>
      <trkpt lat="47.55108" lon="6.79813">
        <ele>392.9</ele>
        <time>2017-10-15T07:37:34.000Z</time>
      </trkpt>
      <trkpt lat="47.55111" lon="6.79816">
        <ele>393</ele>
        <time>2017-10-15T07:37:35.000Z</time>
      </trkpt>
      <trkpt lat="47.55114" lon="6.79819">
        <ele>393.1</ele>
        <time>2017-10-15T07:37:36.000Z</time>
      </trkpt>
      <trkpt lat="47.55117" lon="6.79822">
        <ele>393.3</ele>
        <time>2017-10-15T07:37:37.000Z</time>
      </trkpt>
      <trkpt lat="47.55121" lon="6.79825">
        <ele>393.4</ele>
        <time>2017-10-15T07:37:38.000Z</time>
      </trkpt>
      <trkpt lat="47.55128" lon="6.79828">
        <ele>393.6</ele>
        <time>2017-10-15T07:37:39.000Z</time>
      </trkpt>
      <trkpt lat="47.55131" lon="6.79831">
        <ele>393.8</ele>
        <time>2017-10-15T07:37:40.000Z</time>
      </trkpt>
      <trkpt lat="47.55133" lon="6.79834">
        <ele>393.9</ele>
        <time>2017-10-15T07:37:41.000Z</time>
      </trkpt>
      <trkpt lat="47.55135" lon="6.79839">
        <ele>394.1</ele>
        <time>2017-10-15T07:37:42.000Z</time>
      </trkpt>
      <trkpt lat="47.55138" lon="6.79842">
        <ele>394.3</ele>
        <time>2017-10-15T07:37:43.000Z</time>
      </trkpt>
      <trkpt lat="47.5514" lon="6.79844">
        <ele>394.5</ele>
        <time>2017-10-15T07:37:44.000Z</time>
      </trkpt>
      <trkpt lat="47.55142" lon="6.79845">
        <ele>394.6</ele>
        <time>2017-10-15T07:37:45.000Z</time>
      </trkpt>
      <trkpt lat="47.55144" lon="6.79847">
        <ele>394.8</ele>
        <time>2017-10-15T07:37:46.000Z</time>
      </trkpt>
      <trkpt lat="47.55147" lon="6.79849">
        <ele>394.9</ele>
        <time>2017-10-15T07:37:47.000Z</time>
      </trkpt>
      <trkpt lat="47.5515" lon="6.79851">
        <ele>395</ele>
        <time>2017-10-15T07:37:48.000Z</time>
      </trkpt>
      <trkpt lat="47.55154" lon="6.79852">
        <ele>394.9</ele>
        <time>2017-10-15T07:37:49.000Z</time>
      </trkpt>
      <trkpt lat="47.55157" lon="6.79854">
        <ele>394.8</ele>
        <time>2017-10-15T07:37:50.000Z</time>
      </trkpt>
      <trkpt lat="47.5516" lon="6.79856">
        <ele>394.7</ele>
        <time>2017-10-15T07:37:51.000Z</time>
      </trkpt>
      <trkpt lat="47.55163" lon="6.79857">
        <ele>394.7</ele>
        <time>2017-10-15T07:37:52.000Z</time>
      </trkpt>
      <trkpt lat="47.55165" lon="6.79859">
        <ele>394.6</ele>
        <time>2017-10-15T07:37:53.000Z</time>
      </trkpt>
      <trkpt lat="47.55168" lon="6.79861">
        <ele>394.5</ele>
        <time>2017-10-15T07:37:54.000Z</time>
      </trkpt>
      <trkpt lat="47.5517" lon="6.79862">
        <ele>394.4</ele>
        <time>2017-10-15T07:37:55.000Z</time>
      </trkpt>
      <trkpt lat="47.55173" lon="6.79864">
        <ele>394.3</ele>
        <time>2017-10-15T07:37:56.000Z</time>
      </trkpt>
      <trkpt lat="47.55175" lon="6.79866">
        <ele>394.1</ele>
        <time>2017-10-15T07:37:57.000Z</time>
      </trkpt>
      <trkpt lat="47.55178" lon="6.79868">
        <ele>394</ele>
        <time>2017-10-15T07:37:58.000Z</time>
      </trkpt>
      <trkpt lat="47.5518" lon="6.79871">
        <ele>393.8</ele>
        <time>2017-10-15T07:37:59.000Z</time>
      </trkpt>
      <trkpt lat="47.55183" lon="6.79873">
        <ele>393.7</ele>
        <time>2017-10-15T07:38:00.000Z</time>
      </trkpt>
      <trkpt lat="47.55186" lon="6.79876">
        <ele>393.5</ele>
        <time>2017-10-15T07:38:01.000Z</time>
      </trkpt>
      <trkpt lat="47.55189" lon="6.7988">
        <ele>393.2</ele>
        <time>2017-10-15T07:38:02.000Z</time>
      </trkpt>
      <trkpt lat="47.55192" lon="6.79882">
        <ele>393</ele>
        <time>2017-10-15T07:38:03.000Z</time>
      </trkpt>
      <trkpt lat="47.55194" lon="6.79886">
        <ele>392.7</ele>
        <time>2017-10-15T07:38:04.000Z</time>
      </trkpt>
      <trkpt lat="47.55197" lon="6.7989">
        <ele>392.4</ele>
        <time>2017-10-15T07:38:05.000Z</time>
      </trkpt>
      <trkpt lat="47.552" lon="6.79894">
        <ele>392</ele>
        <time>2017-10-15T07:38:06.000Z</time>
      </trkpt>
      <trkpt lat="47.55202" lon="6.79897">
        <ele>391.7</ele>
        <time>2017-10-15T07:38:07.000Z</time>
      </trkpt>
      <trkpt lat="47.55205" lon="6.799">
        <ele>391.4</ele>
        <time>2017-10-15T07:38:08.000Z</time>
      </trkpt>
      <trkpt lat="47.55209" lon="6.79905">
        <ele>391.1</ele>
        <time>2017-10-15T07:38:09.000Z</time>
      </trkpt>
      <trkpt lat="47.55212" lon="6.79909">
        <ele>390.8</ele>
        <time>2017-10-15T07:38:10.000Z</time>
      </trkpt>
      <trkpt lat="47.55215" lon="6.79913">
        <ele>390.5</ele>
        <time>2017-10-15T07:38:11.000Z</time>
      </trkpt>
      <trkpt lat="47.55218" lon="6.79917">
        <ele>388</ele>
        <time>2017-10-15T07:38:12.000Z</time>
      </trkpt>
      <trkpt lat="47.5522" lon="6.79921">
        <ele>387.8</ele>
        <time>2017-10-15T07:38:13.000Z</time>
      </trkpt>
      <trkpt lat="47.55223" lon="6.79925">
        <ele>387.5</ele>
        <time>2017-10-15T07:38:14.000Z</time>
      </trkpt>
      <trkpt lat="47.55225" lon="6.79929">
        <ele>387.2</ele>
        <time>2017-10-15T07:38:15.000Z</time>
      </trkpt>
      <trkpt lat="47.55228" lon="6.7993">
        <ele>386.8</ele>
        <time>2017-10-15T07:38:16.000Z</time>
      </trkpt>
      <trkpt lat="47.55231" lon="6.79933">
        <ele>386.5</ele>
        <time>2017-10-15T07:38:17.000Z</time>
      </trkpt>
      <trkpt lat="47.55237" lon="6.79938">
        <ele>386</ele>
        <time>2017-10-15T07:38:18.000Z</time>
      </trkpt>
      <trkpt lat="47.55244" lon="6.79944">
        <ele>385.7</ele>
        <time>2017-10-15T07:38:19.000Z</time>
      </trkpt>
      <trkpt lat="47.55252" lon="6.7995">
        <ele>382.4</ele>
        <time>2017-10-15T07:38:20.000Z</time>
      </trkpt>
      <trkpt lat="47.55258" lon="6.79955">
        <ele>382.3</ele>
        <time>2017-10-15T07:38:21.000Z</time>
      </trkpt>
      <trkpt lat="47.55265" lon="6.79959">
        <ele>382.1</ele>
        <time>2017-10-15T07:38:22.000Z</time>
      </trkpt>
      <trkpt lat="47.5527" lon="6.79963">
        <ele>381.9</ele>
        <time>2017-10-15T07:38:23.000Z</time>
      </trkpt>
      <trkpt lat="47.55277" lon="6.79967">
        <ele>381.8</ele>
        <time>2017-10-15T07:38:24.000Z</time>
      </trkpt>
      <trkpt lat="47.55282" lon="6.79971">
        <ele>381.8</ele>
        <time>2017-10-15T07:38:25.000Z</time>
      </trkpt>
      <trkpt lat="47.55287" lon="6.79974">
        <ele>381.9</ele>
        <time>2017-10-15T07:38:26.000Z</time>
      </trkpt>
      <trkpt lat="47.55292" lon="6.79976">
        <ele>381.9</ele>
        <time>2017-10-15T07:38:27.000Z</time>
      </trkpt>
      <trkpt lat="47.55296" lon="6.79979">
        <ele>382</ele>
        <time>2017-10-15T07:38:28.000Z</time>
      </trkpt>
      <trkpt lat="47.55299" lon="6.79982">
        <ele>382.1</ele>
        <time>2017-10-15T07:38:29.000Z</time>
      </trkpt>
      <trkpt lat="47.55301" lon="6.79987">
        <ele>382.3</ele>
        <time>2017-10-15T07:38:30.000Z</time>
      </trkpt>
      <trkpt lat="47.55303" lon="6.79991">
        <ele>382.5</ele>
        <time>2017-10-15T07:38:31.000Z</time>
      </trkpt>
      <trkpt lat="47.55307" lon="6.79993">
        <ele>382.7</ele>
        <time>2017-10-15T07:38:32.000Z</time>
      </trkpt>
      <trkpt lat="47.55308" lon="6.79994">
        <ele>383</ele>
        <time>2017-10-15T07:38:33.000Z</time>
      </trkpt>
      <trkpt lat="47.55311" lon="6.79996">
        <ele>383.8</ele>
        <time>2017-10-15T07:38:35.000Z</time>
      </trkpt>
      <trkpt lat="47.55313" lon="6.79996">
        <ele>384.2</ele>
        <time>2017-10-15T07:38:36.000Z</time>
      </trkpt>
      <trkpt lat="47.55315" lon="6.79997">
        <ele>384.7</ele>
        <time>2017-10-15T07:38:37.000Z</time>
      </trkpt>
      <trkpt lat="47.55317" lon="6.79999">
        <ele>385.3</ele>
        <time>2017-10-15T07:38:38.000Z</time>
      </trkpt>
      <trkpt lat="47.55319" lon="6.80001">
        <ele>386</ele>
        <time>2017-10-15T07:38:39.000Z</time>
      </trkpt>
      <trkpt lat="47.55322" lon="6.80002">
        <ele>386.7</ele>
        <time>2017-10-15T07:38:40.000Z</time>
      </trkpt>
      <trkpt lat="47.55325" lon="6.80005">
        <ele>388</ele>
        <time>2017-10-15T07:38:42.000Z</time>
      </trkpt>
      <trkpt lat="47.55327" lon="6.80006">
        <ele>388.7</ele>
        <time>2017-10-15T07:38:43.000Z</time>
      </trkpt>
      <trkpt lat="47.55331" lon="6.80008">
        <ele>390.6</ele>
        <time>2017-10-15T07:38:46.000Z</time>
      </trkpt>
      <trkpt lat="47.55333" lon="6.80008">
        <ele>391.3</ele>
        <time>2017-10-15T07:38:47.000Z</time>
      </trkpt>
      <trkpt lat="47.55334" lon="6.80009">
        <ele>392</ele>
        <time>2017-10-15T07:38:48.000Z</time>
      </trkpt>
      <trkpt lat="47.55341" lon="6.80013">
        <ele>392.7</ele>
        <time>2017-10-15T07:38:49.000Z</time>
      </trkpt>
      <trkpt lat="47.55344" lon="6.80015">
        <ele>393.4</ele>
        <time>2017-10-15T07:38:50.000Z</time>
      </trkpt>
      <trkpt lat="47.55348" lon="6.80014">
        <ele>394</ele>
        <time>2017-10-15T07:38:51.000Z</time>
      </trkpt>
      <trkpt lat="47.55351" lon="6.80014">
        <ele>394.7</ele>
        <time>2017-10-15T07:38:53.000Z</time>
      </trkpt>
      <trkpt lat="47.55354" lon="6.80014">
        <ele>395.3</ele>
        <time>2017-10-15T07:38:54.000Z</time>
      </trkpt>
      <trkpt lat="47.55356" lon="6.80014">
        <ele>396</ele>
        <time>2017-10-15T07:38:55.000Z</time>
      </trkpt>
      <trkpt lat="47.55359" lon="6.80015">
        <ele>396.6</ele>
        <time>2017-10-15T07:38:56.000Z</time>
      </trkpt>
      <trkpt lat="47.55362" lon="6.80016">
        <ele>397.2</ele>
        <time>2017-10-15T07:38:57.000Z</time>
      </trkpt>
      <trkpt lat="47.55364" lon="6.80018">
        <ele>397.8</ele>
        <time>2017-10-15T07:38:58.000Z</time>
      </trkpt>
      <trkpt lat="47.55366" lon="6.8002">
        <ele>398.4</ele>
        <time>2017-10-15T07:38:59.000Z</time>
      </trkpt>
      <trkpt lat="47.55368" lon="6.80022">
        <ele>399</ele>
        <time>2017-10-15T07:39:00.000Z</time>
      </trkpt>
      <trkpt lat="47.5537" lon="6.80024">
        <ele>399.5</ele>
        <time>2017-10-15T07:39:01.000Z</time>
      </trkpt>
      <trkpt lat="47.55372" lon="6.80025">
        <ele>400</ele>
        <time>2017-10-15T07:39:02.000Z</time>
      </trkpt>
      <trkpt lat="47.55374" lon="6.80028">
        <ele>400.4</ele>
        <time>2017-10-15T07:39:03.000Z</time>
      </trkpt>
      <trkpt lat="47.55377" lon="6.80029">
        <ele>400.8</ele>
        <time>2017-10-15T07:39:04.000Z</time>
      </trkpt>
      <trkpt lat="47.55379" lon="6.80031">
        <ele>401.3</ele>
        <time>2017-10-15T07:39:05.000Z</time>
      </trkpt>
      <trkpt lat="47.55381" lon="6.80033">
        <ele>401.7</ele>
        <time>2017-10-15T07:39:06.000Z</time>
      </trkpt>
      <trkpt lat="47.55385" lon="6.80034">
        <ele>402</ele>
        <time>2017-10-15T07:39:07.000Z</time>
      </trkpt>
      <trkpt lat="47.55389" lon="6.80036">
        <ele>402.4</ele>
        <time>2017-10-15T07:39:08.000Z</time>
      </trkpt>
      <trkpt lat="47.55392" lon="6.80038">
        <ele>402.6</ele>
        <time>2017-10-15T07:39:09.000Z</time>
      </trkpt>
      <trkpt lat="47.55395" lon="6.80041">
        <ele>402.9</ele>
        <time>2017-10-15T07:39:10.000Z</time>
      </trkpt>
      <trkpt lat="47.55397" lon="6.80043">
        <ele>403.2</ele>
        <time>2017-10-15T07:39:11.000Z</time>
      </trkpt>
      <trkpt lat="47.554" lon="6.80046">
        <ele>403.6</ele>
        <time>2017-10-15T07:39:12.000Z</time>
      </trkpt>
      <trkpt lat="47.55403" lon="6.80048">
        <ele>403.9</ele>
        <time>2017-10-15T07:39:13.000Z</time>
      </trkpt>
      <trkpt lat="47.55405" lon="6.80051">
        <ele>404.3</ele>
        <time>2017-10-15T07:39:14.000Z</time>
      </trkpt>
      <trkpt lat="47.55409" lon="6.80054">
        <ele>404.6</ele>
        <time>2017-10-15T07:39:15.000Z</time>
      </trkpt>
      <trkpt lat="47.55412" lon="6.80058">
        <ele>404.9</ele>
        <time>2017-10-15T07:39:16.000Z</time>
      </trkpt>
      <trkpt lat="47.55415" lon="6.80063">
        <ele>407.9</ele>
        <time>2017-10-15T07:39:17.000Z</time>
      </trkpt>
      <trkpt lat="47.55419" lon="6.80066">
        <ele>408</ele>
        <time>2017-10-15T07:39:18.000Z</time>
      </trkpt>
      <trkpt lat="47.55422" lon="6.8007">
        <ele>408.2</ele>
        <time>2017-10-15T07:39:19.000Z</time>
      </trkpt>
      <trkpt lat="47.55426" lon="6.80074">
        <ele>408.4</ele>
        <time>2017-10-15T07:39:20.000Z</time>
      </trkpt>
      <trkpt lat="47.5543" lon="6.80078">
        <ele>408.6</ele>
        <time>2017-10-15T07:39:21.000Z</time>
      </trkpt>
      <trkpt lat="47.55433" lon="6.80081">
        <ele>408.9</ele>
        <time>2017-10-15T07:39:22.000Z</time>
      </trkpt>
      <trkpt lat="47.55435" lon="6.80082">
        <ele>409.1</ele>
        <time>2017-10-15T07:39:23.000Z</time>
      </trkpt>
      <trkpt lat="47.55438" lon="6.80084">
        <ele>409.4</ele>
        <time>2017-10-15T07:39:24.000Z</time>
      </trkpt>
      <trkpt lat="47.55441" lon="6.80085">
        <ele>409.6</ele>
        <time>2017-10-15T07:39:25.000Z</time>
      </trkpt>
      <trkpt lat="47.55445" lon="6.80087">
        <ele>409.8</ele>
        <time>2017-10-15T07:39:26.000Z</time>
      </trkpt>
      <trkpt lat="47.55447" lon="6.80087">
        <ele>409.8</ele>
        <time>2017-10-15T07:39:27.000Z</time>
      </trkpt>
      <trkpt lat="47.5545" lon="6.80088">
        <ele>409.8</ele>
        <time>2017-10-15T07:39:28.000Z</time>
      </trkpt>
      <trkpt lat="47.55453" lon="6.80087">
        <ele>409.7</ele>
        <time>2017-10-15T07:39:29.000Z</time>
      </trkpt>
      <trkpt lat="47.55456" lon="6.80086">
        <ele>409.5</ele>
        <time>2017-10-15T07:39:30.000Z</time>
      </trkpt>
      <trkpt lat="47.55459" lon="6.80085">
        <ele>409.4</ele>
        <time>2017-10-15T07:39:31.000Z</time>
      </trkpt>
      <trkpt lat="47.55463" lon="6.80085">
        <ele>409.3</ele>
        <time>2017-10-15T07:39:32.000Z</time>
      </trkpt>
      <trkpt lat="47.55469" lon="6.80085">
        <ele>408.3</ele>
        <time>2017-10-15T07:39:33.000Z</time>
      </trkpt>
      <trkpt lat="47.55477" lon="6.80088">
        <ele>406.6</ele>
        <time>2017-10-15T07:39:34.000Z</time>
      </trkpt>
      <trkpt lat="47.55484" lon="6.80089">
        <ele>404</ele>
        <time>2017-10-15T07:39:35.000Z</time>
      </trkpt>
      <trkpt lat="47.55489" lon="6.8009">
        <ele>401.6</ele>
        <time>2017-10-15T07:39:36.000Z</time>
      </trkpt>
      <trkpt lat="47.55496" lon="6.80091">
        <ele>399.7</ele>
        <time>2017-10-15T07:39:37.000Z</time>
      </trkpt>
      <trkpt lat="47.55501" lon="6.80092">
        <ele>397.6</ele>
        <time>2017-10-15T07:39:38.000Z</time>
      </trkpt>
      <trkpt lat="47.55508" lon="6.80097">
        <ele>396</ele>
        <time>2017-10-15T07:39:39.000Z</time>
      </trkpt>
      <trkpt lat="47.55514" lon="6.801">
        <ele>394.2</ele>
        <time>2017-10-15T07:39:40.000Z</time>
      </trkpt>
      <trkpt lat="47.55519" lon="6.80105">
        <ele>393.1</ele>
        <time>2017-10-15T07:39:41.000Z</time>
      </trkpt>
      <trkpt lat="47.55524" lon="6.80111">
        <ele>393</ele>
        <time>2017-10-15T07:39:42.000Z</time>
      </trkpt>
      <trkpt lat="47.55528" lon="6.80116">
        <ele>392.8</ele>
        <time>2017-10-15T07:39:43.000Z</time>
      </trkpt>
      <trkpt lat="47.55534" lon="6.80119">
        <ele>392.6</ele>
        <time>2017-10-15T07:39:44.000Z</time>
      </trkpt>
      <trkpt lat="47.55539" lon="6.80123">
        <ele>392.5</ele>
        <time>2017-10-15T07:39:45.000Z</time>
      </trkpt>
      <trkpt lat="47.55545" lon="6.80129">
        <ele>392.4</ele>
        <time>2017-10-15T07:39:46.000Z</time>
      </trkpt>
      <trkpt lat="47.55548" lon="6.80133">
        <ele>392.3</ele>
        <time>2017-10-15T07:39:47.000Z</time>
      </trkpt>
      <trkpt lat="47.5555" lon="6.80136">
        <ele>392.1</ele>
        <time>2017-10-15T07:39:48.000Z</time>
      </trkpt>
      <trkpt lat="47.55553" lon="6.80137">
        <ele>391.9</ele>
        <time>2017-10-15T07:39:49.000Z</time>
      </trkpt>
      <trkpt lat="47.55555" lon="6.80139">
        <ele>391.7</ele>
        <time>2017-10-15T07:39:50.000Z</time>
      </trkpt>
      <trkpt lat="47.55558" lon="6.8014">
        <ele>391.3</ele>
        <time>2017-10-15T07:39:52.000Z</time>
      </trkpt>
      <trkpt lat="47.55564" lon="6.80139">
        <ele>391</ele>
        <time>2017-10-15T07:39:53.000Z</time>
      </trkpt>
      <trkpt lat="47.55567" lon="6.80139">
        <ele>390.8</ele>
        <time>2017-10-15T07:39:54.000Z</time>
      </trkpt>
      <trkpt lat="47.55573" lon="6.80137">
        <ele>390.7</ele>
        <time>2017-10-15T07:39:55.000Z</time>
      </trkpt>
      <trkpt lat="47.55577" lon="6.80138">
        <ele>390.6</ele>
        <time>2017-10-15T07:39:59.000Z</time>
      </trkpt>
      <trkpt lat="47.5558" lon="6.80143">
        <ele>390.7</ele>
        <time>2017-10-15T07:40:00.000Z</time>
      </trkpt>
      <trkpt lat="47.55584" lon="6.80142">
        <ele>391</ele>
        <time>2017-10-15T07:40:01.000Z</time>
      </trkpt>
      <trkpt lat="47.55589" lon="6.80138">
        <ele>391.2</ele>
        <time>2017-10-15T07:40:02.000Z</time>
      </trkpt>
      <trkpt lat="47.55591" lon="6.80137">
        <ele>391.5</ele>
        <time>2017-10-15T07:40:03.000Z</time>
      </trkpt>
      <trkpt lat="47.55595" lon="6.80134">
        <ele>391.9</ele>
        <time>2017-10-15T07:40:04.000Z</time>
      </trkpt>
      <trkpt lat="47.55597" lon="6.80133">
        <ele>392.3</ele>
        <time>2017-10-15T07:40:05.000Z</time>
      </trkpt>
      <trkpt lat="47.556" lon="6.80129">
        <ele>392.8</ele>
        <time>2017-10-15T07:40:06.000Z</time>
      </trkpt>
      <trkpt lat="47.55604" lon="6.80127">
        <ele>393.3</ele>
        <time>2017-10-15T07:40:07.000Z</time>
      </trkpt>
      <trkpt lat="47.55609" lon="6.80128">
        <ele>393.8</ele>
        <time>2017-10-15T07:40:08.000Z</time>
      </trkpt>
      <trkpt lat="47.55614" lon="6.8013">
        <ele>394.4</ele>
        <time>2017-10-15T07:40:09.000Z</time>
      </trkpt>
      <trkpt lat="47.55618" lon="6.80128">
        <ele>395</ele>
        <time>2017-10-15T07:40:10.000Z</time>
      </trkpt>
      <trkpt lat="47.55619" lon="6.80128">
        <ele>395.5</ele>
        <time>2017-10-15T07:40:11.000Z</time>
      </trkpt>
      <trkpt lat="47.55624" lon="6.80127">
        <ele>396</ele>
        <time>2017-10-15T07:40:12.000Z</time>
      </trkpt>
      <trkpt lat="47.55628" lon="6.80126">
        <ele>397.7</ele>
        <time>2017-10-15T07:40:15.000Z</time>
      </trkpt>
      <trkpt lat="47.55629" lon="6.80126">
        <ele>398.1</ele>
        <time>2017-10-15T07:40:16.000Z</time>
      </trkpt>
      <trkpt lat="47.55633" lon="6.80123">
        <ele>398.9</ele>
        <time>2017-10-15T07:40:18.000Z</time>
      </trkpt>
      <trkpt lat="47.55634" lon="6.80121">
        <ele>399.3</ele>
        <time>2017-10-15T07:40:19.000Z</time>
      </trkpt>
      <trkpt lat="47.55636" lon="6.80117">
        <ele>400.9</ele>
        <time>2017-10-15T07:40:23.000Z</time>
      </trkpt>
      <trkpt lat="47.55637" lon="6.80115">
        <ele>401.3</ele>
        <time>2017-10-15T07:40:24.000Z</time>
      </trkpt>
      <trkpt lat="47.55639" lon="6.80113">
        <ele>401.7</ele>
        <time>2017-10-15T07:40:25.000Z</time>
      </trkpt>
      <trkpt lat="47.55641" lon="6.8011">
        <ele>402.1</ele>
        <time>2017-10-15T07:40:26.000Z</time>
      </trkpt>
      <trkpt lat="47.55643" lon="6.80106">
        <ele>402.4</ele>
        <time>2017-10-15T07:40:27.000Z</time>
      </trkpt>
      <trkpt lat="47.55643" lon="6.80105">
        <ele>402.7</ele>
        <time>2017-10-15T07:40:28.000Z</time>
      </trkpt>
      <trkpt lat="47.55646" lon="6.80101">
        <ele>403.4</ele>
        <time>2017-10-15T07:40:30.000Z</time>
      </trkpt>
      <trkpt lat="47.55647" lon="6.80099">
        <ele>403.8</ele>
        <time>2017-10-15T07:40:31.000Z</time>
      </trkpt>
      <trkpt lat="47.5565" lon="6.80095">
        <ele>405.2</ele>
        <time>2017-10-15T07:40:34.000Z</time>
      </trkpt>
      <trkpt lat="47.55651" lon="6.80094">
        <ele>405.7</ele>
        <time>2017-10-15T07:40:35.000Z</time>
      </trkpt>
      <trkpt lat="47.55654" lon="6.8009">
        <ele>408.7</ele>
        <time>2017-10-15T07:40:42.000Z</time>
      </trkpt>
      <trkpt lat="47.55654" lon="6.80089">
        <ele>409.2</ele>
        <time>2017-10-15T07:40:43.000Z</time>
      </trkpt>
      <trkpt lat="47.55656" lon="6.80088">
        <ele>410</ele>
        <time>2017-10-15T07:40:45.000Z</time>
      </trkpt>
      <trkpt lat="47.55658" lon="6.80086">
        <ele>410.4</ele>
        <time>2017-10-15T07:40:46.000Z</time>
      </trkpt>
      <trkpt lat="47.55662" lon="6.80086">
        <ele>411.8</ele>
        <time>2017-10-15T07:40:49.000Z</time>
      </trkpt>
      <trkpt lat="47.55663" lon="6.80086">
        <ele>412.3</ele>
        <time>2017-10-15T07:40:50.000Z</time>
      </trkpt>
      <trkpt lat="47.55667" lon="6.80085">
        <ele>415.1</ele>
        <time>2017-10-15T07:40:56.000Z</time>
      </trkpt>
      <trkpt lat="47.55668" lon="6.80085">
        <ele>415.5</ele>
        <time>2017-10-15T07:40:57.000Z</time>
      </trkpt>
      <trkpt lat="47.55669" lon="6.80084">
        <ele>416.4</ele>
        <time>2017-10-15T07:40:59.000Z</time>
      </trkpt>
      <trkpt lat="47.55673" lon="6.80083">
        <ele>416.7</ele>
        <time>2017-10-15T07:41:00.000Z</time>
      </trkpt>
      <trkpt lat="47.55677" lon="6.80083">
        <ele>417.7</ele>
        <time>2017-10-15T07:41:03.000Z</time>
      </trkpt>
      <trkpt lat="47.55681" lon="6.80083">
        <ele>418.1</ele>
        <time>2017-10-15T07:41:04.000Z</time>
      </trkpt>
      <trkpt lat="47.55684" lon="6.80081">
        <ele>419.6</ele>
        <time>2017-10-15T07:41:08.000Z</time>
      </trkpt>
      <trkpt lat="47.55685" lon="6.80081">
        <ele>420</ele>
        <time>2017-10-15T07:41:09.000Z</time>
      </trkpt>
      <trkpt lat="47.55686" lon="6.80074">
        <ele>422.3</ele>
        <time>2017-10-15T07:41:17.000Z</time>
      </trkpt>
      <trkpt lat="47.55686" lon="6.80073">
        <ele>422.5</ele>
        <time>2017-10-15T07:41:18.000Z</time>
      </trkpt>
      <trkpt lat="47.55689" lon="6.80069">
        <ele>426</ele>
        <time>2017-10-15T07:41:33.000Z</time>
      </trkpt>
      <trkpt lat="47.5569" lon="6.80068">
        <ele>426.1</ele>
        <time>2017-10-15T07:41:34.000Z</time>
      </trkpt>
      <trkpt lat="47.55694" lon="6.80065">
        <ele>426.5</ele>
        <time>2017-10-15T07:41:39.000Z</time>
      </trkpt>
      <trkpt lat="47.55695" lon="6.80065">
        <ele>426.6</ele>
        <time>2017-10-15T07:41:40.000Z</time>
      </trkpt>
      <trkpt lat="47.55698" lon="6.80065">
        <ele>426.8</ele>
        <time>2017-10-15T07:41:43.000Z</time>
      </trkpt>
      <trkpt lat="47.557" lon="6.80063">
        <ele>426.8</ele>
        <time>2017-10-15T07:41:44.000Z</time>
      </trkpt>
      <trkpt lat="47.55703" lon="6.80064">
        <ele>426.3</ele>
        <time>2017-10-15T07:41:48.000Z</time>
      </trkpt>
      <trkpt lat="47.55705" lon="6.80063">
        <ele>426.1</ele>
        <time>2017-10-15T07:41:49.000Z</time>
      </trkpt>
      <trkpt lat="47.55708" lon="6.80066">
        <ele>425.6</ele>
        <time>2017-10-15T07:41:51.000Z</time>
      </trkpt>
      <trkpt lat="47.55709" lon="6.80067">
        <ele>425.2</ele>
        <time>2017-10-15T07:41:52.000Z</time>
      </trkpt>
      <trkpt lat="47.55709" lon="6.80069">
        <ele>424.2</ele>
        <time>2017-10-15T07:41:55.000Z</time>
      </trkpt>
      <trkpt lat="47.55713" lon="6.80071">
        <ele>424</ele>
        <time>2017-10-15T07:41:56.000Z</time>
      </trkpt>
      <trkpt lat="47.55716" lon="6.80073">
        <ele>423.8</ele>
        <time>2017-10-15T07:41:57.000Z</time>
      </trkpt>
      <trkpt lat="47.55719" lon="6.80076">
        <ele>423.5</ele>
        <time>2017-10-15T07:41:58.000Z</time>
      </trkpt>
      <trkpt lat="47.55722" lon="6.8008">
        <ele>422.8</ele>
        <time>2017-10-15T07:42:02.000Z</time>
      </trkpt>
      <trkpt lat="47.55723" lon="6.80081">
        <ele>422.7</ele>
        <time>2017-10-15T07:42:03.000Z</time>
      </trkpt>
      <trkpt lat="47.55727" lon="6.80085">
        <ele>422.4</ele>
        <time>2017-10-15T07:42:06.000Z</time>
      </trkpt>
      <trkpt lat="47.55729" lon="6.80086">
        <ele>422.3</ele>
        <time>2017-10-15T07:42:07.000Z</time>
      </trkpt>
      <trkpt lat="47.55731" lon="6.80087">
        <ele>422.2</ele>
        <time>2017-10-15T07:42:08.000Z</time>
      </trkpt>
      <trkpt lat="47.55737" lon="6.8009">
        <ele>422.1</ele>
        <time>2017-10-15T07:42:09.000Z</time>
      </trkpt>
      <trkpt lat="47.55741" lon="6.80093">
        <ele>421.9</ele>
        <time>2017-10-15T07:42:11.000Z</time>
      </trkpt>
      <trkpt lat="47.55742" lon="6.80094">
        <ele>421.8</ele>
        <time>2017-10-15T07:42:12.000Z</time>
      </trkpt>
      <trkpt lat="47.55743" lon="6.80097">
        <ele>421.8</ele>
        <time>2017-10-15T07:42:15.000Z</time>
      </trkpt>
      <trkpt lat="47.55745" lon="6.80103">
        <ele>421.8</ele>
        <time>2017-10-15T07:42:16.000Z</time>
      </trkpt>
      <trkpt lat="47.55746" lon="6.80108">
        <ele>421.8</ele>
        <time>2017-10-15T07:42:17.000Z</time>
      </trkpt>
      <trkpt lat="47.55747" lon="6.80112">
        <ele>421.9</ele>
        <time>2017-10-15T07:42:18.000Z</time>
      </trkpt>
      <trkpt lat="47.55748" lon="6.80116">
        <ele>421.9</ele>
        <time>2017-10-15T07:42:20.000Z</time>
      </trkpt>
      <trkpt lat="47.55748" lon="6.8012">
        <ele>422</ele>
        <time>2017-10-15T07:42:21.000Z</time>
      </trkpt>
      <trkpt lat="47.55749" lon="6.80125">
        <ele>422.1</ele>
        <time>2017-10-15T07:42:23.000Z</time>
      </trkpt>
      <trkpt lat="47.55749" lon="6.80127">
        <ele>422.2</ele>
        <time>2017-10-15T07:42:24.000Z</time>
      </trkpt>
      <trkpt lat="47.55751" lon="6.80133">
        <ele>422.5</ele>
        <time>2017-10-15T07:42:27.000Z</time>
      </trkpt>
      <trkpt lat="47.55754" lon="6.80137">
        <ele>422.6</ele>
        <time>2017-10-15T07:42:28.000Z</time>
      </trkpt>
      <trkpt lat="47.55754" lon="6.80143">
        <ele>422.8</ele>
        <time>2017-10-15T07:42:31.000Z</time>
      </trkpt>
      <trkpt lat="47.55753" lon="6.80145">
        <ele>422.9</ele>
        <time>2017-10-15T07:42:32.000Z</time>
      </trkpt>
      <trkpt lat="47.55753" lon="6.80149">
        <ele>423.2</ele>
        <time>2017-10-15T07:42:34.000Z</time>
      </trkpt>
      <trkpt lat="47.55753" lon="6.80152">
        <ele>423.4</ele>
        <time>2017-10-15T07:42:35.000Z</time>
      </trkpt>
      <trkpt lat="47.55754" lon="6.80157">
        <ele>423.8</ele>
        <time>2017-10-15T07:42:37.000Z</time>
      </trkpt>
      <trkpt lat="47.55754" lon="6.80159">
        <ele>424</ele>
        <time>2017-10-15T07:42:38.000Z</time>
      </trkpt>
      <trkpt lat="47.55757" lon="6.8016">
        <ele>424.9</ele>
        <time>2017-10-15T07:42:44.000Z</time>
      </trkpt>
      <trkpt lat="47.55759" lon="6.80162">
        <ele>425</ele>
        <time>2017-10-15T07:42:45.000Z</time>
      </trkpt>
      <trkpt lat="47.55762" lon="6.80165">
        <ele>425.1</ele>
        <time>2017-10-15T07:42:48.000Z</time>
      </trkpt>
      <trkpt lat="47.55763" lon="6.80166">
        <ele>425.1</ele>
        <time>2017-10-15T07:42:49.000Z</time>
      </trkpt>
      <trkpt lat="47.55765" lon="6.80168">
        <ele>425.1</ele>
        <time>2017-10-15T07:42:50.000Z</time>
      </trkpt>
      <trkpt lat="47.55767" lon="6.80171">
        <ele>425.2</ele>
        <time>2017-10-15T07:42:51.000Z</time>
      </trkpt>
      <trkpt lat="47.5577" lon="6.80173">
        <ele>425.2</ele>
        <time>2017-10-15T07:42:52.000Z</time>
      </trkpt>
      <trkpt lat="47.55772" lon="6.80174">
        <ele>425.3</ele>
        <time>2017-10-15T07:42:53.000Z</time>
      </trkpt>
      <trkpt lat="47.55774" lon="6.80175">
        <ele>425.3</ele>
        <time>2017-10-15T07:42:54.000Z</time>
      </trkpt>
      <trkpt lat="47.55776" lon="6.80176">
        <ele>425.3</ele>
        <time>2017-10-15T07:42:55.000Z</time>
      </trkpt>
      <trkpt lat="47.55779" lon="6.80177">
        <ele>425.5</ele>
        <time>2017-10-15T07:42:57.000Z</time>
      </trkpt>
      <trkpt lat="47.55784" lon="6.80179">
        <ele>425.5</ele>
        <time>2017-10-15T07:42:58.000Z</time>
      </trkpt>
      <trkpt lat="47.55788" lon="6.80181">
        <ele>425.5</ele>
        <time>2017-10-15T07:42:59.000Z</time>
      </trkpt>
      <trkpt lat="47.55793" lon="6.80184">
        <ele>425.6</ele>
        <time>2017-10-15T07:43:00.000Z</time>
      </trkpt>
      <trkpt lat="47.55794" lon="6.80184">
        <ele>425.7</ele>
        <time>2017-10-15T07:43:01.000Z</time>
      </trkpt>
      <trkpt lat="47.55798" lon="6.80186">
        <ele>425.7</ele>
        <time>2017-10-15T07:43:02.000Z</time>
      </trkpt>
      <trkpt lat="47.55801" lon="6.8019">
        <ele>425.8</ele>
        <time>2017-10-15T07:43:03.000Z</time>
      </trkpt>
      <trkpt lat="47.55802" lon="6.80192">
        <ele>425.8</ele>
        <time>2017-10-15T07:43:04.000Z</time>
      </trkpt>
      <trkpt lat="47.55803" lon="6.80193">
        <ele>425.9</ele>
        <time>2017-10-15T07:43:05.000Z</time>
      </trkpt>
      <trkpt lat="47.55808" lon="6.80194">
        <ele>425.9</ele>
        <time>2017-10-15T07:43:06.000Z</time>
      </trkpt>
      <trkpt lat="47.55812" lon="6.80195">
        <ele>425.9</ele>
        <time>2017-10-15T07:43:07.000Z</time>
      </trkpt>
      <trkpt lat="47.55814" lon="6.80197">
        <ele>426</ele>
        <time>2017-10-15T07:43:08.000Z</time>
      </trkpt>
      <trkpt lat="47.55817" lon="6.802">
        <ele>426.3</ele>
        <time>2017-10-15T07:43:10.000Z</time>
      </trkpt>
      <trkpt lat="47.55821" lon="6.80203">
        <ele>426.5</ele>
        <time>2017-10-15T07:43:11.000Z</time>
      </trkpt>
      <trkpt lat="47.55823" lon="6.80205">
        <ele>426.7</ele>
        <time>2017-10-15T07:43:12.000Z</time>
      </trkpt>
      <trkpt lat="47.55826" lon="6.80206">
        <ele>427</ele>
        <time>2017-10-15T07:43:13.000Z</time>
      </trkpt>
      <trkpt lat="47.55828" lon="6.80207">
        <ele>427.3</ele>
        <time>2017-10-15T07:43:14.000Z</time>
      </trkpt>
      <trkpt lat="47.55833" lon="6.80208">
        <ele>427.7</ele>
        <time>2017-10-15T07:43:15.000Z</time>
      </trkpt>
      <trkpt lat="47.55839" lon="6.80211">
        <ele>428.2</ele>
        <time>2017-10-15T07:43:16.000Z</time>
      </trkpt>
      <trkpt lat="47.55842" lon="6.80211">
        <ele>428.7</ele>
        <time>2017-10-15T07:43:17.000Z</time>
      </trkpt>
      <trkpt lat="47.55845" lon="6.80212">
        <ele>429.2</ele>
        <time>2017-10-15T07:43:18.000Z</time>
      </trkpt>
      <trkpt lat="47.55849" lon="6.80214">
        <ele>429.6</ele>
        <time>2017-10-15T07:43:19.000Z</time>
      </trkpt>
      <trkpt lat="47.55851" lon="6.80215">
        <ele>430</ele>
        <time>2017-10-15T07:43:20.000Z</time>
      </trkpt>
      <trkpt lat="47.55855" lon="6.80219">
        <ele>430.3</ele>
        <time>2017-10-15T07:43:21.000Z</time>
      </trkpt>
      <trkpt lat="47.55859" lon="6.80219">
        <ele>430.7</ele>
        <time>2017-10-15T07:43:22.000Z</time>
      </trkpt>
      <trkpt lat="47.55865" lon="6.80221">
        <ele>431</ele>
        <time>2017-10-15T07:43:23.000Z</time>
      </trkpt>
      <trkpt lat="47.55869" lon="6.80225">
        <ele>431.4</ele>
        <time>2017-10-15T07:43:24.000Z</time>
      </trkpt>
      <trkpt lat="47.5587" lon="6.80225">
        <ele>431.7</ele>
        <time>2017-10-15T07:43:25.000Z</time>
      </trkpt>
      <trkpt lat="47.55873" lon="6.80228">
        <ele>432</ele>
        <time>2017-10-15T07:43:26.000Z</time>
      </trkpt>
      <trkpt lat="47.55878" lon="6.80228">
        <ele>432.3</ele>
        <time>2017-10-15T07:43:27.000Z</time>
      </trkpt>
      <trkpt lat="47.55881" lon="6.80226">
        <ele>432.5</ele>
        <time>2017-10-15T07:43:28.000Z</time>
      </trkpt>
      <trkpt lat="47.55885" lon="6.80224">
        <ele>432.6</ele>
        <time>2017-10-15T07:43:29.000Z</time>
      </trkpt>
      <trkpt lat="47.5589" lon="6.8022">
        <ele>434.1</ele>
        <time>2017-10-15T07:43:30.000Z</time>
      </trkpt>
      <trkpt lat="47.55899" lon="6.80215">
        <ele>435.5</ele>
        <time>2017-10-15T07:43:31.000Z</time>
      </trkpt>
      <trkpt lat="47.55907" lon="6.80208">
        <ele>436.2</ele>
        <time>2017-10-15T07:43:32.000Z</time>
      </trkpt>
      <trkpt lat="47.55911" lon="6.80201">
        <ele>436.9</ele>
        <time>2017-10-15T07:43:33.000Z</time>
      </trkpt>
      <trkpt lat="47.55915" lon="6.80195">
        <ele>437.4</ele>
        <time>2017-10-15T07:43:34.000Z</time>
      </trkpt>
      <trkpt lat="47.55921" lon="6.80188">
        <ele>437.3</ele>
        <time>2017-10-15T07:43:35.000Z</time>
      </trkpt>
      <trkpt lat="47.55929" lon="6.80182">
        <ele>436.9</ele>
        <time>2017-10-15T07:43:36.000Z</time>
      </trkpt>
      <trkpt lat="47.55935" lon="6.80176">
        <ele>436.8</ele>
        <time>2017-10-15T07:43:37.000Z</time>
      </trkpt>
      <trkpt lat="47.55939" lon="6.80172">
        <ele>436.1</ele>
        <time>2017-10-15T07:43:38.000Z</time>
      </trkpt>
      <trkpt lat="47.55944" lon="6.80169">
        <ele>435.4</ele>
        <time>2017-10-15T07:43:39.000Z</time>
      </trkpt>
      <trkpt lat="47.5595" lon="6.80166">
        <ele>434.7</ele>
        <time>2017-10-15T07:43:40.000Z</time>
      </trkpt>
      <trkpt lat="47.55956" lon="6.80165">
        <ele>433.7</ele>
        <time>2017-10-15T07:43:41.000Z</time>
      </trkpt>
      <trkpt lat="47.55962" lon="6.80164">
        <ele>433.4</ele>
        <time>2017-10-15T07:43:42.000Z</time>
      </trkpt>
      <trkpt lat="47.55969" lon="6.80163">
        <ele>432.7</ele>
        <time>2017-10-15T07:43:43.000Z</time>
      </trkpt>
      <trkpt lat="47.55975" lon="6.80163">
        <ele>431.9</ele>
        <time>2017-10-15T07:43:44.000Z</time>
      </trkpt>
      <trkpt lat="47.55982" lon="6.80165">
        <ele>431.3</ele>
        <time>2017-10-15T07:43:45.000Z</time>
      </trkpt>
      <trkpt lat="47.55989" lon="6.80168">
        <ele>431.3</ele>
        <time>2017-10-15T07:43:46.000Z</time>
      </trkpt>
      <trkpt lat="47.55995" lon="6.80171">
        <ele>430.6</ele>
        <time>2017-10-15T07:43:47.000Z</time>
      </trkpt>
      <trkpt lat="47.56" lon="6.80173">
        <ele>429.7</ele>
        <time>2017-10-15T07:43:48.000Z</time>
      </trkpt>
      <trkpt lat="47.56005" lon="6.80175">
        <ele>428.7</ele>
        <time>2017-10-15T07:43:49.000Z</time>
      </trkpt>
      <trkpt lat="47.56008" lon="6.80181">
        <ele>427.6</ele>
        <time>2017-10-15T07:43:50.000Z</time>
      </trkpt>
      <trkpt lat="47.56012" lon="6.80187">
        <ele>426.6</ele>
        <time>2017-10-15T07:43:51.000Z</time>
      </trkpt>
      <trkpt lat="47.56015" lon="6.80193">
        <ele>426.4</ele>
        <time>2017-10-15T07:43:52.000Z</time>
      </trkpt>
      <trkpt lat="47.56018" lon="6.802">
        <ele>426.3</ele>
        <time>2017-10-15T07:43:53.000Z</time>
      </trkpt>
      <trkpt lat="47.56022" lon="6.80204">
        <ele>426.3</ele>
        <time>2017-10-15T07:43:54.000Z</time>
      </trkpt>
      <trkpt lat="47.56027" lon="6.80207">
        <ele>426.6</ele>
        <time>2017-10-15T07:43:55.000Z</time>
      </trkpt>
      <trkpt lat="47.56031" lon="6.80208">
        <ele>427.1</ele>
        <time>2017-10-15T07:43:56.000Z</time>
      </trkpt>
      <trkpt lat="47.56036" lon="6.80209">
        <ele>427.3</ele>
        <time>2017-10-15T07:43:57.000Z</time>
      </trkpt>
      <trkpt lat="47.56041" lon="6.80208">
        <ele>427.5</ele>
        <time>2017-10-15T07:43:58.000Z</time>
      </trkpt>
      <trkpt lat="47.56045" lon="6.80207">
        <ele>427.3</ele>
        <time>2017-10-15T07:43:59.000Z</time>
      </trkpt>
      <trkpt lat="47.56045" lon="6.80207">
        <ele>427.3</ele>
        <time>2017-10-15T07:44:01.000Z</time>
      </trkpt>
      <trkpt lat="47.56051" lon="6.80205">
        <ele>427.1</ele>
        <time>2017-10-15T07:44:02.000Z</time>
      </trkpt>
      <trkpt lat="47.56058" lon="6.80206">
        <ele>425.2</ele>
        <time>2017-10-15T07:44:03.000Z</time>
      </trkpt>
      <trkpt lat="47.56064" lon="6.80206">
        <ele>424.3</ele>
        <time>2017-10-15T07:44:04.000Z</time>
      </trkpt>
      <trkpt lat="47.56071" lon="6.80205">
        <ele>423.3</ele>
        <time>2017-10-15T07:44:05.000Z</time>
      </trkpt>
      <trkpt lat="47.56077" lon="6.80203">
        <ele>422.5</ele>
        <time>2017-10-15T07:44:06.000Z</time>
      </trkpt>
      <trkpt lat="47.56083" lon="6.802">
        <ele>420.8</ele>
        <time>2017-10-15T07:44:07.000Z</time>
      </trkpt>
      <trkpt lat="47.56087" lon="6.80197">
        <ele>419.8</ele>
        <time>2017-10-15T07:44:08.000Z</time>
      </trkpt>
      <trkpt lat="47.56091" lon="6.80191">
        <ele>419.4</ele>
        <time>2017-10-15T07:44:09.000Z</time>
      </trkpt>
      <trkpt lat="47.56096" lon="6.80184">
        <ele>419.3</ele>
        <time>2017-10-15T07:44:10.000Z</time>
      </trkpt>
      <trkpt lat="47.56101" lon="6.80176">
        <ele>419.4</ele>
        <time>2017-10-15T07:44:11.000Z</time>
      </trkpt>
      <trkpt lat="47.56105" lon="6.80169">
        <ele>419.4</ele>
        <time>2017-10-15T07:44:12.000Z</time>
      </trkpt>
      <trkpt lat="47.5611" lon="6.80161">
        <ele>419.2</ele>
        <time>2017-10-15T07:44:13.000Z</time>
      </trkpt>
      <trkpt lat="47.56115" lon="6.80156">
        <ele>418.9</ele>
        <time>2017-10-15T07:44:14.000Z</time>
      </trkpt>
      <trkpt lat="47.56123" lon="6.80152">
        <ele>418.3</ele>
        <time>2017-10-15T07:44:15.000Z</time>
      </trkpt>
      <trkpt lat="47.5613" lon="6.80148">
        <ele>417.5</ele>
        <time>2017-10-15T07:44:16.000Z</time>
      </trkpt>
      <trkpt lat="47.56138" lon="6.80145">
        <ele>417.1</ele>
        <time>2017-10-15T07:44:17.000Z</time>
      </trkpt>
      <trkpt lat="47.56146" lon="6.80142">
        <ele>416.9</ele>
        <time>2017-10-15T07:44:18.000Z</time>
      </trkpt>
      <trkpt lat="47.56155" lon="6.8014">
        <ele>416.9</ele>
        <time>2017-10-15T07:44:19.000Z</time>
      </trkpt>
      <trkpt lat="47.56163" lon="6.80138">
        <ele>416.7</ele>
        <time>2017-10-15T07:44:20.000Z</time>
      </trkpt>
      <trkpt lat="47.56169" lon="6.80137">
        <ele>416.7</ele>
        <time>2017-10-15T07:44:21.000Z</time>
      </trkpt>
      <trkpt lat="47.56174" lon="6.8014">
        <ele>416.9</ele>
        <time>2017-10-15T07:44:22.000Z</time>
      </trkpt>
      <trkpt lat="47.5618" lon="6.80145">
        <ele>417.4</ele>
        <time>2017-10-15T07:44:23.000Z</time>
      </trkpt>
      <trkpt lat="47.56185" lon="6.8015">
        <ele>417.5</ele>
        <time>2017-10-15T07:44:24.000Z</time>
      </trkpt>
      <trkpt lat="47.56189" lon="6.80155">
        <ele>417.9</ele>
        <time>2017-10-15T07:44:25.000Z</time>
      </trkpt>
      <trkpt lat="47.56193" lon="6.80158">
        <ele>418</ele>
        <time>2017-10-15T07:44:26.000Z</time>
      </trkpt>
      <trkpt lat="47.56199" lon="6.80159">
        <ele>418.2</ele>
        <time>2017-10-15T07:44:27.000Z</time>
      </trkpt>
      <trkpt lat="47.56204" lon="6.80159">
        <ele>418.6</ele>
        <time>2017-10-15T07:44:28.000Z</time>
      </trkpt>
      <trkpt lat="47.56209" lon="6.80159">
        <ele>418.9</ele>
        <time>2017-10-15T07:44:29.000Z</time>
      </trkpt>
      <trkpt lat="47.56215" lon="6.80158">
        <ele>419.7</ele>
        <time>2017-10-15T07:44:30.000Z</time>
      </trkpt>
      <trkpt lat="47.56222" lon="6.80158">
        <ele>419.7</ele>
        <time>2017-10-15T07:44:31.000Z</time>
      </trkpt>
      <trkpt lat="47.56229" lon="6.80157">
        <ele>419.6</ele>
        <time>2017-10-15T07:44:32.000Z</time>
      </trkpt>
      <trkpt lat="47.56235" lon="6.80155">
        <ele>419.8</ele>
        <time>2017-10-15T07:44:33.000Z</time>
      </trkpt>
      <trkpt lat="47.5624" lon="6.80151">
        <ele>418.8</ele>
        <time>2017-10-15T07:44:34.000Z</time>
      </trkpt>
      <trkpt lat="47.56245" lon="6.80147">
        <ele>417.8</ele>
        <time>2017-10-15T07:44:35.000Z</time>
      </trkpt>
      <trkpt lat="47.56248" lon="6.80144">
        <ele>417.7</ele>
        <time>2017-10-15T07:44:36.000Z</time>
      </trkpt>
      <trkpt lat="47.56253" lon="6.80139">
        <ele>415.4</ele>
        <time>2017-10-15T07:44:37.000Z</time>
      </trkpt>
      <trkpt lat="47.56258" lon="6.80135">
        <ele>413.5</ele>
        <time>2017-10-15T07:44:38.000Z</time>
      </trkpt>
      <trkpt lat="47.56262" lon="6.80133">
        <ele>413.4</ele>
        <time>2017-10-15T07:44:39.000Z</time>
      </trkpt>
      <trkpt lat="47.56265" lon="6.80131">
        <ele>413.3</ele>
        <time>2017-10-15T07:44:40.000Z</time>
      </trkpt>
      <trkpt lat="47.5627" lon="6.80129">
        <ele>413.1</ele>
        <time>2017-10-15T07:44:41.000Z</time>
      </trkpt>
      <trkpt lat="47.56273" lon="6.80127">
        <ele>413</ele>
        <time>2017-10-15T07:44:42.000Z</time>
      </trkpt>
      <trkpt lat="47.56276" lon="6.80124">
        <ele>412.8</ele>
        <time>2017-10-15T07:44:43.000Z</time>
      </trkpt>
      <trkpt lat="47.5628" lon="6.80121">
        <ele>412.5</ele>
        <time>2017-10-15T07:44:44.000Z</time>
      </trkpt>
      <trkpt lat="47.56284" lon="6.80117">
        <ele>408.9</ele>
        <time>2017-10-15T07:44:45.000Z</time>
      </trkpt>
      <trkpt lat="47.56288" lon="6.80114">
        <ele>408.6</ele>
        <time>2017-10-15T07:44:46.000Z</time>
      </trkpt>
      <trkpt lat="47.56291" lon="6.80112">
        <ele>408.3</ele>
        <time>2017-10-15T07:44:47.000Z</time>
      </trkpt>
      <trkpt lat="47.56294" lon="6.80111">
        <ele>408</ele>
        <time>2017-10-15T07:44:48.000Z</time>
      </trkpt>
      <trkpt lat="47.56298" lon="6.80109">
        <ele>407.8</ele>
        <time>2017-10-15T07:44:49.000Z</time>
      </trkpt>
      <trkpt lat="47.56305" lon="6.80109">
        <ele>405.8</ele>
        <time>2017-10-15T07:44:50.000Z</time>
      </trkpt>
      <trkpt lat="47.5631" lon="6.80109">
        <ele>405.6</ele>
        <time>2017-10-15T07:44:51.000Z</time>
      </trkpt>
      <trkpt lat="47.56313" lon="6.8011">
        <ele>405.5</ele>
        <time>2017-10-15T07:44:52.000Z</time>
      </trkpt>
      <trkpt lat="47.56316" lon="6.80111">
        <ele>405.5</ele>
        <time>2017-10-15T07:44:53.000Z</time>
      </trkpt>
      <trkpt lat="47.56321" lon="6.80113">
        <ele>405.4</ele>
        <time>2017-10-15T07:44:54.000Z</time>
      </trkpt>
      <trkpt lat="47.56324" lon="6.80115">
        <ele>405.4</ele>
        <time>2017-10-15T07:44:55.000Z</time>
      </trkpt>
      <trkpt lat="47.56329" lon="6.80117">
        <ele>405.4</ele>
        <time>2017-10-15T07:44:56.000Z</time>
      </trkpt>
      <trkpt lat="47.56333" lon="6.80118">
        <ele>405.4</ele>
        <time>2017-10-15T07:44:57.000Z</time>
      </trkpt>
      <trkpt lat="47.56337" lon="6.80119">
        <ele>405.6</ele>
        <time>2017-10-15T07:44:58.000Z</time>
      </trkpt>
      <trkpt lat="47.56341" lon="6.8012">
        <ele>405.7</ele>
        <time>2017-10-15T07:44:59.000Z</time>
      </trkpt>
      <trkpt lat="47.56344" lon="6.80121">
        <ele>405.8</ele>
        <time>2017-10-15T07:45:00.000Z</time>
      </trkpt>
      <trkpt lat="47.56348" lon="6.80122">
        <ele>405.9</ele>
        <time>2017-10-15T07:45:01.000Z</time>
      </trkpt>
      <trkpt lat="47.56353" lon="6.80122">
        <ele>406.1</ele>
        <time>2017-10-15T07:45:02.000Z</time>
      </trkpt>
      <trkpt lat="47.56356" lon="6.80123">
        <ele>406.2</ele>
        <time>2017-10-15T07:45:03.000Z</time>
      </trkpt>
      <trkpt lat="47.56361" lon="6.80124">
        <ele>406.4</ele>
        <time>2017-10-15T07:45:04.000Z</time>
      </trkpt>
      <trkpt lat="47.56365" lon="6.80125">
        <ele>406.6</ele>
        <time>2017-10-15T07:45:05.000Z</time>
      </trkpt>
      <trkpt lat="47.56369" lon="6.80126">
        <ele>406.9</ele>
        <time>2017-10-15T07:45:06.000Z</time>
      </trkpt>
      <trkpt lat="47.56373" lon="6.80127">
        <ele>407.1</ele>
        <time>2017-10-15T07:45:07.000Z</time>
      </trkpt>
      <trkpt lat="47.56377" lon="6.80129">
        <ele>407.4</ele>
        <time>2017-10-15T07:45:08.000Z</time>
      </trkpt>
      <trkpt lat="47.5638" lon="6.8013">
        <ele>407.7</ele>
        <time>2017-10-15T07:45:09.000Z</time>
      </trkpt>
      <trkpt lat="47.56385" lon="6.80131">
        <ele>408</ele>
        <time>2017-10-15T07:45:10.000Z</time>
      </trkpt>
      <trkpt lat="47.5639" lon="6.80132">
        <ele>408.3</ele>
        <time>2017-10-15T07:45:11.000Z</time>
      </trkpt>
      <trkpt lat="47.56394" lon="6.80133">
        <ele>408.6</ele>
        <time>2017-10-15T07:45:12.000Z</time>
      </trkpt>
      <trkpt lat="47.56398" lon="6.80133">
        <ele>408.9</ele>
        <time>2017-10-15T07:45:13.000Z</time>
      </trkpt>
      <trkpt lat="47.56402" lon="6.80133">
        <ele>409.2</ele>
        <time>2017-10-15T07:45:14.000Z</time>
      </trkpt>
      <trkpt lat="47.56406" lon="6.80133">
        <ele>409.5</ele>
        <time>2017-10-15T07:45:15.000Z</time>
      </trkpt>
      <trkpt lat="47.5641" lon="6.80134">
        <ele>409.8</ele>
        <time>2017-10-15T07:45:16.000Z</time>
      </trkpt>
      <trkpt lat="47.56413" lon="6.80134">
        <ele>410</ele>
        <time>2017-10-15T07:45:17.000Z</time>
      </trkpt>
      <trkpt lat="47.56417" lon="6.80135">
        <ele>410.3</ele>
        <time>2017-10-15T07:45:18.000Z</time>
      </trkpt>
      <trkpt lat="47.5642" lon="6.80135">
        <ele>410.5</ele>
        <time>2017-10-15T07:45:19.000Z</time>
      </trkpt>
      <trkpt lat="47.56423" lon="6.80136">
        <ele>410.7</ele>
        <time>2017-10-15T07:45:20.000Z</time>
      </trkpt>
      <trkpt lat="47.56427" lon="6.80137">
        <ele>410.9</ele>
        <time>2017-10-15T07:45:21.000Z</time>
      </trkpt>
      <trkpt lat="47.56431" lon="6.80138">
        <ele>411.1</ele>
        <time>2017-10-15T07:45:22.000Z</time>
      </trkpt>
      <trkpt lat="47.56434" lon="6.80138">
        <ele>411.3</ele>
        <time>2017-10-15T07:45:23.000Z</time>
      </trkpt>
      <trkpt lat="47.56438" lon="6.80138">
        <ele>411.5</ele>
        <time>2017-10-15T07:45:24.000Z</time>
      </trkpt>
      <trkpt lat="47.56442" lon="6.80138">
        <ele>411.8</ele>
        <time>2017-10-15T07:45:25.000Z</time>
      </trkpt>
      <trkpt lat="47.56446" lon="6.80137">
        <ele>412</ele>
        <time>2017-10-15T07:45:26.000Z</time>
      </trkpt>
      <trkpt lat="47.5645" lon="6.80136">
        <ele>412.2</ele>
        <time>2017-10-15T07:45:27.000Z</time>
      </trkpt>
      <trkpt lat="47.56454" lon="6.80136">
        <ele>412.5</ele>
        <time>2017-10-15T07:45:28.000Z</time>
      </trkpt>
      <trkpt lat="47.56458" lon="6.80135">
        <ele>412.7</ele>
        <time>2017-10-15T07:45:29.000Z</time>
      </trkpt>
      <trkpt lat="47.56462" lon="6.80135">
        <ele>414.6</ele>
        <time>2017-10-15T07:45:30.000Z</time>
      </trkpt>
      <trkpt lat="47.56467" lon="6.80134">
        <ele>416</ele>
        <time>2017-10-15T07:45:31.000Z</time>
      </trkpt>
      <trkpt lat="47.56472" lon="6.80132">
        <ele>417.1</ele>
        <time>2017-10-15T07:45:32.000Z</time>
      </trkpt>
      <trkpt lat="47.56476" lon="6.80131">
        <ele>418.2</ele>
        <time>2017-10-15T07:45:33.000Z</time>
      </trkpt>
      <trkpt lat="47.56481" lon="6.80131">
        <ele>418.8</ele>
        <time>2017-10-15T07:45:34.000Z</time>
      </trkpt>
      <trkpt lat="47.56485" lon="6.8013">
        <ele>419.7</ele>
        <time>2017-10-15T07:45:35.000Z</time>
      </trkpt>
      <trkpt lat="47.5649" lon="6.80129">
        <ele>420.5</ele>
        <time>2017-10-15T07:45:36.000Z</time>
      </trkpt>
      <trkpt lat="47.56494" lon="6.80128">
        <ele>420.6</ele>
        <time>2017-10-15T07:45:37.000Z</time>
      </trkpt>
      <trkpt lat="47.56497" lon="6.80127">
        <ele>420.7</ele>
        <time>2017-10-15T07:45:38.000Z</time>
      </trkpt>
      <trkpt lat="47.56501" lon="6.80126">
        <ele>420.8</ele>
        <time>2017-10-15T07:45:39.000Z</time>
      </trkpt>
      <trkpt lat="47.56504" lon="6.80125">
        <ele>421.6</ele>
        <time>2017-10-15T07:45:40.000Z</time>
      </trkpt>
      <trkpt lat="47.56508" lon="6.80123">
        <ele>422.1</ele>
        <time>2017-10-15T07:45:41.000Z</time>
      </trkpt>
      <trkpt lat="47.56512" lon="6.80122">
        <ele>422.1</ele>
        <time>2017-10-15T07:45:42.000Z</time>
      </trkpt>
      <trkpt lat="47.56516" lon="6.80121">
        <ele>423.1</ele>
        <time>2017-10-15T07:45:43.000Z</time>
      </trkpt>
      <trkpt lat="47.56521" lon="6.80119">
        <ele>423.8</ele>
        <time>2017-10-15T07:45:44.000Z</time>
      </trkpt>
      <trkpt lat="47.56525" lon="6.80118">
        <ele>423.9</ele>
        <time>2017-10-15T07:45:45.000Z</time>
      </trkpt>
      <trkpt lat="47.56529" lon="6.80117">
        <ele>424</ele>
        <time>2017-10-15T07:45:46.000Z</time>
      </trkpt>
      <trkpt lat="47.56532" lon="6.80117">
        <ele>424.2</ele>
        <time>2017-10-15T07:45:47.000Z</time>
      </trkpt>
      <trkpt lat="47.56535" lon="6.80116">
        <ele>424.3</ele>
        <time>2017-10-15T07:45:48.000Z</time>
      </trkpt>
      <trkpt lat="47.56539" lon="6.80115">
        <ele>424.4</ele>
        <time>2017-10-15T07:45:49.000Z</time>
      </trkpt>
      <trkpt lat="47.56542" lon="6.80114">
        <ele>425.4</ele>
        <time>2017-10-15T07:45:50.000Z</time>
      </trkpt>
      <trkpt lat="47.56545" lon="6.80114">
        <ele>425.5</ele>
        <time>2017-10-15T07:45:51.000Z</time>
      </trkpt>
      <trkpt lat="47.56548" lon="6.80114">
        <ele>425.5</ele>
        <time>2017-10-15T07:45:52.000Z</time>
      </trkpt>
      <trkpt lat="47.56551" lon="6.80114">
        <ele>425.5</ele>
        <time>2017-10-15T07:45:53.000Z</time>
      </trkpt>
      <trkpt lat="47.56555" lon="6.80113">
        <ele>425.6</ele>
        <time>2017-10-15T07:45:54.000Z</time>
      </trkpt>
      <trkpt lat="47.56559" lon="6.80113">
        <ele>425.5</ele>
        <time>2017-10-15T07:45:55.000Z</time>
      </trkpt>
      <trkpt lat="47.56561" lon="6.80112">
        <ele>425.5</ele>
        <time>2017-10-15T07:45:56.000Z</time>
      </trkpt>
      <trkpt lat="47.56565" lon="6.80112">
        <ele>425.6</ele>
        <time>2017-10-15T07:45:57.000Z</time>
      </trkpt>
      <trkpt lat="47.56568" lon="6.80111">
        <ele>425.6</ele>
        <time>2017-10-15T07:45:58.000Z</time>
      </trkpt>
      <trkpt lat="47.56571" lon="6.8011">
        <ele>425.7</ele>
        <time>2017-10-15T07:45:59.000Z</time>
      </trkpt>
      <trkpt lat="47.56574" lon="6.80108">
        <ele>425.8</ele>
        <time>2017-10-15T07:46:00.000Z</time>
      </trkpt>
      <trkpt lat="47.56578" lon="6.80107">
        <ele>425.9</ele>
        <time>2017-10-15T07:46:01.000Z</time>
      </trkpt>
      <trkpt lat="47.56581" lon="6.80106">
        <ele>425.9</ele>
        <time>2017-10-15T07:46:02.000Z</time>
      </trkpt>
      <trkpt lat="47.56584" lon="6.80106">
        <ele>426</ele>
        <time>2017-10-15T07:46:03.000Z</time>
      </trkpt>
      <trkpt lat="47.56587" lon="6.80107">
        <ele>426</ele>
        <time>2017-10-15T07:46:04.000Z</time>
      </trkpt>
      <trkpt lat="47.5659" lon="6.80107">
        <ele>426.2</ele>
        <time>2017-10-15T07:46:05.000Z</time>
      </trkpt>
      <trkpt lat="47.56593" lon="6.80108">
        <ele>426.3</ele>
        <time>2017-10-15T07:46:06.000Z</time>
      </trkpt>
      <trkpt lat="47.56596" lon="6.80109">
        <ele>426.4</ele>
        <time>2017-10-15T07:46:07.000Z</time>
      </trkpt>
      <trkpt lat="47.56598" lon="6.80109">
        <ele>426.5</ele>
        <time>2017-10-15T07:46:08.000Z</time>
      </trkpt>
      <trkpt lat="47.566" lon="6.8011">
        <ele>426.6</ele>
        <time>2017-10-15T07:46:09.000Z</time>
      </trkpt>
      <trkpt lat="47.56603" lon="6.80111">
        <ele>426.6</ele>
        <time>2017-10-15T07:46:10.000Z</time>
      </trkpt>
      <trkpt lat="47.56606" lon="6.80112">
        <ele>426.7</ele>
        <time>2017-10-15T07:46:11.000Z</time>
      </trkpt>
      <trkpt lat="47.56609" lon="6.80114">
        <ele>426.9</ele>
        <time>2017-10-15T07:46:12.000Z</time>
      </trkpt>
      <trkpt lat="47.56613" lon="6.80116">
        <ele>426.9</ele>
        <time>2017-10-15T07:46:13.000Z</time>
      </trkpt>
      <trkpt lat="47.56615" lon="6.80118">
        <ele>427.1</ele>
        <time>2017-10-15T07:46:14.000Z</time>
      </trkpt>
      <trkpt lat="47.56618" lon="6.80119">
        <ele>427.2</ele>
        <time>2017-10-15T07:46:15.000Z</time>
      </trkpt>
      <trkpt lat="47.5662" lon="6.80121">
        <ele>427.4</ele>
        <time>2017-10-15T07:46:16.000Z</time>
      </trkpt>
      <trkpt lat="47.56622" lon="6.80123">
        <ele>427.5</ele>
        <time>2017-10-15T07:46:17.000Z</time>
      </trkpt>
      <trkpt lat="47.56624" lon="6.80125">
        <ele>427.6</ele>
        <time>2017-10-15T07:46:18.000Z</time>
      </trkpt>
      <trkpt lat="47.56627" lon="6.80127">
        <ele>427.8</ele>
        <time>2017-10-15T07:46:19.000Z</time>
      </trkpt>
      <trkpt lat="47.56629" lon="6.8013">
        <ele>427.8</ele>
        <time>2017-10-15T07:46:20.000Z</time>
      </trkpt>
      <trkpt lat="47.56631" lon="6.80132">
        <ele>427.8</ele>
        <time>2017-10-15T07:46:21.000Z</time>
      </trkpt>
      <trkpt lat="47.56634" lon="6.80135">
        <ele>427.9</ele>
        <time>2017-10-15T07:46:22.000Z</time>
      </trkpt>
      <trkpt lat="47.56637" lon="6.80138">
        <ele>427.9</ele>
        <time>2017-10-15T07:46:23.000Z</time>
      </trkpt>
      <trkpt lat="47.5664" lon="6.8014">
        <ele>427.9</ele>
        <time>2017-10-15T07:46:24.000Z</time>
      </trkpt>
      <trkpt lat="47.56643" lon="6.80142">
        <ele>428</ele>
        <time>2017-10-15T07:46:25.000Z</time>
      </trkpt>
      <trkpt lat="47.56646" lon="6.80144">
        <ele>428</ele>
        <time>2017-10-15T07:46:26.000Z</time>
      </trkpt>
      <trkpt lat="47.56649" lon="6.80146">
        <ele>428.1</ele>
        <time>2017-10-15T07:46:27.000Z</time>
      </trkpt>
      <trkpt lat="47.56652" lon="6.80148">
        <ele>428.1</ele>
        <time>2017-10-15T07:46:28.000Z</time>
      </trkpt>
      <trkpt lat="47.56655" lon="6.8015">
        <ele>428.2</ele>
        <time>2017-10-15T07:46:29.000Z</time>
      </trkpt>
      <trkpt lat="47.56659" lon="6.80152">
        <ele>428.4</ele>
        <time>2017-10-15T07:46:30.000Z</time>
      </trkpt>
      <trkpt lat="47.56662" lon="6.80154">
        <ele>428.5</ele>
        <time>2017-10-15T07:46:31.000Z</time>
      </trkpt>
      <trkpt lat="47.56665" lon="6.80155">
        <ele>428.5</ele>
        <time>2017-10-15T07:46:32.000Z</time>
      </trkpt>
      <trkpt lat="47.56667" lon="6.80157">
        <ele>428.6</ele>
        <time>2017-10-15T07:46:33.000Z</time>
      </trkpt>
      <trkpt lat="47.5667" lon="6.80159">
        <ele>428.7</ele>
        <time>2017-10-15T07:46:34.000Z</time>
      </trkpt>
      <trkpt lat="47.56673" lon="6.8016">
        <ele>428.8</ele>
        <time>2017-10-15T07:46:35.000Z</time>
      </trkpt>
      <trkpt lat="47.56676" lon="6.80162">
        <ele>428.9</ele>
        <time>2017-10-15T07:46:36.000Z</time>
      </trkpt>
      <trkpt lat="47.56678" lon="6.80163">
        <ele>429</ele>
        <time>2017-10-15T07:46:37.000Z</time>
      </trkpt>
      <trkpt lat="47.56681" lon="6.80164">
        <ele>429.1</ele>
        <time>2017-10-15T07:46:38.000Z</time>
      </trkpt>
      <trkpt lat="47.56683" lon="6.80165">
        <ele>429.2</ele>
        <time>2017-10-15T07:46:39.000Z</time>
      </trkpt>
      <trkpt lat="47.56685" lon="6.80167">
        <ele>429.3</ele>
        <time>2017-10-15T07:46:40.000Z</time>
      </trkpt>
      <trkpt lat="47.56688" lon="6.80168">
        <ele>429.4</ele>
        <time>2017-10-15T07:46:41.000Z</time>
      </trkpt>
      <trkpt lat="47.5669" lon="6.80169">
        <ele>429.5</ele>
        <time>2017-10-15T07:46:42.000Z</time>
      </trkpt>
      <trkpt lat="47.56692" lon="6.8017">
        <ele>429.6</ele>
        <time>2017-10-15T07:46:43.000Z</time>
      </trkpt>
      <trkpt lat="47.56694" lon="6.80172">
        <ele>429.7</ele>
        <time>2017-10-15T07:46:44.000Z</time>
      </trkpt>
      <trkpt lat="47.56698" lon="6.80175">
        <ele>429.9</ele>
        <time>2017-10-15T07:46:46.000Z</time>
      </trkpt>
      <trkpt lat="47.56701" lon="6.80177">
        <ele>430</ele>
        <time>2017-10-15T07:46:47.000Z</time>
      </trkpt>
      <trkpt lat="47.56703" lon="6.80179">
        <ele>430.2</ele>
        <time>2017-10-15T07:46:48.000Z</time>
      </trkpt>
      <trkpt lat="47.56706" lon="6.80181">
        <ele>430.3</ele>
        <time>2017-10-15T07:46:49.000Z</time>
      </trkpt>
      <trkpt lat="47.56708" lon="6.80184">
        <ele>430.5</ele>
        <time>2017-10-15T07:46:50.000Z</time>
      </trkpt>
      <trkpt lat="47.56711" lon="6.80186">
        <ele>430.7</ele>
        <time>2017-10-15T07:46:51.000Z</time>
      </trkpt>
      <trkpt lat="47.56714" lon="6.80189">
        <ele>431.1</ele>
        <time>2017-10-15T07:46:53.000Z</time>
      </trkpt>
      <trkpt lat="47.56716" lon="6.80191">
        <ele>431.3</ele>
        <time>2017-10-15T07:46:54.000Z</time>
      </trkpt>
      <trkpt lat="47.5672" lon="6.80195">
        <ele>431.6</ele>
        <time>2017-10-15T07:46:56.000Z</time>
      </trkpt>
      <trkpt lat="47.56721" lon="6.80196">
        <ele>431.8</ele>
        <time>2017-10-15T07:46:57.000Z</time>
      </trkpt>
      <trkpt lat="47.56724" lon="6.802">
        <ele>432.2</ele>
        <time>2017-10-15T07:46:59.000Z</time>
      </trkpt>
      <trkpt lat="47.56726" lon="6.80202">
        <ele>432.4</ele>
        <time>2017-10-15T07:47:00.000Z</time>
      </trkpt>
      <trkpt lat="47.56729" lon="6.80206">
        <ele>432.8</ele>
        <time>2017-10-15T07:47:02.000Z</time>
      </trkpt>
      <trkpt lat="47.56731" lon="6.80208">
        <ele>433</ele>
        <time>2017-10-15T07:47:03.000Z</time>
      </trkpt>
      <trkpt lat="47.56734" lon="6.80211">
        <ele>433.3</ele>
        <time>2017-10-15T07:47:05.000Z</time>
      </trkpt>
      <trkpt lat="47.56736" lon="6.80214">
        <ele>433.5</ele>
        <time>2017-10-15T07:47:06.000Z</time>
      </trkpt>
      <trkpt lat="47.56738" lon="6.80216">
        <ele>433.6</ele>
        <time>2017-10-15T07:47:07.000Z</time>
      </trkpt>
      <trkpt lat="47.5674" lon="6.80218">
        <ele>433.8</ele>
        <time>2017-10-15T07:47:08.000Z</time>
      </trkpt>
      <trkpt lat="47.56742" lon="6.8022">
        <ele>434</ele>
        <time>2017-10-15T07:47:09.000Z</time>
      </trkpt>
      <trkpt lat="47.56744" lon="6.80222">
        <ele>434.1</ele>
        <time>2017-10-15T07:47:10.000Z</time>
      </trkpt>
      <trkpt lat="47.56746" lon="6.80224">
        <ele>434.3</ele>
        <time>2017-10-15T07:47:11.000Z</time>
      </trkpt>
      <trkpt lat="47.56748" lon="6.80225">
        <ele>434.4</ele>
        <time>2017-10-15T07:47:12.000Z</time>
      </trkpt>
      <trkpt lat="47.56752" lon="6.80228">
        <ele>434.8</ele>
        <time>2017-10-15T07:47:14.000Z</time>
      </trkpt>
      <trkpt lat="47.56754" lon="6.8023">
        <ele>434.9</ele>
        <time>2017-10-15T07:47:15.000Z</time>
      </trkpt>
      <trkpt lat="47.56757" lon="6.80234">
        <ele>435.2</ele>
        <time>2017-10-15T07:47:17.000Z</time>
      </trkpt>
      <trkpt lat="47.56759" lon="6.80237">
        <ele>435.4</ele>
        <time>2017-10-15T07:47:18.000Z</time>
      </trkpt>
      <trkpt lat="47.56763" lon="6.80241">
        <ele>435.6</ele>
        <time>2017-10-15T07:47:20.000Z</time>
      </trkpt>
      <trkpt lat="47.56764" lon="6.80242">
        <ele>435.8</ele>
        <time>2017-10-15T07:47:21.000Z</time>
      </trkpt>
      <trkpt lat="47.56766" lon="6.80244">
        <ele>435.9</ele>
        <time>2017-10-15T07:47:22.000Z</time>
      </trkpt>
      <trkpt lat="47.56768" lon="6.80246">
        <ele>436</ele>
        <time>2017-10-15T07:47:23.000Z</time>
      </trkpt>
      <trkpt lat="47.5677" lon="6.80248">
        <ele>436.1</ele>
        <time>2017-10-15T07:47:24.000Z</time>
      </trkpt>
      <trkpt lat="47.56772" lon="6.8025">
        <ele>436.2</ele>
        <time>2017-10-15T07:47:25.000Z</time>
      </trkpt>
      <trkpt lat="47.56774" lon="6.80252">
        <ele>436.4</ele>
        <time>2017-10-15T07:47:26.000Z</time>
      </trkpt>
      <trkpt lat="47.56776" lon="6.80254">
        <ele>436.6</ele>
        <time>2017-10-15T07:47:27.000Z</time>
      </trkpt>
      <trkpt lat="47.5678" lon="6.80257">
        <ele>436.9</ele>
        <time>2017-10-15T07:47:29.000Z</time>
      </trkpt>
      <trkpt lat="47.56781" lon="6.80259">
        <ele>437.1</ele>
        <time>2017-10-15T07:47:30.000Z</time>
      </trkpt>
      <trkpt lat="47.56783" lon="6.80261">
        <ele>437.2</ele>
        <time>2017-10-15T07:47:31.000Z</time>
      </trkpt>
      <trkpt lat="47.56785" lon="6.80262">
        <ele>437.4</ele>
        <time>2017-10-15T07:47:32.000Z</time>
      </trkpt>
      <trkpt lat="47.56789" lon="6.80263">
        <ele>439.1</ele>
        <time>2017-10-15T07:47:33.000Z</time>
      </trkpt>
      <trkpt lat="47.56791" lon="6.80264">
        <ele>439.2</ele>
        <time>2017-10-15T07:47:34.000Z</time>
      </trkpt>
      <trkpt lat="47.56794" lon="6.80268">
        <ele>439.5</ele>
        <time>2017-10-15T07:47:36.000Z</time>
      </trkpt>
      <trkpt lat="47.56796" lon="6.8027">
        <ele>439.6</ele>
        <time>2017-10-15T07:47:37.000Z</time>
      </trkpt>
      <trkpt lat="47.568" lon="6.80272">
        <ele>439.8</ele>
        <time>2017-10-15T07:47:39.000Z</time>
      </trkpt>
      <trkpt lat="47.56802" lon="6.80273">
        <ele>439.8</ele>
        <time>2017-10-15T07:47:40.000Z</time>
      </trkpt>
      <trkpt lat="47.56804" lon="6.80274">
        <ele>439.9</ele>
        <time>2017-10-15T07:47:41.000Z</time>
      </trkpt>
      <trkpt lat="47.56806" lon="6.80276">
        <ele>440</ele>
        <time>2017-10-15T07:47:42.000Z</time>
      </trkpt>
      <trkpt lat="47.56808" lon="6.80277">
        <ele>440.2</ele>
        <time>2017-10-15T07:47:43.000Z</time>
      </trkpt>
      <trkpt lat="47.56811" lon="6.80279">
        <ele>440.4</ele>
        <time>2017-10-15T07:47:44.000Z</time>
      </trkpt>
      <trkpt lat="47.56813" lon="6.8028">
        <ele>440.5</ele>
        <time>2017-10-15T07:47:45.000Z</time>
      </trkpt>
      <trkpt lat="47.56815" lon="6.80282">
        <ele>440.7</ele>
        <time>2017-10-15T07:47:46.000Z</time>
      </trkpt>
      <trkpt lat="47.56818" lon="6.80285">
        <ele>441.1</ele>
        <time>2017-10-15T07:47:48.000Z</time>
      </trkpt>
      <trkpt lat="47.56819" lon="6.80286">
        <ele>441.3</ele>
        <time>2017-10-15T07:47:49.000Z</time>
      </trkpt>
      <trkpt lat="47.56821" lon="6.80288">
        <ele>441.5</ele>
        <time>2017-10-15T07:47:50.000Z</time>
      </trkpt>
      <trkpt lat="47.56823" lon="6.8029">
        <ele>441.7</ele>
        <time>2017-10-15T07:47:51.000Z</time>
      </trkpt>
      <trkpt lat="47.56826" lon="6.80292">
        <ele>442.2</ele>
        <time>2017-10-15T07:47:53.000Z</time>
      </trkpt>
      <trkpt lat="47.56828" lon="6.80293">
        <ele>442.5</ele>
        <time>2017-10-15T07:47:54.000Z</time>
      </trkpt>
      <trkpt lat="47.56832" lon="6.80295">
        <ele>443</ele>
        <time>2017-10-15T07:47:56.000Z</time>
      </trkpt>
      <trkpt lat="47.56834" lon="6.80295">
        <ele>443.1</ele>
        <time>2017-10-15T07:47:57.000Z</time>
      </trkpt>
      <trkpt lat="47.56838" lon="6.80297">
        <ele>443.5</ele>
        <time>2017-10-15T07:47:59.000Z</time>
      </trkpt>
      <trkpt lat="47.5684" lon="6.80298">
        <ele>443.6</ele>
        <time>2017-10-15T07:48:00.000Z</time>
      </trkpt>
      <trkpt lat="47.56843" lon="6.803">
        <ele>443.9</ele>
        <time>2017-10-15T07:48:02.000Z</time>
      </trkpt>
      <trkpt lat="47.56844" lon="6.80301">
        <ele>444</ele>
        <time>2017-10-15T07:48:03.000Z</time>
      </trkpt>
      <trkpt lat="47.56848" lon="6.80304">
        <ele>444.3</ele>
        <time>2017-10-15T07:48:05.000Z</time>
      </trkpt>
      <trkpt lat="47.5685" lon="6.80305">
        <ele>444.4</ele>
        <time>2017-10-15T07:48:06.000Z</time>
      </trkpt>
      <trkpt lat="47.56852" lon="6.80307">
        <ele>444.6</ele>
        <time>2017-10-15T07:48:07.000Z</time>
      </trkpt>
      <trkpt lat="47.56854" lon="6.80308">
        <ele>444.8</ele>
        <time>2017-10-15T07:48:08.000Z</time>
      </trkpt>
      <trkpt lat="47.56857" lon="6.80311">
        <ele>445.1</ele>
        <time>2017-10-15T07:48:10.000Z</time>
      </trkpt>
      <trkpt lat="47.56859" lon="6.80312">
        <ele>445.3</ele>
        <time>2017-10-15T07:48:11.000Z</time>
      </trkpt>
      <trkpt lat="47.56862" lon="6.80313">
        <ele>445.7</ele>
        <time>2017-10-15T07:48:13.000Z</time>
      </trkpt>
      <trkpt lat="47.56864" lon="6.80314">
        <ele>445.8</ele>
        <time>2017-10-15T07:48:14.000Z</time>
      </trkpt>
      <trkpt lat="47.56868" lon="6.80317">
        <ele>446.2</ele>
        <time>2017-10-15T07:48:16.000Z</time>
      </trkpt>
      <trkpt lat="47.5687" lon="6.80318">
        <ele>446.4</ele>
        <time>2017-10-15T07:48:17.000Z</time>
      </trkpt>
      <trkpt lat="47.56873" lon="6.8032">
        <ele>446.6</ele>
        <time>2017-10-15T07:48:18.000Z</time>
      </trkpt>
      <trkpt lat="47.56875" lon="6.80321">
        <ele>446.8</ele>
        <time>2017-10-15T07:48:19.000Z</time>
      </trkpt>
      <trkpt lat="47.56878" lon="6.80322">
        <ele>447.2</ele>
        <time>2017-10-15T07:48:21.000Z</time>
      </trkpt>
      <trkpt lat="47.5688" lon="6.80323">
        <ele>447.4</ele>
        <time>2017-10-15T07:48:22.000Z</time>
      </trkpt>
      <trkpt lat="47.56884" lon="6.80324">
        <ele>447.8</ele>
        <time>2017-10-15T07:48:24.000Z</time>
      </trkpt>
      <trkpt lat="47.56886" lon="6.80325">
        <ele>448</ele>
        <time>2017-10-15T07:48:25.000Z</time>
      </trkpt>
      <trkpt lat="47.5689" lon="6.80326">
        <ele>448.3</ele>
        <time>2017-10-15T07:48:27.000Z</time>
      </trkpt>
      <trkpt lat="47.56892" lon="6.80326">
        <ele>448.5</ele>
        <time>2017-10-15T07:48:28.000Z</time>
      </trkpt>
      <trkpt lat="47.56895" lon="6.80327">
        <ele>448.8</ele>
        <time>2017-10-15T07:48:30.000Z</time>
      </trkpt>
      <trkpt lat="47.56897" lon="6.80327">
        <ele>448.9</ele>
        <time>2017-10-15T07:48:31.000Z</time>
      </trkpt>
      <trkpt lat="47.56901" lon="6.80327">
        <ele>449.3</ele>
        <time>2017-10-15T07:48:33.000Z</time>
      </trkpt>
      <trkpt lat="47.56904" lon="6.80327">
        <ele>449.5</ele>
        <time>2017-10-15T07:48:34.000Z</time>
      </trkpt>
      <trkpt lat="47.56906" lon="6.80326">
        <ele>449.6</ele>
        <time>2017-10-15T07:48:35.000Z</time>
      </trkpt>
      <trkpt lat="47.56908" lon="6.80325">
        <ele>449.7</ele>
        <time>2017-10-15T07:48:36.000Z</time>
      </trkpt>
      <trkpt lat="47.56912" lon="6.80325">
        <ele>449.9</ele>
        <time>2017-10-15T07:48:38.000Z</time>
      </trkpt>
      <trkpt lat="47.56914" lon="6.80325">
        <ele>450.1</ele>
        <time>2017-10-15T07:48:39.000Z</time>
      </trkpt>
      <trkpt lat="47.56917" lon="6.80325">
        <ele>450.3</ele>
        <time>2017-10-15T07:48:40.000Z</time>
      </trkpt>
      <trkpt lat="47.56919" lon="6.80324">
        <ele>450.5</ele>
        <time>2017-10-15T07:48:41.000Z</time>
      </trkpt>
      <trkpt lat="47.56921" lon="6.80324">
        <ele>450.8</ele>
        <time>2017-10-15T07:48:42.000Z</time>
      </trkpt>
      <trkpt lat="47.56923" lon="6.80324">
        <ele>450.9</ele>
        <time>2017-10-15T07:48:43.000Z</time>
      </trkpt>
      <trkpt lat="47.56927" lon="6.80323">
        <ele>451.3</ele>
        <time>2017-10-15T07:48:45.000Z</time>
      </trkpt>
      <trkpt lat="47.5693" lon="6.80323">
        <ele>451.5</ele>
        <time>2017-10-15T07:48:46.000Z</time>
      </trkpt>
      <trkpt lat="47.56934" lon="6.80323">
        <ele>451.9</ele>
        <time>2017-10-15T07:48:48.000Z</time>
      </trkpt>
      <trkpt lat="47.56936" lon="6.80323">
        <ele>452.1</ele>
        <time>2017-10-15T07:48:49.000Z</time>
      </trkpt>
      <trkpt lat="47.56939" lon="6.80323">
        <ele>452.2</ele>
        <time>2017-10-15T07:48:50.000Z</time>
      </trkpt>
      <trkpt lat="47.56941" lon="6.80323">
        <ele>452.4</ele>
        <time>2017-10-15T07:48:51.000Z</time>
      </trkpt>
      <trkpt lat="47.56944" lon="6.80322">
        <ele>452.5</ele>
        <time>2017-10-15T07:48:52.000Z</time>
      </trkpt>
      <trkpt lat="47.56946" lon="6.80322">
        <ele>452.5</ele>
        <time>2017-10-15T07:48:53.000Z</time>
      </trkpt>
      <trkpt lat="47.56948" lon="6.80322">
        <ele>452.5</ele>
        <time>2017-10-15T07:48:54.000Z</time>
      </trkpt>
      <trkpt lat="47.56951" lon="6.80322">
        <ele>452.5</ele>
        <time>2017-10-15T07:48:55.000Z</time>
      </trkpt>
      <trkpt lat="47.56954" lon="6.80323">
        <ele>452.6</ele>
        <time>2017-10-15T07:48:56.000Z</time>
      </trkpt>
      <trkpt lat="47.56956" lon="6.80323">
        <ele>452.5</ele>
        <time>2017-10-15T07:48:57.000Z</time>
      </trkpt>
      <trkpt lat="47.56959" lon="6.80323">
        <ele>452.5</ele>
        <time>2017-10-15T07:48:58.000Z</time>
      </trkpt>
      <trkpt lat="47.56962" lon="6.80324">
        <ele>452.6</ele>
        <time>2017-10-15T07:48:59.000Z</time>
      </trkpt>
      <trkpt lat="47.56964" lon="6.80324">
        <ele>452.7</ele>
        <time>2017-10-15T07:49:00.000Z</time>
      </trkpt>
      <trkpt lat="47.56968" lon="6.80324">
        <ele>452.8</ele>
        <time>2017-10-15T07:49:01.000Z</time>
      </trkpt>
      <trkpt lat="47.56971" lon="6.80325">
        <ele>452.9</ele>
        <time>2017-10-15T07:49:02.000Z</time>
      </trkpt>
      <trkpt lat="47.56974" lon="6.80325">
        <ele>453</ele>
        <time>2017-10-15T07:49:03.000Z</time>
      </trkpt>
      <trkpt lat="47.56977" lon="6.80325">
        <ele>453.1</ele>
        <time>2017-10-15T07:49:04.000Z</time>
      </trkpt>
      <trkpt lat="47.56981" lon="6.80325">
        <ele>453.2</ele>
        <time>2017-10-15T07:49:05.000Z</time>
      </trkpt>
      <trkpt lat="47.56984" lon="6.80325">
        <ele>453.3</ele>
        <time>2017-10-15T07:49:06.000Z</time>
      </trkpt>
      <trkpt lat="47.56988" lon="6.80325">
        <ele>453.5</ele>
        <time>2017-10-15T07:49:07.000Z</time>
      </trkpt>
      <trkpt lat="47.56992" lon="6.80326">
        <ele>453.6</ele>
        <time>2017-10-15T07:49:08.000Z</time>
      </trkpt>
      <trkpt lat="47.56995" lon="6.80326">
        <ele>453.7</ele>
        <time>2017-10-15T07:49:09.000Z</time>
      </trkpt>
      <trkpt lat="47.56998" lon="6.80325">
        <ele>453.8</ele>
        <time>2017-10-15T07:49:10.000Z</time>
      </trkpt>
      <trkpt lat="47.57002" lon="6.80325">
        <ele>453.9</ele>
        <time>2017-10-15T07:49:11.000Z</time>
      </trkpt>
      <trkpt lat="47.57005" lon="6.80324">
        <ele>454</ele>
        <time>2017-10-15T07:49:12.000Z</time>
      </trkpt>
      <trkpt lat="47.57009" lon="6.80324">
        <ele>454.1</ele>
        <time>2017-10-15T07:49:13.000Z</time>
      </trkpt>
      <trkpt lat="47.57013" lon="6.80324">
        <ele>454.1</ele>
        <time>2017-10-15T07:49:14.000Z</time>
      </trkpt>
      <trkpt lat="47.57017" lon="6.80323">
        <ele>454.2</ele>
        <time>2017-10-15T07:49:15.000Z</time>
      </trkpt>
      <trkpt lat="47.57022" lon="6.80323">
        <ele>453.9</ele>
        <time>2017-10-15T07:49:16.000Z</time>
      </trkpt>
      <trkpt lat="47.57026" lon="6.80322">
        <ele>453.9</ele>
        <time>2017-10-15T07:49:17.000Z</time>
      </trkpt>
      <trkpt lat="47.5703" lon="6.80321">
        <ele>453.9</ele>
        <time>2017-10-15T07:49:18.000Z</time>
      </trkpt>
      <trkpt lat="47.57033" lon="6.8032">
        <ele>453.9</ele>
        <time>2017-10-15T07:49:19.000Z</time>
      </trkpt>
      <trkpt lat="47.57035" lon="6.80319">
        <ele>454</ele>
        <time>2017-10-15T07:49:20.000Z</time>
      </trkpt>
      <trkpt lat="47.57037" lon="6.8032">
        <ele>454</ele>
        <time>2017-10-15T07:49:21.000Z</time>
      </trkpt>
      <trkpt lat="47.57039" lon="6.80322">
        <ele>454</ele>
        <time>2017-10-15T07:49:22.000Z</time>
      </trkpt>
      <trkpt lat="47.57039" lon="6.80327">
        <ele>454.1</ele>
        <time>2017-10-15T07:49:24.000Z</time>
      </trkpt>
      <trkpt lat="47.57038" lon="6.80329">
        <ele>454.1</ele>
        <time>2017-10-15T07:49:25.000Z</time>
      </trkpt>
      <trkpt lat="47.57037" lon="6.80332">
        <ele>454.2</ele>
        <time>2017-10-15T07:49:26.000Z</time>
      </trkpt>
      <trkpt lat="47.57036" lon="6.80335">
        <ele>454.1</ele>
        <time>2017-10-15T07:49:27.000Z</time>
      </trkpt>
      <trkpt lat="47.57036" lon="6.80339">
        <ele>454.1</ele>
        <time>2017-10-15T07:49:28.000Z</time>
      </trkpt>
      <trkpt lat="47.57035" lon="6.80343">
        <ele>454.1</ele>
        <time>2017-10-15T07:49:29.000Z</time>
      </trkpt>
      <trkpt lat="47.57036" lon="6.80346">
        <ele>454</ele>
        <time>2017-10-15T07:49:30.000Z</time>
      </trkpt>
      <trkpt lat="47.57036" lon="6.80349">
        <ele>454</ele>
        <time>2017-10-15T07:49:31.000Z</time>
      </trkpt>
      <trkpt lat="47.57037" lon="6.80353">
        <ele>454</ele>
        <time>2017-10-15T07:49:32.000Z</time>
      </trkpt>
      <trkpt lat="47.57037" lon="6.80357">
        <ele>454</ele>
        <time>2017-10-15T07:49:33.000Z</time>
      </trkpt>
      <trkpt lat="47.57038" lon="6.80362">
        <ele>454</ele>
        <time>2017-10-15T07:49:34.000Z</time>
      </trkpt>
      <trkpt lat="47.57039" lon="6.80367">
        <ele>454.1</ele>
        <time>2017-10-15T07:49:35.000Z</time>
      </trkpt>
      <trkpt lat="47.5704" lon="6.80373">
        <ele>454.2</ele>
        <time>2017-10-15T07:49:36.000Z</time>
      </trkpt>
      <trkpt lat="47.57042" lon="6.80376">
        <ele>454.3</ele>
        <time>2017-10-15T07:49:37.000Z</time>
      </trkpt>
      <trkpt lat="47.57044" lon="6.8038">
        <ele>454.4</ele>
        <time>2017-10-15T07:49:38.000Z</time>
      </trkpt>
      <trkpt lat="47.57047" lon="6.80385">
        <ele>454.5</ele>
        <time>2017-10-15T07:49:39.000Z</time>
      </trkpt>
      <trkpt lat="47.5705" lon="6.80389">
        <ele>455.8</ele>
        <time>2017-10-15T07:49:40.000Z</time>
      </trkpt>
      <trkpt lat="47.57052" lon="6.80394">
        <ele>455.9</ele>
        <time>2017-10-15T07:49:41.000Z</time>
      </trkpt>
      <trkpt lat="47.57055" lon="6.80398">
        <ele>455.9</ele>
        <time>2017-10-15T07:49:42.000Z</time>
      </trkpt>
      <trkpt lat="47.57058" lon="6.80401">
        <ele>455.9</ele>
        <time>2017-10-15T07:49:43.000Z</time>
      </trkpt>
      <trkpt lat="47.57061" lon="6.80405">
        <ele>455.9</ele>
        <time>2017-10-15T07:49:44.000Z</time>
      </trkpt>
      <trkpt lat="47.57064" lon="6.80408">
        <ele>455.9</ele>
        <time>2017-10-15T07:49:45.000Z</time>
      </trkpt>
      <trkpt lat="47.57066" lon="6.8041">
        <ele>455.9</ele>
        <time>2017-10-15T07:49:46.000Z</time>
      </trkpt>
      <trkpt lat="47.57068" lon="6.80414">
        <ele>455.9</ele>
        <time>2017-10-15T07:49:47.000Z</time>
      </trkpt>
      <trkpt lat="47.57071" lon="6.80418">
        <ele>456</ele>
        <time>2017-10-15T07:49:48.000Z</time>
      </trkpt>
      <trkpt lat="47.57073" lon="6.80421">
        <ele>456</ele>
        <time>2017-10-15T07:49:49.000Z</time>
      </trkpt>
      <trkpt lat="47.57075" lon="6.80425">
        <ele>456.1</ele>
        <time>2017-10-15T07:49:50.000Z</time>
      </trkpt>
      <trkpt lat="47.57079" lon="6.80429">
        <ele>456.2</ele>
        <time>2017-10-15T07:49:51.000Z</time>
      </trkpt>
      <trkpt lat="47.57083" lon="6.80433">
        <ele>456.3</ele>
        <time>2017-10-15T07:49:52.000Z</time>
      </trkpt>
      <trkpt lat="47.57086" lon="6.80438">
        <ele>456.3</ele>
        <time>2017-10-15T07:49:53.000Z</time>
      </trkpt>
      <trkpt lat="47.57089" lon="6.80445">
        <ele>456.3</ele>
        <time>2017-10-15T07:49:54.000Z</time>
      </trkpt>
      <trkpt lat="47.57091" lon="6.80451">
        <ele>456.4</ele>
        <time>2017-10-15T07:49:55.000Z</time>
      </trkpt>
      <trkpt lat="47.57094" lon="6.80456">
        <ele>456.5</ele>
        <time>2017-10-15T07:49:56.000Z</time>
      </trkpt>
      <trkpt lat="47.57096" lon="6.8046">
        <ele>456.5</ele>
        <time>2017-10-15T07:49:57.000Z</time>
      </trkpt>
      <trkpt lat="47.571" lon="6.80463">
        <ele>456.5</ele>
        <time>2017-10-15T07:49:58.000Z</time>
      </trkpt>
      <trkpt lat="47.57103" lon="6.80469">
        <ele>456.6</ele>
        <time>2017-10-15T07:49:59.000Z</time>
      </trkpt>
      <trkpt lat="47.57106" lon="6.80474">
        <ele>456.6</ele>
        <time>2017-10-15T07:50:00.000Z</time>
      </trkpt>
      <trkpt lat="47.57109" lon="6.80476">
        <ele>456.6</ele>
        <time>2017-10-15T07:50:01.000Z</time>
      </trkpt>
      <trkpt lat="47.57111" lon="6.80477">
        <ele>456.6</ele>
        <time>2017-10-15T07:50:02.000Z</time>
      </trkpt>
      <trkpt lat="47.57115" lon="6.80479">
        <ele>456.6</ele>
        <time>2017-10-15T07:50:03.000Z</time>
      </trkpt>
      <trkpt lat="47.57119" lon="6.8048">
        <ele>456.7</ele>
        <time>2017-10-15T07:50:04.000Z</time>
      </trkpt>
      <trkpt lat="47.57123" lon="6.80483">
        <ele>456.7</ele>
        <time>2017-10-15T07:50:05.000Z</time>
      </trkpt>
      <trkpt lat="47.57126" lon="6.80488">
        <ele>456.5</ele>
        <time>2017-10-15T07:50:06.000Z</time>
      </trkpt>
      <trkpt lat="47.57129" lon="6.80493">
        <ele>456.5</ele>
        <time>2017-10-15T07:50:07.000Z</time>
      </trkpt>
      <trkpt lat="47.57133" lon="6.80499">
        <ele>456.4</ele>
        <time>2017-10-15T07:50:08.000Z</time>
      </trkpt>
      <trkpt lat="47.57137" lon="6.80507">
        <ele>456.4</ele>
        <time>2017-10-15T07:50:09.000Z</time>
      </trkpt>
      <trkpt lat="47.57139" lon="6.80515">
        <ele>456.3</ele>
        <time>2017-10-15T07:50:10.000Z</time>
      </trkpt>
      <trkpt lat="47.57141" lon="6.80523">
        <ele>456.3</ele>
        <time>2017-10-15T07:50:11.000Z</time>
      </trkpt>
      <trkpt lat="47.57142" lon="6.80531">
        <ele>456</ele>
        <time>2017-10-15T07:50:12.000Z</time>
      </trkpt>
      <trkpt lat="47.57144" lon="6.80536">
        <ele>456</ele>
        <time>2017-10-15T07:50:13.000Z</time>
      </trkpt>
      <trkpt lat="47.57145" lon="6.8054">
        <ele>456</ele>
        <time>2017-10-15T07:50:14.000Z</time>
      </trkpt>
      <trkpt lat="47.57149" lon="6.80541">
        <ele>456</ele>
        <time>2017-10-15T07:50:15.000Z</time>
      </trkpt>
      <trkpt lat="47.57153" lon="6.80544">
        <ele>456.1</ele>
        <time>2017-10-15T07:50:16.000Z</time>
      </trkpt>
      <trkpt lat="47.57156" lon="6.80546">
        <ele>456.1</ele>
        <time>2017-10-15T07:50:17.000Z</time>
      </trkpt>
      <trkpt lat="47.57158" lon="6.8055">
        <ele>456.2</ele>
        <time>2017-10-15T07:50:18.000Z</time>
      </trkpt>
      <trkpt lat="47.5716" lon="6.80553">
        <ele>456.2</ele>
        <time>2017-10-15T07:50:19.000Z</time>
      </trkpt>
      <trkpt lat="47.57162" lon="6.80557">
        <ele>456.2</ele>
        <time>2017-10-15T07:50:20.000Z</time>
      </trkpt>
      <trkpt lat="47.57165" lon="6.8056">
        <ele>456.2</ele>
        <time>2017-10-15T07:50:21.000Z</time>
      </trkpt>
      <trkpt lat="47.57169" lon="6.80564">
        <ele>455.5</ele>
        <time>2017-10-15T07:50:22.000Z</time>
      </trkpt>
      <trkpt lat="47.57173" lon="6.80573">
        <ele>455.3</ele>
        <time>2017-10-15T07:50:23.000Z</time>
      </trkpt>
      <trkpt lat="47.57177" lon="6.80583">
        <ele>455</ele>
        <time>2017-10-15T07:50:24.000Z</time>
      </trkpt>
      <trkpt lat="47.57181" lon="6.80591">
        <ele>455</ele>
        <time>2017-10-15T07:50:25.000Z</time>
      </trkpt>
      <trkpt lat="47.57184" lon="6.80595">
        <ele>454.8</ele>
        <time>2017-10-15T07:50:26.000Z</time>
      </trkpt>
      <trkpt lat="47.57187" lon="6.80598">
        <ele>454.8</ele>
        <time>2017-10-15T07:50:27.000Z</time>
      </trkpt>
      <trkpt lat="47.5719" lon="6.80602">
        <ele>454.8</ele>
        <time>2017-10-15T07:50:28.000Z</time>
      </trkpt>
      <trkpt lat="47.57192" lon="6.80606">
        <ele>455</ele>
        <time>2017-10-15T07:50:29.000Z</time>
      </trkpt>
      <trkpt lat="47.57197" lon="6.80614">
        <ele>454.8</ele>
        <time>2017-10-15T07:50:30.000Z</time>
      </trkpt>
      <trkpt lat="47.572" lon="6.80619">
        <ele>454.4</ele>
        <time>2017-10-15T07:50:31.000Z</time>
      </trkpt>
      <trkpt lat="47.57203" lon="6.80624">
        <ele>453.8</ele>
        <time>2017-10-15T07:50:32.000Z</time>
      </trkpt>
      <trkpt lat="47.57205" lon="6.80629">
        <ele>453.4</ele>
        <time>2017-10-15T07:50:33.000Z</time>
      </trkpt>
      <trkpt lat="47.57209" lon="6.80634">
        <ele>453.1</ele>
        <time>2017-10-15T07:50:34.000Z</time>
      </trkpt>
      <trkpt lat="47.57212" lon="6.80639">
        <ele>452</ele>
        <time>2017-10-15T07:50:35.000Z</time>
      </trkpt>
      <trkpt lat="47.57216" lon="6.80646">
        <ele>451.2</ele>
        <time>2017-10-15T07:50:36.000Z</time>
      </trkpt>
      <trkpt lat="47.57222" lon="6.80656">
        <ele>450.7</ele>
        <time>2017-10-15T07:50:37.000Z</time>
      </trkpt>
      <trkpt lat="47.57226" lon="6.80664">
        <ele>450.4</ele>
        <time>2017-10-15T07:50:38.000Z</time>
      </trkpt>
      <trkpt lat="47.5723" lon="6.80671">
        <ele>449.7</ele>
        <time>2017-10-15T07:50:39.000Z</time>
      </trkpt>
      <trkpt lat="47.57235" lon="6.80683">
        <ele>449.3</ele>
        <time>2017-10-15T07:50:40.000Z</time>
      </trkpt>
      <trkpt lat="47.57241" lon="6.80696">
        <ele>447.8</ele>
        <time>2017-10-15T07:50:41.000Z</time>
      </trkpt>
      <trkpt lat="47.57247" lon="6.80707">
        <ele>446.7</ele>
        <time>2017-10-15T07:50:42.000Z</time>
      </trkpt>
      <trkpt lat="47.57251" lon="6.80719">
        <ele>446</ele>
        <time>2017-10-15T07:50:43.000Z</time>
      </trkpt>
      <trkpt lat="47.57254" lon="6.80731">
        <ele>445</ele>
        <time>2017-10-15T07:50:44.000Z</time>
      </trkpt>
      <trkpt lat="47.57258" lon="6.80743">
        <ele>442.5</ele>
        <time>2017-10-15T07:50:45.000Z</time>
      </trkpt>
      <trkpt lat="47.5726" lon="6.80759">
        <ele>440.4</ele>
        <time>2017-10-15T07:50:46.000Z</time>
      </trkpt>
      <trkpt lat="47.57261" lon="6.80775">
        <ele>438.4</ele>
        <time>2017-10-15T07:50:47.000Z</time>
      </trkpt>
      <trkpt lat="47.57263" lon="6.80789">
        <ele>437.3</ele>
        <time>2017-10-15T07:50:48.000Z</time>
      </trkpt>
      <trkpt lat="47.57265" lon="6.80806">
        <ele>436.6</ele>
        <time>2017-10-15T07:50:49.000Z</time>
      </trkpt>
      <trkpt lat="47.5727" lon="6.80821">
        <ele>435.9</ele>
        <time>2017-10-15T07:50:50.000Z</time>
      </trkpt>
      <trkpt lat="47.57276" lon="6.80833">
        <ele>434.7</ele>
        <time>2017-10-15T07:50:51.000Z</time>
      </trkpt>
      <trkpt lat="47.57282" lon="6.80844">
        <ele>433.5</ele>
        <time>2017-10-15T07:50:52.000Z</time>
      </trkpt>
      <trkpt lat="47.57287" lon="6.80854">
        <ele>433.1</ele>
        <time>2017-10-15T07:50:53.000Z</time>
      </trkpt>
      <trkpt lat="47.57288" lon="6.80864">
        <ele>432.3</ele>
        <time>2017-10-15T07:50:54.000Z</time>
      </trkpt>
      <trkpt lat="47.5729" lon="6.80874">
        <ele>432.2</ele>
        <time>2017-10-15T07:50:55.000Z</time>
      </trkpt>
      <trkpt lat="47.57292" lon="6.80891">
        <ele>432.1</ele>
        <time>2017-10-15T07:50:56.000Z</time>
      </trkpt>
      <trkpt lat="47.57298" lon="6.80904">
        <ele>430.3</ele>
        <time>2017-10-15T07:50:57.000Z</time>
      </trkpt>
      <trkpt lat="47.57302" lon="6.80914">
        <ele>429.2</ele>
        <time>2017-10-15T07:50:58.000Z</time>
      </trkpt>
      <trkpt lat="47.57307" lon="6.80924">
        <ele>428.3</ele>
        <time>2017-10-15T07:50:59.000Z</time>
      </trkpt>
      <trkpt lat="47.57311" lon="6.80931">
        <ele>427.7</ele>
        <time>2017-10-15T07:51:00.000Z</time>
      </trkpt>
      <trkpt lat="47.57314" lon="6.80938">
        <ele>428.2</ele>
        <time>2017-10-15T07:51:01.000Z</time>
      </trkpt>
      <trkpt lat="47.57317" lon="6.80946">
        <ele>427.9</ele>
        <time>2017-10-15T07:51:02.000Z</time>
      </trkpt>
      <trkpt lat="47.5732" lon="6.80952">
        <ele>427.9</ele>
        <time>2017-10-15T07:51:03.000Z</time>
      </trkpt>
      <trkpt lat="47.57322" lon="6.80956">
        <ele>427.9</ele>
        <time>2017-10-15T07:51:04.000Z</time>
      </trkpt>
      <trkpt lat="47.57325" lon="6.80958">
        <ele>427.8</ele>
        <time>2017-10-15T07:51:05.000Z</time>
      </trkpt>
      <trkpt lat="47.57328" lon="6.80959">
        <ele>427.8</ele>
        <time>2017-10-15T07:51:06.000Z</time>
      </trkpt>
      <trkpt lat="47.57331" lon="6.8096">
        <ele>427.8</ele>
        <time>2017-10-15T07:51:07.000Z</time>
      </trkpt>
      <trkpt lat="47.57333" lon="6.80962">
        <ele>427.7</ele>
        <time>2017-10-15T07:51:08.000Z</time>
      </trkpt>
      <trkpt lat="47.57335" lon="6.80965">
        <ele>427.6</ele>
        <time>2017-10-15T07:51:09.000Z</time>
      </trkpt>
      <trkpt lat="47.57337" lon="6.80967">
        <ele>427.5</ele>
        <time>2017-10-15T07:51:10.000Z</time>
      </trkpt>
      <trkpt lat="47.5734" lon="6.80968">
        <ele>427.3</ele>
        <time>2017-10-15T07:51:11.000Z</time>
      </trkpt>
      <trkpt lat="47.57343" lon="6.80968">
        <ele>427.3</ele>
        <time>2017-10-15T07:51:12.000Z</time>
      </trkpt>
      <trkpt lat="47.57345" lon="6.80966">
        <ele>427.3</ele>
        <time>2017-10-15T07:51:13.000Z</time>
      </trkpt>
      <trkpt lat="47.57348" lon="6.80963">
        <ele>427.3</ele>
        <time>2017-10-15T07:51:14.000Z</time>
      </trkpt>
      <trkpt lat="47.57351" lon="6.80959">
        <ele>427.3</ele>
        <time>2017-10-15T07:51:15.000Z</time>
      </trkpt>
      <trkpt lat="47.57353" lon="6.80955">
        <ele>427.4</ele>
        <time>2017-10-15T07:51:16.000Z</time>
      </trkpt>
      <trkpt lat="47.57355" lon="6.80951">
        <ele>427.5</ele>
        <time>2017-10-15T07:51:17.000Z</time>
      </trkpt>
      <trkpt lat="47.5736" lon="6.80945">
        <ele>427.6</ele>
        <time>2017-10-15T07:51:18.000Z</time>
      </trkpt>
      <trkpt lat="47.57363" lon="6.80942">
        <ele>427.7</ele>
        <time>2017-10-15T07:51:19.000Z</time>
      </trkpt>
      <trkpt lat="47.57365" lon="6.80939">
        <ele>427.9</ele>
        <time>2017-10-15T07:51:20.000Z</time>
      </trkpt>
      <trkpt lat="47.57368" lon="6.80935">
        <ele>428</ele>
        <time>2017-10-15T07:51:21.000Z</time>
      </trkpt>
      <trkpt lat="47.5737" lon="6.80933">
        <ele>428.1</ele>
        <time>2017-10-15T07:51:22.000Z</time>
      </trkpt>
      <trkpt lat="47.57372" lon="6.80929">
        <ele>428.2</ele>
        <time>2017-10-15T07:51:23.000Z</time>
      </trkpt>
      <trkpt lat="47.57374" lon="6.80926">
        <ele>428.3</ele>
        <time>2017-10-15T07:51:24.000Z</time>
      </trkpt>
      <trkpt lat="47.57376" lon="6.80923">
        <ele>428.4</ele>
        <time>2017-10-15T07:51:25.000Z</time>
      </trkpt>
      <trkpt lat="47.57378" lon="6.8092">
        <ele>428.5</ele>
        <time>2017-10-15T07:51:26.000Z</time>
      </trkpt>
      <trkpt lat="47.5738" lon="6.80917">
        <ele>428.5</ele>
        <time>2017-10-15T07:51:27.000Z</time>
      </trkpt>
      <trkpt lat="47.57382" lon="6.80914">
        <ele>428.7</ele>
        <time>2017-10-15T07:51:28.000Z</time>
      </trkpt>
      <trkpt lat="47.57384" lon="6.80912">
        <ele>428.8</ele>
        <time>2017-10-15T07:51:29.000Z</time>
      </trkpt>
      <trkpt lat="47.57386" lon="6.80909">
        <ele>428.9</ele>
        <time>2017-10-15T07:51:30.000Z</time>
      </trkpt>
      <trkpt lat="47.57388" lon="6.80907">
        <ele>429</ele>
        <time>2017-10-15T07:51:31.000Z</time>
      </trkpt>
      <trkpt lat="47.57389" lon="6.80903">
        <ele>429.2</ele>
        <time>2017-10-15T07:51:32.000Z</time>
      </trkpt>
      <trkpt lat="47.57391" lon="6.80899">
        <ele>429.3</ele>
        <time>2017-10-15T07:51:33.000Z</time>
      </trkpt>
      <trkpt lat="47.57393" lon="6.80896">
        <ele>429.4</ele>
        <time>2017-10-15T07:51:34.000Z</time>
      </trkpt>
      <trkpt lat="47.57394" lon="6.80894">
        <ele>429.5</ele>
        <time>2017-10-15T07:51:35.000Z</time>
      </trkpt>
      <trkpt lat="47.57397" lon="6.8089">
        <ele>429.5</ele>
        <time>2017-10-15T07:51:36.000Z</time>
      </trkpt>
      <trkpt lat="47.574" lon="6.80887">
        <ele>429.5</ele>
        <time>2017-10-15T07:51:37.000Z</time>
      </trkpt>
      <trkpt lat="47.57402" lon="6.80885">
        <ele>429.5</ele>
        <time>2017-10-15T07:51:38.000Z</time>
      </trkpt>
      <trkpt lat="47.57404" lon="6.80882">
        <ele>429.5</ele>
        <time>2017-10-15T07:51:39.000Z</time>
      </trkpt>
      <trkpt lat="47.57405" lon="6.80878">
        <ele>429.6</ele>
        <time>2017-10-15T07:51:40.000Z</time>
      </trkpt>
      <trkpt lat="47.57408" lon="6.80875">
        <ele>429.6</ele>
        <time>2017-10-15T07:51:41.000Z</time>
      </trkpt>
      <trkpt lat="47.57409" lon="6.80873">
        <ele>429.6</ele>
        <time>2017-10-15T07:51:42.000Z</time>
      </trkpt>
      <trkpt lat="47.57412" lon="6.8087">
        <ele>429.5</ele>
        <time>2017-10-15T07:51:44.000Z</time>
      </trkpt>
      <trkpt lat="47.57413" lon="6.80867">
        <ele>429.5</ele>
        <time>2017-10-15T07:51:45.000Z</time>
      </trkpt>
      <trkpt lat="47.57416" lon="6.80864">
        <ele>429.5</ele>
        <time>2017-10-15T07:51:46.000Z</time>
      </trkpt>
      <trkpt lat="47.57418" lon="6.80863">
        <ele>429.6</ele>
        <time>2017-10-15T07:51:47.000Z</time>
      </trkpt>
      <trkpt lat="47.5742" lon="6.8086">
        <ele>429.7</ele>
        <time>2017-10-15T07:51:48.000Z</time>
      </trkpt>
      <trkpt lat="47.57422" lon="6.80858">
        <ele>429.7</ele>
        <time>2017-10-15T07:51:49.000Z</time>
      </trkpt>
      <trkpt lat="47.57425" lon="6.80857">
        <ele>429.7</ele>
        <time>2017-10-15T07:51:50.000Z</time>
      </trkpt>
      <trkpt lat="47.57427" lon="6.80856">
        <ele>429.8</ele>
        <time>2017-10-15T07:51:51.000Z</time>
      </trkpt>
      <trkpt lat="47.57429" lon="6.80851">
        <ele>429.9</ele>
        <time>2017-10-15T07:51:53.000Z</time>
      </trkpt>
      <trkpt lat="47.57431" lon="6.8085">
        <ele>430</ele>
        <time>2017-10-15T07:51:54.000Z</time>
      </trkpt>
      <trkpt lat="47.57433" lon="6.80845">
        <ele>430.1</ele>
        <time>2017-10-15T07:51:56.000Z</time>
      </trkpt>
      <trkpt lat="47.57434" lon="6.80843">
        <ele>430.2</ele>
        <time>2017-10-15T07:51:57.000Z</time>
      </trkpt>
      <trkpt lat="47.57436" lon="6.80839">
        <ele>430.3</ele>
        <time>2017-10-15T07:51:59.000Z</time>
      </trkpt>
      <trkpt lat="47.57437" lon="6.80837">
        <ele>430.3</ele>
        <time>2017-10-15T07:52:00.000Z</time>
      </trkpt>
      <trkpt lat="47.57439" lon="6.80831">
        <ele>430.5</ele>
        <time>2017-10-15T07:52:02.000Z</time>
      </trkpt>
      <trkpt lat="47.5744" lon="6.80828">
        <ele>430.5</ele>
        <time>2017-10-15T07:52:03.000Z</time>
      </trkpt>
      <trkpt lat="47.57442" lon="6.80822">
        <ele>430.5</ele>
        <time>2017-10-15T07:52:05.000Z</time>
      </trkpt>
      <trkpt lat="47.57442" lon="6.80819">
        <ele>430.4</ele>
        <time>2017-10-15T07:52:06.000Z</time>
      </trkpt>
      <trkpt lat="47.57442" lon="6.80814">
        <ele>430.4</ele>
        <time>2017-10-15T07:52:07.000Z</time>
      </trkpt>
      <trkpt lat="47.57442" lon="6.80809">
        <ele>430.5</ele>
        <time>2017-10-15T07:52:08.000Z</time>
      </trkpt>
      <trkpt lat="47.57442" lon="6.80805">
        <ele>430.6</ele>
        <time>2017-10-15T07:52:09.000Z</time>
      </trkpt>
      <trkpt lat="47.57441" lon="6.80799">
        <ele>430.7</ele>
        <time>2017-10-15T07:52:10.000Z</time>
      </trkpt>
      <trkpt lat="47.5744" lon="6.80794">
        <ele>430.9</ele>
        <time>2017-10-15T07:52:11.000Z</time>
      </trkpt>
      <trkpt lat="47.57439" lon="6.8079">
        <ele>431.2</ele>
        <time>2017-10-15T07:52:12.000Z</time>
      </trkpt>
      <trkpt lat="47.57438" lon="6.80785">
        <ele>431.4</ele>
        <time>2017-10-15T07:52:13.000Z</time>
      </trkpt>
      <trkpt lat="47.57437" lon="6.8078">
        <ele>431.7</ele>
        <time>2017-10-15T07:52:14.000Z</time>
      </trkpt>
      <trkpt lat="47.57436" lon="6.80776">
        <ele>432</ele>
        <time>2017-10-15T07:52:15.000Z</time>
      </trkpt>
      <trkpt lat="47.57436" lon="6.80771">
        <ele>432.3</ele>
        <time>2017-10-15T07:52:16.000Z</time>
      </trkpt>
      <trkpt lat="47.57435" lon="6.80766">
        <ele>432.7</ele>
        <time>2017-10-15T07:52:17.000Z</time>
      </trkpt>
      <trkpt lat="47.57435" lon="6.80762">
        <ele>433</ele>
        <time>2017-10-15T07:52:18.000Z</time>
      </trkpt>
      <trkpt lat="47.57434" lon="6.80758">
        <ele>433.3</ele>
        <time>2017-10-15T07:52:19.000Z</time>
      </trkpt>
      <trkpt lat="47.57434" lon="6.80755">
        <ele>433.6</ele>
        <time>2017-10-15T07:52:20.000Z</time>
      </trkpt>
      <trkpt lat="47.57434" lon="6.80751">
        <ele>433.9</ele>
        <time>2017-10-15T07:52:21.000Z</time>
      </trkpt>
      <trkpt lat="47.57433" lon="6.80746">
        <ele>434.2</ele>
        <time>2017-10-15T07:52:22.000Z</time>
      </trkpt>
      <trkpt lat="47.57433" lon="6.80741">
        <ele>434.5</ele>
        <time>2017-10-15T07:52:23.000Z</time>
      </trkpt>
      <trkpt lat="47.57433" lon="6.80736">
        <ele>434.8</ele>
        <time>2017-10-15T07:52:24.000Z</time>
      </trkpt>
      <trkpt lat="47.57433" lon="6.80731">
        <ele>435</ele>
        <time>2017-10-15T07:52:25.000Z</time>
      </trkpt>
      <trkpt lat="47.57433" lon="6.80726">
        <ele>435.2</ele>
        <time>2017-10-15T07:52:26.000Z</time>
      </trkpt>
      <trkpt lat="47.57432" lon="6.80722">
        <ele>435.4</ele>
        <time>2017-10-15T07:52:27.000Z</time>
      </trkpt>
      <trkpt lat="47.57432" lon="6.80717">
        <ele>435.6</ele>
        <time>2017-10-15T07:52:28.000Z</time>
      </trkpt>
      <trkpt lat="47.57432" lon="6.80712">
        <ele>435.8</ele>
        <time>2017-10-15T07:52:29.000Z</time>
      </trkpt>
      <trkpt lat="47.57432" lon="6.80707">
        <ele>436</ele>
        <time>2017-10-15T07:52:30.000Z</time>
      </trkpt>
      <trkpt lat="47.57432" lon="6.80702">
        <ele>436.1</ele>
        <time>2017-10-15T07:52:31.000Z</time>
      </trkpt>
      <trkpt lat="47.57432" lon="6.80698">
        <ele>436.1</ele>
        <time>2017-10-15T07:52:32.000Z</time>
      </trkpt>
      <trkpt lat="47.57432" lon="6.80692">
        <ele>436.2</ele>
        <time>2017-10-15T07:52:33.000Z</time>
      </trkpt>
      <trkpt lat="47.57432" lon="6.80687">
        <ele>436.2</ele>
        <time>2017-10-15T07:52:34.000Z</time>
      </trkpt>
      <trkpt lat="47.57432" lon="6.80682">
        <ele>436.3</ele>
        <time>2017-10-15T07:52:35.000Z</time>
      </trkpt>
      <trkpt lat="47.57432" lon="6.80676">
        <ele>436.3</ele>
        <time>2017-10-15T07:52:36.000Z</time>
      </trkpt>
      <trkpt lat="47.57432" lon="6.80671">
        <ele>436.4</ele>
        <time>2017-10-15T07:52:37.000Z</time>
      </trkpt>
      <trkpt lat="47.57433" lon="6.80666">
        <ele>436.4</ele>
        <time>2017-10-15T07:52:38.000Z</time>
      </trkpt>
      <trkpt lat="47.57433" lon="6.80661">
        <ele>436.4</ele>
        <time>2017-10-15T07:52:39.000Z</time>
      </trkpt>
      <trkpt lat="47.57433" lon="6.80657">
        <ele>436.5</ele>
        <time>2017-10-15T07:52:40.000Z</time>
      </trkpt>
      <trkpt lat="47.57434" lon="6.80651">
        <ele>436.6</ele>
        <time>2017-10-15T07:52:41.000Z</time>
      </trkpt>
      <trkpt lat="47.57435" lon="6.80645">
        <ele>437.9</ele>
        <time>2017-10-15T07:52:42.000Z</time>
      </trkpt>
      <trkpt lat="47.57437" lon="6.8064">
        <ele>438</ele>
        <time>2017-10-15T07:52:43.000Z</time>
      </trkpt>
      <trkpt lat="47.57439" lon="6.80636">
        <ele>438.2</ele>
        <time>2017-10-15T07:52:44.000Z</time>
      </trkpt>
      <trkpt lat="47.57441" lon="6.8063">
        <ele>440.1</ele>
        <time>2017-10-15T07:52:45.000Z</time>
      </trkpt>
      <trkpt lat="47.57443" lon="6.80625">
        <ele>440.2</ele>
        <time>2017-10-15T07:52:46.000Z</time>
      </trkpt>
      <trkpt lat="47.57445" lon="6.80619">
        <ele>442.1</ele>
        <time>2017-10-15T07:52:47.000Z</time>
      </trkpt>
      <trkpt lat="47.57447" lon="6.80614">
        <ele>442.2</ele>
        <time>2017-10-15T07:52:48.000Z</time>
      </trkpt>
      <trkpt lat="47.57449" lon="6.80609">
        <ele>442.3</ele>
        <time>2017-10-15T07:52:49.000Z</time>
      </trkpt>
      <trkpt lat="47.57451" lon="6.80605">
        <ele>442.5</ele>
        <time>2017-10-15T07:52:50.000Z</time>
      </trkpt>
      <trkpt lat="47.57453" lon="6.806">
        <ele>442.6</ele>
        <time>2017-10-15T07:52:51.000Z</time>
      </trkpt>
      <trkpt lat="47.57455" lon="6.80595">
        <ele>442.7</ele>
        <time>2017-10-15T07:52:52.000Z</time>
      </trkpt>
      <trkpt lat="47.57457" lon="6.8059">
        <ele>442.8</ele>
        <time>2017-10-15T07:52:53.000Z</time>
      </trkpt>
      <trkpt lat="47.57459" lon="6.80586">
        <ele>442.9</ele>
        <time>2017-10-15T07:52:54.000Z</time>
      </trkpt>
      <trkpt lat="47.57461" lon="6.80581">
        <ele>443</ele>
        <time>2017-10-15T07:52:55.000Z</time>
      </trkpt>
      <trkpt lat="47.57463" lon="6.80575">
        <ele>443.1</ele>
        <time>2017-10-15T07:52:56.000Z</time>
      </trkpt>
      <trkpt lat="47.57465" lon="6.80571">
        <ele>443.1</ele>
        <time>2017-10-15T07:52:57.000Z</time>
      </trkpt>
      <trkpt lat="47.57467" lon="6.80567">
        <ele>443.2</ele>
        <time>2017-10-15T07:52:58.000Z</time>
      </trkpt>
      <trkpt lat="47.57468" lon="6.80563">
        <ele>443.3</ele>
        <time>2017-10-15T07:52:59.000Z</time>
      </trkpt>
      <trkpt lat="47.5747" lon="6.80559">
        <ele>443.4</ele>
        <time>2017-10-15T07:53:00.000Z</time>
      </trkpt>
      <trkpt lat="47.57472" lon="6.80554">
        <ele>443.5</ele>
        <time>2017-10-15T07:53:01.000Z</time>
      </trkpt>
      <trkpt lat="47.57474" lon="6.80549">
        <ele>443.6</ele>
        <time>2017-10-15T07:53:02.000Z</time>
      </trkpt>
      <trkpt lat="47.57476" lon="6.80545">
        <ele>443.7</ele>
        <time>2017-10-15T07:53:03.000Z</time>
      </trkpt>
      <trkpt lat="47.57477" lon="6.80541">
        <ele>443.8</ele>
        <time>2017-10-15T07:53:04.000Z</time>
      </trkpt>
      <trkpt lat="47.57478" lon="6.80537">
        <ele>443.9</ele>
        <time>2017-10-15T07:53:05.000Z</time>
      </trkpt>
      <trkpt lat="47.5748" lon="6.80533">
        <ele>444</ele>
        <time>2017-10-15T07:53:06.000Z</time>
      </trkpt>
      <trkpt lat="47.57482" lon="6.80528">
        <ele>444.1</ele>
        <time>2017-10-15T07:53:07.000Z</time>
      </trkpt>
      <trkpt lat="47.57484" lon="6.80523">
        <ele>444.3</ele>
        <time>2017-10-15T07:53:08.000Z</time>
      </trkpt>
      <trkpt lat="47.57486" lon="6.80518">
        <ele>444.4</ele>
        <time>2017-10-15T07:53:09.000Z</time>
      </trkpt>
      <trkpt lat="47.57489" lon="6.80514">
        <ele>444.5</ele>
        <time>2017-10-15T07:53:10.000Z</time>
      </trkpt>
      <trkpt lat="47.57491" lon="6.8051">
        <ele>444.6</ele>
        <time>2017-10-15T07:53:11.000Z</time>
      </trkpt>
      <trkpt lat="47.57492" lon="6.80507">
        <ele>444.7</ele>
        <time>2017-10-15T07:53:12.000Z</time>
      </trkpt>
      <trkpt lat="47.57494" lon="6.80503">
        <ele>444.7</ele>
        <time>2017-10-15T07:53:13.000Z</time>
      </trkpt>
      <trkpt lat="47.57496" lon="6.805">
        <ele>444.7</ele>
        <time>2017-10-15T07:53:14.000Z</time>
      </trkpt>
      <trkpt lat="47.57499" lon="6.80496">
        <ele>444.7</ele>
        <time>2017-10-15T07:53:15.000Z</time>
      </trkpt>
      <trkpt lat="47.57501" lon="6.80492">
        <ele>444.8</ele>
        <time>2017-10-15T07:53:16.000Z</time>
      </trkpt>
      <trkpt lat="47.57503" lon="6.80489">
        <ele>444.8</ele>
        <time>2017-10-15T07:53:17.000Z</time>
      </trkpt>
      <trkpt lat="47.57506" lon="6.80486">
        <ele>444.9</ele>
        <time>2017-10-15T07:53:18.000Z</time>
      </trkpt>
      <trkpt lat="47.57509" lon="6.80482">
        <ele>444.9</ele>
        <time>2017-10-15T07:53:19.000Z</time>
      </trkpt>
      <trkpt lat="47.57512" lon="6.80479">
        <ele>445</ele>
        <time>2017-10-15T07:53:20.000Z</time>
      </trkpt>
      <trkpt lat="47.57515" lon="6.80476">
        <ele>445.1</ele>
        <time>2017-10-15T07:53:21.000Z</time>
      </trkpt>
      <trkpt lat="47.57518" lon="6.80474">
        <ele>445.1</ele>
        <time>2017-10-15T07:53:22.000Z</time>
      </trkpt>
      <trkpt lat="47.57521" lon="6.80471">
        <ele>445.3</ele>
        <time>2017-10-15T07:53:23.000Z</time>
      </trkpt>
      <trkpt lat="47.57523" lon="6.80469">
        <ele>445.4</ele>
        <time>2017-10-15T07:53:24.000Z</time>
      </trkpt>
      <trkpt lat="47.57526" lon="6.80467">
        <ele>445.4</ele>
        <time>2017-10-15T07:53:25.000Z</time>
      </trkpt>
      <trkpt lat="47.57529" lon="6.80465">
        <ele>445.5</ele>
        <time>2017-10-15T07:53:26.000Z</time>
      </trkpt>
      <trkpt lat="47.57532" lon="6.80462">
        <ele>445.4</ele>
        <time>2017-10-15T07:53:27.000Z</time>
      </trkpt>
      <trkpt lat="47.57534" lon="6.80458">
        <ele>445.5</ele>
        <time>2017-10-15T07:53:28.000Z</time>
      </trkpt>
      <trkpt lat="47.57538" lon="6.80455">
        <ele>445.5</ele>
        <time>2017-10-15T07:53:29.000Z</time>
      </trkpt>
      <trkpt lat="47.57541" lon="6.80452">
        <ele>445.5</ele>
        <time>2017-10-15T07:53:30.000Z</time>
      </trkpt>
      <trkpt lat="47.57544" lon="6.80449">
        <ele>445.5</ele>
        <time>2017-10-15T07:53:31.000Z</time>
      </trkpt>
      <trkpt lat="47.57546" lon="6.80445">
        <ele>445.5</ele>
        <time>2017-10-15T07:53:32.000Z</time>
      </trkpt>
      <trkpt lat="47.57549" lon="6.80442">
        <ele>445.4</ele>
        <time>2017-10-15T07:53:33.000Z</time>
      </trkpt>
      <trkpt lat="47.57552" lon="6.8044">
        <ele>445.5</ele>
        <time>2017-10-15T07:53:34.000Z</time>
      </trkpt>
      <trkpt lat="47.57555" lon="6.80437">
        <ele>445.5</ele>
        <time>2017-10-15T07:53:35.000Z</time>
      </trkpt>
      <trkpt lat="47.57558" lon="6.80435">
        <ele>445.6</ele>
        <time>2017-10-15T07:53:36.000Z</time>
      </trkpt>
      <trkpt lat="47.57561" lon="6.80434">
        <ele>445.7</ele>
        <time>2017-10-15T07:53:37.000Z</time>
      </trkpt>
      <trkpt lat="47.57564" lon="6.80433">
        <ele>445.7</ele>
        <time>2017-10-15T07:53:38.000Z</time>
      </trkpt>
      <trkpt lat="47.57567" lon="6.80432">
        <ele>445.8</ele>
        <time>2017-10-15T07:53:39.000Z</time>
      </trkpt>
      <trkpt lat="47.5757" lon="6.80432">
        <ele>445.8</ele>
        <time>2017-10-15T07:53:40.000Z</time>
      </trkpt>
      <trkpt lat="47.57573" lon="6.80431">
        <ele>445.7</ele>
        <time>2017-10-15T07:53:41.000Z</time>
      </trkpt>
      <trkpt lat="47.57576" lon="6.80431">
        <ele>445.7</ele>
        <time>2017-10-15T07:53:42.000Z</time>
      </trkpt>
      <trkpt lat="47.5758" lon="6.80431">
        <ele>445.7</ele>
        <time>2017-10-15T07:53:43.000Z</time>
      </trkpt>
      <trkpt lat="47.57583" lon="6.80431">
        <ele>445.7</ele>
        <time>2017-10-15T07:53:44.000Z</time>
      </trkpt>
      <trkpt lat="47.57586" lon="6.80431">
        <ele>445.7</ele>
        <time>2017-10-15T07:53:45.000Z</time>
      </trkpt>
      <trkpt lat="47.5759" lon="6.80431">
        <ele>445.6</ele>
        <time>2017-10-15T07:53:46.000Z</time>
      </trkpt>
      <trkpt lat="47.57593" lon="6.80431">
        <ele>445.5</ele>
        <time>2017-10-15T07:53:47.000Z</time>
      </trkpt>
      <trkpt lat="47.57598" lon="6.80431">
        <ele>445.4</ele>
        <time>2017-10-15T07:53:48.000Z</time>
      </trkpt>
      <trkpt lat="47.57602" lon="6.80431">
        <ele>445.4</ele>
        <time>2017-10-15T07:53:49.000Z</time>
      </trkpt>
      <trkpt lat="47.57606" lon="6.80431">
        <ele>445.3</ele>
        <time>2017-10-15T07:53:50.000Z</time>
      </trkpt>
      <trkpt lat="47.5761" lon="6.80431">
        <ele>445.3</ele>
        <time>2017-10-15T07:53:51.000Z</time>
      </trkpt>
      <trkpt lat="47.57614" lon="6.80431">
        <ele>445.3</ele>
        <time>2017-10-15T07:53:52.000Z</time>
      </trkpt>
      <trkpt lat="47.57617" lon="6.8043">
        <ele>445.3</ele>
        <time>2017-10-15T07:53:53.000Z</time>
      </trkpt>
      <trkpt lat="47.57621" lon="6.8043">
        <ele>444.8</ele>
        <time>2017-10-15T07:53:54.000Z</time>
      </trkpt>
      <trkpt lat="47.57625" lon="6.8043">
        <ele>444</ele>
        <time>2017-10-15T07:53:55.000Z</time>
      </trkpt>
      <trkpt lat="47.57628" lon="6.8043">
        <ele>444</ele>
        <time>2017-10-15T07:53:56.000Z</time>
      </trkpt>
      <trkpt lat="47.57632" lon="6.8043">
        <ele>443.9</ele>
        <time>2017-10-15T07:53:57.000Z</time>
      </trkpt>
      <trkpt lat="47.57636" lon="6.80431">
        <ele>443.9</ele>
        <time>2017-10-15T07:53:58.000Z</time>
      </trkpt>
      <trkpt lat="47.57639" lon="6.80431">
        <ele>443.9</ele>
        <time>2017-10-15T07:53:59.000Z</time>
      </trkpt>
      <trkpt lat="47.57643" lon="6.80431">
        <ele>443.9</ele>
        <time>2017-10-15T07:54:00.000Z</time>
      </trkpt>
      <trkpt lat="47.57647" lon="6.80432">
        <ele>443.8</ele>
        <time>2017-10-15T07:54:01.000Z</time>
      </trkpt>
      <trkpt lat="47.5765" lon="6.80432">
        <ele>443.8</ele>
        <time>2017-10-15T07:54:02.000Z</time>
      </trkpt>
      <trkpt lat="47.57654" lon="6.80433">
        <ele>443.8</ele>
        <time>2017-10-15T07:54:03.000Z</time>
      </trkpt>
      <trkpt lat="47.57657" lon="6.80434">
        <ele>443.7</ele>
        <time>2017-10-15T07:54:04.000Z</time>
      </trkpt>
      <trkpt lat="47.57659" lon="6.80434">
        <ele>443.8</ele>
        <time>2017-10-15T07:54:05.000Z</time>
      </trkpt>
      <trkpt lat="47.57662" lon="6.80435">
        <ele>443.9</ele>
        <time>2017-10-15T07:54:06.000Z</time>
      </trkpt>
      <trkpt lat="47.57665" lon="6.80436">
        <ele>443.9</ele>
        <time>2017-10-15T07:54:07.000Z</time>
      </trkpt>
      <trkpt lat="47.57668" lon="6.80436">
        <ele>443.9</ele>
        <time>2017-10-15T07:54:08.000Z</time>
      </trkpt>
      <trkpt lat="47.5767" lon="6.80437">
        <ele>444</ele>
        <time>2017-10-15T07:54:09.000Z</time>
      </trkpt>
      <trkpt lat="47.57673" lon="6.80437">
        <ele>444</ele>
        <time>2017-10-15T07:54:10.000Z</time>
      </trkpt>
      <trkpt lat="47.57676" lon="6.80438">
        <ele>443.9</ele>
        <time>2017-10-15T07:54:11.000Z</time>
      </trkpt>
      <trkpt lat="47.57679" lon="6.80438">
        <ele>443.9</ele>
        <time>2017-10-15T07:54:12.000Z</time>
      </trkpt>
      <trkpt lat="47.57683" lon="6.80439">
        <ele>443.9</ele>
        <time>2017-10-15T07:54:13.000Z</time>
      </trkpt>
      <trkpt lat="47.57686" lon="6.80439">
        <ele>444</ele>
        <time>2017-10-15T07:54:14.000Z</time>
      </trkpt>
      <trkpt lat="47.5769" lon="6.8044">
        <ele>444</ele>
        <time>2017-10-15T07:54:15.000Z</time>
      </trkpt>
      <trkpt lat="47.57693" lon="6.8044">
        <ele>444.1</ele>
        <time>2017-10-15T07:54:16.000Z</time>
      </trkpt>
      <trkpt lat="47.57696" lon="6.8044">
        <ele>444.4</ele>
        <time>2017-10-15T07:54:17.000Z</time>
      </trkpt>
      <trkpt lat="47.577" lon="6.8044">
        <ele>444.6</ele>
        <time>2017-10-15T07:54:18.000Z</time>
      </trkpt>
      <trkpt lat="47.57704" lon="6.8044">
        <ele>445</ele>
        <time>2017-10-15T07:54:19.000Z</time>
      </trkpt>
      <trkpt lat="47.57708" lon="6.8044">
        <ele>445.2</ele>
        <time>2017-10-15T07:54:20.000Z</time>
      </trkpt>
      <trkpt lat="47.57711" lon="6.8044">
        <ele>445.5</ele>
        <time>2017-10-15T07:54:21.000Z</time>
      </trkpt>
      <trkpt lat="47.57716" lon="6.8044">
        <ele>445.8</ele>
        <time>2017-10-15T07:54:22.000Z</time>
      </trkpt>
      <trkpt lat="47.5772" lon="6.8044">
        <ele>446.1</ele>
        <time>2017-10-15T07:54:23.000Z</time>
      </trkpt>
      <trkpt lat="47.57723" lon="6.80441">
        <ele>446.4</ele>
        <time>2017-10-15T07:54:24.000Z</time>
      </trkpt>
      <trkpt lat="47.57726" lon="6.80441">
        <ele>446.6</ele>
        <time>2017-10-15T07:54:25.000Z</time>
      </trkpt>
      <trkpt lat="47.57729" lon="6.80441">
        <ele>446.7</ele>
        <time>2017-10-15T07:54:26.000Z</time>
      </trkpt>
      <trkpt lat="47.57732" lon="6.80442">
        <ele>446.8</ele>
        <time>2017-10-15T07:54:27.000Z</time>
      </trkpt>
      <trkpt lat="47.57735" lon="6.80443">
        <ele>447</ele>
        <time>2017-10-15T07:54:28.000Z</time>
      </trkpt>
      <trkpt lat="47.57738" lon="6.80443">
        <ele>447.1</ele>
        <time>2017-10-15T07:54:29.000Z</time>
      </trkpt>
      <trkpt lat="47.5774" lon="6.80444">
        <ele>447.2</ele>
        <time>2017-10-15T07:54:30.000Z</time>
      </trkpt>
      <trkpt lat="47.57744" lon="6.80444">
        <ele>447.2</ele>
        <time>2017-10-15T07:54:31.000Z</time>
      </trkpt>
      <trkpt lat="47.57748" lon="6.80444">
        <ele>447.3</ele>
        <time>2017-10-15T07:54:32.000Z</time>
      </trkpt>
      <trkpt lat="47.57751" lon="6.80445">
        <ele>447.4</ele>
        <time>2017-10-15T07:54:33.000Z</time>
      </trkpt>
      <trkpt lat="47.57754" lon="6.80445">
        <ele>447.6</ele>
        <time>2017-10-15T07:54:34.000Z</time>
      </trkpt>
      <trkpt lat="47.57757" lon="6.80444">
        <ele>447.6</ele>
        <time>2017-10-15T07:54:36.000Z</time>
      </trkpt>
      <trkpt lat="47.5776" lon="6.80441">
        <ele>447.6</ele>
        <time>2017-10-15T07:54:37.000Z</time>
      </trkpt>
      <trkpt lat="47.57763" lon="6.80436">
        <ele>447.5</ele>
        <time>2017-10-15T07:54:38.000Z</time>
      </trkpt>
      <trkpt lat="47.57765" lon="6.80431">
        <ele>447.4</ele>
        <time>2017-10-15T07:54:39.000Z</time>
      </trkpt>
      <trkpt lat="47.57765" lon="6.80426">
        <ele>447.3</ele>
        <time>2017-10-15T07:54:40.000Z</time>
      </trkpt>
      <trkpt lat="47.57766" lon="6.80422">
        <ele>447.4</ele>
        <time>2017-10-15T07:54:41.000Z</time>
      </trkpt>
      <trkpt lat="47.57768" lon="6.80417">
        <ele>447.5</ele>
        <time>2017-10-15T07:54:43.000Z</time>
      </trkpt>
      <trkpt lat="47.57769" lon="6.80414">
        <ele>447.5</ele>
        <time>2017-10-15T07:54:44.000Z</time>
      </trkpt>
      <trkpt lat="47.5777" lon="6.8041">
        <ele>447.8</ele>
        <time>2017-10-15T07:54:46.000Z</time>
      </trkpt>
      <trkpt lat="47.57772" lon="6.80407">
        <ele>447.8</ele>
        <time>2017-10-15T07:54:47.000Z</time>
      </trkpt>
      <trkpt lat="47.57774" lon="6.80403">
        <ele>448</ele>
        <time>2017-10-15T07:54:49.000Z</time>
      </trkpt>
      <trkpt lat="47.57776" lon="6.80402">
        <ele>448</ele>
        <time>2017-10-15T07:54:50.000Z</time>
      </trkpt>
      <trkpt lat="47.57777" lon="6.804">
        <ele>448.1</ele>
        <time>2017-10-15T07:54:51.000Z</time>
      </trkpt>
      <trkpt lat="47.57779" lon="6.80397">
        <ele>448.3</ele>
        <time>2017-10-15T07:54:52.000Z</time>
      </trkpt>
      <trkpt lat="47.57782" lon="6.80394">
        <ele>448.6</ele>
        <time>2017-10-15T07:54:54.000Z</time>
      </trkpt>
      <trkpt lat="47.57784" lon="6.80392">
        <ele>448.6</ele>
        <time>2017-10-15T07:54:55.000Z</time>
      </trkpt>
      <trkpt lat="47.57785" lon="6.80389">
        <ele>448.7</ele>
        <time>2017-10-15T07:54:56.000Z</time>
      </trkpt>
      <trkpt lat="47.57787" lon="6.80384">
        <ele>448.8</ele>
        <time>2017-10-15T07:54:57.000Z</time>
      </trkpt>
      <trkpt lat="47.57788" lon="6.8038">
        <ele>448.9</ele>
        <time>2017-10-15T07:54:58.000Z</time>
      </trkpt>
      <trkpt lat="47.57789" lon="6.80376">
        <ele>449.1</ele>
        <time>2017-10-15T07:54:59.000Z</time>
      </trkpt>
      <trkpt lat="47.57791" lon="6.80371">
        <ele>449.2</ele>
        <time>2017-10-15T07:55:01.000Z</time>
      </trkpt>
      <trkpt lat="47.57793" lon="6.80367">
        <ele>449.2</ele>
        <time>2017-10-15T07:55:02.000Z</time>
      </trkpt>
      <trkpt lat="47.57795" lon="6.80362">
        <ele>449.2</ele>
        <time>2017-10-15T07:55:03.000Z</time>
      </trkpt>
      <trkpt lat="47.57796" lon="6.80356">
        <ele>449.1</ele>
        <time>2017-10-15T07:55:04.000Z</time>
      </trkpt>
      <trkpt lat="47.57797" lon="6.80352">
        <ele>449.1</ele>
        <time>2017-10-15T07:55:05.000Z</time>
      </trkpt>
      <trkpt lat="47.57798" lon="6.80348">
        <ele>449.1</ele>
        <time>2017-10-15T07:55:06.000Z</time>
      </trkpt>
      <trkpt lat="47.57799" lon="6.80345">
        <ele>449.3</ele>
        <time>2017-10-15T07:55:07.000Z</time>
      </trkpt>
      <trkpt lat="47.578" lon="6.80342">
        <ele>449.4</ele>
        <time>2017-10-15T07:55:08.000Z</time>
      </trkpt>
      <trkpt lat="47.57801" lon="6.80336">
        <ele>449.8</ele>
        <time>2017-10-15T07:55:10.000Z</time>
      </trkpt>
      <trkpt lat="47.57802" lon="6.80333">
        <ele>450.1</ele>
        <time>2017-10-15T07:55:11.000Z</time>
      </trkpt>
      <trkpt lat="47.57801" lon="6.80328">
        <ele>450.7</ele>
        <time>2017-10-15T07:55:14.000Z</time>
      </trkpt>
      <trkpt lat="47.578" lon="6.80326">
        <ele>450.9</ele>
        <time>2017-10-15T07:55:15.000Z</time>
      </trkpt>
      <trkpt lat="47.57799" lon="6.80323">
        <ele>451.1</ele>
        <time>2017-10-15T07:55:16.000Z</time>
      </trkpt>
      <trkpt lat="47.57797" lon="6.8032">
        <ele>451.3</ele>
        <time>2017-10-15T07:55:17.000Z</time>
      </trkpt>
      <trkpt lat="47.57796" lon="6.80317">
        <ele>451.6</ele>
        <time>2017-10-15T07:55:18.000Z</time>
      </trkpt>
      <trkpt lat="47.57795" lon="6.80314">
        <ele>452</ele>
        <time>2017-10-15T07:55:19.000Z</time>
      </trkpt>
      <trkpt lat="47.57792" lon="6.80309">
        <ele>452.4</ele>
        <time>2017-10-15T07:55:20.000Z</time>
      </trkpt>
      <trkpt lat="47.57792" lon="6.80306">
        <ele>452.8</ele>
        <time>2017-10-15T07:55:21.000Z</time>
      </trkpt>
      <trkpt lat="47.57792" lon="6.80306">
        <ele>453.7</ele>
        <time>2017-10-15T07:55:24.000Z</time>
      </trkpt>
      <trkpt lat="47.57794" lon="6.8029">
        <ele>454.2</ele>
        <time>2017-10-15T07:55:25.000Z</time>
      </trkpt>
      <trkpt lat="47.57794" lon="6.8029">
        <ele>454.8</ele>
        <time>2017-10-15T07:55:27.000Z</time>
      </trkpt>
      <trkpt lat="47.57793" lon="6.80281">
        <ele>455.1</ele>
        <time>2017-10-15T07:55:28.000Z</time>
      </trkpt>
      <trkpt lat="47.57792" lon="6.80276">
        <ele>455.4</ele>
        <time>2017-10-15T07:55:29.000Z</time>
      </trkpt>
      <trkpt lat="47.57791" lon="6.80272">
        <ele>455.5</ele>
        <time>2017-10-15T07:55:30.000Z</time>
      </trkpt>
      <trkpt lat="47.5779" lon="6.80268">
        <ele>455.7</ele>
        <time>2017-10-15T07:55:31.000Z</time>
      </trkpt>
      <trkpt lat="47.5779" lon="6.80266">
        <ele>455.8</ele>
        <time>2017-10-15T07:55:32.000Z</time>
      </trkpt>
      <trkpt lat="47.57789" lon="6.8026">
        <ele>456.3</ele>
        <time>2017-10-15T07:55:34.000Z</time>
      </trkpt>
      <trkpt lat="47.57788" lon="6.80258">
        <ele>456.5</ele>
        <time>2017-10-15T07:55:35.000Z</time>
      </trkpt>
      <trkpt lat="47.57788" lon="6.80258">
        <ele>457</ele>
        <time>2017-10-15T07:55:38.000Z</time>
      </trkpt>
      <trkpt lat="47.57784" lon="6.80241">
        <ele>457.2</ele>
        <time>2017-10-15T07:55:39.000Z</time>
      </trkpt>
      <trkpt lat="47.57784" lon="6.80241">
        <ele>457.4</ele>
        <time>2017-10-15T07:55:40.000Z</time>
      </trkpt>
      <trkpt lat="47.57781" lon="6.80233">
        <ele>457.5</ele>
        <time>2017-10-15T07:55:41.000Z</time>
      </trkpt>
      <trkpt lat="47.5778" lon="6.80226">
        <ele>457.7</ele>
        <time>2017-10-15T07:55:42.000Z</time>
      </trkpt>
      <trkpt lat="47.57778" lon="6.80222">
        <ele>457.9</ele>
        <time>2017-10-15T07:55:43.000Z</time>
      </trkpt>
      <trkpt lat="47.57777" lon="6.80218">
        <ele>458.2</ele>
        <time>2017-10-15T07:55:44.000Z</time>
      </trkpt>
      <trkpt lat="47.57775" lon="6.80215">
        <ele>458.5</ele>
        <time>2017-10-15T07:55:45.000Z</time>
      </trkpt>
      <trkpt lat="47.57774" lon="6.80211">
        <ele>458.8</ele>
        <time>2017-10-15T07:55:46.000Z</time>
      </trkpt>
      <trkpt lat="47.57772" lon="6.80207">
        <ele>459.1</ele>
        <time>2017-10-15T07:55:47.000Z</time>
      </trkpt>
      <trkpt lat="47.57771" lon="6.80204">
        <ele>459.3</ele>
        <time>2017-10-15T07:55:48.000Z</time>
      </trkpt>
      <trkpt lat="47.5777" lon="6.80199">
        <ele>459.6</ele>
        <time>2017-10-15T07:55:49.000Z</time>
      </trkpt>
      <trkpt lat="47.57768" lon="6.80194">
        <ele>459.9</ele>
        <time>2017-10-15T07:55:50.000Z</time>
      </trkpt>
      <trkpt lat="47.57766" lon="6.80191">
        <ele>460.1</ele>
        <time>2017-10-15T07:55:51.000Z</time>
      </trkpt>
      <trkpt lat="47.57764" lon="6.80187">
        <ele>460.6</ele>
        <time>2017-10-15T07:55:53.000Z</time>
      </trkpt>
      <trkpt lat="47.57762" lon="6.80182">
        <ele>460.8</ele>
        <time>2017-10-15T07:55:54.000Z</time>
      </trkpt>
      <trkpt lat="47.57761" lon="6.80179">
        <ele>461</ele>
        <time>2017-10-15T07:55:55.000Z</time>
      </trkpt>
      <trkpt lat="47.5776" lon="6.80175">
        <ele>461.2</ele>
        <time>2017-10-15T07:55:56.000Z</time>
      </trkpt>
      <trkpt lat="47.57758" lon="6.80171">
        <ele>461.4</ele>
        <time>2017-10-15T07:55:57.000Z</time>
      </trkpt>
      <trkpt lat="47.57758" lon="6.80166">
        <ele>461.5</ele>
        <time>2017-10-15T07:55:58.000Z</time>
      </trkpt>
      <trkpt lat="47.57758" lon="6.80161">
        <ele>461.6</ele>
        <time>2017-10-15T07:55:59.000Z</time>
      </trkpt>
      <trkpt lat="47.57759" lon="6.80148">
        <ele>461.7</ele>
        <time>2017-10-15T07:56:00.000Z</time>
      </trkpt>
      <trkpt lat="47.5776" lon="6.80142">
        <ele>461.8</ele>
        <time>2017-10-15T07:56:01.000Z</time>
      </trkpt>
      <trkpt lat="47.5776" lon="6.80137">
        <ele>461.9</ele>
        <time>2017-10-15T07:56:02.000Z</time>
      </trkpt>
      <trkpt lat="47.5776" lon="6.80132">
        <ele>461.9</ele>
        <time>2017-10-15T07:56:03.000Z</time>
      </trkpt>
      <trkpt lat="47.5776" lon="6.80127">
        <ele>461.9</ele>
        <time>2017-10-15T07:56:04.000Z</time>
      </trkpt>
      <trkpt lat="47.57758" lon="6.80119">
        <ele>462</ele>
        <time>2017-10-15T07:56:05.000Z</time>
      </trkpt>
      <trkpt lat="47.57758" lon="6.80114">
        <ele>462</ele>
        <time>2017-10-15T07:56:06.000Z</time>
      </trkpt>
      <trkpt lat="47.57758" lon="6.80109">
        <ele>461.9</ele>
        <time>2017-10-15T07:56:07.000Z</time>
      </trkpt>
      <trkpt lat="47.57759" lon="6.80105">
        <ele>461.7</ele>
        <time>2017-10-15T07:56:08.000Z</time>
      </trkpt>
      <trkpt lat="47.57759" lon="6.801">
        <ele>461.5</ele>
        <time>2017-10-15T07:56:09.000Z</time>
      </trkpt>
      <trkpt lat="47.57759" lon="6.80095">
        <ele>461.3</ele>
        <time>2017-10-15T07:56:10.000Z</time>
      </trkpt>
      <trkpt lat="47.57759" lon="6.8009">
        <ele>461.2</ele>
        <time>2017-10-15T07:56:11.000Z</time>
      </trkpt>
      <trkpt lat="47.57758" lon="6.80085">
        <ele>461.2</ele>
        <time>2017-10-15T07:56:12.000Z</time>
      </trkpt>
      <trkpt lat="47.57757" lon="6.8008">
        <ele>461.1</ele>
        <time>2017-10-15T07:56:13.000Z</time>
      </trkpt>
      <trkpt lat="47.57755" lon="6.80076">
        <ele>461.1</ele>
        <time>2017-10-15T07:56:14.000Z</time>
      </trkpt>
      <trkpt lat="47.57754" lon="6.80072">
        <ele>461.2</ele>
        <time>2017-10-15T07:56:15.000Z</time>
      </trkpt>
      <trkpt lat="47.57753" lon="6.80067">
        <ele>461.3</ele>
        <time>2017-10-15T07:56:16.000Z</time>
      </trkpt>
      <trkpt lat="47.57753" lon="6.80062">
        <ele>461.4</ele>
        <time>2017-10-15T07:56:17.000Z</time>
      </trkpt>
      <trkpt lat="47.57754" lon="6.80057">
        <ele>461.6</ele>
        <time>2017-10-15T07:56:18.000Z</time>
      </trkpt>
      <trkpt lat="47.57755" lon="6.80053">
        <ele>461.8</ele>
        <time>2017-10-15T07:56:19.000Z</time>
      </trkpt>
      <trkpt lat="47.57756" lon="6.80048">
        <ele>462</ele>
        <time>2017-10-15T07:56:20.000Z</time>
      </trkpt>
      <trkpt lat="47.57757" lon="6.80043">
        <ele>462.1</ele>
        <time>2017-10-15T07:56:21.000Z</time>
      </trkpt>
      <trkpt lat="47.57756" lon="6.80037">
        <ele>462.2</ele>
        <time>2017-10-15T07:56:22.000Z</time>
      </trkpt>
      <trkpt lat="47.57756" lon="6.8003">
        <ele>462.4</ele>
        <time>2017-10-15T07:56:23.000Z</time>
      </trkpt>
      <trkpt lat="47.57754" lon="6.80025">
        <ele>462.5</ele>
        <time>2017-10-15T07:56:24.000Z</time>
      </trkpt>
      <trkpt lat="47.57753" lon="6.80021">
        <ele>462.6</ele>
        <time>2017-10-15T07:56:25.000Z</time>
      </trkpt>
      <trkpt lat="47.57752" lon="6.80018">
        <ele>462.6</ele>
        <time>2017-10-15T07:56:26.000Z</time>
      </trkpt>
      <trkpt lat="47.5775" lon="6.80014">
        <ele>462.6</ele>
        <time>2017-10-15T07:56:27.000Z</time>
      </trkpt>
      <trkpt lat="47.57744" lon="6.80006">
        <ele>462.7</ele>
        <time>2017-10-15T07:56:28.000Z</time>
      </trkpt>
      <trkpt lat="47.5774" lon="6.79999">
        <ele>462.7</ele>
        <time>2017-10-15T07:56:29.000Z</time>
      </trkpt>
      <trkpt lat="47.57739" lon="6.79994">
        <ele>462.6</ele>
        <time>2017-10-15T07:56:30.000Z</time>
      </trkpt>
      <trkpt lat="47.5774" lon="6.79988">
        <ele>462.6</ele>
        <time>2017-10-15T07:56:31.000Z</time>
      </trkpt>
      <trkpt lat="47.57744" lon="6.79977">
        <ele>462.6</ele>
        <time>2017-10-15T07:56:32.000Z</time>
      </trkpt>
      <trkpt lat="47.57747" lon="6.79969">
        <ele>462.1</ele>
        <time>2017-10-15T07:56:33.000Z</time>
      </trkpt>
      <trkpt lat="47.57749" lon="6.79961">
        <ele>462.4</ele>
        <time>2017-10-15T07:56:34.000Z</time>
      </trkpt>
      <trkpt lat="47.57752" lon="6.79952">
        <ele>462.4</ele>
        <time>2017-10-15T07:56:35.000Z</time>
      </trkpt>
      <trkpt lat="47.57755" lon="6.79944">
        <ele>463.1</ele>
        <time>2017-10-15T07:56:36.000Z</time>
      </trkpt>
      <trkpt lat="47.5776" lon="6.79937">
        <ele>464.6</ele>
        <time>2017-10-15T07:56:37.000Z</time>
      </trkpt>
      <trkpt lat="47.57765" lon="6.79933">
        <ele>465.5</ele>
        <time>2017-10-15T07:56:38.000Z</time>
      </trkpt>
      <trkpt lat="47.57769" lon="6.79929">
        <ele>465.9</ele>
        <time>2017-10-15T07:56:39.000Z</time>
      </trkpt>
      <trkpt lat="47.57774" lon="6.79926">
        <ele>466.4</ele>
        <time>2017-10-15T07:56:40.000Z</time>
      </trkpt>
      <trkpt lat="47.57779" lon="6.79923">
        <ele>466.5</ele>
        <time>2017-10-15T07:56:41.000Z</time>
      </trkpt>
      <trkpt lat="47.57784" lon="6.7992">
        <ele>466.8</ele>
        <time>2017-10-15T07:56:42.000Z</time>
      </trkpt>
      <trkpt lat="47.57789" lon="6.79917">
        <ele>466.9</ele>
        <time>2017-10-15T07:56:43.000Z</time>
      </trkpt>
      <trkpt lat="47.57793" lon="6.79914">
        <ele>467.3</ele>
        <time>2017-10-15T07:56:44.000Z</time>
      </trkpt>
      <trkpt lat="47.57799" lon="6.79911">
        <ele>467.7</ele>
        <time>2017-10-15T07:56:45.000Z</time>
      </trkpt>
      <trkpt lat="47.57804" lon="6.79907">
        <ele>468.3</ele>
        <time>2017-10-15T07:56:46.000Z</time>
      </trkpt>
      <trkpt lat="47.57809" lon="6.79898">
        <ele>468.7</ele>
        <time>2017-10-15T07:56:47.000Z</time>
      </trkpt>
      <trkpt lat="47.57813" lon="6.79889">
        <ele>469.3</ele>
        <time>2017-10-15T07:56:48.000Z</time>
      </trkpt>
      <trkpt lat="47.57816" lon="6.79878">
        <ele>469.5</ele>
        <time>2017-10-15T07:56:49.000Z</time>
      </trkpt>
      <trkpt lat="47.57817" lon="6.79868">
        <ele>469.4</ele>
        <time>2017-10-15T07:56:50.000Z</time>
      </trkpt>
      <trkpt lat="47.57819" lon="6.79858">
        <ele>469.5</ele>
        <time>2017-10-15T07:56:51.000Z</time>
      </trkpt>
      <trkpt lat="47.57821" lon="6.79848">
        <ele>469.5</ele>
        <time>2017-10-15T07:56:52.000Z</time>
      </trkpt>
      <trkpt lat="47.57821" lon="6.79839">
        <ele>469</ele>
        <time>2017-10-15T07:56:53.000Z</time>
      </trkpt>
      <trkpt lat="47.57822" lon="6.79832">
        <ele>468.9</ele>
        <time>2017-10-15T07:56:54.000Z</time>
      </trkpt>
      <trkpt lat="47.57824" lon="6.79824">
        <ele>468.6</ele>
        <time>2017-10-15T07:56:55.000Z</time>
      </trkpt>
      <trkpt lat="47.57825" lon="6.79817">
        <ele>467.8</ele>
        <time>2017-10-15T07:56:56.000Z</time>
      </trkpt>
      <trkpt lat="47.57827" lon="6.79812">
        <ele>467.6</ele>
        <time>2017-10-15T07:56:57.000Z</time>
      </trkpt>
      <trkpt lat="47.57829" lon="6.79806">
        <ele>467</ele>
        <time>2017-10-15T07:56:58.000Z</time>
      </trkpt>
      <trkpt lat="47.57832" lon="6.798">
        <ele>466.8</ele>
        <time>2017-10-15T07:56:59.000Z</time>
      </trkpt>
      <trkpt lat="47.57836" lon="6.79794">
        <ele>466.1</ele>
        <time>2017-10-15T07:57:00.000Z</time>
      </trkpt>
      <trkpt lat="47.5784" lon="6.7979">
        <ele>465.6</ele>
        <time>2017-10-15T07:57:01.000Z</time>
      </trkpt>
      <trkpt lat="47.57844" lon="6.79786">
        <ele>465.5</ele>
        <time>2017-10-15T07:57:02.000Z</time>
      </trkpt>
      <trkpt lat="47.57849" lon="6.79783">
        <ele>465.6</ele>
        <time>2017-10-15T07:57:03.000Z</time>
      </trkpt>
      <trkpt lat="47.57854" lon="6.7978">
        <ele>465.2</ele>
        <time>2017-10-15T07:57:04.000Z</time>
      </trkpt>
      <trkpt lat="47.57859" lon="6.79776">
        <ele>464.6</ele>
        <time>2017-10-15T07:57:05.000Z</time>
      </trkpt>
      <trkpt lat="47.57863" lon="6.79771">
        <ele>464.2</ele>
        <time>2017-10-15T07:57:06.000Z</time>
      </trkpt>
      <trkpt lat="47.57868" lon="6.79766">
        <ele>464.4</ele>
        <time>2017-10-15T07:57:07.000Z</time>
      </trkpt>
      <trkpt lat="47.57873" lon="6.79758">
        <ele>464.6</ele>
        <time>2017-10-15T07:57:08.000Z</time>
      </trkpt>
      <trkpt lat="47.57878" lon="6.79748">
        <ele>465.1</ele>
        <time>2017-10-15T07:57:09.000Z</time>
      </trkpt>
      <trkpt lat="47.5788" lon="6.79737">
        <ele>465.2</ele>
        <time>2017-10-15T07:57:10.000Z</time>
      </trkpt>
      <trkpt lat="47.5788" lon="6.79725">
        <ele>465.1</ele>
        <time>2017-10-15T07:57:11.000Z</time>
      </trkpt>
      <trkpt lat="47.57879" lon="6.79714">
        <ele>464.4</ele>
        <time>2017-10-15T07:57:12.000Z</time>
      </trkpt>
      <trkpt lat="47.57876" lon="6.79704">
        <ele>464.3</ele>
        <time>2017-10-15T07:57:13.000Z</time>
      </trkpt>
      <trkpt lat="47.57874" lon="6.79692">
        <ele>463.7</ele>
        <time>2017-10-15T07:57:14.000Z</time>
      </trkpt>
      <trkpt lat="47.57873" lon="6.79681">
        <ele>462.6</ele>
        <time>2017-10-15T07:57:15.000Z</time>
      </trkpt>
      <trkpt lat="47.57873" lon="6.79671">
        <ele>461.9</ele>
        <time>2017-10-15T07:57:16.000Z</time>
      </trkpt>
      <trkpt lat="47.57872" lon="6.79662">
        <ele>460.7</ele>
        <time>2017-10-15T07:57:17.000Z</time>
      </trkpt>
      <trkpt lat="47.57873" lon="6.79653">
        <ele>459.8</ele>
        <time>2017-10-15T07:57:18.000Z</time>
      </trkpt>
      <trkpt lat="47.57873" lon="6.79643">
        <ele>458.5</ele>
        <time>2017-10-15T07:57:19.000Z</time>
      </trkpt>
      <trkpt lat="47.57875" lon="6.79633">
        <ele>457.7</ele>
        <time>2017-10-15T07:57:20.000Z</time>
      </trkpt>
      <trkpt lat="47.57877" lon="6.79623">
        <ele>457.2</ele>
        <time>2017-10-15T07:57:21.000Z</time>
      </trkpt>
      <trkpt lat="47.5788" lon="6.79614">
        <ele>457.1</ele>
        <time>2017-10-15T07:57:22.000Z</time>
      </trkpt>
      <trkpt lat="47.57884" lon="6.79606">
        <ele>457.1</ele>
        <time>2017-10-15T07:57:23.000Z</time>
      </trkpt>
      <trkpt lat="47.57888" lon="6.79598">
        <ele>456.6</ele>
        <time>2017-10-15T07:57:24.000Z</time>
      </trkpt>
      <trkpt lat="47.57889" lon="6.79587">
        <ele>456.3</ele>
        <time>2017-10-15T07:57:25.000Z</time>
      </trkpt>
      <trkpt lat="47.57889" lon="6.79577">
        <ele>456.5</ele>
        <time>2017-10-15T07:57:26.000Z</time>
      </trkpt>
      <trkpt lat="47.57888" lon="6.79568">
        <ele>456.2</ele>
        <time>2017-10-15T07:57:27.000Z</time>
      </trkpt>
      <trkpt lat="47.57888" lon="6.79558">
        <ele>456.4</ele>
        <time>2017-10-15T07:57:28.000Z</time>
      </trkpt>
      <trkpt lat="47.57886" lon="6.79549">
        <ele>456.7</ele>
        <time>2017-10-15T07:57:29.000Z</time>
      </trkpt>
      <trkpt lat="47.57885" lon="6.79539">
        <ele>456.5</ele>
        <time>2017-10-15T07:57:30.000Z</time>
      </trkpt>
      <trkpt lat="47.57883" lon="6.79529">
        <ele>456.1</ele>
        <time>2017-10-15T07:57:31.000Z</time>
      </trkpt>
      <trkpt lat="47.57882" lon="6.7952">
        <ele>456.1</ele>
        <time>2017-10-15T07:57:32.000Z</time>
      </trkpt>
      <trkpt lat="47.5788" lon="6.7951">
        <ele>455.8</ele>
        <time>2017-10-15T07:57:33.000Z</time>
      </trkpt>
      <trkpt lat="47.57878" lon="6.795">
        <ele>455.4</ele>
        <time>2017-10-15T07:57:34.000Z</time>
      </trkpt>
      <trkpt lat="47.57877" lon="6.7949">
        <ele>455.5</ele>
        <time>2017-10-15T07:57:35.000Z</time>
      </trkpt>
      <trkpt lat="47.57875" lon="6.79479">
        <ele>455.6</ele>
        <time>2017-10-15T07:57:36.000Z</time>
      </trkpt>
      <trkpt lat="47.57873" lon="6.79469">
        <ele>455.4</ele>
        <time>2017-10-15T07:57:37.000Z</time>
      </trkpt>
      <trkpt lat="47.57871" lon="6.79459">
        <ele>455.3</ele>
        <time>2017-10-15T07:57:38.000Z</time>
      </trkpt>
      <trkpt lat="47.5787" lon="6.79449">
        <ele>455.3</ele>
        <time>2017-10-15T07:57:39.000Z</time>
      </trkpt>
      <trkpt lat="47.57868" lon="6.79438">
        <ele>455.1</ele>
        <time>2017-10-15T07:57:40.000Z</time>
      </trkpt>
      <trkpt lat="47.57866" lon="6.79426">
        <ele>454.9</ele>
        <time>2017-10-15T07:57:41.000Z</time>
      </trkpt>
      <trkpt lat="47.57863" lon="6.79414">
        <ele>454.8</ele>
        <time>2017-10-15T07:57:42.000Z</time>
      </trkpt>
      <trkpt lat="47.57861" lon="6.79403">
        <ele>454.6</ele>
        <time>2017-10-15T07:57:43.000Z</time>
      </trkpt>
      <trkpt lat="47.57858" lon="6.79391">
        <ele>454.3</ele>
        <time>2017-10-15T07:57:44.000Z</time>
      </trkpt>
      <trkpt lat="47.57856" lon="6.79379">
        <ele>453.8</ele>
        <time>2017-10-15T07:57:45.000Z</time>
      </trkpt>
      <trkpt lat="47.57853" lon="6.79367">
        <ele>453.4</ele>
        <time>2017-10-15T07:57:46.000Z</time>
      </trkpt>
      <trkpt lat="47.57851" lon="6.79354">
        <ele>453.3</ele>
        <time>2017-10-15T07:57:47.000Z</time>
      </trkpt>
      <trkpt lat="47.57848" lon="6.79341">
        <ele>453.1</ele>
        <time>2017-10-15T07:57:48.000Z</time>
      </trkpt>
      <trkpt lat="47.57846" lon="6.79327">
        <ele>452.8</ele>
        <time>2017-10-15T07:57:49.000Z</time>
      </trkpt>
      <trkpt lat="47.57843" lon="6.79314">
        <ele>452.6</ele>
        <time>2017-10-15T07:57:50.000Z</time>
      </trkpt>
      <trkpt lat="47.57841" lon="6.79301">
        <ele>451.8</ele>
        <time>2017-10-15T07:57:51.000Z</time>
      </trkpt>
      <trkpt lat="47.57838" lon="6.79289">
        <ele>450.8</ele>
        <time>2017-10-15T07:57:52.000Z</time>
      </trkpt>
      <trkpt lat="47.57836" lon="6.79277">
        <ele>450.3</ele>
        <time>2017-10-15T07:57:53.000Z</time>
      </trkpt>
      <trkpt lat="47.57834" lon="6.79264">
        <ele>449.3</ele>
        <time>2017-10-15T07:57:54.000Z</time>
      </trkpt>
      <trkpt lat="47.57831" lon="6.79252">
        <ele>448.2</ele>
        <time>2017-10-15T07:57:55.000Z</time>
      </trkpt>
      <trkpt lat="47.57829" lon="6.7924">
        <ele>447.5</ele>
        <time>2017-10-15T07:57:56.000Z</time>
      </trkpt>
      <trkpt lat="47.57827" lon="6.79227">
        <ele>447</ele>
        <time>2017-10-15T07:57:57.000Z</time>
      </trkpt>
      <trkpt lat="47.57825" lon="6.79216">
        <ele>446.7</ele>
        <time>2017-10-15T07:57:58.000Z</time>
      </trkpt>
      <trkpt lat="47.57823" lon="6.79204">
        <ele>446.3</ele>
        <time>2017-10-15T07:57:59.000Z</time>
      </trkpt>
      <trkpt lat="47.57824" lon="6.79189">
        <ele>445.3</ele>
        <time>2017-10-15T07:58:00.000Z</time>
      </trkpt>
      <trkpt lat="47.57825" lon="6.79177">
        <ele>445.1</ele>
        <time>2017-10-15T07:58:01.000Z</time>
      </trkpt>
      <trkpt lat="47.57828" lon="6.79165">
        <ele>444.9</ele>
        <time>2017-10-15T07:58:02.000Z</time>
      </trkpt>
      <trkpt lat="47.57831" lon="6.79153">
        <ele>445.2</ele>
        <time>2017-10-15T07:58:03.000Z</time>
      </trkpt>
      <trkpt lat="47.57834" lon="6.79143">
        <ele>445.3</ele>
        <time>2017-10-15T07:58:04.000Z</time>
      </trkpt>
      <trkpt lat="47.57838" lon="6.79133">
        <ele>444.8</ele>
        <time>2017-10-15T07:58:05.000Z</time>
      </trkpt>
      <trkpt lat="47.57844" lon="6.79125">
        <ele>443.4</ele>
        <time>2017-10-15T07:58:06.000Z</time>
      </trkpt>
      <trkpt lat="47.57849" lon="6.79121">
        <ele>441.7</ele>
        <time>2017-10-15T07:58:07.000Z</time>
      </trkpt>
      <trkpt lat="47.57857" lon="6.7912">
        <ele>440.6</ele>
        <time>2017-10-15T07:58:08.000Z</time>
      </trkpt>
      <trkpt lat="47.57864" lon="6.79119">
        <ele>439.7</ele>
        <time>2017-10-15T07:58:09.000Z</time>
      </trkpt>
      <trkpt lat="47.57871" lon="6.79118">
        <ele>439.3</ele>
        <time>2017-10-15T07:58:10.000Z</time>
      </trkpt>
      <trkpt lat="47.57877" lon="6.79116">
        <ele>439</ele>
        <time>2017-10-15T07:58:11.000Z</time>
      </trkpt>
      <trkpt lat="47.57883" lon="6.79115">
        <ele>438.5</ele>
        <time>2017-10-15T07:58:12.000Z</time>
      </trkpt>
      <trkpt lat="47.57888" lon="6.79114">
        <ele>437.7</ele>
        <time>2017-10-15T07:58:13.000Z</time>
      </trkpt>
      <trkpt lat="47.57894" lon="6.79113">
        <ele>436.9</ele>
        <time>2017-10-15T07:58:14.000Z</time>
      </trkpt>
      <trkpt lat="47.579" lon="6.79112">
        <ele>436.2</ele>
        <time>2017-10-15T07:58:15.000Z</time>
      </trkpt>
      <trkpt lat="47.57908" lon="6.79112">
        <ele>436.3</ele>
        <time>2017-10-15T07:58:16.000Z</time>
      </trkpt>
      <trkpt lat="47.57916" lon="6.79113">
        <ele>437.1</ele>
        <time>2017-10-15T07:58:17.000Z</time>
      </trkpt>
      <trkpt lat="47.57925" lon="6.79113">
        <ele>437.4</ele>
        <time>2017-10-15T07:58:18.000Z</time>
      </trkpt>
      <trkpt lat="47.57934" lon="6.79113">
        <ele>437.2</ele>
        <time>2017-10-15T07:58:19.000Z</time>
      </trkpt>
      <trkpt lat="47.57943" lon="6.79113">
        <ele>436.4</ele>
        <time>2017-10-15T07:58:20.000Z</time>
      </trkpt>
      <trkpt lat="47.57951" lon="6.79111">
        <ele>435.7</ele>
        <time>2017-10-15T07:58:21.000Z</time>
      </trkpt>
      <trkpt lat="47.57959" lon="6.7911">
        <ele>435.9</ele>
        <time>2017-10-15T07:58:22.000Z</time>
      </trkpt>
      <trkpt lat="47.57965" lon="6.79111">
        <ele>435</ele>
        <time>2017-10-15T07:58:23.000Z</time>
      </trkpt>
      <trkpt lat="47.5797" lon="6.79116">
        <ele>434.7</ele>
        <time>2017-10-15T07:58:24.000Z</time>
      </trkpt>
      <trkpt lat="47.57974" lon="6.79121">
        <ele>434.3</ele>
        <time>2017-10-15T07:58:25.000Z</time>
      </trkpt>
      <trkpt lat="47.57977" lon="6.79129">
        <ele>433.4</ele>
        <time>2017-10-15T07:58:26.000Z</time>
      </trkpt>
      <trkpt lat="47.5798" lon="6.79136">
        <ele>432.3</ele>
        <time>2017-10-15T07:58:27.000Z</time>
      </trkpt>
      <trkpt lat="47.57984" lon="6.79144">
        <ele>431.5</ele>
        <time>2017-10-15T07:58:28.000Z</time>
      </trkpt>
      <trkpt lat="47.57988" lon="6.79148">
        <ele>430.5</ele>
        <time>2017-10-15T07:58:29.000Z</time>
      </trkpt>
      <trkpt lat="47.57994" lon="6.7915">
        <ele>429.4</ele>
        <time>2017-10-15T07:58:30.000Z</time>
      </trkpt>
      <trkpt lat="47.57999" lon="6.79149">
        <ele>428.7</ele>
        <time>2017-10-15T07:58:31.000Z</time>
      </trkpt>
      <trkpt lat="47.58002" lon="6.79148">
        <ele>427.7</ele>
        <time>2017-10-15T07:58:32.000Z</time>
      </trkpt>
      <trkpt lat="47.58006" lon="6.79148">
        <ele>427.6</ele>
        <time>2017-10-15T07:58:33.000Z</time>
      </trkpt>
      <trkpt lat="47.58009" lon="6.79148">
        <ele>427.6</ele>
        <time>2017-10-15T07:58:34.000Z</time>
      </trkpt>
      <trkpt lat="47.58013" lon="6.7915">
        <ele>426.6</ele>
        <time>2017-10-15T07:58:41.000Z</time>
      </trkpt>
      <trkpt lat="47.58025" lon="6.7915">
        <ele>424.7</ele>
        <time>2017-10-15T07:58:42.000Z</time>
      </trkpt>
      <trkpt lat="47.58031" lon="6.79149">
        <ele>422.7</ele>
        <time>2017-10-15T07:58:43.000Z</time>
      </trkpt>
      <trkpt lat="47.58038" lon="6.7915">
        <ele>421.2</ele>
        <time>2017-10-15T07:58:44.000Z</time>
      </trkpt>
      <trkpt lat="47.58043" lon="6.79155">
        <ele>420.1</ele>
        <time>2017-10-15T07:58:45.000Z</time>
      </trkpt>
      <trkpt lat="47.58045" lon="6.79161">
        <ele>419.7</ele>
        <time>2017-10-15T07:58:46.000Z</time>
      </trkpt>
      <trkpt lat="47.58048" lon="6.79165">
        <ele>418.4</ele>
        <time>2017-10-15T07:58:47.000Z</time>
      </trkpt>
      <trkpt lat="47.58052" lon="6.79169">
        <ele>417.3</ele>
        <time>2017-10-15T07:58:48.000Z</time>
      </trkpt>
      <trkpt lat="47.58056" lon="6.79174">
        <ele>416.2</ele>
        <time>2017-10-15T07:58:49.000Z</time>
      </trkpt>
      <trkpt lat="47.5806" lon="6.79176">
        <ele>415.4</ele>
        <time>2017-10-15T07:58:50.000Z</time>
      </trkpt>
      <trkpt lat="47.58065" lon="6.79178">
        <ele>414.7</ele>
        <time>2017-10-15T07:58:51.000Z</time>
      </trkpt>
      <trkpt lat="47.58071" lon="6.79181">
        <ele>414.1</ele>
        <time>2017-10-15T07:58:52.000Z</time>
      </trkpt>
      <trkpt lat="47.58077" lon="6.79183">
        <ele>414.1</ele>
        <time>2017-10-15T07:58:53.000Z</time>
      </trkpt>
      <trkpt lat="47.58084" lon="6.79185">
        <ele>413.7</ele>
        <time>2017-10-15T07:58:54.000Z</time>
      </trkpt>
      <trkpt lat="47.5809" lon="6.79188">
        <ele>413.8</ele>
        <time>2017-10-15T07:58:55.000Z</time>
      </trkpt>
      <trkpt lat="47.58095" lon="6.79194">
        <ele>414.2</ele>
        <time>2017-10-15T07:58:56.000Z</time>
      </trkpt>
      <trkpt lat="47.58099" lon="6.79199">
        <ele>414.1</ele>
        <time>2017-10-15T07:58:57.000Z</time>
      </trkpt>
      <trkpt lat="47.58104" lon="6.79202">
        <ele>413.3</ele>
        <time>2017-10-15T07:58:58.000Z</time>
      </trkpt>
      <trkpt lat="47.58109" lon="6.79205">
        <ele>412.4</ele>
        <time>2017-10-15T07:58:59.000Z</time>
      </trkpt>
      <trkpt lat="47.58115" lon="6.79208">
        <ele>410.9</ele>
        <time>2017-10-15T07:59:00.000Z</time>
      </trkpt>
      <trkpt lat="47.58119" lon="6.7921">
        <ele>409.5</ele>
        <time>2017-10-15T07:59:01.000Z</time>
      </trkpt>
      <trkpt lat="47.58121" lon="6.79211">
        <ele>409.4</ele>
        <time>2017-10-15T07:59:02.000Z</time>
      </trkpt>
      <trkpt lat="47.58124" lon="6.79211">
        <ele>409.3</ele>
        <time>2017-10-15T07:59:03.000Z</time>
      </trkpt>
      <trkpt lat="47.58127" lon="6.79211">
        <ele>409.2</ele>
        <time>2017-10-15T07:59:04.000Z</time>
      </trkpt>
      <trkpt lat="47.5813" lon="6.79211">
        <ele>408.9</ele>
        <time>2017-10-15T07:59:06.000Z</time>
      </trkpt>
      <trkpt lat="47.58131" lon="6.79212">
        <ele>408.6</ele>
        <time>2017-10-15T07:59:07.000Z</time>
      </trkpt>
      <trkpt lat="47.58135" lon="6.79212">
        <ele>408.3</ele>
        <time>2017-10-15T07:59:09.000Z</time>
      </trkpt>
      <trkpt lat="47.58138" lon="6.79213">
        <ele>408</ele>
        <time>2017-10-15T07:59:10.000Z</time>
      </trkpt>
      <trkpt lat="47.58142" lon="6.79214">
        <ele>407.8</ele>
        <time>2017-10-15T07:59:11.000Z</time>
      </trkpt>
      <trkpt lat="47.58145" lon="6.79215">
        <ele>407.6</ele>
        <time>2017-10-15T07:59:12.000Z</time>
      </trkpt>
      <trkpt lat="47.58149" lon="6.79215">
        <ele>407.5</ele>
        <time>2017-10-15T07:59:13.000Z</time>
      </trkpt>
      <trkpt lat="47.58153" lon="6.79215">
        <ele>407.4</ele>
        <time>2017-10-15T07:59:14.000Z</time>
      </trkpt>
      <trkpt lat="47.58156" lon="6.79215">
        <ele>407.3</ele>
        <time>2017-10-15T07:59:15.000Z</time>
      </trkpt>
      <trkpt lat="47.58159" lon="6.79216">
        <ele>407.2</ele>
        <time>2017-10-15T07:59:16.000Z</time>
      </trkpt>
      <trkpt lat="47.58162" lon="6.79217">
        <ele>407.1</ele>
        <time>2017-10-15T07:59:17.000Z</time>
      </trkpt>
      <trkpt lat="47.58165" lon="6.79217">
        <ele>406.9</ele>
        <time>2017-10-15T07:59:18.000Z</time>
      </trkpt>
      <trkpt lat="47.58168" lon="6.79218">
        <ele>406.7</ele>
        <time>2017-10-15T07:59:19.000Z</time>
      </trkpt>
      <trkpt lat="47.58171" lon="6.79219">
        <ele>406.6</ele>
        <time>2017-10-15T07:59:20.000Z</time>
      </trkpt>
      <trkpt lat="47.58176" lon="6.79221">
        <ele>405.3</ele>
        <time>2017-10-15T07:59:21.000Z</time>
      </trkpt>
      <trkpt lat="47.58181" lon="6.79221">
        <ele>403.7</ele>
        <time>2017-10-15T07:59:22.000Z</time>
      </trkpt>
      <trkpt lat="47.58185" lon="6.79221">
        <ele>402.2</ele>
        <time>2017-10-15T07:59:23.000Z</time>
      </trkpt>
      <trkpt lat="47.5819" lon="6.79222">
        <ele>401.3</ele>
        <time>2017-10-15T07:59:24.000Z</time>
      </trkpt>
      <trkpt lat="47.58195" lon="6.79222">
        <ele>400.7</ele>
        <time>2017-10-15T07:59:25.000Z</time>
      </trkpt>
      <trkpt lat="47.582" lon="6.79222">
        <ele>400.1</ele>
        <time>2017-10-15T07:59:26.000Z</time>
      </trkpt>
      <trkpt lat="47.58205" lon="6.79222">
        <ele>399.6</ele>
        <time>2017-10-15T07:59:27.000Z</time>
      </trkpt>
      <trkpt lat="47.58211" lon="6.79222">
        <ele>398.6</ele>
        <time>2017-10-15T07:59:28.000Z</time>
      </trkpt>
      <trkpt lat="47.58217" lon="6.79222">
        <ele>397.8</ele>
        <time>2017-10-15T07:59:29.000Z</time>
      </trkpt>
      <trkpt lat="47.58223" lon="6.79221">
        <ele>397.3</ele>
        <time>2017-10-15T07:59:30.000Z</time>
      </trkpt>
      <trkpt lat="47.5823" lon="6.79221">
        <ele>396.5</ele>
        <time>2017-10-15T07:59:31.000Z</time>
      </trkpt>
      <trkpt lat="47.58237" lon="6.7922">
        <ele>396.3</ele>
        <time>2017-10-15T07:59:32.000Z</time>
      </trkpt>
      <trkpt lat="47.58244" lon="6.7922">
        <ele>396.3</ele>
        <time>2017-10-15T07:59:33.000Z</time>
      </trkpt>
      <trkpt lat="47.58251" lon="6.79219">
        <ele>396.7</ele>
        <time>2017-10-15T07:59:34.000Z</time>
      </trkpt>
      <trkpt lat="47.58257" lon="6.79218">
        <ele>396.6</ele>
        <time>2017-10-15T07:59:35.000Z</time>
      </trkpt>
      <trkpt lat="47.58263" lon="6.79217">
        <ele>396.6</ele>
        <time>2017-10-15T07:59:36.000Z</time>
      </trkpt>
      <trkpt lat="47.58269" lon="6.79216">
        <ele>396.9</ele>
        <time>2017-10-15T07:59:37.000Z</time>
      </trkpt>
      <trkpt lat="47.58275" lon="6.79216">
        <ele>397.2</ele>
        <time>2017-10-15T07:59:38.000Z</time>
      </trkpt>
      <trkpt lat="47.58281" lon="6.79215">
        <ele>397.5</ele>
        <time>2017-10-15T07:59:39.000Z</time>
      </trkpt>
      <trkpt lat="47.58288" lon="6.79215">
        <ele>397.3</ele>
        <time>2017-10-15T07:59:40.000Z</time>
      </trkpt>
      <trkpt lat="47.58294" lon="6.79215">
        <ele>397.4</ele>
        <time>2017-10-15T07:59:41.000Z</time>
      </trkpt>
      <trkpt lat="47.58301" lon="6.79214">
        <ele>398</ele>
        <time>2017-10-15T07:59:42.000Z</time>
      </trkpt>
      <trkpt lat="47.58308" lon="6.79214">
        <ele>398.8</ele>
        <time>2017-10-15T07:59:43.000Z</time>
      </trkpt>
      <trkpt lat="47.58314" lon="6.79213">
        <ele>399.3</ele>
        <time>2017-10-15T07:59:44.000Z</time>
      </trkpt>
      <trkpt lat="47.58319" lon="6.79213">
        <ele>399.7</ele>
        <time>2017-10-15T07:59:45.000Z</time>
      </trkpt>
      <trkpt lat="47.58324" lon="6.79213">
        <ele>399.7</ele>
        <time>2017-10-15T07:59:46.000Z</time>
      </trkpt>
      <trkpt lat="47.5833" lon="6.79212">
        <ele>400.4</ele>
        <time>2017-10-15T07:59:47.000Z</time>
      </trkpt>
      <trkpt lat="47.58335" lon="6.79211">
        <ele>400.7</ele>
        <time>2017-10-15T07:59:48.000Z</time>
      </trkpt>
      <trkpt lat="47.5834" lon="6.79211">
        <ele>401.2</ele>
        <time>2017-10-15T07:59:49.000Z</time>
      </trkpt>
      <trkpt lat="47.58346" lon="6.7921">
        <ele>401</ele>
        <time>2017-10-15T07:59:50.000Z</time>
      </trkpt>
      <trkpt lat="47.58351" lon="6.7921">
        <ele>400.4</ele>
        <time>2017-10-15T07:59:51.000Z</time>
      </trkpt>
      <trkpt lat="47.58357" lon="6.79209">
        <ele>399.6</ele>
        <time>2017-10-15T07:59:52.000Z</time>
      </trkpt>
      <trkpt lat="47.58361" lon="6.79209">
        <ele>398.9</ele>
        <time>2017-10-15T07:59:53.000Z</time>
      </trkpt>
      <trkpt lat="47.58366" lon="6.79208">
        <ele>398.8</ele>
        <time>2017-10-15T07:59:54.000Z</time>
      </trkpt>
      <trkpt lat="47.58371" lon="6.79208">
        <ele>398.3</ele>
        <time>2017-10-15T07:59:55.000Z</time>
      </trkpt>
      <trkpt lat="47.58375" lon="6.79207">
        <ele>398.2</ele>
        <time>2017-10-15T07:59:56.000Z</time>
      </trkpt>
      <trkpt lat="47.58379" lon="6.79206">
        <ele>398.1</ele>
        <time>2017-10-15T07:59:57.000Z</time>
      </trkpt>
      <trkpt lat="47.58384" lon="6.79205">
        <ele>397.7</ele>
        <time>2017-10-15T07:59:58.000Z</time>
      </trkpt>
      <trkpt lat="47.58388" lon="6.79205">
        <ele>397.2</ele>
        <time>2017-10-15T07:59:59.000Z</time>
      </trkpt>
      <trkpt lat="47.58393" lon="6.79204">
        <ele>396.5</ele>
        <time>2017-10-15T08:00:00.000Z</time>
      </trkpt>
      <trkpt lat="47.58397" lon="6.79203">
        <ele>396.3</ele>
        <time>2017-10-15T08:00:01.000Z</time>
      </trkpt>
      <trkpt lat="47.58402" lon="6.79202">
        <ele>396.4</ele>
        <time>2017-10-15T08:00:02.000Z</time>
      </trkpt>
      <trkpt lat="47.58407" lon="6.79201">
        <ele>396.5</ele>
        <time>2017-10-15T08:00:03.000Z</time>
      </trkpt>
      <trkpt lat="47.58412" lon="6.792">
        <ele>396.4</ele>
        <time>2017-10-15T08:00:04.000Z</time>
      </trkpt>
      <trkpt lat="47.58417" lon="6.79199">
        <ele>396.5</ele>
        <time>2017-10-15T08:00:05.000Z</time>
      </trkpt>
      <trkpt lat="47.58422" lon="6.79198">
        <ele>396.7</ele>
        <time>2017-10-15T08:00:06.000Z</time>
      </trkpt>
      <trkpt lat="47.58427" lon="6.79197">
        <ele>396.2</ele>
        <time>2017-10-15T08:00:07.000Z</time>
      </trkpt>
      <trkpt lat="47.58432" lon="6.79197">
        <ele>395.4</ele>
        <time>2017-10-15T08:00:08.000Z</time>
      </trkpt>
      <trkpt lat="47.58436" lon="6.79197">
        <ele>395.2</ele>
        <time>2017-10-15T08:00:09.000Z</time>
      </trkpt>
      <trkpt lat="47.58441" lon="6.79197">
        <ele>395.5</ele>
        <time>2017-10-15T08:00:10.000Z</time>
      </trkpt>
      <trkpt lat="47.58445" lon="6.79197">
        <ele>396.1</ele>
        <time>2017-10-15T08:00:11.000Z</time>
      </trkpt>
      <trkpt lat="47.58449" lon="6.79198">
        <ele>397.1</ele>
        <time>2017-10-15T08:00:12.000Z</time>
      </trkpt>
      <trkpt lat="47.58453" lon="6.792">
        <ele>398</ele>
        <time>2017-10-15T08:00:13.000Z</time>
      </trkpt>
      <trkpt lat="47.58458" lon="6.79201">
        <ele>398.8</ele>
        <time>2017-10-15T08:00:14.000Z</time>
      </trkpt>
      <trkpt lat="47.58462" lon="6.79203">
        <ele>399.7</ele>
        <time>2017-10-15T08:00:15.000Z</time>
      </trkpt>
      <trkpt lat="47.58466" lon="6.79205">
        <ele>400.4</ele>
        <time>2017-10-15T08:00:16.000Z</time>
      </trkpt>
      <trkpt lat="47.5847" lon="6.79207">
        <ele>400.6</ele>
        <time>2017-10-15T08:00:17.000Z</time>
      </trkpt>
      <trkpt lat="47.58474" lon="6.79209">
        <ele>401</ele>
        <time>2017-10-15T08:00:18.000Z</time>
      </trkpt>
      <trkpt lat="47.58479" lon="6.79211">
        <ele>401.3</ele>
        <time>2017-10-15T08:00:19.000Z</time>
      </trkpt>
      <trkpt lat="47.58482" lon="6.79212">
        <ele>401.3</ele>
        <time>2017-10-15T08:00:20.000Z</time>
      </trkpt>
      <trkpt lat="47.58486" lon="6.79214">
        <ele>401.9</ele>
        <time>2017-10-15T08:00:21.000Z</time>
      </trkpt>
      <trkpt lat="47.58491" lon="6.79216">
        <ele>402.3</ele>
        <time>2017-10-15T08:00:22.000Z</time>
      </trkpt>
      <trkpt lat="47.58495" lon="6.79217">
        <ele>402.6</ele>
        <time>2017-10-15T08:00:23.000Z</time>
      </trkpt>
      <trkpt lat="47.58498" lon="6.79217">
        <ele>402.7</ele>
        <time>2017-10-15T08:00:24.000Z</time>
      </trkpt>
      <trkpt lat="47.58502" lon="6.79218">
        <ele>402.4</ele>
        <time>2017-10-15T08:00:25.000Z</time>
      </trkpt>
      <trkpt lat="47.58507" lon="6.79218">
        <ele>402.3</ele>
        <time>2017-10-15T08:00:26.000Z</time>
      </trkpt>
      <trkpt lat="47.58511" lon="6.79218">
        <ele>401.7</ele>
        <time>2017-10-15T08:00:27.000Z</time>
      </trkpt>
      <trkpt lat="47.58514" lon="6.79217">
        <ele>401.6</ele>
        <time>2017-10-15T08:00:28.000Z</time>
      </trkpt>
      <trkpt lat="47.58518" lon="6.79216">
        <ele>401.5</ele>
        <time>2017-10-15T08:00:29.000Z</time>
      </trkpt>
      <trkpt lat="47.58522" lon="6.79215">
        <ele>400.6</ele>
        <time>2017-10-15T08:00:30.000Z</time>
      </trkpt>
      <trkpt lat="47.58527" lon="6.79214">
        <ele>399.9</ele>
        <time>2017-10-15T08:00:31.000Z</time>
      </trkpt>
      <trkpt lat="47.58531" lon="6.79213">
        <ele>399.6</ele>
        <time>2017-10-15T08:00:31.999Z</time>
      </trkpt>
      <trkpt lat="47.58535" lon="6.7921">
        <ele>400.1</ele>
        <time>2017-10-15T08:00:32.999Z</time>
      </trkpt>
      <trkpt lat="47.58539" lon="6.79207">
        <ele>400.3</ele>
        <time>2017-10-15T08:00:33.999Z</time>
      </trkpt>
      <trkpt lat="47.58543" lon="6.79205">
        <ele>400.2</ele>
        <time>2017-10-15T08:00:34.999Z</time>
      </trkpt>
      <trkpt lat="47.58548" lon="6.79202">
        <ele>400.5</ele>
        <time>2017-10-15T08:00:35.999Z</time>
      </trkpt>
      <trkpt lat="47.58553" lon="6.79199">
        <ele>401</ele>
        <time>2017-10-15T08:00:36.999Z</time>
      </trkpt>
      <trkpt lat="47.58559" lon="6.79195">
        <ele>400.6</ele>
        <time>2017-10-15T08:00:37.999Z</time>
      </trkpt>
      <trkpt lat="47.58564" lon="6.79192">
        <ele>400.6</ele>
        <time>2017-10-15T08:00:38.999Z</time>
      </trkpt>
      <trkpt lat="47.58569" lon="6.7919">
        <ele>400.8</ele>
        <time>2017-10-15T08:00:39.999Z</time>
      </trkpt>
      <trkpt lat="47.58574" lon="6.79188">
        <ele>400.8</ele>
        <time>2017-10-15T08:00:40.999Z</time>
      </trkpt>
      <trkpt lat="47.5858" lon="6.79185">
        <ele>400.2</ele>
        <time>2017-10-15T08:00:41.999Z</time>
      </trkpt>
      <trkpt lat="47.58586" lon="6.79182">
        <ele>399.9</ele>
        <time>2017-10-15T08:00:42.999Z</time>
      </trkpt>
      <trkpt lat="47.58591" lon="6.79178">
        <ele>400.2</ele>
        <time>2017-10-15T08:00:43.999Z</time>
      </trkpt>
      <trkpt lat="47.58597" lon="6.79175">
        <ele>400.6</ele>
        <time>2017-10-15T08:00:44.999Z</time>
      </trkpt>
      <trkpt lat="47.58603" lon="6.79172">
        <ele>400.9</ele>
        <time>2017-10-15T08:00:45.999Z</time>
      </trkpt>
      <trkpt lat="47.58606" lon="6.79168">
        <ele>400.4</ele>
        <time>2017-10-15T08:00:46.999Z</time>
      </trkpt>
      <trkpt lat="47.5861" lon="6.79164">
        <ele>400</ele>
        <time>2017-10-15T08:00:47.999Z</time>
      </trkpt>
      <trkpt lat="47.58615" lon="6.7916">
        <ele>399.6</ele>
        <time>2017-10-15T08:00:48.999Z</time>
      </trkpt>
      <trkpt lat="47.5862" lon="6.79156">
        <ele>399.7</ele>
        <time>2017-10-15T08:00:49.999Z</time>
      </trkpt>
      <trkpt lat="47.58626" lon="6.79153">
        <ele>399.6</ele>
        <time>2017-10-15T08:00:50.999Z</time>
      </trkpt>
      <trkpt lat="47.58631" lon="6.79149">
        <ele>399.6</ele>
        <time>2017-10-15T08:00:51.999Z</time>
      </trkpt>
      <trkpt lat="47.58637" lon="6.79145">
        <ele>399.8</ele>
        <time>2017-10-15T08:00:52.999Z</time>
      </trkpt>
      <trkpt lat="47.58643" lon="6.79141">
        <ele>400.1</ele>
        <time>2017-10-15T08:00:53.999Z</time>
      </trkpt>
      <trkpt lat="47.58648" lon="6.79138">
        <ele>400</ele>
        <time>2017-10-15T08:00:54.999Z</time>
      </trkpt>
      <trkpt lat="47.58653" lon="6.79136">
        <ele>399.6</ele>
        <time>2017-10-15T08:00:55.999Z</time>
      </trkpt>
      <trkpt lat="47.58657" lon="6.79133">
        <ele>399.5</ele>
        <time>2017-10-15T08:00:56.999Z</time>
      </trkpt>
      <trkpt lat="47.58663" lon="6.79129">
        <ele>399.3</ele>
        <time>2017-10-15T08:00:57.999Z</time>
      </trkpt>
      <trkpt lat="47.5867" lon="6.79125">
        <ele>399.5</ele>
        <time>2017-10-15T08:00:58.999Z</time>
      </trkpt>
      <trkpt lat="47.58674" lon="6.79122">
        <ele>400.3</ele>
        <time>2017-10-15T08:00:59.999Z</time>
      </trkpt>
      <trkpt lat="47.58678" lon="6.79119">
        <ele>401.1</ele>
        <time>2017-10-15T08:01:00.999Z</time>
      </trkpt>
      <trkpt lat="47.58682" lon="6.79117">
        <ele>401.7</ele>
        <time>2017-10-15T08:01:01.999Z</time>
      </trkpt>
      <trkpt lat="47.58686" lon="6.79114">
        <ele>401.7</ele>
        <time>2017-10-15T08:01:02.999Z</time>
      </trkpt>
      <trkpt lat="47.5869" lon="6.79112">
        <ele>401.9</ele>
        <time>2017-10-15T08:01:03.999Z</time>
      </trkpt>
      <trkpt lat="47.58695" lon="6.79109">
        <ele>401.7</ele>
        <time>2017-10-15T08:01:04.999Z</time>
      </trkpt>
      <trkpt lat="47.587" lon="6.79106">
        <ele>401</ele>
        <time>2017-10-15T08:01:05.999Z</time>
      </trkpt>
      <trkpt lat="47.58703" lon="6.79102">
        <ele>400.3</ele>
        <time>2017-10-15T08:01:06.999Z</time>
      </trkpt>
      <trkpt lat="47.58707" lon="6.79097">
        <ele>399.6</ele>
        <time>2017-10-15T08:01:07.999Z</time>
      </trkpt>
      <trkpt lat="47.58711" lon="6.79093">
        <ele>399.1</ele>
        <time>2017-10-15T08:01:08.999Z</time>
      </trkpt>
      <trkpt lat="47.58715" lon="6.79089">
        <ele>399.1</ele>
        <time>2017-10-15T08:01:09.999Z</time>
      </trkpt>
      <trkpt lat="47.58719" lon="6.79085">
        <ele>399.4</ele>
        <time>2017-10-15T08:01:10.999Z</time>
      </trkpt>
      <trkpt lat="47.58724" lon="6.79082">
        <ele>400</ele>
        <time>2017-10-15T08:01:11.999Z</time>
      </trkpt>
      <trkpt lat="47.58728" lon="6.79079">
        <ele>400.8</ele>
        <time>2017-10-15T08:01:12.999Z</time>
      </trkpt>
      <trkpt lat="47.58733" lon="6.79076">
        <ele>401.5</ele>
        <time>2017-10-15T08:01:13.999Z</time>
      </trkpt>
      <trkpt lat="47.58739" lon="6.79073">
        <ele>401.7</ele>
        <time>2017-10-15T08:01:14.999Z</time>
      </trkpt>
      <trkpt lat="47.58745" lon="6.79071">
        <ele>401.5</ele>
        <time>2017-10-15T08:01:15.999Z</time>
      </trkpt>
      <trkpt lat="47.5875" lon="6.79069">
        <ele>400.8</ele>
        <time>2017-10-15T08:01:16.999Z</time>
      </trkpt>
      <trkpt lat="47.58754" lon="6.79067">
        <ele>400.3</ele>
        <time>2017-10-15T08:01:17.999Z</time>
      </trkpt>
      <trkpt lat="47.58758" lon="6.79066">
        <ele>399.8</ele>
        <time>2017-10-15T08:01:18.999Z</time>
      </trkpt>
      <trkpt lat="47.58764" lon="6.79065">
        <ele>399.4</ele>
        <time>2017-10-15T08:01:19.999Z</time>
      </trkpt>
      <trkpt lat="47.58769" lon="6.79064">
        <ele>399.1</ele>
        <time>2017-10-15T08:01:20.999Z</time>
      </trkpt>
      <trkpt lat="47.58774" lon="6.79063">
        <ele>399.3</ele>
        <time>2017-10-15T08:01:21.999Z</time>
      </trkpt>
      <trkpt lat="47.5878" lon="6.79062">
        <ele>398.9</ele>
        <time>2017-10-15T08:01:22.999Z</time>
      </trkpt>
      <trkpt lat="47.58785" lon="6.79061">
        <ele>399.6</ele>
        <time>2017-10-15T08:01:23.999Z</time>
      </trkpt>
      <trkpt lat="47.5879" lon="6.79061">
        <ele>400.7</ele>
        <time>2017-10-15T08:01:24.999Z</time>
      </trkpt>
      <trkpt lat="47.58795" lon="6.79063">
        <ele>401.2</ele>
        <time>2017-10-15T08:01:25.999Z</time>
      </trkpt>
      <trkpt lat="47.588" lon="6.79065">
        <ele>401.4</ele>
        <time>2017-10-15T08:01:26.999Z</time>
      </trkpt>
      <trkpt lat="47.58806" lon="6.79066">
        <ele>401.5</ele>
        <time>2017-10-15T08:01:27.999Z</time>
      </trkpt>
      <trkpt lat="47.5881" lon="6.79067">
        <ele>401.3</ele>
        <time>2017-10-15T08:01:28.999Z</time>
      </trkpt>
      <trkpt lat="47.58815" lon="6.79068">
        <ele>401.7</ele>
        <time>2017-10-15T08:01:29.999Z</time>
      </trkpt>
      <trkpt lat="47.58819" lon="6.79067">
        <ele>401.8</ele>
        <time>2017-10-15T08:01:30.999Z</time>
      </trkpt>
      <trkpt lat="47.58823" lon="6.79065">
        <ele>401.9</ele>
        <time>2017-10-15T08:01:31.999Z</time>
      </trkpt>
      <trkpt lat="47.58826" lon="6.79064">
        <ele>402.1</ele>
        <time>2017-10-15T08:01:32.999Z</time>
      </trkpt>
      <trkpt lat="47.58831" lon="6.79062">
        <ele>402.8</ele>
        <time>2017-10-15T08:01:33.999Z</time>
      </trkpt>
      <trkpt lat="47.58835" lon="6.7906">
        <ele>403.3</ele>
        <time>2017-10-15T08:01:34.999Z</time>
      </trkpt>
      <trkpt lat="47.5884" lon="6.79059">
        <ele>403.6</ele>
        <time>2017-10-15T08:01:35.999Z</time>
      </trkpt>
      <trkpt lat="47.58845" lon="6.79056">
        <ele>403</ele>
        <time>2017-10-15T08:01:36.999Z</time>
      </trkpt>
      <trkpt lat="47.58849" lon="6.79055">
        <ele>402.9</ele>
        <time>2017-10-15T08:01:37.999Z</time>
      </trkpt>
      <trkpt lat="47.58853" lon="6.79053">
        <ele>402.4</ele>
        <time>2017-10-15T08:01:38.999Z</time>
      </trkpt>
      <trkpt lat="47.58857" lon="6.7905">
        <ele>402.3</ele>
        <time>2017-10-15T08:01:39.999Z</time>
      </trkpt>
      <trkpt lat="47.58861" lon="6.79048">
        <ele>402.3</ele>
        <time>2017-10-15T08:01:40.999Z</time>
      </trkpt>
      <trkpt lat="47.58865" lon="6.79046">
        <ele>402.2</ele>
        <time>2017-10-15T08:01:41.999Z</time>
      </trkpt>
      <trkpt lat="47.58869" lon="6.79043">
        <ele>402.1</ele>
        <time>2017-10-15T08:01:42.999Z</time>
      </trkpt>
      <trkpt lat="47.58872" lon="6.79041">
        <ele>402.1</ele>
        <time>2017-10-15T08:01:43.999Z</time>
      </trkpt>
      <trkpt lat="47.58875" lon="6.79038">
        <ele>402.1</ele>
        <time>2017-10-15T08:01:44.999Z</time>
      </trkpt>
      <trkpt lat="47.58877" lon="6.79036">
        <ele>402</ele>
        <time>2017-10-15T08:01:45.999Z</time>
      </trkpt>
      <trkpt lat="47.5888" lon="6.79034">
        <ele>402</ele>
        <time>2017-10-15T08:01:46.999Z</time>
      </trkpt>
      <trkpt lat="47.58883" lon="6.79031">
        <ele>402</ele>
        <time>2017-10-15T08:01:47.999Z</time>
      </trkpt>
      <trkpt lat="47.58886" lon="6.79029">
        <ele>402</ele>
        <time>2017-10-15T08:01:48.999Z</time>
      </trkpt>
      <trkpt lat="47.58889" lon="6.79026">
        <ele>402.1</ele>
        <time>2017-10-15T08:01:49.999Z</time>
      </trkpt>
      <trkpt lat="47.58891" lon="6.79025">
        <ele>402.1</ele>
        <time>2017-10-15T08:01:50.999Z</time>
      </trkpt>
      <trkpt lat="47.58893" lon="6.79024">
        <ele>402.1</ele>
        <time>2017-10-15T08:01:51.999Z</time>
      </trkpt>
      <trkpt lat="47.58895" lon="6.79022">
        <ele>402.1</ele>
        <time>2017-10-15T08:01:52.999Z</time>
      </trkpt>
      <trkpt lat="47.58899" lon="6.79019">
        <ele>402.1</ele>
        <time>2017-10-15T08:01:54.999Z</time>
      </trkpt>
      <trkpt lat="47.58901" lon="6.79018">
        <ele>402.1</ele>
        <time>2017-10-15T08:01:55.999Z</time>
      </trkpt>
      <trkpt lat="47.58905" lon="6.79016">
        <ele>402.2</ele>
        <time>2017-10-15T08:01:57.999Z</time>
      </trkpt>
      <trkpt lat="47.58907" lon="6.79014">
        <ele>402.2</ele>
        <time>2017-10-15T08:01:58.999Z</time>
      </trkpt>
      <trkpt lat="47.58911" lon="6.79011">
        <ele>402.4</ele>
        <time>2017-10-15T08:02:00.999Z</time>
      </trkpt>
      <trkpt lat="47.58913" lon="6.7901">
        <ele>402.4</ele>
        <time>2017-10-15T08:02:01.999Z</time>
      </trkpt>
      <trkpt lat="47.58916" lon="6.79008">
        <ele>402.7</ele>
        <time>2017-10-15T08:02:03.999Z</time>
      </trkpt>
      <trkpt lat="47.58917" lon="6.79006">
        <ele>402.9</ele>
        <time>2017-10-15T08:02:04.999Z</time>
      </trkpt>
      <trkpt lat="47.5892" lon="6.79004">
        <ele>403.3</ele>
        <time>2017-10-15T08:02:06.999Z</time>
      </trkpt>
      <trkpt lat="47.58922" lon="6.79004">
        <ele>403.4</ele>
        <time>2017-10-15T08:02:07.999Z</time>
      </trkpt>
      <trkpt lat="47.58925" lon="6.79002">
        <ele>403.7</ele>
        <time>2017-10-15T08:02:09.999Z</time>
      </trkpt>
      <trkpt lat="47.58927" lon="6.79002">
        <ele>403.8</ele>
        <time>2017-10-15T08:02:10.999Z</time>
      </trkpt>
      <trkpt lat="47.58931" lon="6.79001">
        <ele>404.1</ele>
        <time>2017-10-15T08:02:12.999Z</time>
      </trkpt>
      <trkpt lat="47.58932" lon="6.79">
        <ele>404.3</ele>
        <time>2017-10-15T08:02:13.999Z</time>
      </trkpt>
      <trkpt lat="47.58936" lon="6.78998">
        <ele>404.7</ele>
        <time>2017-10-15T08:02:16.999Z</time>
      </trkpt>
      <trkpt lat="47.58938" lon="6.78997">
        <ele>404.9</ele>
        <time>2017-10-15T08:02:17.999Z</time>
      </trkpt>
      <trkpt lat="47.58941" lon="6.78994">
        <ele>405.2</ele>
        <time>2017-10-15T08:02:19.999Z</time>
      </trkpt>
      <trkpt lat="47.58942" lon="6.78993">
        <ele>405.4</ele>
        <time>2017-10-15T08:02:20.999Z</time>
      </trkpt>
      <trkpt lat="47.58946" lon="6.7899">
        <ele>406.1</ele>
        <time>2017-10-15T08:02:23.999Z</time>
      </trkpt>
      <trkpt lat="47.58947" lon="6.78989">
        <ele>406.3</ele>
        <time>2017-10-15T08:02:24.999Z</time>
      </trkpt>
      <trkpt lat="47.58951" lon="6.78987">
        <ele>407</ele>
        <time>2017-10-15T08:02:27.999Z</time>
      </trkpt>
      <trkpt lat="47.58953" lon="6.78986">
        <ele>407.2</ele>
        <time>2017-10-15T08:02:28.999Z</time>
      </trkpt>
      <trkpt lat="47.58955" lon="6.78985">
        <ele>407.6</ele>
        <time>2017-10-15T08:02:30.999Z</time>
      </trkpt>
      <trkpt lat="47.58958" lon="6.78984">
        <ele>407.8</ele>
        <time>2017-10-15T08:02:31.999Z</time>
      </trkpt>
      <trkpt lat="47.58961" lon="6.78983">
        <ele>408.2</ele>
        <time>2017-10-15T08:02:33.999Z</time>
      </trkpt>
      <trkpt lat="47.58963" lon="6.78982">
        <ele>408.4</ele>
        <time>2017-10-15T08:02:34.999Z</time>
      </trkpt>
      <trkpt lat="47.58966" lon="6.78981">
        <ele>408.9</ele>
        <time>2017-10-15T08:02:36.999Z</time>
      </trkpt>
      <trkpt lat="47.58968" lon="6.78981">
        <ele>409</ele>
        <time>2017-10-15T08:02:37.999Z</time>
      </trkpt>
      <trkpt lat="47.5897" lon="6.78979">
        <ele>409.3</ele>
        <time>2017-10-15T08:02:39.999Z</time>
      </trkpt>
      <trkpt lat="47.58972" lon="6.78978">
        <ele>409.5</ele>
        <time>2017-10-15T08:02:40.999Z</time>
      </trkpt>
      <trkpt lat="47.58976" lon="6.78977">
        <ele>409.7</ele>
        <time>2017-10-15T08:02:42.999Z</time>
      </trkpt>
      <trkpt lat="47.58978" lon="6.78977">
        <ele>409.9</ele>
        <time>2017-10-15T08:02:43.999Z</time>
      </trkpt>
      <trkpt lat="47.58981" lon="6.78976">
        <ele>410.2</ele>
        <time>2017-10-15T08:02:45.999Z</time>
      </trkpt>
      <trkpt lat="47.58982" lon="6.78976">
        <ele>410.3</ele>
        <time>2017-10-15T08:02:46.999Z</time>
      </trkpt>
      <trkpt lat="47.58986" lon="6.78976">
        <ele>410.7</ele>
        <time>2017-10-15T08:02:48.999Z</time>
      </trkpt>
      <trkpt lat="47.58988" lon="6.78976">
        <ele>410.8</ele>
        <time>2017-10-15T08:02:49.999Z</time>
      </trkpt>
      <trkpt lat="47.58992" lon="6.78976">
        <ele>411</ele>
        <time>2017-10-15T08:02:51.999Z</time>
      </trkpt>
      <trkpt lat="47.58994" lon="6.78976">
        <ele>411.2</ele>
        <time>2017-10-15T08:02:52.999Z</time>
      </trkpt>
      <trkpt lat="47.58997" lon="6.78976">
        <ele>411.3</ele>
        <time>2017-10-15T08:02:53.999Z</time>
      </trkpt>
      <trkpt lat="47.58999" lon="6.78976">
        <ele>411.4</ele>
        <time>2017-10-15T08:02:54.999Z</time>
      </trkpt>
      <trkpt lat="47.59003" lon="6.78976">
        <ele>411.8</ele>
        <time>2017-10-15T08:02:56.999Z</time>
      </trkpt>
      <trkpt lat="47.59005" lon="6.78976">
        <ele>411.9</ele>
        <time>2017-10-15T08:02:57.999Z</time>
      </trkpt>
      <trkpt lat="47.59007" lon="6.78976">
        <ele>412.1</ele>
        <time>2017-10-15T08:02:58.999Z</time>
      </trkpt>
      <trkpt lat="47.5901" lon="6.78975">
        <ele>412.4</ele>
        <time>2017-10-15T08:02:59.999Z</time>
      </trkpt>
      <trkpt lat="47.59012" lon="6.78974">
        <ele>412.7</ele>
        <time>2017-10-15T08:03:00.999Z</time>
      </trkpt>
      <trkpt lat="47.59015" lon="6.78974">
        <ele>412.9</ele>
        <time>2017-10-15T08:03:01.999Z</time>
      </trkpt>
      <trkpt lat="47.59018" lon="6.78973">
        <ele>413.1</ele>
        <time>2017-10-15T08:03:02.999Z</time>
      </trkpt>
      <trkpt lat="47.59021" lon="6.78972">
        <ele>413.3</ele>
        <time>2017-10-15T08:03:03.999Z</time>
      </trkpt>
      <trkpt lat="47.59025" lon="6.7897">
        <ele>413.7</ele>
        <time>2017-10-15T08:03:05.999Z</time>
      </trkpt>
      <trkpt lat="47.59026" lon="6.7897">
        <ele>413.9</ele>
        <time>2017-10-15T08:03:06.999Z</time>
      </trkpt>
      <trkpt lat="47.59029" lon="6.78968">
        <ele>414.4</ele>
        <time>2017-10-15T08:03:08.999Z</time>
      </trkpt>
      <trkpt lat="47.59031" lon="6.78967">
        <ele>414.6</ele>
        <time>2017-10-15T08:03:09.999Z</time>
      </trkpt>
      <trkpt lat="47.59035" lon="6.78966">
        <ele>415</ele>
        <time>2017-10-15T08:03:11.999Z</time>
      </trkpt>
      <trkpt lat="47.59037" lon="6.78965">
        <ele>415.2</ele>
        <time>2017-10-15T08:03:12.999Z</time>
      </trkpt>
      <trkpt lat="47.5904" lon="6.78965">
        <ele>415.8</ele>
        <time>2017-10-15T08:03:15.999Z</time>
      </trkpt>
      <trkpt lat="47.59042" lon="6.78964">
        <ele>416</ele>
        <time>2017-10-15T08:03:16.999Z</time>
      </trkpt>
      <trkpt lat="47.59046" lon="6.78963">
        <ele>416.4</ele>
        <time>2017-10-15T08:03:18.999Z</time>
      </trkpt>
      <trkpt lat="47.59048" lon="6.78962">
        <ele>416.6</ele>
        <time>2017-10-15T08:03:19.999Z</time>
      </trkpt>
      <trkpt lat="47.59052" lon="6.78961">
        <ele>417.1</ele>
        <time>2017-10-15T08:03:21.999Z</time>
      </trkpt>
      <trkpt lat="47.59054" lon="6.78961">
        <ele>417.3</ele>
        <time>2017-10-15T08:03:22.999Z</time>
      </trkpt>
      <trkpt lat="47.59058" lon="6.7896">
        <ele>417.6</ele>
        <time>2017-10-15T08:03:24.999Z</time>
      </trkpt>
      <trkpt lat="47.59061" lon="6.78959">
        <ele>417.8</ele>
        <time>2017-10-15T08:03:25.999Z</time>
      </trkpt>
      <trkpt lat="47.59063" lon="6.78958">
        <ele>418</ele>
        <time>2017-10-15T08:03:26.999Z</time>
      </trkpt>
      <trkpt lat="47.59065" lon="6.78957">
        <ele>418.1</ele>
        <time>2017-10-15T08:03:27.999Z</time>
      </trkpt>
      <trkpt lat="47.59068" lon="6.78957">
        <ele>418.4</ele>
        <time>2017-10-15T08:03:29.999Z</time>
      </trkpt>
      <trkpt lat="47.5907" lon="6.78956">
        <ele>418.6</ele>
        <time>2017-10-15T08:03:30.999Z</time>
      </trkpt>
      <trkpt lat="47.59074" lon="6.78955">
        <ele>418.8</ele>
        <time>2017-10-15T08:03:32.999Z</time>
      </trkpt>
      <trkpt lat="47.59076" lon="6.78954">
        <ele>418.9</ele>
        <time>2017-10-15T08:03:33.999Z</time>
      </trkpt>
      <trkpt lat="47.59078" lon="6.78953">
        <ele>419.1</ele>
        <time>2017-10-15T08:03:34.999Z</time>
      </trkpt>
      <trkpt lat="47.59081" lon="6.78952">
        <ele>419.2</ele>
        <time>2017-10-15T08:03:35.999Z</time>
      </trkpt>
      <trkpt lat="47.59084" lon="6.78951">
        <ele>419.4</ele>
        <time>2017-10-15T08:03:36.999Z</time>
      </trkpt>
      <trkpt lat="47.59087" lon="6.7895">
        <ele>419.6</ele>
        <time>2017-10-15T08:03:37.999Z</time>
      </trkpt>
      <trkpt lat="47.59091" lon="6.78949">
        <ele>419.8</ele>
        <time>2017-10-15T08:03:38.999Z</time>
      </trkpt>
      <trkpt lat="47.59094" lon="6.78948">
        <ele>420</ele>
        <time>2017-10-15T08:03:39.999Z</time>
      </trkpt>
      <trkpt lat="47.59098" lon="6.78947">
        <ele>420.8</ele>
        <time>2017-10-15T08:03:40.999Z</time>
      </trkpt>
      <trkpt lat="47.591" lon="6.78946">
        <ele>420.9</ele>
        <time>2017-10-15T08:03:41.999Z</time>
      </trkpt>
      <trkpt lat="47.59103" lon="6.78945">
        <ele>421.1</ele>
        <time>2017-10-15T08:03:42.999Z</time>
      </trkpt>
      <trkpt lat="47.59105" lon="6.78945">
        <ele>421.3</ele>
        <time>2017-10-15T08:03:43.999Z</time>
      </trkpt>
      <trkpt lat="47.59108" lon="6.78944">
        <ele>421.4</ele>
        <time>2017-10-15T08:03:44.999Z</time>
      </trkpt>
      <trkpt lat="47.59111" lon="6.78943">
        <ele>421.6</ele>
        <time>2017-10-15T08:03:45.999Z</time>
      </trkpt>
      <trkpt lat="47.59115" lon="6.78942">
        <ele>421.7</ele>
        <time>2017-10-15T08:03:46.999Z</time>
      </trkpt>
      <trkpt lat="47.59118" lon="6.78941">
        <ele>421.8</ele>
        <time>2017-10-15T08:03:47.999Z</time>
      </trkpt>
      <trkpt lat="47.59122" lon="6.7894">
        <ele>421.9</ele>
        <time>2017-10-15T08:03:48.999Z</time>
      </trkpt>
      <trkpt lat="47.59125" lon="6.78939">
        <ele>421.9</ele>
        <time>2017-10-15T08:03:49.999Z</time>
      </trkpt>
      <trkpt lat="47.59128" lon="6.78939">
        <ele>422.8</ele>
        <time>2017-10-15T08:03:50.999Z</time>
      </trkpt>
      <trkpt lat="47.59132" lon="6.78938">
        <ele>423</ele>
        <time>2017-10-15T08:03:51.999Z</time>
      </trkpt>
      <trkpt lat="47.59136" lon="6.78938">
        <ele>423</ele>
        <time>2017-10-15T08:03:52.999Z</time>
      </trkpt>
      <trkpt lat="47.59139" lon="6.78937">
        <ele>422.7</ele>
        <time>2017-10-15T08:03:53.999Z</time>
      </trkpt>
      <trkpt lat="47.59143" lon="6.78936">
        <ele>422.7</ele>
        <time>2017-10-15T08:03:54.999Z</time>
      </trkpt>
      <trkpt lat="47.59148" lon="6.78934">
        <ele>422.1</ele>
        <time>2017-10-15T08:03:55.999Z</time>
      </trkpt>
      <trkpt lat="47.59153" lon="6.78933">
        <ele>421.9</ele>
        <time>2017-10-15T08:03:56.999Z</time>
      </trkpt>
      <trkpt lat="47.59157" lon="6.78932">
        <ele>422.7</ele>
        <time>2017-10-15T08:03:57.999Z</time>
      </trkpt>
      <trkpt lat="47.59161" lon="6.7893">
        <ele>423</ele>
        <time>2017-10-15T08:03:58.999Z</time>
      </trkpt>
      <trkpt lat="47.59166" lon="6.78929">
        <ele>422.9</ele>
        <time>2017-10-15T08:03:59.999Z</time>
      </trkpt>
      <trkpt lat="47.5917" lon="6.78927">
        <ele>422.6</ele>
        <time>2017-10-15T08:04:00.999Z</time>
      </trkpt>
      <trkpt lat="47.59175" lon="6.78926">
        <ele>422.9</ele>
        <time>2017-10-15T08:04:01.999Z</time>
      </trkpt>
      <trkpt lat="47.59181" lon="6.78924">
        <ele>422.9</ele>
        <time>2017-10-15T08:04:02.999Z</time>
      </trkpt>
      <trkpt lat="47.59186" lon="6.78922">
        <ele>423.4</ele>
        <time>2017-10-15T08:04:03.999Z</time>
      </trkpt>
      <trkpt lat="47.59191" lon="6.7892">
        <ele>424.1</ele>
        <time>2017-10-15T08:04:04.999Z</time>
      </trkpt>
      <trkpt lat="47.59197" lon="6.78919">
        <ele>424.6</ele>
        <time>2017-10-15T08:04:05.999Z</time>
      </trkpt>
      <trkpt lat="47.59203" lon="6.78918">
        <ele>424.7</ele>
        <time>2017-10-15T08:04:06.999Z</time>
      </trkpt>
      <trkpt lat="47.59209" lon="6.78917">
        <ele>424.7</ele>
        <time>2017-10-15T08:04:07.999Z</time>
      </trkpt>
      <trkpt lat="47.59214" lon="6.78915">
        <ele>424.2</ele>
        <time>2017-10-15T08:04:08.999Z</time>
      </trkpt>
      <trkpt lat="47.5922" lon="6.78914">
        <ele>423.9</ele>
        <time>2017-10-15T08:04:09.999Z</time>
      </trkpt>
      <trkpt lat="47.59225" lon="6.78912">
        <ele>424.2</ele>
        <time>2017-10-15T08:04:10.999Z</time>
      </trkpt>
      <trkpt lat="47.59231" lon="6.7891">
        <ele>424.3</ele>
        <time>2017-10-15T08:04:11.999Z</time>
      </trkpt>
      <trkpt lat="47.59236" lon="6.78908">
        <ele>424.2</ele>
        <time>2017-10-15T08:04:12.999Z</time>
      </trkpt>
      <trkpt lat="47.59241" lon="6.78906">
        <ele>424.3</ele>
        <time>2017-10-15T08:04:13.999Z</time>
      </trkpt>
      <trkpt lat="47.59246" lon="6.78905">
        <ele>424.6</ele>
        <time>2017-10-15T08:04:14.999Z</time>
      </trkpt>
      <trkpt lat="47.59252" lon="6.78904">
        <ele>424.8</ele>
        <time>2017-10-15T08:04:15.999Z</time>
      </trkpt>
      <trkpt lat="47.59256" lon="6.78902">
        <ele>425.1</ele>
        <time>2017-10-15T08:04:16.999Z</time>
      </trkpt>
      <trkpt lat="47.59262" lon="6.78901">
        <ele>425.4</ele>
        <time>2017-10-15T08:04:17.999Z</time>
      </trkpt>
      <trkpt lat="47.59267" lon="6.789">
        <ele>425.6</ele>
        <time>2017-10-15T08:04:18.999Z</time>
      </trkpt>
      <trkpt lat="47.5927" lon="6.78899">
        <ele>425.6</ele>
        <time>2017-10-15T08:04:19.999Z</time>
      </trkpt>
      <trkpt lat="47.59273" lon="6.78898">
        <ele>426.2</ele>
        <time>2017-10-15T08:04:20.999Z</time>
      </trkpt>
      <trkpt lat="47.59277" lon="6.78898">
        <ele>426.8</ele>
        <time>2017-10-15T08:04:21.999Z</time>
      </trkpt>
      <trkpt lat="47.59281" lon="6.78897">
        <ele>426.9</ele>
        <time>2017-10-15T08:04:22.999Z</time>
      </trkpt>
      <trkpt lat="47.59285" lon="6.78897">
        <ele>428.1</ele>
        <time>2017-10-15T08:04:23.999Z</time>
      </trkpt>
      <trkpt lat="47.59289" lon="6.78897">
        <ele>428.9</ele>
        <time>2017-10-15T08:04:24.999Z</time>
      </trkpt>
      <trkpt lat="47.59292" lon="6.78896">
        <ele>428.9</ele>
        <time>2017-10-15T08:04:25.999Z</time>
      </trkpt>
      <trkpt lat="47.59296" lon="6.78896">
        <ele>428.9</ele>
        <time>2017-10-15T08:04:26.999Z</time>
      </trkpt>
      <trkpt lat="47.593" lon="6.78894">
        <ele>428.9</ele>
        <time>2017-10-15T08:04:27.999Z</time>
      </trkpt>
      <trkpt lat="47.59305" lon="6.78893">
        <ele>428.9</ele>
        <time>2017-10-15T08:04:28.999Z</time>
      </trkpt>
      <trkpt lat="47.59309" lon="6.78891">
        <ele>428.9</ele>
        <time>2017-10-15T08:04:29.999Z</time>
      </trkpt>
      <trkpt lat="47.59313" lon="6.7889">
        <ele>428.9</ele>
        <time>2017-10-15T08:04:30.999Z</time>
      </trkpt>
      <trkpt lat="47.59317" lon="6.78889">
        <ele>429.1</ele>
        <time>2017-10-15T08:04:31.999Z</time>
      </trkpt>
      <trkpt lat="47.59321" lon="6.78887">
        <ele>429.5</ele>
        <time>2017-10-15T08:04:32.999Z</time>
      </trkpt>
      <trkpt lat="47.59326" lon="6.78885">
        <ele>429.2</ele>
        <time>2017-10-15T08:04:33.999Z</time>
      </trkpt>
      <trkpt lat="47.59331" lon="6.78884">
        <ele>428.5</ele>
        <time>2017-10-15T08:04:34.999Z</time>
      </trkpt>
      <trkpt lat="47.59336" lon="6.78882">
        <ele>427.7</ele>
        <time>2017-10-15T08:04:35.999Z</time>
      </trkpt>
      <trkpt lat="47.59342" lon="6.78879">
        <ele>427.1</ele>
        <time>2017-10-15T08:04:36.999Z</time>
      </trkpt>
      <trkpt lat="47.59347" lon="6.78877">
        <ele>426.7</ele>
        <time>2017-10-15T08:04:37.999Z</time>
      </trkpt>
      <trkpt lat="47.59352" lon="6.78875">
        <ele>426</ele>
        <time>2017-10-15T08:04:38.999Z</time>
      </trkpt>
      <trkpt lat="47.59358" lon="6.78873">
        <ele>425.2</ele>
        <time>2017-10-15T08:04:39.999Z</time>
      </trkpt>
      <trkpt lat="47.59364" lon="6.78871">
        <ele>423.8</ele>
        <time>2017-10-15T08:04:40.999Z</time>
      </trkpt>
      <trkpt lat="47.59371" lon="6.78869">
        <ele>422.3</ele>
        <time>2017-10-15T08:04:41.999Z</time>
      </trkpt>
      <trkpt lat="47.59379" lon="6.78867">
        <ele>421</ele>
        <time>2017-10-15T08:04:42.999Z</time>
      </trkpt>
      <trkpt lat="47.59385" lon="6.78864">
        <ele>420.6</ele>
        <time>2017-10-15T08:04:43.999Z</time>
      </trkpt>
      <trkpt lat="47.59393" lon="6.78859">
        <ele>420.1</ele>
        <time>2017-10-15T08:04:44.999Z</time>
      </trkpt>
      <trkpt lat="47.594" lon="6.78855">
        <ele>419.2</ele>
        <time>2017-10-15T08:04:45.999Z</time>
      </trkpt>
      <trkpt lat="47.59407" lon="6.7885">
        <ele>418.8</ele>
        <time>2017-10-15T08:04:46.999Z</time>
      </trkpt>
      <trkpt lat="47.59413" lon="6.78845">
        <ele>418.4</ele>
        <time>2017-10-15T08:04:47.999Z</time>
      </trkpt>
      <trkpt lat="47.59419" lon="6.78841">
        <ele>418.8</ele>
        <time>2017-10-15T08:04:48.999Z</time>
      </trkpt>
      <trkpt lat="47.59424" lon="6.78837">
        <ele>418.9</ele>
        <time>2017-10-15T08:04:49.999Z</time>
      </trkpt>
      <trkpt lat="47.5943" lon="6.78834">
        <ele>418.4</ele>
        <time>2017-10-15T08:04:50.999Z</time>
      </trkpt>
      <trkpt lat="47.59434" lon="6.78833">
        <ele>418.3</ele>
        <time>2017-10-15T08:04:51.999Z</time>
      </trkpt>
      <trkpt lat="47.59437" lon="6.78831">
        <ele>418.2</ele>
        <time>2017-10-15T08:04:52.999Z</time>
      </trkpt>
      <trkpt lat="47.5944" lon="6.7883">
        <ele>418.2</ele>
        <time>2017-10-15T08:04:53.999Z</time>
      </trkpt>
      <trkpt lat="47.59442" lon="6.78828">
        <ele>418.1</ele>
        <time>2017-10-15T08:04:54.999Z</time>
      </trkpt>
      <trkpt lat="47.59445" lon="6.78827">
        <ele>418</ele>
        <time>2017-10-15T08:04:55.999Z</time>
      </trkpt>
      <trkpt lat="47.59447" lon="6.78826">
        <ele>417.9</ele>
        <time>2017-10-15T08:04:56.999Z</time>
      </trkpt>
      <trkpt lat="47.5945" lon="6.78823">
        <ele>417.7</ele>
        <time>2017-10-15T08:04:58.999Z</time>
      </trkpt>
      <trkpt lat="47.59454" lon="6.78822">
        <ele>417.6</ele>
        <time>2017-10-15T08:04:59.999Z</time>
      </trkpt>
      <trkpt lat="47.59458" lon="6.78821">
        <ele>417.7</ele>
        <time>2017-10-15T08:05:00.999Z</time>
      </trkpt>
      <trkpt lat="47.59462" lon="6.7882">
        <ele>417.8</ele>
        <time>2017-10-15T08:05:01.999Z</time>
      </trkpt>
      <trkpt lat="47.59465" lon="6.7882">
        <ele>417.8</ele>
        <time>2017-10-15T08:05:02.999Z</time>
      </trkpt>
      <trkpt lat="47.59468" lon="6.78819">
        <ele>417.9</ele>
        <time>2017-10-15T08:05:03.999Z</time>
      </trkpt>
      <trkpt lat="47.59471" lon="6.78818">
        <ele>417.9</ele>
        <time>2017-10-15T08:05:04.999Z</time>
      </trkpt>
      <trkpt lat="47.59474" lon="6.78818">
        <ele>417.8</ele>
        <time>2017-10-15T08:05:05.999Z</time>
      </trkpt>
      <trkpt lat="47.59477" lon="6.78817">
        <ele>417.9</ele>
        <time>2017-10-15T08:05:06.999Z</time>
      </trkpt>
      <trkpt lat="47.5948" lon="6.78816">
        <ele>417.9</ele>
        <time>2017-10-15T08:05:07.999Z</time>
      </trkpt>
      <trkpt lat="47.59483" lon="6.78815">
        <ele>418.1</ele>
        <time>2017-10-15T08:05:08.999Z</time>
      </trkpt>
      <trkpt lat="47.59486" lon="6.78813">
        <ele>418.1</ele>
        <time>2017-10-15T08:05:09.999Z</time>
      </trkpt>
      <trkpt lat="47.59488" lon="6.78812">
        <ele>418.1</ele>
        <time>2017-10-15T08:05:10.999Z</time>
      </trkpt>
      <trkpt lat="47.59491" lon="6.78813">
        <ele>418.1</ele>
        <time>2017-10-15T08:05:11.999Z</time>
      </trkpt>
      <trkpt lat="47.59494" lon="6.78812">
        <ele>418.1</ele>
        <time>2017-10-15T08:05:12.999Z</time>
      </trkpt>
      <trkpt lat="47.59497" lon="6.78812">
        <ele>418</ele>
        <time>2017-10-15T08:05:13.999Z</time>
      </trkpt>
      <trkpt lat="47.59499" lon="6.78812">
        <ele>417.9</ele>
        <time>2017-10-15T08:05:14.999Z</time>
      </trkpt>
      <trkpt lat="47.59501" lon="6.78812">
        <ele>417.7</ele>
        <time>2017-10-15T08:05:15.999Z</time>
      </trkpt>
      <trkpt lat="47.59504" lon="6.78812">
        <ele>417.6</ele>
        <time>2017-10-15T08:05:16.999Z</time>
      </trkpt>
      <trkpt lat="47.59508" lon="6.78811">
        <ele>417.4</ele>
        <time>2017-10-15T08:05:17.999Z</time>
      </trkpt>
      <trkpt lat="47.59511" lon="6.7881">
        <ele>417.3</ele>
        <time>2017-10-15T08:05:18.999Z</time>
      </trkpt>
      <trkpt lat="47.59514" lon="6.7881">
        <ele>417.2</ele>
        <time>2017-10-15T08:05:19.999Z</time>
      </trkpt>
      <trkpt lat="47.59517" lon="6.7881">
        <ele>417.2</ele>
        <time>2017-10-15T08:05:20.999Z</time>
      </trkpt>
      <trkpt lat="47.59519" lon="6.7881">
        <ele>417</ele>
        <time>2017-10-15T08:05:21.999Z</time>
      </trkpt>
      <trkpt lat="47.59523" lon="6.78809">
        <ele>416.9</ele>
        <time>2017-10-15T08:05:22.999Z</time>
      </trkpt>
      <trkpt lat="47.59527" lon="6.78809">
        <ele>416.7</ele>
        <time>2017-10-15T08:05:23.999Z</time>
      </trkpt>
      <trkpt lat="47.59531" lon="6.78808">
        <ele>416.6</ele>
        <time>2017-10-15T08:05:24.999Z</time>
      </trkpt>
      <trkpt lat="47.59535" lon="6.78805">
        <ele>416.4</ele>
        <time>2017-10-15T08:05:25.999Z</time>
      </trkpt>
      <trkpt lat="47.59537" lon="6.78799">
        <ele>416.2</ele>
        <time>2017-10-15T08:05:26.999Z</time>
      </trkpt>
      <trkpt lat="47.59539" lon="6.78792">
        <ele>416</ele>
        <time>2017-10-15T08:05:27.999Z</time>
      </trkpt>
      <trkpt lat="47.59539" lon="6.78786">
        <ele>415.8</ele>
        <time>2017-10-15T08:05:28.999Z</time>
      </trkpt>
      <trkpt lat="47.5954" lon="6.78781">
        <ele>415.7</ele>
        <time>2017-10-15T08:05:29.999Z</time>
      </trkpt>
      <trkpt lat="47.59541" lon="6.78775">
        <ele>415.6</ele>
        <time>2017-10-15T08:05:30.999Z</time>
      </trkpt>
      <trkpt lat="47.59543" lon="6.78769">
        <ele>414</ele>
        <time>2017-10-15T08:05:31.999Z</time>
      </trkpt>
      <trkpt lat="47.59545" lon="6.78763">
        <ele>413.9</ele>
        <time>2017-10-15T08:05:32.999Z</time>
      </trkpt>
      <trkpt lat="47.59545" lon="6.78758">
        <ele>413.8</ele>
        <time>2017-10-15T08:05:33.999Z</time>
      </trkpt>
      <trkpt lat="47.59546" lon="6.78752">
        <ele>413.6</ele>
        <time>2017-10-15T08:05:34.999Z</time>
      </trkpt>
      <trkpt lat="47.59546" lon="6.78745">
        <ele>413.5</ele>
        <time>2017-10-15T08:05:35.999Z</time>
      </trkpt>
      <trkpt lat="47.59547" lon="6.7874">
        <ele>413.3</ele>
        <time>2017-10-15T08:05:36.999Z</time>
      </trkpt>
      <trkpt lat="47.59547" lon="6.78735">
        <ele>413.2</ele>
        <time>2017-10-15T08:05:37.999Z</time>
      </trkpt>
      <trkpt lat="47.59548" lon="6.78729">
        <ele>413.1</ele>
        <time>2017-10-15T08:05:38.999Z</time>
      </trkpt>
      <trkpt lat="47.59549" lon="6.78724">
        <ele>412.9</ele>
        <time>2017-10-15T08:05:39.999Z</time>
      </trkpt>
      <trkpt lat="47.59549" lon="6.78719">
        <ele>412.8</ele>
        <time>2017-10-15T08:05:40.999Z</time>
      </trkpt>
      <trkpt lat="47.59549" lon="6.78714">
        <ele>412.7</ele>
        <time>2017-10-15T08:05:41.999Z</time>
      </trkpt>
      <trkpt lat="47.5955" lon="6.78709">
        <ele>412.5</ele>
        <time>2017-10-15T08:05:42.999Z</time>
      </trkpt>
      <trkpt lat="47.59551" lon="6.78702">
        <ele>412.4</ele>
        <time>2017-10-15T08:05:43.999Z</time>
      </trkpt>
      <trkpt lat="47.59552" lon="6.78697">
        <ele>412.3</ele>
        <time>2017-10-15T08:05:44.999Z</time>
      </trkpt>
      <trkpt lat="47.59554" lon="6.78692">
        <ele>412.2</ele>
        <time>2017-10-15T08:05:45.999Z</time>
      </trkpt>
      <trkpt lat="47.59555" lon="6.78688">
        <ele>412.2</ele>
        <time>2017-10-15T08:05:46.999Z</time>
      </trkpt>
      <trkpt lat="47.59556" lon="6.78684">
        <ele>412.2</ele>
        <time>2017-10-15T08:05:47.999Z</time>
      </trkpt>
      <trkpt lat="47.59557" lon="6.78679">
        <ele>412.1</ele>
        <time>2017-10-15T08:05:48.999Z</time>
      </trkpt>
      <trkpt lat="47.59558" lon="6.78675">
        <ele>412.1</ele>
        <time>2017-10-15T08:05:49.999Z</time>
      </trkpt>
      <trkpt lat="47.59559" lon="6.7867">
        <ele>412</ele>
        <time>2017-10-15T08:05:50.999Z</time>
      </trkpt>
      <trkpt lat="47.59559" lon="6.78665">
        <ele>411.9</ele>
        <time>2017-10-15T08:05:51.999Z</time>
      </trkpt>
      <trkpt lat="47.59559" lon="6.78661">
        <ele>411.8</ele>
        <time>2017-10-15T08:05:52.999Z</time>
      </trkpt>
      <trkpt lat="47.59559" lon="6.78656">
        <ele>411.7</ele>
        <time>2017-10-15T08:05:53.999Z</time>
      </trkpt>
      <trkpt lat="47.59559" lon="6.78651">
        <ele>411.4</ele>
        <time>2017-10-15T08:05:54.999Z</time>
      </trkpt>
      <trkpt lat="47.5956" lon="6.78646">
        <ele>411.1</ele>
        <time>2017-10-15T08:05:55.999Z</time>
      </trkpt>
      <trkpt lat="47.59561" lon="6.7864">
        <ele>410.9</ele>
        <time>2017-10-15T08:05:56.999Z</time>
      </trkpt>
      <trkpt lat="47.59562" lon="6.78634">
        <ele>410.7</ele>
        <time>2017-10-15T08:05:57.999Z</time>
      </trkpt>
      <trkpt lat="47.59564" lon="6.78627">
        <ele>410.7</ele>
        <time>2017-10-15T08:05:58.999Z</time>
      </trkpt>
      <trkpt lat="47.59566" lon="6.78621">
        <ele>410.6</ele>
        <time>2017-10-15T08:05:59.999Z</time>
      </trkpt>
      <trkpt lat="47.59567" lon="6.78615">
        <ele>410.7</ele>
        <time>2017-10-15T08:06:00.999Z</time>
      </trkpt>
      <trkpt lat="47.59569" lon="6.78609">
        <ele>410.7</ele>
        <time>2017-10-15T08:06:01.999Z</time>
      </trkpt>
      <trkpt lat="47.59571" lon="6.78606">
        <ele>410.8</ele>
        <time>2017-10-15T08:06:02.999Z</time>
      </trkpt>
      <trkpt lat="47.59573" lon="6.78604">
        <ele>411</ele>
        <time>2017-10-15T08:06:03.999Z</time>
      </trkpt>
      <trkpt lat="47.59575" lon="6.78601">
        <ele>411</ele>
        <time>2017-10-15T08:06:04.999Z</time>
      </trkpt>
      <trkpt lat="47.59578" lon="6.78598">
        <ele>411.2</ele>
        <time>2017-10-15T08:06:05.999Z</time>
      </trkpt>
      <trkpt lat="47.59579" lon="6.78594">
        <ele>411.2</ele>
        <time>2017-10-15T08:06:06.999Z</time>
      </trkpt>
      <trkpt lat="47.59581" lon="6.78591">
        <ele>411.3</ele>
        <time>2017-10-15T08:06:07.999Z</time>
      </trkpt>
      <trkpt lat="47.59583" lon="6.78587">
        <ele>411.5</ele>
        <time>2017-10-15T08:06:08.999Z</time>
      </trkpt>
      <trkpt lat="47.59586" lon="6.78584">
        <ele>411.7</ele>
        <time>2017-10-15T08:06:09.999Z</time>
      </trkpt>
      <trkpt lat="47.59588" lon="6.78581">
        <ele>411.8</ele>
        <time>2017-10-15T08:06:10.999Z</time>
      </trkpt>
      <trkpt lat="47.5959" lon="6.78577">
        <ele>411.9</ele>
        <time>2017-10-15T08:06:11.999Z</time>
      </trkpt>
      <trkpt lat="47.59593" lon="6.78572">
        <ele>411.9</ele>
        <time>2017-10-15T08:06:12.999Z</time>
      </trkpt>
      <trkpt lat="47.59595" lon="6.78569">
        <ele>412</ele>
        <time>2017-10-15T08:06:13.999Z</time>
      </trkpt>
      <trkpt lat="47.59597" lon="6.78566">
        <ele>412.2</ele>
        <time>2017-10-15T08:06:14.999Z</time>
      </trkpt>
      <trkpt lat="47.59599" lon="6.78563">
        <ele>412.3</ele>
        <time>2017-10-15T08:06:15.999Z</time>
      </trkpt>
      <trkpt lat="47.59601" lon="6.7856">
        <ele>412.4</ele>
        <time>2017-10-15T08:06:16.999Z</time>
      </trkpt>
      <trkpt lat="47.59602" lon="6.78558">
        <ele>412.6</ele>
        <time>2017-10-15T08:06:17.999Z</time>
      </trkpt>
      <trkpt lat="47.59605" lon="6.78556">
        <ele>412.7</ele>
        <time>2017-10-15T08:06:18.999Z</time>
      </trkpt>
      <trkpt lat="47.59607" lon="6.78553">
        <ele>412.9</ele>
        <time>2017-10-15T08:06:19.999Z</time>
      </trkpt>
      <trkpt lat="47.59608" lon="6.7855">
        <ele>413</ele>
        <time>2017-10-15T08:06:20.999Z</time>
      </trkpt>
      <trkpt lat="47.5961" lon="6.78546">
        <ele>413.2</ele>
        <time>2017-10-15T08:06:21.999Z</time>
      </trkpt>
      <trkpt lat="47.59611" lon="6.78542">
        <ele>413.4</ele>
        <time>2017-10-15T08:06:22.999Z</time>
      </trkpt>
      <trkpt lat="47.59613" lon="6.78539">
        <ele>413.6</ele>
        <time>2017-10-15T08:06:23.999Z</time>
      </trkpt>
      <trkpt lat="47.59614" lon="6.78535">
        <ele>413.8</ele>
        <time>2017-10-15T08:06:24.999Z</time>
      </trkpt>
      <trkpt lat="47.59616" lon="6.78532">
        <ele>414.1</ele>
        <time>2017-10-15T08:06:25.999Z</time>
      </trkpt>
      <trkpt lat="47.59618" lon="6.78528">
        <ele>414.3</ele>
        <time>2017-10-15T08:06:26.999Z</time>
      </trkpt>
      <trkpt lat="47.5962" lon="6.78525">
        <ele>414.6</ele>
        <time>2017-10-15T08:06:27.999Z</time>
      </trkpt>
      <trkpt lat="47.59622" lon="6.78521">
        <ele>414.9</ele>
        <time>2017-10-15T08:06:28.999Z</time>
      </trkpt>
      <trkpt lat="47.59623" lon="6.78516">
        <ele>415.2</ele>
        <time>2017-10-15T08:06:29.999Z</time>
      </trkpt>
      <trkpt lat="47.59624" lon="6.78512">
        <ele>415.6</ele>
        <time>2017-10-15T08:06:30.999Z</time>
      </trkpt>
      <trkpt lat="47.59624" lon="6.78507">
        <ele>415.9</ele>
        <time>2017-10-15T08:06:31.999Z</time>
      </trkpt>
      <trkpt lat="47.59626" lon="6.78504">
        <ele>416.3</ele>
        <time>2017-10-15T08:06:32.999Z</time>
      </trkpt>
      <trkpt lat="47.59627" lon="6.78501">
        <ele>416.7</ele>
        <time>2017-10-15T08:06:33.999Z</time>
      </trkpt>
      <trkpt lat="47.59628" lon="6.78498">
        <ele>417</ele>
        <time>2017-10-15T08:06:34.999Z</time>
      </trkpt>
      <trkpt lat="47.59629" lon="6.78495">
        <ele>417.2</ele>
        <time>2017-10-15T08:06:35.999Z</time>
      </trkpt>
      <trkpt lat="47.59631" lon="6.78491">
        <ele>417.5</ele>
        <time>2017-10-15T08:06:36.999Z</time>
      </trkpt>
      <trkpt lat="47.59632" lon="6.78487">
        <ele>417.8</ele>
        <time>2017-10-15T08:06:37.999Z</time>
      </trkpt>
      <trkpt lat="47.59633" lon="6.78483">
        <ele>418.1</ele>
        <time>2017-10-15T08:06:38.999Z</time>
      </trkpt>
      <trkpt lat="47.59634" lon="6.7848">
        <ele>418.5</ele>
        <time>2017-10-15T08:06:39.999Z</time>
      </trkpt>
      <trkpt lat="47.59635" lon="6.78477">
        <ele>418.8</ele>
        <time>2017-10-15T08:06:40.999Z</time>
      </trkpt>
      <trkpt lat="47.59637" lon="6.78474">
        <ele>419.1</ele>
        <time>2017-10-15T08:06:41.999Z</time>
      </trkpt>
      <trkpt lat="47.59638" lon="6.78471">
        <ele>419.5</ele>
        <time>2017-10-15T08:06:42.999Z</time>
      </trkpt>
      <trkpt lat="47.5964" lon="6.78468">
        <ele>419.7</ele>
        <time>2017-10-15T08:06:43.999Z</time>
      </trkpt>
      <trkpt lat="47.59642" lon="6.78465">
        <ele>420.1</ele>
        <time>2017-10-15T08:06:44.999Z</time>
      </trkpt>
      <trkpt lat="47.59643" lon="6.78462">
        <ele>420.4</ele>
        <time>2017-10-15T08:06:45.999Z</time>
      </trkpt>
      <trkpt lat="47.59645" lon="6.78458">
        <ele>420.7</ele>
        <time>2017-10-15T08:06:46.999Z</time>
      </trkpt>
      <trkpt lat="47.59647" lon="6.78454">
        <ele>421</ele>
        <time>2017-10-15T08:06:47.999Z</time>
      </trkpt>
      <trkpt lat="47.59649" lon="6.78451">
        <ele>421.3</ele>
        <time>2017-10-15T08:06:48.999Z</time>
      </trkpt>
      <trkpt lat="47.5965" lon="6.78447">
        <ele>421.6</ele>
        <time>2017-10-15T08:06:49.999Z</time>
      </trkpt>
      <trkpt lat="47.59651" lon="6.78443">
        <ele>421.9</ele>
        <time>2017-10-15T08:06:50.999Z</time>
      </trkpt>
      <trkpt lat="47.59653" lon="6.78439">
        <ele>422.2</ele>
        <time>2017-10-15T08:06:51.999Z</time>
      </trkpt>
      <trkpt lat="47.59655" lon="6.78435">
        <ele>422.5</ele>
        <time>2017-10-15T08:06:52.999Z</time>
      </trkpt>
      <trkpt lat="47.59657" lon="6.78432">
        <ele>422.8</ele>
        <time>2017-10-15T08:06:53.999Z</time>
      </trkpt>
      <trkpt lat="47.59658" lon="6.78429">
        <ele>423.1</ele>
        <time>2017-10-15T08:06:54.999Z</time>
      </trkpt>
      <trkpt lat="47.5966" lon="6.78427">
        <ele>423.4</ele>
        <time>2017-10-15T08:06:55.999Z</time>
      </trkpt>
      <trkpt lat="47.59662" lon="6.78424">
        <ele>423.6</ele>
        <time>2017-10-15T08:06:56.999Z</time>
      </trkpt>
      <trkpt lat="47.59664" lon="6.78421">
        <ele>423.9</ele>
        <time>2017-10-15T08:06:57.999Z</time>
      </trkpt>
      <trkpt lat="47.59665" lon="6.78418">
        <ele>424.1</ele>
        <time>2017-10-15T08:06:58.999Z</time>
      </trkpt>
      <trkpt lat="47.59667" lon="6.78415">
        <ele>424.4</ele>
        <time>2017-10-15T08:06:59.999Z</time>
      </trkpt>
      <trkpt lat="47.59669" lon="6.78413">
        <ele>424.6</ele>
        <time>2017-10-15T08:07:00.999Z</time>
      </trkpt>
      <trkpt lat="47.59672" lon="6.78409">
        <ele>425</ele>
        <time>2017-10-15T08:07:02.999Z</time>
      </trkpt>
      <trkpt lat="47.59674" lon="6.78407">
        <ele>425.3</ele>
        <time>2017-10-15T08:07:03.999Z</time>
      </trkpt>
      <trkpt lat="47.59676" lon="6.78404">
        <ele>425.4</ele>
        <time>2017-10-15T08:07:04.999Z</time>
      </trkpt>
      <trkpt lat="47.59679" lon="6.78401">
        <ele>425.6</ele>
        <time>2017-10-15T08:07:05.999Z</time>
      </trkpt>
      <trkpt lat="47.59682" lon="6.78399">
        <ele>425.7</ele>
        <time>2017-10-15T08:07:06.999Z</time>
      </trkpt>
      <trkpt lat="47.59685" lon="6.78397">
        <ele>425.8</ele>
        <time>2017-10-15T08:07:07.999Z</time>
      </trkpt>
      <trkpt lat="47.59687" lon="6.78395">
        <ele>425.9</ele>
        <time>2017-10-15T08:07:08.999Z</time>
      </trkpt>
      <trkpt lat="47.59689" lon="6.78393">
        <ele>426.1</ele>
        <time>2017-10-15T08:07:09.999Z</time>
      </trkpt>
      <trkpt lat="47.59692" lon="6.78391">
        <ele>426.4</ele>
        <time>2017-10-15T08:07:12.999Z</time>
      </trkpt>
      <trkpt lat="47.59694" lon="6.78391">
        <ele>426.4</ele>
        <time>2017-10-15T08:07:13.999Z</time>
      </trkpt>
      <trkpt lat="47.59697" lon="6.7839">
        <ele>426.4</ele>
        <time>2017-10-15T08:07:15.999Z</time>
      </trkpt>
      <trkpt lat="47.59699" lon="6.78389">
        <ele>426.4</ele>
        <time>2017-10-15T08:07:16.999Z</time>
      </trkpt>
      <trkpt lat="47.59701" lon="6.78388">
        <ele>426.4</ele>
        <time>2017-10-15T08:07:17.999Z</time>
      </trkpt>
      <trkpt lat="47.59704" lon="6.78386">
        <ele>426.3</ele>
        <time>2017-10-15T08:07:18.999Z</time>
      </trkpt>
      <trkpt lat="47.59707" lon="6.78384">
        <ele>426.2</ele>
        <time>2017-10-15T08:07:19.999Z</time>
      </trkpt>
      <trkpt lat="47.59709" lon="6.78383">
        <ele>426.1</ele>
        <time>2017-10-15T08:07:20.999Z</time>
      </trkpt>
      <trkpt lat="47.59712" lon="6.78382">
        <ele>426</ele>
        <time>2017-10-15T08:07:21.999Z</time>
      </trkpt>
      <trkpt lat="47.59714" lon="6.78381">
        <ele>426</ele>
        <time>2017-10-15T08:07:22.999Z</time>
      </trkpt>
      <trkpt lat="47.59718" lon="6.78379">
        <ele>425.9</ele>
        <time>2017-10-15T08:07:24.999Z</time>
      </trkpt>
      <trkpt lat="47.5972" lon="6.78379">
        <ele>425.9</ele>
        <time>2017-10-15T08:07:25.999Z</time>
      </trkpt>
      <trkpt lat="47.59724" lon="6.78378">
        <ele>425.9</ele>
        <time>2017-10-15T08:07:27.999Z</time>
      </trkpt>
      <trkpt lat="47.59727" lon="6.78378">
        <ele>425.9</ele>
        <time>2017-10-15T08:07:28.999Z</time>
      </trkpt>
      <trkpt lat="47.59731" lon="6.78378">
        <ele>425.6</ele>
        <time>2017-10-15T08:07:30.999Z</time>
      </trkpt>
      <trkpt lat="47.59733" lon="6.78378">
        <ele>425.6</ele>
        <time>2017-10-15T08:07:31.999Z</time>
      </trkpt>
      <trkpt lat="47.59735" lon="6.78375">
        <ele>425.5</ele>
        <time>2017-10-15T08:07:32.999Z</time>
      </trkpt>
      <trkpt lat="47.59738" lon="6.78372">
        <ele>425.3</ele>
        <time>2017-10-15T08:07:33.999Z</time>
      </trkpt>
      <trkpt lat="47.59741" lon="6.7837">
        <ele>425.2</ele>
        <time>2017-10-15T08:07:34.999Z</time>
      </trkpt>
      <trkpt lat="47.59743" lon="6.78368">
        <ele>425.1</ele>
        <time>2017-10-15T08:07:35.999Z</time>
      </trkpt>
      <trkpt lat="47.59745" lon="6.78364">
        <ele>425</ele>
        <time>2017-10-15T08:07:36.999Z</time>
      </trkpt>
      <trkpt lat="47.59746" lon="6.78361">
        <ele>424.9</ele>
        <time>2017-10-15T08:07:37.999Z</time>
      </trkpt>
      <trkpt lat="47.59748" lon="6.78358">
        <ele>424.8</ele>
        <time>2017-10-15T08:07:38.999Z</time>
      </trkpt>
      <trkpt lat="47.5975" lon="6.78355">
        <ele>424.7</ele>
        <time>2017-10-15T08:07:39.999Z</time>
      </trkpt>
      <trkpt lat="47.5975" lon="6.78351">
        <ele>424.5</ele>
        <time>2017-10-15T08:07:40.999Z</time>
      </trkpt>
      <trkpt lat="47.59752" lon="6.78349">
        <ele>424.3</ele>
        <time>2017-10-15T08:07:41.999Z</time>
      </trkpt>
      <trkpt lat="47.59754" lon="6.78345">
        <ele>424.1</ele>
        <time>2017-10-15T08:07:42.999Z</time>
      </trkpt>
      <trkpt lat="47.59754" lon="6.78342">
        <ele>423.9</ele>
        <time>2017-10-15T08:07:43.999Z</time>
      </trkpt>
      <trkpt lat="47.59754" lon="6.78339">
        <ele>423.8</ele>
        <time>2017-10-15T08:07:44.999Z</time>
      </trkpt>
      <trkpt lat="47.59756" lon="6.78335">
        <ele>423.5</ele>
        <time>2017-10-15T08:07:45.999Z</time>
      </trkpt>
      <trkpt lat="47.59757" lon="6.78333">
        <ele>423.9</ele>
        <time>2017-10-15T08:07:58.999Z</time>
      </trkpt>
      <trkpt lat="47.59745" lon="6.78323">
        <ele>423.9</ele>
        <time>2017-10-15T08:07:59.999Z</time>
      </trkpt>
      <trkpt lat="47.59742" lon="6.78323">
        <ele>423.9</ele>
        <time>2017-10-15T08:08:00.999Z</time>
      </trkpt>
      <trkpt lat="47.59739" lon="6.78323">
        <ele>424</ele>
        <time>2017-10-15T08:08:01.999Z</time>
      </trkpt>
      <trkpt lat="47.59736" lon="6.78323">
        <ele>423.9</ele>
        <time>2017-10-15T08:08:02.999Z</time>
      </trkpt>
      <trkpt lat="47.59733" lon="6.78322">
        <ele>423.8</ele>
        <time>2017-10-15T08:08:03.999Z</time>
      </trkpt>
      <trkpt lat="47.59729" lon="6.7832">
        <ele>423.8</ele>
        <time>2017-10-15T08:08:04.999Z</time>
      </trkpt>
      <trkpt lat="47.59725" lon="6.78319">
        <ele>423.7</ele>
        <time>2017-10-15T08:08:05.999Z</time>
      </trkpt>
      <trkpt lat="47.59722" lon="6.78318">
        <ele>423.8</ele>
        <time>2017-10-15T08:08:06.999Z</time>
      </trkpt>
      <trkpt lat="47.59719" lon="6.78317">
        <ele>423.9</ele>
        <time>2017-10-15T08:08:07.999Z</time>
      </trkpt>
      <trkpt lat="47.59716" lon="6.78316">
        <ele>424</ele>
        <time>2017-10-15T08:08:08.999Z</time>
      </trkpt>
      <trkpt lat="47.59712" lon="6.78316">
        <ele>424.1</ele>
        <time>2017-10-15T08:08:09.999Z</time>
      </trkpt>
      <trkpt lat="47.59709" lon="6.78316">
        <ele>424.1</ele>
        <time>2017-10-15T08:08:10.999Z</time>
      </trkpt>
      <trkpt lat="47.59705" lon="6.78316">
        <ele>424.1</ele>
        <time>2017-10-15T08:08:11.999Z</time>
      </trkpt>
      <trkpt lat="47.59701" lon="6.78316">
        <ele>424</ele>
        <time>2017-10-15T08:08:12.999Z</time>
      </trkpt>
      <trkpt lat="47.59696" lon="6.78316">
        <ele>423.9</ele>
        <time>2017-10-15T08:08:13.999Z</time>
      </trkpt>
      <trkpt lat="47.59691" lon="6.78318">
        <ele>423.8</ele>
        <time>2017-10-15T08:08:14.999Z</time>
      </trkpt>
      <trkpt lat="47.59686" lon="6.7832">
        <ele>423.7</ele>
        <time>2017-10-15T08:08:15.999Z</time>
      </trkpt>
      <trkpt lat="47.59682" lon="6.7832">
        <ele>423.6</ele>
        <time>2017-10-15T08:08:16.999Z</time>
      </trkpt>
      <trkpt lat="47.59676" lon="6.78321">
        <ele>422.5</ele>
        <time>2017-10-15T08:08:17.999Z</time>
      </trkpt>
      <trkpt lat="47.59671" lon="6.78322">
        <ele>422.4</ele>
        <time>2017-10-15T08:08:18.999Z</time>
      </trkpt>
      <trkpt lat="47.59666" lon="6.78324">
        <ele>422.3</ele>
        <time>2017-10-15T08:08:19.999Z</time>
      </trkpt>
      <trkpt lat="47.59662" lon="6.78325">
        <ele>422.1</ele>
        <time>2017-10-15T08:08:20.999Z</time>
      </trkpt>
      <trkpt lat="47.59658" lon="6.78325">
        <ele>422</ele>
        <time>2017-10-15T08:08:21.999Z</time>
      </trkpt>
      <trkpt lat="47.59653" lon="6.78326">
        <ele>419.7</ele>
        <time>2017-10-15T08:08:22.999Z</time>
      </trkpt>
      <trkpt lat="47.59648" lon="6.78327">
        <ele>417.9</ele>
        <time>2017-10-15T08:08:23.999Z</time>
      </trkpt>
      <trkpt lat="47.59643" lon="6.78329">
        <ele>416.5</ele>
        <time>2017-10-15T08:08:24.999Z</time>
      </trkpt>
      <trkpt lat="47.59637" lon="6.7833">
        <ele>415</ele>
        <time>2017-10-15T08:08:25.999Z</time>
      </trkpt>
      <trkpt lat="47.59633" lon="6.78331">
        <ele>414.9</ele>
        <time>2017-10-15T08:08:26.999Z</time>
      </trkpt>
      <trkpt lat="47.59629" lon="6.78333">
        <ele>413.7</ele>
        <time>2017-10-15T08:08:27.999Z</time>
      </trkpt>
      <trkpt lat="47.59625" lon="6.78334">
        <ele>413.2</ele>
        <time>2017-10-15T08:08:28.999Z</time>
      </trkpt>
      <trkpt lat="47.5962" lon="6.78335">
        <ele>412.5</ele>
        <time>2017-10-15T08:08:29.999Z</time>
      </trkpt>
      <trkpt lat="47.59615" lon="6.78337">
        <ele>412.3</ele>
        <time>2017-10-15T08:08:30.999Z</time>
      </trkpt>
      <trkpt lat="47.5961" lon="6.78339">
        <ele>411.7</ele>
        <time>2017-10-15T08:08:31.999Z</time>
      </trkpt>
      <trkpt lat="47.59605" lon="6.78341">
        <ele>411.8</ele>
        <time>2017-10-15T08:08:32.999Z</time>
      </trkpt>
      <trkpt lat="47.596" lon="6.78344">
        <ele>411.8</ele>
        <time>2017-10-15T08:08:33.999Z</time>
      </trkpt>
      <trkpt lat="47.59594" lon="6.78349">
        <ele>411.9</ele>
        <time>2017-10-15T08:08:34.999Z</time>
      </trkpt>
      <trkpt lat="47.5959" lon="6.78353">
        <ele>411.9</ele>
        <time>2017-10-15T08:08:35.999Z</time>
      </trkpt>
      <trkpt lat="47.59585" lon="6.78357">
        <ele>412.2</ele>
        <time>2017-10-15T08:08:36.999Z</time>
      </trkpt>
      <trkpt lat="47.5958" lon="6.78361">
        <ele>412.4</ele>
        <time>2017-10-15T08:08:37.999Z</time>
      </trkpt>
      <trkpt lat="47.59577" lon="6.78364">
        <ele>412.7</ele>
        <time>2017-10-15T08:08:38.999Z</time>
      </trkpt>
      <trkpt lat="47.59573" lon="6.78369">
        <ele>412.1</ele>
        <time>2017-10-15T08:08:39.999Z</time>
      </trkpt>
      <trkpt lat="47.59569" lon="6.78375">
        <ele>412.3</ele>
        <time>2017-10-15T08:08:40.999Z</time>
      </trkpt>
      <trkpt lat="47.59566" lon="6.78381">
        <ele>411.9</ele>
        <time>2017-10-15T08:08:41.999Z</time>
      </trkpt>
      <trkpt lat="47.59562" lon="6.78387">
        <ele>411.2</ele>
        <time>2017-10-15T08:08:42.999Z</time>
      </trkpt>
      <trkpt lat="47.59556" lon="6.78392">
        <ele>410.1</ele>
        <time>2017-10-15T08:08:43.999Z</time>
      </trkpt>
      <trkpt lat="47.59549" lon="6.78396">
        <ele>408.6</ele>
        <time>2017-10-15T08:08:44.999Z</time>
      </trkpt>
      <trkpt lat="47.59543" lon="6.78398">
        <ele>407.9</ele>
        <time>2017-10-15T08:08:45.999Z</time>
      </trkpt>
      <trkpt lat="47.59536" lon="6.78399">
        <ele>407.2</ele>
        <time>2017-10-15T08:08:46.999Z</time>
      </trkpt>
      <trkpt lat="47.59532" lon="6.78399">
        <ele>407.2</ele>
        <time>2017-10-15T08:08:47.999Z</time>
      </trkpt>
      <trkpt lat="47.59528" lon="6.78392">
        <ele>406.9</ele>
        <time>2017-10-15T08:08:48.999Z</time>
      </trkpt>
      <trkpt lat="47.59527" lon="6.78388">
        <ele>406.9</ele>
        <time>2017-10-15T08:08:49.999Z</time>
      </trkpt>
      <trkpt lat="47.59526" lon="6.78383">
        <ele>406.8</ele>
        <time>2017-10-15T08:08:50.999Z</time>
      </trkpt>
      <trkpt lat="47.59528" lon="6.78379">
        <ele>406.8</ele>
        <time>2017-10-15T08:08:53.999Z</time>
      </trkpt>
      <trkpt lat="47.5953" lon="6.78378">
        <ele>406.8</ele>
        <time>2017-10-15T08:08:54.999Z</time>
      </trkpt>
      <trkpt lat="47.59532" lon="6.78374">
        <ele>406.8</ele>
        <time>2017-10-15T08:08:55.999Z</time>
      </trkpt>
      <trkpt lat="47.59533" lon="6.78369">
        <ele>406.8</ele>
        <time>2017-10-15T08:08:56.999Z</time>
      </trkpt>
      <trkpt lat="47.59535" lon="6.78365">
        <ele>406.9</ele>
        <time>2017-10-15T08:08:57.999Z</time>
      </trkpt>
      <trkpt lat="47.59539" lon="6.78361">
        <ele>406.9</ele>
        <time>2017-10-15T08:08:58.999Z</time>
      </trkpt>
      <trkpt lat="47.59544" lon="6.78358">
        <ele>406.6</ele>
        <time>2017-10-15T08:08:59.999Z</time>
      </trkpt>
      <trkpt lat="47.5955" lon="6.78354">
        <ele>405.9</ele>
        <time>2017-10-15T08:09:00.999Z</time>
      </trkpt>
      <trkpt lat="47.59555" lon="6.78351">
        <ele>405.9</ele>
        <time>2017-10-15T08:09:01.999Z</time>
      </trkpt>
      <trkpt lat="47.59562" lon="6.78347">
        <ele>405.9</ele>
        <time>2017-10-15T08:09:02.999Z</time>
      </trkpt>
      <trkpt lat="47.59566" lon="6.78346">
        <ele>405.7</ele>
        <time>2017-10-15T08:09:03.999Z</time>
      </trkpt>
      <trkpt lat="47.59571" lon="6.78343">
        <ele>405.3</ele>
        <time>2017-10-15T08:09:04.999Z</time>
      </trkpt>
      <trkpt lat="47.59577" lon="6.78339">
        <ele>405.5</ele>
        <time>2017-10-15T08:09:05.999Z</time>
      </trkpt>
      <trkpt lat="47.59584" lon="6.78335">
        <ele>406.2</ele>
        <time>2017-10-15T08:09:06.999Z</time>
      </trkpt>
      <trkpt lat="47.59591" lon="6.78331">
        <ele>406.4</ele>
        <time>2017-10-15T08:09:07.999Z</time>
      </trkpt>
      <trkpt lat="47.59598" lon="6.78326">
        <ele>406.2</ele>
        <time>2017-10-15T08:09:08.999Z</time>
      </trkpt>
      <trkpt lat="47.59605" lon="6.78317">
        <ele>406.1</ele>
        <time>2017-10-15T08:09:09.999Z</time>
      </trkpt>
      <trkpt lat="47.59613" lon="6.78308">
        <ele>406.1</ele>
        <time>2017-10-15T08:09:10.999Z</time>
      </trkpt>
      <trkpt lat="47.5962" lon="6.783">
        <ele>406</ele>
        <time>2017-10-15T08:09:11.999Z</time>
      </trkpt>
      <trkpt lat="47.59627" lon="6.78292">
        <ele>405.2</ele>
        <time>2017-10-15T08:09:12.999Z</time>
      </trkpt>
      <trkpt lat="47.59634" lon="6.78283">
        <ele>404.2</ele>
        <time>2017-10-15T08:09:13.999Z</time>
      </trkpt>
      <trkpt lat="47.5964" lon="6.78275">
        <ele>403.4</ele>
        <time>2017-10-15T08:09:14.999Z</time>
      </trkpt>
      <trkpt lat="47.59647" lon="6.78266">
        <ele>402.8</ele>
        <time>2017-10-15T08:09:15.999Z</time>
      </trkpt>
      <trkpt lat="47.59654" lon="6.78256">
        <ele>401.9</ele>
        <time>2017-10-15T08:09:16.999Z</time>
      </trkpt>
      <trkpt lat="47.59661" lon="6.78245">
        <ele>401.3</ele>
        <time>2017-10-15T08:09:17.999Z</time>
      </trkpt>
      <trkpt lat="47.59668" lon="6.78235">
        <ele>401.2</ele>
        <time>2017-10-15T08:09:18.999Z</time>
      </trkpt>
      <trkpt lat="47.59674" lon="6.78226">
        <ele>401.1</ele>
        <time>2017-10-15T08:09:19.999Z</time>
      </trkpt>
      <trkpt lat="47.59682" lon="6.78219">
        <ele>400.9</ele>
        <time>2017-10-15T08:09:20.999Z</time>
      </trkpt>
      <trkpt lat="47.59689" lon="6.78214">
        <ele>400.9</ele>
        <time>2017-10-15T08:09:21.999Z</time>
      </trkpt>
      <trkpt lat="47.59695" lon="6.7821">
        <ele>400.1</ele>
        <time>2017-10-15T08:09:22.999Z</time>
      </trkpt>
      <trkpt lat="47.59702" lon="6.78206">
        <ele>399.8</ele>
        <time>2017-10-15T08:09:23.999Z</time>
      </trkpt>
      <trkpt lat="47.5971" lon="6.78202">
        <ele>399.4</ele>
        <time>2017-10-15T08:09:24.999Z</time>
      </trkpt>
      <trkpt lat="47.59718" lon="6.78203">
        <ele>398.9</ele>
        <time>2017-10-15T08:09:25.999Z</time>
      </trkpt>
      <trkpt lat="47.59726" lon="6.78203">
        <ele>398.9</ele>
        <time>2017-10-15T08:09:26.999Z</time>
      </trkpt>
      <trkpt lat="47.59734" lon="6.78201">
        <ele>398.3</ele>
        <time>2017-10-15T08:09:27.999Z</time>
      </trkpt>
      <trkpt lat="47.59743" lon="6.78196">
        <ele>397.3</ele>
        <time>2017-10-15T08:09:28.999Z</time>
      </trkpt>
      <trkpt lat="47.59746" lon="6.78187">
        <ele>395.8</ele>
        <time>2017-10-15T08:09:29.999Z</time>
      </trkpt>
      <trkpt lat="47.59745" lon="6.78177">
        <ele>395.1</ele>
        <time>2017-10-15T08:09:30.999Z</time>
      </trkpt>
      <trkpt lat="47.5974" lon="6.78168">
        <ele>393.9</ele>
        <time>2017-10-15T08:09:31.999Z</time>
      </trkpt>
      <trkpt lat="47.59735" lon="6.7816">
        <ele>392.8</ele>
        <time>2017-10-15T08:09:32.999Z</time>
      </trkpt>
      <trkpt lat="47.59729" lon="6.78154">
        <ele>391.7</ele>
        <time>2017-10-15T08:09:33.999Z</time>
      </trkpt>
      <trkpt lat="47.59723" lon="6.78151">
        <ele>391.7</ele>
        <time>2017-10-15T08:09:34.999Z</time>
      </trkpt>
      <trkpt lat="47.59717" lon="6.78149">
        <ele>391.6</ele>
        <time>2017-10-15T08:09:35.999Z</time>
      </trkpt>
      <trkpt lat="47.59712" lon="6.78148">
        <ele>391.6</ele>
        <time>2017-10-15T08:09:36.999Z</time>
      </trkpt>
      <trkpt lat="47.59708" lon="6.78147">
        <ele>391.6</ele>
        <time>2017-10-15T08:09:37.999Z</time>
      </trkpt>
      <trkpt lat="47.59703" lon="6.78148">
        <ele>391.5</ele>
        <time>2017-10-15T08:09:38.999Z</time>
      </trkpt>
      <trkpt lat="47.59699" lon="6.78148">
        <ele>391.6</ele>
        <time>2017-10-15T08:09:39.999Z</time>
      </trkpt>
      <trkpt lat="47.59694" lon="6.78146">
        <ele>391.8</ele>
        <time>2017-10-15T08:09:40.999Z</time>
      </trkpt>
      <trkpt lat="47.5969" lon="6.78146">
        <ele>391.9</ele>
        <time>2017-10-15T08:09:41.999Z</time>
      </trkpt>
      <trkpt lat="47.59685" lon="6.78146">
        <ele>392.1</ele>
        <time>2017-10-15T08:09:42.999Z</time>
      </trkpt>
      <trkpt lat="47.59682" lon="6.78146">
        <ele>392.3</ele>
        <time>2017-10-15T08:09:43.999Z</time>
      </trkpt>
      <trkpt lat="47.59679" lon="6.78146">
        <ele>392.4</ele>
        <time>2017-10-15T08:09:44.999Z</time>
      </trkpt>
      <trkpt lat="47.59676" lon="6.78145">
        <ele>392.5</ele>
        <time>2017-10-15T08:09:45.999Z</time>
      </trkpt>
      <trkpt lat="47.59673" lon="6.78143">
        <ele>392.6</ele>
        <time>2017-10-15T08:09:46.999Z</time>
      </trkpt>
      <trkpt lat="47.5967" lon="6.7814">
        <ele>392.8</ele>
        <time>2017-10-15T08:09:47.999Z</time>
      </trkpt>
      <trkpt lat="47.59668" lon="6.78139">
        <ele>392.9</ele>
        <time>2017-10-15T08:09:48.999Z</time>
      </trkpt>
      <trkpt lat="47.59664" lon="6.78138">
        <ele>393.1</ele>
        <time>2017-10-15T08:09:50.999Z</time>
      </trkpt>
      <trkpt lat="47.59662" lon="6.78137">
        <ele>393.1</ele>
        <time>2017-10-15T08:09:51.999Z</time>
      </trkpt>
      <trkpt lat="47.59659" lon="6.78136">
        <ele>393.2</ele>
        <time>2017-10-15T08:09:52.999Z</time>
      </trkpt>
      <trkpt lat="47.59657" lon="6.78134">
        <ele>393.2</ele>
        <time>2017-10-15T08:09:53.999Z</time>
      </trkpt>
      <trkpt lat="47.59654" lon="6.78132">
        <ele>393.3</ele>
        <time>2017-10-15T08:09:54.999Z</time>
      </trkpt>
      <trkpt lat="47.59651" lon="6.78132">
        <ele>393.5</ele>
        <time>2017-10-15T08:09:55.999Z</time>
      </trkpt>
      <trkpt lat="47.59649" lon="6.78131">
        <ele>393.5</ele>
        <time>2017-10-15T08:09:56.999Z</time>
      </trkpt>
      <trkpt lat="47.59646" lon="6.78131">
        <ele>393.5</ele>
        <time>2017-10-15T08:09:57.999Z</time>
      </trkpt>
      <trkpt lat="47.59642" lon="6.78131">
        <ele>393.8</ele>
        <time>2017-10-15T08:09:59.999Z</time>
      </trkpt>
      <trkpt lat="47.5964" lon="6.78131">
        <ele>393.9</ele>
        <time>2017-10-15T08:10:00.999Z</time>
      </trkpt>
      <trkpt lat="47.59638" lon="6.78131">
        <ele>394</ele>
        <time>2017-10-15T08:10:01.999Z</time>
      </trkpt>
      <trkpt lat="47.59635" lon="6.78131">
        <ele>394.1</ele>
        <time>2017-10-15T08:10:02.999Z</time>
      </trkpt>
      <trkpt lat="47.59632" lon="6.78132">
        <ele>394.3</ele>
        <time>2017-10-15T08:10:03.999Z</time>
      </trkpt>
      <trkpt lat="47.59629" lon="6.78133">
        <ele>394.5</ele>
        <time>2017-10-15T08:10:04.999Z</time>
      </trkpt>
      <trkpt lat="47.59627" lon="6.78134">
        <ele>394.6</ele>
        <time>2017-10-15T08:10:05.999Z</time>
      </trkpt>
      <trkpt lat="47.59624" lon="6.78135">
        <ele>394.7</ele>
        <time>2017-10-15T08:10:06.999Z</time>
      </trkpt>
      <trkpt lat="47.59621" lon="6.78135">
        <ele>394.8</ele>
        <time>2017-10-15T08:10:08.999Z</time>
      </trkpt>
      <trkpt lat="47.59619" lon="6.78136">
        <ele>394.8</ele>
        <time>2017-10-15T08:10:09.999Z</time>
      </trkpt>
      <trkpt lat="47.59615" lon="6.78138">
        <ele>395</ele>
        <time>2017-10-15T08:10:11.999Z</time>
      </trkpt>
      <trkpt lat="47.59613" lon="6.78139">
        <ele>395</ele>
        <time>2017-10-15T08:10:12.999Z</time>
      </trkpt>
      <trkpt lat="47.5961" lon="6.78142">
        <ele>395.1</ele>
        <time>2017-10-15T08:10:14.999Z</time>
      </trkpt>
      <trkpt lat="47.59607" lon="6.78143">
        <ele>395.2</ele>
        <time>2017-10-15T08:10:15.999Z</time>
      </trkpt>
      <trkpt lat="47.59605" lon="6.78144">
        <ele>395.4</ele>
        <time>2017-10-15T08:10:16.999Z</time>
      </trkpt>
      <trkpt lat="47.59602" lon="6.78145">
        <ele>395.5</ele>
        <time>2017-10-15T08:10:17.999Z</time>
      </trkpt>
      <trkpt lat="47.596" lon="6.78146">
        <ele>395.6</ele>
        <time>2017-10-15T08:10:18.999Z</time>
      </trkpt>
      <trkpt lat="47.59598" lon="6.78147">
        <ele>395.8</ele>
        <time>2017-10-15T08:10:19.999Z</time>
      </trkpt>
      <trkpt lat="47.59595" lon="6.78147">
        <ele>395.9</ele>
        <time>2017-10-15T08:10:20.999Z</time>
      </trkpt>
      <trkpt lat="47.59592" lon="6.78148">
        <ele>396</ele>
        <time>2017-10-15T08:10:21.999Z</time>
      </trkpt>
      <trkpt lat="47.5959" lon="6.7815">
        <ele>396.1</ele>
        <time>2017-10-15T08:10:22.999Z</time>
      </trkpt>
      <trkpt lat="47.59588" lon="6.78152">
        <ele>396.3</ele>
        <time>2017-10-15T08:10:23.999Z</time>
      </trkpt>
      <trkpt lat="47.59586" lon="6.78153">
        <ele>396.4</ele>
        <time>2017-10-15T08:10:24.999Z</time>
      </trkpt>
      <trkpt lat="47.59584" lon="6.78156">
        <ele>396.6</ele>
        <time>2017-10-15T08:10:25.999Z</time>
      </trkpt>
      <trkpt lat="47.59581" lon="6.78157">
        <ele>396.8</ele>
        <time>2017-10-15T08:10:26.999Z</time>
      </trkpt>
      <trkpt lat="47.59579" lon="6.78159">
        <ele>397</ele>
        <time>2017-10-15T08:10:27.999Z</time>
      </trkpt>
      <trkpt lat="47.59576" lon="6.78161">
        <ele>397.2</ele>
        <time>2017-10-15T08:10:28.999Z</time>
      </trkpt>
      <trkpt lat="47.59574" lon="6.78162">
        <ele>397.4</ele>
        <time>2017-10-15T08:10:29.999Z</time>
      </trkpt>
      <trkpt lat="47.59571" lon="6.78164">
        <ele>397.5</ele>
        <time>2017-10-15T08:10:30.999Z</time>
      </trkpt>
      <trkpt lat="47.59568" lon="6.78166">
        <ele>397.6</ele>
        <time>2017-10-15T08:10:31.999Z</time>
      </trkpt>
      <trkpt lat="47.59564" lon="6.78169">
        <ele>397.8</ele>
        <time>2017-10-15T08:10:33.999Z</time>
      </trkpt>
      <trkpt lat="47.59563" lon="6.78171">
        <ele>397.9</ele>
        <time>2017-10-15T08:10:34.999Z</time>
      </trkpt>
      <trkpt lat="47.5956" lon="6.78173">
        <ele>398.1</ele>
        <time>2017-10-15T08:10:36.999Z</time>
      </trkpt>
      <trkpt lat="47.59558" lon="6.78174">
        <ele>398.3</ele>
        <time>2017-10-15T08:10:37.999Z</time>
      </trkpt>
      <trkpt lat="47.59555" lon="6.78175">
        <ele>398.4</ele>
        <time>2017-10-15T08:10:38.999Z</time>
      </trkpt>
      <trkpt lat="47.59553" lon="6.78174">
        <ele>398.5</ele>
        <time>2017-10-15T08:10:39.999Z</time>
      </trkpt>
      <trkpt lat="47.59549" lon="6.78173">
        <ele>398.7</ele>
        <time>2017-10-15T08:10:40.999Z</time>
      </trkpt>
      <trkpt lat="47.59547" lon="6.78173">
        <ele>398.8</ele>
        <time>2017-10-15T08:10:41.999Z</time>
      </trkpt>
      <trkpt lat="47.59543" lon="6.78174">
        <ele>398.9</ele>
        <time>2017-10-15T08:10:42.999Z</time>
      </trkpt>
      <trkpt lat="47.5954" lon="6.78174">
        <ele>399</ele>
        <time>2017-10-15T08:10:43.999Z</time>
      </trkpt>
      <trkpt lat="47.59537" lon="6.78173">
        <ele>399.1</ele>
        <time>2017-10-15T08:10:44.999Z</time>
      </trkpt>
      <trkpt lat="47.59535" lon="6.78172">
        <ele>399.2</ele>
        <time>2017-10-15T08:10:45.999Z</time>
      </trkpt>
      <trkpt lat="47.59531" lon="6.78172">
        <ele>399.5</ele>
        <time>2017-10-15T08:10:47.999Z</time>
      </trkpt>
      <trkpt lat="47.59529" lon="6.78171">
        <ele>399.8</ele>
        <time>2017-10-15T08:10:48.999Z</time>
      </trkpt>
      <trkpt lat="47.59527" lon="6.78167">
        <ele>400</ele>
        <time>2017-10-15T08:10:50.999Z</time>
      </trkpt>
      <trkpt lat="47.59526" lon="6.78164">
        <ele>400.1</ele>
        <time>2017-10-15T08:10:51.999Z</time>
      </trkpt>
      <trkpt lat="47.59525" lon="6.78157">
        <ele>400.2</ele>
        <time>2017-10-15T08:10:53.999Z</time>
      </trkpt>
      <trkpt lat="47.59527" lon="6.78153">
        <ele>400.3</ele>
        <time>2017-10-15T08:10:54.999Z</time>
      </trkpt>
      <trkpt lat="47.59528" lon="6.78149">
        <ele>400.4</ele>
        <time>2017-10-15T08:10:55.999Z</time>
      </trkpt>
      <trkpt lat="47.59529" lon="6.78146">
        <ele>400.6</ele>
        <time>2017-10-15T08:10:56.999Z</time>
      </trkpt>
      <trkpt lat="47.59531" lon="6.78141">
        <ele>400.9</ele>
        <time>2017-10-15T08:10:58.999Z</time>
      </trkpt>
      <trkpt lat="47.59532" lon="6.78139">
        <ele>401.1</ele>
        <time>2017-10-15T08:10:59.999Z</time>
      </trkpt>
      <trkpt lat="47.59534" lon="6.78137">
        <ele>401.2</ele>
        <time>2017-10-15T08:11:00.999Z</time>
      </trkpt>
      <trkpt lat="47.59537" lon="6.78134">
        <ele>401.3</ele>
        <time>2017-10-15T08:11:01.999Z</time>
      </trkpt>
      <trkpt lat="47.5954" lon="6.78131">
        <ele>401.5</ele>
        <time>2017-10-15T08:11:03.999Z</time>
      </trkpt>
      <trkpt lat="47.59542" lon="6.78131">
        <ele>401.6</ele>
        <time>2017-10-15T08:11:04.999Z</time>
      </trkpt>
      <trkpt lat="47.59545" lon="6.78131">
        <ele>401.9</ele>
        <time>2017-10-15T08:11:06.999Z</time>
      </trkpt>
      <trkpt lat="47.59547" lon="6.78131">
        <ele>402</ele>
        <time>2017-10-15T08:11:07.999Z</time>
      </trkpt>
      <trkpt lat="47.5955" lon="6.78132">
        <ele>402.2</ele>
        <time>2017-10-15T08:11:09.999Z</time>
      </trkpt>
      <trkpt lat="47.59553" lon="6.78133">
        <ele>402.2</ele>
        <time>2017-10-15T08:11:10.999Z</time>
      </trkpt>
      <trkpt lat="47.59555" lon="6.78135">
        <ele>402.2</ele>
        <time>2017-10-15T08:11:11.999Z</time>
      </trkpt>
      <trkpt lat="47.59557" lon="6.78136">
        <ele>402.2</ele>
        <time>2017-10-15T08:11:12.999Z</time>
      </trkpt>
      <trkpt lat="47.5956" lon="6.78136">
        <ele>402.1</ele>
        <time>2017-10-15T08:11:13.999Z</time>
      </trkpt>
      <trkpt lat="47.59563" lon="6.78136">
        <ele>402.1</ele>
        <time>2017-10-15T08:11:14.999Z</time>
      </trkpt>
      <trkpt lat="47.59567" lon="6.78136">
        <ele>402.3</ele>
        <time>2017-10-15T08:11:16.999Z</time>
      </trkpt>
      <trkpt lat="47.59569" lon="6.78135">
        <ele>402.4</ele>
        <time>2017-10-15T08:11:17.999Z</time>
      </trkpt>
      <trkpt lat="47.59571" lon="6.78134">
        <ele>402.5</ele>
        <time>2017-10-15T08:11:18.999Z</time>
      </trkpt>
      <trkpt lat="47.59573" lon="6.78133">
        <ele>402.6</ele>
        <time>2017-10-15T08:11:19.999Z</time>
      </trkpt>
      <trkpt lat="47.59576" lon="6.78131">
        <ele>402.8</ele>
        <time>2017-10-15T08:11:20.999Z</time>
      </trkpt>
      <trkpt lat="47.59579" lon="6.78128">
        <ele>402.9</ele>
        <time>2017-10-15T08:11:21.999Z</time>
      </trkpt>
      <trkpt lat="47.59581" lon="6.78126">
        <ele>403</ele>
        <time>2017-10-15T08:11:22.999Z</time>
      </trkpt>
      <trkpt lat="47.59584" lon="6.78125">
        <ele>403.2</ele>
        <time>2017-10-15T08:11:23.999Z</time>
      </trkpt>
      <trkpt lat="47.59586" lon="6.78123">
        <ele>403.3</ele>
        <time>2017-10-15T08:11:24.999Z</time>
      </trkpt>
      <trkpt lat="47.59588" lon="6.78121">
        <ele>403.4</ele>
        <time>2017-10-15T08:11:25.999Z</time>
      </trkpt>
      <trkpt lat="47.5959" lon="6.78118">
        <ele>403.6</ele>
        <time>2017-10-15T08:11:26.999Z</time>
      </trkpt>
      <trkpt lat="47.59593" lon="6.78116">
        <ele>403.7</ele>
        <time>2017-10-15T08:11:27.999Z</time>
      </trkpt>
      <trkpt lat="47.59596" lon="6.78115">
        <ele>403.8</ele>
        <time>2017-10-15T08:11:28.999Z</time>
      </trkpt>
      <trkpt lat="47.59599" lon="6.78112">
        <ele>403.9</ele>
        <time>2017-10-15T08:11:29.999Z</time>
      </trkpt>
      <trkpt lat="47.59601" lon="6.7811">
        <ele>404.1</ele>
        <time>2017-10-15T08:11:30.999Z</time>
      </trkpt>
      <trkpt lat="47.59603" lon="6.78107">
        <ele>404.2</ele>
        <time>2017-10-15T08:11:31.999Z</time>
      </trkpt>
      <trkpt lat="47.59605" lon="6.78104">
        <ele>404.3</ele>
        <time>2017-10-15T08:11:32.999Z</time>
      </trkpt>
      <trkpt lat="47.59607" lon="6.78102">
        <ele>404.5</ele>
        <time>2017-10-15T08:11:33.999Z</time>
      </trkpt>
      <trkpt lat="47.59609" lon="6.781">
        <ele>404.8</ele>
        <time>2017-10-15T08:11:34.999Z</time>
      </trkpt>
      <trkpt lat="47.59612" lon="6.78096">
        <ele>405.1</ele>
        <time>2017-10-15T08:11:35.999Z</time>
      </trkpt>
      <trkpt lat="47.59614" lon="6.78093">
        <ele>405.4</ele>
        <time>2017-10-15T08:11:36.999Z</time>
      </trkpt>
      <trkpt lat="47.59616" lon="6.78091">
        <ele>405.7</ele>
        <time>2017-10-15T08:11:37.999Z</time>
      </trkpt>
      <trkpt lat="47.59619" lon="6.78088">
        <ele>406</ele>
        <time>2017-10-15T08:11:38.999Z</time>
      </trkpt>
      <trkpt lat="47.59621" lon="6.78086">
        <ele>406.3</ele>
        <time>2017-10-15T08:11:39.999Z</time>
      </trkpt>
      <trkpt lat="47.59623" lon="6.78084">
        <ele>406.6</ele>
        <time>2017-10-15T08:11:40.999Z</time>
      </trkpt>
      <trkpt lat="47.59625" lon="6.78081">
        <ele>407</ele>
        <time>2017-10-15T08:11:41.999Z</time>
      </trkpt>
      <trkpt lat="47.59627" lon="6.78079">
        <ele>407.3</ele>
        <time>2017-10-15T08:11:42.999Z</time>
      </trkpt>
      <trkpt lat="47.59629" lon="6.78077">
        <ele>407.7</ele>
        <time>2017-10-15T08:11:43.999Z</time>
      </trkpt>
      <trkpt lat="47.59633" lon="6.78074">
        <ele>408.2</ele>
        <time>2017-10-15T08:11:45.999Z</time>
      </trkpt>
      <trkpt lat="47.59635" lon="6.78072">
        <ele>408.5</ele>
        <time>2017-10-15T08:11:46.999Z</time>
      </trkpt>
      <trkpt lat="47.59638" lon="6.78071">
        <ele>408.7</ele>
        <time>2017-10-15T08:11:47.999Z</time>
      </trkpt>
      <trkpt lat="47.5964" lon="6.78069">
        <ele>408.9</ele>
        <time>2017-10-15T08:11:48.999Z</time>
      </trkpt>
      <trkpt lat="47.59643" lon="6.78068">
        <ele>409.3</ele>
        <time>2017-10-15T08:11:50.999Z</time>
      </trkpt>
      <trkpt lat="47.59645" lon="6.78067">
        <ele>409.6</ele>
        <time>2017-10-15T08:11:51.999Z</time>
      </trkpt>
      <trkpt lat="47.59647" lon="6.78065">
        <ele>409.7</ele>
        <time>2017-10-15T08:11:52.999Z</time>
      </trkpt>
      <trkpt lat="47.59649" lon="6.78064">
        <ele>409.8</ele>
        <time>2017-10-15T08:11:53.999Z</time>
      </trkpt>
      <trkpt lat="47.59654" lon="6.78062">
        <ele>410</ele>
        <time>2017-10-15T08:11:55.999Z</time>
      </trkpt>
      <trkpt lat="47.59655" lon="6.78062">
        <ele>410.2</ele>
        <time>2017-10-15T08:11:56.999Z</time>
      </trkpt>
      <trkpt lat="47.5966" lon="6.78059">
        <ele>410.6</ele>
        <time>2017-10-15T08:11:58.999Z</time>
      </trkpt>
      <trkpt lat="47.59661" lon="6.78058">
        <ele>410.8</ele>
        <time>2017-10-15T08:11:59.999Z</time>
      </trkpt>
      <trkpt lat="47.59665" lon="6.78056">
        <ele>411.3</ele>
        <time>2017-10-15T08:12:01.999Z</time>
      </trkpt>
      <trkpt lat="47.59668" lon="6.78054">
        <ele>411.4</ele>
        <time>2017-10-15T08:12:02.999Z</time>
      </trkpt>
      <trkpt lat="47.59671" lon="6.78053">
        <ele>411.7</ele>
        <time>2017-10-15T08:12:03.999Z</time>
      </trkpt>
      <trkpt lat="47.59673" lon="6.78051">
        <ele>411.9</ele>
        <time>2017-10-15T08:12:04.999Z</time>
      </trkpt>
      <trkpt lat="47.59677" lon="6.78047">
        <ele>412.4</ele>
        <time>2017-10-15T08:12:06.999Z</time>
      </trkpt>
      <trkpt lat="47.59679" lon="6.78045">
        <ele>412.7</ele>
        <time>2017-10-15T08:12:07.999Z</time>
      </trkpt>
      <trkpt lat="47.59681" lon="6.78041">
        <ele>413.4</ele>
        <time>2017-10-15T08:12:09.999Z</time>
      </trkpt>
      <trkpt lat="47.59683" lon="6.78039">
        <ele>413.7</ele>
        <time>2017-10-15T08:12:10.999Z</time>
      </trkpt>
      <trkpt lat="47.59685" lon="6.78035">
        <ele>414.3</ele>
        <time>2017-10-15T08:12:12.999Z</time>
      </trkpt>
      <trkpt lat="47.59687" lon="6.78034">
        <ele>414.6</ele>
        <time>2017-10-15T08:12:13.999Z</time>
      </trkpt>
      <trkpt lat="47.59689" lon="6.78031">
        <ele>414.8</ele>
        <time>2017-10-15T08:12:14.999Z</time>
      </trkpt>
      <trkpt lat="47.5969" lon="6.7803">
        <ele>415.1</ele>
        <time>2017-10-15T08:12:15.999Z</time>
      </trkpt>
      <trkpt lat="47.59694" lon="6.78026">
        <ele>415.4</ele>
        <time>2017-10-15T08:12:17.999Z</time>
      </trkpt>
      <trkpt lat="47.59696" lon="6.78024">
        <ele>415.6</ele>
        <time>2017-10-15T08:12:18.999Z</time>
      </trkpt>
      <trkpt lat="47.59699" lon="6.78022">
        <ele>415.7</ele>
        <time>2017-10-15T08:12:19.999Z</time>
      </trkpt>
      <trkpt lat="47.59701" lon="6.7802">
        <ele>415.9</ele>
        <time>2017-10-15T08:12:20.999Z</time>
      </trkpt>
      <trkpt lat="47.59704" lon="6.78017">
        <ele>416.3</ele>
        <time>2017-10-15T08:12:22.999Z</time>
      </trkpt>
      <trkpt lat="47.59707" lon="6.78016">
        <ele>416.5</ele>
        <time>2017-10-15T08:12:23.999Z</time>
      </trkpt>
      <trkpt lat="47.59709" lon="6.78014">
        <ele>416.8</ele>
        <time>2017-10-15T08:12:24.999Z</time>
      </trkpt>
      <trkpt lat="47.59711" lon="6.78014">
        <ele>417.1</ele>
        <time>2017-10-15T08:12:25.999Z</time>
      </trkpt>
      <trkpt lat="47.59714" lon="6.78013">
        <ele>417.3</ele>
        <time>2017-10-15T08:12:26.999Z</time>
      </trkpt>
      <trkpt lat="47.59716" lon="6.78012">
        <ele>417.6</ele>
        <time>2017-10-15T08:12:27.999Z</time>
      </trkpt>
      <trkpt lat="47.5972" lon="6.78011">
        <ele>418.1</ele>
        <time>2017-10-15T08:12:29.999Z</time>
      </trkpt>
      <trkpt lat="47.59721" lon="6.78011">
        <ele>418.3</ele>
        <time>2017-10-15T08:12:30.999Z</time>
      </trkpt>
      <trkpt lat="47.59725" lon="6.7801">
        <ele>418.6</ele>
        <time>2017-10-15T08:12:32.999Z</time>
      </trkpt>
      <trkpt lat="47.59727" lon="6.78009">
        <ele>418.8</ele>
        <time>2017-10-15T08:12:33.999Z</time>
      </trkpt>
      <trkpt lat="47.59729" lon="6.78008">
        <ele>419</ele>
        <time>2017-10-15T08:12:34.999Z</time>
      </trkpt>
      <trkpt lat="47.59732" lon="6.78007">
        <ele>419.2</ele>
        <time>2017-10-15T08:12:35.999Z</time>
      </trkpt>
      <trkpt lat="47.59734" lon="6.78005">
        <ele>419.4</ele>
        <time>2017-10-15T08:12:36.999Z</time>
      </trkpt>
      <trkpt lat="47.59736" lon="6.78003">
        <ele>419.6</ele>
        <time>2017-10-15T08:12:37.999Z</time>
      </trkpt>
      <trkpt lat="47.59738" lon="6.78002">
        <ele>419.8</ele>
        <time>2017-10-15T08:12:38.999Z</time>
      </trkpt>
      <trkpt lat="47.5974" lon="6.77999">
        <ele>420</ele>
        <time>2017-10-15T08:12:39.999Z</time>
      </trkpt>
      <trkpt lat="47.59743" lon="6.77996">
        <ele>420.5</ele>
        <time>2017-10-15T08:12:41.999Z</time>
      </trkpt>
      <trkpt lat="47.59744" lon="6.77995">
        <ele>420.7</ele>
        <time>2017-10-15T08:12:42.999Z</time>
      </trkpt>
      <trkpt lat="47.59747" lon="6.77992">
        <ele>421.1</ele>
        <time>2017-10-15T08:12:44.999Z</time>
      </trkpt>
      <trkpt lat="47.59749" lon="6.77989">
        <ele>421.2</ele>
        <time>2017-10-15T08:12:45.999Z</time>
      </trkpt>
      <trkpt lat="47.59751" lon="6.77984">
        <ele>421.5</ele>
        <time>2017-10-15T08:12:47.999Z</time>
      </trkpt>
      <trkpt lat="47.59753" lon="6.77981">
        <ele>421.7</ele>
        <time>2017-10-15T08:12:48.999Z</time>
      </trkpt>
      <trkpt lat="47.59755" lon="6.77979">
        <ele>421.8</ele>
        <time>2017-10-15T08:12:49.999Z</time>
      </trkpt>
      <trkpt lat="47.59756" lon="6.77976">
        <ele>422</ele>
        <time>2017-10-15T08:12:50.999Z</time>
      </trkpt>
      <trkpt lat="47.59758" lon="6.77972">
        <ele>422.3</ele>
        <time>2017-10-15T08:12:52.999Z</time>
      </trkpt>
      <trkpt lat="47.5976" lon="6.7797">
        <ele>422.4</ele>
        <time>2017-10-15T08:12:53.999Z</time>
      </trkpt>
      <trkpt lat="47.59762" lon="6.77966">
        <ele>422.8</ele>
        <time>2017-10-15T08:12:55.999Z</time>
      </trkpt>
      <trkpt lat="47.59764" lon="6.77963">
        <ele>423</ele>
        <time>2017-10-15T08:12:56.999Z</time>
      </trkpt>
      <trkpt lat="47.59766" lon="6.77961">
        <ele>423.2</ele>
        <time>2017-10-15T08:12:57.999Z</time>
      </trkpt>
      <trkpt lat="47.59768" lon="6.77958">
        <ele>423.5</ele>
        <time>2017-10-15T08:12:58.999Z</time>
      </trkpt>
      <trkpt lat="47.5977" lon="6.77955">
        <ele>423.7</ele>
        <time>2017-10-15T08:12:59.999Z</time>
      </trkpt>
      <trkpt lat="47.59772" lon="6.77953">
        <ele>423.9</ele>
        <time>2017-10-15T08:13:00.999Z</time>
      </trkpt>
      <trkpt lat="47.59775" lon="6.7795">
        <ele>424.4</ele>
        <time>2017-10-15T08:13:02.999Z</time>
      </trkpt>
      <trkpt lat="47.59777" lon="6.77947">
        <ele>424.6</ele>
        <time>2017-10-15T08:13:03.999Z</time>
      </trkpt>
      <trkpt lat="47.59779" lon="6.77946">
        <ele>424.9</ele>
        <time>2017-10-15T08:13:04.999Z</time>
      </trkpt>
      <trkpt lat="47.59782" lon="6.77944">
        <ele>425.1</ele>
        <time>2017-10-15T08:13:05.999Z</time>
      </trkpt>
      <trkpt lat="47.59785" lon="6.77941">
        <ele>425.6</ele>
        <time>2017-10-15T08:13:07.999Z</time>
      </trkpt>
      <trkpt lat="47.59787" lon="6.77938">
        <ele>425.8</ele>
        <time>2017-10-15T08:13:08.999Z</time>
      </trkpt>
      <trkpt lat="47.59788" lon="6.77933">
        <ele>426.3</ele>
        <time>2017-10-15T08:13:10.999Z</time>
      </trkpt>
      <trkpt lat="47.59789" lon="6.77931">
        <ele>426.5</ele>
        <time>2017-10-15T08:13:11.999Z</time>
      </trkpt>
      <trkpt lat="47.59791" lon="6.77926">
        <ele>426.9</ele>
        <time>2017-10-15T08:13:13.999Z</time>
      </trkpt>
      <trkpt lat="47.59791" lon="6.77923">
        <ele>427.1</ele>
        <time>2017-10-15T08:13:14.999Z</time>
      </trkpt>
      <trkpt lat="47.59792" lon="6.77918">
        <ele>427.5</ele>
        <time>2017-10-15T08:13:16.999Z</time>
      </trkpt>
      <trkpt lat="47.59792" lon="6.77916">
        <ele>427.7</ele>
        <time>2017-10-15T08:13:17.999Z</time>
      </trkpt>
      <trkpt lat="47.59793" lon="6.77912">
        <ele>427.9</ele>
        <time>2017-10-15T08:13:18.999Z</time>
      </trkpt>
      <trkpt lat="47.59793" lon="6.77909">
        <ele>428.1</ele>
        <time>2017-10-15T08:13:19.999Z</time>
      </trkpt>
      <trkpt lat="47.59793" lon="6.77904">
        <ele>428.8</ele>
        <time>2017-10-15T08:13:22.999Z</time>
      </trkpt>
      <trkpt lat="47.59793" lon="6.77901">
        <ele>429</ele>
        <time>2017-10-15T08:13:23.999Z</time>
      </trkpt>
      <trkpt lat="47.59793" lon="6.77895">
        <ele>429.3</ele>
        <time>2017-10-15T08:13:25.999Z</time>
      </trkpt>
      <trkpt lat="47.59792" lon="6.77893">
        <ele>429.4</ele>
        <time>2017-10-15T08:13:26.999Z</time>
      </trkpt>
      <trkpt lat="47.59792" lon="6.7789">
        <ele>429.7</ele>
        <time>2017-10-15T08:13:27.999Z</time>
      </trkpt>
      <trkpt lat="47.59791" lon="6.77886">
        <ele>429.9</ele>
        <time>2017-10-15T08:13:28.999Z</time>
      </trkpt>
      <trkpt lat="47.59791" lon="6.7788">
        <ele>430.5</ele>
        <time>2017-10-15T08:13:30.999Z</time>
      </trkpt>
      <trkpt lat="47.59791" lon="6.77877">
        <ele>430.7</ele>
        <time>2017-10-15T08:13:31.999Z</time>
      </trkpt>
      <trkpt lat="47.59792" lon="6.77871">
        <ele>431.1</ele>
        <time>2017-10-15T08:13:33.999Z</time>
      </trkpt>
      <trkpt lat="47.59792" lon="6.77868">
        <ele>431.4</ele>
        <time>2017-10-15T08:13:34.999Z</time>
      </trkpt>
      <trkpt lat="47.59791" lon="6.77861">
        <ele>432.2</ele>
        <time>2017-10-15T08:13:37.999Z</time>
      </trkpt>
      <trkpt lat="47.59791" lon="6.77858">
        <ele>432.5</ele>
        <time>2017-10-15T08:13:38.999Z</time>
      </trkpt>
      <trkpt lat="47.59791" lon="6.77852">
        <ele>432.8</ele>
        <time>2017-10-15T08:13:40.999Z</time>
      </trkpt>
      <trkpt lat="47.59791" lon="6.77849">
        <ele>433</ele>
        <time>2017-10-15T08:13:41.999Z</time>
      </trkpt>
      <trkpt lat="47.59792" lon="6.77843">
        <ele>433.4</ele>
        <time>2017-10-15T08:13:43.999Z</time>
      </trkpt>
      <trkpt lat="47.59792" lon="6.77841">
        <ele>433.6</ele>
        <time>2017-10-15T08:13:44.999Z</time>
      </trkpt>
      <trkpt lat="47.59793" lon="6.77836">
        <ele>433.9</ele>
        <time>2017-10-15T08:13:46.999Z</time>
      </trkpt>
      <trkpt lat="47.59794" lon="6.77833">
        <ele>434</ele>
        <time>2017-10-15T08:13:47.999Z</time>
      </trkpt>
      <trkpt lat="47.59795" lon="6.77828">
        <ele>434.4</ele>
        <time>2017-10-15T08:13:49.999Z</time>
      </trkpt>
      <trkpt lat="47.59797" lon="6.77825">
        <ele>434.6</ele>
        <time>2017-10-15T08:13:50.999Z</time>
      </trkpt>
      <trkpt lat="47.59798" lon="6.77822">
        <ele>434.8</ele>
        <time>2017-10-15T08:13:51.999Z</time>
      </trkpt>
      <trkpt lat="47.59799" lon="6.77819">
        <ele>435</ele>
        <time>2017-10-15T08:13:52.999Z</time>
      </trkpt>
      <trkpt lat="47.598" lon="6.77813">
        <ele>435.6</ele>
        <time>2017-10-15T08:13:54.999Z</time>
      </trkpt>
      <trkpt lat="47.59802" lon="6.7781">
        <ele>435.9</ele>
        <time>2017-10-15T08:13:55.999Z</time>
      </trkpt>
      <trkpt lat="47.59804" lon="6.77805">
        <ele>436.4</ele>
        <time>2017-10-15T08:13:57.999Z</time>
      </trkpt>
      <trkpt lat="47.59805" lon="6.77802">
        <ele>436.7</ele>
        <time>2017-10-15T08:13:58.999Z</time>
      </trkpt>
      <trkpt lat="47.59806" lon="6.77796">
        <ele>437.2</ele>
        <time>2017-10-15T08:14:00.999Z</time>
      </trkpt>
      <trkpt lat="47.59807" lon="6.77794">
        <ele>437.4</ele>
        <time>2017-10-15T08:14:01.999Z</time>
      </trkpt>
      <trkpt lat="47.59803" lon="6.77789">
        <ele>437.8</ele>
        <time>2017-10-15T08:14:04.999Z</time>
      </trkpt>
      <trkpt lat="47.59801" lon="6.77787">
        <ele>437.8</ele>
        <time>2017-10-15T08:14:05.999Z</time>
      </trkpt>
      <trkpt lat="47.59799" lon="6.77785">
        <ele>437.9</ele>
        <time>2017-10-15T08:14:06.999Z</time>
      </trkpt>
      <trkpt lat="47.59796" lon="6.77784">
        <ele>438</ele>
        <time>2017-10-15T08:14:07.999Z</time>
      </trkpt>
      <trkpt lat="47.59793" lon="6.77784">
        <ele>438.2</ele>
        <time>2017-10-15T08:14:09.999Z</time>
      </trkpt>
      <trkpt lat="47.59792" lon="6.77784">
        <ele>438.3</ele>
        <time>2017-10-15T08:14:10.999Z</time>
      </trkpt>
      <trkpt lat="47.59789" lon="6.77788">
        <ele>438.4</ele>
        <time>2017-10-15T08:14:12.999Z</time>
      </trkpt>
      <trkpt lat="47.59788" lon="6.7779">
        <ele>438.5</ele>
        <time>2017-10-15T08:14:13.999Z</time>
      </trkpt>
      <trkpt lat="47.59786" lon="6.77794">
        <ele>438.6</ele>
        <time>2017-10-15T08:14:15.999Z</time>
      </trkpt>
      <trkpt lat="47.59785" lon="6.77796">
        <ele>438.6</ele>
        <time>2017-10-15T08:14:16.999Z</time>
      </trkpt>
      <trkpt lat="47.59784" lon="6.77802">
        <ele>438.8</ele>
        <time>2017-10-15T08:14:18.999Z</time>
      </trkpt>
      <trkpt lat="47.59783" lon="6.77805">
        <ele>438.9</ele>
        <time>2017-10-15T08:14:19.999Z</time>
      </trkpt>
      <trkpt lat="47.59781" lon="6.7781">
        <ele>439</ele>
        <time>2017-10-15T08:14:21.999Z</time>
      </trkpt>
      <trkpt lat="47.5978" lon="6.77813">
        <ele>439.1</ele>
        <time>2017-10-15T08:14:22.999Z</time>
      </trkpt>
      <trkpt lat="47.5978" lon="6.77818">
        <ele>439.4</ele>
        <time>2017-10-15T08:14:24.999Z</time>
      </trkpt>
      <trkpt lat="47.59779" lon="6.77821">
        <ele>439.6</ele>
        <time>2017-10-15T08:14:25.999Z</time>
      </trkpt>
      <trkpt lat="47.59779" lon="6.77826">
        <ele>439.9</ele>
        <time>2017-10-15T08:14:27.999Z</time>
      </trkpt>
      <trkpt lat="47.59778" lon="6.77829">
        <ele>440.1</ele>
        <time>2017-10-15T08:14:28.999Z</time>
      </trkpt>
      <trkpt lat="47.59777" lon="6.77834">
        <ele>440.4</ele>
        <time>2017-10-15T08:14:30.999Z</time>
      </trkpt>
      <trkpt lat="47.59776" lon="6.77836">
        <ele>440.5</ele>
        <time>2017-10-15T08:14:31.999Z</time>
      </trkpt>
      <trkpt lat="47.59774" lon="6.77839">
        <ele>440.9</ele>
        <time>2017-10-15T08:14:33.999Z</time>
      </trkpt>
      <trkpt lat="47.59773" lon="6.77841">
        <ele>441.2</ele>
        <time>2017-10-15T08:14:34.999Z</time>
      </trkpt>
      <trkpt lat="47.59771" lon="6.77846">
        <ele>441.6</ele>
        <time>2017-10-15T08:14:36.999Z</time>
      </trkpt>
      <trkpt lat="47.5977" lon="6.77848">
        <ele>441.9</ele>
        <time>2017-10-15T08:14:37.999Z</time>
      </trkpt>
      <trkpt lat="47.59768" lon="6.77852">
        <ele>442.4</ele>
        <time>2017-10-15T08:14:39.999Z</time>
      </trkpt>
      <trkpt lat="47.59766" lon="6.77853">
        <ele>442.5</ele>
        <time>2017-10-15T08:14:40.999Z</time>
      </trkpt>
      <trkpt lat="47.59762" lon="6.77857">
        <ele>443</ele>
        <time>2017-10-15T08:14:42.999Z</time>
      </trkpt>
      <trkpt lat="47.59761" lon="6.77859">
        <ele>443.3</ele>
        <time>2017-10-15T08:14:43.999Z</time>
      </trkpt>
      <trkpt lat="47.59757" lon="6.77861">
        <ele>443.7</ele>
        <time>2017-10-15T08:14:45.999Z</time>
      </trkpt>
      <trkpt lat="47.59755" lon="6.77862">
        <ele>443.8</ele>
        <time>2017-10-15T08:14:46.999Z</time>
      </trkpt>
      <trkpt lat="47.59752" lon="6.77862">
        <ele>444.1</ele>
        <time>2017-10-15T08:14:48.999Z</time>
      </trkpt>
      <trkpt lat="47.5975" lon="6.77863">
        <ele>444.3</ele>
        <time>2017-10-15T08:14:49.999Z</time>
      </trkpt>
      <trkpt lat="47.59747" lon="6.77864">
        <ele>444.6</ele>
        <time>2017-10-15T08:14:51.999Z</time>
      </trkpt>
      <trkpt lat="47.59746" lon="6.77866">
        <ele>444.7</ele>
        <time>2017-10-15T08:14:52.999Z</time>
      </trkpt>
      <trkpt lat="47.59743" lon="6.7787">
        <ele>444.9</ele>
        <time>2017-10-15T08:14:54.999Z</time>
      </trkpt>
      <trkpt lat="47.59742" lon="6.77872">
        <ele>445.2</ele>
        <time>2017-10-15T08:14:55.999Z</time>
      </trkpt>
      <trkpt lat="47.59739" lon="6.77875">
        <ele>445.5</ele>
        <time>2017-10-15T08:14:57.999Z</time>
      </trkpt>
      <trkpt lat="47.59737" lon="6.77878">
        <ele>445.7</ele>
        <time>2017-10-15T08:14:58.999Z</time>
      </trkpt>
      <trkpt lat="47.59734" lon="6.77882">
        <ele>446.1</ele>
        <time>2017-10-15T08:15:00.999Z</time>
      </trkpt>
      <trkpt lat="47.59732" lon="6.77882">
        <ele>446.2</ele>
        <time>2017-10-15T08:15:01.999Z</time>
      </trkpt>
      <trkpt lat="47.59729" lon="6.77883">
        <ele>446.5</ele>
        <time>2017-10-15T08:15:04.999Z</time>
      </trkpt>
      <trkpt lat="47.59728" lon="6.77884">
        <ele>446.6</ele>
        <time>2017-10-15T08:15:05.999Z</time>
      </trkpt>
      <trkpt lat="47.59724" lon="6.77887">
        <ele>446.8</ele>
        <time>2017-10-15T08:15:07.999Z</time>
      </trkpt>
      <trkpt lat="47.59722" lon="6.77888">
        <ele>446.8</ele>
        <time>2017-10-15T08:15:08.999Z</time>
      </trkpt>
      <trkpt lat="47.59719" lon="6.7789">
        <ele>447</ele>
        <time>2017-10-15T08:15:10.999Z</time>
      </trkpt>
      <trkpt lat="47.59716" lon="6.7789">
        <ele>447.1</ele>
        <time>2017-10-15T08:15:11.999Z</time>
      </trkpt>
      <trkpt lat="47.59714" lon="6.77889">
        <ele>447.2</ele>
        <time>2017-10-15T08:15:12.999Z</time>
      </trkpt>
      <trkpt lat="47.59711" lon="6.77888">
        <ele>447.2</ele>
        <time>2017-10-15T08:15:13.999Z</time>
      </trkpt>
      <trkpt lat="47.59708" lon="6.77888">
        <ele>447.3</ele>
        <time>2017-10-15T08:15:14.999Z</time>
      </trkpt>
      <trkpt lat="47.59704" lon="6.77887">
        <ele>447.4</ele>
        <time>2017-10-15T08:15:15.999Z</time>
      </trkpt>
      <trkpt lat="47.597" lon="6.77885">
        <ele>447.5</ele>
        <time>2017-10-15T08:15:16.999Z</time>
      </trkpt>
      <trkpt lat="47.59697" lon="6.77884">
        <ele>447.6</ele>
        <time>2017-10-15T08:15:17.999Z</time>
      </trkpt>
      <trkpt lat="47.59694" lon="6.77882">
        <ele>447.8</ele>
        <time>2017-10-15T08:15:18.999Z</time>
      </trkpt>
      <trkpt lat="47.59691" lon="6.77879">
        <ele>448</ele>
        <time>2017-10-15T08:15:19.999Z</time>
      </trkpt>
      <trkpt lat="47.59689" lon="6.77877">
        <ele>448.1</ele>
        <time>2017-10-15T08:15:20.999Z</time>
      </trkpt>
      <trkpt lat="47.59686" lon="6.77874">
        <ele>448.3</ele>
        <time>2017-10-15T08:15:21.999Z</time>
      </trkpt>
      <trkpt lat="47.59683" lon="6.77871">
        <ele>449.9</ele>
        <time>2017-10-15T08:15:22.999Z</time>
      </trkpt>
      <trkpt lat="47.59679" lon="6.77868">
        <ele>451.1</ele>
        <time>2017-10-15T08:15:23.999Z</time>
      </trkpt>
      <trkpt lat="47.59676" lon="6.77865">
        <ele>451.6</ele>
        <time>2017-10-15T08:15:24.999Z</time>
      </trkpt>
      <trkpt lat="47.59672" lon="6.7786">
        <ele>451.7</ele>
        <time>2017-10-15T08:15:25.999Z</time>
      </trkpt>
      <trkpt lat="47.59667" lon="6.77856">
        <ele>451.6</ele>
        <time>2017-10-15T08:15:26.999Z</time>
      </trkpt>
      <trkpt lat="47.59663" lon="6.77852">
        <ele>451.6</ele>
        <time>2017-10-15T08:15:27.999Z</time>
      </trkpt>
      <trkpt lat="47.59659" lon="6.77848">
        <ele>452</ele>
        <time>2017-10-15T08:15:28.999Z</time>
      </trkpt>
      <trkpt lat="47.59654" lon="6.77844">
        <ele>452</ele>
        <time>2017-10-15T08:15:29.999Z</time>
      </trkpt>
      <trkpt lat="47.59649" lon="6.77839">
        <ele>451.7</ele>
        <time>2017-10-15T08:15:30.999Z</time>
      </trkpt>
      <trkpt lat="47.59645" lon="6.77834">
        <ele>451.2</ele>
        <time>2017-10-15T08:15:31.999Z</time>
      </trkpt>
      <trkpt lat="47.59642" lon="6.77828">
        <ele>450.6</ele>
        <time>2017-10-15T08:15:32.999Z</time>
      </trkpt>
      <trkpt lat="47.59639" lon="6.77822">
        <ele>450.1</ele>
        <time>2017-10-15T08:15:33.999Z</time>
      </trkpt>
      <trkpt lat="47.59637" lon="6.77818">
        <ele>449.5</ele>
        <time>2017-10-15T08:15:34.999Z</time>
      </trkpt>
      <trkpt lat="47.59635" lon="6.77813">
        <ele>449.5</ele>
        <time>2017-10-15T08:15:35.999Z</time>
      </trkpt>
      <trkpt lat="47.59633" lon="6.7781">
        <ele>449.4</ele>
        <time>2017-10-15T08:15:36.999Z</time>
      </trkpt>
      <trkpt lat="47.59632" lon="6.77807">
        <ele>449.4</ele>
        <time>2017-10-15T08:15:37.999Z</time>
      </trkpt>
      <trkpt lat="47.59629" lon="6.77802">
        <ele>449.4</ele>
        <time>2017-10-15T08:15:38.999Z</time>
      </trkpt>
      <trkpt lat="47.59627" lon="6.77797">
        <ele>449.4</ele>
        <time>2017-10-15T08:15:39.999Z</time>
      </trkpt>
      <trkpt lat="47.59624" lon="6.77793">
        <ele>449.4</ele>
        <time>2017-10-15T08:15:40.999Z</time>
      </trkpt>
      <trkpt lat="47.59622" lon="6.7779">
        <ele>449.4</ele>
        <time>2017-10-15T08:15:41.999Z</time>
      </trkpt>
      <trkpt lat="47.59619" lon="6.77787">
        <ele>449.4</ele>
        <time>2017-10-15T08:15:42.999Z</time>
      </trkpt>
      <trkpt lat="47.59617" lon="6.77784">
        <ele>449.4</ele>
        <time>2017-10-15T08:15:43.999Z</time>
      </trkpt>
      <trkpt lat="47.59615" lon="6.77781">
        <ele>449.4</ele>
        <time>2017-10-15T08:15:44.999Z</time>
      </trkpt>
      <trkpt lat="47.59612" lon="6.77779">
        <ele>449.5</ele>
        <time>2017-10-15T08:15:45.999Z</time>
      </trkpt>
      <trkpt lat="47.59609" lon="6.77777">
        <ele>449.5</ele>
        <time>2017-10-15T08:15:46.999Z</time>
      </trkpt>
      <trkpt lat="47.59606" lon="6.77776">
        <ele>449.5</ele>
        <time>2017-10-15T08:15:47.999Z</time>
      </trkpt>
      <trkpt lat="47.59602" lon="6.77775">
        <ele>449.4</ele>
        <time>2017-10-15T08:15:48.999Z</time>
      </trkpt>
      <trkpt lat="47.59598" lon="6.77775">
        <ele>449.3</ele>
        <time>2017-10-15T08:15:49.999Z</time>
      </trkpt>
      <trkpt lat="47.59595" lon="6.77776">
        <ele>449.2</ele>
        <time>2017-10-15T08:15:50.999Z</time>
      </trkpt>
      <trkpt lat="47.59592" lon="6.77776">
        <ele>449.2</ele>
        <time>2017-10-15T08:15:51.999Z</time>
      </trkpt>
      <trkpt lat="47.59588" lon="6.77777">
        <ele>449.1</ele>
        <time>2017-10-15T08:15:52.999Z</time>
      </trkpt>
      <trkpt lat="47.59585" lon="6.77777">
        <ele>448.9</ele>
        <time>2017-10-15T08:15:53.999Z</time>
      </trkpt>
      <trkpt lat="47.59581" lon="6.77778">
        <ele>448.8</ele>
        <time>2017-10-15T08:15:54.999Z</time>
      </trkpt>
      <trkpt lat="47.59578" lon="6.7778">
        <ele>448.8</ele>
        <time>2017-10-15T08:15:55.999Z</time>
      </trkpt>
      <trkpt lat="47.59576" lon="6.77781">
        <ele>448.8</ele>
        <time>2017-10-15T08:15:56.999Z</time>
      </trkpt>
      <trkpt lat="47.59573" lon="6.77783">
        <ele>448.7</ele>
        <time>2017-10-15T08:15:57.999Z</time>
      </trkpt>
      <trkpt lat="47.5957" lon="6.77785">
        <ele>448.7</ele>
        <time>2017-10-15T08:15:58.999Z</time>
      </trkpt>
      <trkpt lat="47.59567" lon="6.77786">
        <ele>448.7</ele>
        <time>2017-10-15T08:15:59.999Z</time>
      </trkpt>
      <trkpt lat="47.59564" lon="6.77788">
        <ele>448.7</ele>
        <time>2017-10-15T08:16:00.999Z</time>
      </trkpt>
      <trkpt lat="47.5956" lon="6.77791">
        <ele>448.7</ele>
        <time>2017-10-15T08:16:01.999Z</time>
      </trkpt>
      <trkpt lat="47.59557" lon="6.77792">
        <ele>448.7</ele>
        <time>2017-10-15T08:16:02.999Z</time>
      </trkpt>
      <trkpt lat="47.59554" lon="6.77795">
        <ele>448.7</ele>
        <time>2017-10-15T08:16:03.999Z</time>
      </trkpt>
      <trkpt lat="47.5955" lon="6.77797">
        <ele>448.8</ele>
        <time>2017-10-15T08:16:04.999Z</time>
      </trkpt>
      <trkpt lat="47.59545" lon="6.778">
        <ele>448.9</ele>
        <time>2017-10-15T08:16:05.999Z</time>
      </trkpt>
      <trkpt lat="47.59541" lon="6.77802">
        <ele>448.9</ele>
        <time>2017-10-15T08:16:06.999Z</time>
      </trkpt>
      <trkpt lat="47.59538" lon="6.77802">
        <ele>449</ele>
        <time>2017-10-15T08:16:07.999Z</time>
      </trkpt>
      <trkpt lat="47.59534" lon="6.77803">
        <ele>449</ele>
        <time>2017-10-15T08:16:08.999Z</time>
      </trkpt>
      <trkpt lat="47.59531" lon="6.77804">
        <ele>449.1</ele>
        <time>2017-10-15T08:16:09.999Z</time>
      </trkpt>
      <trkpt lat="47.59528" lon="6.77805">
        <ele>449.2</ele>
        <time>2017-10-15T08:16:10.999Z</time>
      </trkpt>
      <trkpt lat="47.59526" lon="6.77805">
        <ele>449.2</ele>
        <time>2017-10-15T08:16:11.999Z</time>
      </trkpt>
      <trkpt lat="47.59523" lon="6.77804">
        <ele>449.4</ele>
        <time>2017-10-15T08:16:13.999Z</time>
      </trkpt>
      <trkpt lat="47.5952" lon="6.77804">
        <ele>449.6</ele>
        <time>2017-10-15T08:16:14.999Z</time>
      </trkpt>
      <trkpt lat="47.59516" lon="6.77801">
        <ele>449.7</ele>
        <time>2017-10-15T08:16:16.999Z</time>
      </trkpt>
      <trkpt lat="47.59514" lon="6.778">
        <ele>449.8</ele>
        <time>2017-10-15T08:16:17.999Z</time>
      </trkpt>
      <trkpt lat="47.59511" lon="6.77795">
        <ele>449.9</ele>
        <time>2017-10-15T08:16:19.999Z</time>
      </trkpt>
      <trkpt lat="47.59509" lon="6.77791">
        <ele>450</ele>
        <time>2017-10-15T08:16:20.999Z</time>
      </trkpt>
      <trkpt lat="47.59508" lon="6.77788">
        <ele>450.1</ele>
        <time>2017-10-15T08:16:21.999Z</time>
      </trkpt>
      <trkpt lat="47.59506" lon="6.77786">
        <ele>450.2</ele>
        <time>2017-10-15T08:16:22.999Z</time>
      </trkpt>
      <trkpt lat="47.59503" lon="6.77782">
        <ele>450.2</ele>
        <time>2017-10-15T08:16:23.999Z</time>
      </trkpt>
      <trkpt lat="47.59501" lon="6.7778">
        <ele>450.4</ele>
        <time>2017-10-15T08:16:24.999Z</time>
      </trkpt>
      <trkpt lat="47.59499" lon="6.77776">
        <ele>450.4</ele>
        <time>2017-10-15T08:16:25.999Z</time>
      </trkpt>
      <trkpt lat="47.59497" lon="6.77773">
        <ele>450.6</ele>
        <time>2017-10-15T08:16:26.999Z</time>
      </trkpt>
      <trkpt lat="47.59495" lon="6.7777">
        <ele>450.7</ele>
        <time>2017-10-15T08:16:27.999Z</time>
      </trkpt>
      <trkpt lat="47.59494" lon="6.77767">
        <ele>450.9</ele>
        <time>2017-10-15T08:16:28.999Z</time>
      </trkpt>
      <trkpt lat="47.59492" lon="6.77763">
        <ele>451.1</ele>
        <time>2017-10-15T08:16:29.999Z</time>
      </trkpt>
      <trkpt lat="47.59491" lon="6.7776">
        <ele>451.2</ele>
        <time>2017-10-15T08:16:30.999Z</time>
      </trkpt>
      <trkpt lat="47.59489" lon="6.77754">
        <ele>451.5</ele>
        <time>2017-10-15T08:16:32.999Z</time>
      </trkpt>
      <trkpt lat="47.59488" lon="6.77752">
        <ele>451.6</ele>
        <time>2017-10-15T08:16:33.999Z</time>
      </trkpt>
      <trkpt lat="47.59486" lon="6.77748">
        <ele>451.9</ele>
        <time>2017-10-15T08:16:35.999Z</time>
      </trkpt>
      <trkpt lat="47.59485" lon="6.77745">
        <ele>452</ele>
        <time>2017-10-15T08:16:36.999Z</time>
      </trkpt>
      <trkpt lat="47.59483" lon="6.77741">
        <ele>452.2</ele>
        <time>2017-10-15T08:16:38.999Z</time>
      </trkpt>
      <trkpt lat="47.59482" lon="6.77739">
        <ele>452.2</ele>
        <time>2017-10-15T08:16:39.999Z</time>
      </trkpt>
      <trkpt lat="47.5948" lon="6.77734">
        <ele>452.5</ele>
        <time>2017-10-15T08:16:41.999Z</time>
      </trkpt>
      <trkpt lat="47.59479" lon="6.77731">
        <ele>452.6</ele>
        <time>2017-10-15T08:16:42.999Z</time>
      </trkpt>
      <trkpt lat="47.59477" lon="6.77729">
        <ele>452.7</ele>
        <time>2017-10-15T08:16:43.999Z</time>
      </trkpt>
      <trkpt lat="47.59476" lon="6.77726">
        <ele>452.8</ele>
        <time>2017-10-15T08:16:44.999Z</time>
      </trkpt>
      <trkpt lat="47.59474" lon="6.77723">
        <ele>452.9</ele>
        <time>2017-10-15T08:16:45.999Z</time>
      </trkpt>
      <trkpt lat="47.59473" lon="6.77721">
        <ele>453.1</ele>
        <time>2017-10-15T08:16:46.999Z</time>
      </trkpt>
      <trkpt lat="47.5947" lon="6.77716">
        <ele>453.4</ele>
        <time>2017-10-15T08:16:48.999Z</time>
      </trkpt>
      <trkpt lat="47.59469" lon="6.77714">
        <ele>453.6</ele>
        <time>2017-10-15T08:16:49.999Z</time>
      </trkpt>
      <trkpt lat="47.59467" lon="6.77709">
        <ele>453.8</ele>
        <time>2017-10-15T08:16:51.999Z</time>
      </trkpt>
      <trkpt lat="47.59467" lon="6.77706">
        <ele>453.8</ele>
        <time>2017-10-15T08:16:52.999Z</time>
      </trkpt>
      <trkpt lat="47.59466" lon="6.77702">
        <ele>453.9</ele>
        <time>2017-10-15T08:16:53.999Z</time>
      </trkpt>
      <trkpt lat="47.59465" lon="6.777">
        <ele>453.9</ele>
        <time>2017-10-15T08:16:54.999Z</time>
      </trkpt>
      <trkpt lat="47.59462" lon="6.77696">
        <ele>454</ele>
        <time>2017-10-15T08:16:56.999Z</time>
      </trkpt>
      <trkpt lat="47.59461" lon="6.77693">
        <ele>454.1</ele>
        <time>2017-10-15T08:16:57.999Z</time>
      </trkpt>
      <trkpt lat="47.59459" lon="6.7769">
        <ele>454.1</ele>
        <time>2017-10-15T08:16:58.999Z</time>
      </trkpt>
      <trkpt lat="47.59458" lon="6.77687">
        <ele>454.1</ele>
        <time>2017-10-15T08:16:59.999Z</time>
      </trkpt>
      <trkpt lat="47.59456" lon="6.77683">
        <ele>454.4</ele>
        <time>2017-10-15T08:17:01.999Z</time>
      </trkpt>
      <trkpt lat="47.59455" lon="6.77681">
        <ele>454.5</ele>
        <time>2017-10-15T08:17:02.999Z</time>
      </trkpt>
      <trkpt lat="47.59453" lon="6.77676">
        <ele>454.8</ele>
        <time>2017-10-15T08:17:04.999Z</time>
      </trkpt>
      <trkpt lat="47.59452" lon="6.77674">
        <ele>454.9</ele>
        <time>2017-10-15T08:17:05.999Z</time>
      </trkpt>
      <trkpt lat="47.5945" lon="6.77669">
        <ele>455.1</ele>
        <time>2017-10-15T08:17:07.999Z</time>
      </trkpt>
      <trkpt lat="47.5945" lon="6.77668">
        <ele>455.1</ele>
        <time>2017-10-15T08:17:08.999Z</time>
      </trkpt>
      <trkpt lat="47.59448" lon="6.77661">
        <ele>455.2</ele>
        <time>2017-10-15T08:17:11.999Z</time>
      </trkpt>
      <trkpt lat="47.59448" lon="6.77659">
        <ele>455.3</ele>
        <time>2017-10-15T08:17:12.999Z</time>
      </trkpt>
      <trkpt lat="47.59448" lon="6.77653">
        <ele>455.5</ele>
        <time>2017-10-15T08:17:17.999Z</time>
      </trkpt>
      <trkpt lat="47.59448" lon="6.77652">
        <ele>455.6</ele>
        <time>2017-10-15T08:17:18.999Z</time>
      </trkpt>
      <trkpt lat="47.59444" lon="6.77653">
        <ele>455.7</ele>
        <time>2017-10-15T08:17:23.999Z</time>
      </trkpt>
      <trkpt lat="47.59443" lon="6.77652">
        <ele>455.8</ele>
        <time>2017-10-15T08:17:24.999Z</time>
      </trkpt>
      <trkpt lat="47.59439" lon="6.7765">
        <ele>456.1</ele>
        <time>2017-10-15T08:17:29.999Z</time>
      </trkpt>
      <trkpt lat="47.59439" lon="6.77649">
        <ele>456.1</ele>
        <time>2017-10-15T08:17:30.999Z</time>
      </trkpt>
      <trkpt lat="47.59439" lon="6.77643">
        <ele>459.5</ele>
        <time>2017-10-15T08:17:47.999Z</time>
      </trkpt>
      <trkpt lat="47.59439" lon="6.77642">
        <ele>459.5</ele>
        <time>2017-10-15T08:17:48.999Z</time>
      </trkpt>
      <trkpt lat="47.59442" lon="6.77637">
        <ele>460.6</ele>
        <time>2017-10-15T08:18:01.999Z</time>
      </trkpt>
      <trkpt lat="47.59442" lon="6.77637">
        <ele>460.6</ele>
        <time>2017-10-15T08:18:02.999Z</time>
      </trkpt>
      <trkpt lat="47.59441" lon="6.77632">
        <ele>465.6</ele>
        <time>2017-10-15T08:19:43.999Z</time>
      </trkpt>
      <trkpt lat="47.59441" lon="6.7763">
        <ele>465.6</ele>
        <time>2017-10-15T08:19:44.999Z</time>
      </trkpt>
      <trkpt lat="47.5944" lon="6.77625">
        <ele>465.9</ele>
        <time>2017-10-15T08:19:46.999Z</time>
      </trkpt>
      <trkpt lat="47.5944" lon="6.77623">
        <ele>466</ele>
        <time>2017-10-15T08:19:47.999Z</time>
      </trkpt>
      <trkpt lat="47.59438" lon="6.77617">
        <ele>466.3</ele>
        <time>2017-10-15T08:19:50.999Z</time>
      </trkpt>
      <trkpt lat="47.59437" lon="6.77615">
        <ele>466.4</ele>
        <time>2017-10-15T08:19:51.999Z</time>
      </trkpt>
      <trkpt lat="47.59435" lon="6.77609">
        <ele>466.9</ele>
        <time>2017-10-15T08:19:54.999Z</time>
      </trkpt>
      <trkpt lat="47.59434" lon="6.77607">
        <ele>467</ele>
        <time>2017-10-15T08:19:55.999Z</time>
      </trkpt>
      <trkpt lat="47.59433" lon="6.77602">
        <ele>467.1</ele>
        <time>2017-10-15T08:19:57.999Z</time>
      </trkpt>
      <trkpt lat="47.59432" lon="6.776">
        <ele>467.2</ele>
        <time>2017-10-15T08:19:58.999Z</time>
      </trkpt>
      <trkpt lat="47.59431" lon="6.77595">
        <ele>467.1</ele>
        <time>2017-10-15T08:20:00.999Z</time>
      </trkpt>
      <trkpt lat="47.59431" lon="6.77592">
        <ele>467</ele>
        <time>2017-10-15T08:20:01.999Z</time>
      </trkpt>
      <trkpt lat="47.59429" lon="6.77587">
        <ele>466.7</ele>
        <time>2017-10-15T08:20:04.999Z</time>
      </trkpt>
      <trkpt lat="47.59428" lon="6.77585">
        <ele>466.6</ele>
        <time>2017-10-15T08:20:05.999Z</time>
      </trkpt>
      <trkpt lat="47.59428" lon="6.7758">
        <ele>466.7</ele>
        <time>2017-10-15T08:20:07.999Z</time>
      </trkpt>
      <trkpt lat="47.59428" lon="6.77578">
        <ele>466.7</ele>
        <time>2017-10-15T08:20:08.999Z</time>
      </trkpt>
      <trkpt lat="47.59427" lon="6.77572">
        <ele>466.8</ele>
        <time>2017-10-15T08:20:12.999Z</time>
      </trkpt>
      <trkpt lat="47.59427" lon="6.77568">
        <ele>466.8</ele>
        <time>2017-10-15T08:20:13.999Z</time>
      </trkpt>
      <trkpt lat="47.59427" lon="6.77562">
        <ele>466.9</ele>
        <time>2017-10-15T08:20:15.999Z</time>
      </trkpt>
      <trkpt lat="47.59427" lon="6.7756">
        <ele>466.9</ele>
        <time>2017-10-15T08:20:16.999Z</time>
      </trkpt>
      <trkpt lat="47.59427" lon="6.77556">
        <ele>466.9</ele>
        <time>2017-10-15T08:20:17.999Z</time>
      </trkpt>
      <trkpt lat="47.59427" lon="6.77552">
        <ele>467</ele>
        <time>2017-10-15T08:20:18.999Z</time>
      </trkpt>
      <trkpt lat="47.59427" lon="6.77548">
        <ele>467.1</ele>
        <time>2017-10-15T08:20:19.999Z</time>
      </trkpt>
      <trkpt lat="47.59427" lon="6.77543">
        <ele>467.3</ele>
        <time>2017-10-15T08:20:20.999Z</time>
      </trkpt>
      <trkpt lat="47.59426" lon="6.7754">
        <ele>467.4</ele>
        <time>2017-10-15T08:20:21.999Z</time>
      </trkpt>
      <trkpt lat="47.59425" lon="6.77537">
        <ele>467.5</ele>
        <time>2017-10-15T08:20:22.999Z</time>
      </trkpt>
      <trkpt lat="47.59425" lon="6.77533">
        <ele>467.7</ele>
        <time>2017-10-15T08:20:23.999Z</time>
      </trkpt>
      <trkpt lat="47.59425" lon="6.77528">
        <ele>467.8</ele>
        <time>2017-10-15T08:20:24.999Z</time>
      </trkpt>
      <trkpt lat="47.59426" lon="6.77523">
        <ele>468.2</ele>
        <time>2017-10-15T08:20:26.999Z</time>
      </trkpt>
      <trkpt lat="47.59426" lon="6.7752">
        <ele>468.4</ele>
        <time>2017-10-15T08:20:27.999Z</time>
      </trkpt>
      <trkpt lat="47.59426" lon="6.77515">
        <ele>468.7</ele>
        <time>2017-10-15T08:20:29.999Z</time>
      </trkpt>
      <trkpt lat="47.59425" lon="6.77512">
        <ele>468.8</ele>
        <time>2017-10-15T08:20:30.999Z</time>
      </trkpt>
      <trkpt lat="47.59425" lon="6.77507">
        <ele>468.9</ele>
        <time>2017-10-15T08:20:32.999Z</time>
      </trkpt>
      <trkpt lat="47.59424" lon="6.77504">
        <ele>468.9</ele>
        <time>2017-10-15T08:20:33.999Z</time>
      </trkpt>
      <trkpt lat="47.59424" lon="6.77498">
        <ele>468.9</ele>
        <time>2017-10-15T08:20:36.999Z</time>
      </trkpt>
      <trkpt lat="47.59424" lon="6.77494">
        <ele>468.8</ele>
        <time>2017-10-15T08:20:37.999Z</time>
      </trkpt>
      <trkpt lat="47.59424" lon="6.7749">
        <ele>468.8</ele>
        <time>2017-10-15T08:20:39.999Z</time>
      </trkpt>
      <trkpt lat="47.59424" lon="6.77483">
        <ele>468.8</ele>
        <time>2017-10-15T08:20:40.999Z</time>
      </trkpt>
      <trkpt lat="47.59424" lon="6.77477">
        <ele>468.8</ele>
        <time>2017-10-15T08:20:41.999Z</time>
      </trkpt>
      <trkpt lat="47.59425" lon="6.77474">
        <ele>468.9</ele>
        <time>2017-10-15T08:20:42.999Z</time>
      </trkpt>
      <trkpt lat="47.59425" lon="6.77472">
        <ele>469</ele>
        <time>2017-10-15T08:20:43.999Z</time>
      </trkpt>
      <trkpt lat="47.59424" lon="6.77467">
        <ele>469</ele>
        <time>2017-10-15T08:20:44.999Z</time>
      </trkpt>
      <trkpt lat="47.59424" lon="6.77462">
        <ele>468.9</ele>
        <time>2017-10-15T08:20:47.999Z</time>
      </trkpt>
      <trkpt lat="47.59424" lon="6.77459">
        <ele>468.9</ele>
        <time>2017-10-15T08:20:48.999Z</time>
      </trkpt>
      <trkpt lat="47.59424" lon="6.77454">
        <ele>468.9</ele>
        <time>2017-10-15T08:20:50.999Z</time>
      </trkpt>
      <trkpt lat="47.59424" lon="6.77452">
        <ele>469</ele>
        <time>2017-10-15T08:20:51.999Z</time>
      </trkpt>
      <trkpt lat="47.59426" lon="6.77446">
        <ele>468.9</ele>
        <time>2017-10-15T08:20:52.999Z</time>
      </trkpt>
      <trkpt lat="47.59426" lon="6.77443">
        <ele>468.9</ele>
        <time>2017-10-15T08:20:53.999Z</time>
      </trkpt>
      <trkpt lat="47.59426" lon="6.77438">
        <ele>469</ele>
        <time>2017-10-15T08:20:55.999Z</time>
      </trkpt>
      <trkpt lat="47.59427" lon="6.77435">
        <ele>469.2</ele>
        <time>2017-10-15T08:20:56.999Z</time>
      </trkpt>
      <trkpt lat="47.59427" lon="6.7743">
        <ele>469.7</ele>
        <time>2017-10-15T08:20:58.999Z</time>
      </trkpt>
      <trkpt lat="47.59427" lon="6.77428">
        <ele>470.1</ele>
        <time>2017-10-15T08:20:59.999Z</time>
      </trkpt>
      <trkpt lat="47.59427" lon="6.77422">
        <ele>470.9</ele>
        <time>2017-10-15T08:21:01.999Z</time>
      </trkpt>
      <trkpt lat="47.59427" lon="6.77419">
        <ele>471.2</ele>
        <time>2017-10-15T08:21:02.999Z</time>
      </trkpt>
      <trkpt lat="47.59426" lon="6.77413">
        <ele>471.8</ele>
        <time>2017-10-15T08:21:04.999Z</time>
      </trkpt>
      <trkpt lat="47.59426" lon="6.77408">
        <ele>472.2</ele>
        <time>2017-10-15T08:21:05.999Z</time>
      </trkpt>
      <trkpt lat="47.59426" lon="6.77403">
        <ele>472.4</ele>
        <time>2017-10-15T08:21:06.999Z</time>
      </trkpt>
      <trkpt lat="47.59426" lon="6.774">
        <ele>472.6</ele>
        <time>2017-10-15T08:21:07.999Z</time>
      </trkpt>
      <trkpt lat="47.59426" lon="6.77395">
        <ele>472.9</ele>
        <time>2017-10-15T08:21:08.999Z</time>
      </trkpt>
      <trkpt lat="47.59425" lon="6.7739">
        <ele>473.2</ele>
        <time>2017-10-15T08:21:09.999Z</time>
      </trkpt>
      <trkpt lat="47.59426" lon="6.77386">
        <ele>473.4</ele>
        <time>2017-10-15T08:21:10.999Z</time>
      </trkpt>
      <trkpt lat="47.59427" lon="6.77382">
        <ele>473.6</ele>
        <time>2017-10-15T08:21:11.999Z</time>
      </trkpt>
      <trkpt lat="47.59429" lon="6.7738">
        <ele>473.7</ele>
        <time>2017-10-15T08:21:12.999Z</time>
      </trkpt>
      <trkpt lat="47.59431" lon="6.77378">
        <ele>473.9</ele>
        <time>2017-10-15T08:21:13.999Z</time>
      </trkpt>
      <trkpt lat="47.59434" lon="6.77374">
        <ele>474.2</ele>
        <time>2017-10-15T08:21:17.999Z</time>
      </trkpt>
      <trkpt lat="47.59435" lon="6.77373">
        <ele>474.4</ele>
        <time>2017-10-15T08:21:18.999Z</time>
      </trkpt>
      <trkpt lat="47.59437" lon="6.77371">
        <ele>474.5</ele>
        <time>2017-10-15T08:21:20.999Z</time>
      </trkpt>
      <trkpt lat="47.59439" lon="6.77369">
        <ele>474.6</ele>
        <time>2017-10-15T08:21:21.999Z</time>
      </trkpt>
      <trkpt lat="47.59441" lon="6.77365">
        <ele>474.8</ele>
        <time>2017-10-15T08:21:22.999Z</time>
      </trkpt>
      <trkpt lat="47.59443" lon="6.77363">
        <ele>474.8</ele>
        <time>2017-10-15T08:21:23.999Z</time>
      </trkpt>
      <trkpt lat="47.59446" lon="6.77359">
        <ele>474.8</ele>
        <time>2017-10-15T08:21:25.999Z</time>
      </trkpt>
      <trkpt lat="47.59446" lon="6.77358">
        <ele>474.9</ele>
        <time>2017-10-15T08:21:26.999Z</time>
      </trkpt>
      <trkpt lat="47.5945" lon="6.77354">
        <ele>474.6</ele>
        <time>2017-10-15T08:21:29.999Z</time>
      </trkpt>
      <trkpt lat="47.59451" lon="6.77352">
        <ele>474.5</ele>
        <time>2017-10-15T08:21:30.999Z</time>
      </trkpt>
      <trkpt lat="47.59452" lon="6.77348">
        <ele>474.4</ele>
        <time>2017-10-15T08:21:32.999Z</time>
      </trkpt>
      <trkpt lat="47.59454" lon="6.77345">
        <ele>474.3</ele>
        <time>2017-10-15T08:21:33.999Z</time>
      </trkpt>
      <trkpt lat="47.59455" lon="6.77342">
        <ele>474.2</ele>
        <time>2017-10-15T08:21:35.999Z</time>
      </trkpt>
      <trkpt lat="47.59457" lon="6.77337">
        <ele>474</ele>
        <time>2017-10-15T08:21:36.999Z</time>
      </trkpt>
      <trkpt lat="47.59459" lon="6.77335">
        <ele>473.7</ele>
        <time>2017-10-15T08:21:38.999Z</time>
      </trkpt>
      <trkpt lat="47.59461" lon="6.77332">
        <ele>473.5</ele>
        <time>2017-10-15T08:21:39.999Z</time>
      </trkpt>
      <trkpt lat="47.59465" lon="6.7733">
        <ele>473</ele>
        <time>2017-10-15T08:21:42.999Z</time>
      </trkpt>
      <trkpt lat="47.59467" lon="6.77328">
        <ele>472.9</ele>
        <time>2017-10-15T08:21:43.999Z</time>
      </trkpt>
      <trkpt lat="47.59469" lon="6.77327">
        <ele>472.7</ele>
        <time>2017-10-15T08:21:44.999Z</time>
      </trkpt>
      <trkpt lat="47.59471" lon="6.77324">
        <ele>472.7</ele>
        <time>2017-10-15T08:21:45.999Z</time>
      </trkpt>
      <trkpt lat="47.59471" lon="6.77321">
        <ele>472.6</ele>
        <time>2017-10-15T08:21:46.999Z</time>
      </trkpt>
      <trkpt lat="47.59472" lon="6.77318">
        <ele>472.5</ele>
        <time>2017-10-15T08:21:47.999Z</time>
      </trkpt>
      <trkpt lat="47.59472" lon="6.77311">
        <ele>472.3</ele>
        <time>2017-10-15T08:21:50.999Z</time>
      </trkpt>
      <trkpt lat="47.59473" lon="6.77309">
        <ele>472.3</ele>
        <time>2017-10-15T08:21:51.999Z</time>
      </trkpt>
      <trkpt lat="47.59475" lon="6.77304">
        <ele>472.4</ele>
        <time>2017-10-15T08:21:56.999Z</time>
      </trkpt>
      <trkpt lat="47.59476" lon="6.77303">
        <ele>472.5</ele>
        <time>2017-10-15T08:21:57.999Z</time>
      </trkpt>
      <trkpt lat="47.59477" lon="6.77297">
        <ele>473</ele>
        <time>2017-10-15T08:22:02.999Z</time>
      </trkpt>
      <trkpt lat="47.59478" lon="6.77296">
        <ele>473.1</ele>
        <time>2017-10-15T08:22:03.999Z</time>
      </trkpt>
      <trkpt lat="47.59481" lon="6.77292">
        <ele>473.7</ele>
        <time>2017-10-15T08:22:06.999Z</time>
      </trkpt>
      <trkpt lat="47.59482" lon="6.77291">
        <ele>473.9</ele>
        <time>2017-10-15T08:22:07.999Z</time>
      </trkpt>
      <trkpt lat="47.59483" lon="6.77288">
        <ele>474.1</ele>
        <time>2017-10-15T08:22:09.999Z</time>
      </trkpt>
      <trkpt lat="47.59484" lon="6.77285">
        <ele>474.2</ele>
        <time>2017-10-15T08:22:10.999Z</time>
      </trkpt>
      <trkpt lat="47.59488" lon="6.77281">
        <ele>474.4</ele>
        <time>2017-10-15T08:22:13.999Z</time>
      </trkpt>
      <trkpt lat="47.59489" lon="6.7728">
        <ele>474.5</ele>
        <time>2017-10-15T08:22:14.999Z</time>
      </trkpt>
      <trkpt lat="47.5949" lon="6.77274">
        <ele>475</ele>
        <time>2017-10-15T08:22:20.999Z</time>
      </trkpt>
      <trkpt lat="47.5949" lon="6.77273">
        <ele>475.1</ele>
        <time>2017-10-15T08:22:21.999Z</time>
      </trkpt>
      <trkpt lat="47.59492" lon="6.77269">
        <ele>475.6</ele>
        <time>2017-10-15T08:22:24.999Z</time>
      </trkpt>
      <trkpt lat="47.59492" lon="6.77267">
        <ele>475.7</ele>
        <time>2017-10-15T08:22:25.999Z</time>
      </trkpt>
      <trkpt lat="47.59494" lon="6.77261">
        <ele>476</ele>
        <time>2017-10-15T08:22:28.999Z</time>
      </trkpt>
      <trkpt lat="47.59494" lon="6.77259">
        <ele>476</ele>
        <time>2017-10-15T08:22:29.999Z</time>
      </trkpt>
      <trkpt lat="47.59496" lon="6.77255">
        <ele>476.1</ele>
        <time>2017-10-15T08:22:32.999Z</time>
      </trkpt>
      <trkpt lat="47.59497" lon="6.77253">
        <ele>476.1</ele>
        <time>2017-10-15T08:22:33.999Z</time>
      </trkpt>
      <trkpt lat="47.59498" lon="6.77247">
        <ele>476.3</ele>
        <time>2017-10-15T08:22:36.999Z</time>
      </trkpt>
      <trkpt lat="47.59498" lon="6.77245">
        <ele>476.4</ele>
        <time>2017-10-15T08:22:37.999Z</time>
      </trkpt>
      <trkpt lat="47.59501" lon="6.7724">
        <ele>478.2</ele>
        <time>2017-10-15T08:22:46.999Z</time>
      </trkpt>
      <trkpt lat="47.59503" lon="6.77236">
        <ele>478.5</ele>
        <time>2017-10-15T08:22:47.999Z</time>
      </trkpt>
      <trkpt lat="47.59506" lon="6.77232">
        <ele>481.2</ele>
        <time>2017-10-15T08:22:54.999Z</time>
      </trkpt>
      <trkpt lat="47.59506" lon="6.7723">
        <ele>481.4</ele>
        <time>2017-10-15T08:22:55.999Z</time>
      </trkpt>
      <trkpt lat="47.59509" lon="6.77226">
        <ele>481.8</ele>
        <time>2017-10-15T08:22:57.999Z</time>
      </trkpt>
      <trkpt lat="47.5951" lon="6.77225">
        <ele>482</ele>
        <time>2017-10-15T08:22:58.999Z</time>
      </trkpt>
      <trkpt lat="47.59512" lon="6.77219">
        <ele>482.6</ele>
        <time>2017-10-15T08:23:01.999Z</time>
      </trkpt>
      <trkpt lat="47.59513" lon="6.77218">
        <ele>482.8</ele>
        <time>2017-10-15T08:23:02.999Z</time>
      </trkpt>
      <trkpt lat="47.59515" lon="6.77213">
        <ele>483.1</ele>
        <time>2017-10-15T08:23:04.999Z</time>
      </trkpt>
      <trkpt lat="47.59516" lon="6.77211">
        <ele>483.3</ele>
        <time>2017-10-15T08:23:05.999Z</time>
      </trkpt>
      <trkpt lat="47.59519" lon="6.77206">
        <ele>484.2</ele>
        <time>2017-10-15T08:23:08.999Z</time>
      </trkpt>
      <trkpt lat="47.59519" lon="6.77204">
        <ele>484.4</ele>
        <time>2017-10-15T08:23:09.999Z</time>
      </trkpt>
      <trkpt lat="47.59521" lon="6.77199">
        <ele>485.6</ele>
        <time>2017-10-15T08:23:13.999Z</time>
      </trkpt>
      <trkpt lat="47.59522" lon="6.77197">
        <ele>485.8</ele>
        <time>2017-10-15T08:23:14.999Z</time>
      </trkpt>
      <trkpt lat="47.59525" lon="6.77192">
        <ele>486.5</ele>
        <time>2017-10-15T08:23:16.999Z</time>
      </trkpt>
      <trkpt lat="47.59525" lon="6.77191">
        <ele>486.8</ele>
        <time>2017-10-15T08:23:17.999Z</time>
      </trkpt>
      <trkpt lat="47.59525" lon="6.77186">
        <ele>487.7</ele>
        <time>2017-10-15T08:23:20.999Z</time>
      </trkpt>
      <trkpt lat="47.59526" lon="6.77183">
        <ele>488</ele>
        <time>2017-10-15T08:23:21.999Z</time>
      </trkpt>
      <trkpt lat="47.59528" lon="6.77178">
        <ele>488.9</ele>
        <time>2017-10-15T08:23:25.999Z</time>
      </trkpt>
      <trkpt lat="47.59529" lon="6.77176">
        <ele>489</ele>
        <time>2017-10-15T08:23:26.999Z</time>
      </trkpt>
      <trkpt lat="47.5953" lon="6.7717">
        <ele>489.8</ele>
        <time>2017-10-15T08:23:31.999Z</time>
      </trkpt>
      <trkpt lat="47.59531" lon="6.77169">
        <ele>490.1</ele>
        <time>2017-10-15T08:23:32.999Z</time>
      </trkpt>
      <trkpt lat="47.59532" lon="6.77163">
        <ele>491.1</ele>
        <time>2017-10-15T08:23:37.999Z</time>
      </trkpt>
      <trkpt lat="47.59532" lon="6.77161">
        <ele>491.2</ele>
        <time>2017-10-15T08:23:38.999Z</time>
      </trkpt>
      <trkpt lat="47.59533" lon="6.77155">
        <ele>491.8</ele>
        <time>2017-10-15T08:23:44.999Z</time>
      </trkpt>
      <trkpt lat="47.59534" lon="6.77154">
        <ele>492</ele>
        <time>2017-10-15T08:23:45.999Z</time>
      </trkpt>
      <trkpt lat="47.59535" lon="6.77149">
        <ele>492.4</ele>
        <time>2017-10-15T08:23:48.999Z</time>
      </trkpt>
      <trkpt lat="47.59535" lon="6.77147">
        <ele>492.5</ele>
        <time>2017-10-15T08:23:49.999Z</time>
      </trkpt>
      <trkpt lat="47.59536" lon="6.77142">
        <ele>493</ele>
        <time>2017-10-15T08:23:52.999Z</time>
      </trkpt>
      <trkpt lat="47.59535" lon="6.7714">
        <ele>493.1</ele>
        <time>2017-10-15T08:23:53.999Z</time>
      </trkpt>
      <trkpt lat="47.59534" lon="6.77134">
        <ele>493.1</ele>
        <time>2017-10-15T08:23:55.999Z</time>
      </trkpt>
      <trkpt lat="47.59535" lon="6.77133">
        <ele>493</ele>
        <time>2017-10-15T08:23:56.999Z</time>
      </trkpt>
      <trkpt lat="47.59534" lon="6.77126">
        <ele>493.3</ele>
        <time>2017-10-15T08:23:59.999Z</time>
      </trkpt>
      <trkpt lat="47.59534" lon="6.77124">
        <ele>493.4</ele>
        <time>2017-10-15T08:24:00.999Z</time>
      </trkpt>
      <trkpt lat="47.59534" lon="6.77119">
        <ele>493.9</ele>
        <time>2017-10-15T08:24:03.999Z</time>
      </trkpt>
      <trkpt lat="47.59534" lon="6.77116">
        <ele>494.1</ele>
        <time>2017-10-15T08:24:04.999Z</time>
      </trkpt>
      <trkpt lat="47.59535" lon="6.7711">
        <ele>494.8</ele>
        <time>2017-10-15T08:24:08.999Z</time>
      </trkpt>
      <trkpt lat="47.59535" lon="6.77109">
        <ele>494.9</ele>
        <time>2017-10-15T08:24:09.999Z</time>
      </trkpt>
      <trkpt lat="47.59536" lon="6.77103">
        <ele>495.6</ele>
        <time>2017-10-15T08:24:14.999Z</time>
      </trkpt>
      <trkpt lat="47.59536" lon="6.77102">
        <ele>495.7</ele>
        <time>2017-10-15T08:24:15.999Z</time>
      </trkpt>
      <trkpt lat="47.59536" lon="6.77096">
        <ele>496.6</ele>
        <time>2017-10-15T08:24:19.999Z</time>
      </trkpt>
      <trkpt lat="47.59536" lon="6.77093">
        <ele>496.9</ele>
        <time>2017-10-15T08:24:20.999Z</time>
      </trkpt>
      <trkpt lat="47.59535" lon="6.77089">
        <ele>497.6</ele>
        <time>2017-10-15T08:24:22.999Z</time>
      </trkpt>
      <trkpt lat="47.59535" lon="6.77087">
        <ele>497.9</ele>
        <time>2017-10-15T08:24:23.999Z</time>
      </trkpt>
      <trkpt lat="47.59534" lon="6.77081">
        <ele>498.8</ele>
        <time>2017-10-15T08:24:26.999Z</time>
      </trkpt>
      <trkpt lat="47.59535" lon="6.77079">
        <ele>499</ele>
        <time>2017-10-15T08:24:27.999Z</time>
      </trkpt>
      <trkpt lat="47.59535" lon="6.77073">
        <ele>499.8</ele>
        <time>2017-10-15T08:24:30.999Z</time>
      </trkpt>
      <trkpt lat="47.59536" lon="6.77067">
        <ele>499.9</ele>
        <time>2017-10-15T08:24:31.999Z</time>
      </trkpt>
      <trkpt lat="47.59536" lon="6.77063">
        <ele>500</ele>
        <time>2017-10-15T08:24:32.999Z</time>
      </trkpt>
      <trkpt lat="47.59536" lon="6.77061">
        <ele>500.2</ele>
        <time>2017-10-15T08:24:33.999Z</time>
      </trkpt>
      <trkpt lat="47.59537" lon="6.77056">
        <ele>500.4</ele>
        <time>2017-10-15T08:24:35.999Z</time>
      </trkpt>
      <trkpt lat="47.59537" lon="6.77052">
        <ele>500.5</ele>
        <time>2017-10-15T08:24:36.999Z</time>
      </trkpt>
      <trkpt lat="47.59538" lon="6.77048">
        <ele>500.7</ele>
        <time>2017-10-15T08:24:39.999Z</time>
      </trkpt>
      <trkpt lat="47.59538" lon="6.77044">
        <ele>500.8</ele>
        <time>2017-10-15T08:24:40.999Z</time>
      </trkpt>
      <trkpt lat="47.59539" lon="6.77039">
        <ele>501.4</ele>
        <time>2017-10-15T08:24:43.999Z</time>
      </trkpt>
      <trkpt lat="47.59539" lon="6.77037">
        <ele>501.5</ele>
        <time>2017-10-15T08:24:44.999Z</time>
      </trkpt>
      <trkpt lat="47.5954" lon="6.77032">
        <ele>502.2</ele>
        <time>2017-10-15T08:24:47.999Z</time>
      </trkpt>
      <trkpt lat="47.5954" lon="6.77029">
        <ele>502.5</ele>
        <time>2017-10-15T08:24:48.999Z</time>
      </trkpt>
      <trkpt lat="47.5954" lon="6.77024">
        <ele>503.2</ele>
        <time>2017-10-15T08:24:51.999Z</time>
      </trkpt>
      <trkpt lat="47.5954" lon="6.77022">
        <ele>503.5</ele>
        <time>2017-10-15T08:24:52.999Z</time>
      </trkpt>
      <trkpt lat="47.5954" lon="6.77016">
        <ele>503.9</ele>
        <time>2017-10-15T08:24:54.999Z</time>
      </trkpt>
      <trkpt lat="47.5954" lon="6.77014">
        <ele>504.2</ele>
        <time>2017-10-15T08:24:55.999Z</time>
      </trkpt>
      <trkpt lat="47.59542" lon="6.7701">
        <ele>504.7</ele>
        <time>2017-10-15T08:24:58.999Z</time>
      </trkpt>
      <trkpt lat="47.59541" lon="6.77007">
        <ele>504.8</ele>
        <time>2017-10-15T08:24:59.999Z</time>
      </trkpt>
      <trkpt lat="47.59542" lon="6.77001">
        <ele>505</ele>
        <time>2017-10-15T08:25:02.999Z</time>
      </trkpt>
      <trkpt lat="47.59542" lon="6.76999">
        <ele>505</ele>
        <time>2017-10-15T08:25:03.999Z</time>
      </trkpt>
      <trkpt lat="47.59543" lon="6.76993">
        <ele>504.9</ele>
        <time>2017-10-15T08:25:05.999Z</time>
      </trkpt>
      <trkpt lat="47.59543" lon="6.76991">
        <ele>505</ele>
        <time>2017-10-15T08:25:06.999Z</time>
      </trkpt>
      <trkpt lat="47.59542" lon="6.76985">
        <ele>505.3</ele>
        <time>2017-10-15T08:25:08.999Z</time>
      </trkpt>
      <trkpt lat="47.59542" lon="6.76984">
        <ele>505.4</ele>
        <time>2017-10-15T08:25:09.999Z</time>
      </trkpt>
      <trkpt lat="47.59543" lon="6.7698">
        <ele>505.9</ele>
        <time>2017-10-15T08:25:12.999Z</time>
      </trkpt>
      <trkpt lat="47.59544" lon="6.76977">
        <ele>506</ele>
        <time>2017-10-15T08:25:13.999Z</time>
      </trkpt>
      <trkpt lat="47.59545" lon="6.76973">
        <ele>506.2</ele>
        <time>2017-10-15T08:25:16.999Z</time>
      </trkpt>
      <trkpt lat="47.59545" lon="6.7697">
        <ele>506.2</ele>
        <time>2017-10-15T08:25:17.999Z</time>
      </trkpt>
      <trkpt lat="47.59544" lon="6.76966">
        <ele>506.2</ele>
        <time>2017-10-15T08:25:19.999Z</time>
      </trkpt>
      <trkpt lat="47.59543" lon="6.76962">
        <ele>506.1</ele>
        <time>2017-10-15T08:25:20.999Z</time>
      </trkpt>
      <trkpt lat="47.59543" lon="6.76957">
        <ele>505.9</ele>
        <time>2017-10-15T08:25:22.999Z</time>
      </trkpt>
      <trkpt lat="47.59543" lon="6.76954">
        <ele>505.8</ele>
        <time>2017-10-15T08:25:23.999Z</time>
      </trkpt>
      <trkpt lat="47.59542" lon="6.76951">
        <ele>505.8</ele>
        <time>2017-10-15T08:25:24.999Z</time>
      </trkpt>
      <trkpt lat="47.59542" lon="6.76948">
        <ele>505.7</ele>
        <time>2017-10-15T08:25:25.999Z</time>
      </trkpt>
      <trkpt lat="47.59542" lon="6.76942">
        <ele>506</ele>
        <time>2017-10-15T08:25:27.999Z</time>
      </trkpt>
      <trkpt lat="47.59542" lon="6.7694">
        <ele>506</ele>
        <time>2017-10-15T08:25:28.999Z</time>
      </trkpt>
      <trkpt lat="47.59542" lon="6.76934">
        <ele>506.3</ele>
        <time>2017-10-15T08:25:31.999Z</time>
      </trkpt>
      <trkpt lat="47.59542" lon="6.76932">
        <ele>506.5</ele>
        <time>2017-10-15T08:25:32.999Z</time>
      </trkpt>
      <trkpt lat="47.5954" lon="6.76926">
        <ele>507.1</ele>
        <time>2017-10-15T08:25:36.999Z</time>
      </trkpt>
      <trkpt lat="47.5954" lon="6.76924">
        <ele>507.3</ele>
        <time>2017-10-15T08:25:37.999Z</time>
      </trkpt>
      <trkpt lat="47.5954" lon="6.76918">
        <ele>507.5</ele>
        <time>2017-10-15T08:25:39.999Z</time>
      </trkpt>
      <trkpt lat="47.5954" lon="6.76915">
        <ele>507.6</ele>
        <time>2017-10-15T08:25:40.999Z</time>
      </trkpt>
      <trkpt lat="47.59541" lon="6.76909">
        <ele>507.7</ele>
        <time>2017-10-15T08:25:43.999Z</time>
      </trkpt>
      <trkpt lat="47.59542" lon="6.76906">
        <ele>507.7</ele>
        <time>2017-10-15T08:25:44.999Z</time>
      </trkpt>
      <trkpt lat="47.59543" lon="6.76901">
        <ele>507.7</ele>
        <time>2017-10-15T08:25:46.999Z</time>
      </trkpt>
      <trkpt lat="47.59544" lon="6.76898">
        <ele>507.7</ele>
        <time>2017-10-15T08:25:47.999Z</time>
      </trkpt>
      <trkpt lat="47.59544" lon="6.76892">
        <ele>506.9</ele>
        <time>2017-10-15T08:25:54.999Z</time>
      </trkpt>
      <trkpt lat="47.59544" lon="6.76887">
        <ele>506.8</ele>
        <time>2017-10-15T08:25:55.999Z</time>
      </trkpt>
      <trkpt lat="47.59544" lon="6.76884">
        <ele>506.8</ele>
        <time>2017-10-15T08:25:56.999Z</time>
      </trkpt>
      <trkpt lat="47.59544" lon="6.76878">
        <ele>506.8</ele>
        <time>2017-10-15T08:25:57.999Z</time>
      </trkpt>
      <trkpt lat="47.59544" lon="6.76874">
        <ele>506.9</ele>
        <time>2017-10-15T08:25:58.999Z</time>
      </trkpt>
      <trkpt lat="47.59545" lon="6.76869">
        <ele>507</ele>
        <time>2017-10-15T08:25:59.999Z</time>
      </trkpt>
      <trkpt lat="47.59545" lon="6.76866">
        <ele>507.1</ele>
        <time>2017-10-15T08:26:00.999Z</time>
      </trkpt>
      <trkpt lat="47.59546" lon="6.76861">
        <ele>507.1</ele>
        <time>2017-10-15T08:26:01.999Z</time>
      </trkpt>
      <trkpt lat="47.59547" lon="6.76855">
        <ele>507</ele>
        <time>2017-10-15T08:26:02.999Z</time>
      </trkpt>
      <trkpt lat="47.59548" lon="6.76851">
        <ele>507</ele>
        <time>2017-10-15T08:26:03.999Z</time>
      </trkpt>
      <trkpt lat="47.5955" lon="6.76846">
        <ele>507</ele>
        <time>2017-10-15T08:26:05.999Z</time>
      </trkpt>
      <trkpt lat="47.5955" lon="6.76843">
        <ele>507</ele>
        <time>2017-10-15T08:26:06.999Z</time>
      </trkpt>
      <trkpt lat="47.5955" lon="6.76837">
        <ele>506.9</ele>
        <time>2017-10-15T08:26:09.999Z</time>
      </trkpt>
      <trkpt lat="47.5955" lon="6.76836">
        <ele>506.9</ele>
        <time>2017-10-15T08:26:10.999Z</time>
      </trkpt>
      <trkpt lat="47.5955" lon="6.7683">
        <ele>506.8</ele>
        <time>2017-10-15T08:26:13.999Z</time>
      </trkpt>
      <trkpt lat="47.59551" lon="6.76827">
        <ele>506.7</ele>
        <time>2017-10-15T08:26:14.999Z</time>
      </trkpt>
      <trkpt lat="47.59552" lon="6.76823">
        <ele>506.6</ele>
        <time>2017-10-15T08:26:15.999Z</time>
      </trkpt>
      <trkpt lat="47.59552" lon="6.7682">
        <ele>506.5</ele>
        <time>2017-10-15T08:26:16.999Z</time>
      </trkpt>
      <trkpt lat="47.59552" lon="6.76816">
        <ele>506.5</ele>
        <time>2017-10-15T08:26:17.999Z</time>
      </trkpt>
      <trkpt lat="47.59553" lon="6.76813">
        <ele>506.4</ele>
        <time>2017-10-15T08:26:18.999Z</time>
      </trkpt>
      <trkpt lat="47.59555" lon="6.76808">
        <ele>506.6</ele>
        <time>2017-10-15T08:26:20.999Z</time>
      </trkpt>
      <trkpt lat="47.59556" lon="6.76805">
        <ele>506.7</ele>
        <time>2017-10-15T08:26:21.999Z</time>
      </trkpt>
      <trkpt lat="47.59557" lon="6.768">
        <ele>506.8</ele>
        <time>2017-10-15T08:26:23.999Z</time>
      </trkpt>
      <trkpt lat="47.59557" lon="6.76794">
        <ele>506.8</ele>
        <time>2017-10-15T08:26:24.999Z</time>
      </trkpt>
      <trkpt lat="47.59557" lon="6.76792">
        <ele>506.9</ele>
        <time>2017-10-15T08:26:25.999Z</time>
      </trkpt>
      <trkpt lat="47.5956" lon="6.76789">
        <ele>507.1</ele>
        <time>2017-10-15T08:26:26.999Z</time>
      </trkpt>
      <trkpt lat="47.59562" lon="6.76786">
        <ele>507.4</ele>
        <time>2017-10-15T08:26:28.999Z</time>
      </trkpt>
      <trkpt lat="47.59562" lon="6.7678">
        <ele>507.6</ele>
        <time>2017-10-15T08:26:29.999Z</time>
      </trkpt>
      <trkpt lat="47.59562" lon="6.76774">
        <ele>507.9</ele>
        <time>2017-10-15T08:26:31.999Z</time>
      </trkpt>
      <trkpt lat="47.59563" lon="6.76769">
        <ele>508.1</ele>
        <time>2017-10-15T08:26:32.999Z</time>
      </trkpt>
      <trkpt lat="47.59564" lon="6.76764">
        <ele>508.5</ele>
        <time>2017-10-15T08:26:35.999Z</time>
      </trkpt>
      <trkpt lat="47.59564" lon="6.76759">
        <ele>508.6</ele>
        <time>2017-10-15T08:26:36.999Z</time>
      </trkpt>
      <trkpt lat="47.59565" lon="6.76753">
        <ele>508.9</ele>
        <time>2017-10-15T08:26:39.999Z</time>
      </trkpt>
      <trkpt lat="47.59565" lon="6.7675">
        <ele>509.1</ele>
        <time>2017-10-15T08:26:40.999Z</time>
      </trkpt>
      <trkpt lat="47.59564" lon="6.76747">
        <ele>509.3</ele>
        <time>2017-10-15T08:26:41.999Z</time>
      </trkpt>
      <trkpt lat="47.59566" lon="6.76742">
        <ele>509.5</ele>
        <time>2017-10-15T08:26:42.999Z</time>
      </trkpt>
      <trkpt lat="47.59568" lon="6.76737">
        <ele>509.9</ele>
        <time>2017-10-15T08:26:45.999Z</time>
      </trkpt>
      <trkpt lat="47.59568" lon="6.76734">
        <ele>510.2</ele>
        <time>2017-10-15T08:26:46.999Z</time>
      </trkpt>
      <trkpt lat="47.59571" lon="6.76729">
        <ele>510.5</ele>
        <time>2017-10-15T08:26:47.999Z</time>
      </trkpt>
      <trkpt lat="47.59571" lon="6.76728">
        <ele>510.7</ele>
        <time>2017-10-15T08:26:48.999Z</time>
      </trkpt>
      <trkpt lat="47.59571" lon="6.76723">
        <ele>511.3</ele>
        <time>2017-10-15T08:26:50.999Z</time>
      </trkpt>
      <trkpt lat="47.59572" lon="6.76721">
        <ele>511.6</ele>
        <time>2017-10-15T08:26:51.999Z</time>
      </trkpt>
      <trkpt lat="47.59573" lon="6.76716">
        <ele>512.5</ele>
        <time>2017-10-15T08:26:53.999Z</time>
      </trkpt>
      <trkpt lat="47.59574" lon="6.76714">
        <ele>513</ele>
        <time>2017-10-15T08:26:54.999Z</time>
      </trkpt>
      <trkpt lat="47.59576" lon="6.76709">
        <ele>514</ele>
        <time>2017-10-15T08:26:56.999Z</time>
      </trkpt>
      <trkpt lat="47.59576" lon="6.76707">
        <ele>514.4</ele>
        <time>2017-10-15T08:26:57.999Z</time>
      </trkpt>
      <trkpt lat="47.59579" lon="6.76702">
        <ele>515.6</ele>
        <time>2017-10-15T08:26:59.999Z</time>
      </trkpt>
      <trkpt lat="47.59579" lon="6.76699">
        <ele>516.1</ele>
        <time>2017-10-15T08:27:00.999Z</time>
      </trkpt>
      <trkpt lat="47.5958" lon="6.76694">
        <ele>516.9</ele>
        <time>2017-10-15T08:27:02.999Z</time>
      </trkpt>
      <trkpt lat="47.59581" lon="6.76692">
        <ele>517.3</ele>
        <time>2017-10-15T08:27:03.999Z</time>
      </trkpt>
      <trkpt lat="47.59582" lon="6.76687">
        <ele>518.7</ele>
        <time>2017-10-15T08:27:06.999Z</time>
      </trkpt>
      <trkpt lat="47.59582" lon="6.76685">
        <ele>519.2</ele>
        <time>2017-10-15T08:27:07.999Z</time>
      </trkpt>
      <trkpt lat="47.59584" lon="6.76679">
        <ele>520.8</ele>
        <time>2017-10-15T08:27:10.999Z</time>
      </trkpt>
      <trkpt lat="47.59585" lon="6.76677">
        <ele>521.2</ele>
        <time>2017-10-15T08:27:11.999Z</time>
      </trkpt>
      <trkpt lat="47.59587" lon="6.76673">
        <ele>522.8</ele>
        <time>2017-10-15T08:27:14.999Z</time>
      </trkpt>
      <trkpt lat="47.59589" lon="6.76671">
        <ele>523.3</ele>
        <time>2017-10-15T08:27:15.999Z</time>
      </trkpt>
      <trkpt lat="47.59591" lon="6.76667">
        <ele>524.2</ele>
        <time>2017-10-15T08:27:17.999Z</time>
      </trkpt>
      <trkpt lat="47.59591" lon="6.76665">
        <ele>524.6</ele>
        <time>2017-10-15T08:27:18.999Z</time>
      </trkpt>
      <trkpt lat="47.59592" lon="6.76658">
        <ele>526.1</ele>
        <time>2017-10-15T08:27:22.999Z</time>
      </trkpt>
      <trkpt lat="47.59593" lon="6.76656">
        <ele>526.5</ele>
        <time>2017-10-15T08:27:23.999Z</time>
      </trkpt>
      <trkpt lat="47.59593" lon="6.76651">
        <ele>527.4</ele>
        <time>2017-10-15T08:27:25.999Z</time>
      </trkpt>
      <trkpt lat="47.59594" lon="6.76648">
        <ele>527.9</ele>
        <time>2017-10-15T08:27:26.999Z</time>
      </trkpt>
      <trkpt lat="47.59595" lon="6.76643">
        <ele>528.7</ele>
        <time>2017-10-15T08:27:28.999Z</time>
      </trkpt>
      <trkpt lat="47.59595" lon="6.76641">
        <ele>529</ele>
        <time>2017-10-15T08:27:29.999Z</time>
      </trkpt>
      <trkpt lat="47.59597" lon="6.76637">
        <ele>529.6</ele>
        <time>2017-10-15T08:27:31.999Z</time>
      </trkpt>
      <trkpt lat="47.59599" lon="6.76636">
        <ele>530</ele>
        <time>2017-10-15T08:27:32.999Z</time>
      </trkpt>
      <trkpt lat="47.59602" lon="6.76631">
        <ele>530.6</ele>
        <time>2017-10-15T08:27:34.999Z</time>
      </trkpt>
      <trkpt lat="47.59602" lon="6.76629">
        <ele>531</ele>
        <time>2017-10-15T08:27:35.999Z</time>
      </trkpt>
      <trkpt lat="47.59604" lon="6.76624">
        <ele>532</ele>
        <time>2017-10-15T08:27:38.999Z</time>
      </trkpt>
      <trkpt lat="47.59605" lon="6.76622">
        <ele>532.4</ele>
        <time>2017-10-15T08:27:39.999Z</time>
      </trkpt>
      <trkpt lat="47.59606" lon="6.76617">
        <ele>533.1</ele>
        <time>2017-10-15T08:27:41.999Z</time>
      </trkpt>
      <trkpt lat="47.59607" lon="6.76614">
        <ele>533.4</ele>
        <time>2017-10-15T08:27:42.999Z</time>
      </trkpt>
      <trkpt lat="47.59608" lon="6.7661">
        <ele>534</ele>
        <time>2017-10-15T08:27:44.999Z</time>
      </trkpt>
      <trkpt lat="47.59609" lon="6.76607">
        <ele>534.2</ele>
        <time>2017-10-15T08:27:45.999Z</time>
      </trkpt>
      <trkpt lat="47.59612" lon="6.76602">
        <ele>534.6</ele>
        <time>2017-10-15T08:27:47.999Z</time>
      </trkpt>
      <trkpt lat="47.59612" lon="6.76601">
        <ele>534.7</ele>
        <time>2017-10-15T08:27:48.999Z</time>
      </trkpt>
      <trkpt lat="47.59614" lon="6.76596">
        <ele>535.1</ele>
        <time>2017-10-15T08:27:51.999Z</time>
      </trkpt>
      <trkpt lat="47.59615" lon="6.76594">
        <ele>535.2</ele>
        <time>2017-10-15T08:27:52.999Z</time>
      </trkpt>
      <trkpt lat="47.59617" lon="6.76589">
        <ele>535.3</ele>
        <time>2017-10-15T08:27:54.999Z</time>
      </trkpt>
      <trkpt lat="47.59618" lon="6.76587">
        <ele>535.4</ele>
        <time>2017-10-15T08:27:55.999Z</time>
      </trkpt>
      <trkpt lat="47.5962" lon="6.76582">
        <ele>535.8</ele>
        <time>2017-10-15T08:27:59.999Z</time>
      </trkpt>
      <trkpt lat="47.59621" lon="6.7658">
        <ele>535.8</ele>
        <time>2017-10-15T08:28:00.999Z</time>
      </trkpt>
      <trkpt lat="47.59622" lon="6.76575">
        <ele>535.8</ele>
        <time>2017-10-15T08:28:02.999Z</time>
      </trkpt>
      <trkpt lat="47.59624" lon="6.76573">
        <ele>535.8</ele>
        <time>2017-10-15T08:28:03.999Z</time>
      </trkpt>
      <trkpt lat="47.59625" lon="6.76568">
        <ele>535.7</ele>
        <time>2017-10-15T08:28:06.999Z</time>
      </trkpt>
      <trkpt lat="47.59626" lon="6.76566">
        <ele>535.6</ele>
        <time>2017-10-15T08:28:07.999Z</time>
      </trkpt>
      <trkpt lat="47.59628" lon="6.76563">
        <ele>535.7</ele>
        <time>2017-10-15T08:28:09.999Z</time>
      </trkpt>
      <trkpt lat="47.59629" lon="6.7656">
        <ele>535.6</ele>
        <time>2017-10-15T08:28:10.999Z</time>
      </trkpt>
      <trkpt lat="47.59631" lon="6.76557">
        <ele>535.6</ele>
        <time>2017-10-15T08:28:11.999Z</time>
      </trkpt>
      <trkpt lat="47.59633" lon="6.76555">
        <ele>535.5</ele>
        <time>2017-10-15T08:28:12.999Z</time>
      </trkpt>
      <trkpt lat="47.59634" lon="6.76553">
        <ele>535.5</ele>
        <time>2017-10-15T08:28:13.999Z</time>
      </trkpt>
      <trkpt lat="47.59636" lon="6.7655">
        <ele>535.6</ele>
        <time>2017-10-15T08:28:14.999Z</time>
      </trkpt>
      <trkpt lat="47.5964" lon="6.76547">
        <ele>535.7</ele>
        <time>2017-10-15T08:28:17.999Z</time>
      </trkpt>
      <trkpt lat="47.5964" lon="6.76547">
        <ele>535.8</ele>
        <time>2017-10-15T08:28:18.999Z</time>
      </trkpt>
      <trkpt lat="47.59643" lon="6.76548">
        <ele>536.1</ele>
        <time>2017-10-15T08:28:21.999Z</time>
      </trkpt>
      <trkpt lat="47.59645" lon="6.76548">
        <ele>536.4</ele>
        <time>2017-10-15T08:28:22.999Z</time>
      </trkpt>
      <trkpt lat="47.59648" lon="6.7655">
        <ele>537</ele>
        <time>2017-10-15T08:28:24.999Z</time>
      </trkpt>
      <trkpt lat="47.59649" lon="6.76551">
        <ele>537.4</ele>
        <time>2017-10-15T08:28:25.999Z</time>
      </trkpt>
      <trkpt lat="47.59652" lon="6.76553">
        <ele>538.1</ele>
        <time>2017-10-15T08:28:27.999Z</time>
      </trkpt>
      <trkpt lat="47.59654" lon="6.76554">
        <ele>538.4</ele>
        <time>2017-10-15T08:28:28.999Z</time>
      </trkpt>
      <trkpt lat="47.59657" lon="6.76556">
        <ele>539</ele>
        <time>2017-10-15T08:28:30.999Z</time>
      </trkpt>
      <trkpt lat="47.59659" lon="6.76557">
        <ele>539.3</ele>
        <time>2017-10-15T08:28:31.999Z</time>
      </trkpt>
      <trkpt lat="47.59662" lon="6.76559">
        <ele>540.1</ele>
        <time>2017-10-15T08:28:34.999Z</time>
      </trkpt>
      <trkpt lat="47.59664" lon="6.76561">
        <ele>540.3</ele>
        <time>2017-10-15T08:28:35.999Z</time>
      </trkpt>
      <trkpt lat="47.59668" lon="6.76564">
        <ele>540.6</ele>
        <time>2017-10-15T08:28:37.999Z</time>
      </trkpt>
      <trkpt lat="47.59669" lon="6.76565">
        <ele>540.8</ele>
        <time>2017-10-15T08:28:38.999Z</time>
      </trkpt>
      <trkpt lat="47.59672" lon="6.76559">
        <ele>541.5</ele>
        <time>2017-10-15T08:28:43.999Z</time>
      </trkpt>
      <trkpt lat="47.59673" lon="6.76558">
        <ele>541.5</ele>
        <time>2017-10-15T08:28:44.999Z</time>
      </trkpt>
      <trkpt lat="47.59675" lon="6.76553">
        <ele>541.7</ele>
        <time>2017-10-15T08:28:47.999Z</time>
      </trkpt>
      <trkpt lat="47.59677" lon="6.7655">
        <ele>541.8</ele>
        <time>2017-10-15T08:28:48.999Z</time>
      </trkpt>
      <trkpt lat="47.59679" lon="6.76547">
        <ele>541.9</ele>
        <time>2017-10-15T08:28:49.999Z</time>
      </trkpt>
      <trkpt lat="47.59681" lon="6.76544">
        <ele>541.9</ele>
        <time>2017-10-15T08:28:50.999Z</time>
      </trkpt>
      <trkpt lat="47.59683" lon="6.76541">
        <ele>541.9</ele>
        <time>2017-10-15T08:28:51.999Z</time>
      </trkpt>
      <trkpt lat="47.59686" lon="6.76537">
        <ele>541.9</ele>
        <time>2017-10-15T08:28:52.999Z</time>
      </trkpt>
      <trkpt lat="47.59688" lon="6.76534">
        <ele>542</ele>
        <time>2017-10-15T08:28:53.999Z</time>
      </trkpt>
      <trkpt lat="47.59689" lon="6.76532">
        <ele>542</ele>
        <time>2017-10-15T08:28:54.999Z</time>
      </trkpt>
      <trkpt lat="47.59691" lon="6.76528">
        <ele>542.1</ele>
        <time>2017-10-15T08:28:56.999Z</time>
      </trkpt>
      <trkpt lat="47.59692" lon="6.76526">
        <ele>542</ele>
        <time>2017-10-15T08:28:57.999Z</time>
      </trkpt>
      <trkpt lat="47.59694" lon="6.76521">
        <ele>542.3</ele>
        <time>2017-10-15T08:29:01.999Z</time>
      </trkpt>
      <trkpt lat="47.59695" lon="6.76519">
        <ele>542.4</ele>
        <time>2017-10-15T08:29:02.999Z</time>
      </trkpt>
      <trkpt lat="47.59696" lon="6.76513">
        <ele>542.5</ele>
        <time>2017-10-15T08:29:04.999Z</time>
      </trkpt>
      <trkpt lat="47.59697" lon="6.76512">
        <ele>542.6</ele>
        <time>2017-10-15T08:29:05.999Z</time>
      </trkpt>
      <trkpt lat="47.597" lon="6.76509">
        <ele>542.9</ele>
        <time>2017-10-15T08:29:07.999Z</time>
      </trkpt>
      <trkpt lat="47.59702" lon="6.76506">
        <ele>543.1</ele>
        <time>2017-10-15T08:29:08.999Z</time>
      </trkpt>
      <trkpt lat="47.59703" lon="6.76503">
        <ele>543.3</ele>
        <time>2017-10-15T08:29:09.999Z</time>
      </trkpt>
      <trkpt lat="47.59705" lon="6.765">
        <ele>543.4</ele>
        <time>2017-10-15T08:29:10.999Z</time>
      </trkpt>
      <trkpt lat="47.59707" lon="6.76495">
        <ele>543.8</ele>
        <time>2017-10-15T08:29:12.999Z</time>
      </trkpt>
      <trkpt lat="47.59708" lon="6.76492">
        <ele>544</ele>
        <time>2017-10-15T08:29:13.999Z</time>
      </trkpt>
      <trkpt lat="47.59712" lon="6.7649">
        <ele>545.5</ele>
        <time>2017-10-15T08:29:19.999Z</time>
      </trkpt>
      <trkpt lat="47.59713" lon="6.7649">
        <ele>545.8</ele>
        <time>2017-10-15T08:29:20.999Z</time>
      </trkpt>
      <trkpt lat="47.59714" lon="6.76485">
        <ele>546.3</ele>
        <time>2017-10-15T08:29:21.999Z</time>
      </trkpt>
      <trkpt lat="47.59715" lon="6.76482">
        <ele>546.7</ele>
        <time>2017-10-15T08:29:22.999Z</time>
      </trkpt>
      <trkpt lat="47.59718" lon="6.76478">
        <ele>547.5</ele>
        <time>2017-10-15T08:29:24.999Z</time>
      </trkpt>
      <trkpt lat="47.59719" lon="6.76476">
        <ele>547.9</ele>
        <time>2017-10-15T08:29:25.999Z</time>
      </trkpt>
      <trkpt lat="47.59721" lon="6.76473">
        <ele>548.5</ele>
        <time>2017-10-15T08:29:27.999Z</time>
      </trkpt>
      <trkpt lat="47.59723" lon="6.76471">
        <ele>548.8</ele>
        <time>2017-10-15T08:29:28.999Z</time>
      </trkpt>
      <trkpt lat="47.59725" lon="6.76465">
        <ele>549.3</ele>
        <time>2017-10-15T08:29:30.999Z</time>
      </trkpt>
      <trkpt lat="47.59726" lon="6.76463">
        <ele>549.5</ele>
        <time>2017-10-15T08:29:31.999Z</time>
      </trkpt>
      <trkpt lat="47.59728" lon="6.76458">
        <ele>549.8</ele>
        <time>2017-10-15T08:29:33.999Z</time>
      </trkpt>
      <trkpt lat="47.59729" lon="6.76455">
        <ele>549.9</ele>
        <time>2017-10-15T08:29:34.999Z</time>
      </trkpt>
      <trkpt lat="47.5973" lon="6.7645">
        <ele>550.1</ele>
        <time>2017-10-15T08:29:36.999Z</time>
      </trkpt>
      <trkpt lat="47.59731" lon="6.76447">
        <ele>550.2</ele>
        <time>2017-10-15T08:29:37.999Z</time>
      </trkpt>
      <trkpt lat="47.59733" lon="6.76444">
        <ele>550.3</ele>
        <time>2017-10-15T08:29:38.999Z</time>
      </trkpt>
      <trkpt lat="47.59734" lon="6.7644">
        <ele>550.2</ele>
        <time>2017-10-15T08:29:39.999Z</time>
      </trkpt>
      <trkpt lat="47.59735" lon="6.76436">
        <ele>550.3</ele>
        <time>2017-10-15T08:29:41.999Z</time>
      </trkpt>
      <trkpt lat="47.59736" lon="6.76434">
        <ele>550.5</ele>
        <time>2017-10-15T08:29:42.999Z</time>
      </trkpt>
      <trkpt lat="47.59737" lon="6.76428">
        <ele>550.6</ele>
        <time>2017-10-15T08:29:44.999Z</time>
      </trkpt>
      <trkpt lat="47.59738" lon="6.76426">
        <ele>550.7</ele>
        <time>2017-10-15T08:29:45.999Z</time>
      </trkpt>
      <trkpt lat="47.59739" lon="6.76421">
        <ele>550.9</ele>
        <time>2017-10-15T08:29:47.999Z</time>
      </trkpt>
      <trkpt lat="47.5974" lon="6.76419">
        <ele>550.9</ele>
        <time>2017-10-15T08:29:48.999Z</time>
      </trkpt>
      <trkpt lat="47.59741" lon="6.76414">
        <ele>551.1</ele>
        <time>2017-10-15T08:29:50.999Z</time>
      </trkpt>
      <trkpt lat="47.59741" lon="6.76411">
        <ele>551</ele>
        <time>2017-10-15T08:29:51.999Z</time>
      </trkpt>
      <trkpt lat="47.59742" lon="6.76405">
        <ele>551</ele>
        <time>2017-10-15T08:29:53.999Z</time>
      </trkpt>
      <trkpt lat="47.59743" lon="6.76403">
        <ele>551</ele>
        <time>2017-10-15T08:29:54.999Z</time>
      </trkpt>
      <trkpt lat="47.59746" lon="6.76397">
        <ele>550.9</ele>
        <time>2017-10-15T08:29:56.999Z</time>
      </trkpt>
      <trkpt lat="47.59747" lon="6.76394">
        <ele>550.8</ele>
        <time>2017-10-15T08:29:57.999Z</time>
      </trkpt>
      <trkpt lat="47.59749" lon="6.7639">
        <ele>550.7</ele>
        <time>2017-10-15T08:29:58.999Z</time>
      </trkpt>
      <trkpt lat="47.5975" lon="6.76386">
        <ele>550.7</ele>
        <time>2017-10-15T08:29:59.999Z</time>
      </trkpt>
      <trkpt lat="47.59751" lon="6.76383">
        <ele>550.6</ele>
        <time>2017-10-15T08:30:00.999Z</time>
      </trkpt>
      <trkpt lat="47.59753" lon="6.7638">
        <ele>550.4</ele>
        <time>2017-10-15T08:30:01.999Z</time>
      </trkpt>
      <trkpt lat="47.59755" lon="6.76375">
        <ele>550.2</ele>
        <time>2017-10-15T08:30:03.999Z</time>
      </trkpt>
      <trkpt lat="47.59755" lon="6.76372">
        <ele>550.1</ele>
        <time>2017-10-15T08:30:04.999Z</time>
      </trkpt>
      <trkpt lat="47.59757" lon="6.76367">
        <ele>550.1</ele>
        <time>2017-10-15T08:30:06.999Z</time>
      </trkpt>
      <trkpt lat="47.59758" lon="6.76364">
        <ele>550.1</ele>
        <time>2017-10-15T08:30:07.999Z</time>
      </trkpt>
      <trkpt lat="47.59759" lon="6.7636">
        <ele>550.1</ele>
        <time>2017-10-15T08:30:08.999Z</time>
      </trkpt>
      <trkpt lat="47.5976" lon="6.76356">
        <ele>550.1</ele>
        <time>2017-10-15T08:30:09.999Z</time>
      </trkpt>
      <trkpt lat="47.59762" lon="6.76352">
        <ele>550.2</ele>
        <time>2017-10-15T08:30:10.999Z</time>
      </trkpt>
      <trkpt lat="47.59762" lon="6.76349">
        <ele>550.1</ele>
        <time>2017-10-15T08:30:11.999Z</time>
      </trkpt>
      <trkpt lat="47.59762" lon="6.76343">
        <ele>550</ele>
        <time>2017-10-15T08:30:13.999Z</time>
      </trkpt>
      <trkpt lat="47.59762" lon="6.76339">
        <ele>549.9</ele>
        <time>2017-10-15T08:30:14.999Z</time>
      </trkpt>
      <trkpt lat="47.59762" lon="6.76336">
        <ele>549.9</ele>
        <time>2017-10-15T08:30:15.999Z</time>
      </trkpt>
      <trkpt lat="47.59762" lon="6.76331">
        <ele>549.9</ele>
        <time>2017-10-15T08:30:16.999Z</time>
      </trkpt>
      <trkpt lat="47.59763" lon="6.76326">
        <ele>549.9</ele>
        <time>2017-10-15T08:30:17.999Z</time>
      </trkpt>
      <trkpt lat="47.59763" lon="6.76323">
        <ele>549.9</ele>
        <time>2017-10-15T08:30:18.999Z</time>
      </trkpt>
      <trkpt lat="47.59763" lon="6.76316">
        <ele>549.9</ele>
        <time>2017-10-15T08:30:20.999Z</time>
      </trkpt>
      <trkpt lat="47.59764" lon="6.76312">
        <ele>550</ele>
        <time>2017-10-15T08:30:21.999Z</time>
      </trkpt>
      <trkpt lat="47.59765" lon="6.76307">
        <ele>550.1</ele>
        <time>2017-10-15T08:30:22.999Z</time>
      </trkpt>
      <trkpt lat="47.59765" lon="6.76303">
        <ele>550.2</ele>
        <time>2017-10-15T08:30:23.999Z</time>
      </trkpt>
      <trkpt lat="47.59765" lon="6.76298">
        <ele>550.3</ele>
        <time>2017-10-15T08:30:24.999Z</time>
      </trkpt>
      <trkpt lat="47.59765" lon="6.76294">
        <ele>550.3</ele>
        <time>2017-10-15T08:30:25.999Z</time>
      </trkpt>
      <trkpt lat="47.59766" lon="6.76289">
        <ele>550.3</ele>
        <time>2017-10-15T08:30:26.999Z</time>
      </trkpt>
      <trkpt lat="47.59766" lon="6.76284">
        <ele>550.2</ele>
        <time>2017-10-15T08:30:27.999Z</time>
      </trkpt>
      <trkpt lat="47.59767" lon="6.76279">
        <ele>550.1</ele>
        <time>2017-10-15T08:30:28.999Z</time>
      </trkpt>
      <trkpt lat="47.59767" lon="6.76275">
        <ele>550.2</ele>
        <time>2017-10-15T08:30:29.999Z</time>
      </trkpt>
      <trkpt lat="47.59767" lon="6.76272">
        <ele>550.2</ele>
        <time>2017-10-15T08:30:30.999Z</time>
      </trkpt>
      <trkpt lat="47.59768" lon="6.76267">
        <ele>550.1</ele>
        <time>2017-10-15T08:30:31.999Z</time>
      </trkpt>
      <trkpt lat="47.59768" lon="6.76263">
        <ele>550</ele>
        <time>2017-10-15T08:30:32.999Z</time>
      </trkpt>
      <trkpt lat="47.59768" lon="6.7626">
        <ele>549.9</ele>
        <time>2017-10-15T08:30:33.999Z</time>
      </trkpt>
      <trkpt lat="47.59768" lon="6.76254">
        <ele>549.5</ele>
        <time>2017-10-15T08:30:35.999Z</time>
      </trkpt>
      <trkpt lat="47.59768" lon="6.76251">
        <ele>549.3</ele>
        <time>2017-10-15T08:30:36.999Z</time>
      </trkpt>
      <trkpt lat="47.59768" lon="6.76244">
        <ele>549</ele>
        <time>2017-10-15T08:30:38.999Z</time>
      </trkpt>
      <trkpt lat="47.59768" lon="6.76241">
        <ele>548.9</ele>
        <time>2017-10-15T08:30:39.999Z</time>
      </trkpt>
      <trkpt lat="47.59768" lon="6.76237">
        <ele>548.8</ele>
        <time>2017-10-15T08:30:40.999Z</time>
      </trkpt>
      <trkpt lat="47.59767" lon="6.76233">
        <ele>548.7</ele>
        <time>2017-10-15T08:30:41.999Z</time>
      </trkpt>
      <trkpt lat="47.59768" lon="6.76229">
        <ele>548.5</ele>
        <time>2017-10-15T08:30:42.999Z</time>
      </trkpt>
      <trkpt lat="47.59768" lon="6.76226">
        <ele>548.4</ele>
        <time>2017-10-15T08:30:43.999Z</time>
      </trkpt>
      <trkpt lat="47.59767" lon="6.7622">
        <ele>548.2</ele>
        <time>2017-10-15T08:30:45.999Z</time>
      </trkpt>
      <trkpt lat="47.59766" lon="6.76217">
        <ele>548.1</ele>
        <time>2017-10-15T08:30:46.999Z</time>
      </trkpt>
      <trkpt lat="47.59766" lon="6.76211">
        <ele>548</ele>
        <time>2017-10-15T08:30:49.999Z</time>
      </trkpt>
      <trkpt lat="47.59767" lon="6.76207">
        <ele>547.9</ele>
        <time>2017-10-15T08:30:50.999Z</time>
      </trkpt>
      <trkpt lat="47.59769" lon="6.76204">
        <ele>547.7</ele>
        <time>2017-10-15T08:30:51.999Z</time>
      </trkpt>
      <trkpt lat="47.59771" lon="6.76201">
        <ele>547.6</ele>
        <time>2017-10-15T08:30:52.999Z</time>
      </trkpt>
      <trkpt lat="47.59772" lon="6.76197">
        <ele>547.2</ele>
        <time>2017-10-15T08:30:54.999Z</time>
      </trkpt>
      <trkpt lat="47.59773" lon="6.76192">
        <ele>547.1</ele>
        <time>2017-10-15T08:30:55.999Z</time>
      </trkpt>
      <trkpt lat="47.59774" lon="6.76189">
        <ele>546.9</ele>
        <time>2017-10-15T08:30:56.999Z</time>
      </trkpt>
      <trkpt lat="47.59775" lon="6.76185">
        <ele>546.7</ele>
        <time>2017-10-15T08:30:57.999Z</time>
      </trkpt>
      <trkpt lat="47.59775" lon="6.76181">
        <ele>546.6</ele>
        <time>2017-10-15T08:30:58.999Z</time>
      </trkpt>
      <trkpt lat="47.59776" lon="6.76178">
        <ele>546.5</ele>
        <time>2017-10-15T08:30:59.999Z</time>
      </trkpt>
      <trkpt lat="47.59776" lon="6.76174">
        <ele>546.4</ele>
        <time>2017-10-15T08:31:00.999Z</time>
      </trkpt>
      <trkpt lat="47.59776" lon="6.7617">
        <ele>546.3</ele>
        <time>2017-10-15T08:31:01.999Z</time>
      </trkpt>
      <trkpt lat="47.59777" lon="6.76166">
        <ele>546.4</ele>
        <time>2017-10-15T08:31:03.999Z</time>
      </trkpt>
      <trkpt lat="47.59778" lon="6.76163">
        <ele>546.5</ele>
        <time>2017-10-15T08:31:04.999Z</time>
      </trkpt>
      <trkpt lat="47.59777" lon="6.76158">
        <ele>547</ele>
        <time>2017-10-15T08:31:08.999Z</time>
      </trkpt>
      <trkpt lat="47.59777" lon="6.76154">
        <ele>547.2</ele>
        <time>2017-10-15T08:31:09.999Z</time>
      </trkpt>
      <trkpt lat="47.59777" lon="6.7615">
        <ele>547.4</ele>
        <time>2017-10-15T08:31:10.999Z</time>
      </trkpt>
      <trkpt lat="47.59776" lon="6.76147">
        <ele>547.7</ele>
        <time>2017-10-15T08:31:11.999Z</time>
      </trkpt>
      <trkpt lat="47.59776" lon="6.76141">
        <ele>549.6</ele>
        <time>2017-10-15T08:31:24.999Z</time>
      </trkpt>
      <trkpt lat="47.59777" lon="6.76136">
        <ele>550.1</ele>
        <time>2017-10-15T08:31:25.999Z</time>
      </trkpt>
      <trkpt lat="47.59777" lon="6.76132">
        <ele>550.5</ele>
        <time>2017-10-15T08:31:26.999Z</time>
      </trkpt>
      <trkpt lat="47.59777" lon="6.76127">
        <ele>551</ele>
        <time>2017-10-15T08:31:27.999Z</time>
      </trkpt>
      <trkpt lat="47.59776" lon="6.76122">
        <ele>551.9</ele>
        <time>2017-10-15T08:31:29.999Z</time>
      </trkpt>
      <trkpt lat="47.59776" lon="6.76119">
        <ele>552.4</ele>
        <time>2017-10-15T08:31:30.999Z</time>
      </trkpt>
      <trkpt lat="47.59775" lon="6.76114">
        <ele>553</ele>
        <time>2017-10-15T08:31:31.999Z</time>
      </trkpt>
      <trkpt lat="47.59774" lon="6.7611">
        <ele>553.5</ele>
        <time>2017-10-15T08:31:32.999Z</time>
      </trkpt>
      <trkpt lat="47.59773" lon="6.76105">
        <ele>554</ele>
        <time>2017-10-15T08:31:33.999Z</time>
      </trkpt>
      <trkpt lat="47.59771" lon="6.761">
        <ele>554.5</ele>
        <time>2017-10-15T08:31:34.999Z</time>
      </trkpt>
      <trkpt lat="47.59771" lon="6.76094">
        <ele>555.6</ele>
        <time>2017-10-15T08:31:36.999Z</time>
      </trkpt>
      <trkpt lat="47.5977" lon="6.76091">
        <ele>556.1</ele>
        <time>2017-10-15T08:31:37.999Z</time>
      </trkpt>
      <trkpt lat="47.59768" lon="6.76086">
        <ele>556.5</ele>
        <time>2017-10-15T08:31:38.999Z</time>
      </trkpt>
      <trkpt lat="47.59766" lon="6.7608">
        <ele>556.8</ele>
        <time>2017-10-15T08:31:39.999Z</time>
      </trkpt>
      <trkpt lat="47.59765" lon="6.76076">
        <ele>557.2</ele>
        <time>2017-10-15T08:31:40.999Z</time>
      </trkpt>
      <trkpt lat="47.59765" lon="6.76071">
        <ele>557.7</ele>
        <time>2017-10-15T08:31:41.999Z</time>
      </trkpt>
      <trkpt lat="47.59765" lon="6.76067">
        <ele>558.1</ele>
        <time>2017-10-15T08:31:42.999Z</time>
      </trkpt>
      <trkpt lat="47.59766" lon="6.76063">
        <ele>558.4</ele>
        <time>2017-10-15T08:31:43.999Z</time>
      </trkpt>
      <trkpt lat="47.59766" lon="6.7606">
        <ele>558.7</ele>
        <time>2017-10-15T08:31:44.999Z</time>
      </trkpt>
      <trkpt lat="47.59767" lon="6.76057">
        <ele>558.9</ele>
        <time>2017-10-15T08:31:45.999Z</time>
      </trkpt>
      <trkpt lat="47.59767" lon="6.76052">
        <ele>559.3</ele>
        <time>2017-10-15T08:31:47.999Z</time>
      </trkpt>
      <trkpt lat="47.59767" lon="6.7605">
        <ele>559.5</ele>
        <time>2017-10-15T08:31:48.999Z</time>
      </trkpt>
      <trkpt lat="47.59767" lon="6.76045">
        <ele>559.8</ele>
        <time>2017-10-15T08:31:50.999Z</time>
      </trkpt>
      <trkpt lat="47.59768" lon="6.76042">
        <ele>559.9</ele>
        <time>2017-10-15T08:31:51.999Z</time>
      </trkpt>
      <trkpt lat="47.59768" lon="6.76036">
        <ele>560.2</ele>
        <time>2017-10-15T08:31:53.999Z</time>
      </trkpt>
      <trkpt lat="47.59767" lon="6.76033">
        <ele>560.4</ele>
        <time>2017-10-15T08:31:54.999Z</time>
      </trkpt>
      <trkpt lat="47.59767" lon="6.76028">
        <ele>560.6</ele>
        <time>2017-10-15T08:31:56.999Z</time>
      </trkpt>
      <trkpt lat="47.59766" lon="6.76025">
        <ele>560.7</ele>
        <time>2017-10-15T08:31:57.999Z</time>
      </trkpt>
      <trkpt lat="47.59765" lon="6.76021">
        <ele>560.9</ele>
        <time>2017-10-15T08:31:59.999Z</time>
      </trkpt>
      <trkpt lat="47.59764" lon="6.76018">
        <ele>561</ele>
        <time>2017-10-15T08:32:00.999Z</time>
      </trkpt>
      <trkpt lat="47.59764" lon="6.76012">
        <ele>561.1</ele>
        <time>2017-10-15T08:32:03.999Z</time>
      </trkpt>
      <trkpt lat="47.59763" lon="6.7601">
        <ele>561.1</ele>
        <time>2017-10-15T08:32:04.999Z</time>
      </trkpt>
      <trkpt lat="47.59762" lon="6.76004">
        <ele>561.2</ele>
        <time>2017-10-15T08:32:06.999Z</time>
      </trkpt>
      <trkpt lat="47.59762" lon="6.76001">
        <ele>561.3</ele>
        <time>2017-10-15T08:32:08.000Z</time>
      </trkpt>
      <trkpt lat="47.59762" lon="6.75994">
        <ele>561.4</ele>
        <time>2017-10-15T08:32:09.999Z</time>
      </trkpt>
      <trkpt lat="47.59761" lon="6.75991">
        <ele>561.4</ele>
        <time>2017-10-15T08:32:11.000Z</time>
      </trkpt>
      <trkpt lat="47.59761" lon="6.75986">
        <ele>561.6</ele>
        <time>2017-10-15T08:32:13.000Z</time>
      </trkpt>
      <trkpt lat="47.59761" lon="6.75984">
        <ele>561.6</ele>
        <time>2017-10-15T08:32:14.000Z</time>
      </trkpt>
      <trkpt lat="47.59761" lon="6.75978">
        <ele>561.7</ele>
        <time>2017-10-15T08:32:16.000Z</time>
      </trkpt>
      <trkpt lat="47.5976" lon="6.75975">
        <ele>561.7</ele>
        <time>2017-10-15T08:32:17.000Z</time>
      </trkpt>
      <trkpt lat="47.5976" lon="6.75971">
        <ele>561.7</ele>
        <time>2017-10-15T08:32:18.000Z</time>
      </trkpt>
      <trkpt lat="47.5976" lon="6.75968">
        <ele>561.8</ele>
        <time>2017-10-15T08:32:19.000Z</time>
      </trkpt>
      <trkpt lat="47.59759" lon="6.75964">
        <ele>561.7</ele>
        <time>2017-10-15T08:32:20.000Z</time>
      </trkpt>
      <trkpt lat="47.59758" lon="6.75961">
        <ele>561.7</ele>
        <time>2017-10-15T08:32:21.000Z</time>
      </trkpt>
      <trkpt lat="47.59758" lon="6.75957">
        <ele>561.6</ele>
        <time>2017-10-15T08:32:22.000Z</time>
      </trkpt>
      <trkpt lat="47.59757" lon="6.75954">
        <ele>561.5</ele>
        <time>2017-10-15T08:32:23.000Z</time>
      </trkpt>
      <trkpt lat="47.59756" lon="6.75948">
        <ele>561.3</ele>
        <time>2017-10-15T08:32:25.000Z</time>
      </trkpt>
      <trkpt lat="47.59755" lon="6.75944">
        <ele>561.1</ele>
        <time>2017-10-15T08:32:26.000Z</time>
      </trkpt>
      <trkpt lat="47.59754" lon="6.75939">
        <ele>560.8</ele>
        <time>2017-10-15T08:32:28.000Z</time>
      </trkpt>
      <trkpt lat="47.59752" lon="6.75936">
        <ele>560.6</ele>
        <time>2017-10-15T08:32:29.000Z</time>
      </trkpt>
      <trkpt lat="47.59751" lon="6.75931">
        <ele>560.2</ele>
        <time>2017-10-15T08:32:31.000Z</time>
      </trkpt>
      <trkpt lat="47.5975" lon="6.75928">
        <ele>560</ele>
        <time>2017-10-15T08:32:32.000Z</time>
      </trkpt>
      <trkpt lat="47.5975" lon="6.75925">
        <ele>559.8</ele>
        <time>2017-10-15T08:32:33.000Z</time>
      </trkpt>
      <trkpt lat="47.59749" lon="6.75922">
        <ele>559.6</ele>
        <time>2017-10-15T08:32:34.000Z</time>
      </trkpt>
      <trkpt lat="47.59749" lon="6.75918">
        <ele>559.4</ele>
        <time>2017-10-15T08:32:35.000Z</time>
      </trkpt>
      <trkpt lat="47.59748" lon="6.75915">
        <ele>559.2</ele>
        <time>2017-10-15T08:32:36.000Z</time>
      </trkpt>
      <trkpt lat="47.59747" lon="6.75911">
        <ele>559</ele>
        <time>2017-10-15T08:32:37.000Z</time>
      </trkpt>
      <trkpt lat="47.59747" lon="6.75907">
        <ele>558.7</ele>
        <time>2017-10-15T08:32:38.000Z</time>
      </trkpt>
      <trkpt lat="47.59746" lon="6.75903">
        <ele>558.3</ele>
        <time>2017-10-15T08:32:39.000Z</time>
      </trkpt>
      <trkpt lat="47.59745" lon="6.759">
        <ele>558</ele>
        <time>2017-10-15T08:32:40.000Z</time>
      </trkpt>
      <trkpt lat="47.59744" lon="6.75896">
        <ele>557.8</ele>
        <time>2017-10-15T08:32:41.000Z</time>
      </trkpt>
      <trkpt lat="47.59743" lon="6.75893">
        <ele>557.6</ele>
        <time>2017-10-15T08:32:42.000Z</time>
      </trkpt>
      <trkpt lat="47.5974" lon="6.75888">
        <ele>557</ele>
        <time>2017-10-15T08:32:44.000Z</time>
      </trkpt>
      <trkpt lat="47.59739" lon="6.75884">
        <ele>556.8</ele>
        <time>2017-10-15T08:32:45.000Z</time>
      </trkpt>
      <trkpt lat="47.59738" lon="6.75879">
        <ele>556.5</ele>
        <time>2017-10-15T08:32:46.000Z</time>
      </trkpt>
      <trkpt lat="47.59736" lon="6.75875">
        <ele>556.3</ele>
        <time>2017-10-15T08:32:47.000Z</time>
      </trkpt>
      <trkpt lat="47.59735" lon="6.75871">
        <ele>556</ele>
        <time>2017-10-15T08:32:48.000Z</time>
      </trkpt>
      <trkpt lat="47.59732" lon="6.75863">
        <ele>555.8</ele>
        <time>2017-10-15T08:32:49.000Z</time>
      </trkpt>
      <trkpt lat="47.5973" lon="6.75855">
        <ele>555.7</ele>
        <time>2017-10-15T08:32:50.000Z</time>
      </trkpt>
      <trkpt lat="47.59728" lon="6.75848">
        <ele>555.8</ele>
        <time>2017-10-15T08:32:51.000Z</time>
      </trkpt>
      <trkpt lat="47.59726" lon="6.7584">
        <ele>555.9</ele>
        <time>2017-10-15T08:32:52.000Z</time>
      </trkpt>
      <trkpt lat="47.59725" lon="6.75833">
        <ele>556</ele>
        <time>2017-10-15T08:32:53.000Z</time>
      </trkpt>
      <trkpt lat="47.59723" lon="6.75827">
        <ele>556.2</ele>
        <time>2017-10-15T08:32:54.000Z</time>
      </trkpt>
      <trkpt lat="47.59722" lon="6.75821">
        <ele>556.4</ele>
        <time>2017-10-15T08:32:55.000Z</time>
      </trkpt>
      <trkpt lat="47.59721" lon="6.75815">
        <ele>556.5</ele>
        <time>2017-10-15T08:32:56.000Z</time>
      </trkpt>
      <trkpt lat="47.59719" lon="6.75809">
        <ele>556.8</ele>
        <time>2017-10-15T08:32:57.000Z</time>
      </trkpt>
      <trkpt lat="47.59718" lon="6.75804">
        <ele>557.1</ele>
        <time>2017-10-15T08:32:58.000Z</time>
      </trkpt>
      <trkpt lat="47.59717" lon="6.75799">
        <ele>557.5</ele>
        <time>2017-10-15T08:32:59.000Z</time>
      </trkpt>
      <trkpt lat="47.59715" lon="6.75793">
        <ele>557.9</ele>
        <time>2017-10-15T08:33:00.000Z</time>
      </trkpt>
      <trkpt lat="47.59713" lon="6.75788">
        <ele>558.2</ele>
        <time>2017-10-15T08:33:01.000Z</time>
      </trkpt>
      <trkpt lat="47.59711" lon="6.75783">
        <ele>558.5</ele>
        <time>2017-10-15T08:33:02.000Z</time>
      </trkpt>
      <trkpt lat="47.59708" lon="6.75777">
        <ele>558.7</ele>
        <time>2017-10-15T08:33:03.000Z</time>
      </trkpt>
      <trkpt lat="47.59706" lon="6.75774">
        <ele>558.9</ele>
        <time>2017-10-15T08:33:04.000Z</time>
      </trkpt>
      <trkpt lat="47.59705" lon="6.75769">
        <ele>559.1</ele>
        <time>2017-10-15T08:33:05.000Z</time>
      </trkpt>
      <trkpt lat="47.59703" lon="6.75766">
        <ele>559.4</ele>
        <time>2017-10-15T08:33:06.000Z</time>
      </trkpt>
      <trkpt lat="47.59698" lon="6.75762">
        <ele>559.6</ele>
        <time>2017-10-15T08:33:07.000Z</time>
      </trkpt>
      <trkpt lat="47.59697" lon="6.75759">
        <ele>559.8</ele>
        <time>2017-10-15T08:33:08.000Z</time>
      </trkpt>
      <trkpt lat="47.59694" lon="6.75751">
        <ele>560</ele>
        <time>2017-10-15T08:33:09.000Z</time>
      </trkpt>
      <trkpt lat="47.59692" lon="6.75746">
        <ele>560.2</ele>
        <time>2017-10-15T08:33:10.000Z</time>
      </trkpt>
      <trkpt lat="47.5969" lon="6.75742">
        <ele>560.4</ele>
        <time>2017-10-15T08:33:11.000Z</time>
      </trkpt>
      <trkpt lat="47.59688" lon="6.75738">
        <ele>560.5</ele>
        <time>2017-10-15T08:33:12.000Z</time>
      </trkpt>
      <trkpt lat="47.59686" lon="6.75734">
        <ele>560.7</ele>
        <time>2017-10-15T08:33:13.000Z</time>
      </trkpt>
      <trkpt lat="47.59685" lon="6.75731">
        <ele>560.9</ele>
        <time>2017-10-15T08:33:14.000Z</time>
      </trkpt>
      <trkpt lat="47.59683" lon="6.75727">
        <ele>561</ele>
        <time>2017-10-15T08:33:15.000Z</time>
      </trkpt>
      <trkpt lat="47.59681" lon="6.75721">
        <ele>561.2</ele>
        <time>2017-10-15T08:33:16.000Z</time>
      </trkpt>
      <trkpt lat="47.5968" lon="6.75716">
        <ele>561.4</ele>
        <time>2017-10-15T08:33:17.000Z</time>
      </trkpt>
      <trkpt lat="47.59678" lon="6.75712">
        <ele>561.5</ele>
        <time>2017-10-15T08:33:18.000Z</time>
      </trkpt>
      <trkpt lat="47.59676" lon="6.75708">
        <ele>561.6</ele>
        <time>2017-10-15T08:33:19.000Z</time>
      </trkpt>
      <trkpt lat="47.59674" lon="6.75703">
        <ele>561.8</ele>
        <time>2017-10-15T08:33:20.000Z</time>
      </trkpt>
      <trkpt lat="47.59672" lon="6.75699">
        <ele>561.8</ele>
        <time>2017-10-15T08:33:21.000Z</time>
      </trkpt>
      <trkpt lat="47.5967" lon="6.75696">
        <ele>562</ele>
        <time>2017-10-15T08:33:22.000Z</time>
      </trkpt>
      <trkpt lat="47.59669" lon="6.75694">
        <ele>562.2</ele>
        <time>2017-10-15T08:33:23.000Z</time>
      </trkpt>
      <trkpt lat="47.59666" lon="6.75691">
        <ele>562.5</ele>
        <time>2017-10-15T08:33:25.000Z</time>
      </trkpt>
      <trkpt lat="47.59665" lon="6.75688">
        <ele>562.5</ele>
        <time>2017-10-15T08:33:26.000Z</time>
      </trkpt>
      <trkpt lat="47.59663" lon="6.75685">
        <ele>562.6</ele>
        <time>2017-10-15T08:33:27.000Z</time>
      </trkpt>
      <trkpt lat="47.59661" lon="6.75681">
        <ele>562.7</ele>
        <time>2017-10-15T08:33:28.000Z</time>
      </trkpt>
      <trkpt lat="47.59659" lon="6.75678">
        <ele>562.7</ele>
        <time>2017-10-15T08:33:29.000Z</time>
      </trkpt>
      <trkpt lat="47.59658" lon="6.75676">
        <ele>562.7</ele>
        <time>2017-10-15T08:33:30.000Z</time>
      </trkpt>
      <trkpt lat="47.59655" lon="6.75672">
        <ele>562.7</ele>
        <time>2017-10-15T08:33:32.000Z</time>
      </trkpt>
      <trkpt lat="47.59654" lon="6.75671">
        <ele>562.6</ele>
        <time>2017-10-15T08:33:33.000Z</time>
      </trkpt>
      <trkpt lat="47.59652" lon="6.7567">
        <ele>562.6</ele>
        <time>2017-10-15T08:33:34.000Z</time>
      </trkpt>
      <trkpt lat="47.5965" lon="6.75668">
        <ele>562.6</ele>
        <time>2017-10-15T08:33:35.000Z</time>
      </trkpt>
      <trkpt lat="47.59648" lon="6.75665">
        <ele>562.6</ele>
        <time>2017-10-15T08:33:36.000Z</time>
      </trkpt>
      <trkpt lat="47.59647" lon="6.75663">
        <ele>562.5</ele>
        <time>2017-10-15T08:33:37.000Z</time>
      </trkpt>
      <trkpt lat="47.59644" lon="6.7566">
        <ele>562.7</ele>
        <time>2017-10-15T08:33:39.000Z</time>
      </trkpt>
      <trkpt lat="47.59642" lon="6.75658">
        <ele>562.8</ele>
        <time>2017-10-15T08:33:40.000Z</time>
      </trkpt>
      <trkpt lat="47.59639" lon="6.75654">
        <ele>563</ele>
        <time>2017-10-15T08:33:42.000Z</time>
      </trkpt>
      <trkpt lat="47.59638" lon="6.75652">
        <ele>563.2</ele>
        <time>2017-10-15T08:33:43.000Z</time>
      </trkpt>
      <trkpt lat="47.59636" lon="6.75648">
        <ele>563.5</ele>
        <time>2017-10-15T08:33:46.000Z</time>
      </trkpt>
      <trkpt lat="47.59634" lon="6.75647">
        <ele>563.5</ele>
        <time>2017-10-15T08:33:47.000Z</time>
      </trkpt>
      <trkpt lat="47.59631" lon="6.75643">
        <ele>563.5</ele>
        <time>2017-10-15T08:33:49.000Z</time>
      </trkpt>
      <trkpt lat="47.5963" lon="6.75642">
        <ele>563.4</ele>
        <time>2017-10-15T08:33:50.000Z</time>
      </trkpt>
      <trkpt lat="47.59626" lon="6.75639">
        <ele>563.4</ele>
        <time>2017-10-15T08:33:52.000Z</time>
      </trkpt>
      <trkpt lat="47.59624" lon="6.75636">
        <ele>563.4</ele>
        <time>2017-10-15T08:33:53.000Z</time>
      </trkpt>
      <trkpt lat="47.59621" lon="6.75633">
        <ele>563.6</ele>
        <time>2017-10-15T08:33:55.000Z</time>
      </trkpt>
      <trkpt lat="47.59619" lon="6.75632">
        <ele>563.7</ele>
        <time>2017-10-15T08:33:56.000Z</time>
      </trkpt>
      <trkpt lat="47.59617" lon="6.7563">
        <ele>563.9</ele>
        <time>2017-10-15T08:33:57.000Z</time>
      </trkpt>
      <trkpt lat="47.59614" lon="6.75629">
        <ele>564</ele>
        <time>2017-10-15T08:33:58.000Z</time>
      </trkpt>
      <trkpt lat="47.59611" lon="6.75627">
        <ele>564.1</ele>
        <time>2017-10-15T08:34:00.000Z</time>
      </trkpt>
      <trkpt lat="47.5961" lon="6.75627">
        <ele>564.2</ele>
        <time>2017-10-15T08:34:01.000Z</time>
      </trkpt>
      <trkpt lat="47.59609" lon="6.75633">
        <ele>565.6</ele>
        <time>2017-10-15T08:34:08.000Z</time>
      </trkpt>
      <trkpt lat="47.5961" lon="6.75637">
        <ele>565.9</ele>
        <time>2017-10-15T08:34:09.000Z</time>
      </trkpt>
      <trkpt lat="47.59612" lon="6.75642">
        <ele>566.4</ele>
        <time>2017-10-15T08:34:11.000Z</time>
      </trkpt>
      <trkpt lat="47.59614" lon="6.75646">
        <ele>566.7</ele>
        <time>2017-10-15T08:34:12.000Z</time>
      </trkpt>
      <trkpt lat="47.59615" lon="6.75649">
        <ele>567</ele>
        <time>2017-10-15T08:34:13.000Z</time>
      </trkpt>
      <trkpt lat="47.59617" lon="6.75651">
        <ele>567.4</ele>
        <time>2017-10-15T08:34:14.000Z</time>
      </trkpt>
      <trkpt lat="47.5962" lon="6.75655">
        <ele>567.8</ele>
        <time>2017-10-15T08:34:16.000Z</time>
      </trkpt>
      <trkpt lat="47.59622" lon="6.75657">
        <ele>568</ele>
        <time>2017-10-15T08:34:17.000Z</time>
      </trkpt>
      <trkpt lat="47.59624" lon="6.75661">
        <ele>568.6</ele>
        <time>2017-10-15T08:34:20.000Z</time>
      </trkpt>
      <trkpt lat="47.59626" lon="6.75664">
        <ele>568.9</ele>
        <time>2017-10-15T08:34:21.000Z</time>
      </trkpt>
      <trkpt lat="47.59628" lon="6.75668">
        <ele>569.2</ele>
        <time>2017-10-15T08:34:23.000Z</time>
      </trkpt>
      <trkpt lat="47.5963" lon="6.7567">
        <ele>569.4</ele>
        <time>2017-10-15T08:34:24.000Z</time>
      </trkpt>
      <trkpt lat="47.59631" lon="6.75673">
        <ele>569.6</ele>
        <time>2017-10-15T08:34:25.000Z</time>
      </trkpt>
      <trkpt lat="47.59632" lon="6.75676">
        <ele>569.9</ele>
        <time>2017-10-15T08:34:26.000Z</time>
      </trkpt>
      <trkpt lat="47.59634" lon="6.7568">
        <ele>570.3</ele>
        <time>2017-10-15T08:34:28.000Z</time>
      </trkpt>
      <trkpt lat="47.59636" lon="6.75682">
        <ele>570.5</ele>
        <time>2017-10-15T08:34:29.000Z</time>
      </trkpt>
      <trkpt lat="47.59638" lon="6.75684">
        <ele>570.7</ele>
        <time>2017-10-15T08:34:30.000Z</time>
      </trkpt>
      <trkpt lat="47.59641" lon="6.75687">
        <ele>570.8</ele>
        <time>2017-10-15T08:34:31.000Z</time>
      </trkpt>
      <trkpt lat="47.59643" lon="6.75691">
        <ele>571.2</ele>
        <time>2017-10-15T08:34:33.000Z</time>
      </trkpt>
      <trkpt lat="47.59645" lon="6.75693">
        <ele>571.3</ele>
        <time>2017-10-15T08:34:34.000Z</time>
      </trkpt>
      <trkpt lat="47.59647" lon="6.75696">
        <ele>571.6</ele>
        <time>2017-10-15T08:34:35.000Z</time>
      </trkpt>
      <trkpt lat="47.59648" lon="6.75698">
        <ele>571.8</ele>
        <time>2017-10-15T08:34:36.000Z</time>
      </trkpt>
      <trkpt lat="47.5965" lon="6.75702">
        <ele>572.2</ele>
        <time>2017-10-15T08:34:38.000Z</time>
      </trkpt>
      <trkpt lat="47.59651" lon="6.75703">
        <ele>572.5</ele>
        <time>2017-10-15T08:34:39.000Z</time>
      </trkpt>
      <trkpt lat="47.59648" lon="6.75706">
        <ele>580.2</ele>
        <time>2017-10-15T08:35:12.000Z</time>
      </trkpt>
      <trkpt lat="47.59647" lon="6.75706">
        <ele>580.3</ele>
        <time>2017-10-15T08:35:13.000Z</time>
      </trkpt>
      <trkpt lat="47.59644" lon="6.75706">
        <ele>580.3</ele>
        <time>2017-10-15T08:35:14.000Z</time>
      </trkpt>
      <trkpt lat="47.59641" lon="6.75706">
        <ele>580.3</ele>
        <time>2017-10-15T08:35:15.000Z</time>
      </trkpt>
      <trkpt lat="47.59644" lon="6.7571">
        <ele>580.3</ele>
        <time>2017-10-15T08:35:36.000Z</time>
      </trkpt>
      <trkpt lat="47.59646" lon="6.7571">
        <ele>580.3</ele>
        <time>2017-10-15T08:35:37.000Z</time>
      </trkpt>
      <trkpt lat="47.59649" lon="6.75707">
        <ele>580.1</ele>
        <time>2017-10-15T08:35:42.000Z</time>
      </trkpt>
      <trkpt lat="47.5965" lon="6.75706">
        <ele>580.2</ele>
        <time>2017-10-15T08:35:43.000Z</time>
      </trkpt>
      <trkpt lat="47.59649" lon="6.757">
        <ele>579.4</ele>
        <time>2017-10-15T08:35:53.000Z</time>
      </trkpt>
      <trkpt lat="47.59649" lon="6.75699">
        <ele>579.4</ele>
        <time>2017-10-15T08:35:54.000Z</time>
      </trkpt>
      <trkpt lat="47.59648" lon="6.75696">
        <ele>579.4</ele>
        <time>2017-10-15T08:36:05.000Z</time>
      </trkpt>
      <trkpt lat="47.59646" lon="6.75693">
        <ele>579.4</ele>
        <time>2017-10-15T08:36:06.000Z</time>
      </trkpt>
      <trkpt lat="47.59643" lon="6.75689">
        <ele>579.3</ele>
        <time>2017-10-15T08:36:07.000Z</time>
      </trkpt>
      <trkpt lat="47.59641" lon="6.75684">
        <ele>579.2</ele>
        <time>2017-10-15T08:36:08.000Z</time>
      </trkpt>
      <trkpt lat="47.59638" lon="6.75675">
        <ele>579.1</ele>
        <time>2017-10-15T08:36:09.000Z</time>
      </trkpt>
      <trkpt lat="47.59638" lon="6.7567">
        <ele>578.9</ele>
        <time>2017-10-15T08:36:10.000Z</time>
      </trkpt>
      <trkpt lat="47.59638" lon="6.75663">
        <ele>577.2</ele>
        <time>2017-10-15T08:36:11.000Z</time>
      </trkpt>
      <trkpt lat="47.59636" lon="6.75656">
        <ele>575.3</ele>
        <time>2017-10-15T08:36:12.000Z</time>
      </trkpt>
      <trkpt lat="47.59634" lon="6.75652">
        <ele>575.2</ele>
        <time>2017-10-15T08:36:13.000Z</time>
      </trkpt>
      <trkpt lat="47.59632" lon="6.75649">
        <ele>575.1</ele>
        <time>2017-10-15T08:36:14.000Z</time>
      </trkpt>
      <trkpt lat="47.5963" lon="6.75646">
        <ele>574.9</ele>
        <time>2017-10-15T08:36:15.000Z</time>
      </trkpt>
      <trkpt lat="47.59628" lon="6.75643">
        <ele>574.7</ele>
        <time>2017-10-15T08:36:16.000Z</time>
      </trkpt>
      <trkpt lat="47.59627" lon="6.7564">
        <ele>574.6</ele>
        <time>2017-10-15T08:36:17.000Z</time>
      </trkpt>
      <trkpt lat="47.59624" lon="6.75636">
        <ele>574.5</ele>
        <time>2017-10-15T08:36:18.000Z</time>
      </trkpt>
      <trkpt lat="47.59622" lon="6.75633">
        <ele>574.3</ele>
        <time>2017-10-15T08:36:19.000Z</time>
      </trkpt>
      <trkpt lat="47.5962" lon="6.75629">
        <ele>574.2</ele>
        <time>2017-10-15T08:36:20.000Z</time>
      </trkpt>
      <trkpt lat="47.59618" lon="6.75627">
        <ele>574</ele>
        <time>2017-10-15T08:36:21.000Z</time>
      </trkpt>
      <trkpt lat="47.59615" lon="6.75625">
        <ele>573.9</ele>
        <time>2017-10-15T08:36:22.000Z</time>
      </trkpt>
      <trkpt lat="47.59611" lon="6.75622">
        <ele>573.7</ele>
        <time>2017-10-15T08:36:24.000Z</time>
      </trkpt>
      <trkpt lat="47.59608" lon="6.7562">
        <ele>573.5</ele>
        <time>2017-10-15T08:36:25.000Z</time>
      </trkpt>
      <trkpt lat="47.59605" lon="6.75619">
        <ele>573.4</ele>
        <time>2017-10-15T08:36:26.000Z</time>
      </trkpt>
      <trkpt lat="47.59603" lon="6.75617">
        <ele>573.3</ele>
        <time>2017-10-15T08:36:27.000Z</time>
      </trkpt>
      <trkpt lat="47.59601" lon="6.75614">
        <ele>573</ele>
        <time>2017-10-15T08:36:29.000Z</time>
      </trkpt>
      <trkpt lat="47.596" lon="6.7561">
        <ele>572.8</ele>
        <time>2017-10-15T08:36:30.000Z</time>
      </trkpt>
      <trkpt lat="47.59599" lon="6.75607">
        <ele>572.6</ele>
        <time>2017-10-15T08:36:31.000Z</time>
      </trkpt>
      <trkpt lat="47.59598" lon="6.75604">
        <ele>572.3</ele>
        <time>2017-10-15T08:36:32.000Z</time>
      </trkpt>
      <trkpt lat="47.59595" lon="6.756">
        <ele>570.2</ele>
        <time>2017-10-15T08:36:33.000Z</time>
      </trkpt>
      <trkpt lat="47.59593" lon="6.75596">
        <ele>570.1</ele>
        <time>2017-10-15T08:36:34.000Z</time>
      </trkpt>
      <trkpt lat="47.59591" lon="6.75592">
        <ele>569.6</ele>
        <time>2017-10-15T08:36:36.000Z</time>
      </trkpt>
      <trkpt lat="47.59589" lon="6.75589">
        <ele>569.4</ele>
        <time>2017-10-15T08:36:37.000Z</time>
      </trkpt>
      <trkpt lat="47.59586" lon="6.75585">
        <ele>569.2</ele>
        <time>2017-10-15T08:36:38.000Z</time>
      </trkpt>
      <trkpt lat="47.59583" lon="6.7558">
        <ele>569</ele>
        <time>2017-10-15T08:36:39.000Z</time>
      </trkpt>
      <trkpt lat="47.59581" lon="6.75577">
        <ele>568.8</ele>
        <time>2017-10-15T08:36:40.000Z</time>
      </trkpt>
      <trkpt lat="47.59579" lon="6.75573">
        <ele>568.7</ele>
        <time>2017-10-15T08:36:41.000Z</time>
      </trkpt>
      <trkpt lat="47.59575" lon="6.75569">
        <ele>568.7</ele>
        <time>2017-10-15T08:36:42.000Z</time>
      </trkpt>
      <trkpt lat="47.59572" lon="6.75566">
        <ele>568.5</ele>
        <time>2017-10-15T08:36:43.000Z</time>
      </trkpt>
      <trkpt lat="47.59569" lon="6.75563">
        <ele>568.4</ele>
        <time>2017-10-15T08:36:44.000Z</time>
      </trkpt>
      <trkpt lat="47.59567" lon="6.75559">
        <ele>568.3</ele>
        <time>2017-10-15T08:36:45.000Z</time>
      </trkpt>
      <trkpt lat="47.59564" lon="6.75555">
        <ele>568</ele>
        <time>2017-10-15T08:36:46.000Z</time>
      </trkpt>
      <trkpt lat="47.5956" lon="6.7555">
        <ele>567.9</ele>
        <time>2017-10-15T08:36:47.000Z</time>
      </trkpt>
      <trkpt lat="47.59556" lon="6.75545">
        <ele>567.6</ele>
        <time>2017-10-15T08:36:48.000Z</time>
      </trkpt>
      <trkpt lat="47.59552" lon="6.7554">
        <ele>567.4</ele>
        <time>2017-10-15T08:36:49.000Z</time>
      </trkpt>
      <trkpt lat="47.59548" lon="6.75536">
        <ele>567.2</ele>
        <time>2017-10-15T08:36:50.000Z</time>
      </trkpt>
      <trkpt lat="47.59545" lon="6.75534">
        <ele>567.1</ele>
        <time>2017-10-15T08:36:51.000Z</time>
      </trkpt>
      <trkpt lat="47.5954" lon="6.75531">
        <ele>567</ele>
        <time>2017-10-15T08:36:52.000Z</time>
      </trkpt>
      <trkpt lat="47.59537" lon="6.75527">
        <ele>566.9</ele>
        <time>2017-10-15T08:36:53.000Z</time>
      </trkpt>
      <trkpt lat="47.59534" lon="6.75523">
        <ele>566.9</ele>
        <time>2017-10-15T08:36:54.000Z</time>
      </trkpt>
      <trkpt lat="47.59532" lon="6.7552">
        <ele>566.8</ele>
        <time>2017-10-15T08:36:55.000Z</time>
      </trkpt>
      <trkpt lat="47.59529" lon="6.75517">
        <ele>566.7</ele>
        <time>2017-10-15T08:36:56.000Z</time>
      </trkpt>
      <trkpt lat="47.59525" lon="6.75511">
        <ele>565.3</ele>
        <time>2017-10-15T08:36:57.000Z</time>
      </trkpt>
      <trkpt lat="47.59522" lon="6.75506">
        <ele>563.6</ele>
        <time>2017-10-15T08:36:58.000Z</time>
      </trkpt>
      <trkpt lat="47.59519" lon="6.75502">
        <ele>563.5</ele>
        <time>2017-10-15T08:36:59.000Z</time>
      </trkpt>
      <trkpt lat="47.59518" lon="6.75499">
        <ele>563.4</ele>
        <time>2017-10-15T08:37:00.000Z</time>
      </trkpt>
      <trkpt lat="47.59516" lon="6.75496">
        <ele>563.2</ele>
        <time>2017-10-15T08:37:01.000Z</time>
      </trkpt>
      <trkpt lat="47.59513" lon="6.75493">
        <ele>563.1</ele>
        <time>2017-10-15T08:37:02.000Z</time>
      </trkpt>
      <trkpt lat="47.5951" lon="6.75491">
        <ele>562.9</ele>
        <time>2017-10-15T08:37:03.000Z</time>
      </trkpt>
      <trkpt lat="47.59508" lon="6.75489">
        <ele>562.8</ele>
        <time>2017-10-15T08:37:04.000Z</time>
      </trkpt>
      <trkpt lat="47.59506" lon="6.75487">
        <ele>562.8</ele>
        <time>2017-10-15T08:37:05.000Z</time>
      </trkpt>
      <trkpt lat="47.59504" lon="6.75485">
        <ele>562.7</ele>
        <time>2017-10-15T08:37:06.000Z</time>
      </trkpt>
      <trkpt lat="47.59502" lon="6.75482">
        <ele>562.7</ele>
        <time>2017-10-15T08:37:07.000Z</time>
      </trkpt>
      <trkpt lat="47.595" lon="6.75478">
        <ele>562.6</ele>
        <time>2017-10-15T08:37:08.000Z</time>
      </trkpt>
      <trkpt lat="47.59499" lon="6.75473">
        <ele>562.6</ele>
        <time>2017-10-15T08:37:09.000Z</time>
      </trkpt>
      <trkpt lat="47.59497" lon="6.75468">
        <ele>562.5</ele>
        <time>2017-10-15T08:37:10.000Z</time>
      </trkpt>
      <trkpt lat="47.59492" lon="6.75465">
        <ele>562.4</ele>
        <time>2017-10-15T08:37:11.000Z</time>
      </trkpt>
      <trkpt lat="47.59489" lon="6.75463">
        <ele>562.3</ele>
        <time>2017-10-15T08:37:12.000Z</time>
      </trkpt>
      <trkpt lat="47.59485" lon="6.75463">
        <ele>562.3</ele>
        <time>2017-10-15T08:37:13.000Z</time>
      </trkpt>
      <trkpt lat="47.59483" lon="6.75461">
        <ele>562.4</ele>
        <time>2017-10-15T08:37:14.000Z</time>
      </trkpt>
      <trkpt lat="47.59479" lon="6.7546">
        <ele>562.2</ele>
        <time>2017-10-15T08:37:15.000Z</time>
      </trkpt>
      <trkpt lat="47.59475" lon="6.75459">
        <ele>562.1</ele>
        <time>2017-10-15T08:37:16.000Z</time>
      </trkpt>
      <trkpt lat="47.59472" lon="6.75456">
        <ele>561.9</ele>
        <time>2017-10-15T08:37:17.000Z</time>
      </trkpt>
      <trkpt lat="47.59469" lon="6.75452">
        <ele>561.7</ele>
        <time>2017-10-15T08:37:18.000Z</time>
      </trkpt>
      <trkpt lat="47.59465" lon="6.75448">
        <ele>561.5</ele>
        <time>2017-10-15T08:37:19.000Z</time>
      </trkpt>
      <trkpt lat="47.59461" lon="6.75443">
        <ele>561.4</ele>
        <time>2017-10-15T08:37:20.000Z</time>
      </trkpt>
      <trkpt lat="47.59458" lon="6.75439">
        <ele>560.9</ele>
        <time>2017-10-15T08:37:22.000Z</time>
      </trkpt>
      <trkpt lat="47.59457" lon="6.75438">
        <ele>560.7</ele>
        <time>2017-10-15T08:37:23.000Z</time>
      </trkpt>
      <trkpt lat="47.59458" lon="6.75432">
        <ele>560.2</ele>
        <time>2017-10-15T08:37:28.000Z</time>
      </trkpt>
      <trkpt lat="47.59458" lon="6.75432">
        <ele>560.1</ele>
        <time>2017-10-15T08:37:29.000Z</time>
      </trkpt>
      <trkpt lat="47.59458" lon="6.75426">
        <ele>559.7</ele>
        <time>2017-10-15T08:37:32.000Z</time>
      </trkpt>
      <trkpt lat="47.59457" lon="6.75423">
        <ele>559.6</ele>
        <time>2017-10-15T08:37:33.000Z</time>
      </trkpt>
      <trkpt lat="47.59457" lon="6.75417">
        <ele>559.3</ele>
        <time>2017-10-15T08:37:35.000Z</time>
      </trkpt>
      <trkpt lat="47.59457" lon="6.75415">
        <ele>559.2</ele>
        <time>2017-10-15T08:37:36.000Z</time>
      </trkpt>
      <trkpt lat="47.59452" lon="6.75414">
        <ele>557.4</ele>
        <time>2017-10-15T08:38:12.000Z</time>
      </trkpt>
      <trkpt lat="47.59451" lon="6.75414">
        <ele>557.5</ele>
        <time>2017-10-15T08:38:13.000Z</time>
      </trkpt>
      <trkpt lat="47.59448" lon="6.75415">
        <ele>557.8</ele>
        <time>2017-10-15T08:38:15.000Z</time>
      </trkpt>
      <trkpt lat="47.59446" lon="6.75414">
        <ele>558</ele>
        <time>2017-10-15T08:38:16.000Z</time>
      </trkpt>
      <trkpt lat="47.59443" lon="6.75413">
        <ele>558.2</ele>
        <time>2017-10-15T08:38:17.000Z</time>
      </trkpt>
      <trkpt lat="47.5944" lon="6.75411">
        <ele>558.2</ele>
        <time>2017-10-15T08:38:18.000Z</time>
      </trkpt>
      <trkpt lat="47.59437" lon="6.75408">
        <ele>558.3</ele>
        <time>2017-10-15T08:38:19.000Z</time>
      </trkpt>
      <trkpt lat="47.59433" lon="6.75405">
        <ele>558.6</ele>
        <time>2017-10-15T08:38:20.000Z</time>
      </trkpt>
      <trkpt lat="47.59429" lon="6.75403">
        <ele>558.3</ele>
        <time>2017-10-15T08:38:21.000Z</time>
      </trkpt>
      <trkpt lat="47.59424" lon="6.75399">
        <ele>558.1</ele>
        <time>2017-10-15T08:38:22.000Z</time>
      </trkpt>
      <trkpt lat="47.59419" lon="6.75393">
        <ele>557.3</ele>
        <time>2017-10-15T08:38:23.000Z</time>
      </trkpt>
      <trkpt lat="47.59415" lon="6.75386">
        <ele>556.8</ele>
        <time>2017-10-15T08:38:24.000Z</time>
      </trkpt>
      <trkpt lat="47.59414" lon="6.7538">
        <ele>556.1</ele>
        <time>2017-10-15T08:38:25.000Z</time>
      </trkpt>
      <trkpt lat="47.59411" lon="6.75374">
        <ele>555.7</ele>
        <time>2017-10-15T08:38:26.000Z</time>
      </trkpt>
      <trkpt lat="47.59407" lon="6.75369">
        <ele>554.8</ele>
        <time>2017-10-15T08:38:27.000Z</time>
      </trkpt>
      <trkpt lat="47.59403" lon="6.75364">
        <ele>554.7</ele>
        <time>2017-10-15T08:38:28.000Z</time>
      </trkpt>
      <trkpt lat="47.59398" lon="6.7536">
        <ele>554.6</ele>
        <time>2017-10-15T08:38:29.000Z</time>
      </trkpt>
      <trkpt lat="47.59393" lon="6.75357">
        <ele>554.6</ele>
        <time>2017-10-15T08:38:30.000Z</time>
      </trkpt>
      <trkpt lat="47.5939" lon="6.75357">
        <ele>554.5</ele>
        <time>2017-10-15T08:38:31.000Z</time>
      </trkpt>
      <trkpt lat="47.59386" lon="6.75357">
        <ele>554.4</ele>
        <time>2017-10-15T08:38:34.000Z</time>
      </trkpt>
      <trkpt lat="47.59385" lon="6.75357">
        <ele>554.4</ele>
        <time>2017-10-15T08:38:35.000Z</time>
      </trkpt>
      <trkpt lat="47.59383" lon="6.75353">
        <ele>554.3</ele>
        <time>2017-10-15T08:38:39.000Z</time>
      </trkpt>
      <trkpt lat="47.59382" lon="6.75353">
        <ele>554.3</ele>
        <time>2017-10-15T08:38:40.000Z</time>
      </trkpt>
      <trkpt lat="47.59379" lon="6.75351">
        <ele>554.5</ele>
        <time>2017-10-15T08:38:44.000Z</time>
      </trkpt>
      <trkpt lat="47.59377" lon="6.75354">
        <ele>554.6</ele>
        <time>2017-10-15T08:38:45.000Z</time>
      </trkpt>
      <trkpt lat="47.59374" lon="6.75357">
        <ele>554.7</ele>
        <time>2017-10-15T08:38:46.000Z</time>
      </trkpt>
      <trkpt lat="47.59371" lon="6.75361">
        <ele>554.7</ele>
        <time>2017-10-15T08:38:47.000Z</time>
      </trkpt>
      <trkpt lat="47.59367" lon="6.75365">
        <ele>554.7</ele>
        <time>2017-10-15T08:38:48.000Z</time>
      </trkpt>
      <trkpt lat="47.59364" lon="6.7537">
        <ele>554.9</ele>
        <time>2017-10-15T08:38:49.000Z</time>
      </trkpt>
      <trkpt lat="47.59364" lon="6.75376">
        <ele>554.9</ele>
        <time>2017-10-15T08:38:53.000Z</time>
      </trkpt>
      <trkpt lat="47.59364" lon="6.75378">
        <ele>554.9</ele>
        <time>2017-10-15T08:38:54.000Z</time>
      </trkpt>
      <trkpt lat="47.59363" lon="6.75384">
        <ele>554.9</ele>
        <time>2017-10-15T08:38:55.000Z</time>
      </trkpt>
      <trkpt lat="47.59363" lon="6.75385">
        <ele>555</ele>
        <time>2017-10-15T08:38:56.000Z</time>
      </trkpt>
      <trkpt lat="47.59363" lon="6.75387">
        <ele>555.1</ele>
        <time>2017-10-15T08:38:57.000Z</time>
      </trkpt>
      <trkpt lat="47.59363" lon="6.75392">
        <ele>555.1</ele>
        <time>2017-10-15T08:38:58.000Z</time>
      </trkpt>
      <trkpt lat="47.59363" lon="6.75396">
        <ele>555.1</ele>
        <time>2017-10-15T08:38:59.000Z</time>
      </trkpt>
      <trkpt lat="47.59364" lon="6.754">
        <ele>555.1</ele>
        <time>2017-10-15T08:39:00.000Z</time>
      </trkpt>
      <trkpt lat="47.59362" lon="6.75408">
        <ele>555.3</ele>
        <time>2017-10-15T08:39:01.000Z</time>
      </trkpt>
      <trkpt lat="47.59358" lon="6.75413">
        <ele>555.2</ele>
        <time>2017-10-15T08:39:02.000Z</time>
      </trkpt>
      <trkpt lat="47.59352" lon="6.75419">
        <ele>555.1</ele>
        <time>2017-10-15T08:39:03.000Z</time>
      </trkpt>
      <trkpt lat="47.59347" lon="6.75424">
        <ele>555</ele>
        <time>2017-10-15T08:39:04.000Z</time>
      </trkpt>
      <trkpt lat="47.59343" lon="6.75429">
        <ele>555</ele>
        <time>2017-10-15T08:39:05.000Z</time>
      </trkpt>
      <trkpt lat="47.5934" lon="6.75433">
        <ele>555</ele>
        <time>2017-10-15T08:39:06.000Z</time>
      </trkpt>
      <trkpt lat="47.59337" lon="6.75435">
        <ele>554.9</ele>
        <time>2017-10-15T08:39:07.000Z</time>
      </trkpt>
      <trkpt lat="47.59335" lon="6.75437">
        <ele>554.8</ele>
        <time>2017-10-15T08:39:08.000Z</time>
      </trkpt>
      <trkpt lat="47.59332" lon="6.75437">
        <ele>554.8</ele>
        <time>2017-10-15T08:39:09.000Z</time>
      </trkpt>
      <trkpt lat="47.59329" lon="6.75435">
        <ele>554.7</ele>
        <time>2017-10-15T08:39:10.000Z</time>
      </trkpt>
      <trkpt lat="47.59327" lon="6.75432">
        <ele>554.6</ele>
        <time>2017-10-15T08:39:11.000Z</time>
      </trkpt>
      <trkpt lat="47.59325" lon="6.75426">
        <ele>553.9</ele>
        <time>2017-10-15T08:39:15.000Z</time>
      </trkpt>
      <trkpt lat="47.59325" lon="6.75425">
        <ele>553.9</ele>
        <time>2017-10-15T08:39:16.000Z</time>
      </trkpt>
      <trkpt lat="47.59326" lon="6.7542">
        <ele>553.6</ele>
        <time>2017-10-15T08:39:21.000Z</time>
      </trkpt>
      <trkpt lat="47.59324" lon="6.75417">
        <ele>553.5</ele>
        <time>2017-10-15T08:39:22.000Z</time>
      </trkpt>
      <trkpt lat="47.59322" lon="6.75414">
        <ele>553.3</ele>
        <time>2017-10-15T08:39:23.000Z</time>
      </trkpt>
      <trkpt lat="47.59321" lon="6.75411">
        <ele>553.2</ele>
        <time>2017-10-15T08:39:24.000Z</time>
      </trkpt>
      <trkpt lat="47.5932" lon="6.75409">
        <ele>553</ele>
        <time>2017-10-15T08:39:25.000Z</time>
      </trkpt>
      <trkpt lat="47.5932" lon="6.75404">
        <ele>552.8</ele>
        <time>2017-10-15T08:39:26.000Z</time>
      </trkpt>
      <trkpt lat="47.59319" lon="6.754">
        <ele>552.6</ele>
        <time>2017-10-15T08:39:27.000Z</time>
      </trkpt>
      <trkpt lat="47.59316" lon="6.75397">
        <ele>552.5</ele>
        <time>2017-10-15T08:39:28.000Z</time>
      </trkpt>
      <trkpt lat="47.59312" lon="6.75397">
        <ele>550.6</ele>
        <time>2017-10-15T08:39:29.000Z</time>
      </trkpt>
      <trkpt lat="47.5931" lon="6.75398">
        <ele>550.4</ele>
        <time>2017-10-15T08:39:30.000Z</time>
      </trkpt>
      <trkpt lat="47.59307" lon="6.75399">
        <ele>548.9</ele>
        <time>2017-10-15T08:39:31.000Z</time>
      </trkpt>
      <trkpt lat="47.59302" lon="6.75402">
        <ele>547.3</ele>
        <time>2017-10-15T08:39:32.000Z</time>
      </trkpt>
      <trkpt lat="47.59299" lon="6.75406">
        <ele>546.5</ele>
        <time>2017-10-15T08:39:33.000Z</time>
      </trkpt>
      <trkpt lat="47.59299" lon="6.7541">
        <ele>546.3</ele>
        <time>2017-10-15T08:39:34.000Z</time>
      </trkpt>
      <trkpt lat="47.59296" lon="6.75409">
        <ele>546.1</ele>
        <time>2017-10-15T08:39:35.000Z</time>
      </trkpt>
      <trkpt lat="47.59292" lon="6.75409">
        <ele>545.8</ele>
        <time>2017-10-15T08:39:36.000Z</time>
      </trkpt>
      <trkpt lat="47.59287" lon="6.75406">
        <ele>542.9</ele>
        <time>2017-10-15T08:39:37.000Z</time>
      </trkpt>
      <trkpt lat="47.59281" lon="6.75402">
        <ele>540.1</ele>
        <time>2017-10-15T08:39:38.000Z</time>
      </trkpt>
      <trkpt lat="47.59276" lon="6.754">
        <ele>540</ele>
        <time>2017-10-15T08:39:39.000Z</time>
      </trkpt>
      <trkpt lat="47.5927" lon="6.75398">
        <ele>538.5</ele>
        <time>2017-10-15T08:39:40.000Z</time>
      </trkpt>
      <trkpt lat="47.59266" lon="6.75393">
        <ele>537.8</ele>
        <time>2017-10-15T08:39:41.000Z</time>
      </trkpt>
      <trkpt lat="47.59262" lon="6.75389">
        <ele>537.7</ele>
        <time>2017-10-15T08:39:42.000Z</time>
      </trkpt>
      <trkpt lat="47.59257" lon="6.75388">
        <ele>537.6</ele>
        <time>2017-10-15T08:39:43.000Z</time>
      </trkpt>
      <trkpt lat="47.59252" lon="6.7539">
        <ele>536.6</ele>
        <time>2017-10-15T08:39:44.000Z</time>
      </trkpt>
      <trkpt lat="47.59249" lon="6.75392">
        <ele>536.5</ele>
        <time>2017-10-15T08:39:45.000Z</time>
      </trkpt>
      <trkpt lat="47.59246" lon="6.75392">
        <ele>536.3</ele>
        <time>2017-10-15T08:39:46.000Z</time>
      </trkpt>
      <trkpt lat="47.59242" lon="6.75391">
        <ele>536.2</ele>
        <time>2017-10-15T08:39:47.000Z</time>
      </trkpt>
      <trkpt lat="47.59239" lon="6.75389">
        <ele>536</ele>
        <time>2017-10-15T08:39:48.000Z</time>
      </trkpt>
      <trkpt lat="47.59235" lon="6.75387">
        <ele>535.8</ele>
        <time>2017-10-15T08:39:49.000Z</time>
      </trkpt>
      <trkpt lat="47.59231" lon="6.75385">
        <ele>535.5</ele>
        <time>2017-10-15T08:39:50.000Z</time>
      </trkpt>
      <trkpt lat="47.59225" lon="6.75385">
        <ele>533.3</ele>
        <time>2017-10-15T08:39:51.000Z</time>
      </trkpt>
      <trkpt lat="47.5922" lon="6.75386">
        <ele>532.1</ele>
        <time>2017-10-15T08:39:52.000Z</time>
      </trkpt>
      <trkpt lat="47.59215" lon="6.75386">
        <ele>532.1</ele>
        <time>2017-10-15T08:39:53.000Z</time>
      </trkpt>
      <trkpt lat="47.59211" lon="6.75389">
        <ele>530.8</ele>
        <time>2017-10-15T08:39:54.000Z</time>
      </trkpt>
      <trkpt lat="47.59206" lon="6.75388">
        <ele>530.6</ele>
        <time>2017-10-15T08:39:55.000Z</time>
      </trkpt>
      <trkpt lat="47.59199" lon="6.75383">
        <ele>529.7</ele>
        <time>2017-10-15T08:39:56.000Z</time>
      </trkpt>
      <trkpt lat="47.59193" lon="6.75378">
        <ele>528.5</ele>
        <time>2017-10-15T08:39:57.000Z</time>
      </trkpt>
      <trkpt lat="47.59188" lon="6.75374">
        <ele>527.2</ele>
        <time>2017-10-15T08:39:58.000Z</time>
      </trkpt>
      <trkpt lat="47.59184" lon="6.75369">
        <ele>526.1</ele>
        <time>2017-10-15T08:39:59.000Z</time>
      </trkpt>
      <trkpt lat="47.59179" lon="6.75367">
        <ele>526</ele>
        <time>2017-10-15T08:40:00.000Z</time>
      </trkpt>
      <trkpt lat="47.59175" lon="6.75367">
        <ele>525.9</ele>
        <time>2017-10-15T08:40:01.000Z</time>
      </trkpt>
      <trkpt lat="47.5917" lon="6.7536">
        <ele>525.7</ele>
        <time>2017-10-15T08:40:02.000Z</time>
      </trkpt>
      <trkpt lat="47.59167" lon="6.75355">
        <ele>523.2</ele>
        <time>2017-10-15T08:40:03.000Z</time>
      </trkpt>
      <trkpt lat="47.59162" lon="6.75355">
        <ele>523</ele>
        <time>2017-10-15T08:40:04.000Z</time>
      </trkpt>
      <trkpt lat="47.59157" lon="6.75356">
        <ele>521.5</ele>
        <time>2017-10-15T08:40:05.000Z</time>
      </trkpt>
      <trkpt lat="47.59154" lon="6.75361">
        <ele>520.3</ele>
        <time>2017-10-15T08:40:06.000Z</time>
      </trkpt>
      <trkpt lat="47.5915" lon="6.75362">
        <ele>520.2</ele>
        <time>2017-10-15T08:40:07.000Z</time>
      </trkpt>
      <trkpt lat="47.59146" lon="6.75363">
        <ele>520</ele>
        <time>2017-10-15T08:40:08.000Z</time>
      </trkpt>
      <trkpt lat="47.59141" lon="6.75365">
        <ele>519.9</ele>
        <time>2017-10-15T08:40:09.000Z</time>
      </trkpt>
      <trkpt lat="47.59138" lon="6.75368">
        <ele>519.8</ele>
        <time>2017-10-15T08:40:10.000Z</time>
      </trkpt>
      <trkpt lat="47.59134" lon="6.75371">
        <ele>519.7</ele>
        <time>2017-10-15T08:40:11.000Z</time>
      </trkpt>
      <trkpt lat="47.5913" lon="6.75373">
        <ele>519.5</ele>
        <time>2017-10-15T08:40:12.000Z</time>
      </trkpt>
      <trkpt lat="47.59127" lon="6.75374">
        <ele>519.4</ele>
        <time>2017-10-15T08:40:13.000Z</time>
      </trkpt>
      <trkpt lat="47.59123" lon="6.75372">
        <ele>519.2</ele>
        <time>2017-10-15T08:40:18.000Z</time>
      </trkpt>
      <trkpt lat="47.59122" lon="6.75372">
        <ele>519.1</ele>
        <time>2017-10-15T08:40:19.000Z</time>
      </trkpt>
      <trkpt lat="47.59119" lon="6.7537">
        <ele>519</ele>
        <time>2017-10-15T08:40:23.000Z</time>
      </trkpt>
      <trkpt lat="47.59118" lon="6.75368">
        <ele>519.3</ele>
        <time>2017-10-15T08:40:24.000Z</time>
      </trkpt>
      <trkpt lat="47.59116" lon="6.75363">
        <ele>520.4</ele>
        <time>2017-10-15T08:40:28.000Z</time>
      </trkpt>
      <trkpt lat="47.59115" lon="6.75363">
        <ele>520.6</ele>
        <time>2017-10-15T08:40:29.000Z</time>
      </trkpt>
      <trkpt lat="47.59112" lon="6.75363">
        <ele>521.4</ele>
        <time>2017-10-15T08:40:32.000Z</time>
      </trkpt>
      <trkpt lat="47.59109" lon="6.75366">
        <ele>521.5</ele>
        <time>2017-10-15T08:40:33.000Z</time>
      </trkpt>
      <trkpt lat="47.59103" lon="6.75366">
        <ele>521.8</ele>
        <time>2017-10-15T08:40:34.000Z</time>
      </trkpt>
      <trkpt lat="47.59098" lon="6.75365">
        <ele>521.8</ele>
        <time>2017-10-15T08:40:35.000Z</time>
      </trkpt>
      <trkpt lat="47.59092" lon="6.75366">
        <ele>521.8</ele>
        <time>2017-10-15T08:40:36.000Z</time>
      </trkpt>
      <trkpt lat="47.59087" lon="6.75371">
        <ele>521.7</ele>
        <time>2017-10-15T08:40:37.000Z</time>
      </trkpt>
      <trkpt lat="47.59083" lon="6.75377">
        <ele>520.9</ele>
        <time>2017-10-15T08:40:38.000Z</time>
      </trkpt>
      <trkpt lat="47.59077" lon="6.75381">
        <ele>520.9</ele>
        <time>2017-10-15T08:40:39.000Z</time>
      </trkpt>
      <trkpt lat="47.59072" lon="6.75381">
        <ele>520.7</ele>
        <time>2017-10-15T08:40:40.000Z</time>
      </trkpt>
      <trkpt lat="47.59067" lon="6.75381">
        <ele>518.6</ele>
        <time>2017-10-15T08:40:41.000Z</time>
      </trkpt>
      <trkpt lat="47.59063" lon="6.7538">
        <ele>518.4</ele>
        <time>2017-10-15T08:40:42.000Z</time>
      </trkpt>
      <trkpt lat="47.59059" lon="6.75381">
        <ele>518.2</ele>
        <time>2017-10-15T08:40:43.000Z</time>
      </trkpt>
      <trkpt lat="47.59053" lon="6.7538">
        <ele>515.5</ele>
        <time>2017-10-15T08:40:44.000Z</time>
      </trkpt>
      <trkpt lat="47.59048" lon="6.75379">
        <ele>513</ele>
        <time>2017-10-15T08:40:45.000Z</time>
      </trkpt>
      <trkpt lat="47.59043" lon="6.75378">
        <ele>510</ele>
        <time>2017-10-15T08:40:46.000Z</time>
      </trkpt>
      <trkpt lat="47.59041" lon="6.75375">
        <ele>509.8</ele>
        <time>2017-10-15T08:40:47.000Z</time>
      </trkpt>
      <trkpt lat="47.59037" lon="6.75371">
        <ele>509.6</ele>
        <time>2017-10-15T08:40:48.000Z</time>
      </trkpt>
      <trkpt lat="47.59032" lon="6.75367">
        <ele>506.2</ele>
        <time>2017-10-15T08:40:49.000Z</time>
      </trkpt>
      <trkpt lat="47.59028" lon="6.75363">
        <ele>505.9</ele>
        <time>2017-10-15T08:40:50.000Z</time>
      </trkpt>
      <trkpt lat="47.59025" lon="6.75359">
        <ele>505.7</ele>
        <time>2017-10-15T08:40:51.000Z</time>
      </trkpt>
      <trkpt lat="47.59023" lon="6.75354">
        <ele>503.9</ele>
        <time>2017-10-15T08:40:52.000Z</time>
      </trkpt>
      <trkpt lat="47.59019" lon="6.75348">
        <ele>502.3</ele>
        <time>2017-10-15T08:40:53.000Z</time>
      </trkpt>
      <trkpt lat="47.59016" lon="6.75343">
        <ele>502.2</ele>
        <time>2017-10-15T08:40:54.000Z</time>
      </trkpt>
      <trkpt lat="47.59014" lon="6.75338">
        <ele>502</ele>
        <time>2017-10-15T08:40:55.000Z</time>
      </trkpt>
      <trkpt lat="47.59013" lon="6.75331">
        <ele>501.8</ele>
        <time>2017-10-15T08:40:56.000Z</time>
      </trkpt>
      <trkpt lat="47.59011" lon="6.75325">
        <ele>501.7</ele>
        <time>2017-10-15T08:40:57.000Z</time>
      </trkpt>
      <trkpt lat="47.59009" lon="6.75323">
        <ele>501.5</ele>
        <time>2017-10-15T08:40:58.000Z</time>
      </trkpt>
      <trkpt lat="47.59008" lon="6.75319">
        <ele>501.2</ele>
        <time>2017-10-15T08:40:59.000Z</time>
      </trkpt>
      <trkpt lat="47.59007" lon="6.75314">
        <ele>500.9</ele>
        <time>2017-10-15T08:41:00.000Z</time>
      </trkpt>
      <trkpt lat="47.59006" lon="6.75307">
        <ele>500.6</ele>
        <time>2017-10-15T08:41:01.000Z</time>
      </trkpt>
      <trkpt lat="47.59004" lon="6.753">
        <ele>500.3</ele>
        <time>2017-10-15T08:41:02.000Z</time>
      </trkpt>
      <trkpt lat="47.58998" lon="6.75299">
        <ele>498.2</ele>
        <time>2017-10-15T08:41:03.000Z</time>
      </trkpt>
      <trkpt lat="47.58993" lon="6.753">
        <ele>496.8</ele>
        <time>2017-10-15T08:41:04.000Z</time>
      </trkpt>
      <trkpt lat="47.58988" lon="6.75303">
        <ele>495.2</ele>
        <time>2017-10-15T08:41:05.000Z</time>
      </trkpt>
      <trkpt lat="47.58984" lon="6.75298">
        <ele>495.2</ele>
        <time>2017-10-15T08:41:06.000Z</time>
      </trkpt>
      <trkpt lat="47.58983" lon="6.75294">
        <ele>495.1</ele>
        <time>2017-10-15T08:41:07.000Z</time>
      </trkpt>
      <trkpt lat="47.58982" lon="6.75286">
        <ele>495</ele>
        <time>2017-10-15T08:41:08.000Z</time>
      </trkpt>
      <trkpt lat="47.58985" lon="6.75279">
        <ele>494.9</ele>
        <time>2017-10-15T08:41:09.000Z</time>
      </trkpt>
      <trkpt lat="47.58984" lon="6.75271">
        <ele>494.8</ele>
        <time>2017-10-15T08:41:10.000Z</time>
      </trkpt>
      <trkpt lat="47.58981" lon="6.75261">
        <ele>494.7</ele>
        <time>2017-10-15T08:41:11.000Z</time>
      </trkpt>
      <trkpt lat="47.58978" lon="6.75251">
        <ele>493.8</ele>
        <time>2017-10-15T08:41:12.000Z</time>
      </trkpt>
      <trkpt lat="47.58976" lon="6.75244">
        <ele>493.1</ele>
        <time>2017-10-15T08:41:13.000Z</time>
      </trkpt>
      <trkpt lat="47.58976" lon="6.75238">
        <ele>493.1</ele>
        <time>2017-10-15T08:41:14.000Z</time>
      </trkpt>
      <trkpt lat="47.58975" lon="6.75231">
        <ele>493</ele>
        <time>2017-10-15T08:41:15.000Z</time>
      </trkpt>
      <trkpt lat="47.58971" lon="6.75226">
        <ele>492.9</ele>
        <time>2017-10-15T08:41:16.000Z</time>
      </trkpt>
      <trkpt lat="47.58966" lon="6.75223">
        <ele>491.5</ele>
        <time>2017-10-15T08:41:17.000Z</time>
      </trkpt>
      <trkpt lat="47.58961" lon="6.75221">
        <ele>491.4</ele>
        <time>2017-10-15T08:41:18.000Z</time>
      </trkpt>
      <trkpt lat="47.58957" lon="6.75219">
        <ele>490</ele>
        <time>2017-10-15T08:41:19.000Z</time>
      </trkpt>
      <trkpt lat="47.58951" lon="6.75213">
        <ele>490</ele>
        <time>2017-10-15T08:41:20.000Z</time>
      </trkpt>
      <trkpt lat="47.58947" lon="6.75205">
        <ele>490.1</ele>
        <time>2017-10-15T08:41:21.000Z</time>
      </trkpt>
      <trkpt lat="47.58945" lon="6.75199">
        <ele>490.1</ele>
        <time>2017-10-15T08:41:22.000Z</time>
      </trkpt>
      <trkpt lat="47.58942" lon="6.75194">
        <ele>490</ele>
        <time>2017-10-15T08:41:23.000Z</time>
      </trkpt>
      <trkpt lat="47.58939" lon="6.75189">
        <ele>489.9</ele>
        <time>2017-10-15T08:41:24.000Z</time>
      </trkpt>
      <trkpt lat="47.58936" lon="6.75184">
        <ele>489.8</ele>
        <time>2017-10-15T08:41:25.000Z</time>
      </trkpt>
      <trkpt lat="47.58933" lon="6.75179">
        <ele>489.7</ele>
        <time>2017-10-15T08:41:26.000Z</time>
      </trkpt>
      <trkpt lat="47.58928" lon="6.75175">
        <ele>489.5</ele>
        <time>2017-10-15T08:41:27.000Z</time>
      </trkpt>
      <trkpt lat="47.58925" lon="6.75172">
        <ele>488.7</ele>
        <time>2017-10-15T08:41:34.000Z</time>
      </trkpt>
      <trkpt lat="47.5892" lon="6.75173">
        <ele>488.6</ele>
        <time>2017-10-15T08:41:35.000Z</time>
      </trkpt>
      <trkpt lat="47.58915" lon="6.75175">
        <ele>487.2</ele>
        <time>2017-10-15T08:41:36.000Z</time>
      </trkpt>
      <trkpt lat="47.58909" lon="6.75177">
        <ele>486.6</ele>
        <time>2017-10-15T08:41:37.000Z</time>
      </trkpt>
      <trkpt lat="47.58903" lon="6.7518">
        <ele>485.3</ele>
        <time>2017-10-15T08:41:38.000Z</time>
      </trkpt>
      <trkpt lat="47.58897" lon="6.75182">
        <ele>484.2</ele>
        <time>2017-10-15T08:41:39.000Z</time>
      </trkpt>
      <trkpt lat="47.5889" lon="6.7518">
        <ele>484.1</ele>
        <time>2017-10-15T08:41:40.000Z</time>
      </trkpt>
      <trkpt lat="47.58884" lon="6.75175">
        <ele>483.9</ele>
        <time>2017-10-15T08:41:41.000Z</time>
      </trkpt>
      <trkpt lat="47.58878" lon="6.75169">
        <ele>483.2</ele>
        <time>2017-10-15T08:41:42.000Z</time>
      </trkpt>
      <trkpt lat="47.58872" lon="6.75163">
        <ele>483.1</ele>
        <time>2017-10-15T08:41:43.000Z</time>
      </trkpt>
      <trkpt lat="47.58867" lon="6.75157">
        <ele>482.5</ele>
        <time>2017-10-15T08:41:44.000Z</time>
      </trkpt>
      <trkpt lat="47.58862" lon="6.75151">
        <ele>481.6</ele>
        <time>2017-10-15T08:41:45.000Z</time>
      </trkpt>
      <trkpt lat="47.58859" lon="6.75144">
        <ele>481</ele>
        <time>2017-10-15T08:41:46.000Z</time>
      </trkpt>
      <trkpt lat="47.58857" lon="6.75138">
        <ele>480.9</ele>
        <time>2017-10-15T08:41:47.000Z</time>
      </trkpt>
      <trkpt lat="47.58856" lon="6.75133">
        <ele>480.9</ele>
        <time>2017-10-15T08:41:48.000Z</time>
      </trkpt>
      <trkpt lat="47.58853" lon="6.75128">
        <ele>480.8</ele>
        <time>2017-10-15T08:41:49.000Z</time>
      </trkpt>
      <trkpt lat="47.5885" lon="6.75121">
        <ele>480.7</ele>
        <time>2017-10-15T08:41:50.000Z</time>
      </trkpt>
      <trkpt lat="47.58848" lon="6.75114">
        <ele>480.5</ele>
        <time>2017-10-15T08:41:51.000Z</time>
      </trkpt>
      <trkpt lat="47.58845" lon="6.75109">
        <ele>480.3</ele>
        <time>2017-10-15T08:41:52.000Z</time>
      </trkpt>
      <trkpt lat="47.58842" lon="6.75105">
        <ele>480.2</ele>
        <time>2017-10-15T08:41:53.000Z</time>
      </trkpt>
      <trkpt lat="47.58839" lon="6.751">
        <ele>480.1</ele>
        <time>2017-10-15T08:41:54.000Z</time>
      </trkpt>
      <trkpt lat="47.58838" lon="6.75095">
        <ele>480</ele>
        <time>2017-10-15T08:41:55.000Z</time>
      </trkpt>
      <trkpt lat="47.58836" lon="6.75092">
        <ele>479.8</ele>
        <time>2017-10-15T08:41:56.000Z</time>
      </trkpt>
      <trkpt lat="47.58834" lon="6.75088">
        <ele>479.7</ele>
        <time>2017-10-15T08:41:57.000Z</time>
      </trkpt>
      <trkpt lat="47.58831" lon="6.75084">
        <ele>479.5</ele>
        <time>2017-10-15T08:41:58.000Z</time>
      </trkpt>
      <trkpt lat="47.5883" lon="6.75076">
        <ele>477.4</ele>
        <time>2017-10-15T08:41:59.000Z</time>
      </trkpt>
      <trkpt lat="47.58829" lon="6.7507">
        <ele>475.9</ele>
        <time>2017-10-15T08:42:00.000Z</time>
      </trkpt>
      <trkpt lat="47.58826" lon="6.75065">
        <ele>474.1</ele>
        <time>2017-10-15T08:42:01.000Z</time>
      </trkpt>
      <trkpt lat="47.58823" lon="6.75058">
        <ele>471.5</ele>
        <time>2017-10-15T08:42:02.000Z</time>
      </trkpt>
      <trkpt lat="47.58821" lon="6.75051">
        <ele>469.8</ele>
        <time>2017-10-15T08:42:03.000Z</time>
      </trkpt>
      <trkpt lat="47.58819" lon="6.75049">
        <ele>469.7</ele>
        <time>2017-10-15T08:42:04.000Z</time>
      </trkpt>
      <trkpt lat="47.58815" lon="6.75046">
        <ele>468.1</ele>
        <time>2017-10-15T08:42:05.000Z</time>
      </trkpt>
      <trkpt lat="47.58813" lon="6.75043">
        <ele>467.9</ele>
        <time>2017-10-15T08:42:06.000Z</time>
      </trkpt>
      <trkpt lat="47.58812" lon="6.75041">
        <ele>467.7</ele>
        <time>2017-10-15T08:42:07.000Z</time>
      </trkpt>
      <trkpt lat="47.58809" lon="6.75037">
        <ele>467.5</ele>
        <time>2017-10-15T08:42:08.000Z</time>
      </trkpt>
      <trkpt lat="47.58805" lon="6.75034">
        <ele>465.1</ele>
        <time>2017-10-15T08:42:09.000Z</time>
      </trkpt>
      <trkpt lat="47.58799" lon="6.75028">
        <ele>463.1</ele>
        <time>2017-10-15T08:42:10.000Z</time>
      </trkpt>
      <trkpt lat="47.58795" lon="6.75018">
        <ele>461.8</ele>
        <time>2017-10-15T08:42:11.000Z</time>
      </trkpt>
      <trkpt lat="47.58793" lon="6.75012">
        <ele>460</ele>
        <time>2017-10-15T08:42:12.000Z</time>
      </trkpt>
      <trkpt lat="47.58789" lon="6.75004">
        <ele>458.2</ele>
        <time>2017-10-15T08:42:13.000Z</time>
      </trkpt>
      <trkpt lat="47.58784" lon="6.74995">
        <ele>456.5</ele>
        <time>2017-10-15T08:42:14.000Z</time>
      </trkpt>
      <trkpt lat="47.58778" lon="6.74986">
        <ele>454.4</ele>
        <time>2017-10-15T08:42:15.000Z</time>
      </trkpt>
      <trkpt lat="47.58773" lon="6.74978">
        <ele>453.2</ele>
        <time>2017-10-15T08:42:16.000Z</time>
      </trkpt>
      <trkpt lat="47.58767" lon="6.74966">
        <ele>451.8</ele>
        <time>2017-10-15T08:42:17.000Z</time>
      </trkpt>
      <trkpt lat="47.58764" lon="6.74958">
        <ele>451.6</ele>
        <time>2017-10-15T08:42:18.000Z</time>
      </trkpt>
      <trkpt lat="47.58765" lon="6.74952">
        <ele>451.5</ele>
        <time>2017-10-15T08:42:19.000Z</time>
      </trkpt>
      <trkpt lat="47.58764" lon="6.74946">
        <ele>451.2</ele>
        <time>2017-10-15T08:42:20.000Z</time>
      </trkpt>
      <trkpt lat="47.58763" lon="6.7494">
        <ele>451.1</ele>
        <time>2017-10-15T08:42:24.000Z</time>
      </trkpt>
      <trkpt lat="47.58763" lon="6.74939">
        <ele>451.1</ele>
        <time>2017-10-15T08:42:25.000Z</time>
      </trkpt>
      <trkpt lat="47.58765" lon="6.74933">
        <ele>451.3</ele>
        <time>2017-10-15T08:42:29.000Z</time>
      </trkpt>
      <trkpt lat="47.58766" lon="6.74931">
        <ele>451.5</ele>
        <time>2017-10-15T08:42:30.000Z</time>
      </trkpt>
      <trkpt lat="47.58765" lon="6.74927">
        <ele>451.6</ele>
        <time>2017-10-15T08:42:31.000Z</time>
      </trkpt>
      <trkpt lat="47.58764" lon="6.74923">
        <ele>451.8</ele>
        <time>2017-10-15T08:42:32.000Z</time>
      </trkpt>
      <trkpt lat="47.58762" lon="6.74916">
        <ele>451.9</ele>
        <time>2017-10-15T08:42:33.000Z</time>
      </trkpt>
      <trkpt lat="47.5876" lon="6.7491">
        <ele>452</ele>
        <time>2017-10-15T08:42:34.000Z</time>
      </trkpt>
      <trkpt lat="47.58758" lon="6.74904">
        <ele>452.1</ele>
        <time>2017-10-15T08:42:35.000Z</time>
      </trkpt>
      <trkpt lat="47.58757" lon="6.74897">
        <ele>452.4</ele>
        <time>2017-10-15T08:42:36.000Z</time>
      </trkpt>
      <trkpt lat="47.58755" lon="6.74886">
        <ele>452.4</ele>
        <time>2017-10-15T08:42:37.000Z</time>
      </trkpt>
      <trkpt lat="47.58754" lon="6.74877">
        <ele>451.3</ele>
        <time>2017-10-15T08:42:38.000Z</time>
      </trkpt>
      <trkpt lat="47.58752" lon="6.7487">
        <ele>451.3</ele>
        <time>2017-10-15T08:42:39.000Z</time>
      </trkpt>
      <trkpt lat="47.58751" lon="6.74868">
        <ele>451.2</ele>
        <time>2017-10-15T08:42:40.000Z</time>
      </trkpt>
      <trkpt lat="47.58748" lon="6.74864">
        <ele>451.1</ele>
        <time>2017-10-15T08:42:41.000Z</time>
      </trkpt>
      <trkpt lat="47.58746" lon="6.74858">
        <ele>451</ele>
        <time>2017-10-15T08:42:42.000Z</time>
      </trkpt>
      <trkpt lat="47.58744" lon="6.74851">
        <ele>450.8</ele>
        <time>2017-10-15T08:42:43.000Z</time>
      </trkpt>
      <trkpt lat="47.58743" lon="6.74846">
        <ele>450.7</ele>
        <time>2017-10-15T08:42:44.000Z</time>
      </trkpt>
      <trkpt lat="47.58741" lon="6.74845">
        <ele>450.5</ele>
        <time>2017-10-15T08:42:45.000Z</time>
      </trkpt>
      <trkpt lat="47.58738" lon="6.74845">
        <ele>450.3</ele>
        <time>2017-10-15T08:42:46.000Z</time>
      </trkpt>
      <trkpt lat="47.58733" lon="6.74843">
        <ele>450</ele>
        <time>2017-10-15T08:42:47.000Z</time>
      </trkpt>
      <trkpt lat="47.58726" lon="6.7484">
        <ele>447.4</ele>
        <time>2017-10-15T08:42:48.000Z</time>
      </trkpt>
      <trkpt lat="47.58721" lon="6.74838">
        <ele>445.4</ele>
        <time>2017-10-15T08:42:49.000Z</time>
      </trkpt>
      <trkpt lat="47.58716" lon="6.74836">
        <ele>443.4</ele>
        <time>2017-10-15T08:42:50.000Z</time>
      </trkpt>
      <trkpt lat="47.58711" lon="6.74834">
        <ele>441.8</ele>
        <time>2017-10-15T08:42:51.000Z</time>
      </trkpt>
      <trkpt lat="47.58706" lon="6.74835">
        <ele>440.9</ele>
        <time>2017-10-15T08:42:52.000Z</time>
      </trkpt>
      <trkpt lat="47.58701" lon="6.74835">
        <ele>439.3</ele>
        <time>2017-10-15T08:42:53.000Z</time>
      </trkpt>
      <trkpt lat="47.58696" lon="6.74836">
        <ele>438.4</ele>
        <time>2017-10-15T08:42:54.000Z</time>
      </trkpt>
      <trkpt lat="47.58691" lon="6.74837">
        <ele>437.8</ele>
        <time>2017-10-15T08:42:55.000Z</time>
      </trkpt>
      <trkpt lat="47.58686" lon="6.74839">
        <ele>437.3</ele>
        <time>2017-10-15T08:42:56.000Z</time>
      </trkpt>
      <trkpt lat="47.58681" lon="6.74835">
        <ele>436.7</ele>
        <time>2017-10-15T08:42:57.000Z</time>
      </trkpt>
      <trkpt lat="47.58678" lon="6.74829">
        <ele>435.8</ele>
        <time>2017-10-15T08:42:58.000Z</time>
      </trkpt>
      <trkpt lat="47.58673" lon="6.74827">
        <ele>434.5</ele>
        <time>2017-10-15T08:42:59.000Z</time>
      </trkpt>
      <trkpt lat="47.58667" lon="6.74826">
        <ele>433.4</ele>
        <time>2017-10-15T08:43:00.000Z</time>
      </trkpt>
      <trkpt lat="47.58664" lon="6.74825">
        <ele>433.2</ele>
        <time>2017-10-15T08:43:01.000Z</time>
      </trkpt>
      <trkpt lat="47.58662" lon="6.74823">
        <ele>433.1</ele>
        <time>2017-10-15T08:43:02.000Z</time>
      </trkpt>
      <trkpt lat="47.58658" lon="6.74821">
        <ele>432.9</ele>
        <time>2017-10-15T08:43:03.000Z</time>
      </trkpt>
      <trkpt lat="47.58653" lon="6.7482">
        <ele>432.7</ele>
        <time>2017-10-15T08:43:04.000Z</time>
      </trkpt>
      <trkpt lat="47.58648" lon="6.74819">
        <ele>432.5</ele>
        <time>2017-10-15T08:43:05.000Z</time>
      </trkpt>
      <trkpt lat="47.58646" lon="6.74821">
        <ele>432.3</ele>
        <time>2017-10-15T08:43:06.000Z</time>
      </trkpt>
      <trkpt lat="47.58643" lon="6.74823">
        <ele>432.1</ele>
        <time>2017-10-15T08:43:07.000Z</time>
      </trkpt>
      <trkpt lat="47.5864" lon="6.74827">
        <ele>429.5</ele>
        <time>2017-10-15T08:43:08.000Z</time>
      </trkpt>
      <trkpt lat="47.58637" lon="6.74831">
        <ele>427.7</ele>
        <time>2017-10-15T08:43:09.000Z</time>
      </trkpt>
      <trkpt lat="47.58634" lon="6.74833">
        <ele>427.4</ele>
        <time>2017-10-15T08:43:11.000Z</time>
      </trkpt>
      <trkpt lat="47.58633" lon="6.74834">
        <ele>427.4</ele>
        <time>2017-10-15T08:43:12.000Z</time>
      </trkpt>
      <trkpt lat="47.58629" lon="6.74836">
        <ele>427.2</ele>
        <time>2017-10-15T08:43:14.000Z</time>
      </trkpt>
      <trkpt lat="47.58628" lon="6.74837">
        <ele>427</ele>
        <time>2017-10-15T08:43:15.000Z</time>
      </trkpt>
      <trkpt lat="47.58627" lon="6.74838">
        <ele>426.5</ele>
        <time>2017-10-15T08:43:18.000Z</time>
      </trkpt>
      <trkpt lat="47.58624" lon="6.74841">
        <ele>426.5</ele>
        <time>2017-10-15T08:43:19.000Z</time>
      </trkpt>
      <trkpt lat="47.58622" lon="6.74844">
        <ele>426</ele>
        <time>2017-10-15T08:43:23.000Z</time>
      </trkpt>
      <trkpt lat="47.5862" lon="6.74844">
        <ele>425.8</ele>
        <time>2017-10-15T08:43:24.000Z</time>
      </trkpt>
      <trkpt lat="47.58619" lon="6.7484">
        <ele>425.6</ele>
        <time>2017-10-15T08:43:25.000Z</time>
      </trkpt>
      <trkpt lat="47.58614" lon="6.74838">
        <ele>423.4</ele>
        <time>2017-10-15T08:43:26.000Z</time>
      </trkpt>
      <trkpt lat="47.58609" lon="6.74838">
        <ele>423.3</ele>
        <time>2017-10-15T08:43:27.000Z</time>
      </trkpt>
      <trkpt lat="47.58605" lon="6.74837">
        <ele>423.1</ele>
        <time>2017-10-15T08:43:28.000Z</time>
      </trkpt>
      <trkpt lat="47.58602" lon="6.74834">
        <ele>421.2</ele>
        <time>2017-10-15T08:43:29.000Z</time>
      </trkpt>
      <trkpt lat="47.58599" lon="6.7483">
        <ele>421.1</ele>
        <time>2017-10-15T08:43:30.000Z</time>
      </trkpt>
      <trkpt lat="47.58596" lon="6.74827">
        <ele>420.9</ele>
        <time>2017-10-15T08:43:31.000Z</time>
      </trkpt>
      <trkpt lat="47.58594" lon="6.74827">
        <ele>420.8</ele>
        <time>2017-10-15T08:43:32.000Z</time>
      </trkpt>
      <trkpt lat="47.58592" lon="6.74824">
        <ele>420.6</ele>
        <time>2017-10-15T08:43:33.000Z</time>
      </trkpt>
      <trkpt lat="47.5859" lon="6.7482">
        <ele>418.8</ele>
        <time>2017-10-15T08:43:34.000Z</time>
      </trkpt>
      <trkpt lat="47.58587" lon="6.74815">
        <ele>418.6</ele>
        <time>2017-10-15T08:43:35.000Z</time>
      </trkpt>
      <trkpt lat="47.58586" lon="6.74813">
        <ele>418.5</ele>
        <time>2017-10-15T08:43:36.000Z</time>
      </trkpt>
      <trkpt lat="47.58585" lon="6.74808">
        <ele>416.9</ele>
        <time>2017-10-15T08:43:37.000Z</time>
      </trkpt>
      <trkpt lat="47.58586" lon="6.74802">
        <ele>415.6</ele>
        <time>2017-10-15T08:43:38.000Z</time>
      </trkpt>
      <trkpt lat="47.58585" lon="6.74797">
        <ele>415.5</ele>
        <time>2017-10-15T08:43:39.000Z</time>
      </trkpt>
      <trkpt lat="47.58581" lon="6.74794">
        <ele>415.4</ele>
        <time>2017-10-15T08:43:40.000Z</time>
      </trkpt>
      <trkpt lat="47.58577" lon="6.74791">
        <ele>415.3</ele>
        <time>2017-10-15T08:43:44.000Z</time>
      </trkpt>
      <trkpt lat="47.58577" lon="6.74789">
        <ele>415.1</ele>
        <time>2017-10-15T08:43:45.000Z</time>
      </trkpt>
      <trkpt lat="47.58577" lon="6.74784">
        <ele>414.9</ele>
        <time>2017-10-15T08:43:47.000Z</time>
      </trkpt>
      <trkpt lat="47.58578" lon="6.74782">
        <ele>414.7</ele>
        <time>2017-10-15T08:43:48.000Z</time>
      </trkpt>
      <trkpt lat="47.58579" lon="6.74788">
        <ele>414.3</ele>
        <time>2017-10-15T08:43:52.000Z</time>
      </trkpt>
      <trkpt lat="47.58578" lon="6.74789">
        <ele>414.2</ele>
        <time>2017-10-15T08:43:53.000Z</time>
      </trkpt>
      <trkpt lat="47.58575" lon="6.74787">
        <ele>413.9</ele>
        <time>2017-10-15T08:43:57.000Z</time>
      </trkpt>
      <trkpt lat="47.58574" lon="6.74783">
        <ele>413.7</ele>
        <time>2017-10-15T08:43:58.000Z</time>
      </trkpt>
      <trkpt lat="47.58574" lon="6.7478">
        <ele>413.6</ele>
        <time>2017-10-15T08:43:59.000Z</time>
      </trkpt>
      <trkpt lat="47.58573" lon="6.74776">
        <ele>413.5</ele>
        <time>2017-10-15T08:44:00.000Z</time>
      </trkpt>
      <trkpt lat="47.58572" lon="6.74773">
        <ele>413.3</ele>
        <time>2017-10-15T08:44:01.000Z</time>
      </trkpt>
      <trkpt lat="47.58571" lon="6.74769">
        <ele>413.2</ele>
        <time>2017-10-15T08:44:02.000Z</time>
      </trkpt>
      <trkpt lat="47.58569" lon="6.74763">
        <ele>413</ele>
        <time>2017-10-15T08:44:04.000Z</time>
      </trkpt>
      <trkpt lat="47.58568" lon="6.74761">
        <ele>412.9</ele>
        <time>2017-10-15T08:44:05.000Z</time>
      </trkpt>
      <trkpt lat="47.58565" lon="6.74756">
        <ele>412.7</ele>
        <time>2017-10-15T08:44:07.000Z</time>
      </trkpt>
      <trkpt lat="47.58564" lon="6.74753">
        <ele>412.6</ele>
        <time>2017-10-15T08:44:08.000Z</time>
      </trkpt>
      <trkpt lat="47.58562" lon="6.74751">
        <ele>412.5</ele>
        <time>2017-10-15T08:44:09.000Z</time>
      </trkpt>
      <trkpt lat="47.58561" lon="6.74747">
        <ele>412.4</ele>
        <time>2017-10-15T08:44:10.000Z</time>
      </trkpt>
      <trkpt lat="47.58559" lon="6.74744">
        <ele>412.3</ele>
        <time>2017-10-15T08:44:11.000Z</time>
      </trkpt>
      <trkpt lat="47.58556" lon="6.74744">
        <ele>412.2</ele>
        <time>2017-10-15T08:44:12.000Z</time>
      </trkpt>
      <trkpt lat="47.58554" lon="6.74746">
        <ele>412.1</ele>
        <time>2017-10-15T08:44:13.000Z</time>
      </trkpt>
      <trkpt lat="47.58552" lon="6.74747">
        <ele>412.1</ele>
        <time>2017-10-15T08:44:14.000Z</time>
      </trkpt>
      <trkpt lat="47.58548" lon="6.74746">
        <ele>412</ele>
        <time>2017-10-15T08:44:15.000Z</time>
      </trkpt>
      <trkpt lat="47.58544" lon="6.74745">
        <ele>411.9</ele>
        <time>2017-10-15T08:44:16.000Z</time>
      </trkpt>
      <trkpt lat="47.58541" lon="6.74743">
        <ele>411.9</ele>
        <time>2017-10-15T08:44:17.000Z</time>
      </trkpt>
      <trkpt lat="47.58539" lon="6.74742">
        <ele>411.9</ele>
        <time>2017-10-15T08:44:18.000Z</time>
      </trkpt>
      <trkpt lat="47.58535" lon="6.74742">
        <ele>411.7</ele>
        <time>2017-10-15T08:44:19.000Z</time>
      </trkpt>
      <trkpt lat="47.58531" lon="6.74742">
        <ele>411.7</ele>
        <time>2017-10-15T08:44:20.000Z</time>
      </trkpt>
      <trkpt lat="47.58527" lon="6.74742">
        <ele>411.7</ele>
        <time>2017-10-15T08:44:21.000Z</time>
      </trkpt>
      <trkpt lat="47.58524" lon="6.74743">
        <ele>411.9</ele>
        <time>2017-10-15T08:44:22.000Z</time>
      </trkpt>
      <trkpt lat="47.58519" lon="6.74744">
        <ele>411.6</ele>
        <time>2017-10-15T08:44:23.000Z</time>
      </trkpt>
      <trkpt lat="47.58515" lon="6.74746">
        <ele>411.7</ele>
        <time>2017-10-15T08:44:24.000Z</time>
      </trkpt>
      <trkpt lat="47.58511" lon="6.74749">
        <ele>411.8</ele>
        <time>2017-10-15T08:44:25.000Z</time>
      </trkpt>
      <trkpt lat="47.58507" lon="6.74752">
        <ele>411.7</ele>
        <time>2017-10-15T08:44:26.000Z</time>
      </trkpt>
      <trkpt lat="47.58502" lon="6.74756">
        <ele>411.9</ele>
        <time>2017-10-15T08:44:27.000Z</time>
      </trkpt>
      <trkpt lat="47.58498" lon="6.7476">
        <ele>411.6</ele>
        <time>2017-10-15T08:44:28.000Z</time>
      </trkpt>
      <trkpt lat="47.58494" lon="6.74764">
        <ele>411.4</ele>
        <time>2017-10-15T08:44:29.000Z</time>
      </trkpt>
      <trkpt lat="47.5849" lon="6.74768">
        <ele>411</ele>
        <time>2017-10-15T08:44:30.000Z</time>
      </trkpt>
      <trkpt lat="47.58486" lon="6.74772">
        <ele>410.9</ele>
        <time>2017-10-15T08:44:31.000Z</time>
      </trkpt>
      <trkpt lat="47.58482" lon="6.74776">
        <ele>410.4</ele>
        <time>2017-10-15T08:44:32.000Z</time>
      </trkpt>
      <trkpt lat="47.58479" lon="6.7478">
        <ele>409.9</ele>
        <time>2017-10-15T08:44:33.000Z</time>
      </trkpt>
      <trkpt lat="47.58474" lon="6.74784">
        <ele>409.5</ele>
        <time>2017-10-15T08:44:34.000Z</time>
      </trkpt>
      <trkpt lat="47.5847" lon="6.74789">
        <ele>409.7</ele>
        <time>2017-10-15T08:44:35.000Z</time>
      </trkpt>
      <trkpt lat="47.58466" lon="6.74792">
        <ele>410</ele>
        <time>2017-10-15T08:44:36.000Z</time>
      </trkpt>
      <trkpt lat="47.58462" lon="6.74796">
        <ele>410</ele>
        <time>2017-10-15T08:44:37.000Z</time>
      </trkpt>
      <trkpt lat="47.58458" lon="6.748">
        <ele>409.8</ele>
        <time>2017-10-15T08:44:38.000Z</time>
      </trkpt>
      <trkpt lat="47.58453" lon="6.74804">
        <ele>409.8</ele>
        <time>2017-10-15T08:44:39.000Z</time>
      </trkpt>
      <trkpt lat="47.58448" lon="6.74809">
        <ele>409.8</ele>
        <time>2017-10-15T08:44:40.000Z</time>
      </trkpt>
      <trkpt lat="47.58444" lon="6.74813">
        <ele>409.7</ele>
        <time>2017-10-15T08:44:41.000Z</time>
      </trkpt>
      <trkpt lat="47.5844" lon="6.74817">
        <ele>409.7</ele>
        <time>2017-10-15T08:44:42.000Z</time>
      </trkpt>
      <trkpt lat="47.58435" lon="6.74821">
        <ele>409.6</ele>
        <time>2017-10-15T08:44:43.000Z</time>
      </trkpt>
      <trkpt lat="47.58431" lon="6.74824">
        <ele>409.8</ele>
        <time>2017-10-15T08:44:44.000Z</time>
      </trkpt>
      <trkpt lat="47.58426" lon="6.74827">
        <ele>410.4</ele>
        <time>2017-10-15T08:44:45.000Z</time>
      </trkpt>
      <trkpt lat="47.58423" lon="6.7483">
        <ele>410.7</ele>
        <time>2017-10-15T08:44:46.000Z</time>
      </trkpt>
      <trkpt lat="47.5842" lon="6.74834">
        <ele>410.3</ele>
        <time>2017-10-15T08:44:47.000Z</time>
      </trkpt>
      <trkpt lat="47.58417" lon="6.74837">
        <ele>410.5</ele>
        <time>2017-10-15T08:44:48.000Z</time>
      </trkpt>
      <trkpt lat="47.58413" lon="6.74842">
        <ele>410.9</ele>
        <time>2017-10-15T08:44:49.000Z</time>
      </trkpt>
      <trkpt lat="47.5841" lon="6.74845">
        <ele>411.2</ele>
        <time>2017-10-15T08:44:50.000Z</time>
      </trkpt>
      <trkpt lat="47.58406" lon="6.74848">
        <ele>411.2</ele>
        <time>2017-10-15T08:44:51.000Z</time>
      </trkpt>
      <trkpt lat="47.58402" lon="6.74847">
        <ele>411.4</ele>
        <time>2017-10-15T08:44:52.000Z</time>
      </trkpt>
      <trkpt lat="47.58399" lon="6.74843">
        <ele>411.3</ele>
        <time>2017-10-15T08:44:53.000Z</time>
      </trkpt>
      <trkpt lat="47.58396" lon="6.74839">
        <ele>411.3</ele>
        <time>2017-10-15T08:44:54.000Z</time>
      </trkpt>
      <trkpt lat="47.58392" lon="6.74834">
        <ele>411.6</ele>
        <time>2017-10-15T08:44:55.000Z</time>
      </trkpt>
      <trkpt lat="47.58387" lon="6.74828">
        <ele>411.6</ele>
        <time>2017-10-15T08:44:56.000Z</time>
      </trkpt>
      <trkpt lat="47.58385" lon="6.74822">
        <ele>411.6</ele>
        <time>2017-10-15T08:44:57.000Z</time>
      </trkpt>
      <trkpt lat="47.58382" lon="6.74816">
        <ele>411.6</ele>
        <time>2017-10-15T08:44:58.000Z</time>
      </trkpt>
      <trkpt lat="47.5838" lon="6.74809">
        <ele>412.1</ele>
        <time>2017-10-15T08:44:59.000Z</time>
      </trkpt>
      <trkpt lat="47.58378" lon="6.74802">
        <ele>411.7</ele>
        <time>2017-10-15T08:45:00.000Z</time>
      </trkpt>
      <trkpt lat="47.58376" lon="6.74793">
        <ele>412.4</ele>
        <time>2017-10-15T08:45:01.000Z</time>
      </trkpt>
      <trkpt lat="47.58375" lon="6.74784">
        <ele>412.4</ele>
        <time>2017-10-15T08:45:02.000Z</time>
      </trkpt>
      <trkpt lat="47.58374" lon="6.74774">
        <ele>412.3</ele>
        <time>2017-10-15T08:45:03.000Z</time>
      </trkpt>
      <trkpt lat="47.58374" lon="6.74765">
        <ele>412.5</ele>
        <time>2017-10-15T08:45:04.000Z</time>
      </trkpt>
      <trkpt lat="47.58374" lon="6.74756">
        <ele>412</ele>
        <time>2017-10-15T08:45:05.000Z</time>
      </trkpt>
      <trkpt lat="47.58375" lon="6.74745">
        <ele>410.6</ele>
        <time>2017-10-15T08:45:06.000Z</time>
      </trkpt>
      <trkpt lat="47.58376" lon="6.74735">
        <ele>408.6</ele>
        <time>2017-10-15T08:45:07.000Z</time>
      </trkpt>
      <trkpt lat="47.58376" lon="6.74726">
        <ele>406.4</ele>
        <time>2017-10-15T08:45:08.000Z</time>
      </trkpt>
      <trkpt lat="47.58377" lon="6.74718">
        <ele>404.3</ele>
        <time>2017-10-15T08:45:09.000Z</time>
      </trkpt>
      <trkpt lat="47.58379" lon="6.74708">
        <ele>402.3</ele>
        <time>2017-10-15T08:45:10.000Z</time>
      </trkpt>
      <trkpt lat="47.58381" lon="6.74699">
        <ele>400.5</ele>
        <time>2017-10-15T08:45:11.000Z</time>
      </trkpt>
      <trkpt lat="47.58383" lon="6.7469">
        <ele>399.3</ele>
        <time>2017-10-15T08:45:12.000Z</time>
      </trkpt>
      <trkpt lat="47.58386" lon="6.74681">
        <ele>398.6</ele>
        <time>2017-10-15T08:45:13.000Z</time>
      </trkpt>
      <trkpt lat="47.58388" lon="6.74671">
        <ele>398.3</ele>
        <time>2017-10-15T08:45:14.000Z</time>
      </trkpt>
      <trkpt lat="47.58391" lon="6.74661">
        <ele>398</ele>
        <time>2017-10-15T08:45:15.000Z</time>
      </trkpt>
      <trkpt lat="47.58394" lon="6.74651">
        <ele>397.7</ele>
        <time>2017-10-15T08:45:16.000Z</time>
      </trkpt>
      <trkpt lat="47.58396" lon="6.74641">
        <ele>396.9</ele>
        <time>2017-10-15T08:45:17.000Z</time>
      </trkpt>
      <trkpt lat="47.58399" lon="6.7463">
        <ele>396.2</ele>
        <time>2017-10-15T08:45:18.000Z</time>
      </trkpt>
      <trkpt lat="47.58402" lon="6.7462">
        <ele>396</ele>
        <time>2017-10-15T08:45:19.000Z</time>
      </trkpt>
      <trkpt lat="47.58404" lon="6.74612">
        <ele>395.7</ele>
        <time>2017-10-15T08:45:20.000Z</time>
      </trkpt>
      <trkpt lat="47.58407" lon="6.74603">
        <ele>394.8</ele>
        <time>2017-10-15T08:45:21.000Z</time>
      </trkpt>
      <trkpt lat="47.5841" lon="6.74593">
        <ele>393.8</ele>
        <time>2017-10-15T08:45:22.000Z</time>
      </trkpt>
      <trkpt lat="47.58413" lon="6.74582">
        <ele>392.8</ele>
        <time>2017-10-15T08:45:23.000Z</time>
      </trkpt>
      <trkpt lat="47.58416" lon="6.74572">
        <ele>392</ele>
        <time>2017-10-15T08:45:24.000Z</time>
      </trkpt>
      <trkpt lat="47.58419" lon="6.74563">
        <ele>391</ele>
        <time>2017-10-15T08:45:25.000Z</time>
      </trkpt>
      <trkpt lat="47.58421" lon="6.74555">
        <ele>390</ele>
        <time>2017-10-15T08:45:26.000Z</time>
      </trkpt>
      <trkpt lat="47.58425" lon="6.74545">
        <ele>389.2</ele>
        <time>2017-10-15T08:45:27.000Z</time>
      </trkpt>
      <trkpt lat="47.58427" lon="6.74535">
        <ele>388.5</ele>
        <time>2017-10-15T08:45:28.000Z</time>
      </trkpt>
      <trkpt lat="47.5843" lon="6.74525">
        <ele>388</ele>
        <time>2017-10-15T08:45:29.000Z</time>
      </trkpt>
      <trkpt lat="47.58432" lon="6.74516">
        <ele>388.1</ele>
        <time>2017-10-15T08:45:30.000Z</time>
      </trkpt>
      <trkpt lat="47.58435" lon="6.74506">
        <ele>387.4</ele>
        <time>2017-10-15T08:45:31.000Z</time>
      </trkpt>
      <trkpt lat="47.58437" lon="6.74495">
        <ele>386.8</ele>
        <time>2017-10-15T08:45:32.000Z</time>
      </trkpt>
      <trkpt lat="47.58438" lon="6.74485">
        <ele>385.9</ele>
        <time>2017-10-15T08:45:33.000Z</time>
      </trkpt>
      <trkpt lat="47.58438" lon="6.74475">
        <ele>385.6</ele>
        <time>2017-10-15T08:45:34.000Z</time>
      </trkpt>
      <trkpt lat="47.58438" lon="6.74463">
        <ele>386.1</ele>
        <time>2017-10-15T08:45:35.000Z</time>
      </trkpt>
      <trkpt lat="47.58438" lon="6.74452">
        <ele>386.6</ele>
        <time>2017-10-15T08:45:36.000Z</time>
      </trkpt>
      <trkpt lat="47.58437" lon="6.74442">
        <ele>387.4</ele>
        <time>2017-10-15T08:45:37.000Z</time>
      </trkpt>
      <trkpt lat="47.58436" lon="6.74432">
        <ele>387.9</ele>
        <time>2017-10-15T08:45:38.000Z</time>
      </trkpt>
      <trkpt lat="47.58435" lon="6.74421">
        <ele>388.5</ele>
        <time>2017-10-15T08:45:39.000Z</time>
      </trkpt>
      <trkpt lat="47.58433" lon="6.7441">
        <ele>389</ele>
        <time>2017-10-15T08:45:40.000Z</time>
      </trkpt>
      <trkpt lat="47.58431" lon="6.74399">
        <ele>390.1</ele>
        <time>2017-10-15T08:45:41.000Z</time>
      </trkpt>
      <trkpt lat="47.58427" lon="6.74389">
        <ele>390.1</ele>
        <time>2017-10-15T08:45:42.000Z</time>
      </trkpt>
      <trkpt lat="47.58424" lon="6.74378">
        <ele>390.3</ele>
        <time>2017-10-15T08:45:43.000Z</time>
      </trkpt>
      <trkpt lat="47.5842" lon="6.74367">
        <ele>390.6</ele>
        <time>2017-10-15T08:45:44.000Z</time>
      </trkpt>
      <trkpt lat="47.58416" lon="6.74357">
        <ele>390.4</ele>
        <time>2017-10-15T08:45:45.000Z</time>
      </trkpt>
      <trkpt lat="47.58412" lon="6.74347">
        <ele>390.5</ele>
        <time>2017-10-15T08:45:46.000Z</time>
      </trkpt>
      <trkpt lat="47.58408" lon="6.74337">
        <ele>390</ele>
        <time>2017-10-15T08:45:47.000Z</time>
      </trkpt>
      <trkpt lat="47.58403" lon="6.74327">
        <ele>389.9</ele>
        <time>2017-10-15T08:45:48.000Z</time>
      </trkpt>
      <trkpt lat="47.58398" lon="6.74316">
        <ele>390.3</ele>
        <time>2017-10-15T08:45:49.000Z</time>
      </trkpt>
      <trkpt lat="47.58394" lon="6.74305">
        <ele>390.3</ele>
        <time>2017-10-15T08:45:50.000Z</time>
      </trkpt>
      <trkpt lat="47.58389" lon="6.74294">
        <ele>390.4</ele>
        <time>2017-10-15T08:45:51.000Z</time>
      </trkpt>
      <trkpt lat="47.58385" lon="6.74284">
        <ele>390.5</ele>
        <time>2017-10-15T08:45:52.000Z</time>
      </trkpt>
      <trkpt lat="47.58381" lon="6.74275">
        <ele>390.7</ele>
        <time>2017-10-15T08:45:53.000Z</time>
      </trkpt>
      <trkpt lat="47.58377" lon="6.74265">
        <ele>391</ele>
        <time>2017-10-15T08:45:54.000Z</time>
      </trkpt>
      <trkpt lat="47.58373" lon="6.74255">
        <ele>391.2</ele>
        <time>2017-10-15T08:45:55.000Z</time>
      </trkpt>
      <trkpt lat="47.58368" lon="6.74245">
        <ele>392.4</ele>
        <time>2017-10-15T08:45:56.000Z</time>
      </trkpt>
      <trkpt lat="47.58363" lon="6.74235">
        <ele>392.3</ele>
        <time>2017-10-15T08:45:57.000Z</time>
      </trkpt>
      <trkpt lat="47.58359" lon="6.74227">
        <ele>392.3</ele>
        <time>2017-10-15T08:45:58.000Z</time>
      </trkpt>
      <trkpt lat="47.58356" lon="6.74217">
        <ele>391.8</ele>
        <time>2017-10-15T08:45:59.000Z</time>
      </trkpt>
      <trkpt lat="47.58352" lon="6.74207">
        <ele>391.2</ele>
        <time>2017-10-15T08:46:00.000Z</time>
      </trkpt>
      <trkpt lat="47.58347" lon="6.74197">
        <ele>391.9</ele>
        <time>2017-10-15T08:46:01.000Z</time>
      </trkpt>
      <trkpt lat="47.58343" lon="6.74188">
        <ele>392.4</ele>
        <time>2017-10-15T08:46:02.000Z</time>
      </trkpt>
      <trkpt lat="47.58339" lon="6.74179">
        <ele>392.7</ele>
        <time>2017-10-15T08:46:03.000Z</time>
      </trkpt>
      <trkpt lat="47.58336" lon="6.7417">
        <ele>393.2</ele>
        <time>2017-10-15T08:46:04.000Z</time>
      </trkpt>
      <trkpt lat="47.58332" lon="6.74161">
        <ele>393.7</ele>
        <time>2017-10-15T08:46:05.000Z</time>
      </trkpt>
      <trkpt lat="47.58328" lon="6.74151">
        <ele>393.7</ele>
        <time>2017-10-15T08:46:06.000Z</time>
      </trkpt>
      <trkpt lat="47.58324" lon="6.74141">
        <ele>393</ele>
        <time>2017-10-15T08:46:07.000Z</time>
      </trkpt>
      <trkpt lat="47.5832" lon="6.74132">
        <ele>393.1</ele>
        <time>2017-10-15T08:46:08.000Z</time>
      </trkpt>
      <trkpt lat="47.58316" lon="6.74123">
        <ele>392.6</ele>
        <time>2017-10-15T08:46:09.000Z</time>
      </trkpt>
      <trkpt lat="47.58313" lon="6.74114">
        <ele>391.9</ele>
        <time>2017-10-15T08:46:10.000Z</time>
      </trkpt>
      <trkpt lat="47.58309" lon="6.74105">
        <ele>391.6</ele>
        <time>2017-10-15T08:46:11.000Z</time>
      </trkpt>
      <trkpt lat="47.58306" lon="6.74097">
        <ele>391.9</ele>
        <time>2017-10-15T08:46:12.000Z</time>
      </trkpt>
      <trkpt lat="47.58303" lon="6.74088">
        <ele>392.1</ele>
        <time>2017-10-15T08:46:13.000Z</time>
      </trkpt>
      <trkpt lat="47.58299" lon="6.7408">
        <ele>392.1</ele>
        <time>2017-10-15T08:46:14.000Z</time>
      </trkpt>
      <trkpt lat="47.58296" lon="6.74071">
        <ele>391.5</ele>
        <time>2017-10-15T08:46:15.000Z</time>
      </trkpt>
      <trkpt lat="47.58293" lon="6.74063">
        <ele>391.3</ele>
        <time>2017-10-15T08:46:16.000Z</time>
      </trkpt>
      <trkpt lat="47.5829" lon="6.74054">
        <ele>390.8</ele>
        <time>2017-10-15T08:46:17.000Z</time>
      </trkpt>
      <trkpt lat="47.58288" lon="6.74046">
        <ele>390.2</ele>
        <time>2017-10-15T08:46:18.000Z</time>
      </trkpt>
      <trkpt lat="47.58286" lon="6.74038">
        <ele>390.1</ele>
        <time>2017-10-15T08:46:19.000Z</time>
      </trkpt>
      <trkpt lat="47.58284" lon="6.7403">
        <ele>389.8</ele>
        <time>2017-10-15T08:46:20.000Z</time>
      </trkpt>
      <trkpt lat="47.58282" lon="6.74022">
        <ele>389.5</ele>
        <time>2017-10-15T08:46:21.000Z</time>
      </trkpt>
      <trkpt lat="47.58279" lon="6.74013">
        <ele>389</ele>
        <time>2017-10-15T08:46:22.000Z</time>
      </trkpt>
      <trkpt lat="47.58277" lon="6.74004">
        <ele>388.8</ele>
        <time>2017-10-15T08:46:23.000Z</time>
      </trkpt>
      <trkpt lat="47.58275" lon="6.73994">
        <ele>388.1</ele>
        <time>2017-10-15T08:46:24.000Z</time>
      </trkpt>
      <trkpt lat="47.58273" lon="6.73985">
        <ele>387.8</ele>
        <time>2017-10-15T08:46:25.000Z</time>
      </trkpt>
      <trkpt lat="47.58271" lon="6.73976">
        <ele>387.4</ele>
        <time>2017-10-15T08:46:26.000Z</time>
      </trkpt>
      <trkpt lat="47.5827" lon="6.73968">
        <ele>387</ele>
        <time>2017-10-15T08:46:27.000Z</time>
      </trkpt>
      <trkpt lat="47.5827" lon="6.73959">
        <ele>386.8</ele>
        <time>2017-10-15T08:46:28.000Z</time>
      </trkpt>
      <trkpt lat="47.5827" lon="6.73951">
        <ele>387.2</ele>
        <time>2017-10-15T08:46:29.000Z</time>
      </trkpt>
      <trkpt lat="47.58269" lon="6.73943">
        <ele>386.9</ele>
        <time>2017-10-15T08:46:30.000Z</time>
      </trkpt>
      <trkpt lat="47.58269" lon="6.73935">
        <ele>386.6</ele>
        <time>2017-10-15T08:46:31.000Z</time>
      </trkpt>
      <trkpt lat="47.58268" lon="6.73927">
        <ele>386.3</ele>
        <time>2017-10-15T08:46:32.000Z</time>
      </trkpt>
      <trkpt lat="47.58268" lon="6.7392">
        <ele>386.3</ele>
        <time>2017-10-15T08:46:33.000Z</time>
      </trkpt>
      <trkpt lat="47.58267" lon="6.73912">
        <ele>385.9</ele>
        <time>2017-10-15T08:46:34.000Z</time>
      </trkpt>
      <trkpt lat="47.58267" lon="6.73905">
        <ele>385.7</ele>
        <time>2017-10-15T08:46:35.000Z</time>
      </trkpt>
      <trkpt lat="47.58267" lon="6.73898">
        <ele>385.4</ele>
        <time>2017-10-15T08:46:36.000Z</time>
      </trkpt>
      <trkpt lat="47.58267" lon="6.73892">
        <ele>385</ele>
        <time>2017-10-15T08:46:37.000Z</time>
      </trkpt>
      <trkpt lat="47.58267" lon="6.73884">
        <ele>384.6</ele>
        <time>2017-10-15T08:46:38.000Z</time>
      </trkpt>
      <trkpt lat="47.58266" lon="6.73876">
        <ele>384.7</ele>
        <time>2017-10-15T08:46:39.000Z</time>
      </trkpt>
      <trkpt lat="47.58267" lon="6.73869">
        <ele>385.4</ele>
        <time>2017-10-15T08:46:40.000Z</time>
      </trkpt>
      <trkpt lat="47.58267" lon="6.73863">
        <ele>385.9</ele>
        <time>2017-10-15T08:46:41.000Z</time>
      </trkpt>
      <trkpt lat="47.58267" lon="6.73856">
        <ele>386.2</ele>
        <time>2017-10-15T08:46:42.000Z</time>
      </trkpt>
      <trkpt lat="47.58267" lon="6.73849">
        <ele>386</ele>
        <time>2017-10-15T08:46:43.000Z</time>
      </trkpt>
      <trkpt lat="47.58267" lon="6.73842">
        <ele>385.4</ele>
        <time>2017-10-15T08:46:44.000Z</time>
      </trkpt>
      <trkpt lat="47.58267" lon="6.73835">
        <ele>385.9</ele>
        <time>2017-10-15T08:46:45.000Z</time>
      </trkpt>
      <trkpt lat="47.58267" lon="6.73828">
        <ele>386.2</ele>
        <time>2017-10-15T08:46:46.000Z</time>
      </trkpt>
      <trkpt lat="47.58268" lon="6.73823">
        <ele>385.8</ele>
        <time>2017-10-15T08:46:47.000Z</time>
      </trkpt>
      <trkpt lat="47.5827" lon="6.73817">
        <ele>385.5</ele>
        <time>2017-10-15T08:46:48.000Z</time>
      </trkpt>
      <trkpt lat="47.58272" lon="6.73813">
        <ele>385.5</ele>
        <time>2017-10-15T08:46:49.000Z</time>
      </trkpt>
      <trkpt lat="47.58275" lon="6.73807">
        <ele>385.7</ele>
        <time>2017-10-15T08:46:50.000Z</time>
      </trkpt>
      <trkpt lat="47.58278" lon="6.73801">
        <ele>385.8</ele>
        <time>2017-10-15T08:46:51.000Z</time>
      </trkpt>
      <trkpt lat="47.5828" lon="6.73796">
        <ele>386.2</ele>
        <time>2017-10-15T08:46:52.000Z</time>
      </trkpt>
      <trkpt lat="47.58282" lon="6.73791">
        <ele>386.3</ele>
        <time>2017-10-15T08:46:53.000Z</time>
      </trkpt>
      <trkpt lat="47.58284" lon="6.73785">
        <ele>386.4</ele>
        <time>2017-10-15T08:46:54.000Z</time>
      </trkpt>
      <trkpt lat="47.58284" lon="6.73777">
        <ele>386.5</ele>
        <time>2017-10-15T08:46:55.000Z</time>
      </trkpt>
      <trkpt lat="47.58285" lon="6.73769">
        <ele>386.7</ele>
        <time>2017-10-15T08:46:56.000Z</time>
      </trkpt>
      <trkpt lat="47.58285" lon="6.73763">
        <ele>387.2</ele>
        <time>2017-10-15T08:46:57.000Z</time>
      </trkpt>
      <trkpt lat="47.58283" lon="6.73755">
        <ele>387.4</ele>
        <time>2017-10-15T08:46:58.000Z</time>
      </trkpt>
      <trkpt lat="47.58282" lon="6.73746">
        <ele>388.1</ele>
        <time>2017-10-15T08:46:59.000Z</time>
      </trkpt>
      <trkpt lat="47.58278" lon="6.7374">
        <ele>389.2</ele>
        <time>2017-10-15T08:47:00.000Z</time>
      </trkpt>
      <trkpt lat="47.58275" lon="6.73734">
        <ele>389.9</ele>
        <time>2017-10-15T08:47:01.000Z</time>
      </trkpt>
      <trkpt lat="47.58272" lon="6.73729">
        <ele>390.2</ele>
        <time>2017-10-15T08:47:02.000Z</time>
      </trkpt>
      <trkpt lat="47.58267" lon="6.73726">
        <ele>390.7</ele>
        <time>2017-10-15T08:47:03.000Z</time>
      </trkpt>
      <trkpt lat="47.58263" lon="6.73723">
        <ele>391.4</ele>
        <time>2017-10-15T08:47:04.000Z</time>
      </trkpt>
      <trkpt lat="47.58258" lon="6.73721">
        <ele>391.3</ele>
        <time>2017-10-15T08:47:05.000Z</time>
      </trkpt>
      <trkpt lat="47.58252" lon="6.73719">
        <ele>390.9</ele>
        <time>2017-10-15T08:47:06.000Z</time>
      </trkpt>
      <trkpt lat="47.58245" lon="6.73718">
        <ele>391</ele>
        <time>2017-10-15T08:47:07.000Z</time>
      </trkpt>
      <trkpt lat="47.5824" lon="6.7372">
        <ele>390.3</ele>
        <time>2017-10-15T08:47:08.000Z</time>
      </trkpt>
      <trkpt lat="47.58235" lon="6.73721">
        <ele>389.8</ele>
        <time>2017-10-15T08:47:09.000Z</time>
      </trkpt>
      <trkpt lat="47.5823" lon="6.73722">
        <ele>389.4</ele>
        <time>2017-10-15T08:47:10.000Z</time>
      </trkpt>
      <trkpt lat="47.58225" lon="6.73721">
        <ele>389.1</ele>
        <time>2017-10-15T08:47:11.000Z</time>
      </trkpt>
      <trkpt lat="47.5822" lon="6.73719">
        <ele>389.1</ele>
        <time>2017-10-15T08:47:12.000Z</time>
      </trkpt>
      <trkpt lat="47.58215" lon="6.73716">
        <ele>389.1</ele>
        <time>2017-10-15T08:47:13.000Z</time>
      </trkpt>
      <trkpt lat="47.58209" lon="6.73711">
        <ele>388.7</ele>
        <time>2017-10-15T08:47:14.000Z</time>
      </trkpt>
      <trkpt lat="47.58205" lon="6.73707">
        <ele>388.3</ele>
        <time>2017-10-15T08:47:15.000Z</time>
      </trkpt>
      <trkpt lat="47.582" lon="6.73702">
        <ele>387.9</ele>
        <time>2017-10-15T08:47:16.000Z</time>
      </trkpt>
      <trkpt lat="47.58196" lon="6.73697">
        <ele>388</ele>
        <time>2017-10-15T08:47:17.000Z</time>
      </trkpt>
      <trkpt lat="47.58191" lon="6.73691">
        <ele>387.6</ele>
        <time>2017-10-15T08:47:18.000Z</time>
      </trkpt>
      <trkpt lat="47.58187" lon="6.73686">
        <ele>387.7</ele>
        <time>2017-10-15T08:47:19.000Z</time>
      </trkpt>
      <trkpt lat="47.58183" lon="6.73682">
        <ele>388.2</ele>
        <time>2017-10-15T08:47:20.000Z</time>
      </trkpt>
      <trkpt lat="47.58179" lon="6.73677">
        <ele>388.8</ele>
        <time>2017-10-15T08:47:21.000Z</time>
      </trkpt>
      <trkpt lat="47.58174" lon="6.73672">
        <ele>389</ele>
        <time>2017-10-15T08:47:22.000Z</time>
      </trkpt>
      <trkpt lat="47.5817" lon="6.73667">
        <ele>389.2</ele>
        <time>2017-10-15T08:47:23.000Z</time>
      </trkpt>
      <trkpt lat="47.58167" lon="6.73663">
        <ele>388.9</ele>
        <time>2017-10-15T08:47:24.000Z</time>
      </trkpt>
      <trkpt lat="47.58163" lon="6.73658">
        <ele>388</ele>
        <time>2017-10-15T08:47:25.000Z</time>
      </trkpt>
      <trkpt lat="47.58158" lon="6.73654">
        <ele>387.7</ele>
        <time>2017-10-15T08:47:26.000Z</time>
      </trkpt>
      <trkpt lat="47.58154" lon="6.73649">
        <ele>387.9</ele>
        <time>2017-10-15T08:47:27.000Z</time>
      </trkpt>
      <trkpt lat="47.58149" lon="6.73645">
        <ele>388.2</ele>
        <time>2017-10-15T08:47:28.000Z</time>
      </trkpt>
      <trkpt lat="47.58145" lon="6.73642">
        <ele>388.9</ele>
        <time>2017-10-15T08:47:29.000Z</time>
      </trkpt>
      <trkpt lat="47.58142" lon="6.73638">
        <ele>389.4</ele>
        <time>2017-10-15T08:47:30.000Z</time>
      </trkpt>
      <trkpt lat="47.58138" lon="6.73634">
        <ele>389.9</ele>
        <time>2017-10-15T08:47:31.000Z</time>
      </trkpt>
      <trkpt lat="47.58133" lon="6.7363">
        <ele>390</ele>
        <time>2017-10-15T08:47:32.000Z</time>
      </trkpt>
      <trkpt lat="47.58129" lon="6.73627">
        <ele>390</ele>
        <time>2017-10-15T08:47:33.000Z</time>
      </trkpt>
      <trkpt lat="47.58125" lon="6.73624">
        <ele>390</ele>
        <time>2017-10-15T08:47:34.000Z</time>
      </trkpt>
      <trkpt lat="47.58121" lon="6.73621">
        <ele>390.6</ele>
        <time>2017-10-15T08:47:35.000Z</time>
      </trkpt>
      <trkpt lat="47.58117" lon="6.73618">
        <ele>391.1</ele>
        <time>2017-10-15T08:47:36.000Z</time>
      </trkpt>
      <trkpt lat="47.58113" lon="6.73614">
        <ele>391.8</ele>
        <time>2017-10-15T08:47:37.000Z</time>
      </trkpt>
      <trkpt lat="47.58109" lon="6.73611">
        <ele>392.4</ele>
        <time>2017-10-15T08:47:38.000Z</time>
      </trkpt>
      <trkpt lat="47.58105" lon="6.73608">
        <ele>392.1</ele>
        <time>2017-10-15T08:47:39.000Z</time>
      </trkpt>
      <trkpt lat="47.581" lon="6.73606">
        <ele>391.4</ele>
        <time>2017-10-15T08:47:40.000Z</time>
      </trkpt>
      <trkpt lat="47.58096" lon="6.73604">
        <ele>391.3</ele>
        <time>2017-10-15T08:47:41.000Z</time>
      </trkpt>
      <trkpt lat="47.58091" lon="6.73602">
        <ele>390.9</ele>
        <time>2017-10-15T08:47:42.000Z</time>
      </trkpt>
      <trkpt lat="47.58087" lon="6.736">
        <ele>391.2</ele>
        <time>2017-10-15T08:47:43.000Z</time>
      </trkpt>
      <trkpt lat="47.58083" lon="6.73598">
        <ele>392.1</ele>
        <time>2017-10-15T08:47:44.000Z</time>
      </trkpt>
      <trkpt lat="47.58079" lon="6.73596">
        <ele>392.8</ele>
        <time>2017-10-15T08:47:45.000Z</time>
      </trkpt>
      <trkpt lat="47.58074" lon="6.73594">
        <ele>393.2</ele>
        <time>2017-10-15T08:47:46.000Z</time>
      </trkpt>
      <trkpt lat="47.5807" lon="6.73592">
        <ele>393.7</ele>
        <time>2017-10-15T08:47:47.000Z</time>
      </trkpt>
      <trkpt lat="47.58066" lon="6.7359">
        <ele>393.9</ele>
        <time>2017-10-15T08:47:48.000Z</time>
      </trkpt>
      <trkpt lat="47.58062" lon="6.73589">
        <ele>393.9</ele>
        <time>2017-10-15T08:47:49.000Z</time>
      </trkpt>
      <trkpt lat="47.58057" lon="6.73587">
        <ele>394</ele>
        <time>2017-10-15T08:47:50.000Z</time>
      </trkpt>
      <trkpt lat="47.58053" lon="6.73587">
        <ele>394.2</ele>
        <time>2017-10-15T08:47:51.000Z</time>
      </trkpt>
      <trkpt lat="47.58048" lon="6.73586">
        <ele>394</ele>
        <time>2017-10-15T08:47:52.000Z</time>
      </trkpt>
      <trkpt lat="47.58043" lon="6.73586">
        <ele>393.4</ele>
        <time>2017-10-15T08:47:53.000Z</time>
      </trkpt>
      <trkpt lat="47.58038" lon="6.73585">
        <ele>393.2</ele>
        <time>2017-10-15T08:47:54.000Z</time>
      </trkpt>
      <trkpt lat="47.58033" lon="6.73585">
        <ele>393.3</ele>
        <time>2017-10-15T08:47:55.000Z</time>
      </trkpt>
      <trkpt lat="47.58029" lon="6.73585">
        <ele>393.2</ele>
        <time>2017-10-15T08:47:56.000Z</time>
      </trkpt>
      <trkpt lat="47.58024" lon="6.73585">
        <ele>393.1</ele>
        <time>2017-10-15T08:47:57.000Z</time>
      </trkpt>
      <trkpt lat="47.5802" lon="6.73585">
        <ele>392.6</ele>
        <time>2017-10-15T08:47:58.000Z</time>
      </trkpt>
      <trkpt lat="47.58017" lon="6.73585">
        <ele>392.5</ele>
        <time>2017-10-15T08:47:59.000Z</time>
      </trkpt>
      <trkpt lat="47.58013" lon="6.73586">
        <ele>391.9</ele>
        <time>2017-10-15T08:48:00.000Z</time>
      </trkpt>
      <trkpt lat="47.58009" lon="6.73587">
        <ele>391.4</ele>
        <time>2017-10-15T08:48:01.000Z</time>
      </trkpt>
      <trkpt lat="47.58004" lon="6.73587">
        <ele>390.5</ele>
        <time>2017-10-15T08:48:02.000Z</time>
      </trkpt>
      <trkpt lat="47.57999" lon="6.73588">
        <ele>390.3</ele>
        <time>2017-10-15T08:48:03.000Z</time>
      </trkpt>
      <trkpt lat="47.57994" lon="6.73589">
        <ele>390.3</ele>
        <time>2017-10-15T08:48:04.000Z</time>
      </trkpt>
      <trkpt lat="47.57989" lon="6.7359">
        <ele>390.3</ele>
        <time>2017-10-15T08:48:05.000Z</time>
      </trkpt>
      <trkpt lat="47.57985" lon="6.73591">
        <ele>390.6</ele>
        <time>2017-10-15T08:48:06.000Z</time>
      </trkpt>
      <trkpt lat="47.5798" lon="6.73592">
        <ele>391.3</ele>
        <time>2017-10-15T08:48:07.000Z</time>
      </trkpt>
      <trkpt lat="47.57975" lon="6.73593">
        <ele>391.2</ele>
        <time>2017-10-15T08:48:08.000Z</time>
      </trkpt>
      <trkpt lat="47.5797" lon="6.73595">
        <ele>391.3</ele>
        <time>2017-10-15T08:48:09.000Z</time>
      </trkpt>
      <trkpt lat="47.57965" lon="6.73596">
        <ele>391.4</ele>
        <time>2017-10-15T08:48:10.000Z</time>
      </trkpt>
      <trkpt lat="47.5796" lon="6.73597">
        <ele>391.8</ele>
        <time>2017-10-15T08:48:11.000Z</time>
      </trkpt>
      <trkpt lat="47.57954" lon="6.73599">
        <ele>392.6</ele>
        <time>2017-10-15T08:48:12.000Z</time>
      </trkpt>
      <trkpt lat="47.57949" lon="6.73601">
        <ele>392.9</ele>
        <time>2017-10-15T08:48:13.000Z</time>
      </trkpt>
      <trkpt lat="47.57945" lon="6.73602">
        <ele>392.8</ele>
        <time>2017-10-15T08:48:14.000Z</time>
      </trkpt>
      <trkpt lat="47.5794" lon="6.73605">
        <ele>392.7</ele>
        <time>2017-10-15T08:48:15.000Z</time>
      </trkpt>
      <trkpt lat="47.57935" lon="6.73607">
        <ele>393.3</ele>
        <time>2017-10-15T08:48:16.000Z</time>
      </trkpt>
      <trkpt lat="47.5793" lon="6.73609">
        <ele>393.7</ele>
        <time>2017-10-15T08:48:17.000Z</time>
      </trkpt>
      <trkpt lat="47.57926" lon="6.73611">
        <ele>393.9</ele>
        <time>2017-10-15T08:48:18.000Z</time>
      </trkpt>
      <trkpt lat="47.5792" lon="6.73614">
        <ele>394.2</ele>
        <time>2017-10-15T08:48:19.000Z</time>
      </trkpt>
      <trkpt lat="47.57915" lon="6.73616">
        <ele>393.8</ele>
        <time>2017-10-15T08:48:20.000Z</time>
      </trkpt>
      <trkpt lat="47.5791" lon="6.73619">
        <ele>393.3</ele>
        <time>2017-10-15T08:48:21.000Z</time>
      </trkpt>
      <trkpt lat="47.57905" lon="6.73622">
        <ele>392.6</ele>
        <time>2017-10-15T08:48:22.000Z</time>
      </trkpt>
      <trkpt lat="47.579" lon="6.73624">
        <ele>391.9</ele>
        <time>2017-10-15T08:48:23.000Z</time>
      </trkpt>
      <trkpt lat="47.57895" lon="6.73626">
        <ele>391.4</ele>
        <time>2017-10-15T08:48:24.000Z</time>
      </trkpt>
      <trkpt lat="47.5789" lon="6.73628">
        <ele>391.5</ele>
        <time>2017-10-15T08:48:25.000Z</time>
      </trkpt>
      <trkpt lat="47.57886" lon="6.73629">
        <ele>391.6</ele>
        <time>2017-10-15T08:48:26.000Z</time>
      </trkpt>
      <trkpt lat="47.57882" lon="6.73631">
        <ele>391.4</ele>
        <time>2017-10-15T08:48:27.000Z</time>
      </trkpt>
      <trkpt lat="47.57877" lon="6.73633">
        <ele>391.1</ele>
        <time>2017-10-15T08:48:28.000Z</time>
      </trkpt>
      <trkpt lat="47.57873" lon="6.73634">
        <ele>391.1</ele>
        <time>2017-10-15T08:48:29.000Z</time>
      </trkpt>
      <trkpt lat="47.57871" lon="6.73635">
        <ele>391</ele>
        <time>2017-10-15T08:48:30.000Z</time>
      </trkpt>
      <trkpt lat="47.5787" lon="6.73635">
        <ele>391</ele>
        <time>2017-10-15T08:48:44.000Z</time>
      </trkpt>
      <trkpt lat="47.5786" lon="6.73632">
        <ele>391</ele>
        <time>2017-10-15T08:48:45.000Z</time>
      </trkpt>
      <trkpt lat="47.57856" lon="6.73633">
        <ele>391</ele>
        <time>2017-10-15T08:48:46.000Z</time>
      </trkpt>
      <trkpt lat="47.57853" lon="6.73634">
        <ele>391</ele>
        <time>2017-10-15T08:48:47.000Z</time>
      </trkpt>
      <trkpt lat="47.57849" lon="6.73634">
        <ele>391.2</ele>
        <time>2017-10-15T08:48:48.000Z</time>
      </trkpt>
      <trkpt lat="47.57845" lon="6.73635">
        <ele>391.3</ele>
        <time>2017-10-15T08:48:49.000Z</time>
      </trkpt>
      <trkpt lat="47.57841" lon="6.73636">
        <ele>391.3</ele>
        <time>2017-10-15T08:48:50.000Z</time>
      </trkpt>
      <trkpt lat="47.57837" lon="6.73637">
        <ele>392.1</ele>
        <time>2017-10-15T08:48:51.000Z</time>
      </trkpt>
      <trkpt lat="47.57833" lon="6.73638">
        <ele>392.2</ele>
        <time>2017-10-15T08:48:52.000Z</time>
      </trkpt>
      <trkpt lat="47.57829" lon="6.73639">
        <ele>393.1</ele>
        <time>2017-10-15T08:48:53.000Z</time>
      </trkpt>
      <trkpt lat="47.57825" lon="6.7364">
        <ele>393.6</ele>
        <time>2017-10-15T08:48:54.000Z</time>
      </trkpt>
      <trkpt lat="47.57822" lon="6.73642">
        <ele>393.8</ele>
        <time>2017-10-15T08:48:55.000Z</time>
      </trkpt>
      <trkpt lat="47.57818" lon="6.73643">
        <ele>393.9</ele>
        <time>2017-10-15T08:48:56.000Z</time>
      </trkpt>
      <trkpt lat="47.57814" lon="6.73643">
        <ele>394.7</ele>
        <time>2017-10-15T08:48:57.000Z</time>
      </trkpt>
      <trkpt lat="47.57809" lon="6.73645">
        <ele>395.2</ele>
        <time>2017-10-15T08:48:58.000Z</time>
      </trkpt>
      <trkpt lat="47.57805" lon="6.73648">
        <ele>396</ele>
        <time>2017-10-15T08:48:59.000Z</time>
      </trkpt>
      <trkpt lat="47.57801" lon="6.73649">
        <ele>396.7</ele>
        <time>2017-10-15T08:49:00.000Z</time>
      </trkpt>
      <trkpt lat="47.57797" lon="6.73651">
        <ele>396.5</ele>
        <time>2017-10-15T08:49:01.000Z</time>
      </trkpt>
      <trkpt lat="47.57794" lon="6.73653">
        <ele>396.6</ele>
        <time>2017-10-15T08:49:02.000Z</time>
      </trkpt>
      <trkpt lat="47.5779" lon="6.73655">
        <ele>396.7</ele>
        <time>2017-10-15T08:49:03.000Z</time>
      </trkpt>
      <trkpt lat="47.57787" lon="6.73657">
        <ele>396.5</ele>
        <time>2017-10-15T08:49:04.000Z</time>
      </trkpt>
      <trkpt lat="47.57784" lon="6.73659">
        <ele>396.6</ele>
        <time>2017-10-15T08:49:05.000Z</time>
      </trkpt>
      <trkpt lat="47.5778" lon="6.73661">
        <ele>396.5</ele>
        <time>2017-10-15T08:49:06.000Z</time>
      </trkpt>
      <trkpt lat="47.57777" lon="6.73663">
        <ele>396.4</ele>
        <time>2017-10-15T08:49:07.000Z</time>
      </trkpt>
      <trkpt lat="47.57774" lon="6.73664">
        <ele>396.4</ele>
        <time>2017-10-15T08:49:08.000Z</time>
      </trkpt>
      <trkpt lat="47.57772" lon="6.73665">
        <ele>396.4</ele>
        <time>2017-10-15T08:49:09.000Z</time>
      </trkpt>
      <trkpt lat="47.57768" lon="6.73666">
        <ele>396.4</ele>
        <time>2017-10-15T08:49:10.000Z</time>
      </trkpt>
      <trkpt lat="47.57764" lon="6.73667">
        <ele>396.4</ele>
        <time>2017-10-15T08:49:11.000Z</time>
      </trkpt>
      <trkpt lat="47.5776" lon="6.73669">
        <ele>396.3</ele>
        <time>2017-10-15T08:49:12.000Z</time>
      </trkpt>
      <trkpt lat="47.57755" lon="6.73671">
        <ele>395.2</ele>
        <time>2017-10-15T08:49:13.000Z</time>
      </trkpt>
      <trkpt lat="47.57752" lon="6.73673">
        <ele>394.4</ele>
        <time>2017-10-15T08:49:14.000Z</time>
      </trkpt>
      <trkpt lat="47.57749" lon="6.73674">
        <ele>394.4</ele>
        <time>2017-10-15T08:49:15.000Z</time>
      </trkpt>
      <trkpt lat="47.57745" lon="6.73675">
        <ele>394.6</ele>
        <time>2017-10-15T08:49:16.000Z</time>
      </trkpt>
      <trkpt lat="47.57742" lon="6.73677">
        <ele>394.6</ele>
        <time>2017-10-15T08:49:17.000Z</time>
      </trkpt>
      <trkpt lat="47.57737" lon="6.7368">
        <ele>394.7</ele>
        <time>2017-10-15T08:49:18.000Z</time>
      </trkpt>
      <trkpt lat="47.57734" lon="6.73682">
        <ele>394.7</ele>
        <time>2017-10-15T08:49:19.000Z</time>
      </trkpt>
      <trkpt lat="47.5773" lon="6.73684">
        <ele>395.5</ele>
        <time>2017-10-15T08:49:20.000Z</time>
      </trkpt>
      <trkpt lat="47.57726" lon="6.73686">
        <ele>396</ele>
        <time>2017-10-15T08:49:21.000Z</time>
      </trkpt>
      <trkpt lat="47.57722" lon="6.73688">
        <ele>396.4</ele>
        <time>2017-10-15T08:49:22.000Z</time>
      </trkpt>
      <trkpt lat="47.57718" lon="6.73689">
        <ele>396.1</ele>
        <time>2017-10-15T08:49:23.000Z</time>
      </trkpt>
      <trkpt lat="47.57714" lon="6.7369">
        <ele>395.8</ele>
        <time>2017-10-15T08:49:24.000Z</time>
      </trkpt>
      <trkpt lat="47.57709" lon="6.73691">
        <ele>394.7</ele>
        <time>2017-10-15T08:49:25.000Z</time>
      </trkpt>
      <trkpt lat="47.57706" lon="6.73692">
        <ele>394</ele>
        <time>2017-10-15T08:49:26.000Z</time>
      </trkpt>
      <trkpt lat="47.57701" lon="6.73693">
        <ele>393.3</ele>
        <time>2017-10-15T08:49:27.000Z</time>
      </trkpt>
      <trkpt lat="47.57696" lon="6.73693">
        <ele>392.6</ele>
        <time>2017-10-15T08:49:28.000Z</time>
      </trkpt>
      <trkpt lat="47.57692" lon="6.73694">
        <ele>392.4</ele>
        <time>2017-10-15T08:49:29.000Z</time>
      </trkpt>
      <trkpt lat="47.57687" lon="6.73694">
        <ele>391.9</ele>
        <time>2017-10-15T08:49:30.000Z</time>
      </trkpt>
      <trkpt lat="47.57684" lon="6.73694">
        <ele>391.7</ele>
        <time>2017-10-15T08:49:31.000Z</time>
      </trkpt>
      <trkpt lat="47.5768" lon="6.73694">
        <ele>391.9</ele>
        <time>2017-10-15T08:49:32.000Z</time>
      </trkpt>
      <trkpt lat="47.57675" lon="6.73693">
        <ele>392.5</ele>
        <time>2017-10-15T08:49:33.000Z</time>
      </trkpt>
      <trkpt lat="47.5767" lon="6.73691">
        <ele>392.7</ele>
        <time>2017-10-15T08:49:34.000Z</time>
      </trkpt>
      <trkpt lat="47.57666" lon="6.73688">
        <ele>393.3</ele>
        <time>2017-10-15T08:49:35.000Z</time>
      </trkpt>
      <trkpt lat="47.5766" lon="6.73686">
        <ele>393.8</ele>
        <time>2017-10-15T08:49:36.000Z</time>
      </trkpt>
      <trkpt lat="47.57654" lon="6.73684">
        <ele>394.1</ele>
        <time>2017-10-15T08:49:37.000Z</time>
      </trkpt>
      <trkpt lat="47.57649" lon="6.73682">
        <ele>394.2</ele>
        <time>2017-10-15T08:49:38.000Z</time>
      </trkpt>
      <trkpt lat="47.57643" lon="6.7368">
        <ele>394.3</ele>
        <time>2017-10-15T08:49:39.000Z</time>
      </trkpt>
      <trkpt lat="47.57638" lon="6.73678">
        <ele>393.9</ele>
        <time>2017-10-15T08:49:40.000Z</time>
      </trkpt>
      <trkpt lat="47.57633" lon="6.73676">
        <ele>393.5</ele>
        <time>2017-10-15T08:49:41.000Z</time>
      </trkpt>
      <trkpt lat="47.57627" lon="6.73673">
        <ele>393.4</ele>
        <time>2017-10-15T08:49:42.000Z</time>
      </trkpt>
      <trkpt lat="47.57622" lon="6.7367">
        <ele>393.6</ele>
        <time>2017-10-15T08:49:43.000Z</time>
      </trkpt>
      <trkpt lat="47.57616" lon="6.73668">
        <ele>393.8</ele>
        <time>2017-10-15T08:49:44.000Z</time>
      </trkpt>
      <trkpt lat="47.57611" lon="6.73665">
        <ele>393.8</ele>
        <time>2017-10-15T08:49:45.000Z</time>
      </trkpt>
      <trkpt lat="47.57605" lon="6.73662">
        <ele>393.6</ele>
        <time>2017-10-15T08:49:46.000Z</time>
      </trkpt>
      <trkpt lat="47.576" lon="6.73659">
        <ele>393.1</ele>
        <time>2017-10-15T08:49:47.000Z</time>
      </trkpt>
      <trkpt lat="47.57595" lon="6.73655">
        <ele>392.7</ele>
        <time>2017-10-15T08:49:48.000Z</time>
      </trkpt>
      <trkpt lat="47.57589" lon="6.73651">
        <ele>392</ele>
        <time>2017-10-15T08:49:49.000Z</time>
      </trkpt>
      <trkpt lat="47.57583" lon="6.73646">
        <ele>391.2</ele>
        <time>2017-10-15T08:49:50.000Z</time>
      </trkpt>
      <trkpt lat="47.57578" lon="6.7364">
        <ele>390.8</ele>
        <time>2017-10-15T08:49:51.000Z</time>
      </trkpt>
      <trkpt lat="47.57573" lon="6.73635">
        <ele>390.8</ele>
        <time>2017-10-15T08:49:52.000Z</time>
      </trkpt>
      <trkpt lat="47.57568" lon="6.73629">
        <ele>390.8</ele>
        <time>2017-10-15T08:49:53.000Z</time>
      </trkpt>
      <trkpt lat="47.57564" lon="6.73623">
        <ele>391.2</ele>
        <time>2017-10-15T08:49:54.000Z</time>
      </trkpt>
      <trkpt lat="47.57561" lon="6.73616">
        <ele>391.1</ele>
        <time>2017-10-15T08:49:55.000Z</time>
      </trkpt>
      <trkpt lat="47.57558" lon="6.73612">
        <ele>391.5</ele>
        <time>2017-10-15T08:49:56.000Z</time>
      </trkpt>
      <trkpt lat="47.57555" lon="6.73606">
        <ele>391.8</ele>
        <time>2017-10-15T08:49:57.000Z</time>
      </trkpt>
      <trkpt lat="47.57552" lon="6.73601">
        <ele>392.1</ele>
        <time>2017-10-15T08:49:58.000Z</time>
      </trkpt>
      <trkpt lat="47.57549" lon="6.73595">
        <ele>391.8</ele>
        <time>2017-10-15T08:49:59.000Z</time>
      </trkpt>
      <trkpt lat="47.57545" lon="6.73588">
        <ele>390.8</ele>
        <time>2017-10-15T08:50:00.000Z</time>
      </trkpt>
      <trkpt lat="47.57541" lon="6.73582">
        <ele>389.6</ele>
        <time>2017-10-15T08:50:01.000Z</time>
      </trkpt>
      <trkpt lat="47.57538" lon="6.73577">
        <ele>388.6</ele>
        <time>2017-10-15T08:50:02.000Z</time>
      </trkpt>
      <trkpt lat="47.57535" lon="6.7357">
        <ele>387.3</ele>
        <time>2017-10-15T08:50:03.000Z</time>
      </trkpt>
      <trkpt lat="47.57532" lon="6.73564">
        <ele>386.7</ele>
        <time>2017-10-15T08:50:04.000Z</time>
      </trkpt>
      <trkpt lat="47.57529" lon="6.73557">
        <ele>386.2</ele>
        <time>2017-10-15T08:50:05.000Z</time>
      </trkpt>
      <trkpt lat="47.57526" lon="6.73551">
        <ele>385.2</ele>
        <time>2017-10-15T08:50:06.000Z</time>
      </trkpt>
      <trkpt lat="47.57523" lon="6.73544">
        <ele>383.9</ele>
        <time>2017-10-15T08:50:07.000Z</time>
      </trkpt>
      <trkpt lat="47.57519" lon="6.73537">
        <ele>383.8</ele>
        <time>2017-10-15T08:50:08.000Z</time>
      </trkpt>
      <trkpt lat="47.57516" lon="6.73531">
        <ele>384</ele>
        <time>2017-10-15T08:50:09.000Z</time>
      </trkpt>
      <trkpt lat="47.57512" lon="6.73525">
        <ele>384.3</ele>
        <time>2017-10-15T08:50:10.000Z</time>
      </trkpt>
      <trkpt lat="47.57509" lon="6.73519">
        <ele>384.9</ele>
        <time>2017-10-15T08:50:11.000Z</time>
      </trkpt>
      <trkpt lat="47.57505" lon="6.73513">
        <ele>384.8</ele>
        <time>2017-10-15T08:50:12.000Z</time>
      </trkpt>
      <trkpt lat="47.57502" lon="6.73507">
        <ele>385</ele>
        <time>2017-10-15T08:50:13.000Z</time>
      </trkpt>
      <trkpt lat="47.57498" lon="6.73501">
        <ele>385.3</ele>
        <time>2017-10-15T08:50:14.000Z</time>
      </trkpt>
      <trkpt lat="47.57494" lon="6.73494">
        <ele>385.6</ele>
        <time>2017-10-15T08:50:15.000Z</time>
      </trkpt>
      <trkpt lat="47.57489" lon="6.73489">
        <ele>386.1</ele>
        <time>2017-10-15T08:50:16.000Z</time>
      </trkpt>
      <trkpt lat="47.57483" lon="6.73483">
        <ele>386.5</ele>
        <time>2017-10-15T08:50:17.000Z</time>
      </trkpt>
      <trkpt lat="47.57478" lon="6.73477">
        <ele>386.6</ele>
        <time>2017-10-15T08:50:18.000Z</time>
      </trkpt>
      <trkpt lat="47.57472" lon="6.73473">
        <ele>385.8</ele>
        <time>2017-10-15T08:50:19.000Z</time>
      </trkpt>
      <trkpt lat="47.57467" lon="6.73468">
        <ele>385.1</ele>
        <time>2017-10-15T08:50:20.000Z</time>
      </trkpt>
      <trkpt lat="47.57461" lon="6.73465">
        <ele>385.4</ele>
        <time>2017-10-15T08:50:21.000Z</time>
      </trkpt>
      <trkpt lat="47.57456" lon="6.73462">
        <ele>386.2</ele>
        <time>2017-10-15T08:50:22.000Z</time>
      </trkpt>
      <trkpt lat="47.57452" lon="6.7346">
        <ele>386.9</ele>
        <time>2017-10-15T08:50:23.000Z</time>
      </trkpt>
      <trkpt lat="47.57446" lon="6.73458">
        <ele>388.2</ele>
        <time>2017-10-15T08:50:24.000Z</time>
      </trkpt>
      <trkpt lat="47.57441" lon="6.73455">
        <ele>388.5</ele>
        <time>2017-10-15T08:50:25.000Z</time>
      </trkpt>
      <trkpt lat="47.57436" lon="6.73453">
        <ele>388.7</ele>
        <time>2017-10-15T08:50:26.000Z</time>
      </trkpt>
      <trkpt lat="47.57431" lon="6.73451">
        <ele>389.1</ele>
        <time>2017-10-15T08:50:27.000Z</time>
      </trkpt>
      <trkpt lat="47.57425" lon="6.73449">
        <ele>389.4</ele>
        <time>2017-10-15T08:50:28.000Z</time>
      </trkpt>
      <trkpt lat="47.57421" lon="6.73448">
        <ele>389.4</ele>
        <time>2017-10-15T08:50:29.000Z</time>
      </trkpt>
      <trkpt lat="47.57415" lon="6.73447">
        <ele>388.9</ele>
        <time>2017-10-15T08:50:30.000Z</time>
      </trkpt>
      <trkpt lat="47.57409" lon="6.73445">
        <ele>388.2</ele>
        <time>2017-10-15T08:50:31.000Z</time>
      </trkpt>
      <trkpt lat="47.57404" lon="6.73443">
        <ele>388.3</ele>
        <time>2017-10-15T08:50:32.000Z</time>
      </trkpt>
      <trkpt lat="47.574" lon="6.73442">
        <ele>388.6</ele>
        <time>2017-10-15T08:50:33.000Z</time>
      </trkpt>
      <trkpt lat="47.57395" lon="6.7344">
        <ele>388.1</ele>
        <time>2017-10-15T08:50:34.000Z</time>
      </trkpt>
      <trkpt lat="47.5739" lon="6.73439">
        <ele>388</ele>
        <time>2017-10-15T08:50:35.000Z</time>
      </trkpt>
      <trkpt lat="47.57385" lon="6.73437">
        <ele>388.6</ele>
        <time>2017-10-15T08:50:36.000Z</time>
      </trkpt>
      <trkpt lat="47.57381" lon="6.73435">
        <ele>388.8</ele>
        <time>2017-10-15T08:50:37.000Z</time>
      </trkpt>
      <trkpt lat="47.57377" lon="6.73434">
        <ele>389.1</ele>
        <time>2017-10-15T08:50:38.000Z</time>
      </trkpt>
      <trkpt lat="47.57371" lon="6.73431">
        <ele>388.7</ele>
        <time>2017-10-15T08:50:39.000Z</time>
      </trkpt>
      <trkpt lat="47.57368" lon="6.73427">
        <ele>388.8</ele>
        <time>2017-10-15T08:50:40.000Z</time>
      </trkpt>
      <trkpt lat="47.57363" lon="6.73424">
        <ele>388.4</ele>
        <time>2017-10-15T08:50:41.000Z</time>
      </trkpt>
      <trkpt lat="47.57359" lon="6.7342">
        <ele>388.6</ele>
        <time>2017-10-15T08:50:42.000Z</time>
      </trkpt>
      <trkpt lat="47.57355" lon="6.73416">
        <ele>388.6</ele>
        <time>2017-10-15T08:50:43.000Z</time>
      </trkpt>
      <trkpt lat="47.57351" lon="6.73412">
        <ele>388.3</ele>
        <time>2017-10-15T08:50:44.000Z</time>
      </trkpt>
      <trkpt lat="47.57346" lon="6.73408">
        <ele>388.1</ele>
        <time>2017-10-15T08:50:45.000Z</time>
      </trkpt>
      <trkpt lat="47.57342" lon="6.73404">
        <ele>388</ele>
        <time>2017-10-15T08:50:46.000Z</time>
      </trkpt>
      <trkpt lat="47.57337" lon="6.73399">
        <ele>387.9</ele>
        <time>2017-10-15T08:50:47.000Z</time>
      </trkpt>
      <trkpt lat="47.57332" lon="6.73396">
        <ele>387.7</ele>
        <time>2017-10-15T08:50:48.000Z</time>
      </trkpt>
      <trkpt lat="47.57326" lon="6.73396">
        <ele>387.4</ele>
        <time>2017-10-15T08:50:49.000Z</time>
      </trkpt>
      <trkpt lat="47.5732" lon="6.73394">
        <ele>387.1</ele>
        <time>2017-10-15T08:50:50.000Z</time>
      </trkpt>
      <trkpt lat="47.57314" lon="6.73392">
        <ele>387</ele>
        <time>2017-10-15T08:50:51.000Z</time>
      </trkpt>
      <trkpt lat="47.57308" lon="6.73388">
        <ele>387.1</ele>
        <time>2017-10-15T08:50:52.000Z</time>
      </trkpt>
      <trkpt lat="47.57303" lon="6.73385">
        <ele>387</ele>
        <time>2017-10-15T08:50:53.000Z</time>
      </trkpt>
      <trkpt lat="47.57296" lon="6.73381">
        <ele>386.1</ele>
        <time>2017-10-15T08:50:54.000Z</time>
      </trkpt>
      <trkpt lat="47.5729" lon="6.73379">
        <ele>384.7</ele>
        <time>2017-10-15T08:50:55.000Z</time>
      </trkpt>
      <trkpt lat="47.57285" lon="6.73381">
        <ele>384</ele>
        <time>2017-10-15T08:50:56.000Z</time>
      </trkpt>
      <trkpt lat="47.5728" lon="6.73383">
        <ele>383.8</ele>
        <time>2017-10-15T08:50:57.000Z</time>
      </trkpt>
      <trkpt lat="47.57274" lon="6.73386">
        <ele>383.2</ele>
        <time>2017-10-15T08:50:58.000Z</time>
      </trkpt>
      <trkpt lat="47.57268" lon="6.73388">
        <ele>382</ele>
        <time>2017-10-15T08:50:59.000Z</time>
      </trkpt>
      <trkpt lat="47.57263" lon="6.73391">
        <ele>381.8</ele>
        <time>2017-10-15T08:51:00.000Z</time>
      </trkpt>
      <trkpt lat="47.57257" lon="6.73394">
        <ele>381.7</ele>
        <time>2017-10-15T08:51:01.000Z</time>
      </trkpt>
      <trkpt lat="47.57253" lon="6.73395">
        <ele>381.4</ele>
        <time>2017-10-15T08:51:02.000Z</time>
      </trkpt>
      <trkpt lat="47.57248" lon="6.73398">
        <ele>381.6</ele>
        <time>2017-10-15T08:51:03.000Z</time>
      </trkpt>
      <trkpt lat="47.57242" lon="6.73401">
        <ele>381.6</ele>
        <time>2017-10-15T08:51:04.000Z</time>
      </trkpt>
      <trkpt lat="47.57236" lon="6.73404">
        <ele>382.1</ele>
        <time>2017-10-15T08:51:05.000Z</time>
      </trkpt>
      <trkpt lat="47.5723" lon="6.73407">
        <ele>381.6</ele>
        <time>2017-10-15T08:51:06.000Z</time>
      </trkpt>
      <trkpt lat="47.57225" lon="6.7341">
        <ele>381.6</ele>
        <time>2017-10-15T08:51:07.000Z</time>
      </trkpt>
      <trkpt lat="47.57219" lon="6.73414">
        <ele>381.2</ele>
        <time>2017-10-15T08:51:08.000Z</time>
      </trkpt>
      <trkpt lat="47.57215" lon="6.73419">
        <ele>381.5</ele>
        <time>2017-10-15T08:51:09.000Z</time>
      </trkpt>
      <trkpt lat="47.57212" lon="6.73424">
        <ele>381.2</ele>
        <time>2017-10-15T08:51:10.000Z</time>
      </trkpt>
      <trkpt lat="47.57209" lon="6.7343">
        <ele>381.2</ele>
        <time>2017-10-15T08:51:11.000Z</time>
      </trkpt>
      <trkpt lat="47.57206" lon="6.73437">
        <ele>381.9</ele>
        <time>2017-10-15T08:51:12.000Z</time>
      </trkpt>
      <trkpt lat="47.57203" lon="6.73443">
        <ele>382.9</ele>
        <time>2017-10-15T08:51:13.000Z</time>
      </trkpt>
      <trkpt lat="47.57201" lon="6.73448">
        <ele>383.3</ele>
        <time>2017-10-15T08:51:14.000Z</time>
      </trkpt>
      <trkpt lat="47.57198" lon="6.73453">
        <ele>383.8</ele>
        <time>2017-10-15T08:51:15.000Z</time>
      </trkpt>
      <trkpt lat="47.57195" lon="6.73458">
        <ele>384.7</ele>
        <time>2017-10-15T08:51:16.000Z</time>
      </trkpt>
      <trkpt lat="47.57192" lon="6.73463">
        <ele>385</ele>
        <time>2017-10-15T08:51:17.000Z</time>
      </trkpt>
      <trkpt lat="47.57188" lon="6.73468">
        <ele>385.8</ele>
        <time>2017-10-15T08:51:18.000Z</time>
      </trkpt>
      <trkpt lat="47.57184" lon="6.73473">
        <ele>386</ele>
        <time>2017-10-15T08:51:19.000Z</time>
      </trkpt>
      <trkpt lat="47.5718" lon="6.73478">
        <ele>385.9</ele>
        <time>2017-10-15T08:51:20.000Z</time>
      </trkpt>
      <trkpt lat="47.57175" lon="6.73483">
        <ele>386.1</ele>
        <time>2017-10-15T08:51:21.000Z</time>
      </trkpt>
      <trkpt lat="47.57171" lon="6.73488">
        <ele>386.8</ele>
        <time>2017-10-15T08:51:22.000Z</time>
      </trkpt>
      <trkpt lat="47.57167" lon="6.73492">
        <ele>387.3</ele>
        <time>2017-10-15T08:51:23.000Z</time>
      </trkpt>
      <trkpt lat="47.57163" lon="6.73496">
        <ele>387.5</ele>
        <time>2017-10-15T08:51:24.000Z</time>
      </trkpt>
      <trkpt lat="47.57159" lon="6.73499">
        <ele>387.4</ele>
        <time>2017-10-15T08:51:25.000Z</time>
      </trkpt>
      <trkpt lat="47.57155" lon="6.73503">
        <ele>387.4</ele>
        <time>2017-10-15T08:51:26.000Z</time>
      </trkpt>
      <trkpt lat="47.5715" lon="6.73505">
        <ele>387.3</ele>
        <time>2017-10-15T08:51:27.000Z</time>
      </trkpt>
      <trkpt lat="47.57146" lon="6.73507">
        <ele>387.1</ele>
        <time>2017-10-15T08:51:28.000Z</time>
      </trkpt>
      <trkpt lat="47.57142" lon="6.73509">
        <ele>387.6</ele>
        <time>2017-10-15T08:51:29.000Z</time>
      </trkpt>
      <trkpt lat="47.57137" lon="6.73511">
        <ele>387.7</ele>
        <time>2017-10-15T08:51:30.000Z</time>
      </trkpt>
      <trkpt lat="47.57132" lon="6.73513">
        <ele>387.9</ele>
        <time>2017-10-15T08:51:31.000Z</time>
      </trkpt>
      <trkpt lat="47.57127" lon="6.73516">
        <ele>387.8</ele>
        <time>2017-10-15T08:51:32.000Z</time>
      </trkpt>
      <trkpt lat="47.57122" lon="6.73518">
        <ele>387</ele>
        <time>2017-10-15T08:51:33.000Z</time>
      </trkpt>
      <trkpt lat="47.57118" lon="6.73519">
        <ele>386.6</ele>
        <time>2017-10-15T08:51:34.000Z</time>
      </trkpt>
      <trkpt lat="47.57114" lon="6.7352">
        <ele>386.5</ele>
        <time>2017-10-15T08:51:35.000Z</time>
      </trkpt>
      <trkpt lat="47.5711" lon="6.73521">
        <ele>386.3</ele>
        <time>2017-10-15T08:51:36.000Z</time>
      </trkpt>
      <trkpt lat="47.57105" lon="6.73522">
        <ele>386.5</ele>
        <time>2017-10-15T08:51:37.000Z</time>
      </trkpt>
      <trkpt lat="47.57102" lon="6.73523">
        <ele>387</ele>
        <time>2017-10-15T08:51:38.000Z</time>
      </trkpt>
      <trkpt lat="47.57098" lon="6.73524">
        <ele>387.1</ele>
        <time>2017-10-15T08:51:39.000Z</time>
      </trkpt>
      <trkpt lat="47.57095" lon="6.73526">
        <ele>387.1</ele>
        <time>2017-10-15T08:51:40.000Z</time>
      </trkpt>
      <trkpt lat="47.57091" lon="6.73527">
        <ele>387.1</ele>
        <time>2017-10-15T08:51:41.000Z</time>
      </trkpt>
      <trkpt lat="47.57088" lon="6.73527">
        <ele>387.1</ele>
        <time>2017-10-15T08:51:42.000Z</time>
      </trkpt>
      <trkpt lat="47.57084" lon="6.73528">
        <ele>387.1</ele>
        <time>2017-10-15T08:51:43.000Z</time>
      </trkpt>
      <trkpt lat="47.5708" lon="6.73528">
        <ele>387</ele>
        <time>2017-10-15T08:51:44.000Z</time>
      </trkpt>
      <trkpt lat="47.57077" lon="6.73529">
        <ele>387</ele>
        <time>2017-10-15T08:51:45.000Z</time>
      </trkpt>
      <trkpt lat="47.57073" lon="6.73529">
        <ele>386.9</ele>
        <time>2017-10-15T08:51:46.000Z</time>
      </trkpt>
      <trkpt lat="47.57069" lon="6.73529">
        <ele>386.8</ele>
        <time>2017-10-15T08:51:47.000Z</time>
      </trkpt>
      <trkpt lat="47.57065" lon="6.73529">
        <ele>386.7</ele>
        <time>2017-10-15T08:51:48.000Z</time>
      </trkpt>
      <trkpt lat="47.57061" lon="6.73529">
        <ele>386.6</ele>
        <time>2017-10-15T08:51:49.000Z</time>
      </trkpt>
      <trkpt lat="47.57057" lon="6.73529">
        <ele>385.4</ele>
        <time>2017-10-15T08:51:50.000Z</time>
      </trkpt>
      <trkpt lat="47.57053" lon="6.73529">
        <ele>385.3</ele>
        <time>2017-10-15T08:51:51.000Z</time>
      </trkpt>
      <trkpt lat="47.57049" lon="6.73529">
        <ele>385.3</ele>
        <time>2017-10-15T08:51:52.000Z</time>
      </trkpt>
      <trkpt lat="47.57045" lon="6.7353">
        <ele>385.3</ele>
        <time>2017-10-15T08:51:53.000Z</time>
      </trkpt>
      <trkpt lat="47.57041" lon="6.7353">
        <ele>385.3</ele>
        <time>2017-10-15T08:51:54.000Z</time>
      </trkpt>
      <trkpt lat="47.57036" lon="6.73531">
        <ele>386.1</ele>
        <time>2017-10-15T08:51:55.000Z</time>
      </trkpt>
      <trkpt lat="47.57033" lon="6.73531">
        <ele>386.2</ele>
        <time>2017-10-15T08:51:56.000Z</time>
      </trkpt>
      <trkpt lat="47.5703" lon="6.73532">
        <ele>386.2</ele>
        <time>2017-10-15T08:51:57.000Z</time>
      </trkpt>
      <trkpt lat="47.57027" lon="6.73532">
        <ele>386.1</ele>
        <time>2017-10-15T08:51:58.000Z</time>
      </trkpt>
      <trkpt lat="47.57023" lon="6.73533">
        <ele>386.1</ele>
        <time>2017-10-15T08:51:59.000Z</time>
      </trkpt>
      <trkpt lat="47.57019" lon="6.73534">
        <ele>386</ele>
        <time>2017-10-15T08:52:00.000Z</time>
      </trkpt>
      <trkpt lat="47.57015" lon="6.73535">
        <ele>385.9</ele>
        <time>2017-10-15T08:52:01.000Z</time>
      </trkpt>
      <trkpt lat="47.57013" lon="6.73536">
        <ele>385.9</ele>
        <time>2017-10-15T08:52:02.000Z</time>
      </trkpt>
      <trkpt lat="47.57009" lon="6.73537">
        <ele>385.8</ele>
        <time>2017-10-15T08:52:03.000Z</time>
      </trkpt>
      <trkpt lat="47.57006" lon="6.73538">
        <ele>385.7</ele>
        <time>2017-10-15T08:52:04.000Z</time>
      </trkpt>
      <trkpt lat="47.57003" lon="6.73539">
        <ele>385.7</ele>
        <time>2017-10-15T08:52:05.000Z</time>
      </trkpt>
      <trkpt lat="47.57001" lon="6.7354">
        <ele>385.7</ele>
        <time>2017-10-15T08:52:06.000Z</time>
      </trkpt>
      <trkpt lat="47.56997" lon="6.73541">
        <ele>385.7</ele>
        <time>2017-10-15T08:52:07.000Z</time>
      </trkpt>
      <trkpt lat="47.56994" lon="6.73543">
        <ele>385.7</ele>
        <time>2017-10-15T08:52:08.000Z</time>
      </trkpt>
      <trkpt lat="47.5699" lon="6.73544">
        <ele>385.7</ele>
        <time>2017-10-15T08:52:09.000Z</time>
      </trkpt>
      <trkpt lat="47.56986" lon="6.73545">
        <ele>385.7</ele>
        <time>2017-10-15T08:52:10.000Z</time>
      </trkpt>
      <trkpt lat="47.56982" lon="6.73548">
        <ele>385.6</ele>
        <time>2017-10-15T08:52:11.000Z</time>
      </trkpt>
      <trkpt lat="47.56978" lon="6.73549">
        <ele>385.7</ele>
        <time>2017-10-15T08:52:12.000Z</time>
      </trkpt>
      <trkpt lat="47.56976" lon="6.73551">
        <ele>385.7</ele>
        <time>2017-10-15T08:52:13.000Z</time>
      </trkpt>
      <trkpt lat="47.56971" lon="6.73553">
        <ele>385.7</ele>
        <time>2017-10-15T08:52:15.000Z</time>
      </trkpt>
      <trkpt lat="47.56969" lon="6.73554">
        <ele>385.7</ele>
        <time>2017-10-15T08:52:16.000Z</time>
      </trkpt>
      <trkpt lat="47.56966" lon="6.73556">
        <ele>385.8</ele>
        <time>2017-10-15T08:52:17.000Z</time>
      </trkpt>
      <trkpt lat="47.56963" lon="6.73559">
        <ele>385.8</ele>
        <time>2017-10-15T08:52:18.000Z</time>
      </trkpt>
      <trkpt lat="47.5696" lon="6.73561">
        <ele>385.8</ele>
        <time>2017-10-15T08:52:19.000Z</time>
      </trkpt>
      <trkpt lat="47.56957" lon="6.73564">
        <ele>385.8</ele>
        <time>2017-10-15T08:52:20.000Z</time>
      </trkpt>
      <trkpt lat="47.56955" lon="6.73567">
        <ele>385.7</ele>
        <time>2017-10-15T08:52:21.000Z</time>
      </trkpt>
      <trkpt lat="47.56952" lon="6.73571">
        <ele>385.6</ele>
        <time>2017-10-15T08:52:22.000Z</time>
      </trkpt>
      <trkpt lat="47.5695" lon="6.73575">
        <ele>385.4</ele>
        <time>2017-10-15T08:52:23.000Z</time>
      </trkpt>
      <trkpt lat="47.56948" lon="6.73578">
        <ele>385.3</ele>
        <time>2017-10-15T08:52:24.000Z</time>
      </trkpt>
      <trkpt lat="47.56945" lon="6.73583">
        <ele>385.2</ele>
        <time>2017-10-15T08:52:25.000Z</time>
      </trkpt>
      <trkpt lat="47.56942" lon="6.73587">
        <ele>385.1</ele>
        <time>2017-10-15T08:52:26.000Z</time>
      </trkpt>
      <trkpt lat="47.5694" lon="6.73591">
        <ele>385.1</ele>
        <time>2017-10-15T08:52:27.000Z</time>
      </trkpt>
      <trkpt lat="47.56939" lon="6.73597">
        <ele>385.1</ele>
        <time>2017-10-15T08:52:28.000Z</time>
      </trkpt>
      <trkpt lat="47.56937" lon="6.73604">
        <ele>384.4</ele>
        <time>2017-10-15T08:52:29.000Z</time>
      </trkpt>
      <trkpt lat="47.56936" lon="6.73609">
        <ele>384.4</ele>
        <time>2017-10-15T08:52:30.000Z</time>
      </trkpt>
      <trkpt lat="47.56935" lon="6.73615">
        <ele>384.3</ele>
        <time>2017-10-15T08:52:31.000Z</time>
      </trkpt>
      <trkpt lat="47.56934" lon="6.73622">
        <ele>383.9</ele>
        <time>2017-10-15T08:52:32.000Z</time>
      </trkpt>
      <trkpt lat="47.56933" lon="6.73628">
        <ele>383.9</ele>
        <time>2017-10-15T08:52:33.000Z</time>
      </trkpt>
      <trkpt lat="47.56932" lon="6.73634">
        <ele>384.4</ele>
        <time>2017-10-15T08:52:34.000Z</time>
      </trkpt>
      <trkpt lat="47.56931" lon="6.73641">
        <ele>384.9</ele>
        <time>2017-10-15T08:52:35.000Z</time>
      </trkpt>
      <trkpt lat="47.5693" lon="6.73648">
        <ele>385.6</ele>
        <time>2017-10-15T08:52:36.000Z</time>
      </trkpt>
      <trkpt lat="47.56928" lon="6.73655">
        <ele>385.8</ele>
        <time>2017-10-15T08:52:37.000Z</time>
      </trkpt>
      <trkpt lat="47.56927" lon="6.73662">
        <ele>386.5</ele>
        <time>2017-10-15T08:52:38.000Z</time>
      </trkpt>
      <trkpt lat="47.56925" lon="6.73669">
        <ele>387.3</ele>
        <time>2017-10-15T08:52:39.000Z</time>
      </trkpt>
      <trkpt lat="47.56924" lon="6.73677">
        <ele>387.7</ele>
        <time>2017-10-15T08:52:40.000Z</time>
      </trkpt>
      <trkpt lat="47.56922" lon="6.73684">
        <ele>387.7</ele>
        <time>2017-10-15T08:52:41.000Z</time>
      </trkpt>
      <trkpt lat="47.5692" lon="6.73691">
        <ele>388</ele>
        <time>2017-10-15T08:52:42.000Z</time>
      </trkpt>
      <trkpt lat="47.56918" lon="6.73698">
        <ele>388.2</ele>
        <time>2017-10-15T08:52:43.000Z</time>
      </trkpt>
      <trkpt lat="47.56916" lon="6.73705">
        <ele>387.6</ele>
        <time>2017-10-15T08:52:44.000Z</time>
      </trkpt>
      <trkpt lat="47.56914" lon="6.73712">
        <ele>386.7</ele>
        <time>2017-10-15T08:52:45.000Z</time>
      </trkpt>
      <trkpt lat="47.56912" lon="6.73718">
        <ele>386.2</ele>
        <time>2017-10-15T08:52:46.000Z</time>
      </trkpt>
      <trkpt lat="47.5691" lon="6.73724">
        <ele>386.4</ele>
        <time>2017-10-15T08:52:47.000Z</time>
      </trkpt>
      <trkpt lat="47.56906" lon="6.73729">
        <ele>385.7</ele>
        <time>2017-10-15T08:52:48.000Z</time>
      </trkpt>
      <trkpt lat="47.56903" lon="6.73733">
        <ele>385.6</ele>
        <time>2017-10-15T08:52:49.000Z</time>
      </trkpt>
      <trkpt lat="47.56899" lon="6.73737">
        <ele>385.7</ele>
        <time>2017-10-15T08:52:50.000Z</time>
      </trkpt>
      <trkpt lat="47.56896" lon="6.73741">
        <ele>386.3</ele>
        <time>2017-10-15T08:52:51.000Z</time>
      </trkpt>
      <trkpt lat="47.56892" lon="6.73745">
        <ele>387</ele>
        <time>2017-10-15T08:52:52.000Z</time>
      </trkpt>
      <trkpt lat="47.5689" lon="6.73749">
        <ele>387</ele>
        <time>2017-10-15T08:52:53.000Z</time>
      </trkpt>
      <trkpt lat="47.56887" lon="6.73752">
        <ele>386.9</ele>
        <time>2017-10-15T08:52:54.000Z</time>
      </trkpt>
      <trkpt lat="47.56884" lon="6.73756">
        <ele>387</ele>
        <time>2017-10-15T08:52:55.000Z</time>
      </trkpt>
      <trkpt lat="47.56881" lon="6.73761">
        <ele>386.9</ele>
        <time>2017-10-15T08:52:56.000Z</time>
      </trkpt>
      <trkpt lat="47.56878" lon="6.73766">
        <ele>386.9</ele>
        <time>2017-10-15T08:52:57.000Z</time>
      </trkpt>
      <trkpt lat="47.56875" lon="6.73771">
        <ele>386.9</ele>
        <time>2017-10-15T08:52:58.000Z</time>
      </trkpt>
      <trkpt lat="47.56872" lon="6.73775">
        <ele>387</ele>
        <time>2017-10-15T08:52:59.000Z</time>
      </trkpt>
      <trkpt lat="47.56869" lon="6.73779">
        <ele>388.1</ele>
        <time>2017-10-15T08:53:00.000Z</time>
      </trkpt>
      <trkpt lat="47.56865" lon="6.73784">
        <ele>388.9</ele>
        <time>2017-10-15T08:53:01.000Z</time>
      </trkpt>
      <trkpt lat="47.56862" lon="6.73787">
        <ele>389</ele>
        <time>2017-10-15T08:53:02.000Z</time>
      </trkpt>
      <trkpt lat="47.56859" lon="6.7379">
        <ele>389.1</ele>
        <time>2017-10-15T08:53:03.000Z</time>
      </trkpt>
      <trkpt lat="47.56857" lon="6.73792">
        <ele>389.1</ele>
        <time>2017-10-15T08:53:04.000Z</time>
      </trkpt>
      <trkpt lat="47.56854" lon="6.73794">
        <ele>389.1</ele>
        <time>2017-10-15T08:53:05.000Z</time>
      </trkpt>
      <trkpt lat="47.56851" lon="6.73797">
        <ele>389.1</ele>
        <time>2017-10-15T08:53:06.000Z</time>
      </trkpt>
      <trkpt lat="47.56848" lon="6.73801">
        <ele>389.1</ele>
        <time>2017-10-15T08:53:07.000Z</time>
      </trkpt>
      <trkpt lat="47.56844" lon="6.73805">
        <ele>389.5</ele>
        <time>2017-10-15T08:53:08.000Z</time>
      </trkpt>
      <trkpt lat="47.56841" lon="6.73808">
        <ele>389.5</ele>
        <time>2017-10-15T08:53:09.000Z</time>
      </trkpt>
      <trkpt lat="47.56838" lon="6.73812">
        <ele>389.5</ele>
        <time>2017-10-15T08:53:10.000Z</time>
      </trkpt>
      <trkpt lat="47.56835" lon="6.73816">
        <ele>389.5</ele>
        <time>2017-10-15T08:53:11.000Z</time>
      </trkpt>
      <trkpt lat="47.56831" lon="6.7382">
        <ele>389.8</ele>
        <time>2017-10-15T08:53:12.000Z</time>
      </trkpt>
      <trkpt lat="47.56827" lon="6.73824">
        <ele>390.5</ele>
        <time>2017-10-15T08:53:13.000Z</time>
      </trkpt>
      <trkpt lat="47.56824" lon="6.73828">
        <ele>390.5</ele>
        <time>2017-10-15T08:53:14.000Z</time>
      </trkpt>
      <trkpt lat="47.56821" lon="6.73832">
        <ele>390.4</ele>
        <time>2017-10-15T08:53:15.000Z</time>
      </trkpt>
      <trkpt lat="47.56819" lon="6.73835">
        <ele>390.4</ele>
        <time>2017-10-15T08:53:16.000Z</time>
      </trkpt>
      <trkpt lat="47.56816" lon="6.73839">
        <ele>390.4</ele>
        <time>2017-10-15T08:53:17.000Z</time>
      </trkpt>
      <trkpt lat="47.56814" lon="6.73842">
        <ele>390.4</ele>
        <time>2017-10-15T08:53:18.000Z</time>
      </trkpt>
      <trkpt lat="47.5681" lon="6.73844">
        <ele>390.3</ele>
        <time>2017-10-15T08:53:19.000Z</time>
      </trkpt>
      <trkpt lat="47.56806" lon="6.73847">
        <ele>390.3</ele>
        <time>2017-10-15T08:53:20.000Z</time>
      </trkpt>
      <trkpt lat="47.56803" lon="6.73852">
        <ele>390.2</ele>
        <time>2017-10-15T08:53:21.000Z</time>
      </trkpt>
      <trkpt lat="47.568" lon="6.73856">
        <ele>389.9</ele>
        <time>2017-10-15T08:53:22.000Z</time>
      </trkpt>
      <trkpt lat="47.56797" lon="6.73861">
        <ele>389.8</ele>
        <time>2017-10-15T08:53:23.000Z</time>
      </trkpt>
      <trkpt lat="47.56794" lon="6.73864">
        <ele>389.9</ele>
        <time>2017-10-15T08:53:24.000Z</time>
      </trkpt>
      <trkpt lat="47.56791" lon="6.73866">
        <ele>389.9</ele>
        <time>2017-10-15T08:53:25.000Z</time>
      </trkpt>
      <trkpt lat="47.56788" lon="6.73866">
        <ele>390</ele>
        <time>2017-10-15T08:53:26.000Z</time>
      </trkpt>
      <trkpt lat="47.56785" lon="6.73866">
        <ele>390</ele>
        <time>2017-10-15T08:53:27.000Z</time>
      </trkpt>
      <trkpt lat="47.56782" lon="6.73866">
        <ele>390</ele>
        <time>2017-10-15T08:53:28.000Z</time>
      </trkpt>
      <trkpt lat="47.56779" lon="6.73868">
        <ele>389.9</ele>
        <time>2017-10-15T08:53:29.000Z</time>
      </trkpt>
      <trkpt lat="47.56775" lon="6.7387">
        <ele>389.9</ele>
        <time>2017-10-15T08:53:30.000Z</time>
      </trkpt>
      <trkpt lat="47.56772" lon="6.73871">
        <ele>389.9</ele>
        <time>2017-10-15T08:53:31.000Z</time>
      </trkpt>
      <trkpt lat="47.56769" lon="6.73872">
        <ele>390</ele>
        <time>2017-10-15T08:53:32.000Z</time>
      </trkpt>
      <trkpt lat="47.56767" lon="6.73873">
        <ele>390.1</ele>
        <time>2017-10-15T08:53:33.000Z</time>
      </trkpt>
      <trkpt lat="47.56765" lon="6.73876">
        <ele>390.2</ele>
        <time>2017-10-15T08:53:34.000Z</time>
      </trkpt>
      <trkpt lat="47.56762" lon="6.73878">
        <ele>390.3</ele>
        <time>2017-10-15T08:53:35.000Z</time>
      </trkpt>
      <trkpt lat="47.56758" lon="6.7388">
        <ele>390.4</ele>
        <time>2017-10-15T08:53:36.000Z</time>
      </trkpt>
      <trkpt lat="47.56755" lon="6.73883">
        <ele>390.6</ele>
        <time>2017-10-15T08:53:37.000Z</time>
      </trkpt>
      <trkpt lat="47.56752" lon="6.73884">
        <ele>390.8</ele>
        <time>2017-10-15T08:53:38.000Z</time>
      </trkpt>
      <trkpt lat="47.56749" lon="6.73886">
        <ele>390.9</ele>
        <time>2017-10-15T08:53:39.000Z</time>
      </trkpt>
      <trkpt lat="47.56746" lon="6.73887">
        <ele>391.1</ele>
        <time>2017-10-15T08:53:40.000Z</time>
      </trkpt>
      <trkpt lat="47.56743" lon="6.73888">
        <ele>391.3</ele>
        <time>2017-10-15T08:53:41.000Z</time>
      </trkpt>
      <trkpt lat="47.5674" lon="6.7389">
        <ele>391.5</ele>
        <time>2017-10-15T08:53:42.000Z</time>
      </trkpt>
      <trkpt lat="47.56738" lon="6.73892">
        <ele>391.7</ele>
        <time>2017-10-15T08:53:43.000Z</time>
      </trkpt>
      <trkpt lat="47.56736" lon="6.73894">
        <ele>391.8</ele>
        <time>2017-10-15T08:53:44.000Z</time>
      </trkpt>
      <trkpt lat="47.56733" lon="6.73895">
        <ele>392</ele>
        <time>2017-10-15T08:53:45.000Z</time>
      </trkpt>
      <trkpt lat="47.56731" lon="6.73896">
        <ele>392.2</ele>
        <time>2017-10-15T08:53:46.000Z</time>
      </trkpt>
      <trkpt lat="47.56729" lon="6.73896">
        <ele>392.4</ele>
        <time>2017-10-15T08:53:47.000Z</time>
      </trkpt>
      <trkpt lat="47.56726" lon="6.73897">
        <ele>392.5</ele>
        <time>2017-10-15T08:53:48.000Z</time>
      </trkpt>
      <trkpt lat="47.56722" lon="6.73898">
        <ele>392.7</ele>
        <time>2017-10-15T08:53:49.000Z</time>
      </trkpt>
      <trkpt lat="47.5672" lon="6.73899">
        <ele>392.8</ele>
        <time>2017-10-15T08:53:50.000Z</time>
      </trkpt>
      <trkpt lat="47.56716" lon="6.73901">
        <ele>393</ele>
        <time>2017-10-15T08:53:51.000Z</time>
      </trkpt>
      <trkpt lat="47.56713" lon="6.73903">
        <ele>393.1</ele>
        <time>2017-10-15T08:53:52.000Z</time>
      </trkpt>
      <trkpt lat="47.56709" lon="6.73905">
        <ele>393.2</ele>
        <time>2017-10-15T08:53:53.000Z</time>
      </trkpt>
      <trkpt lat="47.56705" lon="6.73907">
        <ele>393.3</ele>
        <time>2017-10-15T08:53:54.000Z</time>
      </trkpt>
      <trkpt lat="47.56701" lon="6.73908">
        <ele>393.4</ele>
        <time>2017-10-15T08:53:55.000Z</time>
      </trkpt>
      <trkpt lat="47.56697" lon="6.7391">
        <ele>393.4</ele>
        <time>2017-10-15T08:53:56.000Z</time>
      </trkpt>
      <trkpt lat="47.56694" lon="6.73911">
        <ele>393.6</ele>
        <time>2017-10-15T08:53:57.000Z</time>
      </trkpt>
      <trkpt lat="47.56691" lon="6.73912">
        <ele>393.7</ele>
        <time>2017-10-15T08:53:58.000Z</time>
      </trkpt>
      <trkpt lat="47.56688" lon="6.73913">
        <ele>393.8</ele>
        <time>2017-10-15T08:53:59.000Z</time>
      </trkpt>
      <trkpt lat="47.56685" lon="6.73914">
        <ele>394</ele>
        <time>2017-10-15T08:54:00.000Z</time>
      </trkpt>
      <trkpt lat="47.56681" lon="6.73916">
        <ele>394.2</ele>
        <time>2017-10-15T08:54:01.000Z</time>
      </trkpt>
      <trkpt lat="47.56676" lon="6.73917">
        <ele>394.4</ele>
        <time>2017-10-15T08:54:02.000Z</time>
      </trkpt>
      <trkpt lat="47.56672" lon="6.73918">
        <ele>396.3</ele>
        <time>2017-10-15T08:54:03.000Z</time>
      </trkpt>
      <trkpt lat="47.56668" lon="6.73919">
        <ele>396.4</ele>
        <time>2017-10-15T08:54:04.000Z</time>
      </trkpt>
      <trkpt lat="47.56664" lon="6.73921">
        <ele>397.1</ele>
        <time>2017-10-15T08:54:05.000Z</time>
      </trkpt>
      <trkpt lat="47.5666" lon="6.73922">
        <ele>398.2</ele>
        <time>2017-10-15T08:54:06.000Z</time>
      </trkpt>
      <trkpt lat="47.56654" lon="6.73924">
        <ele>399.3</ele>
        <time>2017-10-15T08:54:07.000Z</time>
      </trkpt>
      <trkpt lat="47.56649" lon="6.73926">
        <ele>400.3</ele>
        <time>2017-10-15T08:54:08.000Z</time>
      </trkpt>
      <trkpt lat="47.56644" lon="6.73928">
        <ele>400.9</ele>
        <time>2017-10-15T08:54:09.000Z</time>
      </trkpt>
      <trkpt lat="47.56638" lon="6.7393">
        <ele>401.3</ele>
        <time>2017-10-15T08:54:10.000Z</time>
      </trkpt>
      <trkpt lat="47.56634" lon="6.73931">
        <ele>401.5</ele>
        <time>2017-10-15T08:54:11.000Z</time>
      </trkpt>
      <trkpt lat="47.56629" lon="6.73933">
        <ele>401.7</ele>
        <time>2017-10-15T08:54:12.000Z</time>
      </trkpt>
      <trkpt lat="47.56624" lon="6.73935">
        <ele>401.5</ele>
        <time>2017-10-15T08:54:13.000Z</time>
      </trkpt>
      <trkpt lat="47.56619" lon="6.73937">
        <ele>401.2</ele>
        <time>2017-10-15T08:54:14.000Z</time>
      </trkpt>
      <trkpt lat="47.56614" lon="6.73936">
        <ele>401.7</ele>
        <time>2017-10-15T08:54:15.000Z</time>
      </trkpt>
      <trkpt lat="47.56609" lon="6.73935">
        <ele>402.1</ele>
        <time>2017-10-15T08:54:16.000Z</time>
      </trkpt>
      <trkpt lat="47.56604" lon="6.73936">
        <ele>402.1</ele>
        <time>2017-10-15T08:54:17.000Z</time>
      </trkpt>
      <trkpt lat="47.566" lon="6.73936">
        <ele>402.7</ele>
        <time>2017-10-15T08:54:18.000Z</time>
      </trkpt>
      <trkpt lat="47.56596" lon="6.73935">
        <ele>402.4</ele>
        <time>2017-10-15T08:54:19.000Z</time>
      </trkpt>
      <trkpt lat="47.56592" lon="6.73935">
        <ele>402.7</ele>
        <time>2017-10-15T08:54:20.000Z</time>
      </trkpt>
      <trkpt lat="47.56587" lon="6.73934">
        <ele>402.6</ele>
        <time>2017-10-15T08:54:21.000Z</time>
      </trkpt>
      <trkpt lat="47.56583" lon="6.73934">
        <ele>402.9</ele>
        <time>2017-10-15T08:54:22.000Z</time>
      </trkpt>
      <trkpt lat="47.56578" lon="6.73933">
        <ele>403.1</ele>
        <time>2017-10-15T08:54:23.000Z</time>
      </trkpt>
      <trkpt lat="47.56574" lon="6.73933">
        <ele>403.9</ele>
        <time>2017-10-15T08:54:24.000Z</time>
      </trkpt>
      <trkpt lat="47.5657" lon="6.73933">
        <ele>404.4</ele>
        <time>2017-10-15T08:54:25.000Z</time>
      </trkpt>
      <trkpt lat="47.56566" lon="6.73933">
        <ele>404.6</ele>
        <time>2017-10-15T08:54:26.000Z</time>
      </trkpt>
      <trkpt lat="47.56561" lon="6.73933">
        <ele>404.2</ele>
        <time>2017-10-15T08:54:27.000Z</time>
      </trkpt>
      <trkpt lat="47.56556" lon="6.73934">
        <ele>403.7</ele>
        <time>2017-10-15T08:54:28.000Z</time>
      </trkpt>
      <trkpt lat="47.56552" lon="6.73934">
        <ele>403.5</ele>
        <time>2017-10-15T08:54:29.000Z</time>
      </trkpt>
      <trkpt lat="47.56549" lon="6.73934">
        <ele>403.5</ele>
        <time>2017-10-15T08:54:30.000Z</time>
      </trkpt>
      <trkpt lat="47.56545" lon="6.73935">
        <ele>403.4</ele>
        <time>2017-10-15T08:54:31.000Z</time>
      </trkpt>
      <trkpt lat="47.56541" lon="6.73936">
        <ele>403.4</ele>
        <time>2017-10-15T08:54:32.000Z</time>
      </trkpt>
      <trkpt lat="47.56537" lon="6.73936">
        <ele>403.4</ele>
        <time>2017-10-15T08:54:33.000Z</time>
      </trkpt>
      <trkpt lat="47.56533" lon="6.73937">
        <ele>403.3</ele>
        <time>2017-10-15T08:54:34.000Z</time>
      </trkpt>
      <trkpt lat="47.5653" lon="6.73938">
        <ele>403.3</ele>
        <time>2017-10-15T08:54:35.000Z</time>
      </trkpt>
      <trkpt lat="47.56526" lon="6.7394">
        <ele>403.3</ele>
        <time>2017-10-15T08:54:36.000Z</time>
      </trkpt>
      <trkpt lat="47.56523" lon="6.73942">
        <ele>402.2</ele>
        <time>2017-10-15T08:54:37.000Z</time>
      </trkpt>
      <trkpt lat="47.56518" lon="6.73945">
        <ele>402.2</ele>
        <time>2017-10-15T08:54:38.000Z</time>
      </trkpt>
      <trkpt lat="47.56514" lon="6.73945">
        <ele>401.8</ele>
        <time>2017-10-15T08:54:39.000Z</time>
      </trkpt>
      <trkpt lat="47.5651" lon="6.73946">
        <ele>401.8</ele>
        <time>2017-10-15T08:54:40.000Z</time>
      </trkpt>
      <trkpt lat="47.56506" lon="6.73945">
        <ele>402.1</ele>
        <time>2017-10-15T08:54:41.000Z</time>
      </trkpt>
      <trkpt lat="47.56502" lon="6.73944">
        <ele>402.1</ele>
        <time>2017-10-15T08:54:42.000Z</time>
      </trkpt>
      <trkpt lat="47.56499" lon="6.73943">
        <ele>402.2</ele>
        <time>2017-10-15T08:54:43.000Z</time>
      </trkpt>
      <trkpt lat="47.56495" lon="6.73943">
        <ele>402.2</ele>
        <time>2017-10-15T08:54:44.000Z</time>
      </trkpt>
      <trkpt lat="47.56492" lon="6.73942">
        <ele>402.1</ele>
        <time>2017-10-15T08:54:45.000Z</time>
      </trkpt>
      <trkpt lat="47.5649" lon="6.7394">
        <ele>402.1</ele>
        <time>2017-10-15T08:54:46.000Z</time>
      </trkpt>
      <trkpt lat="47.56486" lon="6.73938">
        <ele>402</ele>
        <time>2017-10-15T08:54:47.000Z</time>
      </trkpt>
      <trkpt lat="47.56483" lon="6.73937">
        <ele>401.9</ele>
        <time>2017-10-15T08:54:48.000Z</time>
      </trkpt>
      <trkpt lat="47.56481" lon="6.73935">
        <ele>401.9</ele>
        <time>2017-10-15T08:54:49.000Z</time>
      </trkpt>
      <trkpt lat="47.56477" lon="6.73935">
        <ele>401.8</ele>
        <time>2017-10-15T08:54:50.000Z</time>
      </trkpt>
      <trkpt lat="47.56475" lon="6.73933">
        <ele>401.8</ele>
        <time>2017-10-15T08:54:51.000Z</time>
      </trkpt>
      <trkpt lat="47.56471" lon="6.73933">
        <ele>401.8</ele>
        <time>2017-10-15T08:54:52.000Z</time>
      </trkpt>
      <trkpt lat="47.56467" lon="6.73933">
        <ele>401.8</ele>
        <time>2017-10-15T08:54:53.000Z</time>
      </trkpt>
      <trkpt lat="47.56464" lon="6.73932">
        <ele>401.8</ele>
        <time>2017-10-15T08:54:54.000Z</time>
      </trkpt>
      <trkpt lat="47.56461" lon="6.73933">
        <ele>401.9</ele>
        <time>2017-10-15T08:54:55.000Z</time>
      </trkpt>
      <trkpt lat="47.56458" lon="6.73933">
        <ele>402</ele>
        <time>2017-10-15T08:54:56.000Z</time>
      </trkpt>
      <trkpt lat="47.56454" lon="6.73933">
        <ele>402.1</ele>
        <time>2017-10-15T08:54:57.000Z</time>
      </trkpt>
      <trkpt lat="47.56452" lon="6.73933">
        <ele>402.2</ele>
        <time>2017-10-15T08:54:58.000Z</time>
      </trkpt>
      <trkpt lat="47.56449" lon="6.73933">
        <ele>402.4</ele>
        <time>2017-10-15T08:54:59.000Z</time>
      </trkpt>
      <trkpt lat="47.56445" lon="6.73934">
        <ele>402.7</ele>
        <time>2017-10-15T08:55:01.000Z</time>
      </trkpt>
      <trkpt lat="47.56442" lon="6.73934">
        <ele>402.8</ele>
        <time>2017-10-15T08:55:02.000Z</time>
      </trkpt>
      <trkpt lat="47.56439" lon="6.73935">
        <ele>403</ele>
        <time>2017-10-15T08:55:04.000Z</time>
      </trkpt>
      <trkpt lat="47.56438" lon="6.73936">
        <ele>403.2</ele>
        <time>2017-10-15T08:55:05.000Z</time>
      </trkpt>
      <trkpt lat="47.56434" lon="6.73938">
        <ele>403.4</ele>
        <time>2017-10-15T08:55:07.000Z</time>
      </trkpt>
      <trkpt lat="47.56433" lon="6.73939">
        <ele>403.4</ele>
        <time>2017-10-15T08:55:08.000Z</time>
      </trkpt>
      <trkpt lat="47.5643" lon="6.73941">
        <ele>403.5</ele>
        <time>2017-10-15T08:55:10.000Z</time>
      </trkpt>
      <trkpt lat="47.56428" lon="6.73942">
        <ele>403.6</ele>
        <time>2017-10-15T08:55:11.000Z</time>
      </trkpt>
      <trkpt lat="47.56424" lon="6.73945">
        <ele>404</ele>
        <time>2017-10-15T08:55:14.000Z</time>
      </trkpt>
      <trkpt lat="47.56423" lon="6.73945">
        <ele>404.1</ele>
        <time>2017-10-15T08:55:15.000Z</time>
      </trkpt>
      <trkpt lat="47.5642" lon="6.73946">
        <ele>404.3</ele>
        <time>2017-10-15T08:55:17.000Z</time>
      </trkpt>
      <trkpt lat="47.56419" lon="6.73946">
        <ele>404.4</ele>
        <time>2017-10-15T08:55:18.000Z</time>
      </trkpt>
      <trkpt lat="47.56416" lon="6.73948">
        <ele>404.7</ele>
        <time>2017-10-15T08:55:20.000Z</time>
      </trkpt>
      <trkpt lat="47.56414" lon="6.73949">
        <ele>404.8</ele>
        <time>2017-10-15T08:55:21.000Z</time>
      </trkpt>
      <trkpt lat="47.5641" lon="6.73951">
        <ele>405.5</ele>
        <time>2017-10-15T08:55:24.000Z</time>
      </trkpt>
      <trkpt lat="47.56409" lon="6.73952">
        <ele>405.7</ele>
        <time>2017-10-15T08:55:25.000Z</time>
      </trkpt>
      <trkpt lat="47.56406" lon="6.73956">
        <ele>406.4</ele>
        <time>2017-10-15T08:55:28.000Z</time>
      </trkpt>
      <trkpt lat="47.56405" lon="6.73957">
        <ele>406.7</ele>
        <time>2017-10-15T08:55:29.000Z</time>
      </trkpt>
      <trkpt lat="47.56405" lon="6.73963">
        <ele>407.3</ele>
        <time>2017-10-15T08:55:32.000Z</time>
      </trkpt>
      <trkpt lat="47.56405" lon="6.73965">
        <ele>407.5</ele>
        <time>2017-10-15T08:55:33.000Z</time>
      </trkpt>
      <trkpt lat="47.56405" lon="6.7397">
        <ele>407.9</ele>
        <time>2017-10-15T08:55:35.000Z</time>
      </trkpt>
      <trkpt lat="47.56404" lon="6.73974">
        <ele>408.1</ele>
        <time>2017-10-15T08:55:36.000Z</time>
      </trkpt>
      <trkpt lat="47.56404" lon="6.73978">
        <ele>408.2</ele>
        <time>2017-10-15T08:55:37.000Z</time>
      </trkpt>
      <trkpt lat="47.56403" lon="6.73981">
        <ele>408.5</ele>
        <time>2017-10-15T08:55:38.000Z</time>
      </trkpt>
      <trkpt lat="47.56401" lon="6.73985">
        <ele>409.2</ele>
        <time>2017-10-15T08:55:41.000Z</time>
      </trkpt>
      <trkpt lat="47.564" lon="6.73987">
        <ele>409.4</ele>
        <time>2017-10-15T08:55:42.000Z</time>
      </trkpt>
      <trkpt lat="47.56398" lon="6.73989">
        <ele>409.9</ele>
        <time>2017-10-15T08:55:47.000Z</time>
      </trkpt>
      <trkpt lat="47.56393" lon="6.73993">
        <ele>410</ele>
        <time>2017-10-15T08:55:48.000Z</time>
      </trkpt>
      <trkpt lat="47.56391" lon="6.73995">
        <ele>410.3</ele>
        <time>2017-10-15T08:55:50.000Z</time>
      </trkpt>
      <trkpt lat="47.56389" lon="6.73997">
        <ele>410.6</ele>
        <time>2017-10-15T08:55:51.000Z</time>
      </trkpt>
      <trkpt lat="47.56386" lon="6.73999">
        <ele>411</ele>
        <time>2017-10-15T08:55:53.000Z</time>
      </trkpt>
      <trkpt lat="47.56384" lon="6.73999">
        <ele>411.2</ele>
        <time>2017-10-15T08:55:54.000Z</time>
      </trkpt>
      <trkpt lat="47.56381" lon="6.74002">
        <ele>411.6</ele>
        <time>2017-10-15T08:55:56.000Z</time>
      </trkpt>
      <trkpt lat="47.56379" lon="6.74003">
        <ele>411.8</ele>
        <time>2017-10-15T08:55:57.000Z</time>
      </trkpt>
      <trkpt lat="47.56376" lon="6.74005">
        <ele>412.1</ele>
        <time>2017-10-15T08:55:59.000Z</time>
      </trkpt>
      <trkpt lat="47.56374" lon="6.74006">
        <ele>412.3</ele>
        <time>2017-10-15T08:56:00.000Z</time>
      </trkpt>
      <trkpt lat="47.56371" lon="6.74008">
        <ele>412.9</ele>
        <time>2017-10-15T08:56:02.000Z</time>
      </trkpt>
      <trkpt lat="47.56369" lon="6.7401">
        <ele>413.1</ele>
        <time>2017-10-15T08:56:03.000Z</time>
      </trkpt>
      <trkpt lat="47.56366" lon="6.74012">
        <ele>413.9</ele>
        <time>2017-10-15T08:56:06.000Z</time>
      </trkpt>
      <trkpt lat="47.56365" lon="6.74014">
        <ele>414.1</ele>
        <time>2017-10-15T08:56:07.000Z</time>
      </trkpt>
      <trkpt lat="47.56363" lon="6.74019">
        <ele>414.5</ele>
        <time>2017-10-15T08:56:09.000Z</time>
      </trkpt>
      <trkpt lat="47.56362" lon="6.7402">
        <ele>414.8</ele>
        <time>2017-10-15T08:56:10.000Z</time>
      </trkpt>
      <trkpt lat="47.5636" lon="6.74023">
        <ele>415.3</ele>
        <time>2017-10-15T08:56:12.000Z</time>
      </trkpt>
      <trkpt lat="47.56358" lon="6.74026">
        <ele>415.6</ele>
        <time>2017-10-15T08:56:13.000Z</time>
      </trkpt>
      <trkpt lat="47.56355" lon="6.74029">
        <ele>416</ele>
        <time>2017-10-15T08:56:15.000Z</time>
      </trkpt>
      <trkpt lat="47.56354" lon="6.7403">
        <ele>416.1</ele>
        <time>2017-10-15T08:56:16.000Z</time>
      </trkpt>
      <trkpt lat="47.56351" lon="6.74033">
        <ele>416.2</ele>
        <time>2017-10-15T08:56:18.000Z</time>
      </trkpt>
      <trkpt lat="47.5635" lon="6.74035">
        <ele>416.3</ele>
        <time>2017-10-15T08:56:19.000Z</time>
      </trkpt>
      <trkpt lat="47.56347" lon="6.74036">
        <ele>416.6</ele>
        <time>2017-10-15T08:56:21.000Z</time>
      </trkpt>
      <trkpt lat="47.56345" lon="6.74038">
        <ele>416.7</ele>
        <time>2017-10-15T08:56:22.000Z</time>
      </trkpt>
      <trkpt lat="47.56342" lon="6.7404">
        <ele>416.9</ele>
        <time>2017-10-15T08:56:24.000Z</time>
      </trkpt>
      <trkpt lat="47.56341" lon="6.74041">
        <ele>416.9</ele>
        <time>2017-10-15T08:56:25.000Z</time>
      </trkpt>
      <trkpt lat="47.56338" lon="6.74042">
        <ele>417.1</ele>
        <time>2017-10-15T08:56:27.000Z</time>
      </trkpt>
      <trkpt lat="47.56336" lon="6.74043">
        <ele>417.1</ele>
        <time>2017-10-15T08:56:28.000Z</time>
      </trkpt>
      <trkpt lat="47.56333" lon="6.74047">
        <ele>417.3</ele>
        <time>2017-10-15T08:56:31.000Z</time>
      </trkpt>
      <trkpt lat="47.56333" lon="6.74048">
        <ele>417.4</ele>
        <time>2017-10-15T08:56:32.000Z</time>
      </trkpt>
      <trkpt lat="47.5633" lon="6.74053">
        <ele>417.8</ele>
        <time>2017-10-15T08:56:36.000Z</time>
      </trkpt>
      <trkpt lat="47.56329" lon="6.74054">
        <ele>417.9</ele>
        <time>2017-10-15T08:56:37.000Z</time>
      </trkpt>
      <trkpt lat="47.56326" lon="6.74058">
        <ele>418.1</ele>
        <time>2017-10-15T08:56:40.000Z</time>
      </trkpt>
      <trkpt lat="47.56325" lon="6.74059">
        <ele>418.3</ele>
        <time>2017-10-15T08:56:41.000Z</time>
      </trkpt>
      <trkpt lat="47.56321" lon="6.74062">
        <ele>418.8</ele>
        <time>2017-10-15T08:56:44.000Z</time>
      </trkpt>
      <trkpt lat="47.56319" lon="6.74062">
        <ele>419</ele>
        <time>2017-10-15T08:56:45.000Z</time>
      </trkpt>
      <trkpt lat="47.56315" lon="6.74063">
        <ele>419.7</ele>
        <time>2017-10-15T08:56:49.000Z</time>
      </trkpt>
      <trkpt lat="47.56314" lon="6.74065">
        <ele>419.9</ele>
        <time>2017-10-15T08:56:50.000Z</time>
      </trkpt>
      <trkpt lat="47.56312" lon="6.7407">
        <ele>420.3</ele>
        <time>2017-10-15T08:56:54.000Z</time>
      </trkpt>
      <trkpt lat="47.56312" lon="6.74071">
        <ele>420.4</ele>
        <time>2017-10-15T08:56:55.000Z</time>
      </trkpt>
      <trkpt lat="47.56309" lon="6.74076">
        <ele>420.9</ele>
        <time>2017-10-15T08:56:59.000Z</time>
      </trkpt>
      <trkpt lat="47.56308" lon="6.74076">
        <ele>421</ele>
        <time>2017-10-15T08:57:00.000Z</time>
      </trkpt>
      <trkpt lat="47.56305" lon="6.74076">
        <ele>421.1</ele>
        <time>2017-10-15T08:57:03.000Z</time>
      </trkpt>
      <trkpt lat="47.56303" lon="6.74076">
        <ele>421.2</ele>
        <time>2017-10-15T08:57:04.000Z</time>
      </trkpt>
      <trkpt lat="47.56299" lon="6.74076">
        <ele>421.6</ele>
        <time>2017-10-15T08:57:08.000Z</time>
      </trkpt>
      <trkpt lat="47.56298" lon="6.74076">
        <ele>421.7</ele>
        <time>2017-10-15T08:57:09.000Z</time>
      </trkpt>
      <trkpt lat="47.56294" lon="6.74075">
        <ele>422.4</ele>
        <time>2017-10-15T08:57:14.000Z</time>
      </trkpt>
      <trkpt lat="47.56293" lon="6.74075">
        <ele>422.5</ele>
        <time>2017-10-15T08:57:15.000Z</time>
      </trkpt>
      <trkpt lat="47.5629" lon="6.74072">
        <ele>422.8</ele>
        <time>2017-10-15T08:57:18.000Z</time>
      </trkpt>
      <trkpt lat="47.56289" lon="6.74071">
        <ele>422.9</ele>
        <time>2017-10-15T08:57:19.000Z</time>
      </trkpt>
      <trkpt lat="47.56285" lon="6.74068">
        <ele>423.4</ele>
        <time>2017-10-15T08:57:22.000Z</time>
      </trkpt>
      <trkpt lat="47.56284" lon="6.74067">
        <ele>423.6</ele>
        <time>2017-10-15T08:57:23.000Z</time>
      </trkpt>
      <trkpt lat="47.56281" lon="6.74064">
        <ele>424.3</ele>
        <time>2017-10-15T08:57:27.000Z</time>
      </trkpt>
      <trkpt lat="47.5628" lon="6.74063">
        <ele>424.4</ele>
        <time>2017-10-15T08:57:28.000Z</time>
      </trkpt>
      <trkpt lat="47.56277" lon="6.74062">
        <ele>424.6</ele>
        <time>2017-10-15T08:57:30.000Z</time>
      </trkpt>
      <trkpt lat="47.56276" lon="6.74061">
        <ele>424.8</ele>
        <time>2017-10-15T08:57:31.000Z</time>
      </trkpt>
      <trkpt lat="47.56272" lon="6.74059">
        <ele>425</ele>
        <time>2017-10-15T08:57:33.000Z</time>
      </trkpt>
      <trkpt lat="47.56271" lon="6.74059">
        <ele>425</ele>
        <time>2017-10-15T08:57:34.000Z</time>
      </trkpt>
      <trkpt lat="47.56266" lon="6.74059">
        <ele>425.4</ele>
        <time>2017-10-15T08:57:39.000Z</time>
      </trkpt>
      <trkpt lat="47.56265" lon="6.74059">
        <ele>425.5</ele>
        <time>2017-10-15T08:57:40.000Z</time>
      </trkpt>
      <trkpt lat="47.56261" lon="6.7406">
        <ele>425.8</ele>
        <time>2017-10-15T08:57:44.000Z</time>
      </trkpt>
      <trkpt lat="47.5626" lon="6.74061">
        <ele>425.9</ele>
        <time>2017-10-15T08:57:45.000Z</time>
      </trkpt>
      <trkpt lat="47.56256" lon="6.74059">
        <ele>426.2</ele>
        <time>2017-10-15T08:57:51.000Z</time>
      </trkpt>
      <trkpt lat="47.56255" lon="6.74059">
        <ele>426.2</ele>
        <time>2017-10-15T08:57:52.000Z</time>
      </trkpt>
      <trkpt lat="47.56251" lon="6.74059">
        <ele>426.1</ele>
        <time>2017-10-15T08:57:55.000Z</time>
      </trkpt>
      <trkpt lat="47.5625" lon="6.74059">
        <ele>426</ele>
        <time>2017-10-15T08:57:56.000Z</time>
      </trkpt>
      <trkpt lat="47.56247" lon="6.74059">
        <ele>425.9</ele>
        <time>2017-10-15T08:58:00.000Z</time>
      </trkpt>
      <trkpt lat="47.56245" lon="6.74059">
        <ele>426</ele>
        <time>2017-10-15T08:58:01.000Z</time>
      </trkpt>
      <trkpt lat="47.56241" lon="6.74059">
        <ele>426.5</ele>
        <time>2017-10-15T08:58:06.000Z</time>
      </trkpt>
      <trkpt lat="47.5624" lon="6.7406">
        <ele>426.6</ele>
        <time>2017-10-15T08:58:07.000Z</time>
      </trkpt>
      <trkpt lat="47.56236" lon="6.74062">
        <ele>426.7</ele>
        <time>2017-10-15T08:58:10.000Z</time>
      </trkpt>
      <trkpt lat="47.56236" lon="6.74063">
        <ele>426.7</ele>
        <time>2017-10-15T08:58:11.000Z</time>
      </trkpt>
      <trkpt lat="47.56235" lon="6.74069">
        <ele>427.2</ele>
        <time>2017-10-15T08:58:21.000Z</time>
      </trkpt>
      <trkpt lat="47.56235" lon="6.7407">
        <ele>427.3</ele>
        <time>2017-10-15T08:58:22.000Z</time>
      </trkpt>
      <trkpt lat="47.56235" lon="6.74076">
        <ele>427.8</ele>
        <time>2017-10-15T08:58:25.000Z</time>
      </trkpt>
      <trkpt lat="47.56235" lon="6.74078">
        <ele>428</ele>
        <time>2017-10-15T08:58:26.000Z</time>
      </trkpt>
      <trkpt lat="47.56235" lon="6.74083">
        <ele>428.3</ele>
        <time>2017-10-15T08:58:28.000Z</time>
      </trkpt>
      <trkpt lat="47.56234" lon="6.74087">
        <ele>428.3</ele>
        <time>2017-10-15T08:58:29.000Z</time>
      </trkpt>
      <trkpt lat="47.56233" lon="6.74092">
        <ele>428.5</ele>
        <time>2017-10-15T08:58:31.000Z</time>
      </trkpt>
      <trkpt lat="47.56231" lon="6.74093">
        <ele>428.5</ele>
        <time>2017-10-15T08:58:32.000Z</time>
      </trkpt>
      <trkpt lat="47.56229" lon="6.74097">
        <ele>428.6</ele>
        <time>2017-10-15T08:58:35.000Z</time>
      </trkpt>
      <trkpt lat="47.56228" lon="6.74099">
        <ele>428.8</ele>
        <time>2017-10-15T08:58:36.000Z</time>
      </trkpt>
      <trkpt lat="47.56226" lon="6.74102">
        <ele>428.9</ele>
        <time>2017-10-15T08:58:37.000Z</time>
      </trkpt>
      <trkpt lat="47.56223" lon="6.74106">
        <ele>429</ele>
        <time>2017-10-15T08:58:38.000Z</time>
      </trkpt>
      <trkpt lat="47.56222" lon="6.74109">
        <ele>429.1</ele>
        <time>2017-10-15T08:58:39.000Z</time>
      </trkpt>
      <trkpt lat="47.5622" lon="6.74112">
        <ele>429.2</ele>
        <time>2017-10-15T08:58:40.000Z</time>
      </trkpt>
      <trkpt lat="47.56218" lon="6.74116">
        <ele>429.3</ele>
        <time>2017-10-15T08:58:41.000Z</time>
      </trkpt>
      <trkpt lat="47.56216" lon="6.74119">
        <ele>429.3</ele>
        <time>2017-10-15T08:58:42.000Z</time>
      </trkpt>
      <trkpt lat="47.56214" lon="6.74124">
        <ele>429.5</ele>
        <time>2017-10-15T08:58:46.000Z</time>
      </trkpt>
      <trkpt lat="47.56213" lon="6.74126">
        <ele>429.6</ele>
        <time>2017-10-15T08:58:47.000Z</time>
      </trkpt>
      <trkpt lat="47.56212" lon="6.74131">
        <ele>429.8</ele>
        <time>2017-10-15T08:58:50.000Z</time>
      </trkpt>
      <trkpt lat="47.5621" lon="6.74134">
        <ele>429.9</ele>
        <time>2017-10-15T08:58:51.000Z</time>
      </trkpt>
      <trkpt lat="47.56208" lon="6.74138">
        <ele>430.3</ele>
        <time>2017-10-15T08:58:54.000Z</time>
      </trkpt>
      <trkpt lat="47.56207" lon="6.74143">
        <ele>430.5</ele>
        <time>2017-10-15T08:58:55.000Z</time>
      </trkpt>
      <trkpt lat="47.56203" lon="6.74147">
        <ele>431.1</ele>
        <time>2017-10-15T08:59:00.000Z</time>
      </trkpt>
      <trkpt lat="47.56201" lon="6.74148">
        <ele>431.2</ele>
        <time>2017-10-15T08:59:01.000Z</time>
      </trkpt>
      <trkpt lat="47.56198" lon="6.74149">
        <ele>431.6</ele>
        <time>2017-10-15T08:59:03.000Z</time>
      </trkpt>
      <trkpt lat="47.56196" lon="6.74149">
        <ele>431.8</ele>
        <time>2017-10-15T08:59:04.000Z</time>
      </trkpt>
      <trkpt lat="47.56192" lon="6.74151">
        <ele>432.2</ele>
        <time>2017-10-15T08:59:06.000Z</time>
      </trkpt>
      <trkpt lat="47.56191" lon="6.74152">
        <ele>432.5</ele>
        <time>2017-10-15T08:59:07.000Z</time>
      </trkpt>
      <trkpt lat="47.56187" lon="6.74152">
        <ele>432.9</ele>
        <time>2017-10-15T08:59:09.000Z</time>
      </trkpt>
      <trkpt lat="47.56186" lon="6.74152">
        <ele>433.1</ele>
        <time>2017-10-15T08:59:10.000Z</time>
      </trkpt>
      <trkpt lat="47.56183" lon="6.74155">
        <ele>433.7</ele>
        <time>2017-10-15T08:59:14.000Z</time>
      </trkpt>
      <trkpt lat="47.56181" lon="6.74156">
        <ele>433.8</ele>
        <time>2017-10-15T08:59:15.000Z</time>
      </trkpt>
      <trkpt lat="47.56178" lon="6.74159">
        <ele>434.3</ele>
        <time>2017-10-15T08:59:18.000Z</time>
      </trkpt>
      <trkpt lat="47.56175" lon="6.74161">
        <ele>434.5</ele>
        <time>2017-10-15T08:59:19.000Z</time>
      </trkpt>
      <trkpt lat="47.56173" lon="6.74164">
        <ele>434.8</ele>
        <time>2017-10-15T08:59:21.000Z</time>
      </trkpt>
      <trkpt lat="47.56171" lon="6.74166">
        <ele>434.9</ele>
        <time>2017-10-15T08:59:22.000Z</time>
      </trkpt>
      <trkpt lat="47.56168" lon="6.74169">
        <ele>435.5</ele>
        <time>2017-10-15T08:59:26.000Z</time>
      </trkpt>
      <trkpt lat="47.56167" lon="6.74169">
        <ele>435.6</ele>
        <time>2017-10-15T08:59:27.000Z</time>
      </trkpt>
      <trkpt lat="47.56165" lon="6.74169">
        <ele>435.8</ele>
        <time>2017-10-15T08:59:28.000Z</time>
      </trkpt>
      <trkpt lat="47.56162" lon="6.74168">
        <ele>436</ele>
        <time>2017-10-15T08:59:29.000Z</time>
      </trkpt>
      <trkpt lat="47.56159" lon="6.74168">
        <ele>436.1</ele>
        <time>2017-10-15T08:59:30.000Z</time>
      </trkpt>
      <trkpt lat="47.56156" lon="6.74168">
        <ele>436.2</ele>
        <time>2017-10-15T08:59:31.000Z</time>
      </trkpt>
      <trkpt lat="47.56153" lon="6.74168">
        <ele>436.2</ele>
        <time>2017-10-15T08:59:32.000Z</time>
      </trkpt>
      <trkpt lat="47.56151" lon="6.74167">
        <ele>436.2</ele>
        <time>2017-10-15T08:59:33.000Z</time>
      </trkpt>
      <trkpt lat="47.56147" lon="6.7417">
        <ele>436.7</ele>
        <time>2017-10-15T08:59:37.000Z</time>
      </trkpt>
      <trkpt lat="47.56146" lon="6.7417">
        <ele>436.9</ele>
        <time>2017-10-15T08:59:38.000Z</time>
      </trkpt>
      <trkpt lat="47.56143" lon="6.74172">
        <ele>437.2</ele>
        <time>2017-10-15T08:59:40.000Z</time>
      </trkpt>
      <trkpt lat="47.56141" lon="6.74174">
        <ele>437.4</ele>
        <time>2017-10-15T08:59:41.000Z</time>
      </trkpt>
      <trkpt lat="47.56139" lon="6.74179">
        <ele>438.3</ele>
        <time>2017-10-15T08:59:44.000Z</time>
      </trkpt>
      <trkpt lat="47.56138" lon="6.74181">
        <ele>438.5</ele>
        <time>2017-10-15T08:59:45.000Z</time>
      </trkpt>
      <trkpt lat="47.56136" lon="6.74185">
        <ele>439.2</ele>
        <time>2017-10-15T08:59:47.000Z</time>
      </trkpt>
      <trkpt lat="47.56135" lon="6.74186">
        <ele>439.4</ele>
        <time>2017-10-15T08:59:48.000Z</time>
      </trkpt>
      <trkpt lat="47.56132" lon="6.74192">
        <ele>440.2</ele>
        <time>2017-10-15T08:59:51.000Z</time>
      </trkpt>
      <trkpt lat="47.56131" lon="6.74193">
        <ele>440.4</ele>
        <time>2017-10-15T08:59:52.000Z</time>
      </trkpt>
      <trkpt lat="47.56127" lon="6.74196">
        <ele>441.3</ele>
        <time>2017-10-15T08:59:55.000Z</time>
      </trkpt>
      <trkpt lat="47.56126" lon="6.74197">
        <ele>441.5</ele>
        <time>2017-10-15T08:59:56.000Z</time>
      </trkpt>
      <trkpt lat="47.56124" lon="6.74197">
        <ele>442</ele>
        <time>2017-10-15T08:59:58.000Z</time>
      </trkpt>
      <trkpt lat="47.56121" lon="6.742">
        <ele>442.2</ele>
        <time>2017-10-15T08:59:59.000Z</time>
      </trkpt>
      <trkpt lat="47.56119" lon="6.74201">
        <ele>442.4</ele>
        <time>2017-10-15T09:00:00.000Z</time>
      </trkpt>
      <trkpt lat="47.56117" lon="6.74203">
        <ele>442.7</ele>
        <time>2017-10-15T09:00:01.000Z</time>
      </trkpt>
      <trkpt lat="47.56113" lon="6.74205">
        <ele>443.2</ele>
        <time>2017-10-15T09:00:03.000Z</time>
      </trkpt>
      <trkpt lat="47.56111" lon="6.74206">
        <ele>443.5</ele>
        <time>2017-10-15T09:00:04.000Z</time>
      </trkpt>
      <trkpt lat="47.56106" lon="6.74206">
        <ele>444.6</ele>
        <time>2017-10-15T09:00:08.000Z</time>
      </trkpt>
      <trkpt lat="47.56106" lon="6.74206">
        <ele>444.8</ele>
        <time>2017-10-15T09:00:09.000Z</time>
      </trkpt>
      <trkpt lat="47.56101" lon="6.74207">
        <ele>445.7</ele>
        <time>2017-10-15T09:00:12.000Z</time>
      </trkpt>
      <trkpt lat="47.56099" lon="6.74207">
        <ele>445.9</ele>
        <time>2017-10-15T09:00:13.000Z</time>
      </trkpt>
      <trkpt lat="47.56096" lon="6.74208">
        <ele>446.4</ele>
        <time>2017-10-15T09:00:15.000Z</time>
      </trkpt>
      <trkpt lat="47.56095" lon="6.74208">
        <ele>446.6</ele>
        <time>2017-10-15T09:00:16.000Z</time>
      </trkpt>
      <trkpt lat="47.56091" lon="6.7421">
        <ele>447.2</ele>
        <time>2017-10-15T09:00:18.000Z</time>
      </trkpt>
      <trkpt lat="47.5609" lon="6.74211">
        <ele>447.6</ele>
        <time>2017-10-15T09:00:19.000Z</time>
      </trkpt>
      <trkpt lat="47.56087" lon="6.74213">
        <ele>447.9</ele>
        <time>2017-10-15T09:00:20.000Z</time>
      </trkpt>
      <trkpt lat="47.56086" lon="6.74215">
        <ele>448.2</ele>
        <time>2017-10-15T09:00:21.000Z</time>
      </trkpt>
      <trkpt lat="47.56082" lon="6.74218">
        <ele>449.5</ele>
        <time>2017-10-15T09:00:25.000Z</time>
      </trkpt>
      <trkpt lat="47.56082" lon="6.7422">
        <ele>449.9</ele>
        <time>2017-10-15T09:00:26.000Z</time>
      </trkpt>
      <trkpt lat="47.56079" lon="6.74222">
        <ele>450.6</ele>
        <time>2017-10-15T09:00:28.000Z</time>
      </trkpt>
      <trkpt lat="47.56076" lon="6.74223">
        <ele>450.9</ele>
        <time>2017-10-15T09:00:29.000Z</time>
      </trkpt>
      <trkpt lat="47.56073" lon="6.74224">
        <ele>451.5</ele>
        <time>2017-10-15T09:00:31.000Z</time>
      </trkpt>
      <trkpt lat="47.56072" lon="6.74225">
        <ele>451.8</ele>
        <time>2017-10-15T09:00:32.000Z</time>
      </trkpt>
      <trkpt lat="47.56069" lon="6.74227">
        <ele>452.3</ele>
        <time>2017-10-15T09:00:34.000Z</time>
      </trkpt>
      <trkpt lat="47.56068" lon="6.74229">
        <ele>452.6</ele>
        <time>2017-10-15T09:00:35.000Z</time>
      </trkpt>
      <trkpt lat="47.56064" lon="6.74232">
        <ele>453</ele>
        <time>2017-10-15T09:00:37.000Z</time>
      </trkpt>
      <trkpt lat="47.56062" lon="6.74234">
        <ele>453.2</ele>
        <time>2017-10-15T09:00:38.000Z</time>
      </trkpt>
      <trkpt lat="47.56059" lon="6.74234">
        <ele>453.4</ele>
        <time>2017-10-15T09:00:39.000Z</time>
      </trkpt>
      <trkpt lat="47.56056" lon="6.74234">
        <ele>453.6</ele>
        <time>2017-10-15T09:00:40.000Z</time>
      </trkpt>
      <trkpt lat="47.56054" lon="6.74235">
        <ele>453.8</ele>
        <time>2017-10-15T09:00:41.000Z</time>
      </trkpt>
      <trkpt lat="47.56052" lon="6.74236">
        <ele>454</ele>
        <time>2017-10-15T09:00:42.000Z</time>
      </trkpt>
      <trkpt lat="47.56048" lon="6.74235">
        <ele>454.4</ele>
        <time>2017-10-15T09:00:44.000Z</time>
      </trkpt>
      <trkpt lat="47.56046" lon="6.74235">
        <ele>454.6</ele>
        <time>2017-10-15T09:00:45.000Z</time>
      </trkpt>
      <trkpt lat="47.56042" lon="6.74235">
        <ele>454.9</ele>
        <time>2017-10-15T09:00:48.000Z</time>
      </trkpt>
      <trkpt lat="47.56041" lon="6.74235">
        <ele>455</ele>
        <time>2017-10-15T09:00:49.000Z</time>
      </trkpt>
      <trkpt lat="47.56036" lon="6.74236">
        <ele>455</ele>
        <time>2017-10-15T09:00:52.000Z</time>
      </trkpt>
      <trkpt lat="47.56035" lon="6.74236">
        <ele>454.9</ele>
        <time>2017-10-15T09:00:53.000Z</time>
      </trkpt>
      <trkpt lat="47.56031" lon="6.74237">
        <ele>454.6</ele>
        <time>2017-10-15T09:00:55.000Z</time>
      </trkpt>
      <trkpt lat="47.56029" lon="6.74237">
        <ele>454.5</ele>
        <time>2017-10-15T09:00:56.000Z</time>
      </trkpt>
      <trkpt lat="47.56026" lon="6.74238">
        <ele>454.3</ele>
        <time>2017-10-15T09:00:57.000Z</time>
      </trkpt>
      <trkpt lat="47.56023" lon="6.74237">
        <ele>454.2</ele>
        <time>2017-10-15T09:00:58.000Z</time>
      </trkpt>
      <trkpt lat="47.56021" lon="6.74238">
        <ele>454.1</ele>
        <time>2017-10-15T09:00:59.000Z</time>
      </trkpt>
      <trkpt lat="47.56018" lon="6.74239">
        <ele>454</ele>
        <time>2017-10-15T09:01:00.000Z</time>
      </trkpt>
      <trkpt lat="47.56014" lon="6.7424">
        <ele>453.8</ele>
        <time>2017-10-15T09:01:02.000Z</time>
      </trkpt>
      <trkpt lat="47.56012" lon="6.74241">
        <ele>453.7</ele>
        <time>2017-10-15T09:01:03.000Z</time>
      </trkpt>
      <trkpt lat="47.56008" lon="6.7424">
        <ele>453.6</ele>
        <time>2017-10-15T09:01:05.000Z</time>
      </trkpt>
      <trkpt lat="47.56006" lon="6.74241">
        <ele>453.6</ele>
        <time>2017-10-15T09:01:06.000Z</time>
      </trkpt>
      <trkpt lat="47.56005" lon="6.74241">
        <ele>453.5</ele>
        <time>2017-10-15T09:01:07.000Z</time>
      </trkpt>
      <trkpt lat="47.56002" lon="6.74242">
        <ele>453.6</ele>
        <time>2017-10-15T09:01:08.000Z</time>
      </trkpt>
      <trkpt lat="47.55999" lon="6.74241">
        <ele>453.6</ele>
        <time>2017-10-15T09:01:09.000Z</time>
      </trkpt>
      <trkpt lat="47.55997" lon="6.74242">
        <ele>453.6</ele>
        <time>2017-10-15T09:01:10.000Z</time>
      </trkpt>
      <trkpt lat="47.55993" lon="6.74242">
        <ele>453.8</ele>
        <time>2017-10-15T09:01:12.000Z</time>
      </trkpt>
      <trkpt lat="47.5599" lon="6.74242">
        <ele>453.9</ele>
        <time>2017-10-15T09:01:13.000Z</time>
      </trkpt>
      <trkpt lat="47.55987" lon="6.74242">
        <ele>454</ele>
        <time>2017-10-15T09:01:14.000Z</time>
      </trkpt>
      <trkpt lat="47.55985" lon="6.74243">
        <ele>454</ele>
        <time>2017-10-15T09:01:15.000Z</time>
      </trkpt>
      <trkpt lat="47.55982" lon="6.74243">
        <ele>454.2</ele>
        <time>2017-10-15T09:01:16.000Z</time>
      </trkpt>
      <trkpt lat="47.55979" lon="6.74244">
        <ele>454.3</ele>
        <time>2017-10-15T09:01:17.000Z</time>
      </trkpt>
      <trkpt lat="47.55975" lon="6.74246">
        <ele>454.5</ele>
        <time>2017-10-15T09:01:18.000Z</time>
      </trkpt>
      <trkpt lat="47.55973" lon="6.74247">
        <ele>454.6</ele>
        <time>2017-10-15T09:01:19.000Z</time>
      </trkpt>
      <trkpt lat="47.5597" lon="6.74248">
        <ele>454.8</ele>
        <time>2017-10-15T09:01:20.000Z</time>
      </trkpt>
      <trkpt lat="47.55967" lon="6.74248">
        <ele>455</ele>
        <time>2017-10-15T09:01:21.000Z</time>
      </trkpt>
      <trkpt lat="47.55965" lon="6.74249">
        <ele>455.2</ele>
        <time>2017-10-15T09:01:22.000Z</time>
      </trkpt>
      <trkpt lat="47.55962" lon="6.7425">
        <ele>455.4</ele>
        <time>2017-10-15T09:01:23.000Z</time>
      </trkpt>
      <trkpt lat="47.55958" lon="6.74253">
        <ele>455.7</ele>
        <time>2017-10-15T09:01:25.000Z</time>
      </trkpt>
      <trkpt lat="47.55956" lon="6.74254">
        <ele>455.9</ele>
        <time>2017-10-15T09:01:26.000Z</time>
      </trkpt>
      <trkpt lat="47.55954" lon="6.74255">
        <ele>455.9</ele>
        <time>2017-10-15T09:01:27.000Z</time>
      </trkpt>
      <trkpt lat="47.55952" lon="6.74257">
        <ele>456</ele>
        <time>2017-10-15T09:01:28.000Z</time>
      </trkpt>
      <trkpt lat="47.55949" lon="6.74259">
        <ele>456.1</ele>
        <time>2017-10-15T09:01:29.000Z</time>
      </trkpt>
      <trkpt lat="47.55946" lon="6.74261">
        <ele>456.1</ele>
        <time>2017-10-15T09:01:30.000Z</time>
      </trkpt>
      <trkpt lat="47.55943" lon="6.74263">
        <ele>456.2</ele>
        <time>2017-10-15T09:01:31.000Z</time>
      </trkpt>
      <trkpt lat="47.5594" lon="6.74265">
        <ele>456.3</ele>
        <time>2017-10-15T09:01:32.000Z</time>
      </trkpt>
      <trkpt lat="47.55938" lon="6.74266">
        <ele>456.4</ele>
        <time>2017-10-15T09:01:33.000Z</time>
      </trkpt>
      <trkpt lat="47.55935" lon="6.74268">
        <ele>456.5</ele>
        <time>2017-10-15T09:01:34.000Z</time>
      </trkpt>
      <trkpt lat="47.55931" lon="6.74269">
        <ele>456.6</ele>
        <time>2017-10-15T09:01:35.000Z</time>
      </trkpt>
      <trkpt lat="47.55928" lon="6.7427">
        <ele>456.7</ele>
        <time>2017-10-15T09:01:36.000Z</time>
      </trkpt>
      <trkpt lat="47.55924" lon="6.74271">
        <ele>456.8</ele>
        <time>2017-10-15T09:01:37.000Z</time>
      </trkpt>
      <trkpt lat="47.55921" lon="6.74272">
        <ele>456.9</ele>
        <time>2017-10-15T09:01:38.000Z</time>
      </trkpt>
      <trkpt lat="47.55917" lon="6.74272">
        <ele>457</ele>
        <time>2017-10-15T09:01:39.000Z</time>
      </trkpt>
      <trkpt lat="47.55914" lon="6.74272">
        <ele>457</ele>
        <time>2017-10-15T09:01:40.000Z</time>
      </trkpt>
      <trkpt lat="47.5591" lon="6.74273">
        <ele>457.1</ele>
        <time>2017-10-15T09:01:41.000Z</time>
      </trkpt>
      <trkpt lat="47.55908" lon="6.74274">
        <ele>457.1</ele>
        <time>2017-10-15T09:01:42.000Z</time>
      </trkpt>
      <trkpt lat="47.55905" lon="6.74276">
        <ele>457.1</ele>
        <time>2017-10-15T09:01:43.000Z</time>
      </trkpt>
      <trkpt lat="47.55902" lon="6.74276">
        <ele>457.1</ele>
        <time>2017-10-15T09:01:44.000Z</time>
      </trkpt>
      <trkpt lat="47.55899" lon="6.74273">
        <ele>457.1</ele>
        <time>2017-10-15T09:01:45.000Z</time>
      </trkpt>
      <trkpt lat="47.55897" lon="6.7427">
        <ele>457.1</ele>
        <time>2017-10-15T09:01:46.000Z</time>
      </trkpt>
      <trkpt lat="47.55896" lon="6.74266">
        <ele>457.3</ele>
        <time>2017-10-15T09:01:47.000Z</time>
      </trkpt>
      <trkpt lat="47.55895" lon="6.74263">
        <ele>457.4</ele>
        <time>2017-10-15T09:01:48.000Z</time>
      </trkpt>
      <trkpt lat="47.55894" lon="6.74259">
        <ele>457.6</ele>
        <time>2017-10-15T09:01:49.000Z</time>
      </trkpt>
      <trkpt lat="47.55893" lon="6.74256">
        <ele>457.7</ele>
        <time>2017-10-15T09:01:50.000Z</time>
      </trkpt>
      <trkpt lat="47.55892" lon="6.74251">
        <ele>457.8</ele>
        <time>2017-10-15T09:01:51.000Z</time>
      </trkpt>
      <trkpt lat="47.55891" lon="6.74246">
        <ele>457.9</ele>
        <time>2017-10-15T09:01:52.000Z</time>
      </trkpt>
      <trkpt lat="47.5589" lon="6.74241">
        <ele>458.1</ele>
        <time>2017-10-15T09:01:53.000Z</time>
      </trkpt>
      <trkpt lat="47.5589" lon="6.74236">
        <ele>458.2</ele>
        <time>2017-10-15T09:01:54.000Z</time>
      </trkpt>
      <trkpt lat="47.55889" lon="6.74231">
        <ele>458.4</ele>
        <time>2017-10-15T09:01:55.000Z</time>
      </trkpt>
      <trkpt lat="47.55888" lon="6.74225">
        <ele>458.6</ele>
        <time>2017-10-15T09:01:56.000Z</time>
      </trkpt>
      <trkpt lat="47.55888" lon="6.74222">
        <ele>458.7</ele>
        <time>2017-10-15T09:01:57.000Z</time>
      </trkpt>
      <trkpt lat="47.55887" lon="6.74217">
        <ele>458.8</ele>
        <time>2017-10-15T09:01:58.000Z</time>
      </trkpt>
      <trkpt lat="47.55887" lon="6.74212">
        <ele>458.9</ele>
        <time>2017-10-15T09:01:59.000Z</time>
      </trkpt>
      <trkpt lat="47.55886" lon="6.74206">
        <ele>459</ele>
        <time>2017-10-15T09:02:00.000Z</time>
      </trkpt>
      <trkpt lat="47.55885" lon="6.74201">
        <ele>459.2</ele>
        <time>2017-10-15T09:02:01.000Z</time>
      </trkpt>
      <trkpt lat="47.55884" lon="6.74196">
        <ele>459.3</ele>
        <time>2017-10-15T09:02:02.000Z</time>
      </trkpt>
      <trkpt lat="47.55883" lon="6.74189">
        <ele>460.3</ele>
        <time>2017-10-15T09:02:03.000Z</time>
      </trkpt>
      <trkpt lat="47.55883" lon="6.74183">
        <ele>461.1</ele>
        <time>2017-10-15T09:02:04.000Z</time>
      </trkpt>
      <trkpt lat="47.55882" lon="6.74177">
        <ele>461.6</ele>
        <time>2017-10-15T09:02:05.000Z</time>
      </trkpt>
      <trkpt lat="47.55881" lon="6.74171">
        <ele>461.9</ele>
        <time>2017-10-15T09:02:06.000Z</time>
      </trkpt>
      <trkpt lat="47.5588" lon="6.74165">
        <ele>462.1</ele>
        <time>2017-10-15T09:02:07.000Z</time>
      </trkpt>
      <trkpt lat="47.55879" lon="6.74158">
        <ele>462.1</ele>
        <time>2017-10-15T09:02:08.000Z</time>
      </trkpt>
      <trkpt lat="47.55878" lon="6.7415">
        <ele>462.2</ele>
        <time>2017-10-15T09:02:09.000Z</time>
      </trkpt>
      <trkpt lat="47.55877" lon="6.74143">
        <ele>462.6</ele>
        <time>2017-10-15T09:02:10.000Z</time>
      </trkpt>
      <trkpt lat="47.55875" lon="6.74136">
        <ele>462.6</ele>
        <time>2017-10-15T09:02:11.000Z</time>
      </trkpt>
      <trkpt lat="47.55874" lon="6.7413">
        <ele>462.8</ele>
        <time>2017-10-15T09:02:12.000Z</time>
      </trkpt>
      <trkpt lat="47.55874" lon="6.74123">
        <ele>463.2</ele>
        <time>2017-10-15T09:02:13.000Z</time>
      </trkpt>
      <trkpt lat="47.55873" lon="6.74116">
        <ele>463.5</ele>
        <time>2017-10-15T09:02:14.000Z</time>
      </trkpt>
      <trkpt lat="47.55872" lon="6.74109">
        <ele>463.1</ele>
        <time>2017-10-15T09:02:15.000Z</time>
      </trkpt>
      <trkpt lat="47.55871" lon="6.74102">
        <ele>463.2</ele>
        <time>2017-10-15T09:02:16.000Z</time>
      </trkpt>
      <trkpt lat="47.5587" lon="6.74095">
        <ele>463.4</ele>
        <time>2017-10-15T09:02:17.000Z</time>
      </trkpt>
      <trkpt lat="47.55869" lon="6.74087">
        <ele>463.3</ele>
        <time>2017-10-15T09:02:18.000Z</time>
      </trkpt>
      <trkpt lat="47.55868" lon="6.7408">
        <ele>463.8</ele>
        <time>2017-10-15T09:02:19.000Z</time>
      </trkpt>
      <trkpt lat="47.55867" lon="6.74072">
        <ele>463.8</ele>
        <time>2017-10-15T09:02:20.000Z</time>
      </trkpt>
      <trkpt lat="47.55866" lon="6.74065">
        <ele>463.4</ele>
        <time>2017-10-15T09:02:21.000Z</time>
      </trkpt>
      <trkpt lat="47.55865" lon="6.74058">
        <ele>463.5</ele>
        <time>2017-10-15T09:02:22.000Z</time>
      </trkpt>
      <trkpt lat="47.55864" lon="6.7405">
        <ele>463.6</ele>
        <time>2017-10-15T09:02:23.000Z</time>
      </trkpt>
      <trkpt lat="47.55863" lon="6.74042">
        <ele>463.8</ele>
        <time>2017-10-15T09:02:24.000Z</time>
      </trkpt>
      <trkpt lat="47.55862" lon="6.74034">
        <ele>463.8</ele>
        <time>2017-10-15T09:02:25.000Z</time>
      </trkpt>
      <trkpt lat="47.55861" lon="6.74027">
        <ele>463.9</ele>
        <time>2017-10-15T09:02:26.000Z</time>
      </trkpt>
      <trkpt lat="47.5586" lon="6.74019">
        <ele>463.7</ele>
        <time>2017-10-15T09:02:27.000Z</time>
      </trkpt>
      <trkpt lat="47.55859" lon="6.74012">
        <ele>463.3</ele>
        <time>2017-10-15T09:02:28.000Z</time>
      </trkpt>
      <trkpt lat="47.55858" lon="6.74004">
        <ele>462.9</ele>
        <time>2017-10-15T09:02:29.000Z</time>
      </trkpt>
      <trkpt lat="47.55857" lon="6.73996">
        <ele>462.2</ele>
        <time>2017-10-15T09:02:30.000Z</time>
      </trkpt>
      <trkpt lat="47.55856" lon="6.73987">
        <ele>461.4</ele>
        <time>2017-10-15T09:02:31.000Z</time>
      </trkpt>
      <trkpt lat="47.55855" lon="6.73979">
        <ele>460.3</ele>
        <time>2017-10-15T09:02:32.000Z</time>
      </trkpt>
      <trkpt lat="47.55854" lon="6.7397">
        <ele>459.3</ele>
        <time>2017-10-15T09:02:33.000Z</time>
      </trkpt>
      <trkpt lat="47.55852" lon="6.73962">
        <ele>458.9</ele>
        <time>2017-10-15T09:02:34.000Z</time>
      </trkpt>
      <trkpt lat="47.55851" lon="6.73954">
        <ele>458.4</ele>
        <time>2017-10-15T09:02:35.000Z</time>
      </trkpt>
      <trkpt lat="47.55849" lon="6.73944">
        <ele>458.2</ele>
        <time>2017-10-15T09:02:36.000Z</time>
      </trkpt>
      <trkpt lat="47.55848" lon="6.73935">
        <ele>458.3</ele>
        <time>2017-10-15T09:02:37.000Z</time>
      </trkpt>
      <trkpt lat="47.55846" lon="6.73926">
        <ele>457.8</ele>
        <time>2017-10-15T09:02:38.000Z</time>
      </trkpt>
      <trkpt lat="47.55844" lon="6.73917">
        <ele>457.6</ele>
        <time>2017-10-15T09:02:39.000Z</time>
      </trkpt>
      <trkpt lat="47.55843" lon="6.73908">
        <ele>457.3</ele>
        <time>2017-10-15T09:02:40.000Z</time>
      </trkpt>
      <trkpt lat="47.55842" lon="6.73899">
        <ele>456.9</ele>
        <time>2017-10-15T09:02:41.000Z</time>
      </trkpt>
      <trkpt lat="47.55841" lon="6.73891">
        <ele>456.1</ele>
        <time>2017-10-15T09:02:42.000Z</time>
      </trkpt>
      <trkpt lat="47.55839" lon="6.73883">
        <ele>455.8</ele>
        <time>2017-10-15T09:02:43.000Z</time>
      </trkpt>
      <trkpt lat="47.55837" lon="6.73877">
        <ele>455</ele>
        <time>2017-10-15T09:02:44.000Z</time>
      </trkpt>
      <trkpt lat="47.55833" lon="6.73872">
        <ele>454.7</ele>
        <time>2017-10-15T09:02:45.000Z</time>
      </trkpt>
      <trkpt lat="47.55829" lon="6.73869">
        <ele>455</ele>
        <time>2017-10-15T09:02:46.000Z</time>
      </trkpt>
      <trkpt lat="47.55826" lon="6.73868">
        <ele>455</ele>
        <time>2017-10-15T09:02:47.000Z</time>
      </trkpt>
      <trkpt lat="47.55822" lon="6.7387">
        <ele>454</ele>
        <time>2017-10-15T09:02:48.000Z</time>
      </trkpt>
      <trkpt lat="47.55818" lon="6.73871">
        <ele>453.5</ele>
        <time>2017-10-15T09:02:49.000Z</time>
      </trkpt>
      <trkpt lat="47.55814" lon="6.73871">
        <ele>452.8</ele>
        <time>2017-10-15T09:02:50.000Z</time>
      </trkpt>
      <trkpt lat="47.5581" lon="6.73871">
        <ele>452.2</ele>
        <time>2017-10-15T09:02:51.000Z</time>
      </trkpt>
      <trkpt lat="47.55806" lon="6.73871">
        <ele>451.8</ele>
        <time>2017-10-15T09:02:52.000Z</time>
      </trkpt>
      <trkpt lat="47.55802" lon="6.73871">
        <ele>451.3</ele>
        <time>2017-10-15T09:02:53.000Z</time>
      </trkpt>
      <trkpt lat="47.55798" lon="6.73871">
        <ele>450.7</ele>
        <time>2017-10-15T09:02:54.000Z</time>
      </trkpt>
      <trkpt lat="47.55794" lon="6.73871">
        <ele>450.6</ele>
        <time>2017-10-15T09:02:55.000Z</time>
      </trkpt>
      <trkpt lat="47.5579" lon="6.73872">
        <ele>450.6</ele>
        <time>2017-10-15T09:02:56.000Z</time>
      </trkpt>
      <trkpt lat="47.55786" lon="6.73872">
        <ele>449.9</ele>
        <time>2017-10-15T09:02:57.000Z</time>
      </trkpt>
      <trkpt lat="47.55782" lon="6.73873">
        <ele>449.1</ele>
        <time>2017-10-15T09:02:58.000Z</time>
      </trkpt>
      <trkpt lat="47.55778" lon="6.73873">
        <ele>448.2</ele>
        <time>2017-10-15T09:02:59.000Z</time>
      </trkpt>
      <trkpt lat="47.55774" lon="6.73874">
        <ele>448.2</ele>
        <time>2017-10-15T09:03:00.000Z</time>
      </trkpt>
      <trkpt lat="47.55771" lon="6.73875">
        <ele>448.1</ele>
        <time>2017-10-15T09:03:01.000Z</time>
      </trkpt>
      <trkpt lat="47.55768" lon="6.73876">
        <ele>448</ele>
        <time>2017-10-15T09:03:02.000Z</time>
      </trkpt>
      <trkpt lat="47.55766" lon="6.73879">
        <ele>448</ele>
        <time>2017-10-15T09:03:03.000Z</time>
      </trkpt>
      <trkpt lat="47.55763" lon="6.73882">
        <ele>448</ele>
        <time>2017-10-15T09:03:04.000Z</time>
      </trkpt>
      <trkpt lat="47.55761" lon="6.73884">
        <ele>447.9</ele>
        <time>2017-10-15T09:03:05.000Z</time>
      </trkpt>
      <trkpt lat="47.5576" lon="6.73886">
        <ele>448</ele>
        <time>2017-10-15T09:03:06.000Z</time>
      </trkpt>
      <trkpt lat="47.55757" lon="6.73888">
        <ele>448</ele>
        <time>2017-10-15T09:03:07.000Z</time>
      </trkpt>
      <trkpt lat="47.55754" lon="6.73891">
        <ele>448</ele>
        <time>2017-10-15T09:03:08.000Z</time>
      </trkpt>
      <trkpt lat="47.55752" lon="6.73894">
        <ele>448.1</ele>
        <time>2017-10-15T09:03:09.000Z</time>
      </trkpt>
      <trkpt lat="47.5575" lon="6.73897">
        <ele>448.1</ele>
        <time>2017-10-15T09:03:10.000Z</time>
      </trkpt>
      <trkpt lat="47.55748" lon="6.73898">
        <ele>448.1</ele>
        <time>2017-10-15T09:03:11.000Z</time>
      </trkpt>
      <trkpt lat="47.55744" lon="6.73901">
        <ele>448.2</ele>
        <time>2017-10-15T09:03:13.000Z</time>
      </trkpt>
      <trkpt lat="47.55743" lon="6.73902">
        <ele>448.2</ele>
        <time>2017-10-15T09:03:14.000Z</time>
      </trkpt>
      <trkpt lat="47.55741" lon="6.73904">
        <ele>448.2</ele>
        <time>2017-10-15T09:03:15.000Z</time>
      </trkpt>
      <trkpt lat="47.55739" lon="6.73907">
        <ele>448.2</ele>
        <time>2017-10-15T09:03:16.000Z</time>
      </trkpt>
      <trkpt lat="47.55736" lon="6.73911">
        <ele>448.3</ele>
        <time>2017-10-15T09:03:18.000Z</time>
      </trkpt>
      <trkpt lat="47.55735" lon="6.73914">
        <ele>448.3</ele>
        <time>2017-10-15T09:03:19.000Z</time>
      </trkpt>
      <trkpt lat="47.55733" lon="6.73918">
        <ele>448.4</ele>
        <time>2017-10-15T09:03:21.000Z</time>
      </trkpt>
      <trkpt lat="47.55732" lon="6.73919">
        <ele>448.5</ele>
        <time>2017-10-15T09:03:22.000Z</time>
      </trkpt>
      <trkpt lat="47.55729" lon="6.73924">
        <ele>448.7</ele>
        <time>2017-10-15T09:03:23.999Z</time>
      </trkpt>
      <trkpt lat="47.55728" lon="6.73926">
        <ele>448.7</ele>
        <time>2017-10-15T09:03:24.999Z</time>
      </trkpt>
      <trkpt lat="47.55726" lon="6.73931">
        <ele>449.1</ele>
        <time>2017-10-15T09:03:26.999Z</time>
      </trkpt>
      <trkpt lat="47.55725" lon="6.73934">
        <ele>449.2</ele>
        <time>2017-10-15T09:03:27.999Z</time>
      </trkpt>
      <trkpt lat="47.55724" lon="6.73937">
        <ele>449.3</ele>
        <time>2017-10-15T09:03:28.999Z</time>
      </trkpt>
      <trkpt lat="47.55723" lon="6.73941">
        <ele>449.4</ele>
        <time>2017-10-15T09:03:29.999Z</time>
      </trkpt>
      <trkpt lat="47.55721" lon="6.73945">
        <ele>449.7</ele>
        <time>2017-10-15T09:03:31.999Z</time>
      </trkpt>
      <trkpt lat="47.5572" lon="6.73947">
        <ele>449.8</ele>
        <time>2017-10-15T09:03:32.999Z</time>
      </trkpt>
      <trkpt lat="47.55718" lon="6.73951">
        <ele>450</ele>
        <time>2017-10-15T09:03:34.999Z</time>
      </trkpt>
      <trkpt lat="47.55717" lon="6.73952">
        <ele>450.2</ele>
        <time>2017-10-15T09:03:35.999Z</time>
      </trkpt>
      <trkpt lat="47.55714" lon="6.73957">
        <ele>450.5</ele>
        <time>2017-10-15T09:03:37.999Z</time>
      </trkpt>
      <trkpt lat="47.55713" lon="6.73958">
        <ele>450.7</ele>
        <time>2017-10-15T09:03:38.999Z</time>
      </trkpt>
      <trkpt lat="47.55712" lon="6.73962">
        <ele>451</ele>
        <time>2017-10-15T09:03:40.999Z</time>
      </trkpt>
      <trkpt lat="47.55711" lon="6.73965">
        <ele>451.1</ele>
        <time>2017-10-15T09:03:41.999Z</time>
      </trkpt>
      <trkpt lat="47.55709" lon="6.73968">
        <ele>451.2</ele>
        <time>2017-10-15T09:03:42.999Z</time>
      </trkpt>
      <trkpt lat="47.55708" lon="6.73971">
        <ele>451.2</ele>
        <time>2017-10-15T09:03:43.999Z</time>
      </trkpt>
      <trkpt lat="47.55706" lon="6.73977">
        <ele>451.5</ele>
        <time>2017-10-15T09:03:45.999Z</time>
      </trkpt>
      <trkpt lat="47.55705" lon="6.7398">
        <ele>451.6</ele>
        <time>2017-10-15T09:03:46.999Z</time>
      </trkpt>
      <trkpt lat="47.55702" lon="6.73985">
        <ele>451.8</ele>
        <time>2017-10-15T09:03:48.999Z</time>
      </trkpt>
      <trkpt lat="47.55701" lon="6.73988">
        <ele>452</ele>
        <time>2017-10-15T09:03:49.999Z</time>
      </trkpt>
      <trkpt lat="47.557" lon="6.73991">
        <ele>452.3</ele>
        <time>2017-10-15T09:03:50.999Z</time>
      </trkpt>
      <trkpt lat="47.55699" lon="6.73995">
        <ele>452.5</ele>
        <time>2017-10-15T09:03:51.999Z</time>
      </trkpt>
      <trkpt lat="47.55698" lon="6.73998">
        <ele>452.7</ele>
        <time>2017-10-15T09:03:52.999Z</time>
      </trkpt>
      <trkpt lat="47.55697" lon="6.74001">
        <ele>452.9</ele>
        <time>2017-10-15T09:03:53.999Z</time>
      </trkpt>
      <trkpt lat="47.55696" lon="6.74006">
        <ele>453.3</ele>
        <time>2017-10-15T09:03:55.999Z</time>
      </trkpt>
      <trkpt lat="47.55695" lon="6.74008">
        <ele>453.3</ele>
        <time>2017-10-15T09:03:56.999Z</time>
      </trkpt>
      <trkpt lat="47.55693" lon="6.74011">
        <ele>453.4</ele>
        <time>2017-10-15T09:03:57.999Z</time>
      </trkpt>
      <trkpt lat="47.55692" lon="6.74013">
        <ele>453.5</ele>
        <time>2017-10-15T09:03:58.999Z</time>
      </trkpt>
      <trkpt lat="47.55689" lon="6.74018">
        <ele>453.8</ele>
        <time>2017-10-15T09:04:00.999Z</time>
      </trkpt>
      <trkpt lat="47.55688" lon="6.74021">
        <ele>453.9</ele>
        <time>2017-10-15T09:04:01.999Z</time>
      </trkpt>
      <trkpt lat="47.55685" lon="6.74027">
        <ele>454</ele>
        <time>2017-10-15T09:04:03.999Z</time>
      </trkpt>
      <trkpt lat="47.55684" lon="6.74029">
        <ele>454.1</ele>
        <time>2017-10-15T09:04:04.999Z</time>
      </trkpt>
      <trkpt lat="47.55681" lon="6.74033">
        <ele>454.3</ele>
        <time>2017-10-15T09:04:06.999Z</time>
      </trkpt>
      <trkpt lat="47.55679" lon="6.74036">
        <ele>454.3</ele>
        <time>2017-10-15T09:04:07.999Z</time>
      </trkpt>
      <trkpt lat="47.55677" lon="6.74041">
        <ele>454.4</ele>
        <time>2017-10-15T09:04:09.999Z</time>
      </trkpt>
      <trkpt lat="47.55676" lon="6.74044">
        <ele>454.5</ele>
        <time>2017-10-15T09:04:10.999Z</time>
      </trkpt>
      <trkpt lat="47.55675" lon="6.74047">
        <ele>454.6</ele>
        <time>2017-10-15T09:04:11.999Z</time>
      </trkpt>
      <trkpt lat="47.55674" lon="6.7405">
        <ele>454.7</ele>
        <time>2017-10-15T09:04:12.999Z</time>
      </trkpt>
      <trkpt lat="47.55672" lon="6.74055">
        <ele>454.9</ele>
        <time>2017-10-15T09:04:14.999Z</time>
      </trkpt>
      <trkpt lat="47.55672" lon="6.74058">
        <ele>455</ele>
        <time>2017-10-15T09:04:15.999Z</time>
      </trkpt>
      <trkpt lat="47.55671" lon="6.74062">
        <ele>455.1</ele>
        <time>2017-10-15T09:04:16.999Z</time>
      </trkpt>
      <trkpt lat="47.5567" lon="6.74065">
        <ele>455.1</ele>
        <time>2017-10-15T09:04:17.999Z</time>
      </trkpt>
      <trkpt lat="47.55669" lon="6.74071">
        <ele>455.2</ele>
        <time>2017-10-15T09:04:19.999Z</time>
      </trkpt>
      <trkpt lat="47.55668" lon="6.74074">
        <ele>455.2</ele>
        <time>2017-10-15T09:04:20.999Z</time>
      </trkpt>
      <trkpt lat="47.55666" lon="6.74078">
        <ele>455.2</ele>
        <time>2017-10-15T09:04:21.999Z</time>
      </trkpt>
      <trkpt lat="47.55665" lon="6.74082">
        <ele>455.2</ele>
        <time>2017-10-15T09:04:22.999Z</time>
      </trkpt>
      <trkpt lat="47.55662" lon="6.74086">
        <ele>455.1</ele>
        <time>2017-10-15T09:04:24.999Z</time>
      </trkpt>
      <trkpt lat="47.55661" lon="6.74088">
        <ele>455.2</ele>
        <time>2017-10-15T09:04:25.999Z</time>
      </trkpt>
      <trkpt lat="47.5566" lon="6.74091">
        <ele>455.3</ele>
        <time>2017-10-15T09:04:26.999Z</time>
      </trkpt>
      <trkpt lat="47.55658" lon="6.74094">
        <ele>455.3</ele>
        <time>2017-10-15T09:04:27.999Z</time>
      </trkpt>
      <trkpt lat="47.55657" lon="6.74097">
        <ele>455.4</ele>
        <time>2017-10-15T09:04:28.999Z</time>
      </trkpt>
      <trkpt lat="47.55655" lon="6.741">
        <ele>455.5</ele>
        <time>2017-10-15T09:04:29.999Z</time>
      </trkpt>
      <trkpt lat="47.55654" lon="6.74103">
        <ele>455.6</ele>
        <time>2017-10-15T09:04:30.999Z</time>
      </trkpt>
      <trkpt lat="47.55652" lon="6.74106">
        <ele>455.6</ele>
        <time>2017-10-15T09:04:31.999Z</time>
      </trkpt>
      <trkpt lat="47.5565" lon="6.7411">
        <ele>455.6</ele>
        <time>2017-10-15T09:04:33.999Z</time>
      </trkpt>
      <trkpt lat="47.55649" lon="6.74112">
        <ele>455.5</ele>
        <time>2017-10-15T09:04:34.999Z</time>
      </trkpt>
      <trkpt lat="47.55645" lon="6.74115">
        <ele>455.5</ele>
        <time>2017-10-15T09:04:36.999Z</time>
      </trkpt>
      <trkpt lat="47.55643" lon="6.74115">
        <ele>455.5</ele>
        <time>2017-10-15T09:04:37.999Z</time>
      </trkpt>
      <trkpt lat="47.55641" lon="6.74112">
        <ele>455.5</ele>
        <time>2017-10-15T09:04:39.999Z</time>
      </trkpt>
      <trkpt lat="47.55639" lon="6.7411">
        <ele>455.5</ele>
        <time>2017-10-15T09:04:40.999Z</time>
      </trkpt>
      <trkpt lat="47.55635" lon="6.74106">
        <ele>455.4</ele>
        <time>2017-10-15T09:04:42.999Z</time>
      </trkpt>
      <trkpt lat="47.55634" lon="6.74105">
        <ele>455.4</ele>
        <time>2017-10-15T09:04:43.999Z</time>
      </trkpt>
      <trkpt lat="47.55632" lon="6.74101">
        <ele>455.4</ele>
        <time>2017-10-15T09:04:45.999Z</time>
      </trkpt>
      <trkpt lat="47.55632" lon="6.74099">
        <ele>455.3</ele>
        <time>2017-10-15T09:04:46.999Z</time>
      </trkpt>
      <trkpt lat="47.5563" lon="6.74096">
        <ele>455.2</ele>
        <time>2017-10-15T09:04:48.999Z</time>
      </trkpt>
      <trkpt lat="47.55629" lon="6.74093">
        <ele>455.1</ele>
        <time>2017-10-15T09:04:49.999Z</time>
      </trkpt>
      <trkpt lat="47.55629" lon="6.74091">
        <ele>454.4</ele>
        <time>2017-10-15T09:04:56.999Z</time>
      </trkpt>
      <trkpt lat="47.55626" lon="6.74073">
        <ele>454.3</ele>
        <time>2017-10-15T09:04:57.999Z</time>
      </trkpt>
      <trkpt lat="47.55626" lon="6.74073">
        <ele>454</ele>
        <time>2017-10-15T09:04:59.999Z</time>
      </trkpt>
      <trkpt lat="47.55621" lon="6.74063">
        <ele>453.9</ele>
        <time>2017-10-15T09:05:00.999Z</time>
      </trkpt>
      <trkpt lat="47.55619" lon="6.74061">
        <ele>453.7</ele>
        <time>2017-10-15T09:05:01.999Z</time>
      </trkpt>
      <trkpt lat="47.55617" lon="6.74059">
        <ele>453.4</ele>
        <time>2017-10-15T09:05:02.999Z</time>
      </trkpt>
      <trkpt lat="47.55614" lon="6.74057">
        <ele>453.2</ele>
        <time>2017-10-15T09:05:03.999Z</time>
      </trkpt>
      <trkpt lat="47.55612" lon="6.74055">
        <ele>452.9</ele>
        <time>2017-10-15T09:05:04.999Z</time>
      </trkpt>
      <trkpt lat="47.5561" lon="6.74053">
        <ele>452.7</ele>
        <time>2017-10-15T09:05:05.999Z</time>
      </trkpt>
      <trkpt lat="47.55608" lon="6.74051">
        <ele>452.6</ele>
        <time>2017-10-15T09:05:06.999Z</time>
      </trkpt>
      <trkpt lat="47.55606" lon="6.74047">
        <ele>452.4</ele>
        <time>2017-10-15T09:05:07.999Z</time>
      </trkpt>
      <trkpt lat="47.55603" lon="6.74043">
        <ele>452.1</ele>
        <time>2017-10-15T09:05:08.999Z</time>
      </trkpt>
      <trkpt lat="47.556" lon="6.74038">
        <ele>451.8</ele>
        <time>2017-10-15T09:05:09.999Z</time>
      </trkpt>
      <trkpt lat="47.55599" lon="6.74033">
        <ele>451.5</ele>
        <time>2017-10-15T09:05:10.999Z</time>
      </trkpt>
      <trkpt lat="47.55595" lon="6.74026">
        <ele>451.3</ele>
        <time>2017-10-15T09:05:11.999Z</time>
      </trkpt>
      <trkpt lat="47.55591" lon="6.74019">
        <ele>451.1</ele>
        <time>2017-10-15T09:05:12.999Z</time>
      </trkpt>
      <trkpt lat="47.55588" lon="6.74011">
        <ele>450.8</ele>
        <time>2017-10-15T09:05:13.999Z</time>
      </trkpt>
      <trkpt lat="47.55585" lon="6.74002">
        <ele>450.5</ele>
        <time>2017-10-15T09:05:14.999Z</time>
      </trkpt>
      <trkpt lat="47.55583" lon="6.73993">
        <ele>447.1</ele>
        <time>2017-10-15T09:05:15.999Z</time>
      </trkpt>
      <trkpt lat="47.55579" lon="6.73982">
        <ele>445</ele>
        <time>2017-10-15T09:05:16.999Z</time>
      </trkpt>
      <trkpt lat="47.55574" lon="6.73971">
        <ele>443.6</ele>
        <time>2017-10-15T09:05:17.999Z</time>
      </trkpt>
      <trkpt lat="47.55569" lon="6.73962">
        <ele>443.2</ele>
        <time>2017-10-15T09:05:18.999Z</time>
      </trkpt>
      <trkpt lat="47.55562" lon="6.73952">
        <ele>443.5</ele>
        <time>2017-10-15T09:05:19.999Z</time>
      </trkpt>
      <trkpt lat="47.55557" lon="6.73943">
        <ele>444.7</ele>
        <time>2017-10-15T09:05:20.999Z</time>
      </trkpt>
      <trkpt lat="47.55551" lon="6.73934">
        <ele>445.2</ele>
        <time>2017-10-15T09:05:21.999Z</time>
      </trkpt>
      <trkpt lat="47.55546" lon="6.73924">
        <ele>446.6</ele>
        <time>2017-10-15T09:05:22.999Z</time>
      </trkpt>
      <trkpt lat="47.55541" lon="6.73914">
        <ele>447.1</ele>
        <time>2017-10-15T09:05:23.999Z</time>
      </trkpt>
      <trkpt lat="47.55537" lon="6.73905">
        <ele>448.1</ele>
        <time>2017-10-15T09:05:24.999Z</time>
      </trkpt>
      <trkpt lat="47.55533" lon="6.73896">
        <ele>448.6</ele>
        <time>2017-10-15T09:05:25.999Z</time>
      </trkpt>
      <trkpt lat="47.55529" lon="6.7389">
        <ele>448.4</ele>
        <time>2017-10-15T09:05:26.999Z</time>
      </trkpt>
      <trkpt lat="47.55524" lon="6.73883">
        <ele>448.9</ele>
        <time>2017-10-15T09:05:27.999Z</time>
      </trkpt>
      <trkpt lat="47.55519" lon="6.73875">
        <ele>449</ele>
        <time>2017-10-15T09:05:28.999Z</time>
      </trkpt>
      <trkpt lat="47.55515" lon="6.73866">
        <ele>448.9</ele>
        <time>2017-10-15T09:05:29.999Z</time>
      </trkpt>
      <trkpt lat="47.5551" lon="6.73857">
        <ele>448.7</ele>
        <time>2017-10-15T09:05:30.999Z</time>
      </trkpt>
      <trkpt lat="47.55505" lon="6.73846">
        <ele>448.4</ele>
        <time>2017-10-15T09:05:31.999Z</time>
      </trkpt>
      <trkpt lat="47.55499" lon="6.73837">
        <ele>448.7</ele>
        <time>2017-10-15T09:05:32.999Z</time>
      </trkpt>
      <trkpt lat="47.55494" lon="6.7383">
        <ele>448.7</ele>
        <time>2017-10-15T09:05:33.999Z</time>
      </trkpt>
      <trkpt lat="47.55489" lon="6.73823">
        <ele>448.9</ele>
        <time>2017-10-15T09:05:34.999Z</time>
      </trkpt>
      <trkpt lat="47.55485" lon="6.73817">
        <ele>448.5</ele>
        <time>2017-10-15T09:05:35.999Z</time>
      </trkpt>
      <trkpt lat="47.5548" lon="6.7381">
        <ele>448.2</ele>
        <time>2017-10-15T09:05:36.999Z</time>
      </trkpt>
      <trkpt lat="47.55475" lon="6.73803">
        <ele>448.5</ele>
        <time>2017-10-15T09:05:37.999Z</time>
      </trkpt>
      <trkpt lat="47.55471" lon="6.73798">
        <ele>448.5</ele>
        <time>2017-10-15T09:05:38.999Z</time>
      </trkpt>
      <trkpt lat="47.55467" lon="6.73795">
        <ele>448.5</ele>
        <time>2017-10-15T09:05:39.999Z</time>
      </trkpt>
      <trkpt lat="47.55463" lon="6.7379">
        <ele>448.4</ele>
        <time>2017-10-15T09:05:40.999Z</time>
      </trkpt>
      <trkpt lat="47.5546" lon="6.73786">
        <ele>448.3</ele>
        <time>2017-10-15T09:05:41.999Z</time>
      </trkpt>
      <trkpt lat="47.55457" lon="6.73782">
        <ele>448.3</ele>
        <time>2017-10-15T09:05:42.999Z</time>
      </trkpt>
      <trkpt lat="47.55451" lon="6.73775">
        <ele>447.6</ele>
        <time>2017-10-15T09:05:43.999Z</time>
      </trkpt>
      <trkpt lat="47.55447" lon="6.73769">
        <ele>447.4</ele>
        <time>2017-10-15T09:05:44.999Z</time>
      </trkpt>
      <trkpt lat="47.5544" lon="6.73761">
        <ele>447.2</ele>
        <time>2017-10-15T09:05:45.999Z</time>
      </trkpt>
      <trkpt lat="47.55434" lon="6.73754">
        <ele>446.3</ele>
        <time>2017-10-15T09:05:46.999Z</time>
      </trkpt>
      <trkpt lat="47.5543" lon="6.73748">
        <ele>446.3</ele>
        <time>2017-10-15T09:05:47.999Z</time>
      </trkpt>
      <trkpt lat="47.55426" lon="6.73741">
        <ele>445.2</ele>
        <time>2017-10-15T09:05:48.999Z</time>
      </trkpt>
      <trkpt lat="47.55422" lon="6.73733">
        <ele>444.1</ele>
        <time>2017-10-15T09:05:49.999Z</time>
      </trkpt>
      <trkpt lat="47.55417" lon="6.73725">
        <ele>443.3</ele>
        <time>2017-10-15T09:05:50.999Z</time>
      </trkpt>
      <trkpt lat="47.55413" lon="6.73718">
        <ele>442.1</ele>
        <time>2017-10-15T09:05:51.999Z</time>
      </trkpt>
      <trkpt lat="47.55407" lon="6.73713">
        <ele>440.8</ele>
        <time>2017-10-15T09:05:52.999Z</time>
      </trkpt>
      <trkpt lat="47.55403" lon="6.73708">
        <ele>439.4</ele>
        <time>2017-10-15T09:05:53.999Z</time>
      </trkpt>
      <trkpt lat="47.55398" lon="6.73702">
        <ele>438.8</ele>
        <time>2017-10-15T09:05:54.999Z</time>
      </trkpt>
      <trkpt lat="47.55393" lon="6.73693">
        <ele>438.2</ele>
        <time>2017-10-15T09:05:55.999Z</time>
      </trkpt>
      <trkpt lat="47.55388" lon="6.73684">
        <ele>438.6</ele>
        <time>2017-10-15T09:05:56.999Z</time>
      </trkpt>
      <trkpt lat="47.55383" lon="6.73678">
        <ele>437.5</ele>
        <time>2017-10-15T09:05:57.999Z</time>
      </trkpt>
      <trkpt lat="47.55378" lon="6.73672">
        <ele>436.8</ele>
        <time>2017-10-15T09:05:58.999Z</time>
      </trkpt>
      <trkpt lat="47.55374" lon="6.73667">
        <ele>436.4</ele>
        <time>2017-10-15T09:05:59.999Z</time>
      </trkpt>
      <trkpt lat="47.55369" lon="6.73663">
        <ele>435.8</ele>
        <time>2017-10-15T09:06:00.999Z</time>
      </trkpt>
      <trkpt lat="47.55364" lon="6.73658">
        <ele>434.5</ele>
        <time>2017-10-15T09:06:01.999Z</time>
      </trkpt>
      <trkpt lat="47.55359" lon="6.73652">
        <ele>433.6</ele>
        <time>2017-10-15T09:06:02.999Z</time>
      </trkpt>
      <trkpt lat="47.55353" lon="6.73647">
        <ele>433</ele>
        <time>2017-10-15T09:06:03.999Z</time>
      </trkpt>
      <trkpt lat="47.55349" lon="6.73642">
        <ele>431.9</ele>
        <time>2017-10-15T09:06:04.999Z</time>
      </trkpt>
      <trkpt lat="47.55344" lon="6.73637">
        <ele>431.8</ele>
        <time>2017-10-15T09:06:05.999Z</time>
      </trkpt>
      <trkpt lat="47.55339" lon="6.73631">
        <ele>432.4</ele>
        <time>2017-10-15T09:06:06.999Z</time>
      </trkpt>
      <trkpt lat="47.55334" lon="6.73624">
        <ele>432.5</ele>
        <time>2017-10-15T09:06:07.999Z</time>
      </trkpt>
      <trkpt lat="47.55329" lon="6.73616">
        <ele>432.4</ele>
        <time>2017-10-15T09:06:08.999Z</time>
      </trkpt>
      <trkpt lat="47.55322" lon="6.73606">
        <ele>432.1</ele>
        <time>2017-10-15T09:06:09.999Z</time>
      </trkpt>
      <trkpt lat="47.55317" lon="6.73598">
        <ele>432.6</ele>
        <time>2017-10-15T09:06:10.999Z</time>
      </trkpt>
      <trkpt lat="47.55311" lon="6.73592">
        <ele>432.3</ele>
        <time>2017-10-15T09:06:11.999Z</time>
      </trkpt>
      <trkpt lat="47.55305" lon="6.73585">
        <ele>432.1</ele>
        <time>2017-10-15T09:06:12.999Z</time>
      </trkpt>
      <trkpt lat="47.55297" lon="6.73577">
        <ele>431.2</ele>
        <time>2017-10-15T09:06:13.999Z</time>
      </trkpt>
      <trkpt lat="47.55289" lon="6.73569">
        <ele>430.6</ele>
        <time>2017-10-15T09:06:14.999Z</time>
      </trkpt>
      <trkpt lat="47.55282" lon="6.73564">
        <ele>430.6</ele>
        <time>2017-10-15T09:06:15.999Z</time>
      </trkpt>
      <trkpt lat="47.55277" lon="6.7356">
        <ele>431.5</ele>
        <time>2017-10-15T09:06:16.999Z</time>
      </trkpt>
      <trkpt lat="47.55269" lon="6.73555">
        <ele>432.3</ele>
        <time>2017-10-15T09:06:17.999Z</time>
      </trkpt>
      <trkpt lat="47.5526" lon="6.73549">
        <ele>433</ele>
        <time>2017-10-15T09:06:18.999Z</time>
      </trkpt>
      <trkpt lat="47.55253" lon="6.73544">
        <ele>433.8</ele>
        <time>2017-10-15T09:06:19.999Z</time>
      </trkpt>
      <trkpt lat="47.55247" lon="6.73539">
        <ele>434.5</ele>
        <time>2017-10-15T09:06:20.999Z</time>
      </trkpt>
      <trkpt lat="47.5524" lon="6.73535">
        <ele>435.2</ele>
        <time>2017-10-15T09:06:21.999Z</time>
      </trkpt>
      <trkpt lat="47.55233" lon="6.73531">
        <ele>436.3</ele>
        <time>2017-10-15T09:06:22.999Z</time>
      </trkpt>
      <trkpt lat="47.55226" lon="6.73528">
        <ele>437.2</ele>
        <time>2017-10-15T09:06:23.999Z</time>
      </trkpt>
      <trkpt lat="47.5522" lon="6.73523">
        <ele>437.3</ele>
        <time>2017-10-15T09:06:24.999Z</time>
      </trkpt>
      <trkpt lat="47.55212" lon="6.73518">
        <ele>436.8</ele>
        <time>2017-10-15T09:06:25.999Z</time>
      </trkpt>
      <trkpt lat="47.55205" lon="6.73513">
        <ele>437</ele>
        <time>2017-10-15T09:06:26.999Z</time>
      </trkpt>
      <trkpt lat="47.55198" lon="6.73512">
        <ele>437.3</ele>
        <time>2017-10-15T09:06:27.999Z</time>
      </trkpt>
      <trkpt lat="47.5519" lon="6.7351">
        <ele>436.9</ele>
        <time>2017-10-15T09:06:28.999Z</time>
      </trkpt>
      <trkpt lat="47.55182" lon="6.73507">
        <ele>436.7</ele>
        <time>2017-10-15T09:06:29.999Z</time>
      </trkpt>
      <trkpt lat="47.55174" lon="6.73504">
        <ele>437.1</ele>
        <time>2017-10-15T09:06:30.999Z</time>
      </trkpt>
      <trkpt lat="47.55167" lon="6.73502">
        <ele>438</ele>
        <time>2017-10-15T09:06:31.999Z</time>
      </trkpt>
      <trkpt lat="47.55161" lon="6.73499">
        <ele>439.6</ele>
        <time>2017-10-15T09:06:32.999Z</time>
      </trkpt>
      <trkpt lat="47.55155" lon="6.73496">
        <ele>440.5</ele>
        <time>2017-10-15T09:06:33.999Z</time>
      </trkpt>
      <trkpt lat="47.55148" lon="6.73492">
        <ele>441.4</ele>
        <time>2017-10-15T09:06:34.999Z</time>
      </trkpt>
      <trkpt lat="47.55142" lon="6.73488">
        <ele>442.8</ele>
        <time>2017-10-15T09:06:35.999Z</time>
      </trkpt>
      <trkpt lat="47.55137" lon="6.73486">
        <ele>443.8</ele>
        <time>2017-10-15T09:06:36.999Z</time>
      </trkpt>
      <trkpt lat="47.55132" lon="6.73486">
        <ele>444.6</ele>
        <time>2017-10-15T09:06:37.999Z</time>
      </trkpt>
      <trkpt lat="47.55127" lon="6.73487">
        <ele>445.5</ele>
        <time>2017-10-15T09:06:38.999Z</time>
      </trkpt>
      <trkpt lat="47.55125" lon="6.73491">
        <ele>445.5</ele>
        <time>2017-10-15T09:06:39.999Z</time>
      </trkpt>
      <trkpt lat="47.55123" lon="6.73493">
        <ele>445.6</ele>
        <time>2017-10-15T09:06:40.999Z</time>
      </trkpt>
      <trkpt lat="47.55122" lon="6.73496">
        <ele>445.6</ele>
        <time>2017-10-15T09:06:41.999Z</time>
      </trkpt>
      <trkpt lat="47.55119" lon="6.73501">
        <ele>445.8</ele>
        <time>2017-10-15T09:06:43.999Z</time>
      </trkpt>
      <trkpt lat="47.55118" lon="6.73502">
        <ele>445.9</ele>
        <time>2017-10-15T09:06:44.999Z</time>
      </trkpt>
      <trkpt lat="47.55116" lon="6.73505">
        <ele>445.9</ele>
        <time>2017-10-15T09:06:45.999Z</time>
      </trkpt>
      <trkpt lat="47.55114" lon="6.73508">
        <ele>446</ele>
        <time>2017-10-15T09:06:46.999Z</time>
      </trkpt>
      <trkpt lat="47.55112" lon="6.73512">
        <ele>446</ele>
        <time>2017-10-15T09:06:47.999Z</time>
      </trkpt>
      <trkpt lat="47.55111" lon="6.73515">
        <ele>445.9</ele>
        <time>2017-10-15T09:06:48.999Z</time>
      </trkpt>
      <trkpt lat="47.55111" lon="6.73518">
        <ele>445.9</ele>
        <time>2017-10-15T09:06:49.999Z</time>
      </trkpt>
      <trkpt lat="47.5511" lon="6.73521">
        <ele>445.8</ele>
        <time>2017-10-15T09:06:50.999Z</time>
      </trkpt>
      <trkpt lat="47.55108" lon="6.73524">
        <ele>445.8</ele>
        <time>2017-10-15T09:06:51.999Z</time>
      </trkpt>
      <trkpt lat="47.55107" lon="6.73528">
        <ele>445.7</ele>
        <time>2017-10-15T09:06:52.999Z</time>
      </trkpt>
      <trkpt lat="47.55106" lon="6.73531">
        <ele>445.6</ele>
        <time>2017-10-15T09:06:53.999Z</time>
      </trkpt>
      <trkpt lat="47.55105" lon="6.73536">
        <ele>445.5</ele>
        <time>2017-10-15T09:06:54.999Z</time>
      </trkpt>
      <trkpt lat="47.55104" lon="6.73539">
        <ele>445.5</ele>
        <time>2017-10-15T09:06:55.999Z</time>
      </trkpt>
      <trkpt lat="47.55103" lon="6.73542">
        <ele>445.3</ele>
        <time>2017-10-15T09:06:56.999Z</time>
      </trkpt>
      <trkpt lat="47.55101" lon="6.73545">
        <ele>445.1</ele>
        <time>2017-10-15T09:06:57.999Z</time>
      </trkpt>
      <trkpt lat="47.551" lon="6.73548">
        <ele>444.9</ele>
        <time>2017-10-15T09:06:58.999Z</time>
      </trkpt>
      <trkpt lat="47.55099" lon="6.73552">
        <ele>444.7</ele>
        <time>2017-10-15T09:06:59.999Z</time>
      </trkpt>
      <trkpt lat="47.55098" lon="6.73555">
        <ele>444.6</ele>
        <time>2017-10-15T09:07:00.999Z</time>
      </trkpt>
      <trkpt lat="47.55097" lon="6.73559">
        <ele>444.5</ele>
        <time>2017-10-15T09:07:01.999Z</time>
      </trkpt>
      <trkpt lat="47.55096" lon="6.73561">
        <ele>444.5</ele>
        <time>2017-10-15T09:07:02.999Z</time>
      </trkpt>
      <trkpt lat="47.55095" lon="6.73567">
        <ele>444.5</ele>
        <time>2017-10-15T09:07:04.999Z</time>
      </trkpt>
      <trkpt lat="47.55094" lon="6.73569">
        <ele>444.5</ele>
        <time>2017-10-15T09:07:05.999Z</time>
      </trkpt>
      <trkpt lat="47.55094" lon="6.73575">
        <ele>444.7</ele>
        <time>2017-10-15T09:07:07.999Z</time>
      </trkpt>
      <trkpt lat="47.55093" lon="6.73577">
        <ele>444.8</ele>
        <time>2017-10-15T09:07:08.999Z</time>
      </trkpt>
      <trkpt lat="47.55091" lon="6.73582">
        <ele>445</ele>
        <time>2017-10-15T09:07:10.999Z</time>
      </trkpt>
      <trkpt lat="47.55091" lon="6.73585">
        <ele>445.1</ele>
        <time>2017-10-15T09:07:11.999Z</time>
      </trkpt>
      <trkpt lat="47.55091" lon="6.73592">
        <ele>445.1</ele>
        <time>2017-10-15T09:07:13.999Z</time>
      </trkpt>
      <trkpt lat="47.55091" lon="6.73595">
        <ele>445.1</ele>
        <time>2017-10-15T09:07:14.999Z</time>
      </trkpt>
      <trkpt lat="47.55091" lon="6.73601">
        <ele>445.2</ele>
        <time>2017-10-15T09:07:16.999Z</time>
      </trkpt>
      <trkpt lat="47.5509" lon="6.73604">
        <ele>445.3</ele>
        <time>2017-10-15T09:07:17.999Z</time>
      </trkpt>
      <trkpt lat="47.55091" lon="6.7361">
        <ele>445.6</ele>
        <time>2017-10-15T09:07:19.999Z</time>
      </trkpt>
      <trkpt lat="47.55091" lon="6.73613">
        <ele>445.7</ele>
        <time>2017-10-15T09:07:20.999Z</time>
      </trkpt>
      <trkpt lat="47.5509" lon="6.7362">
        <ele>446.1</ele>
        <time>2017-10-15T09:07:22.999Z</time>
      </trkpt>
      <trkpt lat="47.5509" lon="6.73622">
        <ele>446.3</ele>
        <time>2017-10-15T09:07:23.999Z</time>
      </trkpt>
      <trkpt lat="47.55091" lon="6.73627">
        <ele>446.8</ele>
        <time>2017-10-15T09:07:25.999Z</time>
      </trkpt>
      <trkpt lat="47.5509" lon="6.7363">
        <ele>447.1</ele>
        <time>2017-10-15T09:07:26.999Z</time>
      </trkpt>
      <trkpt lat="47.5509" lon="6.73634">
        <ele>447.2</ele>
        <time>2017-10-15T09:07:27.999Z</time>
      </trkpt>
      <trkpt lat="47.5509" lon="6.73639">
        <ele>447.4</ele>
        <time>2017-10-15T09:07:28.999Z</time>
      </trkpt>
      <trkpt lat="47.5509" lon="6.73645">
        <ele>447.7</ele>
        <time>2017-10-15T09:07:30.999Z</time>
      </trkpt>
      <trkpt lat="47.5509" lon="6.73647">
        <ele>447.8</ele>
        <time>2017-10-15T09:07:31.999Z</time>
      </trkpt>
      <trkpt lat="47.55089" lon="6.73652">
        <ele>448.2</ele>
        <time>2017-10-15T09:07:33.999Z</time>
      </trkpt>
      <trkpt lat="47.55088" lon="6.73655">
        <ele>448.3</ele>
        <time>2017-10-15T09:07:34.999Z</time>
      </trkpt>
      <trkpt lat="47.55087" lon="6.7366">
        <ele>448.7</ele>
        <time>2017-10-15T09:07:36.999Z</time>
      </trkpt>
      <trkpt lat="47.55087" lon="6.73662">
        <ele>448.9</ele>
        <time>2017-10-15T09:07:37.999Z</time>
      </trkpt>
      <trkpt lat="47.55087" lon="6.73667">
        <ele>449.3</ele>
        <time>2017-10-15T09:07:39.999Z</time>
      </trkpt>
      <trkpt lat="47.55087" lon="6.73669">
        <ele>449.5</ele>
        <time>2017-10-15T09:07:40.999Z</time>
      </trkpt>
      <trkpt lat="47.55087" lon="6.73675">
        <ele>450</ele>
        <time>2017-10-15T09:07:43.999Z</time>
      </trkpt>
      <trkpt lat="47.55087" lon="6.73678">
        <ele>450.2</ele>
        <time>2017-10-15T09:07:44.999Z</time>
      </trkpt>
      <trkpt lat="47.55086" lon="6.73682">
        <ele>450.5</ele>
        <time>2017-10-15T09:07:47.999Z</time>
      </trkpt>
      <trkpt lat="47.55086" lon="6.73685">
        <ele>450.6</ele>
        <time>2017-10-15T09:07:48.999Z</time>
      </trkpt>
      <trkpt lat="47.55087" lon="6.7369">
        <ele>450.8</ele>
        <time>2017-10-15T09:07:50.999Z</time>
      </trkpt>
      <trkpt lat="47.55087" lon="6.73693">
        <ele>451.1</ele>
        <time>2017-10-15T09:07:51.999Z</time>
      </trkpt>
      <trkpt lat="47.55087" lon="6.73698">
        <ele>451.4</ele>
        <time>2017-10-15T09:07:53.999Z</time>
      </trkpt>
      <trkpt lat="47.55087" lon="6.737">
        <ele>451.5</ele>
        <time>2017-10-15T09:07:54.999Z</time>
      </trkpt>
      <trkpt lat="47.55087" lon="6.73707">
        <ele>451.9</ele>
        <time>2017-10-15T09:07:56.999Z</time>
      </trkpt>
      <trkpt lat="47.55086" lon="6.73709">
        <ele>452</ele>
        <time>2017-10-15T09:07:57.999Z</time>
      </trkpt>
      <trkpt lat="47.55086" lon="6.73714">
        <ele>452.3</ele>
        <time>2017-10-15T09:07:59.999Z</time>
      </trkpt>
      <trkpt lat="47.55086" lon="6.73716">
        <ele>452.5</ele>
        <time>2017-10-15T09:08:00.999Z</time>
      </trkpt>
      <trkpt lat="47.55085" lon="6.73722">
        <ele>452.8</ele>
        <time>2017-10-15T09:08:02.999Z</time>
      </trkpt>
      <trkpt lat="47.55084" lon="6.73725">
        <ele>452.9</ele>
        <time>2017-10-15T09:08:03.999Z</time>
      </trkpt>
      <trkpt lat="47.55083" lon="6.73729">
        <ele>453</ele>
        <time>2017-10-15T09:08:04.999Z</time>
      </trkpt>
      <trkpt lat="47.55083" lon="6.73732">
        <ele>453.1</ele>
        <time>2017-10-15T09:08:05.999Z</time>
      </trkpt>
      <trkpt lat="47.55083" lon="6.73737">
        <ele>453.2</ele>
        <time>2017-10-15T09:08:07.999Z</time>
      </trkpt>
      <trkpt lat="47.55082" lon="6.7374">
        <ele>453.3</ele>
        <time>2017-10-15T09:08:08.999Z</time>
      </trkpt>
      <trkpt lat="47.55082" lon="6.73746">
        <ele>453.4</ele>
        <time>2017-10-15T09:08:10.999Z</time>
      </trkpt>
      <trkpt lat="47.55082" lon="6.73749">
        <ele>453.5</ele>
        <time>2017-10-15T09:08:11.999Z</time>
      </trkpt>
      <trkpt lat="47.55081" lon="6.73753">
        <ele>453.5</ele>
        <time>2017-10-15T09:08:12.999Z</time>
      </trkpt>
      <trkpt lat="47.5508" lon="6.73757">
        <ele>453.5</ele>
        <time>2017-10-15T09:08:13.999Z</time>
      </trkpt>
      <trkpt lat="47.55079" lon="6.7376">
        <ele>453.5</ele>
        <time>2017-10-15T09:08:14.999Z</time>
      </trkpt>
      <trkpt lat="47.55078" lon="6.73763">
        <ele>453.5</ele>
        <time>2017-10-15T09:08:15.999Z</time>
      </trkpt>
      <trkpt lat="47.55077" lon="6.73766">
        <ele>453.5</ele>
        <time>2017-10-15T09:08:16.999Z</time>
      </trkpt>
      <trkpt lat="47.55076" lon="6.7377">
        <ele>453.5</ele>
        <time>2017-10-15T09:08:17.999Z</time>
      </trkpt>
      <trkpt lat="47.55075" lon="6.73775">
        <ele>453.6</ele>
        <time>2017-10-15T09:08:19.999Z</time>
      </trkpt>
      <trkpt lat="47.55074" lon="6.73779">
        <ele>453.7</ele>
        <time>2017-10-15T09:08:20.999Z</time>
      </trkpt>
      <trkpt lat="47.55073" lon="6.73782">
        <ele>453.8</ele>
        <time>2017-10-15T09:08:21.999Z</time>
      </trkpt>
      <trkpt lat="47.55071" lon="6.73785">
        <ele>453.9</ele>
        <time>2017-10-15T09:08:22.999Z</time>
      </trkpt>
      <trkpt lat="47.5507" lon="6.73789">
        <ele>453.8</ele>
        <time>2017-10-15T09:08:23.999Z</time>
      </trkpt>
      <trkpt lat="47.55068" lon="6.73793">
        <ele>453.7</ele>
        <time>2017-10-15T09:08:24.999Z</time>
      </trkpt>
      <trkpt lat="47.55066" lon="6.73798">
        <ele>453.7</ele>
        <time>2017-10-15T09:08:25.999Z</time>
      </trkpt>
      <trkpt lat="47.55065" lon="6.73801">
        <ele>453.7</ele>
        <time>2017-10-15T09:08:26.999Z</time>
      </trkpt>
      <trkpt lat="47.55064" lon="6.73804">
        <ele>453.7</ele>
        <time>2017-10-15T09:08:27.999Z</time>
      </trkpt>
      <trkpt lat="47.55063" lon="6.73807">
        <ele>453.7</ele>
        <time>2017-10-15T09:08:28.999Z</time>
      </trkpt>
      <trkpt lat="47.55062" lon="6.7381">
        <ele>453.8</ele>
        <time>2017-10-15T09:08:29.999Z</time>
      </trkpt>
      <trkpt lat="47.55061" lon="6.73814">
        <ele>453.9</ele>
        <time>2017-10-15T09:08:30.999Z</time>
      </trkpt>
      <trkpt lat="47.55061" lon="6.73818">
        <ele>454</ele>
        <time>2017-10-15T09:08:31.999Z</time>
      </trkpt>
      <trkpt lat="47.5506" lon="6.73822">
        <ele>454.1</ele>
        <time>2017-10-15T09:08:32.999Z</time>
      </trkpt>
      <trkpt lat="47.5506" lon="6.73827">
        <ele>454.2</ele>
        <time>2017-10-15T09:08:33.999Z</time>
      </trkpt>
      <trkpt lat="47.55059" lon="6.73831">
        <ele>454.5</ele>
        <time>2017-10-15T09:08:34.999Z</time>
      </trkpt>
      <trkpt lat="47.55058" lon="6.73834">
        <ele>454.6</ele>
        <time>2017-10-15T09:08:35.999Z</time>
      </trkpt>
      <trkpt lat="47.55057" lon="6.73838">
        <ele>454.8</ele>
        <time>2017-10-15T09:08:36.999Z</time>
      </trkpt>
      <trkpt lat="47.55056" lon="6.73841">
        <ele>455</ele>
        <time>2017-10-15T09:08:37.999Z</time>
      </trkpt>
      <trkpt lat="47.55055" lon="6.73845">
        <ele>455.1</ele>
        <time>2017-10-15T09:08:38.999Z</time>
      </trkpt>
      <trkpt lat="47.55056" lon="6.73849">
        <ele>455.1</ele>
        <time>2017-10-15T09:08:39.999Z</time>
      </trkpt>
      <trkpt lat="47.55057" lon="6.73852">
        <ele>455.2</ele>
        <time>2017-10-15T09:08:40.999Z</time>
      </trkpt>
      <trkpt lat="47.55057" lon="6.73855">
        <ele>455.3</ele>
        <time>2017-10-15T09:08:41.999Z</time>
      </trkpt>
      <trkpt lat="47.55056" lon="6.7386">
        <ele>455.4</ele>
        <time>2017-10-15T09:08:42.999Z</time>
      </trkpt>
      <trkpt lat="47.55055" lon="6.73863">
        <ele>455.5</ele>
        <time>2017-10-15T09:08:43.999Z</time>
      </trkpt>
      <trkpt lat="47.55054" lon="6.73866">
        <ele>455.7</ele>
        <time>2017-10-15T09:08:44.999Z</time>
      </trkpt>
      <trkpt lat="47.55053" lon="6.7387">
        <ele>455.8</ele>
        <time>2017-10-15T09:08:45.999Z</time>
      </trkpt>
      <trkpt lat="47.55052" lon="6.73874">
        <ele>456</ele>
        <time>2017-10-15T09:08:46.999Z</time>
      </trkpt>
      <trkpt lat="47.55051" lon="6.73879">
        <ele>456.1</ele>
        <time>2017-10-15T09:08:47.999Z</time>
      </trkpt>
      <trkpt lat="47.55049" lon="6.73884">
        <ele>456.2</ele>
        <time>2017-10-15T09:08:48.999Z</time>
      </trkpt>
      <trkpt lat="47.55048" lon="6.73889">
        <ele>456.4</ele>
        <time>2017-10-15T09:08:49.999Z</time>
      </trkpt>
      <trkpt lat="47.55046" lon="6.73894">
        <ele>456.5</ele>
        <time>2017-10-15T09:08:50.999Z</time>
      </trkpt>
      <trkpt lat="47.55045" lon="6.73898">
        <ele>456.7</ele>
        <time>2017-10-15T09:08:51.999Z</time>
      </trkpt>
      <trkpt lat="47.55044" lon="6.73903">
        <ele>456.8</ele>
        <time>2017-10-15T09:08:52.999Z</time>
      </trkpt>
      <trkpt lat="47.55042" lon="6.73909">
        <ele>456.8</ele>
        <time>2017-10-15T09:08:53.999Z</time>
      </trkpt>
      <trkpt lat="47.55041" lon="6.73914">
        <ele>456.9</ele>
        <time>2017-10-15T09:08:54.999Z</time>
      </trkpt>
      <trkpt lat="47.5504" lon="6.73919">
        <ele>457</ele>
        <time>2017-10-15T09:08:55.999Z</time>
      </trkpt>
      <trkpt lat="47.55039" lon="6.73924">
        <ele>457.5</ele>
        <time>2017-10-15T09:08:56.999Z</time>
      </trkpt>
      <trkpt lat="47.55037" lon="6.7393">
        <ele>458.1</ele>
        <time>2017-10-15T09:08:57.999Z</time>
      </trkpt>
      <trkpt lat="47.55036" lon="6.73936">
        <ele>458.1</ele>
        <time>2017-10-15T09:08:58.999Z</time>
      </trkpt>
      <trkpt lat="47.55034" lon="6.73942">
        <ele>457.9</ele>
        <time>2017-10-15T09:08:59.999Z</time>
      </trkpt>
      <trkpt lat="47.55033" lon="6.73949">
        <ele>457.6</ele>
        <time>2017-10-15T09:09:00.999Z</time>
      </trkpt>
      <trkpt lat="47.55031" lon="6.73955">
        <ele>457.2</ele>
        <time>2017-10-15T09:09:01.999Z</time>
      </trkpt>
      <trkpt lat="47.55029" lon="6.73962">
        <ele>457.4</ele>
        <time>2017-10-15T09:09:02.999Z</time>
      </trkpt>
      <trkpt lat="47.55028" lon="6.73968">
        <ele>456.8</ele>
        <time>2017-10-15T09:09:03.999Z</time>
      </trkpt>
      <trkpt lat="47.55026" lon="6.73972">
        <ele>456.7</ele>
        <time>2017-10-15T09:09:04.999Z</time>
      </trkpt>
      <trkpt lat="47.55025" lon="6.73978">
        <ele>456.6</ele>
        <time>2017-10-15T09:09:05.999Z</time>
      </trkpt>
      <trkpt lat="47.55022" lon="6.73985">
        <ele>455.5</ele>
        <time>2017-10-15T09:09:06.999Z</time>
      </trkpt>
      <trkpt lat="47.5502" lon="6.73991">
        <ele>454.8</ele>
        <time>2017-10-15T09:09:07.999Z</time>
      </trkpt>
      <trkpt lat="47.55018" lon="6.73997">
        <ele>454.8</ele>
        <time>2017-10-15T09:09:08.999Z</time>
      </trkpt>
      <trkpt lat="47.55016" lon="6.74002">
        <ele>454.8</ele>
        <time>2017-10-15T09:09:09.999Z</time>
      </trkpt>
      <trkpt lat="47.55014" lon="6.74008">
        <ele>454.7</ele>
        <time>2017-10-15T09:09:10.999Z</time>
      </trkpt>
      <trkpt lat="47.55012" lon="6.74013">
        <ele>454.7</ele>
        <time>2017-10-15T09:09:11.999Z</time>
      </trkpt>
      <trkpt lat="47.5501" lon="6.74019">
        <ele>454.6</ele>
        <time>2017-10-15T09:09:12.999Z</time>
      </trkpt>
      <trkpt lat="47.55008" lon="6.74024">
        <ele>454.5</ele>
        <time>2017-10-15T09:09:13.999Z</time>
      </trkpt>
      <trkpt lat="47.55006" lon="6.74029">
        <ele>454.4</ele>
        <time>2017-10-15T09:09:14.999Z</time>
      </trkpt>
      <trkpt lat="47.55004" lon="6.74034">
        <ele>454.4</ele>
        <time>2017-10-15T09:09:15.999Z</time>
      </trkpt>
      <trkpt lat="47.55002" lon="6.7404">
        <ele>454.4</ele>
        <time>2017-10-15T09:09:16.999Z</time>
      </trkpt>
      <trkpt lat="47.54999" lon="6.74047">
        <ele>455.1</ele>
        <time>2017-10-15T09:09:17.999Z</time>
      </trkpt>
      <trkpt lat="47.54998" lon="6.74053">
        <ele>456</ele>
        <time>2017-10-15T09:09:18.999Z</time>
      </trkpt>
      <trkpt lat="47.54996" lon="6.7406">
        <ele>457.3</ele>
        <time>2017-10-15T09:09:19.999Z</time>
      </trkpt>
      <trkpt lat="47.54994" lon="6.74066">
        <ele>457.4</ele>
        <time>2017-10-15T09:09:20.999Z</time>
      </trkpt>
      <trkpt lat="47.54992" lon="6.74073">
        <ele>458.3</ele>
        <time>2017-10-15T09:09:21.999Z</time>
      </trkpt>
      <trkpt lat="47.5499" lon="6.74083">
        <ele>459.7</ele>
        <time>2017-10-15T09:09:22.999Z</time>
      </trkpt>
      <trkpt lat="47.54988" lon="6.7409">
        <ele>459.7</ele>
        <time>2017-10-15T09:09:23.999Z</time>
      </trkpt>
      <trkpt lat="47.54989" lon="6.74095">
        <ele>459.8</ele>
        <time>2017-10-15T09:09:24.999Z</time>
      </trkpt>
      <trkpt lat="47.5499" lon="6.74099">
        <ele>460</ele>
        <time>2017-10-15T09:09:25.999Z</time>
      </trkpt>
      <trkpt lat="47.54991" lon="6.74103">
        <ele>460.1</ele>
        <time>2017-10-15T09:09:26.999Z</time>
      </trkpt>
      <trkpt lat="47.54991" lon="6.74107">
        <ele>460.1</ele>
        <time>2017-10-15T09:09:27.999Z</time>
      </trkpt>
      <trkpt lat="47.54991" lon="6.74111">
        <ele>460.2</ele>
        <time>2017-10-15T09:09:28.999Z</time>
      </trkpt>
      <trkpt lat="47.54992" lon="6.74116">
        <ele>460.2</ele>
        <time>2017-10-15T09:09:29.999Z</time>
      </trkpt>
      <trkpt lat="47.54993" lon="6.7412">
        <ele>460.2</ele>
        <time>2017-10-15T09:09:30.999Z</time>
      </trkpt>
      <trkpt lat="47.54993" lon="6.74124">
        <ele>460.2</ele>
        <time>2017-10-15T09:09:31.999Z</time>
      </trkpt>
      <trkpt lat="47.54994" lon="6.74128">
        <ele>460.2</ele>
        <time>2017-10-15T09:09:32.999Z</time>
      </trkpt>
      <trkpt lat="47.54994" lon="6.74131">
        <ele>460.3</ele>
        <time>2017-10-15T09:09:33.999Z</time>
      </trkpt>
      <trkpt lat="47.54996" lon="6.74137">
        <ele>460.5</ele>
        <time>2017-10-15T09:09:35.999Z</time>
      </trkpt>
      <trkpt lat="47.54997" lon="6.74139">
        <ele>460.6</ele>
        <time>2017-10-15T09:09:36.999Z</time>
      </trkpt>
      <trkpt lat="47.55" lon="6.74144">
        <ele>460.8</ele>
        <time>2017-10-15T09:09:38.999Z</time>
      </trkpt>
      <trkpt lat="47.55001" lon="6.74147">
        <ele>460.9</ele>
        <time>2017-10-15T09:09:39.999Z</time>
      </trkpt>
      <trkpt lat="47.55003" lon="6.7415">
        <ele>461</ele>
        <time>2017-10-15T09:09:40.999Z</time>
      </trkpt>
      <trkpt lat="47.55005" lon="6.74153">
        <ele>461.2</ele>
        <time>2017-10-15T09:09:41.999Z</time>
      </trkpt>
      <trkpt lat="47.55007" lon="6.74157">
        <ele>461.3</ele>
        <time>2017-10-15T09:09:42.999Z</time>
      </trkpt>
      <trkpt lat="47.55008" lon="6.7416">
        <ele>461.4</ele>
        <time>2017-10-15T09:09:43.999Z</time>
      </trkpt>
      <trkpt lat="47.5501" lon="6.74162">
        <ele>461.6</ele>
        <time>2017-10-15T09:09:44.999Z</time>
      </trkpt>
      <trkpt lat="47.5501" lon="6.74166">
        <ele>461.8</ele>
        <time>2017-10-15T09:09:45.999Z</time>
      </trkpt>
      <trkpt lat="47.55011" lon="6.74172">
        <ele>461.9</ele>
        <time>2017-10-15T09:09:46.999Z</time>
      </trkpt>
      <trkpt lat="47.55012" lon="6.74177">
        <ele>462</ele>
        <time>2017-10-15T09:09:47.999Z</time>
      </trkpt>
      <trkpt lat="47.55013" lon="6.7418">
        <ele>462</ele>
        <time>2017-10-15T09:09:48.999Z</time>
      </trkpt>
      <trkpt lat="47.55014" lon="6.74183">
        <ele>462.2</ele>
        <time>2017-10-15T09:09:49.999Z</time>
      </trkpt>
      <trkpt lat="47.55015" lon="6.74186">
        <ele>462.3</ele>
        <time>2017-10-15T09:09:50.999Z</time>
      </trkpt>
      <trkpt lat="47.55016" lon="6.7419">
        <ele>462.3</ele>
        <time>2017-10-15T09:09:51.999Z</time>
      </trkpt>
      <trkpt lat="47.55016" lon="6.74194">
        <ele>462.4</ele>
        <time>2017-10-15T09:09:52.999Z</time>
      </trkpt>
      <trkpt lat="47.55017" lon="6.742">
        <ele>462.5</ele>
        <time>2017-10-15T09:09:53.999Z</time>
      </trkpt>
      <trkpt lat="47.55017" lon="6.74204">
        <ele>462.6</ele>
        <time>2017-10-15T09:09:54.999Z</time>
      </trkpt>
      <trkpt lat="47.55018" lon="6.74212">
        <ele>462.8</ele>
        <time>2017-10-15T09:09:55.999Z</time>
      </trkpt>
      <trkpt lat="47.55018" lon="6.74217">
        <ele>463</ele>
        <time>2017-10-15T09:09:56.999Z</time>
      </trkpt>
      <trkpt lat="47.55018" lon="6.74222">
        <ele>463.3</ele>
        <time>2017-10-15T09:09:57.999Z</time>
      </trkpt>
      <trkpt lat="47.55018" lon="6.74227">
        <ele>463.6</ele>
        <time>2017-10-15T09:09:58.999Z</time>
      </trkpt>
      <trkpt lat="47.55017" lon="6.74231">
        <ele>464</ele>
        <time>2017-10-15T09:09:59.999Z</time>
      </trkpt>
      <trkpt lat="47.55017" lon="6.74235">
        <ele>464.3</ele>
        <time>2017-10-15T09:10:00.999Z</time>
      </trkpt>
      <trkpt lat="47.55017" lon="6.74241">
        <ele>464.5</ele>
        <time>2017-10-15T09:10:01.999Z</time>
      </trkpt>
      <trkpt lat="47.55017" lon="6.74246">
        <ele>464.7</ele>
        <time>2017-10-15T09:10:02.999Z</time>
      </trkpt>
      <trkpt lat="47.55017" lon="6.7425">
        <ele>464.9</ele>
        <time>2017-10-15T09:10:03.999Z</time>
      </trkpt>
      <trkpt lat="47.55017" lon="6.74255">
        <ele>465.1</ele>
        <time>2017-10-15T09:10:04.999Z</time>
      </trkpt>
      <trkpt lat="47.55017" lon="6.74259">
        <ele>465.3</ele>
        <time>2017-10-15T09:10:05.999Z</time>
      </trkpt>
      <trkpt lat="47.55017" lon="6.74263">
        <ele>465.5</ele>
        <time>2017-10-15T09:10:06.999Z</time>
      </trkpt>
      <trkpt lat="47.55017" lon="6.74266">
        <ele>465.8</ele>
        <time>2017-10-15T09:10:07.999Z</time>
      </trkpt>
      <trkpt lat="47.55017" lon="6.74269">
        <ele>465.9</ele>
        <time>2017-10-15T09:10:08.999Z</time>
      </trkpt>
      <trkpt lat="47.55017" lon="6.74273">
        <ele>466.1</ele>
        <time>2017-10-15T09:10:09.999Z</time>
      </trkpt>
      <trkpt lat="47.55017" lon="6.74277">
        <ele>466.2</ele>
        <time>2017-10-15T09:10:10.999Z</time>
      </trkpt>
      <trkpt lat="47.55017" lon="6.74282">
        <ele>466.4</ele>
        <time>2017-10-15T09:10:11.999Z</time>
      </trkpt>
      <trkpt lat="47.55018" lon="6.74288">
        <ele>466.9</ele>
        <time>2017-10-15T09:10:13.999Z</time>
      </trkpt>
      <trkpt lat="47.55019" lon="6.74292">
        <ele>467.2</ele>
        <time>2017-10-15T09:10:14.999Z</time>
      </trkpt>
      <trkpt lat="47.55019" lon="6.74296">
        <ele>467.5</ele>
        <time>2017-10-15T09:10:15.999Z</time>
      </trkpt>
      <trkpt lat="47.5502" lon="6.743">
        <ele>467.8</ele>
        <time>2017-10-15T09:10:16.999Z</time>
      </trkpt>
      <trkpt lat="47.5502" lon="6.74304">
        <ele>468.1</ele>
        <time>2017-10-15T09:10:17.999Z</time>
      </trkpt>
      <trkpt lat="47.5502" lon="6.74307">
        <ele>468.3</ele>
        <time>2017-10-15T09:10:18.999Z</time>
      </trkpt>
      <trkpt lat="47.55021" lon="6.74311">
        <ele>468.7</ele>
        <time>2017-10-15T09:10:19.999Z</time>
      </trkpt>
      <trkpt lat="47.55022" lon="6.74315">
        <ele>469</ele>
        <time>2017-10-15T09:10:20.999Z</time>
      </trkpt>
      <trkpt lat="47.55022" lon="6.74319">
        <ele>469.3</ele>
        <time>2017-10-15T09:10:21.999Z</time>
      </trkpt>
      <trkpt lat="47.55022" lon="6.74322">
        <ele>469.6</ele>
        <time>2017-10-15T09:10:22.999Z</time>
      </trkpt>
      <trkpt lat="47.55024" lon="6.74328">
        <ele>470</ele>
        <time>2017-10-15T09:10:24.999Z</time>
      </trkpt>
      <trkpt lat="47.55024" lon="6.74331">
        <ele>470.3</ele>
        <time>2017-10-15T09:10:25.999Z</time>
      </trkpt>
      <trkpt lat="47.55025" lon="6.74335">
        <ele>470.9</ele>
        <time>2017-10-15T09:10:27.999Z</time>
      </trkpt>
      <trkpt lat="47.55024" lon="6.74339">
        <ele>471.2</ele>
        <time>2017-10-15T09:10:28.999Z</time>
      </trkpt>
      <trkpt lat="47.55026" lon="6.74344">
        <ele>471.5</ele>
        <time>2017-10-15T09:10:32.999Z</time>
      </trkpt>
      <trkpt lat="47.55026" lon="6.74345">
        <ele>471.5</ele>
        <time>2017-10-15T09:10:33.999Z</time>
      </trkpt>
      <trkpt lat="47.55029" lon="6.74349">
        <ele>471.6</ele>
        <time>2017-10-15T09:10:36.999Z</time>
      </trkpt>
      <trkpt lat="47.5503" lon="6.74351">
        <ele>471.5</ele>
        <time>2017-10-15T09:10:37.999Z</time>
      </trkpt>
      <trkpt lat="47.55032" lon="6.74355">
        <ele>471.8</ele>
        <time>2017-10-15T09:10:39.999Z</time>
      </trkpt>
      <trkpt lat="47.55033" lon="6.74357">
        <ele>471.8</ele>
        <time>2017-10-15T09:10:40.999Z</time>
      </trkpt>
      <trkpt lat="47.55034" lon="6.74361">
        <ele>471.9</ele>
        <time>2017-10-15T09:10:42.999Z</time>
      </trkpt>
      <trkpt lat="47.55035" lon="6.74363">
        <ele>472</ele>
        <time>2017-10-15T09:10:43.999Z</time>
      </trkpt>
      <trkpt lat="47.55036" lon="6.74366">
        <ele>473.4</ele>
        <time>2017-10-15T09:10:52.999Z</time>
      </trkpt>
      <trkpt lat="47.55041" lon="6.74378">
        <ele>473.6</ele>
        <time>2017-10-15T09:10:53.999Z</time>
      </trkpt>
      <trkpt lat="47.55041" lon="6.74378">
        <ele>475.1</ele>
        <time>2017-10-15T09:10:59.999Z</time>
      </trkpt>
      <trkpt lat="47.5505" lon="6.74396">
        <ele>475.3</ele>
        <time>2017-10-15T09:11:00.999Z</time>
      </trkpt>
      <trkpt lat="47.5505" lon="6.74396">
        <ele>477</ele>
        <time>2017-10-15T09:11:08.999Z</time>
      </trkpt>
      <trkpt lat="47.55054" lon="6.74409">
        <ele>477.2</ele>
        <time>2017-10-15T09:11:09.999Z</time>
      </trkpt>
      <trkpt lat="47.55054" lon="6.74409">
        <ele>479</ele>
        <time>2017-10-15T09:11:17.999Z</time>
      </trkpt>
      <trkpt lat="47.55061" lon="6.74424">
        <ele>479.3</ele>
        <time>2017-10-15T09:11:18.999Z</time>
      </trkpt>
      <trkpt lat="47.55061" lon="6.74424">
        <ele>481.7</ele>
        <time>2017-10-15T09:11:26.999Z</time>
      </trkpt>
      <trkpt lat="47.55069" lon="6.74441">
        <ele>482.1</ele>
        <time>2017-10-15T09:11:27.999Z</time>
      </trkpt>
      <trkpt lat="47.55072" lon="6.74446">
        <ele>483.1</ele>
        <time>2017-10-15T09:11:31.999Z</time>
      </trkpt>
      <trkpt lat="47.55073" lon="6.74449">
        <ele>483.2</ele>
        <time>2017-10-15T09:11:32.999Z</time>
      </trkpt>
      <trkpt lat="47.55074" lon="6.74454">
        <ele>483.2</ele>
        <time>2017-10-15T09:11:37.999Z</time>
      </trkpt>
      <trkpt lat="47.55075" lon="6.74456">
        <ele>483.2</ele>
        <time>2017-10-15T09:11:38.999Z</time>
      </trkpt>
      <trkpt lat="47.55076" lon="6.74461">
        <ele>483.3</ele>
        <time>2017-10-15T09:11:41.999Z</time>
      </trkpt>
      <trkpt lat="47.55076" lon="6.74463">
        <ele>483.3</ele>
        <time>2017-10-15T09:11:42.999Z</time>
      </trkpt>
      <trkpt lat="47.55077" lon="6.74469">
        <ele>483.4</ele>
        <time>2017-10-15T09:11:45.999Z</time>
      </trkpt>
      <trkpt lat="47.55077" lon="6.74471">
        <ele>483.4</ele>
        <time>2017-10-15T09:11:46.999Z</time>
      </trkpt>
      <trkpt lat="47.55078" lon="6.74477">
        <ele>483.5</ele>
        <time>2017-10-15T09:11:50.999Z</time>
      </trkpt>
      <trkpt lat="47.55079" lon="6.74479">
        <ele>483.5</ele>
        <time>2017-10-15T09:11:51.999Z</time>
      </trkpt>
      <trkpt lat="47.55081" lon="6.74482">
        <ele>483.7</ele>
        <time>2017-10-15T09:11:54.999Z</time>
      </trkpt>
      <trkpt lat="47.55082" lon="6.74484">
        <ele>483.7</ele>
        <time>2017-10-15T09:11:55.999Z</time>
      </trkpt>
      <trkpt lat="47.55083" lon="6.74488">
        <ele>483.7</ele>
        <time>2017-10-15T09:11:57.999Z</time>
      </trkpt>
      <trkpt lat="47.55084" lon="6.74492">
        <ele>483.8</ele>
        <time>2017-10-15T09:11:58.999Z</time>
      </trkpt>
      <trkpt lat="47.55086" lon="6.74498">
        <ele>483.8</ele>
        <time>2017-10-15T09:12:03.999Z</time>
      </trkpt>
      <trkpt lat="47.55086" lon="6.74499">
        <ele>483.8</ele>
        <time>2017-10-15T09:12:04.999Z</time>
      </trkpt>
      <trkpt lat="47.55088" lon="6.74503">
        <ele>483.8</ele>
        <time>2017-10-15T09:12:07.999Z</time>
      </trkpt>
      <trkpt lat="47.55089" lon="6.74504">
        <ele>483.8</ele>
        <time>2017-10-15T09:12:08.999Z</time>
      </trkpt>
      <trkpt lat="47.5509" lon="6.74509">
        <ele>483.7</ele>
        <time>2017-10-15T09:12:12.999Z</time>
      </trkpt>
      <trkpt lat="47.5509" lon="6.74511">
        <ele>483.7</ele>
        <time>2017-10-15T09:12:13.999Z</time>
      </trkpt>
      <trkpt lat="47.55093" lon="6.74516">
        <ele>483.6</ele>
        <time>2017-10-15T09:12:16.999Z</time>
      </trkpt>
      <trkpt lat="47.55094" lon="6.74517">
        <ele>483.5</ele>
        <time>2017-10-15T09:12:17.999Z</time>
      </trkpt>
      <trkpt lat="47.55094" lon="6.7452">
        <ele>483.5</ele>
        <time>2017-10-15T09:12:18.999Z</time>
      </trkpt>
      <trkpt lat="47.55095" lon="6.74525">
        <ele>483.6</ele>
        <time>2017-10-15T09:12:19.999Z</time>
      </trkpt>
      <trkpt lat="47.55096" lon="6.74531">
        <ele>483.8</ele>
        <time>2017-10-15T09:12:28.999Z</time>
      </trkpt>
      <trkpt lat="47.55095" lon="6.74532">
        <ele>484</ele>
        <time>2017-10-15T09:12:29.999Z</time>
      </trkpt>
      <trkpt lat="47.55094" lon="6.74535">
        <ele>484.4</ele>
        <time>2017-10-15T09:12:32.999Z</time>
      </trkpt>
      <trkpt lat="47.55092" lon="6.74537">
        <ele>484.5</ele>
        <time>2017-10-15T09:12:33.999Z</time>
      </trkpt>
      <trkpt lat="47.55091" lon="6.74538">
        <ele>484.9</ele>
        <time>2017-10-15T09:12:35.999Z</time>
      </trkpt>
      <trkpt lat="47.55089" lon="6.74542">
        <ele>485</ele>
        <time>2017-10-15T09:12:36.999Z</time>
      </trkpt>
      <trkpt lat="47.55086" lon="6.74546">
        <ele>485.3</ele>
        <time>2017-10-15T09:12:38.999Z</time>
      </trkpt>
      <trkpt lat="47.55085" lon="6.74547">
        <ele>485.4</ele>
        <time>2017-10-15T09:12:39.999Z</time>
      </trkpt>
      <trkpt lat="47.55082" lon="6.74546">
        <ele>484.8</ele>
        <time>2017-10-15T09:13:41.999Z</time>
      </trkpt>
      <trkpt lat="47.55079" lon="6.74546">
        <ele>484.6</ele>
        <time>2017-10-15T09:13:42.999Z</time>
      </trkpt>
      <trkpt lat="47.55077" lon="6.74546">
        <ele>484.4</ele>
        <time>2017-10-15T09:13:43.999Z</time>
      </trkpt>
      <trkpt lat="47.55073" lon="6.74548">
        <ele>484.2</ele>
        <time>2017-10-15T09:13:44.999Z</time>
      </trkpt>
      <trkpt lat="47.5507" lon="6.74551">
        <ele>483.7</ele>
        <time>2017-10-15T09:13:48.999Z</time>
      </trkpt>
      <trkpt lat="47.55068" lon="6.74552">
        <ele>483.7</ele>
        <time>2017-10-15T09:13:49.999Z</time>
      </trkpt>
      <trkpt lat="47.55065" lon="6.74552">
        <ele>483.4</ele>
        <time>2017-10-15T09:13:51.999Z</time>
      </trkpt>
      <trkpt lat="47.55063" lon="6.74554">
        <ele>483.3</ele>
        <time>2017-10-15T09:13:52.999Z</time>
      </trkpt>
      <trkpt lat="47.5506" lon="6.74556">
        <ele>483.3</ele>
        <time>2017-10-15T09:13:54.999Z</time>
      </trkpt>
      <trkpt lat="47.55058" lon="6.74556">
        <ele>483.3</ele>
        <time>2017-10-15T09:13:55.999Z</time>
      </trkpt>
      <trkpt lat="47.55056" lon="6.74559">
        <ele>483.5</ele>
        <time>2017-10-15T09:13:58.999Z</time>
      </trkpt>
      <trkpt lat="47.55053" lon="6.7456">
        <ele>483.5</ele>
        <time>2017-10-15T09:13:59.999Z</time>
      </trkpt>
      <trkpt lat="47.55051" lon="6.74561">
        <ele>483.6</ele>
        <time>2017-10-15T09:14:00.999Z</time>
      </trkpt>
      <trkpt lat="47.55047" lon="6.74563">
        <ele>483.7</ele>
        <time>2017-10-15T09:14:01.999Z</time>
      </trkpt>
      <trkpt lat="47.55043" lon="6.74566">
        <ele>484</ele>
        <time>2017-10-15T09:14:04.999Z</time>
      </trkpt>
      <trkpt lat="47.55039" lon="6.74571">
        <ele>484.2</ele>
        <time>2017-10-15T09:14:05.999Z</time>
      </trkpt>
      <trkpt lat="47.55036" lon="6.74572">
        <ele>484.4</ele>
        <time>2017-10-15T09:14:06.999Z</time>
      </trkpt>
      <trkpt lat="47.55034" lon="6.74572">
        <ele>484.6</ele>
        <time>2017-10-15T09:14:07.999Z</time>
      </trkpt>
      <trkpt lat="47.55032" lon="6.74574">
        <ele>485.5</ele>
        <time>2017-10-15T09:14:11.999Z</time>
      </trkpt>
      <trkpt lat="47.5503" lon="6.74575">
        <ele>485.8</ele>
        <time>2017-10-15T09:14:12.999Z</time>
      </trkpt>
      <trkpt lat="47.55026" lon="6.74579">
        <ele>485.9</ele>
        <time>2017-10-15T09:14:13.999Z</time>
      </trkpt>
      <trkpt lat="47.55023" lon="6.74581">
        <ele>486.2</ele>
        <time>2017-10-15T09:14:14.999Z</time>
      </trkpt>
      <trkpt lat="47.55019" lon="6.74583">
        <ele>486.4</ele>
        <time>2017-10-15T09:14:15.999Z</time>
      </trkpt>
      <trkpt lat="47.55018" lon="6.74583">
        <ele>486.6</ele>
        <time>2017-10-15T09:14:16.999Z</time>
      </trkpt>
      <trkpt lat="47.55015" lon="6.74583">
        <ele>486.9</ele>
        <time>2017-10-15T09:14:17.999Z</time>
      </trkpt>
      <trkpt lat="47.55014" lon="6.74583">
        <ele>487.2</ele>
        <time>2017-10-15T09:14:18.999Z</time>
      </trkpt>
      <trkpt lat="47.5501" lon="6.74583">
        <ele>487.5</ele>
        <time>2017-10-15T09:14:20.999Z</time>
      </trkpt>
      <trkpt lat="47.55008" lon="6.74583">
        <ele>487.6</ele>
        <time>2017-10-15T09:14:21.999Z</time>
      </trkpt>
      <trkpt lat="47.55005" lon="6.74587">
        <ele>487.6</ele>
        <time>2017-10-15T09:14:24.999Z</time>
      </trkpt>
      <trkpt lat="47.55004" lon="6.74588">
        <ele>487.7</ele>
        <time>2017-10-15T09:14:25.999Z</time>
      </trkpt>
      <trkpt lat="47.55" lon="6.7459">
        <ele>487.7</ele>
        <time>2017-10-15T09:14:31.999Z</time>
      </trkpt>
      <trkpt lat="47.54998" lon="6.74591">
        <ele>487.6</ele>
        <time>2017-10-15T09:14:32.999Z</time>
      </trkpt>
      <trkpt lat="47.54997" lon="6.74593">
        <ele>487.4</ele>
        <time>2017-10-15T09:14:33.999Z</time>
      </trkpt>
      <trkpt lat="47.54993" lon="6.74598">
        <ele>487.3</ele>
        <time>2017-10-15T09:14:34.999Z</time>
      </trkpt>
      <trkpt lat="47.54991" lon="6.74603">
        <ele>487.2</ele>
        <time>2017-10-15T09:14:35.999Z</time>
      </trkpt>
      <trkpt lat="47.5499" lon="6.74605">
        <ele>487.2</ele>
        <time>2017-10-15T09:14:36.999Z</time>
      </trkpt>
      <trkpt lat="47.54986" lon="6.74608">
        <ele>487.2</ele>
        <time>2017-10-15T09:14:37.999Z</time>
      </trkpt>
      <trkpt lat="47.54984" lon="6.74609">
        <ele>487.2</ele>
        <time>2017-10-15T09:14:38.999Z</time>
      </trkpt>
      <trkpt lat="47.54981" lon="6.74612">
        <ele>487.3</ele>
        <time>2017-10-15T09:14:41.999Z</time>
      </trkpt>
      <trkpt lat="47.5498" lon="6.74613">
        <ele>487.3</ele>
        <time>2017-10-15T09:14:42.999Z</time>
      </trkpt>
      <trkpt lat="47.54979" lon="6.74619">
        <ele>488.2</ele>
        <time>2017-10-15T09:14:52.999Z</time>
      </trkpt>
      <trkpt lat="47.54979" lon="6.74621">
        <ele>488.4</ele>
        <time>2017-10-15T09:14:53.999Z</time>
      </trkpt>
      <trkpt lat="47.54977" lon="6.74627">
        <ele>488.7</ele>
        <time>2017-10-15T09:14:57.999Z</time>
      </trkpt>
      <trkpt lat="47.54977" lon="6.7463">
        <ele>489</ele>
        <time>2017-10-15T09:14:58.999Z</time>
      </trkpt>
      <trkpt lat="47.54977" lon="6.74633">
        <ele>489.2</ele>
        <time>2017-10-15T09:14:59.999Z</time>
      </trkpt>
      <trkpt lat="47.54975" lon="6.74636">
        <ele>489.4</ele>
        <time>2017-10-15T09:15:00.999Z</time>
      </trkpt>
      <trkpt lat="47.54972" lon="6.74638">
        <ele>489.8</ele>
        <time>2017-10-15T09:15:01.999Z</time>
      </trkpt>
      <trkpt lat="47.5497" lon="6.7464">
        <ele>490</ele>
        <time>2017-10-15T09:15:02.999Z</time>
      </trkpt>
      <trkpt lat="47.54967" lon="6.74645">
        <ele>490.2</ele>
        <time>2017-10-15T09:15:03.999Z</time>
      </trkpt>
      <trkpt lat="47.54965" lon="6.74648">
        <ele>490.4</ele>
        <time>2017-10-15T09:15:04.999Z</time>
      </trkpt>
      <trkpt lat="47.54963" lon="6.74653">
        <ele>490.6</ele>
        <time>2017-10-15T09:15:05.999Z</time>
      </trkpt>
      <trkpt lat="47.54959" lon="6.74658">
        <ele>490.9</ele>
        <time>2017-10-15T09:15:06.999Z</time>
      </trkpt>
      <trkpt lat="47.54957" lon="6.74663">
        <ele>491.8</ele>
        <time>2017-10-15T09:15:11.999Z</time>
      </trkpt>
      <trkpt lat="47.54957" lon="6.74664">
        <ele>492</ele>
        <time>2017-10-15T09:15:12.999Z</time>
      </trkpt>
      <trkpt lat="47.54956" lon="6.74666">
        <ele>492.2</ele>
        <time>2017-10-15T09:15:13.999Z</time>
      </trkpt>
      <trkpt lat="47.54953" lon="6.74671">
        <ele>492.4</ele>
        <time>2017-10-15T09:15:14.999Z</time>
      </trkpt>
      <trkpt lat="47.54953" lon="6.74676">
        <ele>492.6</ele>
        <time>2017-10-15T09:15:15.999Z</time>
      </trkpt>
      <trkpt lat="47.5495" lon="6.7468">
        <ele>492.8</ele>
        <time>2017-10-15T09:15:16.999Z</time>
      </trkpt>
      <trkpt lat="47.54948" lon="6.74685">
        <ele>493.3</ele>
        <time>2017-10-15T09:15:19.999Z</time>
      </trkpt>
      <trkpt lat="47.54947" lon="6.74687">
        <ele>493.4</ele>
        <time>2017-10-15T09:15:20.999Z</time>
      </trkpt>
      <trkpt lat="47.54946" lon="6.7469">
        <ele>493.6</ele>
        <time>2017-10-15T09:15:21.999Z</time>
      </trkpt>
      <trkpt lat="47.54943" lon="6.74694">
        <ele>493.8</ele>
        <time>2017-10-15T09:15:22.999Z</time>
      </trkpt>
      <trkpt lat="47.54941" lon="6.747">
        <ele>494</ele>
        <time>2017-10-15T09:15:25.999Z</time>
      </trkpt>
      <trkpt lat="47.54941" lon="6.74701">
        <ele>494.1</ele>
        <time>2017-10-15T09:15:26.999Z</time>
      </trkpt>
      <trkpt lat="47.54938" lon="6.74705">
        <ele>494.1</ele>
        <time>2017-10-15T09:15:28.999Z</time>
      </trkpt>
      <trkpt lat="47.54937" lon="6.7471">
        <ele>494</ele>
        <time>2017-10-15T09:15:29.999Z</time>
      </trkpt>
      <trkpt lat="47.54937" lon="6.74716">
        <ele>494</ele>
        <time>2017-10-15T09:15:31.999Z</time>
      </trkpt>
      <trkpt lat="47.54935" lon="6.74719">
        <ele>494</ele>
        <time>2017-10-15T09:15:32.999Z</time>
      </trkpt>
      <trkpt lat="47.54935" lon="6.7472">
        <ele>493.9</ele>
        <time>2017-10-15T09:15:33.999Z</time>
      </trkpt>
      <trkpt lat="47.54932" lon="6.74724">
        <ele>493.9</ele>
        <time>2017-10-15T09:15:34.999Z</time>
      </trkpt>
      <trkpt lat="47.54929" lon="6.74727">
        <ele>493.9</ele>
        <time>2017-10-15T09:15:35.999Z</time>
      </trkpt>
      <trkpt lat="47.54926" lon="6.74731">
        <ele>493.9</ele>
        <time>2017-10-15T09:15:36.999Z</time>
      </trkpt>
      <trkpt lat="47.54923" lon="6.74737">
        <ele>493.8</ele>
        <time>2017-10-15T09:15:37.999Z</time>
      </trkpt>
      <trkpt lat="47.54922" lon="6.74741">
        <ele>493.8</ele>
        <time>2017-10-15T09:15:38.999Z</time>
      </trkpt>
      <trkpt lat="47.54919" lon="6.74745">
        <ele>493.7</ele>
        <time>2017-10-15T09:15:40.999Z</time>
      </trkpt>
      <trkpt lat="47.54918" lon="6.74748">
        <ele>493.6</ele>
        <time>2017-10-15T09:15:41.999Z</time>
      </trkpt>
      <trkpt lat="47.54918" lon="6.74753">
        <ele>493.5</ele>
        <time>2017-10-15T09:15:42.999Z</time>
      </trkpt>
      <trkpt lat="47.54916" lon="6.74756">
        <ele>493.4</ele>
        <time>2017-10-15T09:15:43.999Z</time>
      </trkpt>
      <trkpt lat="47.54916" lon="6.74758">
        <ele>493.3</ele>
        <time>2017-10-15T09:15:44.999Z</time>
      </trkpt>
      <trkpt lat="47.54914" lon="6.74764">
        <ele>493.2</ele>
        <time>2017-10-15T09:15:45.999Z</time>
      </trkpt>
      <trkpt lat="47.54914" lon="6.7477">
        <ele>493.1</ele>
        <time>2017-10-15T09:15:47.999Z</time>
      </trkpt>
      <trkpt lat="47.54914" lon="6.74777">
        <ele>493.1</ele>
        <time>2017-10-15T09:15:48.999Z</time>
      </trkpt>
      <trkpt lat="47.54914" lon="6.7478">
        <ele>493</ele>
        <time>2017-10-15T09:15:49.999Z</time>
      </trkpt>
      <trkpt lat="47.54912" lon="6.74785">
        <ele>492.9</ele>
        <time>2017-10-15T09:15:50.999Z</time>
      </trkpt>
      <trkpt lat="47.54911" lon="6.74788">
        <ele>492.8</ele>
        <time>2017-10-15T09:15:51.999Z</time>
      </trkpt>
      <trkpt lat="47.54909" lon="6.74791">
        <ele>492.8</ele>
        <time>2017-10-15T09:15:52.999Z</time>
      </trkpt>
      <trkpt lat="47.54908" lon="6.74795">
        <ele>492.7</ele>
        <time>2017-10-15T09:15:53.999Z</time>
      </trkpt>
      <trkpt lat="47.54907" lon="6.74797">
        <ele>492.6</ele>
        <time>2017-10-15T09:15:54.999Z</time>
      </trkpt>
      <trkpt lat="47.54905" lon="6.74803">
        <ele>492.6</ele>
        <time>2017-10-15T09:15:55.999Z</time>
      </trkpt>
      <trkpt lat="47.54904" lon="6.74809">
        <ele>492.7</ele>
        <time>2017-10-15T09:15:56.999Z</time>
      </trkpt>
      <trkpt lat="47.54902" lon="6.7481">
        <ele>492.7</ele>
        <time>2017-10-15T09:15:57.999Z</time>
      </trkpt>
      <trkpt lat="47.54899" lon="6.74811">
        <ele>492.7</ele>
        <time>2017-10-15T09:15:58.999Z</time>
      </trkpt>
      <trkpt lat="47.54896" lon="6.74814">
        <ele>492.6</ele>
        <time>2017-10-15T09:15:59.999Z</time>
      </trkpt>
      <trkpt lat="47.54892" lon="6.74815">
        <ele>492.5</ele>
        <time>2017-10-15T09:16:00.999Z</time>
      </trkpt>
      <trkpt lat="47.54889" lon="6.7482">
        <ele>492.4</ele>
        <time>2017-10-15T09:16:01.999Z</time>
      </trkpt>
      <trkpt lat="47.54885" lon="6.74825">
        <ele>492.4</ele>
        <time>2017-10-15T09:16:02.999Z</time>
      </trkpt>
      <trkpt lat="47.54882" lon="6.74825">
        <ele>492.2</ele>
        <time>2017-10-15T09:16:03.999Z</time>
      </trkpt>
      <trkpt lat="47.5488" lon="6.74825">
        <ele>492.1</ele>
        <time>2017-10-15T09:16:04.999Z</time>
      </trkpt>
      <trkpt lat="47.54878" lon="6.74827">
        <ele>492</ele>
        <time>2017-10-15T09:16:05.999Z</time>
      </trkpt>
      <trkpt lat="47.54877" lon="6.74831">
        <ele>491.8</ele>
        <time>2017-10-15T09:16:06.999Z</time>
      </trkpt>
      <trkpt lat="47.54875" lon="6.74834">
        <ele>491.6</ele>
        <time>2017-10-15T09:16:07.999Z</time>
      </trkpt>
      <trkpt lat="47.54872" lon="6.74837">
        <ele>491.4</ele>
        <time>2017-10-15T09:16:08.999Z</time>
      </trkpt>
      <trkpt lat="47.54869" lon="6.74846">
        <ele>491.2</ele>
        <time>2017-10-15T09:16:09.999Z</time>
      </trkpt>
      <trkpt lat="47.54868" lon="6.74855">
        <ele>490.9</ele>
        <time>2017-10-15T09:16:10.999Z</time>
      </trkpt>
      <trkpt lat="47.54867" lon="6.74859">
        <ele>490.7</ele>
        <time>2017-10-15T09:16:11.999Z</time>
      </trkpt>
      <trkpt lat="47.54864" lon="6.74861">
        <ele>490.4</ele>
        <time>2017-10-15T09:16:12.999Z</time>
      </trkpt>
      <trkpt lat="47.54862" lon="6.74866">
        <ele>490.2</ele>
        <time>2017-10-15T09:16:13.999Z</time>
      </trkpt>
      <trkpt lat="47.54861" lon="6.74871">
        <ele>490</ele>
        <time>2017-10-15T09:16:14.999Z</time>
      </trkpt>
      <trkpt lat="47.5486" lon="6.7488">
        <ele>489.8</ele>
        <time>2017-10-15T09:16:15.999Z</time>
      </trkpt>
      <trkpt lat="47.54859" lon="6.74886">
        <ele>489.5</ele>
        <time>2017-10-15T09:16:17.999Z</time>
      </trkpt>
      <trkpt lat="47.54857" lon="6.74892">
        <ele>489.3</ele>
        <time>2017-10-15T09:16:18.999Z</time>
      </trkpt>
      <trkpt lat="47.54854" lon="6.74899">
        <ele>489.1</ele>
        <time>2017-10-15T09:16:19.999Z</time>
      </trkpt>
      <trkpt lat="47.54854" lon="6.74902">
        <ele>488.9</ele>
        <time>2017-10-15T09:16:20.999Z</time>
      </trkpt>
      <trkpt lat="47.54852" lon="6.74906">
        <ele>488.8</ele>
        <time>2017-10-15T09:16:21.999Z</time>
      </trkpt>
      <trkpt lat="47.54849" lon="6.7491">
        <ele>488</ele>
        <time>2017-10-15T09:16:25.999Z</time>
      </trkpt>
      <trkpt lat="47.54847" lon="6.7491">
        <ele>487.8</ele>
        <time>2017-10-15T09:16:26.999Z</time>
      </trkpt>
      <trkpt lat="47.54843" lon="6.74915">
        <ele>487.7</ele>
        <time>2017-10-15T09:16:27.999Z</time>
      </trkpt>
      <trkpt lat="47.54838" lon="6.74922">
        <ele>487.6</ele>
        <time>2017-10-15T09:16:28.999Z</time>
      </trkpt>
      <trkpt lat="47.54832" lon="6.74926">
        <ele>487.5</ele>
        <time>2017-10-15T09:16:29.999Z</time>
      </trkpt>
      <trkpt lat="47.54829" lon="6.74928">
        <ele>487.4</ele>
        <time>2017-10-15T09:16:30.999Z</time>
      </trkpt>
      <trkpt lat="47.54825" lon="6.74933">
        <ele>487.3</ele>
        <time>2017-10-15T09:16:31.999Z</time>
      </trkpt>
      <trkpt lat="47.54821" lon="6.74935">
        <ele>487.2</ele>
        <time>2017-10-15T09:16:32.999Z</time>
      </trkpt>
      <trkpt lat="47.54819" lon="6.74936">
        <ele>487.3</ele>
        <time>2017-10-15T09:16:33.999Z</time>
      </trkpt>
      <trkpt lat="47.54816" lon="6.74937">
        <ele>487.3</ele>
        <time>2017-10-15T09:16:35.999Z</time>
      </trkpt>
      <trkpt lat="47.54812" lon="6.74939">
        <ele>487.4</ele>
        <time>2017-10-15T09:16:36.999Z</time>
      </trkpt>
      <trkpt lat="47.54807" lon="6.74941">
        <ele>487.4</ele>
        <time>2017-10-15T09:16:37.999Z</time>
      </trkpt>
      <trkpt lat="47.54805" lon="6.74943">
        <ele>487.6</ele>
        <time>2017-10-15T09:16:38.999Z</time>
      </trkpt>
      <trkpt lat="47.54801" lon="6.74946">
        <ele>487.8</ele>
        <time>2017-10-15T09:16:39.999Z</time>
      </trkpt>
      <trkpt lat="47.54799" lon="6.74947">
        <ele>488</ele>
        <time>2017-10-15T09:16:40.999Z</time>
      </trkpt>
      <trkpt lat="47.54794" lon="6.74948">
        <ele>488.1</ele>
        <time>2017-10-15T09:16:41.999Z</time>
      </trkpt>
      <trkpt lat="47.54791" lon="6.74951">
        <ele>488.4</ele>
        <time>2017-10-15T09:16:43.999Z</time>
      </trkpt>
      <trkpt lat="47.54789" lon="6.74953">
        <ele>488.5</ele>
        <time>2017-10-15T09:16:44.999Z</time>
      </trkpt>
      <trkpt lat="47.54786" lon="6.74956">
        <ele>488.7</ele>
        <time>2017-10-15T09:16:47.999Z</time>
      </trkpt>
      <trkpt lat="47.54784" lon="6.74958">
        <ele>488.7</ele>
        <time>2017-10-15T09:16:48.999Z</time>
      </trkpt>
      <trkpt lat="47.5478" lon="6.74957">
        <ele>488.8</ele>
        <time>2017-10-15T09:16:49.999Z</time>
      </trkpt>
      <trkpt lat="47.54777" lon="6.74961">
        <ele>488.7</ele>
        <time>2017-10-15T09:16:50.999Z</time>
      </trkpt>
      <trkpt lat="47.54774" lon="6.74965">
        <ele>488.7</ele>
        <time>2017-10-15T09:16:51.999Z</time>
      </trkpt>
      <trkpt lat="47.54773" lon="6.74966">
        <ele>488.7</ele>
        <time>2017-10-15T09:16:52.999Z</time>
      </trkpt>
      <trkpt lat="47.54771" lon="6.7497">
        <ele>488.8</ele>
        <time>2017-10-15T09:16:55.999Z</time>
      </trkpt>
      <trkpt lat="47.54769" lon="6.74973">
        <ele>488.8</ele>
        <time>2017-10-15T09:16:56.999Z</time>
      </trkpt>
      <trkpt lat="47.54765" lon="6.74977">
        <ele>488.9</ele>
        <time>2017-10-15T09:16:57.999Z</time>
      </trkpt>
      <trkpt lat="47.54761" lon="6.74981">
        <ele>488.9</ele>
        <time>2017-10-15T09:16:58.999Z</time>
      </trkpt>
      <trkpt lat="47.54758" lon="6.74982">
        <ele>489.1</ele>
        <time>2017-10-15T09:17:00.999Z</time>
      </trkpt>
      <trkpt lat="47.54755" lon="6.74983">
        <ele>489.2</ele>
        <time>2017-10-15T09:17:01.999Z</time>
      </trkpt>
      <trkpt lat="47.54751" lon="6.74987">
        <ele>489.1</ele>
        <time>2017-10-15T09:17:02.999Z</time>
      </trkpt>
      <trkpt lat="47.54748" lon="6.74989">
        <ele>489.1</ele>
        <time>2017-10-15T09:17:03.999Z</time>
      </trkpt>
      <trkpt lat="47.54746" lon="6.74993">
        <ele>489.2</ele>
        <time>2017-10-15T09:17:05.999Z</time>
      </trkpt>
      <trkpt lat="47.54743" lon="6.74993">
        <ele>489.2</ele>
        <time>2017-10-15T09:17:06.999Z</time>
      </trkpt>
      <trkpt lat="47.5474" lon="6.74993">
        <ele>489.2</ele>
        <time>2017-10-15T09:17:07.999Z</time>
      </trkpt>
      <trkpt lat="47.54734" lon="6.74992">
        <ele>489.1</ele>
        <time>2017-10-15T09:17:08.999Z</time>
      </trkpt>
      <trkpt lat="47.54728" lon="6.74992">
        <ele>489.1</ele>
        <time>2017-10-15T09:17:09.999Z</time>
      </trkpt>
      <trkpt lat="47.54725" lon="6.74993">
        <ele>489</ele>
        <time>2017-10-15T09:17:10.999Z</time>
      </trkpt>
      <trkpt lat="47.54723" lon="6.74994">
        <ele>488.9</ele>
        <time>2017-10-15T09:17:11.999Z</time>
      </trkpt>
      <trkpt lat="47.5472" lon="6.74996">
        <ele>488.9</ele>
        <time>2017-10-15T09:17:12.999Z</time>
      </trkpt>
      <trkpt lat="47.54717" lon="6.74997">
        <ele>488.8</ele>
        <time>2017-10-15T09:17:13.999Z</time>
      </trkpt>
      <trkpt lat="47.54714" lon="6.74997">
        <ele>488.9</ele>
        <time>2017-10-15T09:17:14.999Z</time>
      </trkpt>
      <trkpt lat="47.54712" lon="6.74998">
        <ele>489</ele>
        <time>2017-10-15T09:17:15.999Z</time>
      </trkpt>
      <trkpt lat="47.54708" lon="6.75">
        <ele>489.3</ele>
        <time>2017-10-15T09:17:17.999Z</time>
      </trkpt>
      <trkpt lat="47.54706" lon="6.75002">
        <ele>489.4</ele>
        <time>2017-10-15T09:17:18.999Z</time>
      </trkpt>
      <trkpt lat="47.54703" lon="6.75006">
        <ele>489.5</ele>
        <time>2017-10-15T09:17:20.999Z</time>
      </trkpt>
      <trkpt lat="47.54702" lon="6.75008">
        <ele>489.7</ele>
        <time>2017-10-15T09:17:21.999Z</time>
      </trkpt>
      <trkpt lat="47.54699" lon="6.75011">
        <ele>489.9</ele>
        <time>2017-10-15T09:17:23.999Z</time>
      </trkpt>
      <trkpt lat="47.54698" lon="6.75013">
        <ele>489.9</ele>
        <time>2017-10-15T09:17:24.999Z</time>
      </trkpt>
      <trkpt lat="47.54694" lon="6.75015">
        <ele>489.9</ele>
        <time>2017-10-15T09:17:26.999Z</time>
      </trkpt>
      <trkpt lat="47.54692" lon="6.75016">
        <ele>489.8</ele>
        <time>2017-10-15T09:17:27.999Z</time>
      </trkpt>
      <trkpt lat="47.54689" lon="6.75018">
        <ele>489.7</ele>
        <time>2017-10-15T09:17:29.999Z</time>
      </trkpt>
      <trkpt lat="47.54687" lon="6.75019">
        <ele>489.7</ele>
        <time>2017-10-15T09:17:30.999Z</time>
      </trkpt>
      <trkpt lat="47.54682" lon="6.75019">
        <ele>489.6</ele>
        <time>2017-10-15T09:17:32.999Z</time>
      </trkpt>
      <trkpt lat="47.5468" lon="6.7502">
        <ele>489.5</ele>
        <time>2017-10-15T09:17:33.999Z</time>
      </trkpt>
      <trkpt lat="47.54677" lon="6.75023">
        <ele>489.4</ele>
        <time>2017-10-15T09:17:35.999Z</time>
      </trkpt>
      <trkpt lat="47.54675" lon="6.75024">
        <ele>489.4</ele>
        <time>2017-10-15T09:17:36.999Z</time>
      </trkpt>
      <trkpt lat="47.54672" lon="6.75025">
        <ele>489.2</ele>
        <time>2017-10-15T09:17:37.999Z</time>
      </trkpt>
      <trkpt lat="47.5467" lon="6.75026">
        <ele>489.1</ele>
        <time>2017-10-15T09:17:38.999Z</time>
      </trkpt>
      <trkpt lat="47.54666" lon="6.75029">
        <ele>488.9</ele>
        <time>2017-10-15T09:17:40.999Z</time>
      </trkpt>
      <trkpt lat="47.54664" lon="6.7503">
        <ele>488.9</ele>
        <time>2017-10-15T09:17:41.999Z</time>
      </trkpt>
      <trkpt lat="47.5466" lon="6.75031">
        <ele>488.7</ele>
        <time>2017-10-15T09:17:43.999Z</time>
      </trkpt>
      <trkpt lat="47.54658" lon="6.75031">
        <ele>488.7</ele>
        <time>2017-10-15T09:17:44.999Z</time>
      </trkpt>
      <trkpt lat="47.54655" lon="6.75033">
        <ele>488.6</ele>
        <time>2017-10-15T09:17:46.999Z</time>
      </trkpt>
      <trkpt lat="47.54654" lon="6.75033">
        <ele>488.5</ele>
        <time>2017-10-15T09:17:47.999Z</time>
      </trkpt>
      <trkpt lat="47.54651" lon="6.75036">
        <ele>488.4</ele>
        <time>2017-10-15T09:17:49.999Z</time>
      </trkpt>
      <trkpt lat="47.5465" lon="6.75038">
        <ele>488.3</ele>
        <time>2017-10-15T09:17:50.999Z</time>
      </trkpt>
      <trkpt lat="47.54646" lon="6.75039">
        <ele>488.1</ele>
        <time>2017-10-15T09:17:52.999Z</time>
      </trkpt>
      <trkpt lat="47.54644" lon="6.75041">
        <ele>488</ele>
        <time>2017-10-15T09:17:53.999Z</time>
      </trkpt>
      <trkpt lat="47.54641" lon="6.75042">
        <ele>487.9</ele>
        <time>2017-10-15T09:17:55.999Z</time>
      </trkpt>
      <trkpt lat="47.5464" lon="6.75043">
        <ele>487.9</ele>
        <time>2017-10-15T09:17:56.999Z</time>
      </trkpt>
      <trkpt lat="47.54637" lon="6.75044">
        <ele>487.9</ele>
        <time>2017-10-15T09:17:58.999Z</time>
      </trkpt>
      <trkpt lat="47.54635" lon="6.75045">
        <ele>487.9</ele>
        <time>2017-10-15T09:17:59.999Z</time>
      </trkpt>
      <trkpt lat="47.54631" lon="6.75048">
        <ele>488</ele>
        <time>2017-10-15T09:18:01.999Z</time>
      </trkpt>
      <trkpt lat="47.5463" lon="6.75048">
        <ele>488</ele>
        <time>2017-10-15T09:18:02.999Z</time>
      </trkpt>
      <trkpt lat="47.54626" lon="6.7505">
        <ele>488</ele>
        <time>2017-10-15T09:18:04.999Z</time>
      </trkpt>
      <trkpt lat="47.54624" lon="6.75051">
        <ele>488.1</ele>
        <time>2017-10-15T09:18:05.999Z</time>
      </trkpt>
      <trkpt lat="47.5462" lon="6.75052">
        <ele>488.3</ele>
        <time>2017-10-15T09:18:07.999Z</time>
      </trkpt>
      <trkpt lat="47.54618" lon="6.75052">
        <ele>488.3</ele>
        <time>2017-10-15T09:18:08.999Z</time>
      </trkpt>
      <trkpt lat="47.54616" lon="6.75054">
        <ele>488.3</ele>
        <time>2017-10-15T09:18:09.999Z</time>
      </trkpt>
      <trkpt lat="47.54614" lon="6.75056">
        <ele>488.3</ele>
        <time>2017-10-15T09:18:10.999Z</time>
      </trkpt>
      <trkpt lat="47.54611" lon="6.75058">
        <ele>488.2</ele>
        <time>2017-10-15T09:18:12.999Z</time>
      </trkpt>
      <trkpt lat="47.54609" lon="6.75059">
        <ele>488.3</ele>
        <time>2017-10-15T09:18:13.999Z</time>
      </trkpt>
      <trkpt lat="47.54606" lon="6.75061">
        <ele>488.3</ele>
        <time>2017-10-15T09:18:15.999Z</time>
      </trkpt>
      <trkpt lat="47.54604" lon="6.75062">
        <ele>488.3</ele>
        <time>2017-10-15T09:18:16.999Z</time>
      </trkpt>
      <trkpt lat="47.546" lon="6.75064">
        <ele>488.2</ele>
        <time>2017-10-15T09:18:18.999Z</time>
      </trkpt>
      <trkpt lat="47.54599" lon="6.75065">
        <ele>488.2</ele>
        <time>2017-10-15T09:18:19.999Z</time>
      </trkpt>
      <trkpt lat="47.54595" lon="6.75067">
        <ele>488.1</ele>
        <time>2017-10-15T09:18:21.999Z</time>
      </trkpt>
      <trkpt lat="47.54594" lon="6.75067">
        <ele>488.1</ele>
        <time>2017-10-15T09:18:22.999Z</time>
      </trkpt>
      <trkpt lat="47.54591" lon="6.75068">
        <ele>488</ele>
        <time>2017-10-15T09:18:24.999Z</time>
      </trkpt>
      <trkpt lat="47.54589" lon="6.75069">
        <ele>488</ele>
        <time>2017-10-15T09:18:25.999Z</time>
      </trkpt>
      <trkpt lat="47.54586" lon="6.75072">
        <ele>488</ele>
        <time>2017-10-15T09:18:27.999Z</time>
      </trkpt>
      <trkpt lat="47.54585" lon="6.75072">
        <ele>488</ele>
        <time>2017-10-15T09:18:28.999Z</time>
      </trkpt>
      <trkpt lat="47.54582" lon="6.75074">
        <ele>488</ele>
        <time>2017-10-15T09:18:30.999Z</time>
      </trkpt>
      <trkpt lat="47.5458" lon="6.75075">
        <ele>488.1</ele>
        <time>2017-10-15T09:18:31.999Z</time>
      </trkpt>
      <trkpt lat="47.54577" lon="6.75078">
        <ele>488.5</ele>
        <time>2017-10-15T09:18:34.999Z</time>
      </trkpt>
      <trkpt lat="47.54575" lon="6.7508">
        <ele>488.7</ele>
        <time>2017-10-15T09:18:35.999Z</time>
      </trkpt>
      <trkpt lat="47.54571" lon="6.75082">
        <ele>489.3</ele>
        <time>2017-10-15T09:18:38.999Z</time>
      </trkpt>
      <trkpt lat="47.54569" lon="6.75083">
        <ele>489.5</ele>
        <time>2017-10-15T09:18:39.999Z</time>
      </trkpt>
      <trkpt lat="47.54566" lon="6.75084">
        <ele>489.9</ele>
        <time>2017-10-15T09:18:41.999Z</time>
      </trkpt>
      <trkpt lat="47.54564" lon="6.75085">
        <ele>490.1</ele>
        <time>2017-10-15T09:18:42.999Z</time>
      </trkpt>
      <trkpt lat="47.54561" lon="6.75089">
        <ele>490.4</ele>
        <time>2017-10-15T09:18:44.999Z</time>
      </trkpt>
      <trkpt lat="47.54559" lon="6.7509">
        <ele>490.5</ele>
        <time>2017-10-15T09:18:45.999Z</time>
      </trkpt>
      <trkpt lat="47.54556" lon="6.75093">
        <ele>490.6</ele>
        <time>2017-10-15T09:18:48.999Z</time>
      </trkpt>
      <trkpt lat="47.54555" lon="6.75094">
        <ele>490.8</ele>
        <time>2017-10-15T09:18:49.999Z</time>
      </trkpt>
      <trkpt lat="47.54551" lon="6.75097">
        <ele>491.2</ele>
        <time>2017-10-15T09:18:52.999Z</time>
      </trkpt>
      <trkpt lat="47.54549" lon="6.75098">
        <ele>491.4</ele>
        <time>2017-10-15T09:18:53.999Z</time>
      </trkpt>
      <trkpt lat="47.54546" lon="6.75101">
        <ele>491.5</ele>
        <time>2017-10-15T09:18:55.999Z</time>
      </trkpt>
      <trkpt lat="47.54545" lon="6.75103">
        <ele>491.5</ele>
        <time>2017-10-15T09:18:56.999Z</time>
      </trkpt>
      <trkpt lat="47.54542" lon="6.75107">
        <ele>491.6</ele>
        <time>2017-10-15T09:18:58.999Z</time>
      </trkpt>
      <trkpt lat="47.54541" lon="6.75109">
        <ele>491.6</ele>
        <time>2017-10-15T09:18:59.999Z</time>
      </trkpt>
      <trkpt lat="47.54538" lon="6.75112">
        <ele>491.6</ele>
        <time>2017-10-15T09:19:02.999Z</time>
      </trkpt>
      <trkpt lat="47.54537" lon="6.75112">
        <ele>491.6</ele>
        <time>2017-10-15T09:19:03.999Z</time>
      </trkpt>
      <trkpt lat="47.54535" lon="6.75116">
        <ele>491.7</ele>
        <time>2017-10-15T09:19:05.999Z</time>
      </trkpt>
      <trkpt lat="47.54533" lon="6.75117">
        <ele>491.7</ele>
        <time>2017-10-15T09:19:06.999Z</time>
      </trkpt>
      <trkpt lat="47.5453" lon="6.7512">
        <ele>491.9</ele>
        <time>2017-10-15T09:19:09.999Z</time>
      </trkpt>
      <trkpt lat="47.54529" lon="6.75121">
        <ele>492.1</ele>
        <time>2017-10-15T09:19:10.999Z</time>
      </trkpt>
      <trkpt lat="47.54525" lon="6.75124">
        <ele>492.6</ele>
        <time>2017-10-15T09:19:14.999Z</time>
      </trkpt>
      <trkpt lat="47.54524" lon="6.75125">
        <ele>492.7</ele>
        <time>2017-10-15T09:19:15.999Z</time>
      </trkpt>
      <trkpt lat="47.54521" lon="6.75129">
        <ele>493</ele>
        <time>2017-10-15T09:19:18.999Z</time>
      </trkpt>
      <trkpt lat="47.5452" lon="6.75129">
        <ele>493.1</ele>
        <time>2017-10-15T09:19:19.999Z</time>
      </trkpt>
      <trkpt lat="47.54518" lon="6.75133">
        <ele>493</ele>
        <time>2017-10-15T09:19:21.999Z</time>
      </trkpt>
      <trkpt lat="47.54516" lon="6.75134">
        <ele>493</ele>
        <time>2017-10-15T09:19:22.999Z</time>
      </trkpt>
      <trkpt lat="47.54512" lon="6.75136">
        <ele>492.9</ele>
        <time>2017-10-15T09:19:24.999Z</time>
      </trkpt>
      <trkpt lat="47.54511" lon="6.75138">
        <ele>492.8</ele>
        <time>2017-10-15T09:19:25.999Z</time>
      </trkpt>
      <trkpt lat="47.54507" lon="6.75138">
        <ele>492.6</ele>
        <time>2017-10-15T09:19:27.999Z</time>
      </trkpt>
      <trkpt lat="47.54506" lon="6.75139">
        <ele>492.5</ele>
        <time>2017-10-15T09:19:28.999Z</time>
      </trkpt>
      <trkpt lat="47.54503" lon="6.75144">
        <ele>492.7</ele>
        <time>2017-10-15T09:19:31.999Z</time>
      </trkpt>
      <trkpt lat="47.54501" lon="6.75145">
        <ele>492.9</ele>
        <time>2017-10-15T09:19:32.999Z</time>
      </trkpt>
      <trkpt lat="47.54498" lon="6.75147">
        <ele>493.2</ele>
        <time>2017-10-15T09:19:34.999Z</time>
      </trkpt>
      <trkpt lat="47.54496" lon="6.75147">
        <ele>493.3</ele>
        <time>2017-10-15T09:19:35.999Z</time>
      </trkpt>
      <trkpt lat="47.54492" lon="6.75149">
        <ele>493.5</ele>
        <time>2017-10-15T09:19:37.999Z</time>
      </trkpt>
      <trkpt lat="47.5449" lon="6.7515">
        <ele>493.7</ele>
        <time>2017-10-15T09:19:38.999Z</time>
      </trkpt>
      <trkpt lat="47.54487" lon="6.75151">
        <ele>494</ele>
        <time>2017-10-15T09:19:39.999Z</time>
      </trkpt>
      <trkpt lat="47.54485" lon="6.75152">
        <ele>494.1</ele>
        <time>2017-10-15T09:19:40.999Z</time>
      </trkpt>
      <trkpt lat="47.5448" lon="6.75155">
        <ele>494.1</ele>
        <time>2017-10-15T09:19:41.999Z</time>
      </trkpt>
      <trkpt lat="47.54478" lon="6.75155">
        <ele>494.2</ele>
        <time>2017-10-15T09:19:42.999Z</time>
      </trkpt>
      <trkpt lat="47.54474" lon="6.75156">
        <ele>494.4</ele>
        <time>2017-10-15T09:19:43.999Z</time>
      </trkpt>
      <trkpt lat="47.54471" lon="6.75157">
        <ele>494.6</ele>
        <time>2017-10-15T09:19:44.999Z</time>
      </trkpt>
      <trkpt lat="47.54468" lon="6.75159">
        <ele>494.7</ele>
        <time>2017-10-15T09:19:45.999Z</time>
      </trkpt>
      <trkpt lat="47.54464" lon="6.75161">
        <ele>494.9</ele>
        <time>2017-10-15T09:19:46.999Z</time>
      </trkpt>
      <trkpt lat="47.54462" lon="6.75164">
        <ele>495</ele>
        <time>2017-10-15T09:19:47.999Z</time>
      </trkpt>
      <trkpt lat="47.5446" lon="6.75169">
        <ele>497.4</ele>
        <time>2017-10-15T09:19:48.999Z</time>
      </trkpt>
      <trkpt lat="47.54458" lon="6.75172">
        <ele>497.6</ele>
        <time>2017-10-15T09:19:49.999Z</time>
      </trkpt>
      <trkpt lat="47.54455" lon="6.75174">
        <ele>497.7</ele>
        <time>2017-10-15T09:19:50.999Z</time>
      </trkpt>
      <trkpt lat="47.54452" lon="6.75177">
        <ele>497.9</ele>
        <time>2017-10-15T09:19:51.999Z</time>
      </trkpt>
      <trkpt lat="47.54448" lon="6.75181">
        <ele>498.2</ele>
        <time>2017-10-15T09:19:52.999Z</time>
      </trkpt>
      <trkpt lat="47.54445" lon="6.75183">
        <ele>498.4</ele>
        <time>2017-10-15T09:19:53.999Z</time>
      </trkpt>
      <trkpt lat="47.54442" lon="6.75184">
        <ele>498.8</ele>
        <time>2017-10-15T09:19:54.999Z</time>
      </trkpt>
      <trkpt lat="47.54438" lon="6.75186">
        <ele>499.2</ele>
        <time>2017-10-15T09:19:56.999Z</time>
      </trkpt>
      <trkpt lat="47.54437" lon="6.75186">
        <ele>499.5</ele>
        <time>2017-10-15T09:19:57.999Z</time>
      </trkpt>
      <trkpt lat="47.54433" lon="6.75185">
        <ele>499.7</ele>
        <time>2017-10-15T09:19:58.999Z</time>
      </trkpt>
      <trkpt lat="47.54429" lon="6.75189">
        <ele>499.7</ele>
        <time>2017-10-15T09:19:59.999Z</time>
      </trkpt>
      <trkpt lat="47.54427" lon="6.75191">
        <ele>499.8</ele>
        <time>2017-10-15T09:20:00.999Z</time>
      </trkpt>
      <trkpt lat="47.54425" lon="6.75193">
        <ele>499.9</ele>
        <time>2017-10-15T09:20:01.999Z</time>
      </trkpt>
      <trkpt lat="47.54422" lon="6.75195">
        <ele>499.9</ele>
        <time>2017-10-15T09:20:02.999Z</time>
      </trkpt>
      <trkpt lat="47.54418" lon="6.75199">
        <ele>500.1</ele>
        <time>2017-10-15T09:20:03.999Z</time>
      </trkpt>
      <trkpt lat="47.54416" lon="6.75202">
        <ele>500.2</ele>
        <time>2017-10-15T09:20:04.999Z</time>
      </trkpt>
      <trkpt lat="47.54413" lon="6.75204">
        <ele>500.3</ele>
        <time>2017-10-15T09:20:05.999Z</time>
      </trkpt>
      <trkpt lat="47.54411" lon="6.75207">
        <ele>500.6</ele>
        <time>2017-10-15T09:20:06.999Z</time>
      </trkpt>
      <trkpt lat="47.54407" lon="6.75207">
        <ele>500.9</ele>
        <time>2017-10-15T09:20:07.999Z</time>
      </trkpt>
      <trkpt lat="47.54403" lon="6.7521">
        <ele>504</ele>
        <time>2017-10-15T09:20:08.999Z</time>
      </trkpt>
      <trkpt lat="47.54399" lon="6.75212">
        <ele>504.3</ele>
        <time>2017-10-15T09:20:09.999Z</time>
      </trkpt>
      <trkpt lat="47.54396" lon="6.75214">
        <ele>504.6</ele>
        <time>2017-10-15T09:20:10.999Z</time>
      </trkpt>
      <trkpt lat="47.54394" lon="6.75216">
        <ele>504.9</ele>
        <time>2017-10-15T09:20:11.999Z</time>
      </trkpt>
      <trkpt lat="47.54391" lon="6.75218">
        <ele>505.2</ele>
        <time>2017-10-15T09:20:12.999Z</time>
      </trkpt>
      <trkpt lat="47.54389" lon="6.75222">
        <ele>505.5</ele>
        <time>2017-10-15T09:20:13.999Z</time>
      </trkpt>
      <trkpt lat="47.54386" lon="6.75225">
        <ele>505.7</ele>
        <time>2017-10-15T09:20:14.999Z</time>
      </trkpt>
      <trkpt lat="47.54384" lon="6.75228">
        <ele>505.8</ele>
        <time>2017-10-15T09:20:15.999Z</time>
      </trkpt>
      <trkpt lat="47.54378" lon="6.75233">
        <ele>505.9</ele>
        <time>2017-10-15T09:20:16.999Z</time>
      </trkpt>
      <trkpt lat="47.54376" lon="6.75237">
        <ele>505.9</ele>
        <time>2017-10-15T09:20:17.999Z</time>
      </trkpt>
      <trkpt lat="47.54374" lon="6.75241">
        <ele>505.9</ele>
        <time>2017-10-15T09:20:18.999Z</time>
      </trkpt>
      <trkpt lat="47.54371" lon="6.75245">
        <ele>505.9</ele>
        <time>2017-10-15T09:20:19.999Z</time>
      </trkpt>
      <trkpt lat="47.54369" lon="6.75247">
        <ele>506</ele>
        <time>2017-10-15T09:20:20.999Z</time>
      </trkpt>
      <trkpt lat="47.54367" lon="6.75252">
        <ele>506</ele>
        <time>2017-10-15T09:20:21.999Z</time>
      </trkpt>
      <trkpt lat="47.54365" lon="6.75257">
        <ele>506.9</ele>
        <time>2017-10-15T09:20:22.999Z</time>
      </trkpt>
      <trkpt lat="47.54362" lon="6.75261">
        <ele>507</ele>
        <time>2017-10-15T09:20:23.999Z</time>
      </trkpt>
      <trkpt lat="47.5436" lon="6.75265">
        <ele>507</ele>
        <time>2017-10-15T09:20:24.999Z</time>
      </trkpt>
      <trkpt lat="47.54356" lon="6.75272">
        <ele>506.8</ele>
        <time>2017-10-15T09:20:25.999Z</time>
      </trkpt>
      <trkpt lat="47.54353" lon="6.75275">
        <ele>506.7</ele>
        <time>2017-10-15T09:20:26.999Z</time>
      </trkpt>
      <trkpt lat="47.5435" lon="6.75279">
        <ele>506.7</ele>
        <time>2017-10-15T09:20:27.999Z</time>
      </trkpt>
      <trkpt lat="47.54348" lon="6.75282">
        <ele>506.6</ele>
        <time>2017-10-15T09:20:28.999Z</time>
      </trkpt>
      <trkpt lat="47.54346" lon="6.75284">
        <ele>506.6</ele>
        <time>2017-10-15T09:20:29.999Z</time>
      </trkpt>
      <trkpt lat="47.54345" lon="6.75288">
        <ele>506.5</ele>
        <time>2017-10-15T09:20:30.999Z</time>
      </trkpt>
      <trkpt lat="47.54343" lon="6.75292">
        <ele>506.5</ele>
        <time>2017-10-15T09:20:31.999Z</time>
      </trkpt>
      <trkpt lat="47.5434" lon="6.75297">
        <ele>506.4</ele>
        <time>2017-10-15T09:20:32.999Z</time>
      </trkpt>
      <trkpt lat="47.54337" lon="6.75303">
        <ele>506.4</ele>
        <time>2017-10-15T09:20:33.999Z</time>
      </trkpt>
      <trkpt lat="47.54334" lon="6.75308">
        <ele>506.4</ele>
        <time>2017-10-15T09:20:34.999Z</time>
      </trkpt>
      <trkpt lat="47.54333" lon="6.75313">
        <ele>506.3</ele>
        <time>2017-10-15T09:20:35.999Z</time>
      </trkpt>
      <trkpt lat="47.54333" lon="6.75321">
        <ele>505.2</ele>
        <time>2017-10-15T09:20:36.999Z</time>
      </trkpt>
      <trkpt lat="47.54327" lon="6.7533">
        <ele>504.3</ele>
        <time>2017-10-15T09:20:37.999Z</time>
      </trkpt>
      <trkpt lat="47.54324" lon="6.75333">
        <ele>503.6</ele>
        <time>2017-10-15T09:20:38.999Z</time>
      </trkpt>
      <trkpt lat="47.54322" lon="6.75337">
        <ele>503.6</ele>
        <time>2017-10-15T09:20:39.999Z</time>
      </trkpt>
      <trkpt lat="47.54319" lon="6.75341">
        <ele>503.5</ele>
        <time>2017-10-15T09:20:40.999Z</time>
      </trkpt>
      <trkpt lat="47.54316" lon="6.75348">
        <ele>503.8</ele>
        <time>2017-10-15T09:20:41.999Z</time>
      </trkpt>
      <trkpt lat="47.54313" lon="6.75355">
        <ele>503.5</ele>
        <time>2017-10-15T09:20:42.999Z</time>
      </trkpt>
      <trkpt lat="47.54307" lon="6.75361">
        <ele>503.7</ele>
        <time>2017-10-15T09:20:43.999Z</time>
      </trkpt>
      <trkpt lat="47.54301" lon="6.75366">
        <ele>503.3</ele>
        <time>2017-10-15T09:20:44.999Z</time>
      </trkpt>
      <trkpt lat="47.54299" lon="6.75369">
        <ele>503.3</ele>
        <time>2017-10-15T09:20:45.999Z</time>
      </trkpt>
      <trkpt lat="47.54294" lon="6.75377">
        <ele>503.4</ele>
        <time>2017-10-15T09:20:46.999Z</time>
      </trkpt>
      <trkpt lat="47.54291" lon="6.75382">
        <ele>503.4</ele>
        <time>2017-10-15T09:20:47.999Z</time>
      </trkpt>
      <trkpt lat="47.54289" lon="6.7539">
        <ele>503.2</ele>
        <time>2017-10-15T09:20:48.999Z</time>
      </trkpt>
      <trkpt lat="47.54286" lon="6.75395">
        <ele>502.1</ele>
        <time>2017-10-15T09:20:49.999Z</time>
      </trkpt>
      <trkpt lat="47.54284" lon="6.75401">
        <ele>501.5</ele>
        <time>2017-10-15T09:20:50.999Z</time>
      </trkpt>
      <trkpt lat="47.54281" lon="6.75409">
        <ele>500.4</ele>
        <time>2017-10-15T09:20:51.999Z</time>
      </trkpt>
      <trkpt lat="47.54278" lon="6.75417">
        <ele>500.3</ele>
        <time>2017-10-15T09:20:52.999Z</time>
      </trkpt>
      <trkpt lat="47.54275" lon="6.75421">
        <ele>500.2</ele>
        <time>2017-10-15T09:20:53.999Z</time>
      </trkpt>
      <trkpt lat="47.54273" lon="6.75424">
        <ele>500.2</ele>
        <time>2017-10-15T09:20:54.999Z</time>
      </trkpt>
      <trkpt lat="47.5427" lon="6.75432">
        <ele>500.3</ele>
        <time>2017-10-15T09:20:55.999Z</time>
      </trkpt>
      <trkpt lat="47.54269" lon="6.7544">
        <ele>499.9</ele>
        <time>2017-10-15T09:20:56.999Z</time>
      </trkpt>
      <trkpt lat="47.54266" lon="6.75453">
        <ele>498.6</ele>
        <time>2017-10-15T09:20:57.999Z</time>
      </trkpt>
      <trkpt lat="47.54261" lon="6.75463">
        <ele>498.4</ele>
        <time>2017-10-15T09:20:58.999Z</time>
      </trkpt>
      <trkpt lat="47.54256" lon="6.75471">
        <ele>498.3</ele>
        <time>2017-10-15T09:20:59.999Z</time>
      </trkpt>
      <trkpt lat="47.54252" lon="6.75475">
        <ele>497.9</ele>
        <time>2017-10-15T09:21:00.999Z</time>
      </trkpt>
      <trkpt lat="47.54249" lon="6.75478">
        <ele>498.4</ele>
        <time>2017-10-15T09:21:01.999Z</time>
      </trkpt>
      <trkpt lat="47.54246" lon="6.75486">
        <ele>497.4</ele>
        <time>2017-10-15T09:21:02.999Z</time>
      </trkpt>
      <trkpt lat="47.5424" lon="6.75496">
        <ele>496.9</ele>
        <time>2017-10-15T09:21:03.999Z</time>
      </trkpt>
      <trkpt lat="47.54235" lon="6.75505">
        <ele>496.8</ele>
        <time>2017-10-15T09:21:04.999Z</time>
      </trkpt>
      <trkpt lat="47.54234" lon="6.75512">
        <ele>494.9</ele>
        <time>2017-10-15T09:21:05.999Z</time>
      </trkpt>
      <trkpt lat="47.5423" lon="6.75517">
        <ele>494.8</ele>
        <time>2017-10-15T09:21:06.999Z</time>
      </trkpt>
      <trkpt lat="47.54228" lon="6.7552">
        <ele>494.6</ele>
        <time>2017-10-15T09:21:07.999Z</time>
      </trkpt>
      <trkpt lat="47.5423" lon="6.7553">
        <ele>493.3</ele>
        <time>2017-10-15T09:21:08.999Z</time>
      </trkpt>
      <trkpt lat="47.54232" lon="6.75539">
        <ele>491.9</ele>
        <time>2017-10-15T09:21:09.999Z</time>
      </trkpt>
      <trkpt lat="47.5423" lon="6.75545">
        <ele>491.6</ele>
        <time>2017-10-15T09:21:10.999Z</time>
      </trkpt>
      <trkpt lat="47.54227" lon="6.75552">
        <ele>491.1</ele>
        <time>2017-10-15T09:21:11.999Z</time>
      </trkpt>
      <trkpt lat="47.54221" lon="6.75561">
        <ele>491.3</ele>
        <time>2017-10-15T09:21:12.999Z</time>
      </trkpt>
      <trkpt lat="47.54218" lon="6.75572">
        <ele>491.8</ele>
        <time>2017-10-15T09:21:13.999Z</time>
      </trkpt>
      <trkpt lat="47.54213" lon="6.75583">
        <ele>492.6</ele>
        <time>2017-10-15T09:21:14.999Z</time>
      </trkpt>
      <trkpt lat="47.54208" lon="6.75591">
        <ele>494.1</ele>
        <time>2017-10-15T09:21:15.999Z</time>
      </trkpt>
      <trkpt lat="47.54206" lon="6.756">
        <ele>494.8</ele>
        <time>2017-10-15T09:21:16.999Z</time>
      </trkpt>
      <trkpt lat="47.54205" lon="6.75611">
        <ele>495.5</ele>
        <time>2017-10-15T09:21:17.999Z</time>
      </trkpt>
      <trkpt lat="47.54204" lon="6.75621">
        <ele>496</ele>
        <time>2017-10-15T09:21:18.999Z</time>
      </trkpt>
      <trkpt lat="47.54201" lon="6.7563">
        <ele>496.2</ele>
        <time>2017-10-15T09:21:19.999Z</time>
      </trkpt>
      <trkpt lat="47.54197" lon="6.7564">
        <ele>495.7</ele>
        <time>2017-10-15T09:21:20.999Z</time>
      </trkpt>
      <trkpt lat="47.54194" lon="6.75648">
        <ele>494.7</ele>
        <time>2017-10-15T09:21:21.999Z</time>
      </trkpt>
      <trkpt lat="47.54191" lon="6.75656">
        <ele>493.4</ele>
        <time>2017-10-15T09:21:22.999Z</time>
      </trkpt>
      <trkpt lat="47.54188" lon="6.75665">
        <ele>491.3</ele>
        <time>2017-10-15T09:21:23.999Z</time>
      </trkpt>
      <trkpt lat="47.54186" lon="6.75671">
        <ele>490.2</ele>
        <time>2017-10-15T09:21:24.999Z</time>
      </trkpt>
      <trkpt lat="47.54184" lon="6.75677">
        <ele>489.5</ele>
        <time>2017-10-15T09:21:25.999Z</time>
      </trkpt>
      <trkpt lat="47.54181" lon="6.75686">
        <ele>489.6</ele>
        <time>2017-10-15T09:21:26.999Z</time>
      </trkpt>
      <trkpt lat="47.54179" lon="6.75696">
        <ele>490.1</ele>
        <time>2017-10-15T09:21:27.999Z</time>
      </trkpt>
      <trkpt lat="47.54177" lon="6.75705">
        <ele>490.1</ele>
        <time>2017-10-15T09:21:28.999Z</time>
      </trkpt>
      <trkpt lat="47.54175" lon="6.75716">
        <ele>489.8</ele>
        <time>2017-10-15T09:21:29.999Z</time>
      </trkpt>
      <trkpt lat="47.54171" lon="6.75725">
        <ele>490.4</ele>
        <time>2017-10-15T09:21:30.999Z</time>
      </trkpt>
      <trkpt lat="47.54169" lon="6.75732">
        <ele>490.3</ele>
        <time>2017-10-15T09:21:31.999Z</time>
      </trkpt>
      <trkpt lat="47.54167" lon="6.7574">
        <ele>489.9</ele>
        <time>2017-10-15T09:21:32.999Z</time>
      </trkpt>
      <trkpt lat="47.54164" lon="6.75749">
        <ele>488.7</ele>
        <time>2017-10-15T09:21:33.999Z</time>
      </trkpt>
      <trkpt lat="47.54162" lon="6.75758">
        <ele>487.1</ele>
        <time>2017-10-15T09:21:34.999Z</time>
      </trkpt>
      <trkpt lat="47.54159" lon="6.75766">
        <ele>485.8</ele>
        <time>2017-10-15T09:21:35.999Z</time>
      </trkpt>
      <trkpt lat="47.54157" lon="6.75776">
        <ele>485.1</ele>
        <time>2017-10-15T09:21:36.999Z</time>
      </trkpt>
      <trkpt lat="47.54155" lon="6.75786">
        <ele>484</ele>
        <time>2017-10-15T09:21:37.999Z</time>
      </trkpt>
      <trkpt lat="47.54152" lon="6.75794">
        <ele>482</ele>
        <time>2017-10-15T09:21:38.999Z</time>
      </trkpt>
      <trkpt lat="47.5415" lon="6.75802">
        <ele>480.6</ele>
        <time>2017-10-15T09:21:39.999Z</time>
      </trkpt>
      <trkpt lat="47.54147" lon="6.7581">
        <ele>479.3</ele>
        <time>2017-10-15T09:21:40.999Z</time>
      </trkpt>
      <trkpt lat="47.54145" lon="6.75818">
        <ele>478.4</ele>
        <time>2017-10-15T09:21:41.999Z</time>
      </trkpt>
      <trkpt lat="47.54145" lon="6.75826">
        <ele>478</ele>
        <time>2017-10-15T09:21:42.999Z</time>
      </trkpt>
      <trkpt lat="47.54146" lon="6.75833">
        <ele>477.9</ele>
        <time>2017-10-15T09:21:43.999Z</time>
      </trkpt>
      <trkpt lat="47.54146" lon="6.75841">
        <ele>477.6</ele>
        <time>2017-10-15T09:21:44.999Z</time>
      </trkpt>
      <trkpt lat="47.54145" lon="6.75846">
        <ele>477.1</ele>
        <time>2017-10-15T09:21:45.999Z</time>
      </trkpt>
      <trkpt lat="47.54143" lon="6.75852">
        <ele>476.5</ele>
        <time>2017-10-15T09:21:46.999Z</time>
      </trkpt>
      <trkpt lat="47.54141" lon="6.75858">
        <ele>475.9</ele>
        <time>2017-10-15T09:21:47.999Z</time>
      </trkpt>
      <trkpt lat="47.54141" lon="6.75865">
        <ele>475.8</ele>
        <time>2017-10-15T09:21:48.999Z</time>
      </trkpt>
      <trkpt lat="47.54141" lon="6.75871">
        <ele>475.7</ele>
        <time>2017-10-15T09:21:49.999Z</time>
      </trkpt>
      <trkpt lat="47.54141" lon="6.75876">
        <ele>475.6</ele>
        <time>2017-10-15T09:21:50.999Z</time>
      </trkpt>
      <trkpt lat="47.5414" lon="6.75882">
        <ele>475.5</ele>
        <time>2017-10-15T09:21:51.999Z</time>
      </trkpt>
      <trkpt lat="47.5414" lon="6.75888">
        <ele>475.4</ele>
        <time>2017-10-15T09:21:52.999Z</time>
      </trkpt>
      <trkpt lat="47.54141" lon="6.75894">
        <ele>475.4</ele>
        <time>2017-10-15T09:21:53.999Z</time>
      </trkpt>
      <trkpt lat="47.5414" lon="6.75899">
        <ele>475.3</ele>
        <time>2017-10-15T09:21:54.999Z</time>
      </trkpt>
      <trkpt lat="47.5414" lon="6.75905">
        <ele>475.4</ele>
        <time>2017-10-15T09:21:55.999Z</time>
      </trkpt>
      <trkpt lat="47.54139" lon="6.7591">
        <ele>475.5</ele>
        <time>2017-10-15T09:21:56.999Z</time>
      </trkpt>
      <trkpt lat="47.54139" lon="6.75916">
        <ele>475.5</ele>
        <time>2017-10-15T09:21:57.999Z</time>
      </trkpt>
      <trkpt lat="47.54138" lon="6.75922">
        <ele>475.6</ele>
        <time>2017-10-15T09:21:58.999Z</time>
      </trkpt>
      <trkpt lat="47.54137" lon="6.7593">
        <ele>475.6</ele>
        <time>2017-10-15T09:21:59.999Z</time>
      </trkpt>
      <trkpt lat="47.54136" lon="6.75936">
        <ele>475.6</ele>
        <time>2017-10-15T09:22:00.999Z</time>
      </trkpt>
      <trkpt lat="47.54134" lon="6.75944">
        <ele>475.5</ele>
        <time>2017-10-15T09:22:01.999Z</time>
      </trkpt>
      <trkpt lat="47.54133" lon="6.75952">
        <ele>475.4</ele>
        <time>2017-10-15T09:22:02.999Z</time>
      </trkpt>
      <trkpt lat="47.54131" lon="6.7596">
        <ele>474.6</ele>
        <time>2017-10-15T09:22:03.999Z</time>
      </trkpt>
      <trkpt lat="47.54129" lon="6.75967">
        <ele>474.5</ele>
        <time>2017-10-15T09:22:04.999Z</time>
      </trkpt>
      <trkpt lat="47.54127" lon="6.75975">
        <ele>473.1</ele>
        <time>2017-10-15T09:22:05.999Z</time>
      </trkpt>
      <trkpt lat="47.54125" lon="6.75983">
        <ele>472.4</ele>
        <time>2017-10-15T09:22:06.999Z</time>
      </trkpt>
      <trkpt lat="47.54123" lon="6.75991">
        <ele>471.8</ele>
        <time>2017-10-15T09:22:07.999Z</time>
      </trkpt>
      <trkpt lat="47.5412" lon="6.76">
        <ele>470.6</ele>
        <time>2017-10-15T09:22:08.999Z</time>
      </trkpt>
      <trkpt lat="47.54116" lon="6.76006">
        <ele>470</ele>
        <time>2017-10-15T09:22:09.999Z</time>
      </trkpt>
      <trkpt lat="47.54113" lon="6.76013">
        <ele>469.6</ele>
        <time>2017-10-15T09:22:10.999Z</time>
      </trkpt>
      <trkpt lat="47.54111" lon="6.7602">
        <ele>469.5</ele>
        <time>2017-10-15T09:22:11.999Z</time>
      </trkpt>
      <trkpt lat="47.54109" lon="6.76025">
        <ele>469.6</ele>
        <time>2017-10-15T09:22:12.999Z</time>
      </trkpt>
      <trkpt lat="47.54107" lon="6.7603">
        <ele>469.7</ele>
        <time>2017-10-15T09:22:13.999Z</time>
      </trkpt>
      <trkpt lat="47.54106" lon="6.76036">
        <ele>469.8</ele>
        <time>2017-10-15T09:22:14.999Z</time>
      </trkpt>
      <trkpt lat="47.54104" lon="6.76041">
        <ele>469.9</ele>
        <time>2017-10-15T09:22:15.999Z</time>
      </trkpt>
      <trkpt lat="47.54101" lon="6.76047">
        <ele>470.1</ele>
        <time>2017-10-15T09:22:16.999Z</time>
      </trkpt>
      <trkpt lat="47.54099" lon="6.76053">
        <ele>470.2</ele>
        <time>2017-10-15T09:22:17.999Z</time>
      </trkpt>
      <trkpt lat="47.54096" lon="6.76058">
        <ele>470.4</ele>
        <time>2017-10-15T09:22:18.999Z</time>
      </trkpt>
      <trkpt lat="47.54095" lon="6.76062">
        <ele>470.6</ele>
        <time>2017-10-15T09:22:19.999Z</time>
      </trkpt>
      <trkpt lat="47.54093" lon="6.76067">
        <ele>475.9</ele>
        <time>2017-10-15T09:23:33.999Z</time>
      </trkpt>
      <trkpt lat="47.54091" lon="6.7609">
        <ele>476</ele>
        <time>2017-10-15T09:23:34.999Z</time>
      </trkpt>
      <trkpt lat="47.54091" lon="6.76096">
        <ele>476.3</ele>
        <time>2017-10-15T09:23:37.999Z</time>
      </trkpt>
      <trkpt lat="47.54091" lon="6.761">
        <ele>476.3</ele>
        <time>2017-10-15T09:23:38.999Z</time>
      </trkpt>
      <trkpt lat="47.54089" lon="6.76105">
        <ele>476.3</ele>
        <time>2017-10-15T09:23:39.999Z</time>
      </trkpt>
      <trkpt lat="47.54088" lon="6.7611">
        <ele>476.4</ele>
        <time>2017-10-15T09:23:40.999Z</time>
      </trkpt>
      <trkpt lat="47.54087" lon="6.76114">
        <ele>476.5</ele>
        <time>2017-10-15T09:23:41.999Z</time>
      </trkpt>
      <trkpt lat="47.54086" lon="6.76118">
        <ele>476.5</ele>
        <time>2017-10-15T09:23:42.999Z</time>
      </trkpt>
      <trkpt lat="47.54085" lon="6.76122">
        <ele>476.5</ele>
        <time>2017-10-15T09:23:43.999Z</time>
      </trkpt>
      <trkpt lat="47.54084" lon="6.76126">
        <ele>476.5</ele>
        <time>2017-10-15T09:23:44.999Z</time>
      </trkpt>
      <trkpt lat="47.54083" lon="6.76129">
        <ele>476.6</ele>
        <time>2017-10-15T09:23:45.999Z</time>
      </trkpt>
      <trkpt lat="47.54082" lon="6.76133">
        <ele>476.6</ele>
        <time>2017-10-15T09:23:46.999Z</time>
      </trkpt>
      <trkpt lat="47.54081" lon="6.76138">
        <ele>476.7</ele>
        <time>2017-10-15T09:23:47.999Z</time>
      </trkpt>
      <trkpt lat="47.5408" lon="6.76145">
        <ele>476.7</ele>
        <time>2017-10-15T09:23:48.999Z</time>
      </trkpt>
      <trkpt lat="47.54079" lon="6.76151">
        <ele>476.7</ele>
        <time>2017-10-15T09:23:49.999Z</time>
      </trkpt>
      <trkpt lat="47.54078" lon="6.7616">
        <ele>476.8</ele>
        <time>2017-10-15T09:23:50.999Z</time>
      </trkpt>
      <trkpt lat="47.54077" lon="6.76169">
        <ele>476.9</ele>
        <time>2017-10-15T09:23:51.999Z</time>
      </trkpt>
      <trkpt lat="47.54075" lon="6.76176">
        <ele>476.9</ele>
        <time>2017-10-15T09:23:52.999Z</time>
      </trkpt>
      <trkpt lat="47.54073" lon="6.76182">
        <ele>476.9</ele>
        <time>2017-10-15T09:23:53.999Z</time>
      </trkpt>
      <trkpt lat="47.5407" lon="6.76188">
        <ele>476.9</ele>
        <time>2017-10-15T09:23:54.999Z</time>
      </trkpt>
      <trkpt lat="47.54069" lon="6.76194">
        <ele>476.6</ele>
        <time>2017-10-15T09:23:56.999Z</time>
      </trkpt>
      <trkpt lat="47.54068" lon="6.76199">
        <ele>476.6</ele>
        <time>2017-10-15T09:23:57.999Z</time>
      </trkpt>
      <trkpt lat="47.54066" lon="6.76206">
        <ele>476.5</ele>
        <time>2017-10-15T09:23:58.999Z</time>
      </trkpt>
      <trkpt lat="47.54064" lon="6.76211">
        <ele>476.3</ele>
        <time>2017-10-15T09:23:59.999Z</time>
      </trkpt>
      <trkpt lat="47.54062" lon="6.76217">
        <ele>476.1</ele>
        <time>2017-10-15T09:24:00.999Z</time>
      </trkpt>
      <trkpt lat="47.5406" lon="6.76224">
        <ele>475.6</ele>
        <time>2017-10-15T09:24:01.999Z</time>
      </trkpt>
      <trkpt lat="47.54058" lon="6.7623">
        <ele>475.5</ele>
        <time>2017-10-15T09:24:02.999Z</time>
      </trkpt>
      <trkpt lat="47.54058" lon="6.76235">
        <ele>475.4</ele>
        <time>2017-10-15T09:24:03.999Z</time>
      </trkpt>
      <trkpt lat="47.54058" lon="6.76239">
        <ele>475.2</ele>
        <time>2017-10-15T09:24:04.999Z</time>
      </trkpt>
      <trkpt lat="47.54057" lon="6.76243">
        <ele>475.1</ele>
        <time>2017-10-15T09:24:05.999Z</time>
      </trkpt>
      <trkpt lat="47.54056" lon="6.7625">
        <ele>473.4</ele>
        <time>2017-10-15T09:24:06.999Z</time>
      </trkpt>
      <trkpt lat="47.54055" lon="6.76254">
        <ele>473.2</ele>
        <time>2017-10-15T09:24:07.999Z</time>
      </trkpt>
      <trkpt lat="47.54054" lon="6.76261">
        <ele>473.1</ele>
        <time>2017-10-15T09:24:08.999Z</time>
      </trkpt>
      <trkpt lat="47.54053" lon="6.76268">
        <ele>472.9</ele>
        <time>2017-10-15T09:24:09.999Z</time>
      </trkpt>
      <trkpt lat="47.54052" lon="6.76276">
        <ele>473</ele>
        <time>2017-10-15T09:24:10.999Z</time>
      </trkpt>
      <trkpt lat="47.5405" lon="6.76282">
        <ele>473.1</ele>
        <time>2017-10-15T09:24:11.999Z</time>
      </trkpt>
      <trkpt lat="47.54048" lon="6.76287">
        <ele>473.2</ele>
        <time>2017-10-15T09:24:12.999Z</time>
      </trkpt>
      <trkpt lat="47.54046" lon="6.76294">
        <ele>473.5</ele>
        <time>2017-10-15T09:24:13.999Z</time>
      </trkpt>
      <trkpt lat="47.54044" lon="6.76302">
        <ele>473.7</ele>
        <time>2017-10-15T09:24:14.999Z</time>
      </trkpt>
      <trkpt lat="47.54041" lon="6.7631">
        <ele>473.5</ele>
        <time>2017-10-15T09:24:15.999Z</time>
      </trkpt>
      <trkpt lat="47.54039" lon="6.76317">
        <ele>474</ele>
        <time>2017-10-15T09:24:16.999Z</time>
      </trkpt>
      <trkpt lat="47.54036" lon="6.76324">
        <ele>474.7</ele>
        <time>2017-10-15T09:24:17.999Z</time>
      </trkpt>
      <trkpt lat="47.54034" lon="6.76332">
        <ele>475.1</ele>
        <time>2017-10-15T09:24:18.999Z</time>
      </trkpt>
      <trkpt lat="47.54032" lon="6.7634">
        <ele>476</ele>
        <time>2017-10-15T09:24:19.999Z</time>
      </trkpt>
      <trkpt lat="47.54029" lon="6.76347">
        <ele>476.1</ele>
        <time>2017-10-15T09:24:20.999Z</time>
      </trkpt>
      <trkpt lat="47.54028" lon="6.76352">
        <ele>476</ele>
        <time>2017-10-15T09:24:21.999Z</time>
      </trkpt>
      <trkpt lat="47.54026" lon="6.76355">
        <ele>476</ele>
        <time>2017-10-15T09:24:22.999Z</time>
      </trkpt>
      <trkpt lat="47.54023" lon="6.7636">
        <ele>475.9</ele>
        <time>2017-10-15T09:24:23.999Z</time>
      </trkpt>
      <trkpt lat="47.5402" lon="6.76366">
        <ele>475</ele>
        <time>2017-10-15T09:24:24.999Z</time>
      </trkpt>
      <trkpt lat="47.54017" lon="6.76371">
        <ele>475</ele>
        <time>2017-10-15T09:24:25.999Z</time>
      </trkpt>
      <trkpt lat="47.54013" lon="6.76377">
        <ele>475.1</ele>
        <time>2017-10-15T09:24:26.999Z</time>
      </trkpt>
      <trkpt lat="47.54011" lon="6.76382">
        <ele>475.1</ele>
        <time>2017-10-15T09:24:27.999Z</time>
      </trkpt>
      <trkpt lat="47.54009" lon="6.76387">
        <ele>475.2</ele>
        <time>2017-10-15T09:24:28.999Z</time>
      </trkpt>
      <trkpt lat="47.54005" lon="6.76394">
        <ele>476.1</ele>
        <time>2017-10-15T09:24:29.999Z</time>
      </trkpt>
      <trkpt lat="47.54001" lon="6.76399">
        <ele>475.9</ele>
        <time>2017-10-15T09:24:30.999Z</time>
      </trkpt>
      <trkpt lat="47.53998" lon="6.76405">
        <ele>475.9</ele>
        <time>2017-10-15T09:24:31.999Z</time>
      </trkpt>
      <trkpt lat="47.53994" lon="6.76412">
        <ele>476</ele>
        <time>2017-10-15T09:24:32.999Z</time>
      </trkpt>
      <trkpt lat="47.53991" lon="6.76419">
        <ele>476.2</ele>
        <time>2017-10-15T09:24:33.999Z</time>
      </trkpt>
      <trkpt lat="47.53987" lon="6.76426">
        <ele>476.5</ele>
        <time>2017-10-15T09:24:34.999Z</time>
      </trkpt>
      <trkpt lat="47.53983" lon="6.76434">
        <ele>476.9</ele>
        <time>2017-10-15T09:24:35.999Z</time>
      </trkpt>
      <trkpt lat="47.5398" lon="6.76438">
        <ele>476.9</ele>
        <time>2017-10-15T09:24:36.999Z</time>
      </trkpt>
      <trkpt lat="47.53978" lon="6.76441">
        <ele>476.8</ele>
        <time>2017-10-15T09:24:37.999Z</time>
      </trkpt>
      <trkpt lat="47.53976" lon="6.76445">
        <ele>476.8</ele>
        <time>2017-10-15T09:24:38.999Z</time>
      </trkpt>
      <trkpt lat="47.53973" lon="6.7645">
        <ele>476.7</ele>
        <time>2017-10-15T09:24:39.999Z</time>
      </trkpt>
      <trkpt lat="47.53971" lon="6.76455">
        <ele>476.7</ele>
        <time>2017-10-15T09:24:40.999Z</time>
      </trkpt>
      <trkpt lat="47.5397" lon="6.7646">
        <ele>476.7</ele>
        <time>2017-10-15T09:24:41.999Z</time>
      </trkpt>
      <trkpt lat="47.53968" lon="6.76463">
        <ele>476.7</ele>
        <time>2017-10-15T09:24:42.999Z</time>
      </trkpt>
      <trkpt lat="47.53966" lon="6.76467">
        <ele>476.7</ele>
        <time>2017-10-15T09:24:43.999Z</time>
      </trkpt>
      <trkpt lat="47.53963" lon="6.76471">
        <ele>476.7</ele>
        <time>2017-10-15T09:24:44.999Z</time>
      </trkpt>
      <trkpt lat="47.5396" lon="6.76478">
        <ele>476.3</ele>
        <time>2017-10-15T09:24:45.999Z</time>
      </trkpt>
      <trkpt lat="47.53956" lon="6.76485">
        <ele>475.4</ele>
        <time>2017-10-15T09:24:46.999Z</time>
      </trkpt>
      <trkpt lat="47.53954" lon="6.7649">
        <ele>475.5</ele>
        <time>2017-10-15T09:24:47.999Z</time>
      </trkpt>
      <trkpt lat="47.5395" lon="6.76493">
        <ele>475.5</ele>
        <time>2017-10-15T09:24:48.999Z</time>
      </trkpt>
      <trkpt lat="47.53948" lon="6.76494">
        <ele>475.5</ele>
        <time>2017-10-15T09:24:49.999Z</time>
      </trkpt>
      <trkpt lat="47.53944" lon="6.76495">
        <ele>475.5</ele>
        <time>2017-10-15T09:24:50.999Z</time>
      </trkpt>
      <trkpt lat="47.53941" lon="6.76498">
        <ele>475.5</ele>
        <time>2017-10-15T09:24:51.999Z</time>
      </trkpt>
      <trkpt lat="47.53938" lon="6.76502">
        <ele>475.5</ele>
        <time>2017-10-15T09:24:52.999Z</time>
      </trkpt>
      <trkpt lat="47.53934" lon="6.76508">
        <ele>475.5</ele>
        <time>2017-10-15T09:24:53.999Z</time>
      </trkpt>
      <trkpt lat="47.53931" lon="6.76515">
        <ele>475.5</ele>
        <time>2017-10-15T09:24:54.999Z</time>
      </trkpt>
      <trkpt lat="47.53929" lon="6.7652">
        <ele>475.5</ele>
        <time>2017-10-15T09:24:55.999Z</time>
      </trkpt>
      <trkpt lat="47.53927" lon="6.76524">
        <ele>475.4</ele>
        <time>2017-10-15T09:24:56.999Z</time>
      </trkpt>
      <trkpt lat="47.53924" lon="6.76527">
        <ele>475.4</ele>
        <time>2017-10-15T09:24:57.999Z</time>
      </trkpt>
      <trkpt lat="47.53922" lon="6.76532">
        <ele>475.4</ele>
        <time>2017-10-15T09:24:58.999Z</time>
      </trkpt>
      <trkpt lat="47.53921" lon="6.76537">
        <ele>475.4</ele>
        <time>2017-10-15T09:24:59.999Z</time>
      </trkpt>
      <trkpt lat="47.53918" lon="6.76546">
        <ele>475.4</ele>
        <time>2017-10-15T09:25:00.999Z</time>
      </trkpt>
      <trkpt lat="47.53915" lon="6.76552">
        <ele>475.4</ele>
        <time>2017-10-15T09:25:01.999Z</time>
      </trkpt>
      <trkpt lat="47.53913" lon="6.76557">
        <ele>475.4</ele>
        <time>2017-10-15T09:25:02.999Z</time>
      </trkpt>
      <trkpt lat="47.53911" lon="6.76564">
        <ele>475.5</ele>
        <time>2017-10-15T09:25:03.999Z</time>
      </trkpt>
      <trkpt lat="47.53909" lon="6.7657">
        <ele>475.6</ele>
        <time>2017-10-15T09:25:04.999Z</time>
      </trkpt>
      <trkpt lat="47.53908" lon="6.76573">
        <ele>475.6</ele>
        <time>2017-10-15T09:25:05.999Z</time>
      </trkpt>
      <trkpt lat="47.53906" lon="6.76577">
        <ele>475.6</ele>
        <time>2017-10-15T09:25:06.999Z</time>
      </trkpt>
      <trkpt lat="47.53903" lon="6.76579">
        <ele>475.8</ele>
        <time>2017-10-15T09:25:07.999Z</time>
      </trkpt>
      <trkpt lat="47.539" lon="6.76581">
        <ele>475.9</ele>
        <time>2017-10-15T09:25:08.999Z</time>
      </trkpt>
      <trkpt lat="47.53897" lon="6.76583">
        <ele>475.9</ele>
        <time>2017-10-15T09:25:09.999Z</time>
      </trkpt>
      <trkpt lat="47.53895" lon="6.76584">
        <ele>476</ele>
        <time>2017-10-15T09:25:10.999Z</time>
      </trkpt>
      <trkpt lat="47.53893" lon="6.76586">
        <ele>476.2</ele>
        <time>2017-10-15T09:25:11.999Z</time>
      </trkpt>
      <trkpt lat="47.5389" lon="6.76588">
        <ele>476.2</ele>
        <time>2017-10-15T09:25:12.999Z</time>
      </trkpt>
      <trkpt lat="47.53889" lon="6.76591">
        <ele>476.3</ele>
        <time>2017-10-15T09:25:13.999Z</time>
      </trkpt>
      <trkpt lat="47.53888" lon="6.76596">
        <ele>476.5</ele>
        <time>2017-10-15T09:25:14.999Z</time>
      </trkpt>
      <trkpt lat="47.53887" lon="6.766">
        <ele>476.5</ele>
        <time>2017-10-15T09:25:15.999Z</time>
      </trkpt>
      <trkpt lat="47.53886" lon="6.76603">
        <ele>476.6</ele>
        <time>2017-10-15T09:25:16.999Z</time>
      </trkpt>
      <trkpt lat="47.53885" lon="6.76606">
        <ele>476.6</ele>
        <time>2017-10-15T09:25:17.999Z</time>
      </trkpt>
      <trkpt lat="47.53884" lon="6.76609">
        <ele>476.5</ele>
        <time>2017-10-15T09:25:18.999Z</time>
      </trkpt>
      <trkpt lat="47.53883" lon="6.76612">
        <ele>476.4</ele>
        <time>2017-10-15T09:25:19.999Z</time>
      </trkpt>
      <trkpt lat="47.53882" lon="6.76615">
        <ele>476.4</ele>
        <time>2017-10-15T09:25:20.999Z</time>
      </trkpt>
      <trkpt lat="47.53879" lon="6.76618">
        <ele>476.4</ele>
        <time>2017-10-15T09:25:21.999Z</time>
      </trkpt>
      <trkpt lat="47.53877" lon="6.76621">
        <ele>476.4</ele>
        <time>2017-10-15T09:25:23.999Z</time>
      </trkpt>
      <trkpt lat="47.53875" lon="6.76622">
        <ele>476.4</ele>
        <time>2017-10-15T09:25:24.999Z</time>
      </trkpt>
      <trkpt lat="47.53873" lon="6.76624">
        <ele>476.3</ele>
        <time>2017-10-15T09:25:25.999Z</time>
      </trkpt>
      <trkpt lat="47.53871" lon="6.76627">
        <ele>476.3</ele>
        <time>2017-10-15T09:25:26.999Z</time>
      </trkpt>
      <trkpt lat="47.53868" lon="6.76632">
        <ele>476.2</ele>
        <time>2017-10-15T09:25:28.999Z</time>
      </trkpt>
      <trkpt lat="47.53866" lon="6.76634">
        <ele>476.1</ele>
        <time>2017-10-15T09:25:29.999Z</time>
      </trkpt>
      <trkpt lat="47.53865" lon="6.76637">
        <ele>476.1</ele>
        <time>2017-10-15T09:25:30.999Z</time>
      </trkpt>
      <trkpt lat="47.53864" lon="6.76641">
        <ele>476</ele>
        <time>2017-10-15T09:25:31.999Z</time>
      </trkpt>
      <trkpt lat="47.53861" lon="6.76643">
        <ele>476</ele>
        <time>2017-10-15T09:25:32.999Z</time>
      </trkpt>
      <trkpt lat="47.53859" lon="6.76644">
        <ele>475.9</ele>
        <time>2017-10-15T09:25:33.999Z</time>
      </trkpt>
      <trkpt lat="47.53856" lon="6.76648">
        <ele>475.9</ele>
        <time>2017-10-15T09:25:34.999Z</time>
      </trkpt>
      <trkpt lat="47.53854" lon="6.76652">
        <ele>475.8</ele>
        <time>2017-10-15T09:25:35.999Z</time>
      </trkpt>
      <trkpt lat="47.53852" lon="6.76657">
        <ele>475.8</ele>
        <time>2017-10-15T09:25:36.999Z</time>
      </trkpt>
      <trkpt lat="47.5385" lon="6.76659">
        <ele>475.7</ele>
        <time>2017-10-15T09:25:37.999Z</time>
      </trkpt>
      <trkpt lat="47.53847" lon="6.76661">
        <ele>475.7</ele>
        <time>2017-10-15T09:25:38.999Z</time>
      </trkpt>
      <trkpt lat="47.53845" lon="6.76664">
        <ele>475.6</ele>
        <time>2017-10-15T09:25:39.999Z</time>
      </trkpt>
      <trkpt lat="47.53841" lon="6.76667">
        <ele>475.5</ele>
        <time>2017-10-15T09:25:40.999Z</time>
      </trkpt>
      <trkpt lat="47.53839" lon="6.76671">
        <ele>475.5</ele>
        <time>2017-10-15T09:25:41.999Z</time>
      </trkpt>
      <trkpt lat="47.53836" lon="6.76676">
        <ele>475.4</ele>
        <time>2017-10-15T09:25:42.999Z</time>
      </trkpt>
      <trkpt lat="47.53833" lon="6.76681">
        <ele>475.2</ele>
        <time>2017-10-15T09:25:43.999Z</time>
      </trkpt>
      <trkpt lat="47.5383" lon="6.76686">
        <ele>475</ele>
        <time>2017-10-15T09:25:44.999Z</time>
      </trkpt>
      <trkpt lat="47.53829" lon="6.76691">
        <ele>475</ele>
        <time>2017-10-15T09:25:45.999Z</time>
      </trkpt>
      <trkpt lat="47.53826" lon="6.76698">
        <ele>474.8</ele>
        <time>2017-10-15T09:25:46.999Z</time>
      </trkpt>
      <trkpt lat="47.53824" lon="6.76704">
        <ele>474.7</ele>
        <time>2017-10-15T09:25:47.999Z</time>
      </trkpt>
      <trkpt lat="47.53822" lon="6.76711">
        <ele>474.6</ele>
        <time>2017-10-15T09:25:48.999Z</time>
      </trkpt>
      <trkpt lat="47.5382" lon="6.76723">
        <ele>473.7</ele>
        <time>2017-10-15T09:25:49.999Z</time>
      </trkpt>
      <trkpt lat="47.5382" lon="6.76735">
        <ele>473.4</ele>
        <time>2017-10-15T09:25:50.999Z</time>
      </trkpt>
      <trkpt lat="47.53819" lon="6.76747">
        <ele>473.1</ele>
        <time>2017-10-15T09:25:51.999Z</time>
      </trkpt>
      <trkpt lat="47.53817" lon="6.76757">
        <ele>473.1</ele>
        <time>2017-10-15T09:25:52.999Z</time>
      </trkpt>
      <trkpt lat="47.53812" lon="6.76767">
        <ele>474.2</ele>
        <time>2017-10-15T09:25:53.999Z</time>
      </trkpt>
      <trkpt lat="47.53808" lon="6.76778">
        <ele>475</ele>
        <time>2017-10-15T09:25:54.999Z</time>
      </trkpt>
      <trkpt lat="47.53803" lon="6.76787">
        <ele>475.1</ele>
        <time>2017-10-15T09:25:55.999Z</time>
      </trkpt>
      <trkpt lat="47.53799" lon="6.76798">
        <ele>474.8</ele>
        <time>2017-10-15T09:25:56.999Z</time>
      </trkpt>
      <trkpt lat="47.53795" lon="6.76811">
        <ele>474.8</ele>
        <time>2017-10-15T09:25:57.999Z</time>
      </trkpt>
      <trkpt lat="47.53792" lon="6.76825">
        <ele>474.1</ele>
        <time>2017-10-15T09:25:58.999Z</time>
      </trkpt>
      <trkpt lat="47.53789" lon="6.76836">
        <ele>473.6</ele>
        <time>2017-10-15T09:25:59.999Z</time>
      </trkpt>
      <trkpt lat="47.53787" lon="6.76849">
        <ele>473.4</ele>
        <time>2017-10-15T09:26:00.999Z</time>
      </trkpt>
      <trkpt lat="47.53785" lon="6.76862">
        <ele>473.6</ele>
        <time>2017-10-15T09:26:01.999Z</time>
      </trkpt>
      <trkpt lat="47.53783" lon="6.76875">
        <ele>473.8</ele>
        <time>2017-10-15T09:26:02.999Z</time>
      </trkpt>
      <trkpt lat="47.53782" lon="6.76889">
        <ele>474.2</ele>
        <time>2017-10-15T09:26:03.999Z</time>
      </trkpt>
      <trkpt lat="47.53781" lon="6.76904">
        <ele>473.5</ele>
        <time>2017-10-15T09:26:04.999Z</time>
      </trkpt>
      <trkpt lat="47.53783" lon="6.76915">
        <ele>473.2</ele>
        <time>2017-10-15T09:26:05.999Z</time>
      </trkpt>
      <trkpt lat="47.53786" lon="6.76925">
        <ele>472.4</ele>
        <time>2017-10-15T09:26:06.999Z</time>
      </trkpt>
      <trkpt lat="47.53786" lon="6.76933">
        <ele>471.1</ele>
        <time>2017-10-15T09:26:07.999Z</time>
      </trkpt>
      <trkpt lat="47.53787" lon="6.76941">
        <ele>469.3</ele>
        <time>2017-10-15T09:26:08.999Z</time>
      </trkpt>
      <trkpt lat="47.53786" lon="6.76949">
        <ele>468</ele>
        <time>2017-10-15T09:26:09.999Z</time>
      </trkpt>
      <trkpt lat="47.53786" lon="6.76959">
        <ele>467.6</ele>
        <time>2017-10-15T09:26:10.999Z</time>
      </trkpt>
      <trkpt lat="47.53785" lon="6.76968">
        <ele>466.3</ele>
        <time>2017-10-15T09:26:11.999Z</time>
      </trkpt>
      <trkpt lat="47.53784" lon="6.76977">
        <ele>466</ele>
        <time>2017-10-15T09:26:12.999Z</time>
      </trkpt>
      <trkpt lat="47.53783" lon="6.76985">
        <ele>465.4</ele>
        <time>2017-10-15T09:26:13.999Z</time>
      </trkpt>
      <trkpt lat="47.53783" lon="6.76994">
        <ele>464.9</ele>
        <time>2017-10-15T09:26:14.999Z</time>
      </trkpt>
      <trkpt lat="47.53782" lon="6.77006">
        <ele>464.8</ele>
        <time>2017-10-15T09:26:15.999Z</time>
      </trkpt>
      <trkpt lat="47.5378" lon="6.77016">
        <ele>464.9</ele>
        <time>2017-10-15T09:26:16.999Z</time>
      </trkpt>
      <trkpt lat="47.5378" lon="6.77026">
        <ele>465.3</ele>
        <time>2017-10-15T09:26:17.999Z</time>
      </trkpt>
      <trkpt lat="47.5378" lon="6.77035">
        <ele>465.5</ele>
        <time>2017-10-15T09:26:18.999Z</time>
      </trkpt>
      <trkpt lat="47.53779" lon="6.77047">
        <ele>466.3</ele>
        <time>2017-10-15T09:26:19.999Z</time>
      </trkpt>
      <trkpt lat="47.53779" lon="6.77061">
        <ele>466.3</ele>
        <time>2017-10-15T09:26:20.999Z</time>
      </trkpt>
      <trkpt lat="47.53779" lon="6.77073">
        <ele>465.9</ele>
        <time>2017-10-15T09:26:21.999Z</time>
      </trkpt>
      <trkpt lat="47.53779" lon="6.77085">
        <ele>465.7</ele>
        <time>2017-10-15T09:26:22.999Z</time>
      </trkpt>
      <trkpt lat="47.53778" lon="6.77096">
        <ele>464.9</ele>
        <time>2017-10-15T09:26:23.999Z</time>
      </trkpt>
      <trkpt lat="47.53777" lon="6.77106">
        <ele>464.3</ele>
        <time>2017-10-15T09:26:24.999Z</time>
      </trkpt>
      <trkpt lat="47.53777" lon="6.77119">
        <ele>463.3</ele>
        <time>2017-10-15T09:26:25.999Z</time>
      </trkpt>
      <trkpt lat="47.53776" lon="6.77131">
        <ele>462.7</ele>
        <time>2017-10-15T09:26:26.999Z</time>
      </trkpt>
      <trkpt lat="47.53775" lon="6.77143">
        <ele>462.1</ele>
        <time>2017-10-15T09:26:27.999Z</time>
      </trkpt>
      <trkpt lat="47.53775" lon="6.77155">
        <ele>461.3</ele>
        <time>2017-10-15T09:26:28.999Z</time>
      </trkpt>
      <trkpt lat="47.53774" lon="6.77169">
        <ele>461.1</ele>
        <time>2017-10-15T09:26:29.999Z</time>
      </trkpt>
      <trkpt lat="47.53774" lon="6.77185">
        <ele>460.7</ele>
        <time>2017-10-15T09:26:30.999Z</time>
      </trkpt>
      <trkpt lat="47.53774" lon="6.77203">
        <ele>460.6</ele>
        <time>2017-10-15T09:26:31.999Z</time>
      </trkpt>
      <trkpt lat="47.53771" lon="6.7722">
        <ele>459.6</ele>
        <time>2017-10-15T09:26:32.999Z</time>
      </trkpt>
      <trkpt lat="47.53767" lon="6.77237">
        <ele>459</ele>
        <time>2017-10-15T09:26:33.999Z</time>
      </trkpt>
      <trkpt lat="47.53763" lon="6.77253">
        <ele>458</ele>
        <time>2017-10-15T09:26:34.999Z</time>
      </trkpt>
      <trkpt lat="47.5376" lon="6.77271">
        <ele>457.8</ele>
        <time>2017-10-15T09:26:35.999Z</time>
      </trkpt>
      <trkpt lat="47.53758" lon="6.77286">
        <ele>457.4</ele>
        <time>2017-10-15T09:26:36.999Z</time>
      </trkpt>
      <trkpt lat="47.53756" lon="6.77302">
        <ele>456.1</ele>
        <time>2017-10-15T09:26:37.999Z</time>
      </trkpt>
      <trkpt lat="47.53753" lon="6.77317">
        <ele>455.2</ele>
        <time>2017-10-15T09:26:38.999Z</time>
      </trkpt>
      <trkpt lat="47.53746" lon="6.77328">
        <ele>454.9</ele>
        <time>2017-10-15T09:26:39.999Z</time>
      </trkpt>
      <trkpt lat="47.53739" lon="6.77338">
        <ele>454</ele>
        <time>2017-10-15T09:26:40.999Z</time>
      </trkpt>
      <trkpt lat="47.53731" lon="6.77348">
        <ele>452.1</ele>
        <time>2017-10-15T09:26:41.999Z</time>
      </trkpt>
      <trkpt lat="47.53723" lon="6.77352">
        <ele>450.6</ele>
        <time>2017-10-15T09:26:42.999Z</time>
      </trkpt>
      <trkpt lat="47.53713" lon="6.77357">
        <ele>449.7</ele>
        <time>2017-10-15T09:26:43.999Z</time>
      </trkpt>
      <trkpt lat="47.53702" lon="6.77362">
        <ele>448.4</ele>
        <time>2017-10-15T09:26:44.999Z</time>
      </trkpt>
      <trkpt lat="47.53695" lon="6.77369">
        <ele>446.3</ele>
        <time>2017-10-15T09:26:45.999Z</time>
      </trkpt>
      <trkpt lat="47.53688" lon="6.77374">
        <ele>443.1</ele>
        <time>2017-10-15T09:26:46.999Z</time>
      </trkpt>
      <trkpt lat="47.53684" lon="6.77372">
        <ele>441.7</ele>
        <time>2017-10-15T09:26:47.999Z</time>
      </trkpt>
      <trkpt lat="47.5368" lon="6.77363">
        <ele>440.8</ele>
        <time>2017-10-15T09:26:48.999Z</time>
      </trkpt>
      <trkpt lat="47.53677" lon="6.77353">
        <ele>440.1</ele>
        <time>2017-10-15T09:26:49.999Z</time>
      </trkpt>
      <trkpt lat="47.53672" lon="6.77343">
        <ele>438.6</ele>
        <time>2017-10-15T09:26:50.999Z</time>
      </trkpt>
      <trkpt lat="47.53666" lon="6.77335">
        <ele>436.9</ele>
        <time>2017-10-15T09:26:51.999Z</time>
      </trkpt>
      <trkpt lat="47.53661" lon="6.77325">
        <ele>435.5</ele>
        <time>2017-10-15T09:26:52.999Z</time>
      </trkpt>
      <trkpt lat="47.53657" lon="6.77317">
        <ele>434.8</ele>
        <time>2017-10-15T09:26:53.999Z</time>
      </trkpt>
      <trkpt lat="47.5365" lon="6.77307">
        <ele>433.7</ele>
        <time>2017-10-15T09:26:54.999Z</time>
      </trkpt>
      <trkpt lat="47.53644" lon="6.77301">
        <ele>432.3</ele>
        <time>2017-10-15T09:26:55.999Z</time>
      </trkpt>
      <trkpt lat="47.53635" lon="6.773">
        <ele>431</ele>
        <time>2017-10-15T09:26:56.999Z</time>
      </trkpt>
      <trkpt lat="47.53625" lon="6.77299">
        <ele>429.5</ele>
        <time>2017-10-15T09:26:57.999Z</time>
      </trkpt>
      <trkpt lat="47.53618" lon="6.77297">
        <ele>427.6</ele>
        <time>2017-10-15T09:26:58.999Z</time>
      </trkpt>
      <trkpt lat="47.53611" lon="6.77296">
        <ele>425.8</ele>
        <time>2017-10-15T09:26:59.999Z</time>
      </trkpt>
      <trkpt lat="47.53602" lon="6.77294">
        <ele>424.5</ele>
        <time>2017-10-15T09:27:00.999Z</time>
      </trkpt>
      <trkpt lat="47.53594" lon="6.7729">
        <ele>422</ele>
        <time>2017-10-15T09:27:01.999Z</time>
      </trkpt>
      <trkpt lat="47.53585" lon="6.77288">
        <ele>420.2</ele>
        <time>2017-10-15T09:27:02.999Z</time>
      </trkpt>
      <trkpt lat="47.53575" lon="6.77285">
        <ele>418.3</ele>
        <time>2017-10-15T09:27:03.999Z</time>
      </trkpt>
      <trkpt lat="47.53566" lon="6.77284">
        <ele>416.9</ele>
        <time>2017-10-15T09:27:04.999Z</time>
      </trkpt>
      <trkpt lat="47.53555" lon="6.77282">
        <ele>415.1</ele>
        <time>2017-10-15T09:27:05.999Z</time>
      </trkpt>
      <trkpt lat="47.53546" lon="6.7728">
        <ele>413.9</ele>
        <time>2017-10-15T09:27:06.999Z</time>
      </trkpt>
      <trkpt lat="47.53536" lon="6.77276">
        <ele>412.7</ele>
        <time>2017-10-15T09:27:07.999Z</time>
      </trkpt>
      <trkpt lat="47.53525" lon="6.77273">
        <ele>412.7</ele>
        <time>2017-10-15T09:27:08.999Z</time>
      </trkpt>
      <trkpt lat="47.53514" lon="6.77272">
        <ele>412.1</ele>
        <time>2017-10-15T09:27:09.999Z</time>
      </trkpt>
      <trkpt lat="47.53504" lon="6.77272">
        <ele>411.1</ele>
        <time>2017-10-15T09:27:10.999Z</time>
      </trkpt>
      <trkpt lat="47.53494" lon="6.77272">
        <ele>410.9</ele>
        <time>2017-10-15T09:27:11.999Z</time>
      </trkpt>
      <trkpt lat="47.53485" lon="6.7727">
        <ele>411.2</ele>
        <time>2017-10-15T09:27:12.999Z</time>
      </trkpt>
      <trkpt lat="47.53475" lon="6.77268">
        <ele>410.9</ele>
        <time>2017-10-15T09:27:13.999Z</time>
      </trkpt>
      <trkpt lat="47.53465" lon="6.77264">
        <ele>410.6</ele>
        <time>2017-10-15T09:27:14.999Z</time>
      </trkpt>
      <trkpt lat="47.53454" lon="6.77257">
        <ele>410.7</ele>
        <time>2017-10-15T09:27:15.999Z</time>
      </trkpt>
      <trkpt lat="47.53442" lon="6.77252">
        <ele>410.7</ele>
        <time>2017-10-15T09:27:16.999Z</time>
      </trkpt>
      <trkpt lat="47.53432" lon="6.77249">
        <ele>410.5</ele>
        <time>2017-10-15T09:27:17.999Z</time>
      </trkpt>
      <trkpt lat="47.53423" lon="6.77244">
        <ele>409.2</ele>
        <time>2017-10-15T09:27:18.999Z</time>
      </trkpt>
      <trkpt lat="47.53412" lon="6.77235">
        <ele>408.9</ele>
        <time>2017-10-15T09:27:19.999Z</time>
      </trkpt>
      <trkpt lat="47.53401" lon="6.77233">
        <ele>407.3</ele>
        <time>2017-10-15T09:27:20.999Z</time>
      </trkpt>
      <trkpt lat="47.5339" lon="6.77231">
        <ele>406.5</ele>
        <time>2017-10-15T09:27:21.999Z</time>
      </trkpt>
      <trkpt lat="47.5338" lon="6.7723">
        <ele>405.1</ele>
        <time>2017-10-15T09:27:22.999Z</time>
      </trkpt>
      <trkpt lat="47.5337" lon="6.77229">
        <ele>403.4</ele>
        <time>2017-10-15T09:27:23.999Z</time>
      </trkpt>
      <trkpt lat="47.53361" lon="6.77229">
        <ele>402.4</ele>
        <time>2017-10-15T09:27:24.999Z</time>
      </trkpt>
      <trkpt lat="47.53352" lon="6.77232">
        <ele>401.2</ele>
        <time>2017-10-15T09:27:25.999Z</time>
      </trkpt>
      <trkpt lat="47.53345" lon="6.77234">
        <ele>400</ele>
        <time>2017-10-15T09:27:26.999Z</time>
      </trkpt>
      <trkpt lat="47.53338" lon="6.77236">
        <ele>399.8</ele>
        <time>2017-10-15T09:27:27.999Z</time>
      </trkpt>
      <trkpt lat="47.53331" lon="6.77236">
        <ele>399.2</ele>
        <time>2017-10-15T09:27:28.999Z</time>
      </trkpt>
      <trkpt lat="47.53326" lon="6.7724">
        <ele>399.1</ele>
        <time>2017-10-15T09:27:29.999Z</time>
      </trkpt>
      <trkpt lat="47.5332" lon="6.77243">
        <ele>398.7</ele>
        <time>2017-10-15T09:27:30.999Z</time>
      </trkpt>
      <trkpt lat="47.53316" lon="6.77245">
        <ele>397.7</ele>
        <time>2017-10-15T09:27:31.999Z</time>
      </trkpt>
      <trkpt lat="47.5331" lon="6.77245">
        <ele>397.7</ele>
        <time>2017-10-15T09:27:32.999Z</time>
      </trkpt>
      <trkpt lat="47.53306" lon="6.77244">
        <ele>397.7</ele>
        <time>2017-10-15T09:27:33.999Z</time>
      </trkpt>
      <trkpt lat="47.533" lon="6.77244">
        <ele>397.7</ele>
        <time>2017-10-15T09:27:34.999Z</time>
      </trkpt>
      <trkpt lat="47.53293" lon="6.77243">
        <ele>398.2</ele>
        <time>2017-10-15T09:27:35.999Z</time>
      </trkpt>
      <trkpt lat="47.53288" lon="6.77242">
        <ele>398.3</ele>
        <time>2017-10-15T09:27:36.999Z</time>
      </trkpt>
      <trkpt lat="47.53282" lon="6.7724">
        <ele>398.3</ele>
        <time>2017-10-15T09:27:37.999Z</time>
      </trkpt>
      <trkpt lat="47.53276" lon="6.77239">
        <ele>398.3</ele>
        <time>2017-10-15T09:27:38.999Z</time>
      </trkpt>
      <trkpt lat="47.53271" lon="6.7724">
        <ele>397.6</ele>
        <time>2017-10-15T09:27:39.999Z</time>
      </trkpt>
      <trkpt lat="47.53266" lon="6.77238">
        <ele>397.5</ele>
        <time>2017-10-15T09:27:40.999Z</time>
      </trkpt>
      <trkpt lat="47.53262" lon="6.77238">
        <ele>397.5</ele>
        <time>2017-10-15T09:27:41.999Z</time>
      </trkpt>
      <trkpt lat="47.53258" lon="6.77237">
        <ele>397.5</ele>
        <time>2017-10-15T09:27:42.999Z</time>
      </trkpt>
      <trkpt lat="47.53253" lon="6.77236">
        <ele>397.4</ele>
        <time>2017-10-15T09:27:43.999Z</time>
      </trkpt>
      <trkpt lat="47.53249" lon="6.77235">
        <ele>397.4</ele>
        <time>2017-10-15T09:27:44.999Z</time>
      </trkpt>
      <trkpt lat="47.53245" lon="6.77234">
        <ele>397.3</ele>
        <time>2017-10-15T09:27:45.999Z</time>
      </trkpt>
      <trkpt lat="47.53241" lon="6.77234">
        <ele>397.3</ele>
        <time>2017-10-15T09:27:46.999Z</time>
      </trkpt>
      <trkpt lat="47.53237" lon="6.77234">
        <ele>397.3</ele>
        <time>2017-10-15T09:27:47.999Z</time>
      </trkpt>
      <trkpt lat="47.53231" lon="6.77234">
        <ele>397.3</ele>
        <time>2017-10-15T09:27:48.999Z</time>
      </trkpt>
      <trkpt lat="47.53226" lon="6.77233">
        <ele>397.5</ele>
        <time>2017-10-15T09:27:49.999Z</time>
      </trkpt>
      <trkpt lat="47.53222" lon="6.77232">
        <ele>397.6</ele>
        <time>2017-10-15T09:27:50.999Z</time>
      </trkpt>
      <trkpt lat="47.53218" lon="6.77233">
        <ele>397.8</ele>
        <time>2017-10-15T09:27:51.999Z</time>
      </trkpt>
      <trkpt lat="47.53214" lon="6.77234">
        <ele>398</ele>
        <time>2017-10-15T09:27:52.999Z</time>
      </trkpt>
      <trkpt lat="47.53211" lon="6.77234">
        <ele>398.2</ele>
        <time>2017-10-15T09:27:53.999Z</time>
      </trkpt>
      <trkpt lat="47.53208" lon="6.77233">
        <ele>398.3</ele>
        <time>2017-10-15T09:27:54.999Z</time>
      </trkpt>
      <trkpt lat="47.53205" lon="6.77233">
        <ele>398.5</ele>
        <time>2017-10-15T09:27:55.999Z</time>
      </trkpt>
      <trkpt lat="47.53202" lon="6.77234">
        <ele>398.6</ele>
        <time>2017-10-15T09:27:56.999Z</time>
      </trkpt>
      <trkpt lat="47.532" lon="6.77235">
        <ele>398.7</ele>
        <time>2017-10-15T09:27:57.999Z</time>
      </trkpt>
      <trkpt lat="47.53197" lon="6.77235">
        <ele>398.9</ele>
        <time>2017-10-15T09:27:58.999Z</time>
      </trkpt>
      <trkpt lat="47.53194" lon="6.77235">
        <ele>398.9</ele>
        <time>2017-10-15T09:27:59.999Z</time>
      </trkpt>
      <trkpt lat="47.5319" lon="6.77234">
        <ele>399</ele>
        <time>2017-10-15T09:28:00.999Z</time>
      </trkpt>
      <trkpt lat="47.53187" lon="6.77234">
        <ele>399</ele>
        <time>2017-10-15T09:28:01.999Z</time>
      </trkpt>
      <trkpt lat="47.53185" lon="6.77234">
        <ele>399.1</ele>
        <time>2017-10-15T09:28:02.999Z</time>
      </trkpt>
      <trkpt lat="47.53181" lon="6.77234">
        <ele>399.1</ele>
        <time>2017-10-15T09:28:03.999Z</time>
      </trkpt>
      <trkpt lat="47.53177" lon="6.77233">
        <ele>399.2</ele>
        <time>2017-10-15T09:28:04.999Z</time>
      </trkpt>
      <trkpt lat="47.53173" lon="6.77233">
        <ele>399.3</ele>
        <time>2017-10-15T09:28:05.999Z</time>
      </trkpt>
      <trkpt lat="47.53168" lon="6.77233">
        <ele>399.4</ele>
        <time>2017-10-15T09:28:06.999Z</time>
      </trkpt>
      <trkpt lat="47.53164" lon="6.77233">
        <ele>399.4</ele>
        <time>2017-10-15T09:28:07.999Z</time>
      </trkpt>
      <trkpt lat="47.53161" lon="6.77233">
        <ele>399.4</ele>
        <time>2017-10-15T09:28:08.999Z</time>
      </trkpt>
      <trkpt lat="47.53157" lon="6.77232">
        <ele>399.4</ele>
        <time>2017-10-15T09:28:09.999Z</time>
      </trkpt>
      <trkpt lat="47.53154" lon="6.77232">
        <ele>399.5</ele>
        <time>2017-10-15T09:28:10.999Z</time>
      </trkpt>
      <trkpt lat="47.53149" lon="6.77231">
        <ele>399.4</ele>
        <time>2017-10-15T09:28:11.999Z</time>
      </trkpt>
      <trkpt lat="47.53146" lon="6.77231">
        <ele>399.4</ele>
        <time>2017-10-15T09:28:12.999Z</time>
      </trkpt>
      <trkpt lat="47.53142" lon="6.77232">
        <ele>399.3</ele>
        <time>2017-10-15T09:28:13.999Z</time>
      </trkpt>
      <trkpt lat="47.53139" lon="6.77233">
        <ele>399.2</ele>
        <time>2017-10-15T09:28:14.999Z</time>
      </trkpt>
      <trkpt lat="47.53136" lon="6.77233">
        <ele>399.1</ele>
        <time>2017-10-15T09:28:15.999Z</time>
      </trkpt>
      <trkpt lat="47.53132" lon="6.77233">
        <ele>398.9</ele>
        <time>2017-10-15T09:28:16.999Z</time>
      </trkpt>
      <trkpt lat="47.53127" lon="6.77234">
        <ele>398.7</ele>
        <time>2017-10-15T09:28:17.999Z</time>
      </trkpt>
      <trkpt lat="47.53122" lon="6.77235">
        <ele>398.4</ele>
        <time>2017-10-15T09:28:18.999Z</time>
      </trkpt>
      <trkpt lat="47.53119" lon="6.77236">
        <ele>398.2</ele>
        <time>2017-10-15T09:28:19.999Z</time>
      </trkpt>
      <trkpt lat="47.53116" lon="6.77237">
        <ele>398</ele>
        <time>2017-10-15T09:28:20.999Z</time>
      </trkpt>
      <trkpt lat="47.53113" lon="6.77239">
        <ele>397.7</ele>
        <time>2017-10-15T09:28:21.999Z</time>
      </trkpt>
      <trkpt lat="47.53109" lon="6.7724">
        <ele>397.5</ele>
        <time>2017-10-15T09:28:22.999Z</time>
      </trkpt>
      <trkpt lat="47.53106" lon="6.77242">
        <ele>397.4</ele>
        <time>2017-10-15T09:28:23.999Z</time>
      </trkpt>
      <trkpt lat="47.53102" lon="6.77244">
        <ele>397.2</ele>
        <time>2017-10-15T09:28:24.999Z</time>
      </trkpt>
      <trkpt lat="47.53099" lon="6.77245">
        <ele>397.1</ele>
        <time>2017-10-15T09:28:25.999Z</time>
      </trkpt>
      <trkpt lat="47.53094" lon="6.77245">
        <ele>397.1</ele>
        <time>2017-10-15T09:28:26.999Z</time>
      </trkpt>
      <trkpt lat="47.53091" lon="6.77245">
        <ele>397.1</ele>
        <time>2017-10-15T09:28:27.999Z</time>
      </trkpt>
      <trkpt lat="47.53087" lon="6.77246">
        <ele>397.1</ele>
        <time>2017-10-15T09:28:28.999Z</time>
      </trkpt>
      <trkpt lat="47.53083" lon="6.77246">
        <ele>397.2</ele>
        <time>2017-10-15T09:28:29.999Z</time>
      </trkpt>
      <trkpt lat="47.53079" lon="6.77247">
        <ele>397.3</ele>
        <time>2017-10-15T09:28:30.999Z</time>
      </trkpt>
      <trkpt lat="47.53075" lon="6.77247">
        <ele>397.2</ele>
        <time>2017-10-15T09:28:31.999Z</time>
      </trkpt>
      <trkpt lat="47.53071" lon="6.77248">
        <ele>397.2</ele>
        <time>2017-10-15T09:28:32.999Z</time>
      </trkpt>
      <trkpt lat="47.53067" lon="6.77248">
        <ele>397.1</ele>
        <time>2017-10-15T09:28:33.999Z</time>
      </trkpt>
      <trkpt lat="47.53063" lon="6.77248">
        <ele>397</ele>
        <time>2017-10-15T09:28:34.999Z</time>
      </trkpt>
      <trkpt lat="47.53058" lon="6.77247">
        <ele>396.9</ele>
        <time>2017-10-15T09:28:35.999Z</time>
      </trkpt>
      <trkpt lat="47.53054" lon="6.77246">
        <ele>396.8</ele>
        <time>2017-10-15T09:28:36.999Z</time>
      </trkpt>
      <trkpt lat="47.5305" lon="6.77248">
        <ele>395.8</ele>
        <time>2017-10-15T09:28:37.999Z</time>
      </trkpt>
      <trkpt lat="47.53047" lon="6.77248">
        <ele>395.1</ele>
        <time>2017-10-15T09:28:38.999Z</time>
      </trkpt>
      <trkpt lat="47.53044" lon="6.77247">
        <ele>395.1</ele>
        <time>2017-10-15T09:28:39.999Z</time>
      </trkpt>
      <trkpt lat="47.53041" lon="6.77245">
        <ele>395.2</ele>
        <time>2017-10-15T09:28:40.999Z</time>
      </trkpt>
      <trkpt lat="47.53038" lon="6.77245">
        <ele>395.1</ele>
        <time>2017-10-15T09:28:41.999Z</time>
      </trkpt>
      <trkpt lat="47.53035" lon="6.77245">
        <ele>395</ele>
        <time>2017-10-15T09:28:42.999Z</time>
      </trkpt>
      <trkpt lat="47.53033" lon="6.77246">
        <ele>395</ele>
        <time>2017-10-15T09:28:43.999Z</time>
      </trkpt>
      <trkpt lat="47.5303" lon="6.77247">
        <ele>394.9</ele>
        <time>2017-10-15T09:28:44.999Z</time>
      </trkpt>
      <trkpt lat="47.53027" lon="6.77247">
        <ele>394.9</ele>
        <time>2017-10-15T09:28:45.999Z</time>
      </trkpt>
      <trkpt lat="47.53024" lon="6.77248">
        <ele>394.8</ele>
        <time>2017-10-15T09:28:46.999Z</time>
      </trkpt>
      <trkpt lat="47.53021" lon="6.77248">
        <ele>394.7</ele>
        <time>2017-10-15T09:28:47.999Z</time>
      </trkpt>
      <trkpt lat="47.53018" lon="6.77247">
        <ele>394.6</ele>
        <time>2017-10-15T09:28:48.999Z</time>
      </trkpt>
      <trkpt lat="47.53014" lon="6.77247">
        <ele>394.7</ele>
        <time>2017-10-15T09:28:49.999Z</time>
      </trkpt>
      <trkpt lat="47.53011" lon="6.77246">
        <ele>394.8</ele>
        <time>2017-10-15T09:28:50.999Z</time>
      </trkpt>
      <trkpt lat="47.53007" lon="6.77246">
        <ele>394.9</ele>
        <time>2017-10-15T09:28:51.999Z</time>
      </trkpt>
      <trkpt lat="47.53002" lon="6.77245">
        <ele>395</ele>
        <time>2017-10-15T09:28:52.999Z</time>
      </trkpt>
      <trkpt lat="47.52998" lon="6.77244">
        <ele>395</ele>
        <time>2017-10-15T09:28:53.999Z</time>
      </trkpt>
      <trkpt lat="47.52994" lon="6.77244">
        <ele>395</ele>
        <time>2017-10-15T09:28:54.999Z</time>
      </trkpt>
      <trkpt lat="47.52992" lon="6.77243">
        <ele>394.9</ele>
        <time>2017-10-15T09:28:55.999Z</time>
      </trkpt>
      <trkpt lat="47.52989" lon="6.77242">
        <ele>394.9</ele>
        <time>2017-10-15T09:28:56.999Z</time>
      </trkpt>
      <trkpt lat="47.52985" lon="6.77241">
        <ele>394.9</ele>
        <time>2017-10-15T09:28:57.999Z</time>
      </trkpt>
      <trkpt lat="47.52982" lon="6.77241">
        <ele>395</ele>
        <time>2017-10-15T09:28:58.999Z</time>
      </trkpt>
      <trkpt lat="47.52978" lon="6.77241">
        <ele>395.1</ele>
        <time>2017-10-15T09:28:59.999Z</time>
      </trkpt>
      <trkpt lat="47.52975" lon="6.7724">
        <ele>395.3</ele>
        <time>2017-10-15T09:29:00.999Z</time>
      </trkpt>
      <trkpt lat="47.5297" lon="6.7724">
        <ele>395.4</ele>
        <time>2017-10-15T09:29:01.999Z</time>
      </trkpt>
      <trkpt lat="47.52966" lon="6.7724">
        <ele>395.7</ele>
        <time>2017-10-15T09:29:02.999Z</time>
      </trkpt>
      <trkpt lat="47.52961" lon="6.77239">
        <ele>395.9</ele>
        <time>2017-10-15T09:29:03.999Z</time>
      </trkpt>
      <trkpt lat="47.52957" lon="6.77239">
        <ele>396.1</ele>
        <time>2017-10-15T09:29:04.999Z</time>
      </trkpt>
      <trkpt lat="47.52954" lon="6.7724">
        <ele>396.3</ele>
        <time>2017-10-15T09:29:05.999Z</time>
      </trkpt>
      <trkpt lat="47.52951" lon="6.7724">
        <ele>396.4</ele>
        <time>2017-10-15T09:29:06.999Z</time>
      </trkpt>
      <trkpt lat="47.52947" lon="6.7724">
        <ele>396.6</ele>
        <time>2017-10-15T09:29:07.999Z</time>
      </trkpt>
      <trkpt lat="47.52944" lon="6.7724">
        <ele>397</ele>
        <time>2017-10-15T09:29:09.999Z</time>
      </trkpt>
      <trkpt lat="47.52941" lon="6.77241">
        <ele>397.2</ele>
        <time>2017-10-15T09:29:10.999Z</time>
      </trkpt>
      <trkpt lat="47.52939" lon="6.7724">
        <ele>397.4</ele>
        <time>2017-10-15T09:29:11.999Z</time>
      </trkpt>
      <trkpt lat="47.52936" lon="6.77239">
        <ele>397.6</ele>
        <time>2017-10-15T09:29:12.999Z</time>
      </trkpt>
      <trkpt lat="47.52932" lon="6.7724">
        <ele>398.1</ele>
        <time>2017-10-15T09:29:14.999Z</time>
      </trkpt>
      <trkpt lat="47.5293" lon="6.7724">
        <ele>398.3</ele>
        <time>2017-10-15T09:29:15.999Z</time>
      </trkpt>
      <trkpt lat="47.52926" lon="6.77241">
        <ele>398.5</ele>
        <time>2017-10-15T09:29:17.999Z</time>
      </trkpt>
      <trkpt lat="47.52924" lon="6.77241">
        <ele>398.6</ele>
        <time>2017-10-15T09:29:18.999Z</time>
      </trkpt>
      <trkpt lat="47.52921" lon="6.77242">
        <ele>398.7</ele>
        <time>2017-10-15T09:29:19.999Z</time>
      </trkpt>
      <trkpt lat="47.52918" lon="6.77242">
        <ele>398.8</ele>
        <time>2017-10-15T09:29:20.999Z</time>
      </trkpt>
      <trkpt lat="47.52915" lon="6.77243">
        <ele>398.8</ele>
        <time>2017-10-15T09:29:21.999Z</time>
      </trkpt>
      <trkpt lat="47.52912" lon="6.77242">
        <ele>398.7</ele>
        <time>2017-10-15T09:29:22.999Z</time>
      </trkpt>
      <trkpt lat="47.5291" lon="6.77242">
        <ele>398.8</ele>
        <time>2017-10-15T09:29:23.999Z</time>
      </trkpt>
      <trkpt lat="47.52907" lon="6.77242">
        <ele>398.9</ele>
        <time>2017-10-15T09:29:24.999Z</time>
      </trkpt>
      <trkpt lat="47.52905" lon="6.77242">
        <ele>398.8</ele>
        <time>2017-10-15T09:29:25.999Z</time>
      </trkpt>
      <trkpt lat="47.52902" lon="6.77243">
        <ele>398.8</ele>
        <time>2017-10-15T09:29:26.999Z</time>
      </trkpt>
      <trkpt lat="47.52899" lon="6.77243">
        <ele>398.8</ele>
        <time>2017-10-15T09:29:27.999Z</time>
      </trkpt>
      <trkpt lat="47.52896" lon="6.77244">
        <ele>398.8</ele>
        <time>2017-10-15T09:29:28.999Z</time>
      </trkpt>
      <trkpt lat="47.52892" lon="6.77243">
        <ele>399</ele>
        <time>2017-10-15T09:29:30.999Z</time>
      </trkpt>
      <trkpt lat="47.5289" lon="6.77242">
        <ele>399.1</ele>
        <time>2017-10-15T09:29:31.999Z</time>
      </trkpt>
      <trkpt lat="47.52886" lon="6.77242">
        <ele>400.7</ele>
        <time>2017-10-15T09:29:40.999Z</time>
      </trkpt>
      <trkpt lat="47.52865" lon="6.77243">
        <ele>400.9</ele>
        <time>2017-10-15T09:29:41.999Z</time>
      </trkpt>
      <trkpt lat="47.52865" lon="6.77243">
        <ele>401.7</ele>
        <time>2017-10-15T09:29:44.999Z</time>
      </trkpt>
      <trkpt lat="47.52855" lon="6.77243">
        <ele>401.9</ele>
        <time>2017-10-15T09:29:45.999Z</time>
      </trkpt>
      <trkpt lat="47.52853" lon="6.77243">
        <ele>402.2</ele>
        <time>2017-10-15T09:29:46.999Z</time>
      </trkpt>
      <trkpt lat="47.5285" lon="6.77242">
        <ele>402.5</ele>
        <time>2017-10-15T09:29:47.999Z</time>
      </trkpt>
      <trkpt lat="47.52847" lon="6.77242">
        <ele>402.9</ele>
        <time>2017-10-15T09:29:48.999Z</time>
      </trkpt>
      <trkpt lat="47.52845" lon="6.77242">
        <ele>403.3</ele>
        <time>2017-10-15T09:29:49.999Z</time>
      </trkpt>
      <trkpt lat="47.52841" lon="6.77241">
        <ele>404</ele>
        <time>2017-10-15T09:29:51.999Z</time>
      </trkpt>
      <trkpt lat="47.52839" lon="6.77241">
        <ele>404.3</ele>
        <time>2017-10-15T09:29:52.999Z</time>
      </trkpt>
      <trkpt lat="47.52836" lon="6.77241">
        <ele>404.6</ele>
        <time>2017-10-15T09:29:53.999Z</time>
      </trkpt>
      <trkpt lat="47.52833" lon="6.7724">
        <ele>405</ele>
        <time>2017-10-15T09:29:54.999Z</time>
      </trkpt>
      <trkpt lat="47.52829" lon="6.77242">
        <ele>405.5</ele>
        <time>2017-10-15T09:29:56.999Z</time>
      </trkpt>
      <trkpt lat="47.52827" lon="6.77241">
        <ele>405.7</ele>
        <time>2017-10-15T09:29:57.999Z</time>
      </trkpt>
      <trkpt lat="47.52823" lon="6.77242">
        <ele>406.2</ele>
        <time>2017-10-15T09:29:59.999Z</time>
      </trkpt>
      <trkpt lat="47.52821" lon="6.77243">
        <ele>406.3</ele>
        <time>2017-10-15T09:30:00.999Z</time>
      </trkpt>
      <trkpt lat="47.52818" lon="6.77245">
        <ele>406.6</ele>
        <time>2017-10-15T09:30:02.999Z</time>
      </trkpt>
      <trkpt lat="47.52816" lon="6.77247">
        <ele>406.7</ele>
        <time>2017-10-15T09:30:03.999Z</time>
      </trkpt>
      <trkpt lat="47.52812" lon="6.77248">
        <ele>406.9</ele>
        <time>2017-10-15T09:30:06.999Z</time>
      </trkpt>
      <trkpt lat="47.5281" lon="6.77247">
        <ele>407</ele>
        <time>2017-10-15T09:30:07.999Z</time>
      </trkpt>
      <trkpt lat="47.52806" lon="6.77246">
        <ele>407.4</ele>
        <time>2017-10-15T09:30:10.999Z</time>
      </trkpt>
      <trkpt lat="47.52804" lon="6.77245">
        <ele>407.5</ele>
        <time>2017-10-15T09:30:11.999Z</time>
      </trkpt>
      <trkpt lat="47.52801" lon="6.77245">
        <ele>407.7</ele>
        <time>2017-10-15T09:30:13.999Z</time>
      </trkpt>
      <trkpt lat="47.52799" lon="6.77245">
        <ele>407.8</ele>
        <time>2017-10-15T09:30:14.999Z</time>
      </trkpt>
      <trkpt lat="47.52795" lon="6.77245">
        <ele>407.9</ele>
        <time>2017-10-15T09:30:16.999Z</time>
      </trkpt>
      <trkpt lat="47.52793" lon="6.77245">
        <ele>408.1</ele>
        <time>2017-10-15T09:30:17.999Z</time>
      </trkpt>
      <trkpt lat="47.52789" lon="6.77245">
        <ele>408.2</ele>
        <time>2017-10-15T09:30:19.999Z</time>
      </trkpt>
      <trkpt lat="47.52787" lon="6.77245">
        <ele>408.2</ele>
        <time>2017-10-15T09:30:20.999Z</time>
      </trkpt>
      <trkpt lat="47.52783" lon="6.77245">
        <ele>408.5</ele>
        <time>2017-10-15T09:30:22.999Z</time>
      </trkpt>
      <trkpt lat="47.52781" lon="6.77245">
        <ele>408.7</ele>
        <time>2017-10-15T09:30:23.999Z</time>
      </trkpt>
      <trkpt lat="47.52778" lon="6.77245">
        <ele>409.2</ele>
        <time>2017-10-15T09:30:25.999Z</time>
      </trkpt>
      <trkpt lat="47.52776" lon="6.77245">
        <ele>409.4</ele>
        <time>2017-10-15T09:30:26.999Z</time>
      </trkpt>
      <trkpt lat="47.52774" lon="6.77246">
        <ele>409.5</ele>
        <time>2017-10-15T09:30:27.999Z</time>
      </trkpt>
      <trkpt lat="47.52771" lon="6.77246">
        <ele>409.4</ele>
        <time>2017-10-15T09:30:28.999Z</time>
      </trkpt>
      <trkpt lat="47.52768" lon="6.77248">
        <ele>409.4</ele>
        <time>2017-10-15T09:30:30.999Z</time>
      </trkpt>
      <trkpt lat="47.52766" lon="6.77249">
        <ele>409.4</ele>
        <time>2017-10-15T09:30:31.999Z</time>
      </trkpt>
      <trkpt lat="47.52763" lon="6.7725">
        <ele>409.5</ele>
        <time>2017-10-15T09:30:32.999Z</time>
      </trkpt>
      <trkpt lat="47.5276" lon="6.7725">
        <ele>409.5</ele>
        <time>2017-10-15T09:30:33.999Z</time>
      </trkpt>
      <trkpt lat="47.52756" lon="6.77251">
        <ele>409.7</ele>
        <time>2017-10-15T09:30:35.999Z</time>
      </trkpt>
      <trkpt lat="47.52753" lon="6.77252">
        <ele>409.7</ele>
        <time>2017-10-15T09:30:36.999Z</time>
      </trkpt>
      <trkpt lat="47.52749" lon="6.77252">
        <ele>409.7</ele>
        <time>2017-10-15T09:30:37.999Z</time>
      </trkpt>
      <trkpt lat="47.52746" lon="6.77251">
        <ele>409.6</ele>
        <time>2017-10-15T09:30:38.999Z</time>
      </trkpt>
      <trkpt lat="47.52743" lon="6.7725">
        <ele>409.5</ele>
        <time>2017-10-15T09:30:39.999Z</time>
      </trkpt>
      <trkpt lat="47.52741" lon="6.77249">
        <ele>409.5</ele>
        <time>2017-10-15T09:30:40.999Z</time>
      </trkpt>
      <trkpt lat="47.52739" lon="6.77249">
        <ele>409.6</ele>
        <time>2017-10-15T09:30:41.999Z</time>
      </trkpt>
      <trkpt lat="47.52736" lon="6.77248">
        <ele>409.6</ele>
        <time>2017-10-15T09:30:42.999Z</time>
      </trkpt>
      <trkpt lat="47.52732" lon="6.7725">
        <ele>409.5</ele>
        <time>2017-10-15T09:30:44.999Z</time>
      </trkpt>
      <trkpt lat="47.5273" lon="6.77249">
        <ele>409.4</ele>
        <time>2017-10-15T09:30:45.999Z</time>
      </trkpt>
      <trkpt lat="47.52727" lon="6.77249">
        <ele>409.4</ele>
        <time>2017-10-15T09:30:47.999Z</time>
      </trkpt>
      <trkpt lat="47.52725" lon="6.7725">
        <ele>409.3</ele>
        <time>2017-10-15T09:30:48.999Z</time>
      </trkpt>
      <trkpt lat="47.52722" lon="6.7725">
        <ele>409.2</ele>
        <time>2017-10-15T09:30:50.999Z</time>
      </trkpt>
      <trkpt lat="47.52719" lon="6.7725">
        <ele>409.2</ele>
        <time>2017-10-15T09:30:51.999Z</time>
      </trkpt>
      <trkpt lat="47.52715" lon="6.77251">
        <ele>409.2</ele>
        <time>2017-10-15T09:30:53.999Z</time>
      </trkpt>
      <trkpt lat="47.52713" lon="6.77251">
        <ele>409.3</ele>
        <time>2017-10-15T09:30:54.999Z</time>
      </trkpt>
      <trkpt lat="47.52709" lon="6.77251">
        <ele>409.3</ele>
        <time>2017-10-15T09:30:56.999Z</time>
      </trkpt>
      <trkpt lat="47.52707" lon="6.77251">
        <ele>409.3</ele>
        <time>2017-10-15T09:30:57.999Z</time>
      </trkpt>
      <trkpt lat="47.52703" lon="6.77251">
        <ele>409.3</ele>
        <time>2017-10-15T09:30:59.999Z</time>
      </trkpt>
      <trkpt lat="47.52701" lon="6.77251">
        <ele>409.3</ele>
        <time>2017-10-15T09:31:00.999Z</time>
      </trkpt>
      <trkpt lat="47.52697" lon="6.77251">
        <ele>409.3</ele>
        <time>2017-10-15T09:31:01.999Z</time>
      </trkpt>
      <trkpt lat="47.52695" lon="6.77252">
        <ele>409.3</ele>
        <time>2017-10-15T09:31:02.999Z</time>
      </trkpt>
      <trkpt lat="47.52692" lon="6.77253">
        <ele>409.4</ele>
        <time>2017-10-15T09:31:03.999Z</time>
      </trkpt>
      <trkpt lat="47.5269" lon="6.77255">
        <ele>409.4</ele>
        <time>2017-10-15T09:31:04.999Z</time>
      </trkpt>
      <trkpt lat="47.52687" lon="6.77257">
        <ele>409.3</ele>
        <time>2017-10-15T09:31:05.999Z</time>
      </trkpt>
      <trkpt lat="47.52683" lon="6.77259">
        <ele>408</ele>
        <time>2017-10-15T09:31:06.999Z</time>
      </trkpt>
      <trkpt lat="47.5268" lon="6.77259">
        <ele>408</ele>
        <time>2017-10-15T09:31:07.999Z</time>
      </trkpt>
      <trkpt lat="47.52679" lon="6.7726">
        <ele>407.9</ele>
        <time>2017-10-15T09:31:08.999Z</time>
      </trkpt>
      <trkpt lat="47.52676" lon="6.77262">
        <ele>407.9</ele>
        <time>2017-10-15T09:31:09.999Z</time>
      </trkpt>
      <trkpt lat="47.52673" lon="6.77265">
        <ele>407.9</ele>
        <time>2017-10-15T09:31:10.999Z</time>
      </trkpt>
      <trkpt lat="47.52671" lon="6.77267">
        <ele>407.9</ele>
        <time>2017-10-15T09:31:11.999Z</time>
      </trkpt>
      <trkpt lat="47.52668" lon="6.77268">
        <ele>408.1</ele>
        <time>2017-10-15T09:31:12.999Z</time>
      </trkpt>
      <trkpt lat="47.52665" lon="6.7727">
        <ele>408.3</ele>
        <time>2017-10-15T09:31:13.999Z</time>
      </trkpt>
      <trkpt lat="47.52662" lon="6.77271">
        <ele>408.4</ele>
        <time>2017-10-15T09:31:14.999Z</time>
      </trkpt>
      <trkpt lat="47.5266" lon="6.77271">
        <ele>408.6</ele>
        <time>2017-10-15T09:31:15.999Z</time>
      </trkpt>
      <trkpt lat="47.52657" lon="6.77272">
        <ele>408.7</ele>
        <time>2017-10-15T09:31:16.999Z</time>
      </trkpt>
      <trkpt lat="47.52652" lon="6.77274">
        <ele>408.9</ele>
        <time>2017-10-15T09:31:17.999Z</time>
      </trkpt>
      <trkpt lat="47.52649" lon="6.77275">
        <ele>409</ele>
        <time>2017-10-15T09:31:18.999Z</time>
      </trkpt>
      <trkpt lat="47.52647" lon="6.77277">
        <ele>409.2</ele>
        <time>2017-10-15T09:31:19.999Z</time>
      </trkpt>
      <trkpt lat="47.52647" lon="6.77277">
        <ele>410</ele>
        <time>2017-10-15T09:31:22.999Z</time>
      </trkpt>
      <trkpt lat="47.52636" lon="6.77284">
        <ele>410.3</ele>
        <time>2017-10-15T09:31:23.999Z</time>
      </trkpt>
      <trkpt lat="47.52632" lon="6.77285">
        <ele>410.6</ele>
        <time>2017-10-15T09:31:24.999Z</time>
      </trkpt>
      <trkpt lat="47.52629" lon="6.77285">
        <ele>410.8</ele>
        <time>2017-10-15T09:31:25.999Z</time>
      </trkpt>
      <trkpt lat="47.52626" lon="6.77285">
        <ele>411.1</ele>
        <time>2017-10-15T09:31:26.999Z</time>
      </trkpt>
      <trkpt lat="47.52623" lon="6.77286">
        <ele>411.5</ele>
        <time>2017-10-15T09:31:27.999Z</time>
      </trkpt>
      <trkpt lat="47.5262" lon="6.77286">
        <ele>411.8</ele>
        <time>2017-10-15T09:31:28.999Z</time>
      </trkpt>
      <trkpt lat="47.52616" lon="6.77287">
        <ele>412.1</ele>
        <time>2017-10-15T09:31:29.999Z</time>
      </trkpt>
      <trkpt lat="47.52612" lon="6.77288">
        <ele>412.4</ele>
        <time>2017-10-15T09:31:30.999Z</time>
      </trkpt>
      <trkpt lat="47.52609" lon="6.77291">
        <ele>412.8</ele>
        <time>2017-10-15T09:31:31.999Z</time>
      </trkpt>
      <trkpt lat="47.52607" lon="6.77293">
        <ele>413.1</ele>
        <time>2017-10-15T09:31:32.999Z</time>
      </trkpt>
      <trkpt lat="47.52606" lon="6.77295">
        <ele>413.4</ele>
        <time>2017-10-15T09:31:33.999Z</time>
      </trkpt>
      <trkpt lat="47.52603" lon="6.77298">
        <ele>413.7</ele>
        <time>2017-10-15T09:31:34.999Z</time>
      </trkpt>
      <trkpt lat="47.52601" lon="6.77301">
        <ele>413.8</ele>
        <time>2017-10-15T09:31:35.999Z</time>
      </trkpt>
      <trkpt lat="47.52599" lon="6.77303">
        <ele>414</ele>
        <time>2017-10-15T09:31:36.999Z</time>
      </trkpt>
      <trkpt lat="47.52597" lon="6.77305">
        <ele>414.1</ele>
        <time>2017-10-15T09:31:37.999Z</time>
      </trkpt>
      <trkpt lat="47.52595" lon="6.77308">
        <ele>414.2</ele>
        <time>2017-10-15T09:31:38.999Z</time>
      </trkpt>
      <trkpt lat="47.52592" lon="6.77312">
        <ele>414.3</ele>
        <time>2017-10-15T09:31:39.999Z</time>
      </trkpt>
      <trkpt lat="47.52589" lon="6.77316">
        <ele>415.3</ele>
        <time>2017-10-15T09:31:40.999Z</time>
      </trkpt>
      <trkpt lat="47.52586" lon="6.7732">
        <ele>415.9</ele>
        <time>2017-10-15T09:31:41.999Z</time>
      </trkpt>
      <trkpt lat="47.52583" lon="6.77324">
        <ele>415.7</ele>
        <time>2017-10-15T09:31:42.999Z</time>
      </trkpt>
      <trkpt lat="47.5258" lon="6.77327">
        <ele>415.8</ele>
        <time>2017-10-15T09:31:43.999Z</time>
      </trkpt>
      <trkpt lat="47.52577" lon="6.7733">
        <ele>415.8</ele>
        <time>2017-10-15T09:31:44.999Z</time>
      </trkpt>
      <trkpt lat="47.52573" lon="6.77333">
        <ele>416.7</ele>
        <time>2017-10-15T09:31:45.999Z</time>
      </trkpt>
      <trkpt lat="47.5257" lon="6.77336">
        <ele>417.3</ele>
        <time>2017-10-15T09:31:46.999Z</time>
      </trkpt>
      <trkpt lat="47.52566" lon="6.77338">
        <ele>417.3</ele>
        <time>2017-10-15T09:31:47.999Z</time>
      </trkpt>
      <trkpt lat="47.52563" lon="6.77341">
        <ele>417.4</ele>
        <time>2017-10-15T09:31:48.999Z</time>
      </trkpt>
      <trkpt lat="47.5256" lon="6.77343">
        <ele>417.6</ele>
        <time>2017-10-15T09:31:49.999Z</time>
      </trkpt>
      <trkpt lat="47.52556" lon="6.77346">
        <ele>417.8</ele>
        <time>2017-10-15T09:31:50.999Z</time>
      </trkpt>
      <trkpt lat="47.52551" lon="6.77349">
        <ele>417.9</ele>
        <time>2017-10-15T09:31:51.999Z</time>
      </trkpt>
      <trkpt lat="47.52547" lon="6.77352">
        <ele>418.1</ele>
        <time>2017-10-15T09:31:52.999Z</time>
      </trkpt>
      <trkpt lat="47.52544" lon="6.77355">
        <ele>418.1</ele>
        <time>2017-10-15T09:31:53.999Z</time>
      </trkpt>
      <trkpt lat="47.52541" lon="6.77357">
        <ele>418.1</ele>
        <time>2017-10-15T09:31:54.999Z</time>
      </trkpt>
      <trkpt lat="47.52537" lon="6.7736">
        <ele>418.1</ele>
        <time>2017-10-15T09:31:55.999Z</time>
      </trkpt>
      <trkpt lat="47.52534" lon="6.77362">
        <ele>418.4</ele>
        <time>2017-10-15T09:31:56.999Z</time>
      </trkpt>
      <trkpt lat="47.5253" lon="6.77364">
        <ele>418.6</ele>
        <time>2017-10-15T09:31:57.999Z</time>
      </trkpt>
      <trkpt lat="47.52527" lon="6.77367">
        <ele>418.8</ele>
        <time>2017-10-15T09:31:58.999Z</time>
      </trkpt>
      <trkpt lat="47.52524" lon="6.77369">
        <ele>418.9</ele>
        <time>2017-10-15T09:31:59.999Z</time>
      </trkpt>
      <trkpt lat="47.52521" lon="6.77371">
        <ele>419</ele>
        <time>2017-10-15T09:32:00.999Z</time>
      </trkpt>
      <trkpt lat="47.52517" lon="6.77371">
        <ele>419</ele>
        <time>2017-10-15T09:32:01.999Z</time>
      </trkpt>
      <trkpt lat="47.52515" lon="6.77372">
        <ele>419.1</ele>
        <time>2017-10-15T09:32:02.999Z</time>
      </trkpt>
      <trkpt lat="47.52512" lon="6.77373">
        <ele>419.2</ele>
        <time>2017-10-15T09:32:03.999Z</time>
      </trkpt>
      <trkpt lat="47.5251" lon="6.77375">
        <ele>419.3</ele>
        <time>2017-10-15T09:32:04.999Z</time>
      </trkpt>
      <trkpt lat="47.52507" lon="6.77377">
        <ele>419.4</ele>
        <time>2017-10-15T09:32:05.999Z</time>
      </trkpt>
      <trkpt lat="47.52503" lon="6.7738">
        <ele>419.4</ele>
        <time>2017-10-15T09:32:06.999Z</time>
      </trkpt>
      <trkpt lat="47.525" lon="6.77382">
        <ele>419.5</ele>
        <time>2017-10-15T09:32:07.999Z</time>
      </trkpt>
      <trkpt lat="47.52497" lon="6.77382">
        <ele>419.6</ele>
        <time>2017-10-15T09:32:08.999Z</time>
      </trkpt>
      <trkpt lat="47.52494" lon="6.77383">
        <ele>419.7</ele>
        <time>2017-10-15T09:32:09.999Z</time>
      </trkpt>
      <trkpt lat="47.52492" lon="6.77385">
        <ele>419.8</ele>
        <time>2017-10-15T09:32:10.999Z</time>
      </trkpt>
      <trkpt lat="47.52488" lon="6.77388">
        <ele>419.9</ele>
        <time>2017-10-15T09:32:11.999Z</time>
      </trkpt>
      <trkpt lat="47.52485" lon="6.7739">
        <ele>420</ele>
        <time>2017-10-15T09:32:12.999Z</time>
      </trkpt>
      <trkpt lat="47.52482" lon="6.77392">
        <ele>420.1</ele>
        <time>2017-10-15T09:32:13.999Z</time>
      </trkpt>
      <trkpt lat="47.5248" lon="6.77393">
        <ele>420.2</ele>
        <time>2017-10-15T09:32:14.999Z</time>
      </trkpt>
      <trkpt lat="47.52477" lon="6.77394">
        <ele>420.4</ele>
        <time>2017-10-15T09:32:15.999Z</time>
      </trkpt>
      <trkpt lat="47.52474" lon="6.77395">
        <ele>420.4</ele>
        <time>2017-10-15T09:32:16.999Z</time>
      </trkpt>
      <trkpt lat="47.52472" lon="6.77396">
        <ele>420.6</ele>
        <time>2017-10-15T09:32:17.999Z</time>
      </trkpt>
      <trkpt lat="47.52469" lon="6.77397">
        <ele>420.7</ele>
        <time>2017-10-15T09:32:18.999Z</time>
      </trkpt>
      <trkpt lat="47.52466" lon="6.77399">
        <ele>420.9</ele>
        <time>2017-10-15T09:32:19.999Z</time>
      </trkpt>
      <trkpt lat="47.52462" lon="6.774">
        <ele>420.9</ele>
        <time>2017-10-15T09:32:20.999Z</time>
      </trkpt>
      <trkpt lat="47.5246" lon="6.77401">
        <ele>421</ele>
        <time>2017-10-15T09:32:21.999Z</time>
      </trkpt>
      <trkpt lat="47.52458" lon="6.77403">
        <ele>421.2</ele>
        <time>2017-10-15T09:32:22.999Z</time>
      </trkpt>
      <trkpt lat="47.52455" lon="6.77405">
        <ele>421.3</ele>
        <time>2017-10-15T09:32:23.999Z</time>
      </trkpt>
      <trkpt lat="47.52453" lon="6.77407">
        <ele>421.6</ele>
        <time>2017-10-15T09:32:24.999Z</time>
      </trkpt>
      <trkpt lat="47.5245" lon="6.77408">
        <ele>421.8</ele>
        <time>2017-10-15T09:32:25.999Z</time>
      </trkpt>
      <trkpt lat="47.52448" lon="6.7741">
        <ele>422</ele>
        <time>2017-10-15T09:32:26.999Z</time>
      </trkpt>
      <trkpt lat="47.52446" lon="6.77411">
        <ele>422.2</ele>
        <time>2017-10-15T09:32:27.999Z</time>
      </trkpt>
      <trkpt lat="47.52442" lon="6.77415">
        <ele>422.6</ele>
        <time>2017-10-15T09:32:29.999Z</time>
      </trkpt>
      <trkpt lat="47.5244" lon="6.77418">
        <ele>422.9</ele>
        <time>2017-10-15T09:32:30.999Z</time>
      </trkpt>
      <trkpt lat="47.52436" lon="6.77422">
        <ele>423.2</ele>
        <time>2017-10-15T09:32:32.999Z</time>
      </trkpt>
      <trkpt lat="47.52435" lon="6.77423">
        <ele>423.3</ele>
        <time>2017-10-15T09:32:33.999Z</time>
      </trkpt>
      <trkpt lat="47.52432" lon="6.77426">
        <ele>423.7</ele>
        <time>2017-10-15T09:32:35.999Z</time>
      </trkpt>
      <trkpt lat="47.52429" lon="6.77427">
        <ele>423.9</ele>
        <time>2017-10-15T09:32:36.999Z</time>
      </trkpt>
      <trkpt lat="47.52425" lon="6.7743">
        <ele>424.1</ele>
        <time>2017-10-15T09:32:37.999Z</time>
      </trkpt>
      <trkpt lat="47.52425" lon="6.77433">
        <ele>424.3</ele>
        <time>2017-10-15T09:32:38.999Z</time>
      </trkpt>
      <trkpt lat="47.52422" lon="6.77437">
        <ele>424.9</ele>
        <time>2017-10-15T09:32:40.999Z</time>
      </trkpt>
      <trkpt lat="47.5242" lon="6.7744">
        <ele>425.1</ele>
        <time>2017-10-15T09:32:41.999Z</time>
      </trkpt>
      <trkpt lat="47.52419" lon="6.77446">
        <ele>425.3</ele>
        <time>2017-10-15T09:32:43.999Z</time>
      </trkpt>
      <trkpt lat="47.52418" lon="6.77447">
        <ele>425.5</ele>
        <time>2017-10-15T09:32:44.999Z</time>
      </trkpt>
      <trkpt lat="47.52416" lon="6.77448">
        <ele>425.6</ele>
        <time>2017-10-15T09:32:45.999Z</time>
      </trkpt>
      <trkpt lat="47.52414" lon="6.7745">
        <ele>425.8</ele>
        <time>2017-10-15T09:32:46.999Z</time>
      </trkpt>
      <trkpt lat="47.52411" lon="6.77455">
        <ele>426.1</ele>
        <time>2017-10-15T09:32:47.999Z</time>
      </trkpt>
      <trkpt lat="47.52408" lon="6.77456">
        <ele>426.4</ele>
        <time>2017-10-15T09:32:48.999Z</time>
      </trkpt>
      <trkpt lat="47.52406" lon="6.77458">
        <ele>426.6</ele>
        <time>2017-10-15T09:32:49.999Z</time>
      </trkpt>
      <trkpt lat="47.52402" lon="6.7746">
        <ele>427</ele>
        <time>2017-10-15T09:32:51.999Z</time>
      </trkpt>
      <trkpt lat="47.52399" lon="6.77462">
        <ele>427.3</ele>
        <time>2017-10-15T09:32:52.999Z</time>
      </trkpt>
      <trkpt lat="47.52397" lon="6.77464">
        <ele>427.6</ele>
        <time>2017-10-15T09:32:53.999Z</time>
      </trkpt>
      <trkpt lat="47.52394" lon="6.77466">
        <ele>427.8</ele>
        <time>2017-10-15T09:32:54.999Z</time>
      </trkpt>
      <trkpt lat="47.52391" lon="6.77468">
        <ele>428.4</ele>
        <time>2017-10-15T09:32:56.999Z</time>
      </trkpt>
      <trkpt lat="47.52388" lon="6.77469">
        <ele>428.8</ele>
        <time>2017-10-15T09:32:57.999Z</time>
      </trkpt>
      <trkpt lat="47.52386" lon="6.77472">
        <ele>429.2</ele>
        <time>2017-10-15T09:32:58.999Z</time>
      </trkpt>
      <trkpt lat="47.52384" lon="6.77474">
        <ele>429.5</ele>
        <time>2017-10-15T09:32:59.999Z</time>
      </trkpt>
      <trkpt lat="47.5238" lon="6.77477">
        <ele>430</ele>
        <time>2017-10-15T09:33:01.999Z</time>
      </trkpt>
      <trkpt lat="47.52378" lon="6.77479">
        <ele>430.3</ele>
        <time>2017-10-15T09:33:02.999Z</time>
      </trkpt>
      <trkpt lat="47.52376" lon="6.77481">
        <ele>430.5</ele>
        <time>2017-10-15T09:33:03.999Z</time>
      </trkpt>
      <trkpt lat="47.52374" lon="6.77483">
        <ele>430.7</ele>
        <time>2017-10-15T09:33:04.999Z</time>
      </trkpt>
      <trkpt lat="47.52372" lon="6.77486">
        <ele>430.8</ele>
        <time>2017-10-15T09:33:05.999Z</time>
      </trkpt>
      <trkpt lat="47.5237" lon="6.77487">
        <ele>431</ele>
        <time>2017-10-15T09:33:06.999Z</time>
      </trkpt>
      <trkpt lat="47.52366" lon="6.7749">
        <ele>431.3</ele>
        <time>2017-10-15T09:33:08.999Z</time>
      </trkpt>
      <trkpt lat="47.52364" lon="6.77492">
        <ele>431.5</ele>
        <time>2017-10-15T09:33:09.999Z</time>
      </trkpt>
      <trkpt lat="47.5236" lon="6.77495">
        <ele>431.7</ele>
        <time>2017-10-15T09:33:11.999Z</time>
      </trkpt>
      <trkpt lat="47.52358" lon="6.77497">
        <ele>431.8</ele>
        <time>2017-10-15T09:33:12.999Z</time>
      </trkpt>
      <trkpt lat="47.52356" lon="6.775">
        <ele>431.8</ele>
        <time>2017-10-15T09:33:13.999Z</time>
      </trkpt>
      <trkpt lat="47.52353" lon="6.77503">
        <ele>431.9</ele>
        <time>2017-10-15T09:33:14.999Z</time>
      </trkpt>
      <trkpt lat="47.52351" lon="6.77505">
        <ele>431.8</ele>
        <time>2017-10-15T09:33:15.999Z</time>
      </trkpt>
      <trkpt lat="47.52348" lon="6.77507">
        <ele>431.8</ele>
        <time>2017-10-15T09:33:16.999Z</time>
      </trkpt>
      <trkpt lat="47.52346" lon="6.77509">
        <ele>431.7</ele>
        <time>2017-10-15T09:33:17.999Z</time>
      </trkpt>
      <trkpt lat="47.52344" lon="6.77511">
        <ele>431.7</ele>
        <time>2017-10-15T09:33:18.999Z</time>
      </trkpt>
      <trkpt lat="47.52341" lon="6.77513">
        <ele>431.6</ele>
        <time>2017-10-15T09:33:19.999Z</time>
      </trkpt>
      <trkpt lat="47.52338" lon="6.77516">
        <ele>431.6</ele>
        <time>2017-10-15T09:33:20.999Z</time>
      </trkpt>
      <trkpt lat="47.52335" lon="6.77519">
        <ele>431.7</ele>
        <time>2017-10-15T09:33:21.999Z</time>
      </trkpt>
      <trkpt lat="47.52331" lon="6.77521">
        <ele>431.5</ele>
        <time>2017-10-15T09:33:22.999Z</time>
      </trkpt>
      <trkpt lat="47.52327" lon="6.77524">
        <ele>431.6</ele>
        <time>2017-10-15T09:33:23.999Z</time>
      </trkpt>
      <trkpt lat="47.52324" lon="6.77526">
        <ele>432.3</ele>
        <time>2017-10-15T09:33:24.999Z</time>
      </trkpt>
      <trkpt lat="47.52319" lon="6.7753">
        <ele>432.4</ele>
        <time>2017-10-15T09:33:25.999Z</time>
      </trkpt>
      <trkpt lat="47.52314" lon="6.77533">
        <ele>432.2</ele>
        <time>2017-10-15T09:33:26.999Z</time>
      </trkpt>
      <trkpt lat="47.5231" lon="6.77536">
        <ele>432.1</ele>
        <time>2017-10-15T09:33:27.999Z</time>
      </trkpt>
      <trkpt lat="47.52306" lon="6.77539">
        <ele>432</ele>
        <time>2017-10-15T09:33:28.999Z</time>
      </trkpt>
      <trkpt lat="47.52302" lon="6.77541">
        <ele>432.4</ele>
        <time>2017-10-15T09:33:29.999Z</time>
      </trkpt>
      <trkpt lat="47.52297" lon="6.77544">
        <ele>433</ele>
        <time>2017-10-15T09:33:30.999Z</time>
      </trkpt>
      <trkpt lat="47.52293" lon="6.77547">
        <ele>433.3</ele>
        <time>2017-10-15T09:33:31.999Z</time>
      </trkpt>
      <trkpt lat="47.52289" lon="6.77549">
        <ele>432.7</ele>
        <time>2017-10-15T09:33:32.999Z</time>
      </trkpt>
      <trkpt lat="47.52284" lon="6.77552">
        <ele>431.9</ele>
        <time>2017-10-15T09:33:33.999Z</time>
      </trkpt>
      <trkpt lat="47.52279" lon="6.77555">
        <ele>431.7</ele>
        <time>2017-10-15T09:33:34.999Z</time>
      </trkpt>
      <trkpt lat="47.52275" lon="6.77558">
        <ele>432.2</ele>
        <time>2017-10-15T09:33:35.999Z</time>
      </trkpt>
      <trkpt lat="47.5227" lon="6.77561">
        <ele>432.3</ele>
        <time>2017-10-15T09:33:36.999Z</time>
      </trkpt>
      <trkpt lat="47.52266" lon="6.77564">
        <ele>432.1</ele>
        <time>2017-10-15T09:33:37.999Z</time>
      </trkpt>
      <trkpt lat="47.52262" lon="6.77567">
        <ele>431.8</ele>
        <time>2017-10-15T09:33:38.999Z</time>
      </trkpt>
      <trkpt lat="47.52258" lon="6.7757">
        <ele>431.2</ele>
        <time>2017-10-15T09:33:39.999Z</time>
      </trkpt>
      <trkpt lat="47.52254" lon="6.77573">
        <ele>430.5</ele>
        <time>2017-10-15T09:33:40.999Z</time>
      </trkpt>
      <trkpt lat="47.52249" lon="6.77575">
        <ele>430.6</ele>
        <time>2017-10-15T09:33:41.999Z</time>
      </trkpt>
      <trkpt lat="47.52245" lon="6.77578">
        <ele>430.4</ele>
        <time>2017-10-15T09:33:42.999Z</time>
      </trkpt>
      <trkpt lat="47.5224" lon="6.77581">
        <ele>430</ele>
        <time>2017-10-15T09:33:43.999Z</time>
      </trkpt>
      <trkpt lat="47.52236" lon="6.77584">
        <ele>430.1</ele>
        <time>2017-10-15T09:33:44.999Z</time>
      </trkpt>
      <trkpt lat="47.52231" lon="6.77587">
        <ele>430.3</ele>
        <time>2017-10-15T09:33:45.999Z</time>
      </trkpt>
      <trkpt lat="47.52227" lon="6.7759">
        <ele>430.3</ele>
        <time>2017-10-15T09:33:46.999Z</time>
      </trkpt>
      <trkpt lat="47.52222" lon="6.77593">
        <ele>430.2</ele>
        <time>2017-10-15T09:33:47.999Z</time>
      </trkpt>
      <trkpt lat="47.52218" lon="6.77596">
        <ele>430.4</ele>
        <time>2017-10-15T09:33:48.999Z</time>
      </trkpt>
      <trkpt lat="47.52214" lon="6.77599">
        <ele>430.5</ele>
        <time>2017-10-15T09:33:49.999Z</time>
      </trkpt>
      <trkpt lat="47.5221" lon="6.77602">
        <ele>429.9</ele>
        <time>2017-10-15T09:33:50.999Z</time>
      </trkpt>
      <trkpt lat="47.52207" lon="6.77605">
        <ele>429.1</ele>
        <time>2017-10-15T09:33:51.999Z</time>
      </trkpt>
      <trkpt lat="47.52203" lon="6.77608">
        <ele>428.8</ele>
        <time>2017-10-15T09:33:52.999Z</time>
      </trkpt>
      <trkpt lat="47.52198" lon="6.77611">
        <ele>428.4</ele>
        <time>2017-10-15T09:33:53.999Z</time>
      </trkpt>
      <trkpt lat="47.52194" lon="6.77614">
        <ele>428.4</ele>
        <time>2017-10-15T09:33:54.999Z</time>
      </trkpt>
      <trkpt lat="47.5219" lon="6.77616">
        <ele>428.8</ele>
        <time>2017-10-15T09:33:55.999Z</time>
      </trkpt>
      <trkpt lat="47.52185" lon="6.77618">
        <ele>428.5</ele>
        <time>2017-10-15T09:33:57.000Z</time>
      </trkpt>
      <trkpt lat="47.52181" lon="6.7762">
        <ele>428.5</ele>
        <time>2017-10-15T09:33:57.999Z</time>
      </trkpt>
      <trkpt lat="47.52177" lon="6.77623">
        <ele>428.7</ele>
        <time>2017-10-15T09:33:58.999Z</time>
      </trkpt>
      <trkpt lat="47.52173" lon="6.77626">
        <ele>428.9</ele>
        <time>2017-10-15T09:34:00.000Z</time>
      </trkpt>
      <trkpt lat="47.5217" lon="6.77629">
        <ele>428.7</ele>
        <time>2017-10-15T09:34:01.000Z</time>
      </trkpt>
      <trkpt lat="47.52166" lon="6.77631">
        <ele>429.6</ele>
        <time>2017-10-15T09:34:02.000Z</time>
      </trkpt>
      <trkpt lat="47.52162" lon="6.77634">
        <ele>430.1</ele>
        <time>2017-10-15T09:34:03.000Z</time>
      </trkpt>
      <trkpt lat="47.52158" lon="6.77636">
        <ele>430.1</ele>
        <time>2017-10-15T09:34:04.000Z</time>
      </trkpt>
      <trkpt lat="47.52154" lon="6.77639">
        <ele>430.1</ele>
        <time>2017-10-15T09:34:05.000Z</time>
      </trkpt>
      <trkpt lat="47.5215" lon="6.7764">
        <ele>430.3</ele>
        <time>2017-10-15T09:34:06.000Z</time>
      </trkpt>
      <trkpt lat="47.52146" lon="6.77641">
        <ele>430.5</ele>
        <time>2017-10-15T09:34:07.000Z</time>
      </trkpt>
      <trkpt lat="47.52143" lon="6.77642">
        <ele>430.5</ele>
        <time>2017-10-15T09:34:08.000Z</time>
      </trkpt>
      <trkpt lat="47.5214" lon="6.77644">
        <ele>430.5</ele>
        <time>2017-10-15T09:34:09.000Z</time>
      </trkpt>
      <trkpt lat="47.52137" lon="6.77645">
        <ele>430.5</ele>
        <time>2017-10-15T09:34:10.000Z</time>
      </trkpt>
      <trkpt lat="47.52134" lon="6.77647">
        <ele>430.4</ele>
        <time>2017-10-15T09:34:11.000Z</time>
      </trkpt>
      <trkpt lat="47.52131" lon="6.77649">
        <ele>430.3</ele>
        <time>2017-10-15T09:34:12.000Z</time>
      </trkpt>
      <trkpt lat="47.52128" lon="6.77651">
        <ele>430.3</ele>
        <time>2017-10-15T09:34:13.000Z</time>
      </trkpt>
      <trkpt lat="47.52125" lon="6.77654">
        <ele>430.3</ele>
        <time>2017-10-15T09:34:14.000Z</time>
      </trkpt>
      <trkpt lat="47.52122" lon="6.77656">
        <ele>430.3</ele>
        <time>2017-10-15T09:34:15.000Z</time>
      </trkpt>
      <trkpt lat="47.5212" lon="6.77658">
        <ele>430.2</ele>
        <time>2017-10-15T09:34:16.000Z</time>
      </trkpt>
      <trkpt lat="47.52118" lon="6.7766">
        <ele>430.2</ele>
        <time>2017-10-15T09:34:17.000Z</time>
      </trkpt>
      <trkpt lat="47.52115" lon="6.77662">
        <ele>430.2</ele>
        <time>2017-10-15T09:34:18.000Z</time>
      </trkpt>
      <trkpt lat="47.52113" lon="6.77664">
        <ele>430.2</ele>
        <time>2017-10-15T09:34:19.000Z</time>
      </trkpt>
      <trkpt lat="47.5211" lon="6.77667">
        <ele>430.3</ele>
        <time>2017-10-15T09:34:20.000Z</time>
      </trkpt>
      <trkpt lat="47.52108" lon="6.7767">
        <ele>430.3</ele>
        <time>2017-10-15T09:34:21.000Z</time>
      </trkpt>
      <trkpt lat="47.52105" lon="6.77672">
        <ele>430.4</ele>
        <time>2017-10-15T09:34:22.000Z</time>
      </trkpt>
      <trkpt lat="47.52101" lon="6.77673">
        <ele>430.4</ele>
        <time>2017-10-15T09:34:24.000Z</time>
      </trkpt>
      <trkpt lat="47.521" lon="6.77672">
        <ele>430.3</ele>
        <time>2017-10-15T09:34:25.000Z</time>
      </trkpt>
      <trkpt lat="47.521" lon="6.77668">
        <ele>430.3</ele>
        <time>2017-10-15T09:34:26.000Z</time>
      </trkpt>
      <trkpt lat="47.52099" lon="6.77664">
        <ele>430.2</ele>
        <time>2017-10-15T09:34:27.000Z</time>
      </trkpt>
      <trkpt lat="47.52099" lon="6.77659">
        <ele>430.3</ele>
        <time>2017-10-15T09:34:28.000Z</time>
      </trkpt>
      <trkpt lat="47.52099" lon="6.77654">
        <ele>430.3</ele>
        <time>2017-10-15T09:34:29.000Z</time>
      </trkpt>
      <trkpt lat="47.52099" lon="6.77649">
        <ele>430.4</ele>
        <time>2017-10-15T09:34:30.000Z</time>
      </trkpt>
      <trkpt lat="47.52098" lon="6.77643">
        <ele>430.4</ele>
        <time>2017-10-15T09:34:31.000Z</time>
      </trkpt>
      <trkpt lat="47.52099" lon="6.77635">
        <ele>430.5</ele>
        <time>2017-10-15T09:34:32.000Z</time>
      </trkpt>
      <trkpt lat="47.52099" lon="6.77629">
        <ele>430.6</ele>
        <time>2017-10-15T09:34:33.000Z</time>
      </trkpt>
      <trkpt lat="47.52099" lon="6.77624">
        <ele>430.7</ele>
        <time>2017-10-15T09:34:34.000Z</time>
      </trkpt>
      <trkpt lat="47.52098" lon="6.77619">
        <ele>430.8</ele>
        <time>2017-10-15T09:34:35.000Z</time>
      </trkpt>
      <trkpt lat="47.52099" lon="6.77615">
        <ele>430.9</ele>
        <time>2017-10-15T09:34:36.000Z</time>
      </trkpt>
      <trkpt lat="47.52099" lon="6.77609">
        <ele>430.9</ele>
        <time>2017-10-15T09:34:37.000Z</time>
      </trkpt>
      <trkpt lat="47.52099" lon="6.77605">
        <ele>430.9</ele>
        <time>2017-10-15T09:34:38.000Z</time>
      </trkpt>
      <trkpt lat="47.52099" lon="6.77599">
        <ele>430.8</ele>
        <time>2017-10-15T09:34:39.000Z</time>
      </trkpt>
      <trkpt lat="47.52099" lon="6.77593">
        <ele>430.9</ele>
        <time>2017-10-15T09:34:40.000Z</time>
      </trkpt>
      <trkpt lat="47.52098" lon="6.77587">
        <ele>430.4</ele>
        <time>2017-10-15T09:34:41.000Z</time>
      </trkpt>
      <trkpt lat="47.52098" lon="6.7758">
        <ele>430.8</ele>
        <time>2017-10-15T09:34:42.000Z</time>
      </trkpt>
      <trkpt lat="47.52097" lon="6.77574">
        <ele>430.8</ele>
        <time>2017-10-15T09:34:43.000Z</time>
      </trkpt>
      <trkpt lat="47.52095" lon="6.77568">
        <ele>431.6</ele>
        <time>2017-10-15T09:34:44.000Z</time>
      </trkpt>
      <trkpt lat="47.52094" lon="6.77563">
        <ele>431.6</ele>
        <time>2017-10-15T09:34:45.000Z</time>
      </trkpt>
      <trkpt lat="47.52091" lon="6.77558">
        <ele>431.7</ele>
        <time>2017-10-15T09:34:46.000Z</time>
      </trkpt>
      <trkpt lat="47.52089" lon="6.77554">
        <ele>431.8</ele>
        <time>2017-10-15T09:34:47.000Z</time>
      </trkpt>
      <trkpt lat="47.52086" lon="6.77553">
        <ele>431.9</ele>
        <time>2017-10-15T09:34:48.000Z</time>
      </trkpt>
      <trkpt lat="47.52083" lon="6.77552">
        <ele>431.9</ele>
        <time>2017-10-15T09:34:49.000Z</time>
      </trkpt>
      <trkpt lat="47.5208" lon="6.7755">
        <ele>431.9</ele>
        <time>2017-10-15T09:34:50.000Z</time>
      </trkpt>
      <trkpt lat="47.52077" lon="6.77549">
        <ele>432</ele>
        <time>2017-10-15T09:34:51.000Z</time>
      </trkpt>
      <trkpt lat="47.52073" lon="6.77548">
        <ele>432</ele>
        <time>2017-10-15T09:34:52.000Z</time>
      </trkpt>
      <trkpt lat="47.52069" lon="6.77547">
        <ele>432.5</ele>
        <time>2017-10-15T09:34:53.000Z</time>
      </trkpt>
      <trkpt lat="47.52065" lon="6.77546">
        <ele>432.5</ele>
        <time>2017-10-15T09:34:54.000Z</time>
      </trkpt>
      <trkpt lat="47.52061" lon="6.77546">
        <ele>432.9</ele>
        <time>2017-10-15T09:34:55.000Z</time>
      </trkpt>
      <trkpt lat="47.52057" lon="6.77545">
        <ele>433.4</ele>
        <time>2017-10-15T09:34:56.000Z</time>
      </trkpt>
      <trkpt lat="47.52053" lon="6.77544">
        <ele>433.7</ele>
        <time>2017-10-15T09:34:57.000Z</time>
      </trkpt>
      <trkpt lat="47.52049" lon="6.77543">
        <ele>433.4</ele>
        <time>2017-10-15T09:34:58.000Z</time>
      </trkpt>
      <trkpt lat="47.52045" lon="6.77542">
        <ele>433.4</ele>
        <time>2017-10-15T09:34:59.000Z</time>
      </trkpt>
      <trkpt lat="47.52042" lon="6.77541">
        <ele>433.4</ele>
        <time>2017-10-15T09:35:00.000Z</time>
      </trkpt>
      <trkpt lat="47.52038" lon="6.77539">
        <ele>433</ele>
        <time>2017-10-15T09:35:01.000Z</time>
      </trkpt>
      <trkpt lat="47.52034" lon="6.77538">
        <ele>433.4</ele>
        <time>2017-10-15T09:35:02.000Z</time>
      </trkpt>
      <trkpt lat="47.5203" lon="6.77537">
        <ele>433.6</ele>
        <time>2017-10-15T09:35:03.000Z</time>
      </trkpt>
      <trkpt lat="47.52026" lon="6.77535">
        <ele>433.2</ele>
        <time>2017-10-15T09:35:04.000Z</time>
      </trkpt>
      <trkpt lat="47.52022" lon="6.77533">
        <ele>433</ele>
        <time>2017-10-15T09:35:05.000Z</time>
      </trkpt>
      <trkpt lat="47.52017" lon="6.77532">
        <ele>432.3</ele>
        <time>2017-10-15T09:35:06.000Z</time>
      </trkpt>
      <trkpt lat="47.52013" lon="6.7753">
        <ele>431.6</ele>
        <time>2017-10-15T09:35:07.000Z</time>
      </trkpt>
      <trkpt lat="47.52009" lon="6.77528">
        <ele>431</ele>
        <time>2017-10-15T09:35:08.000Z</time>
      </trkpt>
      <trkpt lat="47.52005" lon="6.77527">
        <ele>430.2</ele>
        <time>2017-10-15T09:35:09.000Z</time>
      </trkpt>
      <trkpt lat="47.52" lon="6.77526">
        <ele>430.1</ele>
        <time>2017-10-15T09:35:10.000Z</time>
      </trkpt>
      <trkpt lat="47.51996" lon="6.77525">
        <ele>429.6</ele>
        <time>2017-10-15T09:35:11.000Z</time>
      </trkpt>
      <trkpt lat="47.51992" lon="6.77524">
        <ele>429.6</ele>
        <time>2017-10-15T09:35:12.000Z</time>
      </trkpt>
      <trkpt lat="47.51987" lon="6.77524">
        <ele>429.6</ele>
        <time>2017-10-15T09:35:13.000Z</time>
      </trkpt>
      <trkpt lat="47.51983" lon="6.77524">
        <ele>428.9</ele>
        <time>2017-10-15T09:35:14.000Z</time>
      </trkpt>
      <trkpt lat="47.51978" lon="6.77523">
        <ele>427.9</ele>
        <time>2017-10-15T09:35:15.000Z</time>
      </trkpt>
      <trkpt lat="47.51974" lon="6.77523">
        <ele>427.7</ele>
        <time>2017-10-15T09:35:16.000Z</time>
      </trkpt>
      <trkpt lat="47.5197" lon="6.77522">
        <ele>427.7</ele>
        <time>2017-10-15T09:35:17.000Z</time>
      </trkpt>
      <trkpt lat="47.51966" lon="6.77521">
        <ele>427.7</ele>
        <time>2017-10-15T09:35:18.000Z</time>
      </trkpt>
      <trkpt lat="47.51962" lon="6.7752">
        <ele>427.7</ele>
        <time>2017-10-15T09:35:19.000Z</time>
      </trkpt>
      <trkpt lat="47.51959" lon="6.7752">
        <ele>427.8</ele>
        <time>2017-10-15T09:35:20.000Z</time>
      </trkpt>
      <trkpt lat="47.51955" lon="6.7752">
        <ele>427.8</ele>
        <time>2017-10-15T09:35:21.000Z</time>
      </trkpt>
      <trkpt lat="47.51952" lon="6.77519">
        <ele>427.9</ele>
        <time>2017-10-15T09:35:22.000Z</time>
      </trkpt>
      <trkpt lat="47.51948" lon="6.77519">
        <ele>427.9</ele>
        <time>2017-10-15T09:35:23.000Z</time>
      </trkpt>
      <trkpt lat="47.51945" lon="6.77518">
        <ele>427.9</ele>
        <time>2017-10-15T09:35:24.000Z</time>
      </trkpt>
      <trkpt lat="47.51941" lon="6.77517">
        <ele>428.1</ele>
        <time>2017-10-15T09:35:25.000Z</time>
      </trkpt>
      <trkpt lat="47.51936" lon="6.77516">
        <ele>428.2</ele>
        <time>2017-10-15T09:35:26.000Z</time>
      </trkpt>
      <trkpt lat="47.51932" lon="6.77515">
        <ele>428</ele>
        <time>2017-10-15T09:35:27.000Z</time>
      </trkpt>
      <trkpt lat="47.51928" lon="6.77515">
        <ele>428.1</ele>
        <time>2017-10-15T09:35:28.000Z</time>
      </trkpt>
      <trkpt lat="47.51924" lon="6.77514">
        <ele>428.1</ele>
        <time>2017-10-15T09:35:29.000Z</time>
      </trkpt>
      <trkpt lat="47.5192" lon="6.77513">
        <ele>428.2</ele>
        <time>2017-10-15T09:35:30.000Z</time>
      </trkpt>
      <trkpt lat="47.51916" lon="6.77512">
        <ele>429.2</ele>
        <time>2017-10-15T09:35:31.000Z</time>
      </trkpt>
      <trkpt lat="47.51912" lon="6.77511">
        <ele>429.5</ele>
        <time>2017-10-15T09:35:32.000Z</time>
      </trkpt>
      <trkpt lat="47.51908" lon="6.77509">
        <ele>429.4</ele>
        <time>2017-10-15T09:35:33.000Z</time>
      </trkpt>
      <trkpt lat="47.51904" lon="6.77507">
        <ele>429.7</ele>
        <time>2017-10-15T09:35:34.000Z</time>
      </trkpt>
      <trkpt lat="47.519" lon="6.77506">
        <ele>430.2</ele>
        <time>2017-10-15T09:35:35.000Z</time>
      </trkpt>
      <trkpt lat="47.51895" lon="6.77505">
        <ele>430.7</ele>
        <time>2017-10-15T09:35:36.000Z</time>
      </trkpt>
      <trkpt lat="47.5189" lon="6.77504">
        <ele>430.4</ele>
        <time>2017-10-15T09:35:37.000Z</time>
      </trkpt>
      <trkpt lat="47.51885" lon="6.77503">
        <ele>430.1</ele>
        <time>2017-10-15T09:35:38.000Z</time>
      </trkpt>
      <trkpt lat="47.5188" lon="6.77503">
        <ele>429.3</ele>
        <time>2017-10-15T09:35:39.000Z</time>
      </trkpt>
      <trkpt lat="47.51875" lon="6.77502">
        <ele>428.8</ele>
        <time>2017-10-15T09:35:40.000Z</time>
      </trkpt>
      <trkpt lat="47.5187" lon="6.77501">
        <ele>428.7</ele>
        <time>2017-10-15T09:35:41.000Z</time>
      </trkpt>
      <trkpt lat="47.51865" lon="6.77501">
        <ele>428.7</ele>
        <time>2017-10-15T09:35:42.000Z</time>
      </trkpt>
      <trkpt lat="47.51861" lon="6.77502">
        <ele>428.7</ele>
        <time>2017-10-15T09:35:43.000Z</time>
      </trkpt>
      <trkpt lat="47.51856" lon="6.77503">
        <ele>429.3</ele>
        <time>2017-10-15T09:35:44.000Z</time>
      </trkpt>
      <trkpt lat="47.51851" lon="6.77502">
        <ele>429.4</ele>
        <time>2017-10-15T09:35:45.000Z</time>
      </trkpt>
      <trkpt lat="47.51847" lon="6.77502">
        <ele>429</ele>
        <time>2017-10-15T09:35:46.000Z</time>
      </trkpt>
      <trkpt lat="47.51843" lon="6.77501">
        <ele>429</ele>
        <time>2017-10-15T09:35:47.000Z</time>
      </trkpt>
      <trkpt lat="47.51838" lon="6.775">
        <ele>429</ele>
        <time>2017-10-15T09:35:48.000Z</time>
      </trkpt>
      <trkpt lat="47.51833" lon="6.775">
        <ele>428.7</ele>
        <time>2017-10-15T09:35:49.000Z</time>
      </trkpt>
      <trkpt lat="47.51829" lon="6.775">
        <ele>428.1</ele>
        <time>2017-10-15T09:35:50.000Z</time>
      </trkpt>
      <trkpt lat="47.51825" lon="6.775">
        <ele>427.1</ele>
        <time>2017-10-15T09:35:51.000Z</time>
      </trkpt>
      <trkpt lat="47.51821" lon="6.77499">
        <ele>426</ele>
        <time>2017-10-15T09:35:52.000Z</time>
      </trkpt>
      <trkpt lat="47.51819" lon="6.77498">
        <ele>425.9</ele>
        <time>2017-10-15T09:35:53.000Z</time>
      </trkpt>
      <trkpt lat="47.51817" lon="6.77494">
        <ele>425.9</ele>
        <time>2017-10-15T09:35:55.000Z</time>
      </trkpt>
      <trkpt lat="47.51815" lon="6.77492">
        <ele>425.8</ele>
        <time>2017-10-15T09:35:56.000Z</time>
      </trkpt>
      <trkpt lat="47.51814" lon="6.77488">
        <ele>425.9</ele>
        <time>2017-10-15T09:35:57.000Z</time>
      </trkpt>
      <trkpt lat="47.51811" lon="6.77485">
        <ele>426.1</ele>
        <time>2017-10-15T09:35:58.000Z</time>
      </trkpt>
      <trkpt lat="47.51808" lon="6.77483">
        <ele>426.2</ele>
        <time>2017-10-15T09:35:59.000Z</time>
      </trkpt>
      <trkpt lat="47.51805" lon="6.77482">
        <ele>426.4</ele>
        <time>2017-10-15T09:36:00.000Z</time>
      </trkpt>
      <trkpt lat="47.51803" lon="6.77481">
        <ele>426.5</ele>
        <time>2017-10-15T09:36:01.000Z</time>
      </trkpt>
      <trkpt lat="47.51801" lon="6.77479">
        <ele>426.7</ele>
        <time>2017-10-15T09:36:02.000Z</time>
      </trkpt>
      <trkpt lat="47.51799" lon="6.77474">
        <ele>427</ele>
        <time>2017-10-15T09:36:04.000Z</time>
      </trkpt>
      <trkpt lat="47.51799" lon="6.77473">
        <ele>427.2</ele>
        <time>2017-10-15T09:36:05.000Z</time>
      </trkpt>
      <trkpt lat="47.51798" lon="6.77466">
        <ele>428</ele>
        <time>2017-10-15T09:36:14.000Z</time>
      </trkpt>
      <trkpt lat="47.51797" lon="6.77465">
        <ele>428.1</ele>
        <time>2017-10-15T09:36:15.000Z</time>
      </trkpt>
      <trkpt lat="47.51793" lon="6.77467">
        <ele>430.1</ele>
        <time>2017-10-15T09:37:02.000Z</time>
      </trkpt>
      <trkpt lat="47.51793" lon="6.77467">
        <ele>430.1</ele>
        <time>2017-10-15T09:37:03.000Z</time>
      </trkpt>
      <trkpt lat="47.5179" lon="6.77462">
        <ele>430.4</ele>
        <time>2017-10-15T09:37:23.000Z</time>
      </trkpt>
      <trkpt lat="47.51789" lon="6.77462">
        <ele>430.4</ele>
        <time>2017-10-15T09:37:24.000Z</time>
      </trkpt>
      <trkpt lat="47.51792" lon="6.77459">
        <ele>430.8</ele>
        <time>2017-10-15T09:37:46.000Z</time>
      </trkpt>
      <trkpt lat="47.51793" lon="6.77458">
        <ele>430.9</ele>
        <time>2017-10-15T09:37:55.000Z</time>
      </trkpt>
      <trkpt lat="47.51795" lon="6.77461">
        <ele>431.2</ele>
        <time>2017-10-15T09:38:11.000Z</time>
      </trkpt>
      <trkpt lat="47.51798" lon="6.77465">
        <ele>431.4</ele>
        <time>2017-10-15T09:38:12.000Z</time>
      </trkpt>
      <trkpt lat="47.51794" lon="6.77468">
        <ele>430.6</ele>
        <time>2017-10-15T09:39:38.000Z</time>
      </trkpt>
      <trkpt lat="47.51794" lon="6.77468">
        <ele>430.6</ele>
        <time>2017-10-15T09:39:39.000Z</time>
      </trkpt>
      <trkpt lat="47.51793" lon="6.77469">
        <ele>430.9</ele>
        <time>2017-10-15T09:40:07.000Z</time>
      </trkpt>
    </trkseg>
  </trk>
</gpx>